<?xml version='1.0' encoding='UTF-8'?><gpx version="1.1" creator="JPX - https://github.com/jenetics/jpx" xmlns="http://www.topografix.com/GPX/1/1"><trk><trkseg><trkpt lat="40.8938351" lon="14.287844"><ele>80.0</ele><time>2026-03-28T08:17:40.059Z</time></trkpt><trkpt lat="40.8938731" lon="14.2876574"><ele>80.0</ele><time>2026-03-28T08:17:47.473Z</time></trkpt><trkpt lat="40.893825" lon="14.287335"><ele>80.0</ele><time>2026-03-28T08:17:52.416Z</time></trkpt><trkpt lat="40.8937917" lon="14.28725"><ele>80.0</ele><time>2026-03-28T08:17:54.416Z</time></trkpt><trkpt lat="40.893745" lon="14.2871333"><ele>80.0</ele><time>2026-03-28T08:17:56.417Z</time></trkpt><trkpt lat="40.8937067" lon="14.2870083"><ele>80.0</ele><time>2026-03-28T08:17:58.416Z</time></trkpt><trkpt lat="40.8936733" lon="14.2868833"><ele>80.0</ele><time>2026-03-28T08:18:00.418Z</time></trkpt><trkpt lat="40.8936383" lon="14.2867517"><ele>80.0</ele><time>2026-03-28T08:18:02.417Z</time></trkpt><trkpt lat="40.8936017" lon="14.2866317"><ele>80.0</ele><time>2026-03-28T08:18:04.416Z</time></trkpt><trkpt lat="40.8935617" lon="14.2864917"><ele>80.0</ele><time>2026-03-28T08:18:06.418Z</time></trkpt><trkpt lat="40.8935183" lon="14.286375"><ele>80.0</ele><time>2026-03-28T08:18:08.415Z</time></trkpt><trkpt lat="40.8934833" lon="14.2862533"><ele>80.0</ele><time>2026-03-28T08:18:10.416Z</time></trkpt><trkpt lat="40.8934633" lon="14.2861383"><ele>80.0</ele><time>2026-03-28T08:18:12.417Z</time></trkpt><trkpt lat="40.8934783" lon="14.2860433"><ele>80.25</ele><time>2026-03-28T08:18:14.415Z</time></trkpt><trkpt lat="40.893585" lon="14.286015"><ele>80.5</ele><time>2026-03-28T08:18:16.417Z</time></trkpt><trkpt lat="40.8937667" lon="14.2860233"><ele>80.75</ele><time>2026-03-28T08:18:19.417Z</time></trkpt><trkpt lat="40.8938767" lon="14.2860333"><ele>81.0</ele><time>2026-03-28T08:18:21.417Z</time></trkpt><trkpt lat="40.893985" lon="14.2860367"><ele>81.0</ele><time>2026-03-28T08:18:23.417Z</time></trkpt><trkpt lat="40.8940933" lon="14.2860567"><ele>81.0</ele><time>2026-03-28T08:18:25.417Z</time></trkpt><trkpt lat="40.8942033" lon="14.2860833"><ele>81.0</ele><time>2026-03-28T08:18:27.417Z</time></trkpt><trkpt lat="40.8943083" lon="14.2861083"><ele>81.0</ele><time>2026-03-28T08:18:29.417Z</time></trkpt><trkpt lat="40.8944117" lon="14.2861317"><ele>81.0</ele><time>2026-03-28T08:18:31.417Z</time></trkpt><trkpt lat="40.8945283" lon="14.28615"><ele>80.75</ele><time>2026-03-28T08:18:33.417Z</time></trkpt><trkpt lat="40.8946483" lon="14.2861617"><ele>80.5</ele><time>2026-03-28T08:18:35.416Z</time></trkpt><trkpt lat="40.8947633" lon="14.286175"><ele>80.25</ele><time>2026-03-28T08:18:37.415Z</time></trkpt><trkpt lat="40.8948817" lon="14.2861817"><ele>80.0</ele><time>2026-03-28T08:18:39.417Z</time></trkpt><trkpt lat="40.89501" lon="14.28617"><ele>80.0</ele><time>2026-03-28T08:18:41.417Z</time></trkpt><trkpt lat="40.8950733" lon="14.286165"><ele>80.0</ele><time>2026-03-28T08:18:42.417Z</time></trkpt><trkpt lat="40.8951833" lon="14.2861683"><ele>80.0</ele><time>2026-03-28T08:18:44.417Z</time></trkpt><trkpt lat="40.895305" lon="14.2861583"><ele>80.0</ele><time>2026-03-28T08:18:46.417Z</time></trkpt><trkpt lat="40.895375" lon="14.286165"><ele>80.0</ele><time>2026-03-28T08:18:47.417Z</time></trkpt><trkpt lat="40.8954383" lon="14.2861683"><ele>80.0</ele><time>2026-03-28T08:18:48.417Z</time></trkpt><trkpt lat="40.895505" lon="14.2861783"><ele>80.0</ele><time>2026-03-28T08:18:49.417Z</time></trkpt><trkpt lat="40.8955683" lon="14.2861967"><ele>80.0</ele><time>2026-03-28T08:18:50.417Z</time></trkpt><trkpt lat="40.8956333" lon="14.28621"><ele>80.0</ele><time>2026-03-28T08:18:51.417Z</time></trkpt><trkpt lat="40.8956967" lon="14.2862167"><ele>80.0</ele><time>2026-03-28T08:18:52.418Z</time></trkpt><trkpt lat="40.8957667" lon="14.2862183"><ele>80.0</ele><time>2026-03-28T08:18:53.418Z</time></trkpt><trkpt lat="40.895835" lon="14.286225"><ele>80.0</ele><time>2026-03-28T08:18:54.596Z</time></trkpt><trkpt lat="40.89597" lon="14.2862467"><ele>80.0</ele><time>2026-03-28T08:18:56.417Z</time></trkpt><trkpt lat="40.89604" lon="14.2862583"><ele>80.0</ele><time>2026-03-28T08:18:57.417Z</time></trkpt><trkpt lat="40.8961083" lon="14.28627"><ele>80.0</ele><time>2026-03-28T08:18:58.417Z</time></trkpt><trkpt lat="40.8961783" lon="14.2862833"><ele>80.0</ele><time>2026-03-28T08:18:59.417Z</time></trkpt><trkpt lat="40.8962433" lon="14.28629"><ele>80.0</ele><time>2026-03-28T08:19:00.418Z</time></trkpt><trkpt lat="40.8963067" lon="14.2862983"><ele>80.0</ele><time>2026-03-28T08:19:01.417Z</time></trkpt><trkpt lat="40.896375" lon="14.2863283"><ele>80.0</ele><time>2026-03-28T08:19:02.415Z</time></trkpt><trkpt lat="40.8964883" lon="14.286365"><ele>80.0</ele><time>2026-03-28T08:19:04.417Z</time></trkpt><trkpt lat="40.8965933" lon="14.286365"><ele>80.0</ele><time>2026-03-28T08:19:06.418Z</time></trkpt><trkpt lat="40.896665" lon="14.2863083"><ele>80.0</ele><time>2026-03-28T08:19:08.417Z</time></trkpt><trkpt lat="40.8967317" lon="14.28622"><ele>80.0</ele><time>2026-03-28T08:19:10.417Z</time></trkpt><trkpt lat="40.8968033" lon="14.2861133"><ele>80.0</ele><time>2026-03-28T08:19:12.417Z</time></trkpt><trkpt lat="40.8968683" lon="14.2859933"><ele>80.2</ele><time>2026-03-28T08:19:14.417Z</time></trkpt><trkpt lat="40.89696" lon="14.2859067"><ele>80.4</ele><time>2026-03-28T08:19:16.415Z</time></trkpt><trkpt lat="40.89705" lon="14.2858467"><ele>80.6</ele><time>2026-03-28T08:19:18.416Z</time></trkpt><trkpt lat="40.8971283" lon="14.2857367"><ele>80.8</ele><time>2026-03-28T08:19:20.417Z</time></trkpt><trkpt lat="40.8972183" lon="14.2856517"><ele>81.0</ele><time>2026-03-28T08:19:22.417Z</time></trkpt><trkpt lat="40.89731" lon="14.2855567"><ele>81.0</ele><time>2026-03-28T08:19:24.417Z</time></trkpt><trkpt lat="40.897395" lon="14.285435"><ele>81.0</ele><time>2026-03-28T08:19:26.416Z</time></trkpt><trkpt lat="40.89748" lon="14.2853017"><ele>81.0</ele><time>2026-03-28T08:19:28.417Z</time></trkpt><trkpt lat="40.8975217" lon="14.2852283"><ele>81.0</ele><time>2026-03-28T08:19:29.417Z</time></trkpt><trkpt lat="40.8975733" lon="14.2851683"><ele>81.0</ele><time>2026-03-28T08:19:30.416Z</time></trkpt><trkpt lat="40.8976517" lon="14.28506"><ele>80.8</ele><time>2026-03-28T08:19:32.417Z</time></trkpt><trkpt lat="40.8977267" lon="14.2849467"><ele>80.6</ele><time>2026-03-28T08:19:34.417Z</time></trkpt><trkpt lat="40.8978067" lon="14.2848483"><ele>80.4</ele><time>2026-03-28T08:19:36.417Z</time></trkpt><trkpt lat="40.8978833" lon="14.28474"><ele>80.2</ele><time>2026-03-28T08:19:38.416Z</time></trkpt><trkpt lat="40.8979617" lon="14.2846383"><ele>80.0</ele><time>2026-03-28T08:19:40.418Z</time></trkpt><trkpt lat="40.8980233" lon="14.2845367"><ele>80.0</ele><time>2026-03-28T08:19:42.416Z</time></trkpt><trkpt lat="40.8980683" lon="14.284455"><ele>80.0</ele><time>2026-03-28T08:19:44.416Z</time></trkpt><trkpt lat="40.898145" lon="14.2844933"><ele>80.0</ele><time>2026-03-28T08:19:47.416Z</time></trkpt><trkpt lat="40.898215" lon="14.28457"><ele>80.0</ele><time>2026-03-28T08:19:49.418Z</time></trkpt><trkpt lat="40.8982883" lon="14.28468"><ele>80.0</ele><time>2026-03-28T08:19:51.417Z</time></trkpt><trkpt lat="40.89833" lon="14.284745"><ele>80.0</ele><time>2026-03-28T08:19:52.417Z</time></trkpt><trkpt lat="40.89841" lon="14.2848617"><ele>80.75</ele><time>2026-03-28T08:19:54.418Z</time></trkpt><trkpt lat="40.8984933" lon="14.28496"><ele>81.5</ele><time>2026-03-28T08:19:56.417Z</time></trkpt><trkpt lat="40.8985933" lon="14.2850533"><ele>82.25</ele><time>2026-03-28T08:19:58.417Z</time></trkpt><trkpt lat="40.8986933" lon="14.2851417"><ele>83.0</ele><time>2026-03-28T08:20:00.415Z</time></trkpt><trkpt lat="40.8987967" lon="14.2852283"><ele>83.0</ele><time>2026-03-28T08:20:02.416Z</time></trkpt><trkpt lat="40.8988517" lon="14.285275"><ele>83.0</ele><time>2026-03-28T08:20:03.417Z</time></trkpt><trkpt lat="40.8989133" lon="14.2853183"><ele>83.0</ele><time>2026-03-28T08:20:04.416Z</time></trkpt><trkpt lat="40.8989767" lon="14.28536"><ele>83.0</ele><time>2026-03-28T08:20:05.417Z</time></trkpt><trkpt lat="40.8990367" lon="14.2853983"><ele>83.0</ele><time>2026-03-28T08:20:06.417Z</time></trkpt><trkpt lat="40.8991" lon="14.2854367"><ele>83.0</ele><time>2026-03-28T08:20:07.417Z</time></trkpt><trkpt lat="40.89916" lon="14.2854683"><ele>83.0</ele><time>2026-03-28T08:20:08.416Z</time></trkpt><trkpt lat="40.899225" lon="14.2855033"><ele>83.14285714285714</ele><time>2026-03-28T08:20:09.416Z</time></trkpt><trkpt lat="40.8992883" lon="14.2855317"><ele>83.28571428571429</ele><time>2026-03-28T08:20:10.417Z</time></trkpt><trkpt lat="40.8993583" lon="14.28556"><ele>83.42857142857143</ele><time>2026-03-28T08:20:11.417Z</time></trkpt><trkpt lat="40.8994233" lon="14.2855967"><ele>83.57142857142857</ele><time>2026-03-28T08:20:12.416Z</time></trkpt><trkpt lat="40.8994933" lon="14.2856283"><ele>83.71428571428572</ele><time>2026-03-28T08:20:13.415Z</time></trkpt><trkpt lat="40.8995617" lon="14.2856617"><ele>83.85714285714286</ele><time>2026-03-28T08:20:14.416Z</time></trkpt><trkpt lat="40.8996283" lon="14.2856917"><ele>84.0</ele><time>2026-03-28T08:20:15.416Z</time></trkpt><trkpt lat="40.899695" lon="14.2857183"><ele>84.0</ele><time>2026-03-28T08:20:16.415Z</time></trkpt><trkpt lat="40.8997583" lon="14.285745"><ele>84.0</ele><time>2026-03-28T08:20:17.417Z</time></trkpt><trkpt lat="40.8998233" lon="14.2857767"><ele>84.0</ele><time>2026-03-28T08:20:18.417Z</time></trkpt><trkpt lat="40.8998867" lon="14.2858133"><ele>84.0</ele><time>2026-03-28T08:20:19.414Z</time></trkpt><trkpt lat="40.899955" lon="14.28584"><ele>84.0</ele><time>2026-03-28T08:20:20.417Z</time></trkpt><trkpt lat="40.9000233" lon="14.2858667"><ele>84.0</ele><time>2026-03-28T08:20:21.417Z</time></trkpt><trkpt lat="40.90009" lon="14.2858917"><ele>84.0</ele><time>2026-03-28T08:20:22.417Z</time></trkpt><trkpt lat="40.9001567" lon="14.285915"><ele>84.28571428571429</ele><time>2026-03-28T08:20:23.417Z</time></trkpt><trkpt lat="40.900225" lon="14.285935"><ele>84.57142857142857</ele><time>2026-03-28T08:20:24.417Z</time></trkpt><trkpt lat="40.900295" lon="14.2859517"><ele>84.85714285714286</ele><time>2026-03-28T08:20:25.417Z</time></trkpt><trkpt lat="40.9003633" lon="14.2859683"><ele>85.14285714285714</ele><time>2026-03-28T08:20:26.416Z</time></trkpt><trkpt lat="40.9004283" lon="14.2859717"><ele>85.42857142857143</ele><time>2026-03-28T08:20:27.418Z</time></trkpt><trkpt lat="40.900495" lon="14.285975"><ele>85.71428571428572</ele><time>2026-03-28T08:20:28.417Z</time></trkpt><trkpt lat="40.9005617" lon="14.285975"><ele>86.0</ele><time>2026-03-28T08:20:29.417Z</time></trkpt><trkpt lat="40.9006317" lon="14.2859767"><ele>86.00000000000001</ele><time>2026-03-28T08:20:30.417Z</time></trkpt><trkpt lat="40.9007017" lon="14.2859767"><ele>86.0</ele><time>2026-03-28T08:20:31.417Z</time></trkpt><trkpt lat="40.9007733" lon="14.28597"><ele>86.0</ele><time>2026-03-28T08:20:32.416Z</time></trkpt><trkpt lat="40.900845" lon="14.2859567"><ele>86.0</ele><time>2026-03-28T08:20:33.417Z</time></trkpt><trkpt lat="40.90092" lon="14.2859467"><ele>86.0</ele><time>2026-03-28T08:20:34.417Z</time></trkpt><trkpt lat="40.900995" lon="14.2859367"><ele>86.00000000000001</ele><time>2026-03-28T08:20:35.416Z</time></trkpt><trkpt lat="40.9010633" lon="14.2859233"><ele>86.0</ele><time>2026-03-28T08:20:36.417Z</time></trkpt><trkpt lat="40.9011333" lon="14.2859017"><ele>85.83333333333334</ele><time>2026-03-28T08:20:37.417Z</time></trkpt><trkpt lat="40.9012033" lon="14.2858833"><ele>85.66666666666667</ele><time>2026-03-28T08:20:38.417Z</time></trkpt><trkpt lat="40.90127" lon="14.2858617"><ele>85.5</ele><time>2026-03-28T08:20:39.416Z</time></trkpt><trkpt lat="40.901395" lon="14.2858383"><ele>85.33333333333333</ele><time>2026-03-28T08:20:41.417Z</time></trkpt><trkpt lat="40.9014583" lon="14.2858267"><ele>85.16666666666666</ele><time>2026-03-28T08:20:42.417Z</time></trkpt><trkpt lat="40.901525" lon="14.2858067"><ele>85.0</ele><time>2026-03-28T08:20:43.417Z</time></trkpt><trkpt lat="40.90159" lon="14.28578"><ele>85.0</ele><time>2026-03-28T08:20:44.416Z</time></trkpt><trkpt lat="40.9016567" lon="14.2857583"><ele>85.0</ele><time>2026-03-28T08:20:45.415Z</time></trkpt><trkpt lat="40.9017283" lon="14.2857483"><ele>85.0</ele><time>2026-03-28T08:20:46.414Z</time></trkpt><trkpt lat="40.9017983" lon="14.2857367"><ele>85.0</ele><time>2026-03-28T08:20:47.415Z</time></trkpt><trkpt lat="40.9018633" lon="14.2857233"><ele>85.0</ele><time>2026-03-28T08:20:48.417Z</time></trkpt><trkpt lat="40.9019267" lon="14.2857083"><ele>85.0</ele><time>2026-03-28T08:20:49.417Z</time></trkpt><trkpt lat="40.9019917" lon="14.2856867"><ele>85.0</ele><time>2026-03-28T08:20:50.417Z</time></trkpt><trkpt lat="40.9021117" lon="14.285655"><ele>85.16666666666666</ele><time>2026-03-28T08:20:52.417Z</time></trkpt><trkpt lat="40.9022317" lon="14.285615"><ele>85.33333333333333</ele><time>2026-03-28T08:20:54.417Z</time></trkpt><trkpt lat="40.902355" lon="14.2855633"><ele>85.5</ele><time>2026-03-28T08:20:56.417Z</time></trkpt><trkpt lat="40.9024167" lon="14.2855417"><ele>85.66666666666667</ele><time>2026-03-28T08:20:57.417Z</time></trkpt><trkpt lat="40.90248" lon="14.2855217"><ele>85.83333333333334</ele><time>2026-03-28T08:20:58.417Z</time></trkpt><trkpt lat="40.9025417" lon="14.285505"><ele>86.0</ele><time>2026-03-28T08:20:59.417Z</time></trkpt><trkpt lat="40.9026133" lon="14.2854933"><ele>85.71428571428572</ele><time>2026-03-28T08:21:00.416Z</time></trkpt><trkpt lat="40.9026917" lon="14.2854767"><ele>85.42857142857143</ele><time>2026-03-28T08:21:01.416Z</time></trkpt><trkpt lat="40.9027617" lon="14.285455"><ele>85.14285714285714</ele><time>2026-03-28T08:21:02.416Z</time></trkpt><trkpt lat="40.9028283" lon="14.28544"><ele>84.85714285714286</ele><time>2026-03-28T08:21:03.417Z</time></trkpt><trkpt lat="40.9028983" lon="14.2854133"><ele>84.57142857142857</ele><time>2026-03-28T08:21:04.416Z</time></trkpt><trkpt lat="40.9029683" lon="14.2853867"><ele>84.28571428571429</ele><time>2026-03-28T08:21:05.417Z</time></trkpt><trkpt lat="40.90304" lon="14.2853617"><ele>84.0</ele><time>2026-03-28T08:21:06.417Z</time></trkpt><trkpt lat="40.903105" lon="14.28535"><ele>84.0</ele><time>2026-03-28T08:21:07.417Z</time></trkpt><trkpt lat="40.9031717" lon="14.2853383"><ele>84.0</ele><time>2026-03-28T08:21:08.416Z</time></trkpt><trkpt lat="40.9032367" lon="14.2853317"><ele>84.0</ele><time>2026-03-28T08:21:09.417Z</time></trkpt><trkpt lat="40.9033617" lon="14.2853083"><ele>84.0</ele><time>2026-03-28T08:21:11.417Z</time></trkpt><trkpt lat="40.9034267" lon="14.2852883"><ele>84.0</ele><time>2026-03-28T08:21:12.416Z</time></trkpt><trkpt lat="40.903495" lon="14.2852717"><ele>84.0</ele><time>2026-03-28T08:21:13.417Z</time></trkpt><trkpt lat="40.903565" lon="14.2852533"><ele>83.42857142857143</ele><time>2026-03-28T08:21:14.416Z</time></trkpt><trkpt lat="40.903635" lon="14.2852333"><ele>82.85714285714286</ele><time>2026-03-28T08:21:15.415Z</time></trkpt><trkpt lat="40.9037017" lon="14.2852233"><ele>82.28571428571428</ele><time>2026-03-28T08:21:16.416Z</time></trkpt><trkpt lat="40.9037717" lon="14.2852167"><ele>81.71428571428572</ele><time>2026-03-28T08:21:17.417Z</time></trkpt><trkpt lat="40.9038433" lon="14.28521"><ele>81.14285714285714</ele><time>2026-03-28T08:21:18.416Z</time></trkpt><trkpt lat="40.9039117" lon="14.2851983"><ele>80.57142857142857</ele><time>2026-03-28T08:21:19.415Z</time></trkpt><trkpt lat="40.9039883" lon="14.2851767"><ele>80.0</ele><time>2026-03-28T08:21:20.416Z</time></trkpt><trkpt lat="40.9040583" lon="14.2851583"><ele>80.0</ele><time>2026-03-28T08:21:21.416Z</time></trkpt><trkpt lat="40.9041267" lon="14.28514"><ele>80.0</ele><time>2026-03-28T08:21:22.417Z</time></trkpt><trkpt lat="40.904195" lon="14.2851217"><ele>80.0</ele><time>2026-03-28T08:21:23.417Z</time></trkpt><trkpt lat="40.90426" lon="14.2851017"><ele>80.0</ele><time>2026-03-28T08:21:24.416Z</time></trkpt><trkpt lat="40.9043233" lon="14.28508"><ele>80.0</ele><time>2026-03-28T08:21:25.414Z</time></trkpt><trkpt lat="40.904385" lon="14.2850567"><ele>80.0</ele><time>2026-03-28T08:21:26.415Z</time></trkpt><trkpt lat="40.9045117" lon="14.285005"><ele>79.85714285714286</ele><time>2026-03-28T08:21:28.415Z</time></trkpt><trkpt lat="40.9045733" lon="14.284975"><ele>79.71428571428572</ele><time>2026-03-28T08:21:29.417Z</time></trkpt><trkpt lat="40.9046383" lon="14.2849517"><ele>79.57142857142858</ele><time>2026-03-28T08:21:30.417Z</time></trkpt><trkpt lat="40.9047033" lon="14.284935"><ele>79.42857142857143</ele><time>2026-03-28T08:21:31.417Z</time></trkpt><trkpt lat="40.9047667" lon="14.28492"><ele>79.28571428571429</ele><time>2026-03-28T08:21:32.417Z</time></trkpt><trkpt lat="40.9048333" lon="14.2849067"><ele>79.14285714285715</ele><time>2026-03-28T08:21:33.415Z</time></trkpt><trkpt lat="40.9048983" lon="14.284885"><ele>79.0</ele><time>2026-03-28T08:21:34.416Z</time></trkpt><trkpt lat="40.9050183" lon="14.2848417"><ele>79.0</ele><time>2026-03-28T08:21:36.417Z</time></trkpt><trkpt lat="40.9051383" lon="14.2848117"><ele>79.0</ele><time>2026-03-28T08:21:38.42Z</time></trkpt><trkpt lat="40.905255" lon="14.284775"><ele>79.0</ele><time>2026-03-28T08:21:40.419Z</time></trkpt><trkpt lat="40.90532" lon="14.2847517"><ele>79.0</ele><time>2026-03-28T08:21:41.419Z</time></trkpt><trkpt lat="40.9053867" lon="14.284735"><ele>79.0</ele><time>2026-03-28T08:21:42.421Z</time></trkpt><trkpt lat="40.9055133" lon="14.2847"><ele>79.00000000000001</ele><time>2026-03-28T08:21:44.417Z</time></trkpt><trkpt lat="40.9055783" lon="14.2846883"><ele>79.0</ele><time>2026-03-28T08:21:45.414Z</time></trkpt><trkpt lat="40.9056567" lon="14.284695"><ele>79.0</ele><time>2026-03-28T08:21:46.417Z</time></trkpt><trkpt lat="40.90573" lon="14.284685"><ele>79.0</ele><time>2026-03-28T08:21:47.416Z</time></trkpt><trkpt lat="40.9058" lon="14.28469"><ele>79.0</ele><time>2026-03-28T08:21:48.417Z</time></trkpt><trkpt lat="40.90587" lon="14.2847017"><ele>79.00000000000001</ele><time>2026-03-28T08:21:49.417Z</time></trkpt><trkpt lat="40.9059383" lon="14.2847033"><ele>79.0</ele><time>2026-03-28T08:21:50.415Z</time></trkpt><trkpt lat="40.90601" lon="14.2847117"><ele>78.85714285714286</ele><time>2026-03-28T08:21:51.415Z</time></trkpt><trkpt lat="40.9060833" lon="14.2847317"><ele>78.71428571428572</ele><time>2026-03-28T08:21:52.417Z</time></trkpt><trkpt lat="40.906155" lon="14.2847517"><ele>78.57142857142858</ele><time>2026-03-28T08:21:53.417Z</time></trkpt><trkpt lat="40.90622" lon="14.284775"><ele>78.42857142857143</ele><time>2026-03-28T08:21:54.418Z</time></trkpt><trkpt lat="40.906285" lon="14.2847967"><ele>78.28571428571428</ele><time>2026-03-28T08:21:55.416Z</time></trkpt><trkpt lat="40.9063483" lon="14.2848217"><ele>78.14285714285715</ele><time>2026-03-28T08:21:56.417Z</time></trkpt><trkpt lat="40.9064117" lon="14.2848517"><ele>78.0</ele><time>2026-03-28T08:21:57.417Z</time></trkpt><trkpt lat="40.9064717" lon="14.2848867"><ele>78.0</ele><time>2026-03-28T08:21:58.417Z</time></trkpt><trkpt lat="40.9065317" lon="14.2849217"><ele>78.0</ele><time>2026-03-28T08:21:59.417Z</time></trkpt><trkpt lat="40.9065933" lon="14.2849533"><ele>78.0</ele><time>2026-03-28T08:22:00.417Z</time></trkpt><trkpt lat="40.9066583" lon="14.2849917"><ele>78.0</ele><time>2026-03-28T08:22:01.416Z</time></trkpt><trkpt lat="40.9067217" lon="14.2850267"><ele>78.0</ele><time>2026-03-28T08:22:02.417Z</time></trkpt><trkpt lat="40.9067833" lon="14.2850683"><ele>78.0</ele><time>2026-03-28T08:22:03.416Z</time></trkpt><trkpt lat="40.906845" lon="14.2851117"><ele>78.0</ele><time>2026-03-28T08:22:04.417Z</time></trkpt><trkpt lat="40.90691" lon="14.2851633"><ele>77.33333333333333</ele><time>2026-03-28T08:22:05.416Z</time></trkpt><trkpt lat="40.9069733" lon="14.28522"><ele>76.66666666666667</ele><time>2026-03-28T08:22:06.416Z</time></trkpt><trkpt lat="40.9070383" lon="14.2852783"><ele>76.0</ele><time>2026-03-28T08:22:07.417Z</time></trkpt><trkpt lat="40.9071017" lon="14.2853317"><ele>75.33333333333334</ele><time>2026-03-28T08:22:08.416Z</time></trkpt><trkpt lat="40.9071667" lon="14.2853867"><ele>74.66666666666667</ele><time>2026-03-28T08:22:09.417Z</time></trkpt><trkpt lat="40.9072317" lon="14.2854367"><ele>74.0</ele><time>2026-03-28T08:22:10.417Z</time></trkpt><trkpt lat="40.907295" lon="14.2854883"><ele>74.0</ele><time>2026-03-28T08:22:11.417Z</time></trkpt><trkpt lat="40.907365" lon="14.2855417"><ele>74.0</ele><time>2026-03-28T08:22:12.416Z</time></trkpt><trkpt lat="40.90743" lon="14.2855983"><ele>74.0</ele><time>2026-03-28T08:22:13.416Z</time></trkpt><trkpt lat="40.907495" lon="14.285655"><ele>74.0</ele><time>2026-03-28T08:22:14.415Z</time></trkpt><trkpt lat="40.9075617" lon="14.285705"><ele>74.0</ele><time>2026-03-28T08:22:15.417Z</time></trkpt><trkpt lat="40.9076283" lon="14.28575"><ele>74.0</ele><time>2026-03-28T08:22:16.417Z</time></trkpt><trkpt lat="40.9076983" lon="14.2858017"><ele>73.16666666666667</ele><time>2026-03-28T08:22:17.415Z</time></trkpt><trkpt lat="40.907765" lon="14.285855"><ele>72.33333333333334</ele><time>2026-03-28T08:22:18.416Z</time></trkpt><trkpt lat="40.9078383" lon="14.2859117"><ele>71.5</ele><time>2026-03-28T08:22:19.417Z</time></trkpt><trkpt lat="40.9079083" lon="14.28597"><ele>70.66666666666667</ele><time>2026-03-28T08:22:20.417Z</time></trkpt><trkpt lat="40.90798" lon="14.2860267"><ele>69.83333333333333</ele><time>2026-03-28T08:22:21.415Z</time></trkpt><trkpt lat="40.9080483" lon="14.2860833"><ele>69.0</ele><time>2026-03-28T08:22:22.416Z</time></trkpt><trkpt lat="40.9081167" lon="14.2861417"><ele>69.0</ele><time>2026-03-28T08:22:23.417Z</time></trkpt><trkpt lat="40.9081867" lon="14.2862"><ele>69.0</ele><time>2026-03-28T08:22:24.418Z</time></trkpt><trkpt lat="40.9082567" lon="14.2862567"><ele>69.0</ele><time>2026-03-28T08:22:25.416Z</time></trkpt><trkpt lat="40.9083267" lon="14.286315"><ele>69.0</ele><time>2026-03-28T08:22:26.416Z</time></trkpt><trkpt lat="40.9083967" lon="14.28637"><ele>69.0</ele><time>2026-03-28T08:22:27.415Z</time></trkpt><trkpt lat="40.9084683" lon="14.2864267"><ele>69.0</ele><time>2026-03-28T08:22:28.415Z</time></trkpt><trkpt lat="40.90854" lon="14.286485"><ele>69.16666666666667</ele><time>2026-03-28T08:22:29.415Z</time></trkpt><trkpt lat="40.9086117" lon="14.286545"><ele>69.33333333333333</ele><time>2026-03-28T08:22:30.416Z</time></trkpt><trkpt lat="40.908685" lon="14.2866083"><ele>69.5</ele><time>2026-03-28T08:22:31.417Z</time></trkpt><trkpt lat="40.9087567" lon="14.2866683"><ele>69.66666666666666</ele><time>2026-03-28T08:22:32.415Z</time></trkpt><trkpt lat="40.9088283" lon="14.286725"><ele>69.83333333333333</ele><time>2026-03-28T08:22:33.417Z</time></trkpt><trkpt lat="40.9089033" lon="14.2867833"><ele>70.0</ele><time>2026-03-28T08:22:34.416Z</time></trkpt><trkpt lat="40.9089733" lon="14.2868417"><ele>70.0</ele><time>2026-03-28T08:22:35.415Z</time></trkpt><trkpt lat="40.9090417" lon="14.2869033"><ele>70.0</ele><time>2026-03-28T08:22:36.415Z</time></trkpt><trkpt lat="40.90911" lon="14.286965"><ele>70.0</ele><time>2026-03-28T08:22:37.416Z</time></trkpt><trkpt lat="40.9091767" lon="14.2870267"><ele>70.0</ele><time>2026-03-28T08:22:38.415Z</time></trkpt><trkpt lat="40.909245" lon="14.2870867"><ele>70.0</ele><time>2026-03-28T08:22:39.415Z</time></trkpt><trkpt lat="40.9093183" lon="14.2871433"><ele>70.0</ele><time>2026-03-28T08:22:40.415Z</time></trkpt><trkpt lat="40.90939" lon="14.2872017"><ele>69.66666666666666</ele><time>2026-03-28T08:22:41.416Z</time></trkpt><trkpt lat="40.9094633" lon="14.2872617"><ele>69.33333333333333</ele><time>2026-03-28T08:22:42.416Z</time></trkpt><trkpt lat="40.9095383" lon="14.2873233"><ele>69.0</ele><time>2026-03-28T08:22:43.415Z</time></trkpt><trkpt lat="40.9096083" lon="14.2873817"><ele>68.66666666666667</ele><time>2026-03-28T08:22:44.417Z</time></trkpt><trkpt lat="40.9096817" lon="14.2874383"><ele>68.33333333333334</ele><time>2026-03-28T08:22:45.415Z</time></trkpt><trkpt lat="40.9097633" lon="14.2875067"><ele>68.0</ele><time>2026-03-28T08:22:46.415Z</time></trkpt><trkpt lat="40.9098417" lon="14.2875783"><ele>68.0</ele><time>2026-03-28T08:22:47.417Z</time></trkpt><trkpt lat="40.90992" lon="14.2876467"><ele>68.0</ele><time>2026-03-28T08:22:48.415Z</time></trkpt><trkpt lat="40.9100017" lon="14.287715"><ele>68.0</ele><time>2026-03-28T08:22:49.417Z</time></trkpt><trkpt lat="40.9100783" lon="14.2877717"><ele>68.0</ele><time>2026-03-28T08:22:50.415Z</time></trkpt><trkpt lat="40.9101583" lon="14.2878367"><ele>68.0</ele><time>2026-03-28T08:22:51.415Z</time></trkpt><trkpt lat="40.910235" lon="14.2879033"><ele>67.4</ele><time>2026-03-28T08:22:52.415Z</time></trkpt><trkpt lat="40.9103183" lon="14.2879733"><ele>66.8</ele><time>2026-03-28T08:22:53.414Z</time></trkpt><trkpt lat="40.9104" lon="14.2880367"><ele>66.2</ele><time>2026-03-28T08:22:54.417Z</time></trkpt><trkpt lat="40.9104833" lon="14.2881017"><ele>65.6</ele><time>2026-03-28T08:22:55.415Z</time></trkpt><trkpt lat="40.9105667" lon="14.28817"><ele>65.0</ele><time>2026-03-28T08:22:56.415Z</time></trkpt><trkpt lat="40.91065" lon="14.2882367"><ele>65.0</ele><time>2026-03-28T08:22:57.415Z</time></trkpt><trkpt lat="40.9107367" lon="14.288305"><ele>65.0</ele><time>2026-03-28T08:22:58.416Z</time></trkpt><trkpt lat="40.91082" lon="14.28837"><ele>65.0</ele><time>2026-03-28T08:22:59.416Z</time></trkpt><trkpt lat="40.910905" lon="14.2884367"><ele>65.0</ele><time>2026-03-28T08:23:00.417Z</time></trkpt><trkpt lat="40.91099" lon="14.2885033"><ele>65.0</ele><time>2026-03-28T08:23:01.416Z</time></trkpt><trkpt lat="40.9110717" lon="14.28857"><ele>64.6</ele><time>2026-03-28T08:23:02.414Z</time></trkpt><trkpt lat="40.911155" lon="14.2886367"><ele>64.2</ele><time>2026-03-28T08:23:03.414Z</time></trkpt><trkpt lat="40.91124" lon="14.2887083"><ele>63.8</ele><time>2026-03-28T08:23:04.415Z</time></trkpt><trkpt lat="40.9113217" lon="14.2887783"><ele>63.4</ele><time>2026-03-28T08:23:05.415Z</time></trkpt><trkpt lat="40.911405" lon="14.2888483"><ele>63.0</ele><time>2026-03-28T08:23:06.416Z</time></trkpt><trkpt lat="40.9114867" lon="14.2889183"><ele>63.0</ele><time>2026-03-28T08:23:07.415Z</time></trkpt><trkpt lat="40.9115683" lon="14.2889817"><ele>63.0</ele><time>2026-03-28T08:23:08.416Z</time></trkpt><trkpt lat="40.91165" lon="14.2890467"><ele>63.0</ele><time>2026-03-28T08:23:09.414Z</time></trkpt><trkpt lat="40.91173" lon="14.2891183"><ele>63.0</ele><time>2026-03-28T08:23:10.416Z</time></trkpt><trkpt lat="40.91181" lon="14.2891883"><ele>63.0</ele><time>2026-03-28T08:23:11.416Z</time></trkpt><trkpt lat="40.91189" lon="14.2892567"><ele>63.0</ele><time>2026-03-28T08:23:12.416Z</time></trkpt><trkpt lat="40.91197" lon="14.2893283"><ele>63.0</ele><time>2026-03-28T08:23:13.416Z</time></trkpt><trkpt lat="40.9120533" lon="14.289395"><ele>63.0</ele><time>2026-03-28T08:23:14.416Z</time></trkpt><trkpt lat="40.9121383" lon="14.28946"><ele>63.0</ele><time>2026-03-28T08:23:15.417Z</time></trkpt><trkpt lat="40.9122233" lon="14.2895333"><ele>63.0</ele><time>2026-03-28T08:23:16.416Z</time></trkpt><trkpt lat="40.91231" lon="14.2896"><ele>63.0</ele><time>2026-03-28T08:23:17.417Z</time></trkpt><trkpt lat="40.912395" lon="14.2896683"><ele>63.0</ele><time>2026-03-28T08:23:18.416Z</time></trkpt><trkpt lat="40.91248" lon="14.2897433"><ele>63.0</ele><time>2026-03-28T08:23:19.417Z</time></trkpt><trkpt lat="40.9125633" lon="14.2898167"><ele>63.0</ele><time>2026-03-28T08:23:20.416Z</time></trkpt><trkpt lat="40.9126483" lon="14.2898883"><ele>63.0</ele><time>2026-03-28T08:23:21.417Z</time></trkpt><trkpt lat="40.9127317" lon="14.289965"><ele>63.0</ele><time>2026-03-28T08:23:22.416Z</time></trkpt><trkpt lat="40.9128167" lon="14.290035"><ele>63.0</ele><time>2026-03-28T08:23:23.417Z</time></trkpt><trkpt lat="40.9129033" lon="14.2900933"><ele>63.0</ele><time>2026-03-28T08:23:24.417Z</time></trkpt><trkpt lat="40.9129917" lon="14.2901467"><ele>63.0</ele><time>2026-03-28T08:23:25.417Z</time></trkpt><trkpt lat="40.9130783" lon="14.290195"><ele>63.0</ele><time>2026-03-28T08:23:26.417Z</time></trkpt><trkpt lat="40.9131617" lon="14.290235"><ele>63.0</ele><time>2026-03-28T08:23:27.416Z</time></trkpt><trkpt lat="40.9132433" lon="14.290275"><ele>63.0</ele><time>2026-03-28T08:23:28.417Z</time></trkpt><trkpt lat="40.9133233" lon="14.2903183"><ele>63.0</ele><time>2026-03-28T08:23:29.418Z</time></trkpt><trkpt lat="40.9134033" lon="14.2903583"><ele>63.0</ele><time>2026-03-28T08:23:30.416Z</time></trkpt><trkpt lat="40.9134817" lon="14.2903983"><ele>63.0</ele><time>2026-03-28T08:23:31.416Z</time></trkpt><trkpt lat="40.9135583" lon="14.2904383"><ele>63.0</ele><time>2026-03-28T08:23:32.417Z</time></trkpt><trkpt lat="40.9136367" lon="14.2904683"><ele>62.833333333333336</ele><time>2026-03-28T08:23:33.417Z</time></trkpt><trkpt lat="40.913715" lon="14.290495"><ele>62.66666666666667</ele><time>2026-03-28T08:23:34.417Z</time></trkpt><trkpt lat="40.913795" lon="14.2905183"><ele>62.5</ele><time>2026-03-28T08:23:35.417Z</time></trkpt><trkpt lat="40.9138817" lon="14.2905417"><ele>62.333333333333336</ele><time>2026-03-28T08:23:36.417Z</time></trkpt><trkpt lat="40.9139667" lon="14.290565"><ele>62.16666666666667</ele><time>2026-03-28T08:23:37.417Z</time></trkpt><trkpt lat="40.91405" lon="14.290585"><ele>62.0</ele><time>2026-03-28T08:23:38.416Z</time></trkpt><trkpt lat="40.9141333" lon="14.2906033"><ele>61.50000000000001</ele><time>2026-03-28T08:23:39.417Z</time></trkpt><trkpt lat="40.914215" lon="14.2906167"><ele>61.0</ele><time>2026-03-28T08:23:40.414Z</time></trkpt><trkpt lat="40.9142967" lon="14.2906233"><ele>60.5</ele><time>2026-03-28T08:23:41.417Z</time></trkpt><trkpt lat="40.9143817" lon="14.2906267"><ele>60.0</ele><time>2026-03-28T08:23:42.417Z</time></trkpt><trkpt lat="40.9144733" lon="14.2906333"><ele>59.50000000000001</ele><time>2026-03-28T08:23:43.418Z</time></trkpt><trkpt lat="40.91456" lon="14.290635"><ele>59.0</ele><time>2026-03-28T08:23:44.416Z</time></trkpt><trkpt lat="40.9146517" lon="14.2906317"><ele>59.0</ele><time>2026-03-28T08:23:45.417Z</time></trkpt><trkpt lat="40.9147417" lon="14.2906233"><ele>59.00000000000001</ele><time>2026-03-28T08:23:46.416Z</time></trkpt><trkpt lat="40.91483" lon="14.290615"><ele>59.00000000000001</ele><time>2026-03-28T08:23:47.418Z</time></trkpt><trkpt lat="40.91492" lon="14.2906133"><ele>59.0</ele><time>2026-03-28T08:23:48.417Z</time></trkpt><trkpt lat="40.9150133" lon="14.2906133"><ele>59.0</ele><time>2026-03-28T08:23:49.417Z</time></trkpt><trkpt lat="40.9151017" lon="14.2906067"><ele>59.00000000000001</ele><time>2026-03-28T08:23:50.417Z</time></trkpt><trkpt lat="40.9151917" lon="14.2906017"><ele>59.0</ele><time>2026-03-28T08:23:51.417Z</time></trkpt><trkpt lat="40.91528" lon="14.290595"><ele>59.0</ele><time>2026-03-28T08:23:52.418Z</time></trkpt><trkpt lat="40.9153683" lon="14.2905917"><ele>59.0</ele><time>2026-03-28T08:23:53.418Z</time></trkpt><trkpt lat="40.915455" lon="14.2905867"><ele>59.00000000000001</ele><time>2026-03-28T08:23:54.417Z</time></trkpt><trkpt lat="40.9155383" lon="14.2905783"><ele>59.0</ele><time>2026-03-28T08:23:55.416Z</time></trkpt><trkpt lat="40.915625" lon="14.2905783"><ele>59.00000000000001</ele><time>2026-03-28T08:23:56.417Z</time></trkpt><trkpt lat="40.9157067" lon="14.2905817"><ele>59.0</ele><time>2026-03-28T08:23:57.417Z</time></trkpt><trkpt lat="40.9157867" lon="14.29059"><ele>59.0</ele><time>2026-03-28T08:23:58.416Z</time></trkpt><trkpt lat="40.91586" lon="14.2905983"><ele>59.0</ele><time>2026-03-28T08:23:59.417Z</time></trkpt><trkpt lat="40.915925" lon="14.2906083"><ele>59.00000000000001</ele><time>2026-03-28T08:24:00.417Z</time></trkpt><trkpt lat="40.9160317" lon="14.2906333"><ele>59.0</ele><time>2026-03-28T08:24:02.417Z</time></trkpt><trkpt lat="40.9161133" lon="14.2906733"><ele>58.71428571428571</ele><time>2026-03-28T08:24:04.416Z</time></trkpt><trkpt lat="40.91619" lon="14.2907183"><ele>58.42857142857143</ele><time>2026-03-28T08:24:06.417Z</time></trkpt><trkpt lat="40.9162583" lon="14.2907633"><ele>58.14285714285714</ele><time>2026-03-28T08:24:08.415Z</time></trkpt><trkpt lat="40.9163167" lon="14.2908117"><ele>57.857142857142854</ele><time>2026-03-28T08:24:10.418Z</time></trkpt><trkpt lat="40.91635" lon="14.290895"><ele>57.57142857142857</ele><time>2026-03-28T08:24:13.417Z</time></trkpt><trkpt lat="40.91642" lon="14.2909083"><ele>57.285714285714285</ele><time>2026-03-28T08:26:42.414Z</time></trkpt><trkpt lat="40.9164067" lon="14.2908183"><ele>57.0</ele><time>2026-03-28T08:28:59.415Z</time></trkpt><trkpt lat="40.9163383" lon="14.2908067"><ele>57.0</ele><time>2026-03-28T08:31:24.416Z</time></trkpt><trkpt lat="40.9162583" lon="14.2907633"><ele>57.0</ele><time>2026-03-28T08:31:27.416Z</time></trkpt><trkpt lat="40.9161783" lon="14.2907167"><ele>57.0</ele><time>2026-03-28T08:31:30.417Z</time></trkpt><trkpt lat="40.9161033" lon="14.2906817"><ele>57.0</ele><time>2026-03-28T08:31:33.416Z</time></trkpt><trkpt lat="40.9159983" lon="14.2906217"><ele>57.0</ele><time>2026-03-28T08:35:42.416Z</time></trkpt><trkpt lat="40.916065" lon="14.2906583"><ele>57.0</ele><time>2026-03-28T08:35:46.417Z</time></trkpt><trkpt lat="40.9161283" lon="14.2906633"><ele>57.0</ele><time>2026-03-28T08:35:49.416Z</time></trkpt><trkpt lat="40.9162183" lon="14.2907133"><ele>57.0</ele><time>2026-03-28T08:35:52.417Z</time></trkpt><trkpt lat="40.9162967" lon="14.2907583"><ele>57.0</ele><time>2026-03-28T08:35:54.415Z</time></trkpt><trkpt lat="40.9163967" lon="14.29081"><ele>57.0</ele><time>2026-03-28T08:35:56.417Z</time></trkpt><trkpt lat="40.9165017" lon="14.29086"><ele>57.0</ele><time>2026-03-28T08:35:58.415Z</time></trkpt><trkpt lat="40.916615" lon="14.29091"><ele>57.0</ele><time>2026-03-28T08:36:00.417Z</time></trkpt><trkpt lat="40.9167267" lon="14.2909717"><ele>57.0</ele><time>2026-03-28T08:36:02.418Z</time></trkpt><trkpt lat="40.9168417" lon="14.2910367"><ele>57.0</ele><time>2026-03-28T08:36:04.418Z</time></trkpt><trkpt lat="40.9169517" lon="14.2910983"><ele>57.0</ele><time>2026-03-28T08:36:06.418Z</time></trkpt><trkpt lat="40.9170617" lon="14.2911617"><ele>57.0</ele><time>2026-03-28T08:36:08.418Z</time></trkpt><trkpt lat="40.91717" lon="14.2912333"><ele>57.0</ele><time>2026-03-28T08:36:10.419Z</time></trkpt><trkpt lat="40.917275" lon="14.2913017"><ele>57.0</ele><time>2026-03-28T08:36:12.416Z</time></trkpt><trkpt lat="40.917385" lon="14.2913733"><ele>57.0</ele><time>2026-03-28T08:36:14.418Z</time></trkpt><trkpt lat="40.9174967" lon="14.29146"><ele>57.0</ele><time>2026-03-28T08:36:16.416Z</time></trkpt><trkpt lat="40.91756" lon="14.2915083"><ele>56.99999999999999</ele><time>2026-03-28T08:36:17.416Z</time></trkpt><trkpt lat="40.9176183" lon="14.2915517"><ele>57.0</ele><time>2026-03-28T08:36:18.415Z</time></trkpt><trkpt lat="40.91768" lon="14.2915967"><ele>57.0</ele><time>2026-03-28T08:36:19.415Z</time></trkpt><trkpt lat="40.9177383" lon="14.2916367"><ele>56.99999999999999</ele><time>2026-03-28T08:36:20.417Z</time></trkpt><trkpt lat="40.9177983" lon="14.291675"><ele>57.0</ele><time>2026-03-28T08:36:21.416Z</time></trkpt><trkpt lat="40.91786" lon="14.291705"><ele>57.0</ele><time>2026-03-28T08:36:22.415Z</time></trkpt><trkpt lat="40.91792" lon="14.29174"><ele>56.666666666666664</ele><time>2026-03-28T08:36:23.417Z</time></trkpt><trkpt lat="40.918035" lon="14.2917967"><ele>56.33333333333333</ele><time>2026-03-28T08:36:25.417Z</time></trkpt><trkpt lat="40.9180983" lon="14.2918233"><ele>56.0</ele><time>2026-03-28T08:36:26.418Z</time></trkpt><trkpt lat="40.9181583" lon="14.291855"><ele>55.666666666666664</ele><time>2026-03-28T08:36:27.418Z</time></trkpt><trkpt lat="40.91822" lon="14.2918867"><ele>55.33333333333333</ele><time>2026-03-28T08:36:28.415Z</time></trkpt><trkpt lat="40.91834" lon="14.29194"><ele>55.0</ele><time>2026-03-28T08:36:30.415Z</time></trkpt><trkpt lat="40.91846" lon="14.2919867"><ele>54.99999999999999</ele><time>2026-03-28T08:36:32.416Z</time></trkpt><trkpt lat="40.9185817" lon="14.29204"><ele>55.0</ele><time>2026-03-28T08:36:34.419Z</time></trkpt><trkpt lat="40.918645" lon="14.29207"><ele>55.0</ele><time>2026-03-28T08:36:35.417Z</time></trkpt><trkpt lat="40.9187083" lon="14.2921"><ele>55.0</ele><time>2026-03-28T08:36:36.419Z</time></trkpt><trkpt lat="40.9187733" lon="14.292125"><ele>54.99999999999999</ele><time>2026-03-28T08:36:37.418Z</time></trkpt><trkpt lat="40.918835" lon="14.2921533"><ele>55.0</ele><time>2026-03-28T08:36:38.415Z</time></trkpt><trkpt lat="40.918895" lon="14.2921817"><ele>54.99999999999999</ele><time>2026-03-28T08:36:39.416Z</time></trkpt><trkpt lat="40.9189567" lon="14.29221"><ele>55.0</ele><time>2026-03-28T08:36:40.414Z</time></trkpt><trkpt lat="40.9190233" lon="14.2922417"><ele>55.0</ele><time>2026-03-28T08:36:41.417Z</time></trkpt><trkpt lat="40.9190867" lon="14.2922683"><ele>55.0</ele><time>2026-03-28T08:36:42.418Z</time></trkpt><trkpt lat="40.9191533" lon="14.2922933"><ele>55.0</ele><time>2026-03-28T08:36:43.416Z</time></trkpt><trkpt lat="40.9192167" lon="14.29232"><ele>54.99999999999999</ele><time>2026-03-28T08:36:44.417Z</time></trkpt><trkpt lat="40.9192833" lon="14.2923467"><ele>55.0</ele><time>2026-03-28T08:36:45.419Z</time></trkpt><trkpt lat="40.919345" lon="14.29238"><ele>54.71428571428571</ele><time>2026-03-28T08:36:46.416Z</time></trkpt><trkpt lat="40.9194017" lon="14.2924233"><ele>54.42857142857143</ele><time>2026-03-28T08:36:47.417Z</time></trkpt><trkpt lat="40.9194583" lon="14.2924733"><ele>54.14285714285714</ele><time>2026-03-28T08:36:48.416Z</time></trkpt><trkpt lat="40.9195117" lon="14.292525"><ele>53.857142857142854</ele><time>2026-03-28T08:36:49.417Z</time></trkpt><trkpt lat="40.91957" lon="14.2925733"><ele>53.57142857142857</ele><time>2026-03-28T08:36:50.416Z</time></trkpt><trkpt lat="40.9196267" lon="14.2926183"><ele>53.285714285714285</ele><time>2026-03-28T08:36:51.415Z</time></trkpt><trkpt lat="40.9196817" lon="14.292665"><ele>53.0</ele><time>2026-03-28T08:36:52.417Z</time></trkpt><trkpt lat="40.9197367" lon="14.29272"><ele>53.0</ele><time>2026-03-28T08:36:53.417Z</time></trkpt><trkpt lat="40.919845" lon="14.29281"><ele>53.0</ele><time>2026-03-28T08:36:55.416Z</time></trkpt><trkpt lat="40.91992" lon="14.29294"><ele>53.0</ele><time>2026-03-28T08:36:57.418Z</time></trkpt><trkpt lat="40.9199483" lon="14.2931017"><ele>53.0</ele><time>2026-03-28T08:36:59.418Z</time></trkpt><trkpt lat="40.91997" lon="14.29318"><ele>53.0</ele><time>2026-03-28T08:37:00.418Z</time></trkpt><trkpt lat="40.92006" lon="14.2933"><ele>53.0</ele><time>2026-03-28T08:37:02.418Z</time></trkpt><trkpt lat="40.9201183" lon="14.293335"><ele>53.0</ele><time>2026-03-28T08:37:03.417Z</time></trkpt><trkpt lat="40.92018" lon="14.293355"><ele>53.0</ele><time>2026-03-28T08:37:04.419Z</time></trkpt><trkpt lat="40.920245" lon="14.29337"><ele>53.0</ele><time>2026-03-28T08:37:05.418Z</time></trkpt><trkpt lat="40.92031" lon="14.2933833"><ele>53.0</ele><time>2026-03-28T08:37:06.418Z</time></trkpt><trkpt lat="40.9203733" lon="14.293405"><ele>53.0</ele><time>2026-03-28T08:37:07.418Z</time></trkpt><trkpt lat="40.9204317" lon="14.2934417"><ele>53.0</ele><time>2026-03-28T08:37:08.416Z</time></trkpt><trkpt lat="40.920485" lon="14.2934917"><ele>53.0</ele><time>2026-03-28T08:37:09.419Z</time></trkpt><trkpt lat="40.92054" lon="14.2935417"><ele>53.0</ele><time>2026-03-28T08:37:10.418Z</time></trkpt><trkpt lat="40.9205983" lon="14.2935933"><ele>53.0</ele><time>2026-03-28T08:37:11.418Z</time></trkpt><trkpt lat="40.9206583" lon="14.2936417"><ele>53.0</ele><time>2026-03-28T08:37:12.418Z</time></trkpt><trkpt lat="40.9207167" lon="14.2936817"><ele>53.0</ele><time>2026-03-28T08:37:13.418Z</time></trkpt><trkpt lat="40.9207783" lon="14.2937183"><ele>53.0</ele><time>2026-03-28T08:37:14.415Z</time></trkpt><trkpt lat="40.9208433" lon="14.2937517"><ele>53.0</ele><time>2026-03-28T08:37:15.415Z</time></trkpt><trkpt lat="40.9209083" lon="14.293785"><ele>52.85714285714286</ele><time>2026-03-28T08:37:16.417Z</time></trkpt><trkpt lat="40.920975" lon="14.2938167"><ele>52.71428571428571</ele><time>2026-03-28T08:37:17.415Z</time></trkpt><trkpt lat="40.9210433" lon="14.2938467"><ele>52.57142857142857</ele><time>2026-03-28T08:37:18.415Z</time></trkpt><trkpt lat="40.9211117" lon="14.293875"><ele>52.42857142857143</ele><time>2026-03-28T08:37:19.415Z</time></trkpt><trkpt lat="40.9211783" lon="14.2939017"><ele>52.28571428571429</ele><time>2026-03-28T08:37:20.416Z</time></trkpt><trkpt lat="40.9212467" lon="14.29393"><ele>52.14285714285714</ele><time>2026-03-28T08:37:21.415Z</time></trkpt><trkpt lat="40.921315" lon="14.29396"><ele>52.0</ele><time>2026-03-28T08:37:22.415Z</time></trkpt><trkpt lat="40.9213817" lon="14.2939917"><ele>52.0</ele><time>2026-03-28T08:37:23.417Z</time></trkpt><trkpt lat="40.92145" lon="14.294025"><ele>52.0</ele><time>2026-03-28T08:37:24.417Z</time></trkpt><trkpt lat="40.9215217" lon="14.29406"><ele>52.0</ele><time>2026-03-28T08:37:25.414Z</time></trkpt><trkpt lat="40.9215917" lon="14.2940933"><ele>52.0</ele><time>2026-03-28T08:37:26.418Z</time></trkpt><trkpt lat="40.9216617" lon="14.2941267"><ele>52.0</ele><time>2026-03-28T08:37:27.419Z</time></trkpt><trkpt lat="40.9217317" lon="14.2941567"><ele>52.0</ele><time>2026-03-28T08:37:28.415Z</time></trkpt><trkpt lat="40.9218" lon="14.2941883"><ele>52.0</ele><time>2026-03-28T08:37:29.417Z</time></trkpt><trkpt lat="40.9218667" lon="14.29422"><ele>51.857142857142854</ele><time>2026-03-28T08:37:30.416Z</time></trkpt><trkpt lat="40.92194" lon="14.29425"><ele>51.714285714285715</ele><time>2026-03-28T08:37:31.418Z</time></trkpt><trkpt lat="40.9220083" lon="14.2942783"><ele>51.57142857142857</ele><time>2026-03-28T08:37:32.417Z</time></trkpt><trkpt lat="40.922075" lon="14.294305"><ele>51.42857142857143</ele><time>2026-03-28T08:37:33.418Z</time></trkpt><trkpt lat="40.9221383" lon="14.294335"><ele>51.28571428571429</ele><time>2026-03-28T08:37:34.419Z</time></trkpt><trkpt lat="40.9222067" lon="14.29436"><ele>51.142857142857146</ele><time>2026-03-28T08:37:35.418Z</time></trkpt><trkpt lat="40.9222717" lon="14.2943817"><ele>51.0</ele><time>2026-03-28T08:37:36.415Z</time></trkpt><trkpt lat="40.922335" lon="14.29441"><ele>51.0</ele><time>2026-03-28T08:37:37.418Z</time></trkpt><trkpt lat="40.9224" lon="14.2944367"><ele>51.0</ele><time>2026-03-28T08:37:38.419Z</time></trkpt><trkpt lat="40.9224633" lon="14.2944667"><ele>51.0</ele><time>2026-03-28T08:37:39.416Z</time></trkpt><trkpt lat="40.9225267" lon="14.2945033"><ele>51.0</ele><time>2026-03-28T08:37:40.418Z</time></trkpt><trkpt lat="40.922585" lon="14.294545"><ele>51.0</ele><time>2026-03-28T08:37:41.418Z</time></trkpt><trkpt lat="40.922645" lon="14.2945933"><ele>51.0</ele><time>2026-03-28T08:37:42.418Z</time></trkpt><trkpt lat="40.9227017" lon="14.294645"><ele>51.0</ele><time>2026-03-28T08:37:43.418Z</time></trkpt><trkpt lat="40.9227533" lon="14.294705"><ele>50.833333333333336</ele><time>2026-03-28T08:37:44.415Z</time></trkpt><trkpt lat="40.9228017" lon="14.2947717"><ele>50.66666666666667</ele><time>2026-03-28T08:37:45.414Z</time></trkpt><trkpt lat="40.9228433" lon="14.29484"><ele>50.5</ele><time>2026-03-28T08:37:46.418Z</time></trkpt><trkpt lat="40.92288" lon="14.2949133"><ele>50.333333333333336</ele><time>2026-03-28T08:37:47.418Z</time></trkpt><trkpt lat="40.92296" lon="14.295045"><ele>50.16666666666667</ele><time>2026-03-28T08:37:49.417Z</time></trkpt><trkpt lat="40.9230017" lon="14.295115"><ele>50.0</ele><time>2026-03-28T08:37:50.418Z</time></trkpt><trkpt lat="40.9230433" lon="14.29518"><ele>50.00000000000001</ele><time>2026-03-28T08:37:51.419Z</time></trkpt><trkpt lat="40.9230817" lon="14.29525"><ele>50.0</ele><time>2026-03-28T08:37:52.418Z</time></trkpt><trkpt lat="40.92312" lon="14.2953183"><ele>50.0</ele><time>2026-03-28T08:37:53.418Z</time></trkpt><trkpt lat="40.9231567" lon="14.2953867"><ele>50.0</ele><time>2026-03-28T08:37:54.417Z</time></trkpt><trkpt lat="40.923235" lon="14.2955183"><ele>50.00000000000001</ele><time>2026-03-28T08:37:56.418Z</time></trkpt><trkpt lat="40.9232767" lon="14.295585"><ele>50.0</ele><time>2026-03-28T08:37:57.418Z</time></trkpt><trkpt lat="40.9233183" lon="14.2956517"><ele>49.75</ele><time>2026-03-28T08:37:58.418Z</time></trkpt><trkpt lat="40.9233567" lon="14.29572"><ele>49.5</ele><time>2026-03-28T08:37:59.417Z</time></trkpt><trkpt lat="40.9233967" lon="14.295785"><ele>49.25</ele><time>2026-03-28T08:38:00.418Z</time></trkpt><trkpt lat="40.923435" lon="14.295855"><ele>49.0</ele><time>2026-03-28T08:38:01.418Z</time></trkpt><trkpt lat="40.923475" lon="14.2959217"><ele>48.75</ele><time>2026-03-28T08:38:02.418Z</time></trkpt><trkpt lat="40.9235167" lon="14.2959867"><ele>48.5</ele><time>2026-03-28T08:38:03.418Z</time></trkpt><trkpt lat="40.9235567" lon="14.2960517"><ele>48.25</ele><time>2026-03-28T08:38:04.418Z</time></trkpt><trkpt lat="40.9235917" lon="14.2961217"><ele>48.0</ele><time>2026-03-28T08:38:05.418Z</time></trkpt><trkpt lat="40.9236617" lon="14.29625"><ele>47.75</ele><time>2026-03-28T08:38:07.418Z</time></trkpt><trkpt lat="40.9237283" lon="14.2963783"><ele>47.5</ele><time>2026-03-28T08:38:09.415Z</time></trkpt><trkpt lat="40.9238017" lon="14.2965067"><ele>47.25</ele><time>2026-03-28T08:38:11.415Z</time></trkpt><trkpt lat="40.923875" lon="14.2966283"><ele>47.0</ele><time>2026-03-28T08:38:13.418Z</time></trkpt><trkpt lat="40.9239533" lon="14.2967517"><ele>47.0</ele><time>2026-03-28T08:38:15.415Z</time></trkpt><trkpt lat="40.924025" lon="14.29687"><ele>47.0</ele><time>2026-03-28T08:38:17.418Z</time></trkpt><trkpt lat="40.92407" lon="14.2969683"><ele>47.0</ele><time>2026-03-28T08:38:19.415Z</time></trkpt><trkpt lat="40.9241183" lon="14.29706"><ele>47.0</ele><time>2026-03-28T08:38:21.418Z</time></trkpt><trkpt lat="40.9241783" lon="14.2971517"><ele>47.0</ele><time>2026-03-28T08:38:23.417Z</time></trkpt><trkpt lat="40.92425" lon="14.2972833"><ele>46.857142857142854</ele><time>2026-03-28T08:38:25.419Z</time></trkpt><trkpt lat="40.9242867" lon="14.2973517"><ele>46.71428571428571</ele><time>2026-03-28T08:38:26.418Z</time></trkpt><trkpt lat="40.9243283" lon="14.29742"><ele>46.57142857142857</ele><time>2026-03-28T08:38:27.418Z</time></trkpt><trkpt lat="40.9243717" lon="14.2974867"><ele>46.42857142857143</ele><time>2026-03-28T08:38:28.419Z</time></trkpt><trkpt lat="40.9244133" lon="14.2975517"><ele>46.285714285714285</ele><time>2026-03-28T08:38:29.417Z</time></trkpt><trkpt lat="40.9244533" lon="14.29762"><ele>46.142857142857146</ele><time>2026-03-28T08:38:30.415Z</time></trkpt><trkpt lat="40.9245317" lon="14.297745"><ele>46.0</ele><time>2026-03-28T08:38:32.419Z</time></trkpt><trkpt lat="40.92461" lon="14.2978683"><ele>46.0</ele><time>2026-03-28T08:38:34.418Z</time></trkpt><trkpt lat="40.9246983" lon="14.2979867"><ele>46.0</ele><time>2026-03-28T08:38:36.419Z</time></trkpt><trkpt lat="40.9247917" lon="14.2980933"><ele>46.0</ele><time>2026-03-28T08:38:38.418Z</time></trkpt><trkpt lat="40.9248833" lon="14.2981933"><ele>46.0</ele><time>2026-03-28T08:38:40.416Z</time></trkpt><trkpt lat="40.9249883" lon="14.2982917"><ele>46.0</ele><time>2026-03-28T08:38:42.417Z</time></trkpt><trkpt lat="40.9250417" lon="14.29834"><ele>46.0</ele><time>2026-03-28T08:38:43.419Z</time></trkpt><trkpt lat="40.9251517" lon="14.2984233"><ele>46.0</ele><time>2026-03-28T08:38:45.415Z</time></trkpt><trkpt lat="40.925265" lon="14.298485"><ele>46.0</ele><time>2026-03-28T08:38:47.417Z</time></trkpt><trkpt lat="40.9253833" lon="14.2985317"><ele>46.0</ele><time>2026-03-28T08:38:49.417Z</time></trkpt><trkpt lat="40.9255017" lon="14.2985717"><ele>46.199999999999996</ele><time>2026-03-28T08:38:51.416Z</time></trkpt><trkpt lat="40.9255617" lon="14.2985983"><ele>46.4</ele><time>2026-03-28T08:38:52.416Z</time></trkpt><trkpt lat="40.9256783" lon="14.2986317"><ele>46.6</ele><time>2026-03-28T08:38:54.417Z</time></trkpt><trkpt lat="40.92579" lon="14.2986383"><ele>46.8</ele><time>2026-03-28T08:38:56.414Z</time></trkpt><trkpt lat="40.9258983" lon="14.2986483"><ele>47.0</ele><time>2026-03-28T08:38:58.415Z</time></trkpt><trkpt lat="40.9260017" lon="14.2986533"><ele>46.6</ele><time>2026-03-28T08:39:00.417Z</time></trkpt><trkpt lat="40.9261" lon="14.2986667"><ele>46.2</ele><time>2026-03-28T08:39:02.417Z</time></trkpt><trkpt lat="40.9262017" lon="14.2986633"><ele>45.8</ele><time>2026-03-28T08:39:04.415Z</time></trkpt><trkpt lat="40.926315" lon="14.2986583"><ele>45.4</ele><time>2026-03-28T08:39:06.417Z</time></trkpt><trkpt lat="40.9264367" lon="14.29865"><ele>45.0</ele><time>2026-03-28T08:39:08.415Z</time></trkpt><trkpt lat="40.9265033" lon="14.298645"><ele>45.0</ele><time>2026-03-28T08:39:09.416Z</time></trkpt><trkpt lat="40.9265667" lon="14.2986433"><ele>45.0</ele><time>2026-03-28T08:39:10.415Z</time></trkpt><trkpt lat="40.9266317" lon="14.2986383"><ele>45.0</ele><time>2026-03-28T08:39:11.417Z</time></trkpt><trkpt lat="40.9267" lon="14.2986333"><ele>45.0</ele><time>2026-03-28T08:39:12.417Z</time></trkpt><trkpt lat="40.9267667" lon="14.2986233"><ele>45.0</ele><time>2026-03-28T08:39:13.417Z</time></trkpt><trkpt lat="40.9268333" lon="14.2986133"><ele>45.0</ele><time>2026-03-28T08:39:14.415Z</time></trkpt><trkpt lat="40.9268983" lon="14.2986117"><ele>45.0</ele><time>2026-03-28T08:39:15.416Z</time></trkpt><trkpt lat="40.9270183" lon="14.29861"><ele>44.6</ele><time>2026-03-28T08:39:17.415Z</time></trkpt><trkpt lat="40.92713" lon="14.2986383"><ele>44.2</ele><time>2026-03-28T08:39:19.415Z</time></trkpt><trkpt lat="40.92725" lon="14.2986483"><ele>43.8</ele><time>2026-03-28T08:39:21.415Z</time></trkpt><trkpt lat="40.927375" lon="14.2986183"><ele>43.4</ele><time>2026-03-28T08:39:23.417Z</time></trkpt><trkpt lat="40.9274417" lon="14.2985933"><ele>43.0</ele><time>2026-03-28T08:39:24.417Z</time></trkpt><trkpt lat="40.9275067" lon="14.2985717"><ele>43.00000000000001</ele><time>2026-03-28T08:39:25.417Z</time></trkpt><trkpt lat="40.9275767" lon="14.2985567"><ele>43.0</ele><time>2026-03-28T08:39:26.417Z</time></trkpt><trkpt lat="40.927645" lon="14.2985467"><ele>43.0</ele><time>2026-03-28T08:39:27.415Z</time></trkpt><trkpt lat="40.92771" lon="14.2985417"><ele>43.0</ele><time>2026-03-28T08:39:28.418Z</time></trkpt><trkpt lat="40.92778" lon="14.2985317"><ele>43.0</ele><time>2026-03-28T08:39:29.418Z</time></trkpt><trkpt lat="40.92785" lon="14.2985217"><ele>43.00000000000001</ele><time>2026-03-28T08:39:30.417Z</time></trkpt><trkpt lat="40.9279217" lon="14.2985133"><ele>43.0</ele><time>2026-03-28T08:39:31.416Z</time></trkpt><trkpt lat="40.9279933" lon="14.2985033"><ele>43.00000000000001</ele><time>2026-03-28T08:39:32.416Z</time></trkpt><trkpt lat="40.9280633" lon="14.298495"><ele>43.0</ele><time>2026-03-28T08:39:33.416Z</time></trkpt><trkpt lat="40.9281317" lon="14.2984883"><ele>43.0</ele><time>2026-03-28T08:39:34.416Z</time></trkpt><trkpt lat="40.9282017" lon="14.29848"><ele>43.0</ele><time>2026-03-28T08:39:35.417Z</time></trkpt><trkpt lat="40.92827" lon="14.2984683"><ele>43.0</ele><time>2026-03-28T08:39:36.417Z</time></trkpt><trkpt lat="40.9283367" lon="14.2984567"><ele>43.00000000000001</ele><time>2026-03-28T08:39:37.417Z</time></trkpt><trkpt lat="40.928405" lon="14.2984467"><ele>43.0</ele><time>2026-03-28T08:39:38.417Z</time></trkpt><trkpt lat="40.9284733" lon="14.29844"><ele>42.85714285714286</ele><time>2026-03-28T08:39:39.415Z</time></trkpt><trkpt lat="40.92854" lon="14.29843"><ele>42.714285714285715</ele><time>2026-03-28T08:39:40.418Z</time></trkpt><trkpt lat="40.92861" lon="14.29842"><ele>42.57142857142857</ele><time>2026-03-28T08:39:41.415Z</time></trkpt><trkpt lat="40.92868" lon="14.29841"><ele>42.42857142857143</ele><time>2026-03-28T08:39:42.416Z</time></trkpt><trkpt lat="40.9287483" lon="14.2983933"><ele>42.285714285714285</ele><time>2026-03-28T08:39:43.416Z</time></trkpt><trkpt lat="40.9288167" lon="14.29838"><ele>42.142857142857146</ele><time>2026-03-28T08:39:44.416Z</time></trkpt><trkpt lat="40.9288867" lon="14.2983667"><ele>42.0</ele><time>2026-03-28T08:39:45.416Z</time></trkpt><trkpt lat="40.9289583" lon="14.298355"><ele>42.0</ele><time>2026-03-28T08:39:46.417Z</time></trkpt><trkpt lat="40.9290267" lon="14.2983483"><ele>42.0</ele><time>2026-03-28T08:39:47.417Z</time></trkpt><trkpt lat="40.9290933" lon="14.2983417"><ele>42.0</ele><time>2026-03-28T08:39:48.415Z</time></trkpt><trkpt lat="40.9291633" lon="14.2983367"><ele>42.0</ele><time>2026-03-28T08:39:49.417Z</time></trkpt><trkpt lat="40.9292317" lon="14.2983267"><ele>42.0</ele><time>2026-03-28T08:39:50.416Z</time></trkpt><trkpt lat="40.9293" lon="14.298315"><ele>42.0</ele><time>2026-03-28T08:39:51.417Z</time></trkpt><trkpt lat="40.9293733" lon="14.298305"><ele>42.0</ele><time>2026-03-28T08:39:52.417Z</time></trkpt><trkpt lat="40.929445" lon="14.2982967"><ele>42.0</ele><time>2026-03-28T08:39:53.417Z</time></trkpt><trkpt lat="40.9295133" lon="14.29829"><ele>42.0</ele><time>2026-03-28T08:39:54.416Z</time></trkpt><trkpt lat="40.9295783" lon="14.2982817"><ele>42.0</ele><time>2026-03-28T08:39:55.416Z</time></trkpt><trkpt lat="40.9296433" lon="14.298275"><ele>42.0</ele><time>2026-03-28T08:39:56.416Z</time></trkpt><trkpt lat="40.9297133" lon="14.2982733"><ele>42.0</ele><time>2026-03-28T08:39:57.414Z</time></trkpt><trkpt lat="40.9297783" lon="14.2982833"><ele>42.0</ele><time>2026-03-28T08:39:58.415Z</time></trkpt><trkpt lat="40.929845" lon="14.2983133"><ele>42.0</ele><time>2026-03-28T08:39:59.417Z</time></trkpt><trkpt lat="40.92991" lon="14.298355"><ele>42.0</ele><time>2026-03-28T08:40:00.416Z</time></trkpt><trkpt lat="40.9299733" lon="14.2984033"><ele>42.0</ele><time>2026-03-28T08:40:01.416Z</time></trkpt><trkpt lat="40.93003" lon="14.2984667"><ele>42.0</ele><time>2026-03-28T08:40:02.416Z</time></trkpt><trkpt lat="40.93008" lon="14.2985333"><ele>42.0</ele><time>2026-03-28T08:40:03.415Z</time></trkpt><trkpt lat="40.9301317" lon="14.298595"><ele>42.0</ele><time>2026-03-28T08:40:04.418Z</time></trkpt><trkpt lat="40.9301817" lon="14.2986567"><ele>42.0</ele><time>2026-03-28T08:40:05.418Z</time></trkpt><trkpt lat="40.9302333" lon="14.2987233"><ele>42.0</ele><time>2026-03-28T08:40:06.417Z</time></trkpt><trkpt lat="40.930285" lon="14.2987883"><ele>42.0</ele><time>2026-03-28T08:40:07.419Z</time></trkpt><trkpt lat="40.9303333" lon="14.298855"><ele>42.0</ele><time>2026-03-28T08:40:08.419Z</time></trkpt><trkpt lat="40.93038" lon="14.2989217"><ele>42.0</ele><time>2026-03-28T08:40:09.418Z</time></trkpt><trkpt lat="40.93043" lon="14.2989867"><ele>42.0</ele><time>2026-03-28T08:40:10.417Z</time></trkpt><trkpt lat="40.9304767" lon="14.2990517"><ele>42.0</ele><time>2026-03-28T08:40:11.418Z</time></trkpt><trkpt lat="40.9305283" lon="14.29912"><ele>42.0</ele><time>2026-03-28T08:40:12.418Z</time></trkpt><trkpt lat="40.9305767" lon="14.2991883"><ele>42.0</ele><time>2026-03-28T08:40:13.417Z</time></trkpt><trkpt lat="40.930625" lon="14.2992517"><ele>41.714285714285715</ele><time>2026-03-28T08:40:14.418Z</time></trkpt><trkpt lat="40.9306717" lon="14.2993183"><ele>41.42857142857143</ele><time>2026-03-28T08:40:15.414Z</time></trkpt><trkpt lat="40.9307183" lon="14.29939"><ele>41.14285714285714</ele><time>2026-03-28T08:40:16.418Z</time></trkpt><trkpt lat="40.9307667" lon="14.2994617"><ele>40.85714285714286</ele><time>2026-03-28T08:40:17.415Z</time></trkpt><trkpt lat="40.930815" lon="14.29953"><ele>40.57142857142857</ele><time>2026-03-28T08:40:18.417Z</time></trkpt><trkpt lat="40.9308617" lon="14.299595"><ele>40.285714285714285</ele><time>2026-03-28T08:40:19.415Z</time></trkpt><trkpt lat="40.93091" lon="14.2996633"><ele>40.0</ele><time>2026-03-28T08:40:20.417Z</time></trkpt><trkpt lat="40.9309567" lon="14.2997283"><ele>40.0</ele><time>2026-03-28T08:40:21.415Z</time></trkpt><trkpt lat="40.931005" lon="14.2997933"><ele>40.0</ele><time>2026-03-28T08:40:22.417Z</time></trkpt><trkpt lat="40.931055" lon="14.2998633"><ele>40.0</ele><time>2026-03-28T08:40:23.417Z</time></trkpt><trkpt lat="40.9311067" lon="14.29993"><ele>40.0</ele><time>2026-03-28T08:40:24.417Z</time></trkpt><trkpt lat="40.931155" lon="14.2999967"><ele>40.0</ele><time>2026-03-28T08:40:25.417Z</time></trkpt><trkpt lat="40.9312033" lon="14.3000633"><ele>40.0</ele><time>2026-03-28T08:40:26.415Z</time></trkpt><trkpt lat="40.93125" lon="14.3001333"><ele>40.0</ele><time>2026-03-28T08:40:27.415Z</time></trkpt><trkpt lat="40.9312967" lon="14.3002"><ele>40.0</ele><time>2026-03-28T08:40:28.419Z</time></trkpt><trkpt lat="40.9313433" lon="14.30027"><ele>40.0</ele><time>2026-03-28T08:40:29.417Z</time></trkpt><trkpt lat="40.93139" lon="14.30034"><ele>40.0</ele><time>2026-03-28T08:40:30.415Z</time></trkpt><trkpt lat="40.93144" lon="14.3004067"><ele>40.0</ele><time>2026-03-28T08:40:31.419Z</time></trkpt><trkpt lat="40.93149" lon="14.3004767"><ele>40.0</ele><time>2026-03-28T08:40:32.419Z</time></trkpt><trkpt lat="40.9315417" lon="14.30055"><ele>40.0</ele><time>2026-03-28T08:40:33.418Z</time></trkpt><trkpt lat="40.93159" lon="14.3006233"><ele>40.0</ele><time>2026-03-28T08:40:34.419Z</time></trkpt><trkpt lat="40.9316383" lon="14.3006917"><ele>40.0</ele><time>2026-03-28T08:40:35.418Z</time></trkpt><trkpt lat="40.9316867" lon="14.3007617"><ele>40.0</ele><time>2026-03-28T08:40:36.418Z</time></trkpt><trkpt lat="40.9317333" lon="14.30083"><ele>40.0</ele><time>2026-03-28T08:40:37.418Z</time></trkpt><trkpt lat="40.93178" lon="14.30089"><ele>40.0</ele><time>2026-03-28T08:40:38.415Z</time></trkpt><trkpt lat="40.9318283" lon="14.3009467"><ele>40.0</ele><time>2026-03-28T08:40:39.417Z</time></trkpt><trkpt lat="40.93188" lon="14.3009983"><ele>40.0</ele><time>2026-03-28T08:40:40.418Z</time></trkpt><trkpt lat="40.93194" lon="14.3010433"><ele>40.0</ele><time>2026-03-28T08:40:41.415Z</time></trkpt><trkpt lat="40.9320033" lon="14.3010867"><ele>40.0</ele><time>2026-03-28T08:40:42.418Z</time></trkpt><trkpt lat="40.9320717" lon="14.3011217"><ele>40.0</ele><time>2026-03-28T08:40:43.416Z</time></trkpt><trkpt lat="40.9321417" lon="14.3011467"><ele>40.0</ele><time>2026-03-28T08:40:44.418Z</time></trkpt><trkpt lat="40.9322083" lon="14.3011667"><ele>40.0</ele><time>2026-03-28T08:40:45.418Z</time></trkpt><trkpt lat="40.9322767" lon="14.3011733"><ele>40.0</ele><time>2026-03-28T08:40:46.415Z</time></trkpt><trkpt lat="40.932345" lon="14.3011767"><ele>40.0</ele><time>2026-03-28T08:40:47.415Z</time></trkpt><trkpt lat="40.9324133" lon="14.3011783"><ele>40.0</ele><time>2026-03-28T08:40:48.415Z</time></trkpt><trkpt lat="40.9324833" lon="14.30118"><ele>40.0</ele><time>2026-03-28T08:40:49.415Z</time></trkpt><trkpt lat="40.9325517" lon="14.30118"><ele>40.0</ele><time>2026-03-28T08:40:50.417Z</time></trkpt><trkpt lat="40.93262" lon="14.3011833"><ele>40.0</ele><time>2026-03-28T08:40:51.415Z</time></trkpt><trkpt lat="40.9326883" lon="14.3011883"><ele>40.0</ele><time>2026-03-28T08:40:52.415Z</time></trkpt><trkpt lat="40.9327583" lon="14.30119"><ele>40.0</ele><time>2026-03-28T08:40:53.416Z</time></trkpt><trkpt lat="40.9328283" lon="14.30119"><ele>40.0</ele><time>2026-03-28T08:40:54.414Z</time></trkpt><trkpt lat="40.9329017" lon="14.3011933"><ele>40.0</ele><time>2026-03-28T08:40:55.414Z</time></trkpt><trkpt lat="40.93297" lon="14.3011967"><ele>39.857142857142854</ele><time>2026-03-28T08:40:56.417Z</time></trkpt><trkpt lat="40.9330383" lon="14.3011983"><ele>39.714285714285715</ele><time>2026-03-28T08:40:57.415Z</time></trkpt><trkpt lat="40.9331067" lon="14.3012"><ele>39.57142857142857</ele><time>2026-03-28T08:40:58.417Z</time></trkpt><trkpt lat="40.9331717" lon="14.3012033"><ele>39.42857142857143</ele><time>2026-03-28T08:40:59.418Z</time></trkpt><trkpt lat="40.933235" lon="14.3012033"><ele>39.285714285714285</ele><time>2026-03-28T08:41:00.418Z</time></trkpt><trkpt lat="40.9333017" lon="14.3012083"><ele>39.142857142857146</ele><time>2026-03-28T08:41:01.418Z</time></trkpt><trkpt lat="40.933365" lon="14.30122"><ele>39.0</ele><time>2026-03-28T08:41:02.417Z</time></trkpt><trkpt lat="40.9334283" lon="14.3012333"><ele>38.75</ele><time>2026-03-28T08:41:03.418Z</time></trkpt><trkpt lat="40.9335467" lon="14.3012733"><ele>38.5</ele><time>2026-03-28T08:41:05.418Z</time></trkpt><trkpt lat="40.9336517" lon="14.301365"><ele>38.25</ele><time>2026-03-28T08:41:07.418Z</time></trkpt><trkpt lat="40.9337533" lon="14.3014517"><ele>38.0</ele><time>2026-03-28T08:41:09.414Z</time></trkpt><trkpt lat="40.9338533" lon="14.3014517"><ele>38.14285714285714</ele><time>2026-03-28T08:41:11.415Z</time></trkpt><trkpt lat="40.93391" lon="14.301415"><ele>38.28571428571429</ele><time>2026-03-28T08:41:12.415Z</time></trkpt><trkpt lat="40.93397" lon="14.301365"><ele>38.42857142857143</ele><time>2026-03-28T08:41:13.414Z</time></trkpt><trkpt lat="40.9340267" lon="14.3013183"><ele>38.57142857142857</ele><time>2026-03-28T08:41:14.414Z</time></trkpt><trkpt lat="40.9340917" lon="14.3012783"><ele>38.71428571428571</ele><time>2026-03-28T08:41:15.414Z</time></trkpt><trkpt lat="40.9341617" lon="14.3012467"><ele>38.85714285714286</ele><time>2026-03-28T08:41:16.415Z</time></trkpt><trkpt lat="40.9342367" lon="14.3012317"><ele>39.0</ele><time>2026-03-28T08:41:17.415Z</time></trkpt><trkpt lat="40.9343017" lon="14.3012217"><ele>39.0</ele><time>2026-03-28T08:41:18.414Z</time></trkpt><trkpt lat="40.9343783" lon="14.301215"><ele>39.0</ele><time>2026-03-28T08:41:19.417Z</time></trkpt><trkpt lat="40.9344583" lon="14.30122"><ele>39.0</ele><time>2026-03-28T08:41:20.415Z</time></trkpt><trkpt lat="40.9345367" lon="14.3012317"><ele>39.0</ele><time>2026-03-28T08:41:21.415Z</time></trkpt><trkpt lat="40.93461" lon="14.3012383"><ele>39.0</ele><time>2026-03-28T08:41:22.415Z</time></trkpt><trkpt lat="40.9346767" lon="14.301245"><ele>39.0</ele><time>2026-03-28T08:41:23.419Z</time></trkpt><trkpt lat="40.934745" lon="14.301245"><ele>39.0</ele><time>2026-03-28T08:41:24.415Z</time></trkpt><trkpt lat="40.9348133" lon="14.3012467"><ele>39.0</ele><time>2026-03-28T08:41:25.415Z</time></trkpt><trkpt lat="40.93488" lon="14.3012483"><ele>39.0</ele><time>2026-03-28T08:41:26.415Z</time></trkpt><trkpt lat="40.934945" lon="14.30125"><ele>39.0</ele><time>2026-03-28T08:41:27.418Z</time></trkpt><trkpt lat="40.9350133" lon="14.3012467"><ele>39.0</ele><time>2026-03-28T08:41:28.416Z</time></trkpt><trkpt lat="40.9350883" lon="14.3012383"><ele>39.0</ele><time>2026-03-28T08:41:29.417Z</time></trkpt><trkpt lat="40.935155" lon="14.3012367"><ele>39.0</ele><time>2026-03-28T08:41:30.418Z</time></trkpt><trkpt lat="40.9352217" lon="14.3012417"><ele>39.0</ele><time>2026-03-28T08:41:31.415Z</time></trkpt><trkpt lat="40.93529" lon="14.3012417"><ele>38.714285714285715</ele><time>2026-03-28T08:41:32.416Z</time></trkpt><trkpt lat="40.9353617" lon="14.3012367"><ele>38.42857142857142</ele><time>2026-03-28T08:41:33.416Z</time></trkpt><trkpt lat="40.9354333" lon="14.3012333"><ele>38.14285714285714</ele><time>2026-03-28T08:41:34.415Z</time></trkpt><trkpt lat="40.935505" lon="14.30123"><ele>37.85714285714286</ele><time>2026-03-28T08:41:35.417Z</time></trkpt><trkpt lat="40.9355783" lon="14.3012233"><ele>37.57142857142857</ele><time>2026-03-28T08:41:36.417Z</time></trkpt><trkpt lat="40.9356517" lon="14.301215"><ele>37.285714285714285</ele><time>2026-03-28T08:41:37.416Z</time></trkpt><trkpt lat="40.935725" lon="14.30121"><ele>37.0</ele><time>2026-03-28T08:41:38.417Z</time></trkpt><trkpt lat="40.9357983" lon="14.3012067"><ele>37.0</ele><time>2026-03-28T08:41:39.418Z</time></trkpt><trkpt lat="40.9358667" lon="14.3012"><ele>37.0</ele><time>2026-03-28T08:41:40.417Z</time></trkpt><trkpt lat="40.9359383" lon="14.30119"><ele>37.0</ele><time>2026-03-28T08:41:41.417Z</time></trkpt><trkpt lat="40.9360083" lon="14.301175"><ele>37.0</ele><time>2026-03-28T08:41:42.415Z</time></trkpt><trkpt lat="40.9360783" lon="14.3011617"><ele>37.0</ele><time>2026-03-28T08:41:43.415Z</time></trkpt><trkpt lat="40.9361483" lon="14.301145"><ele>37.0</ele><time>2026-03-28T08:41:44.415Z</time></trkpt><trkpt lat="40.9362167" lon="14.30113"><ele>37.0</ele><time>2026-03-28T08:41:45.415Z</time></trkpt><trkpt lat="40.936285" lon="14.3011167"><ele>37.0</ele><time>2026-03-28T08:41:46.415Z</time></trkpt><trkpt lat="40.9363517" lon="14.3011033"><ele>37.0</ele><time>2026-03-28T08:41:47.417Z</time></trkpt><trkpt lat="40.9364183" lon="14.3010883"><ele>37.0</ele><time>2026-03-28T08:41:48.416Z</time></trkpt><trkpt lat="40.9364867" lon="14.3010733"><ele>37.0</ele><time>2026-03-28T08:41:49.415Z</time></trkpt><trkpt lat="40.9365583" lon="14.3010617"><ele>37.0</ele><time>2026-03-28T08:41:50.415Z</time></trkpt><trkpt lat="40.9366283" lon="14.30105"><ele>37.0</ele><time>2026-03-28T08:41:51.416Z</time></trkpt><trkpt lat="40.9367033" lon="14.3010417"><ele>37.0</ele><time>2026-03-28T08:41:52.415Z</time></trkpt><trkpt lat="40.9367767" lon="14.3010283"><ele>37.0</ele><time>2026-03-28T08:41:53.416Z</time></trkpt><trkpt lat="40.9368467" lon="14.30102"><ele>37.0</ele><time>2026-03-28T08:41:54.418Z</time></trkpt><trkpt lat="40.9369117" lon="14.301005"><ele>37.0</ele><time>2026-03-28T08:41:55.418Z</time></trkpt><trkpt lat="40.9369783" lon="14.3009917"><ele>37.0</ele><time>2026-03-28T08:41:56.417Z</time></trkpt><trkpt lat="40.9370467" lon="14.30098"><ele>37.0</ele><time>2026-03-28T08:41:57.415Z</time></trkpt><trkpt lat="40.9371117" lon="14.3009667"><ele>37.0</ele><time>2026-03-28T08:41:58.417Z</time></trkpt><trkpt lat="40.9371767" lon="14.300955"><ele>37.0</ele><time>2026-03-28T08:41:59.416Z</time></trkpt><trkpt lat="40.9372433" lon="14.300945"><ele>37.0</ele><time>2026-03-28T08:42:00.416Z</time></trkpt><trkpt lat="40.93731" lon="14.3009333"><ele>37.0</ele><time>2026-03-28T08:42:01.416Z</time></trkpt><trkpt lat="40.93738" lon="14.3009233"><ele>37.0</ele><time>2026-03-28T08:42:02.415Z</time></trkpt><trkpt lat="40.937445" lon="14.3009067"><ele>37.0</ele><time>2026-03-28T08:42:03.415Z</time></trkpt><trkpt lat="40.93751" lon="14.3008917"><ele>37.0</ele><time>2026-03-28T08:42:04.415Z</time></trkpt><trkpt lat="40.93758" lon="14.3008783"><ele>37.0</ele><time>2026-03-28T08:42:05.415Z</time></trkpt><trkpt lat="40.93765" lon="14.3008617"><ele>37.0</ele><time>2026-03-28T08:42:06.415Z</time></trkpt><trkpt lat="40.93772" lon="14.3008483"><ele>37.16666666666667</ele><time>2026-03-28T08:42:07.417Z</time></trkpt><trkpt lat="40.9377883" lon="14.300835"><ele>37.333333333333336</ele><time>2026-03-28T08:42:08.415Z</time></trkpt><trkpt lat="40.9378567" lon="14.300815"><ele>37.5</ele><time>2026-03-28T08:42:09.415Z</time></trkpt><trkpt lat="40.93792" lon="14.30079"><ele>37.666666666666664</ele><time>2026-03-28T08:42:10.417Z</time></trkpt><trkpt lat="40.93798" lon="14.3007617"><ele>37.83333333333333</ele><time>2026-03-28T08:42:11.417Z</time></trkpt><trkpt lat="40.9380417" lon="14.300735"><ele>38.0</ele><time>2026-03-28T08:42:12.415Z</time></trkpt><trkpt lat="40.9381533" lon="14.3006883"><ele>38.0</ele><time>2026-03-28T08:42:14.416Z</time></trkpt><trkpt lat="40.9382567" lon="14.3006283"><ele>38.0</ele><time>2026-03-28T08:42:16.414Z</time></trkpt><trkpt lat="40.938365" lon="14.3005667"><ele>38.0</ele><time>2026-03-28T08:42:18.418Z</time></trkpt><trkpt lat="40.9384783" lon="14.3004967"><ele>38.0</ele><time>2026-03-28T08:42:20.417Z</time></trkpt><trkpt lat="40.9385417" lon="14.30046"><ele>38.0</ele><time>2026-03-28T08:42:21.415Z</time></trkpt><trkpt lat="40.9386017" lon="14.3004217"><ele>37.857142857142854</ele><time>2026-03-28T08:42:22.417Z</time></trkpt><trkpt lat="40.93866" lon="14.3003817"><ele>37.714285714285715</ele><time>2026-03-28T08:42:23.415Z</time></trkpt><trkpt lat="40.9387183" lon="14.3003467"><ele>37.57142857142857</ele><time>2026-03-28T08:42:24.416Z</time></trkpt><trkpt lat="40.93878" lon="14.3003033"><ele>37.42857142857143</ele><time>2026-03-28T08:42:25.415Z</time></trkpt><trkpt lat="40.938845" lon="14.3002667"><ele>37.285714285714285</ele><time>2026-03-28T08:42:26.415Z</time></trkpt><trkpt lat="40.9389117" lon="14.3002233"><ele>37.142857142857146</ele><time>2026-03-28T08:42:27.417Z</time></trkpt><trkpt lat="40.93897" lon="14.300185"><ele>37.0</ele><time>2026-03-28T08:42:28.415Z</time></trkpt><trkpt lat="40.9390283" lon="14.3001467"><ele>37.0</ele><time>2026-03-28T08:42:29.416Z</time></trkpt><trkpt lat="40.9390933" lon="14.300105"><ele>37.0</ele><time>2026-03-28T08:42:30.415Z</time></trkpt><trkpt lat="40.9391583" lon="14.3000683"><ele>37.0</ele><time>2026-03-28T08:42:31.415Z</time></trkpt><trkpt lat="40.9392217" lon="14.3000283"><ele>37.0</ele><time>2026-03-28T08:42:32.415Z</time></trkpt><trkpt lat="40.9392883" lon="14.29999"><ele>37.0</ele><time>2026-03-28T08:42:33.415Z</time></trkpt><trkpt lat="40.9393533" lon="14.2999483"><ele>37.0</ele><time>2026-03-28T08:42:34.416Z</time></trkpt><trkpt lat="40.9394167" lon="14.299905"><ele>37.0</ele><time>2026-03-28T08:42:35.416Z</time></trkpt><trkpt lat="40.93948" lon="14.2998633"><ele>36.85714285714286</ele><time>2026-03-28T08:42:36.415Z</time></trkpt><trkpt lat="40.9395417" lon="14.2998217"><ele>36.714285714285715</ele><time>2026-03-28T08:42:37.415Z</time></trkpt><trkpt lat="40.9396067" lon="14.2997817"><ele>36.57142857142857</ele><time>2026-03-28T08:42:38.419Z</time></trkpt><trkpt lat="40.9396717" lon="14.29974"><ele>36.42857142857143</ele><time>2026-03-28T08:42:39.415Z</time></trkpt><trkpt lat="40.939735" lon="14.2996983"><ele>36.285714285714285</ele><time>2026-03-28T08:42:40.415Z</time></trkpt><trkpt lat="40.9397967" lon="14.2996617"><ele>36.142857142857146</ele><time>2026-03-28T08:42:41.414Z</time></trkpt><trkpt lat="40.9398583" lon="14.2996317"><ele>36.0</ele><time>2026-03-28T08:42:42.416Z</time></trkpt><trkpt lat="40.9399233" lon="14.2996033"><ele>36.00000000000001</ele><time>2026-03-28T08:42:43.417Z</time></trkpt><trkpt lat="40.93999" lon="14.299575"><ele>36.0</ele><time>2026-03-28T08:42:44.415Z</time></trkpt><trkpt lat="40.940055" lon="14.2995533"><ele>36.0</ele><time>2026-03-28T08:42:45.414Z</time></trkpt><trkpt lat="40.9401233" lon="14.2995283"><ele>36.0</ele><time>2026-03-28T08:42:46.414Z</time></trkpt><trkpt lat="40.94019" lon="14.2995117"><ele>36.0</ele><time>2026-03-28T08:42:47.413Z</time></trkpt><trkpt lat="40.9402567" lon="14.299495"><ele>36.00000000000001</ele><time>2026-03-28T08:42:48.416Z</time></trkpt><trkpt lat="40.9403233" lon="14.2994783"><ele>36.0</ele><time>2026-03-28T08:42:49.417Z</time></trkpt><trkpt lat="40.9403933" lon="14.29946"><ele>36.2</ele><time>2026-03-28T08:42:50.417Z</time></trkpt><trkpt lat="40.9404617" lon="14.29944"><ele>36.400000000000006</ele><time>2026-03-28T08:42:51.415Z</time></trkpt><trkpt lat="40.9405283" lon="14.2994217"><ele>36.6</ele><time>2026-03-28T08:42:52.416Z</time></trkpt><trkpt lat="40.9406433" lon="14.2993783"><ele>36.800000000000004</ele><time>2026-03-28T08:42:54.416Z</time></trkpt><trkpt lat="40.9407617" lon="14.2993317"><ele>37.0</ele><time>2026-03-28T08:42:56.419Z</time></trkpt><trkpt lat="40.9408733" lon="14.2992833"><ele>37.0</ele><time>2026-03-28T08:42:58.416Z</time></trkpt><trkpt lat="40.94098" lon="14.2992483"><ele>37.0</ele><time>2026-03-28T08:43:00.416Z</time></trkpt><trkpt lat="40.9410817" lon="14.2992167"><ele>37.0</ele><time>2026-03-28T08:43:02.416Z</time></trkpt><trkpt lat="40.9411933" lon="14.299195"><ele>37.0</ele><time>2026-03-28T08:43:04.415Z</time></trkpt><trkpt lat="40.9413033" lon="14.2991683"><ele>37.0</ele><time>2026-03-28T08:43:06.416Z</time></trkpt><trkpt lat="40.941415" lon="14.2991383"><ele>37.0</ele><time>2026-03-28T08:43:08.415Z</time></trkpt><trkpt lat="40.941525" lon="14.2990933"><ele>37.0</ele><time>2026-03-28T08:43:10.415Z</time></trkpt><trkpt lat="40.9416367" lon="14.2990617"><ele>37.0</ele><time>2026-03-28T08:43:12.415Z</time></trkpt><trkpt lat="40.94175" lon="14.2990233"><ele>37.0</ele><time>2026-03-28T08:43:14.416Z</time></trkpt><trkpt lat="40.9418583" lon="14.299015"><ele>36.800000000000004</ele><time>2026-03-28T08:43:16.414Z</time></trkpt><trkpt lat="40.9419667" lon="14.299025"><ele>36.6</ele><time>2026-03-28T08:43:18.416Z</time></trkpt><trkpt lat="40.942075" lon="14.2990233"><ele>36.400000000000006</ele><time>2026-03-28T08:43:20.415Z</time></trkpt><trkpt lat="40.9421783" lon="14.2990233"><ele>36.2</ele><time>2026-03-28T08:43:22.416Z</time></trkpt><trkpt lat="40.9422867" lon="14.299025"><ele>36.0</ele><time>2026-03-28T08:43:24.416Z</time></trkpt><trkpt lat="40.9423983" lon="14.2990117"><ele>36.0</ele><time>2026-03-28T08:43:26.417Z</time></trkpt><trkpt lat="40.942515" lon="14.298995"><ele>36.0</ele><time>2026-03-28T08:43:28.415Z</time></trkpt><trkpt lat="40.942635" lon="14.29899"><ele>36.0</ele><time>2026-03-28T08:43:30.415Z</time></trkpt><trkpt lat="40.942755" lon="14.2989883"><ele>36.0</ele><time>2026-03-28T08:43:32.416Z</time></trkpt><trkpt lat="40.9428183" lon="14.2989967"><ele>36.0</ele><time>2026-03-28T08:43:33.417Z</time></trkpt><trkpt lat="40.9428867" lon="14.2990067"><ele>35.714285714285715</ele><time>2026-03-28T08:43:34.417Z</time></trkpt><trkpt lat="40.942955" lon="14.299015"><ele>35.42857142857143</ele><time>2026-03-28T08:43:35.417Z</time></trkpt><trkpt lat="40.9430217" lon="14.2990167"><ele>35.14285714285714</ele><time>2026-03-28T08:43:36.415Z</time></trkpt><trkpt lat="40.9430883" lon="14.2990167"><ele>34.85714285714286</ele><time>2026-03-28T08:43:37.417Z</time></trkpt><trkpt lat="40.9431567" lon="14.2990117"><ele>34.57142857142857</ele><time>2026-03-28T08:43:38.415Z</time></trkpt><trkpt lat="40.9432233" lon="14.2990133"><ele>34.285714285714285</ele><time>2026-03-28T08:43:39.415Z</time></trkpt><trkpt lat="40.94329" lon="14.2990117"><ele>34.0</ele><time>2026-03-28T08:43:40.417Z</time></trkpt><trkpt lat="40.9433567" lon="14.29902"><ele>33.71428571428571</ele><time>2026-03-28T08:43:41.415Z</time></trkpt><trkpt lat="40.9434233" lon="14.2990233"><ele>33.42857142857143</ele><time>2026-03-28T08:43:42.415Z</time></trkpt><trkpt lat="40.9434883" lon="14.2990217"><ele>33.14285714285714</ele><time>2026-03-28T08:43:43.415Z</time></trkpt><trkpt lat="40.9435533" lon="14.29903"><ele>32.857142857142854</ele><time>2026-03-28T08:43:44.415Z</time></trkpt><trkpt lat="40.9436183" lon="14.2990467"><ele>32.57142857142857</ele><time>2026-03-28T08:43:45.415Z</time></trkpt><trkpt lat="40.943685" lon="14.2990633"><ele>32.285714285714285</ele><time>2026-03-28T08:43:46.416Z</time></trkpt><trkpt lat="40.943755" lon="14.299085"><ele>32.0</ele><time>2026-03-28T08:43:47.416Z</time></trkpt><trkpt lat="40.9438217" lon="14.2991033"><ele>31.999999999999996</ele><time>2026-03-28T08:43:48.415Z</time></trkpt><trkpt lat="40.9438883" lon="14.29912"><ele>32.0</ele><time>2026-03-28T08:43:49.417Z</time></trkpt><trkpt lat="40.9439517" lon="14.299135"><ele>32.0</ele><time>2026-03-28T08:43:50.415Z</time></trkpt><trkpt lat="40.944015" lon="14.2991467"><ele>32.0</ele><time>2026-03-28T08:43:51.417Z</time></trkpt><trkpt lat="40.9441333" lon="14.2991767"><ele>31.999999999999996</ele><time>2026-03-28T08:43:53.417Z</time></trkpt><trkpt lat="40.944245" lon="14.2992367"><ele>32.0</ele><time>2026-03-28T08:43:55.417Z</time></trkpt><trkpt lat="40.9443583" lon="14.2992917"><ele>32.14285714285714</ele><time>2026-03-28T08:43:57.415Z</time></trkpt><trkpt lat="40.9444233" lon="14.299285"><ele>32.285714285714285</ele><time>2026-03-28T08:43:58.415Z</time></trkpt><trkpt lat="40.9444917" lon="14.2992767"><ele>32.42857142857143</ele><time>2026-03-28T08:43:59.419Z</time></trkpt><trkpt lat="40.9445567" lon="14.29927"><ele>32.57142857142857</ele><time>2026-03-28T08:44:00.417Z</time></trkpt><trkpt lat="40.944625" lon="14.2992683"><ele>32.714285714285715</ele><time>2026-03-28T08:44:01.416Z</time></trkpt><trkpt lat="40.944695" lon="14.2992767"><ele>32.857142857142854</ele><time>2026-03-28T08:44:02.415Z</time></trkpt><trkpt lat="40.9447633" lon="14.2992867"><ele>33.0</ele><time>2026-03-28T08:44:03.418Z</time></trkpt><trkpt lat="40.9448283" lon="14.299295"><ele>33.0</ele><time>2026-03-28T08:44:04.415Z</time></trkpt><trkpt lat="40.94495" lon="14.2993167"><ele>33.0</ele><time>2026-03-28T08:44:06.418Z</time></trkpt><trkpt lat="40.9450683" lon="14.2993367"><ele>33.0</ele><time>2026-03-28T08:44:08.415Z</time></trkpt><trkpt lat="40.9451883" lon="14.2993517"><ele>33.0</ele><time>2026-03-28T08:44:10.418Z</time></trkpt><trkpt lat="40.9453117" lon="14.2993733"><ele>33.0</ele><time>2026-03-28T08:44:12.416Z</time></trkpt><trkpt lat="40.945435" lon="14.2994"><ele>33.0</ele><time>2026-03-28T08:44:14.418Z</time></trkpt><trkpt lat="40.9455" lon="14.2994117"><ele>33.0</ele><time>2026-03-28T08:44:15.415Z</time></trkpt><trkpt lat="40.945565" lon="14.2994217"><ele>33.0</ele><time>2026-03-28T08:44:16.415Z</time></trkpt><trkpt lat="40.9456283" lon="14.2994333"><ele>33.0</ele><time>2026-03-28T08:44:17.417Z</time></trkpt><trkpt lat="40.9457517" lon="14.299455"><ele>33.0</ele><time>2026-03-28T08:44:19.415Z</time></trkpt><trkpt lat="40.9458733" lon="14.2994833"><ele>32.833333333333336</ele><time>2026-03-28T08:44:21.415Z</time></trkpt><trkpt lat="40.9459367" lon="14.2994967"><ele>32.666666666666664</ele><time>2026-03-28T08:44:22.418Z</time></trkpt><trkpt lat="40.946" lon="14.29951"><ele>32.5</ele><time>2026-03-28T08:44:23.415Z</time></trkpt><trkpt lat="40.9460633" lon="14.2995267"><ele>32.33333333333333</ele><time>2026-03-28T08:44:24.415Z</time></trkpt><trkpt lat="40.946185" lon="14.29955"><ele>32.166666666666664</ele><time>2026-03-28T08:44:26.416Z</time></trkpt><trkpt lat="40.9462467" lon="14.2995667"><ele>32.0</ele><time>2026-03-28T08:44:27.418Z</time></trkpt><trkpt lat="40.9463667" lon="14.2996233"><ele>31.999999999999996</ele><time>2026-03-28T08:44:29.414Z</time></trkpt><trkpt lat="40.94642" lon="14.299675"><ele>32.0</ele><time>2026-03-28T08:44:30.416Z</time></trkpt><trkpt lat="40.946505" lon="14.2998"><ele>32.0</ele><time>2026-03-28T08:44:32.418Z</time></trkpt><trkpt lat="40.946535" lon="14.2998817"><ele>32.0</ele><time>2026-03-28T08:44:33.414Z</time></trkpt><trkpt lat="40.94656" lon="14.2999617"><ele>31.999999999999996</ele><time>2026-03-28T08:44:34.415Z</time></trkpt><trkpt lat="40.9465867" lon="14.3000383"><ele>32.0</ele><time>2026-03-28T08:44:35.417Z</time></trkpt><trkpt lat="40.9466133" lon="14.30012"><ele>31.999999999999996</ele><time>2026-03-28T08:44:36.415Z</time></trkpt><trkpt lat="40.9466433" lon="14.3002033"><ele>32.0</ele><time>2026-03-28T08:44:37.415Z</time></trkpt><trkpt lat="40.9466733" lon="14.30029"><ele>32.0</ele><time>2026-03-28T08:44:38.415Z</time></trkpt><trkpt lat="40.9467017" lon="14.3003717"><ele>32.0</ele><time>2026-03-28T08:44:39.414Z</time></trkpt><trkpt lat="40.9467317" lon="14.3004467"><ele>31.999999999999996</ele><time>2026-03-28T08:44:40.415Z</time></trkpt><trkpt lat="40.9467917" lon="14.300595"><ele>32.0</ele><time>2026-03-28T08:44:42.415Z</time></trkpt><trkpt lat="40.946825" lon="14.3006733"><ele>31.857142857142854</ele><time>2026-03-28T08:44:43.416Z</time></trkpt><trkpt lat="40.9468583" lon="14.3007533"><ele>31.71428571428571</ele><time>2026-03-28T08:44:44.416Z</time></trkpt><trkpt lat="40.94689" lon="14.30083"><ele>31.57142857142857</ele><time>2026-03-28T08:44:45.415Z</time></trkpt><trkpt lat="40.9469183" lon="14.3009067"><ele>31.42857142857143</ele><time>2026-03-28T08:44:46.416Z</time></trkpt><trkpt lat="40.9469483" lon="14.3009867"><ele>31.28571428571429</ele><time>2026-03-28T08:44:47.417Z</time></trkpt><trkpt lat="40.9469767" lon="14.3010667"><ele>31.142857142857146</ele><time>2026-03-28T08:44:48.415Z</time></trkpt><trkpt lat="40.947005" lon="14.3011417"><ele>31.0</ele><time>2026-03-28T08:44:49.416Z</time></trkpt><trkpt lat="40.9470333" lon="14.3012233"><ele>31.000000000000004</ele><time>2026-03-28T08:44:50.415Z</time></trkpt><trkpt lat="40.94706" lon="14.3013"><ele>31.0</ele><time>2026-03-28T08:44:51.417Z</time></trkpt><trkpt lat="40.9470883" lon="14.3013767"><ele>31.0</ele><time>2026-03-28T08:44:52.416Z</time></trkpt><trkpt lat="40.9471167" lon="14.3014517"><ele>31.0</ele><time>2026-03-28T08:44:53.417Z</time></trkpt><trkpt lat="40.94717" lon="14.3015967"><ele>31.000000000000004</ele><time>2026-03-28T08:44:55.413Z</time></trkpt><trkpt lat="40.9472283" lon="14.3017317"><ele>31.0</ele><time>2026-03-28T08:44:57.417Z</time></trkpt><trkpt lat="40.947295" lon="14.3018567"><ele>31.200000000000003</ele><time>2026-03-28T08:44:59.417Z</time></trkpt><trkpt lat="40.9473583" lon="14.301985"><ele>31.400000000000002</ele><time>2026-03-28T08:45:01.417Z</time></trkpt><trkpt lat="40.9474167" lon="14.3021067"><ele>31.6</ele><time>2026-03-28T08:45:03.414Z</time></trkpt><trkpt lat="40.9474967" lon="14.30219"><ele>31.8</ele><time>2026-03-28T08:45:05.417Z</time></trkpt><trkpt lat="40.9475917" lon="14.3022"><ele>32.0</ele><time>2026-03-28T08:45:07.415Z</time></trkpt><trkpt lat="40.9476883" lon="14.302195"><ele>32.0</ele><time>2026-03-28T08:45:09.415Z</time></trkpt><trkpt lat="40.9477867" lon="14.3022017"><ele>32.0</ele><time>2026-03-28T08:45:11.415Z</time></trkpt><trkpt lat="40.9478817" lon="14.3022117"><ele>32.0</ele><time>2026-03-28T08:45:13.416Z</time></trkpt><trkpt lat="40.9479817" lon="14.3022267"><ele>32.0</ele><time>2026-03-28T08:45:15.418Z</time></trkpt><trkpt lat="40.9480883" lon="14.3022467"><ele>32.0</ele><time>2026-03-28T08:45:17.415Z</time></trkpt><trkpt lat="40.9481933" lon="14.302275"><ele>31.999999999999996</ele><time>2026-03-28T08:45:19.415Z</time></trkpt><trkpt lat="40.9482933" lon="14.3023033"><ele>32.0</ele><time>2026-03-28T08:45:21.415Z</time></trkpt><trkpt lat="40.9483883" lon="14.3023317"><ele>32.0</ele><time>2026-03-28T08:45:23.417Z</time></trkpt><trkpt lat="40.9484633" lon="14.302355"><ele>32.0</ele><time>2026-03-28T08:45:25.417Z</time></trkpt><trkpt lat="40.9485367" lon="14.3023617"><ele>31.999999999999996</ele><time>2026-03-28T08:45:28.415Z</time></trkpt><trkpt lat="40.9486117" lon="14.3023617"><ele>32.0</ele><time>2026-03-28T08:45:31.416Z</time></trkpt><trkpt lat="40.9486783" lon="14.30237"><ele>31.857142857142854</ele><time>2026-03-28T08:45:33.415Z</time></trkpt><trkpt lat="40.9487433" lon="14.3023933"><ele>31.71428571428571</ele><time>2026-03-28T08:45:35.415Z</time></trkpt><trkpt lat="40.9488083" lon="14.30241"><ele>31.57142857142857</ele><time>2026-03-28T08:45:37.415Z</time></trkpt><trkpt lat="40.9488733" lon="14.30242"><ele>31.42857142857143</ele><time>2026-03-28T08:45:39.414Z</time></trkpt><trkpt lat="40.9489383" lon="14.3024233"><ele>31.28571428571429</ele><time>2026-03-28T08:45:41.417Z</time></trkpt><trkpt lat="40.949" lon="14.3024467"><ele>31.142857142857146</ele><time>2026-03-28T08:45:43.415Z</time></trkpt><trkpt lat="40.949055" lon="14.3024883"><ele>31.0</ele><time>2026-03-28T08:45:45.415Z</time></trkpt><trkpt lat="40.9491" lon="14.302575"><ele>31.000000000000004</ele><time>2026-03-28T08:45:48.417Z</time></trkpt><trkpt lat="40.9491067" lon="14.3026667"><ele>31.0</ele><time>2026-03-28T08:45:51.414Z</time></trkpt><trkpt lat="40.9490983" lon="14.302785"><ele>31.0</ele><time>2026-03-28T08:45:54.414Z</time></trkpt><trkpt lat="40.9490933" lon="14.3029067"><ele>31.0</ele><time>2026-03-28T08:45:56.417Z</time></trkpt><trkpt lat="40.9490617" lon="14.303015"><ele>31.000000000000004</ele><time>2026-03-28T08:45:58.415Z</time></trkpt><trkpt lat="40.9490267" lon="14.3031283"><ele>31.0</ele><time>2026-03-28T08:46:00.415Z</time></trkpt><trkpt lat="40.9489933" lon="14.3032367"><ele>30.8</ele><time>2026-03-28T08:46:02.415Z</time></trkpt><trkpt lat="40.948965" lon="14.3033583"><ele>30.6</ele><time>2026-03-28T08:46:04.416Z</time></trkpt><trkpt lat="40.948925" lon="14.3034767"><ele>30.4</ele><time>2026-03-28T08:46:06.416Z</time></trkpt><trkpt lat="40.948895" lon="14.3035867"><ele>30.2</ele><time>2026-03-28T08:46:08.417Z</time></trkpt><trkpt lat="40.94887" lon="14.303695"><ele>30.0</ele><time>2026-03-28T08:46:10.415Z</time></trkpt><trkpt lat="40.9488467" lon="14.3038183"><ele>30.0</ele><time>2026-03-28T08:46:12.417Z</time></trkpt><trkpt lat="40.94881" lon="14.303955"><ele>30.0</ele><time>2026-03-28T08:46:14.416Z</time></trkpt><trkpt lat="40.9487783" lon="14.3040967"><ele>30.0</ele><time>2026-03-28T08:46:16.415Z</time></trkpt><trkpt lat="40.9487467" lon="14.304235"><ele>30.0</ele><time>2026-03-28T08:46:18.416Z</time></trkpt><trkpt lat="40.94871" lon="14.3043767"><ele>30.0</ele><time>2026-03-28T08:46:20.416Z</time></trkpt><trkpt lat="40.948685" lon="14.30452"><ele>30.0</ele><time>2026-03-28T08:46:22.418Z</time></trkpt><trkpt lat="40.948665" lon="14.3046633"><ele>30.0</ele><time>2026-03-28T08:46:24.416Z</time></trkpt><trkpt lat="40.9486417" lon="14.3048167"><ele>30.0</ele><time>2026-03-28T08:46:26.415Z</time></trkpt><trkpt lat="40.9486167" lon="14.3049617"><ele>30.0</ele><time>2026-03-28T08:46:28.415Z</time></trkpt><trkpt lat="40.94859" lon="14.3050933"><ele>30.0</ele><time>2026-03-28T08:46:30.415Z</time></trkpt><trkpt lat="40.948565" lon="14.3052333"><ele>30.0</ele><time>2026-03-28T08:46:32.417Z</time></trkpt><trkpt lat="40.9485367" lon="14.3053767"><ele>30.0</ele><time>2026-03-28T08:46:34.415Z</time></trkpt><trkpt lat="40.9485133" lon="14.305515"><ele>30.0</ele><time>2026-03-28T08:46:36.416Z</time></trkpt><trkpt lat="40.948495" lon="14.3056483"><ele>30.0</ele><time>2026-03-28T08:46:38.416Z</time></trkpt><trkpt lat="40.94847" lon="14.3057667"><ele>30.0</ele><time>2026-03-28T08:46:40.417Z</time></trkpt><trkpt lat="40.9484383" lon="14.3058917"><ele>30.0</ele><time>2026-03-28T08:46:42.415Z</time></trkpt><trkpt lat="40.94842" lon="14.3060317"><ele>30.0</ele><time>2026-03-28T08:46:44.416Z</time></trkpt><trkpt lat="40.9484" lon="14.3061833"><ele>30.0</ele><time>2026-03-28T08:46:46.417Z</time></trkpt><trkpt lat="40.9483967" lon="14.3063383"><ele>30.0</ele><time>2026-03-28T08:46:48.417Z</time></trkpt><trkpt lat="40.948385" lon="14.3064883"><ele>30.2</ele><time>2026-03-28T08:46:50.415Z</time></trkpt><trkpt lat="40.94837" lon="14.306655"><ele>30.4</ele><time>2026-03-28T08:46:52.416Z</time></trkpt><trkpt lat="40.948365" lon="14.3067383"><ele>30.6</ele><time>2026-03-28T08:46:53.417Z</time></trkpt><trkpt lat="40.9483633" lon="14.3068217"><ele>30.8</ele><time>2026-03-28T08:46:54.415Z</time></trkpt><trkpt lat="40.9483483" lon="14.3069767"><ele>31.0</ele><time>2026-03-28T08:46:56.415Z</time></trkpt><trkpt lat="40.9483267" lon="14.3071283"><ele>30.5</ele><time>2026-03-28T08:46:58.414Z</time></trkpt><trkpt lat="40.948305" lon="14.3072817"><ele>30.0</ele><time>2026-03-28T08:47:00.416Z</time></trkpt><trkpt lat="40.94828" lon="14.3074383"><ele>29.5</ele><time>2026-03-28T08:47:02.415Z</time></trkpt><trkpt lat="40.9482467" lon="14.3075867"><ele>29.0</ele><time>2026-03-28T08:47:04.415Z</time></trkpt><trkpt lat="40.9482067" lon="14.3077417"><ele>28.999999999999996</ele><time>2026-03-28T08:47:06.416Z</time></trkpt><trkpt lat="40.948195" lon="14.307825"><ele>29.0</ele><time>2026-03-28T08:47:07.418Z</time></trkpt><trkpt lat="40.9481783" lon="14.3079117"><ele>29.0</ele><time>2026-03-28T08:47:08.418Z</time></trkpt><trkpt lat="40.9481633" lon="14.3079983"><ele>29.0</ele><time>2026-03-28T08:47:09.415Z</time></trkpt><trkpt lat="40.948155" lon="14.3080883"><ele>28.999999999999996</ele><time>2026-03-28T08:47:10.416Z</time></trkpt><trkpt lat="40.9481317" lon="14.30825"><ele>29.0</ele><time>2026-03-28T08:47:12.418Z</time></trkpt><trkpt lat="40.948115" lon="14.3083333"><ele>29.0</ele><time>2026-03-28T08:47:13.416Z</time></trkpt><trkpt lat="40.9480967" lon="14.3084133"><ele>29.0</ele><time>2026-03-28T08:47:14.415Z</time></trkpt><trkpt lat="40.9480583" lon="14.3085633"><ele>29.0</ele><time>2026-03-28T08:47:16.415Z</time></trkpt><trkpt lat="40.9480183" lon="14.3087083"><ele>29.0</ele><time>2026-03-28T08:47:18.415Z</time></trkpt><trkpt lat="40.9479883" lon="14.3088667"><ele>29.0</ele><time>2026-03-28T08:47:20.416Z</time></trkpt><trkpt lat="40.947975" lon="14.3089517"><ele>28.666666666666664</ele><time>2026-03-28T08:47:21.415Z</time></trkpt><trkpt lat="40.9479583" lon="14.3090367"><ele>28.333333333333332</ele><time>2026-03-28T08:47:22.415Z</time></trkpt><trkpt lat="40.9479467" lon="14.30912"><ele>28.0</ele><time>2026-03-28T08:47:23.416Z</time></trkpt><trkpt lat="40.9479367" lon="14.3092033"><ele>27.666666666666664</ele><time>2026-03-28T08:47:24.416Z</time></trkpt><trkpt lat="40.947905" lon="14.3093617"><ele>27.333333333333332</ele><time>2026-03-28T08:47:26.416Z</time></trkpt><trkpt lat="40.94787" lon="14.30951"><ele>27.0</ele><time>2026-03-28T08:47:28.416Z</time></trkpt><trkpt lat="40.947835" lon="14.3096517"><ele>26.5</ele><time>2026-03-28T08:47:30.418Z</time></trkpt><trkpt lat="40.9478067" lon="14.3098133"><ele>26.0</ele><time>2026-03-28T08:47:32.418Z</time></trkpt><trkpt lat="40.9477983" lon="14.3098967"><ele>25.5</ele><time>2026-03-28T08:47:33.418Z</time></trkpt><trkpt lat="40.9477833" lon="14.3099833"><ele>25.0</ele><time>2026-03-28T08:47:34.418Z</time></trkpt><trkpt lat="40.9477683" lon="14.31007"><ele>24.5</ele><time>2026-03-28T08:47:35.419Z</time></trkpt><trkpt lat="40.947755" lon="14.3101617"><ele>24.0</ele><time>2026-03-28T08:47:36.418Z</time></trkpt><trkpt lat="40.9477417" lon="14.3102517"><ele>23.999999999999996</ele><time>2026-03-28T08:47:37.417Z</time></trkpt><trkpt lat="40.94773" lon="14.3103433"><ele>24.0</ele><time>2026-03-28T08:47:38.418Z</time></trkpt><trkpt lat="40.9477183" lon="14.31043"><ele>24.0</ele><time>2026-03-28T08:47:39.418Z</time></trkpt><trkpt lat="40.9477083" lon="14.3105183"><ele>24.0</ele><time>2026-03-28T08:47:40.418Z</time></trkpt><trkpt lat="40.947695" lon="14.3106033"><ele>24.0</ele><time>2026-03-28T08:47:41.415Z</time></trkpt><trkpt lat="40.9476817" lon="14.31069"><ele>23.999999999999996</ele><time>2026-03-28T08:47:42.415Z</time></trkpt><trkpt lat="40.9476683" lon="14.3107767"><ele>24.0</ele><time>2026-03-28T08:47:43.418Z</time></trkpt><trkpt lat="40.94766" lon="14.310865"><ele>23.999999999999996</ele><time>2026-03-28T08:47:44.417Z</time></trkpt><trkpt lat="40.947645" lon="14.3109633"><ele>24.0</ele><time>2026-03-28T08:47:45.418Z</time></trkpt><trkpt lat="40.9476283" lon="14.31106"><ele>24.0</ele><time>2026-03-28T08:47:46.415Z</time></trkpt><trkpt lat="40.9476117" lon="14.3111583"><ele>24.0</ele><time>2026-03-28T08:47:47.416Z</time></trkpt><trkpt lat="40.9475967" lon="14.3112533"><ele>24.0</ele><time>2026-03-28T08:47:48.416Z</time></trkpt><trkpt lat="40.947585" lon="14.3113517"><ele>23.999999999999996</ele><time>2026-03-28T08:47:49.415Z</time></trkpt><trkpt lat="40.9475717" lon="14.3114483"><ele>24.0</ele><time>2026-03-28T08:47:50.416Z</time></trkpt><trkpt lat="40.9475567" lon="14.311545"><ele>24.428571428571427</ele><time>2026-03-28T08:47:51.416Z</time></trkpt><trkpt lat="40.9475383" lon="14.3116417"><ele>24.857142857142858</ele><time>2026-03-28T08:47:52.415Z</time></trkpt><trkpt lat="40.9475267" lon="14.31174"><ele>25.285714285714285</ele><time>2026-03-28T08:47:53.416Z</time></trkpt><trkpt lat="40.9475167" lon="14.311835"><ele>25.714285714285715</ele><time>2026-03-28T08:47:54.416Z</time></trkpt><trkpt lat="40.947505" lon="14.3119317"><ele>26.142857142857142</ele><time>2026-03-28T08:47:55.416Z</time></trkpt><trkpt lat="40.9474917" lon="14.3120217"><ele>26.57142857142857</ele><time>2026-03-28T08:47:56.415Z</time></trkpt><trkpt lat="40.9474717" lon="14.31211"><ele>27.0</ele><time>2026-03-28T08:47:57.415Z</time></trkpt><trkpt lat="40.9474483" lon="14.3121933"><ele>27.166666666666668</ele><time>2026-03-28T08:47:58.417Z</time></trkpt><trkpt lat="40.9474317" lon="14.31228"><ele>27.333333333333336</ele><time>2026-03-28T08:47:59.417Z</time></trkpt><trkpt lat="40.9474183" lon="14.3123633"><ele>27.5</ele><time>2026-03-28T08:48:00.418Z</time></trkpt><trkpt lat="40.9474" lon="14.31252"><ele>27.666666666666668</ele><time>2026-03-28T08:48:02.415Z</time></trkpt><trkpt lat="40.947385" lon="14.31262"><ele>27.833333333333336</ele><time>2026-03-28T08:48:03.415Z</time></trkpt><trkpt lat="40.9473633" lon="14.3127617"><ele>28.0</ele><time>2026-03-28T08:48:05.418Z</time></trkpt><trkpt lat="40.9473267" lon="14.312905"><ele>28.0</ele><time>2026-03-28T08:48:07.416Z</time></trkpt><trkpt lat="40.947315" lon="14.31299"><ele>28.0</ele><time>2026-03-28T08:48:08.416Z</time></trkpt><trkpt lat="40.9473" lon="14.3130733"><ele>28.0</ele><time>2026-03-28T08:48:09.418Z</time></trkpt><trkpt lat="40.9472883" lon="14.3131633"><ele>28.0</ele><time>2026-03-28T08:48:10.419Z</time></trkpt><trkpt lat="40.947275" lon="14.313245"><ele>28.0</ele><time>2026-03-28T08:48:11.418Z</time></trkpt><trkpt lat="40.9472667" lon="14.313335"><ele>28.0</ele><time>2026-03-28T08:48:12.418Z</time></trkpt><trkpt lat="40.94726" lon="14.3134233"><ele>28.0</ele><time>2026-03-28T08:48:13.416Z</time></trkpt><trkpt lat="40.9472517" lon="14.3135117"><ele>27.599999999999998</ele><time>2026-03-28T08:48:14.415Z</time></trkpt><trkpt lat="40.9472383" lon="14.3135983"><ele>27.199999999999996</ele><time>2026-03-28T08:48:15.416Z</time></trkpt><trkpt lat="40.9472283" lon="14.3136867"><ele>26.8</ele><time>2026-03-28T08:48:16.416Z</time></trkpt><trkpt lat="40.9472017" lon="14.3138417"><ele>26.4</ele><time>2026-03-28T08:48:18.418Z</time></trkpt><trkpt lat="40.9471783" lon="14.3139917"><ele>26.0</ele><time>2026-03-28T08:48:20.415Z</time></trkpt><trkpt lat="40.947165" lon="14.314155"><ele>25.999999999999996</ele><time>2026-03-28T08:48:22.414Z</time></trkpt><trkpt lat="40.9471617" lon="14.3143183"><ele>26.0</ele><time>2026-03-28T08:48:24.416Z</time></trkpt><trkpt lat="40.947155" lon="14.3144083"><ele>26.0</ele><time>2026-03-28T08:48:25.417Z</time></trkpt><trkpt lat="40.9471467" lon="14.3144967"><ele>26.0</ele><time>2026-03-28T08:48:26.415Z</time></trkpt><trkpt lat="40.9471333" lon="14.3145867"><ele>25.999999999999996</ele><time>2026-03-28T08:48:27.415Z</time></trkpt><trkpt lat="40.9471167" lon="14.3146733"><ele>26.0</ele><time>2026-03-28T08:48:28.417Z</time></trkpt><trkpt lat="40.9471083" lon="14.3147617"><ele>25.666666666666664</ele><time>2026-03-28T08:48:29.414Z</time></trkpt><trkpt lat="40.9470817" lon="14.314925"><ele>25.333333333333332</ele><time>2026-03-28T08:48:31.416Z</time></trkpt><trkpt lat="40.9470633" lon="14.315005"><ele>25.0</ele><time>2026-03-28T08:48:32.418Z</time></trkpt><trkpt lat="40.9470317" lon="14.3151667"><ele>24.666666666666664</ele><time>2026-03-28T08:48:34.419Z</time></trkpt><trkpt lat="40.947015" lon="14.31525"><ele>24.333333333333332</ele><time>2026-03-28T08:48:35.418Z</time></trkpt><trkpt lat="40.947" lon="14.3153367"><ele>24.0</ele><time>2026-03-28T08:48:36.415Z</time></trkpt><trkpt lat="40.9469817" lon="14.3154217"><ele>23.999999999999996</ele><time>2026-03-28T08:48:37.419Z</time></trkpt><trkpt lat="40.9469683" lon="14.3155033"><ele>24.0</ele><time>2026-03-28T08:48:38.419Z</time></trkpt><trkpt lat="40.9469533" lon="14.3155883"><ele>24.0</ele><time>2026-03-28T08:48:39.415Z</time></trkpt><trkpt lat="40.946935" lon="14.3156783"><ele>24.0</ele><time>2026-03-28T08:48:40.415Z</time></trkpt><trkpt lat="40.94691" lon="14.3157633"><ele>24.0</ele><time>2026-03-28T08:48:41.418Z</time></trkpt><trkpt lat="40.9468817" lon="14.3158533"><ele>23.999999999999996</ele><time>2026-03-28T08:48:42.415Z</time></trkpt><trkpt lat="40.946855" lon="14.31595"><ele>24.0</ele><time>2026-03-28T08:48:43.418Z</time></trkpt><trkpt lat="40.94683" lon="14.3160417"><ele>23.999999999999996</ele><time>2026-03-28T08:48:44.418Z</time></trkpt><trkpt lat="40.946805" lon="14.3161333"><ele>24.0</ele><time>2026-03-28T08:48:45.417Z</time></trkpt><trkpt lat="40.9467783" lon="14.3162233"><ele>24.0</ele><time>2026-03-28T08:48:46.415Z</time></trkpt><trkpt lat="40.946755" lon="14.3163117"><ele>24.0</ele><time>2026-03-28T08:48:47.416Z</time></trkpt><trkpt lat="40.946735" lon="14.3163967"><ele>24.0</ele><time>2026-03-28T08:48:48.415Z</time></trkpt><trkpt lat="40.9467167" lon="14.3164833"><ele>23.999999999999996</ele><time>2026-03-28T08:48:49.416Z</time></trkpt><trkpt lat="40.9467" lon="14.316575"><ele>24.0</ele><time>2026-03-28T08:48:50.415Z</time></trkpt><trkpt lat="40.9466833" lon="14.3166617"><ele>23.999999999999996</ele><time>2026-03-28T08:48:51.415Z</time></trkpt><trkpt lat="40.9466633" lon="14.3167467"><ele>24.0</ele><time>2026-03-28T08:48:52.417Z</time></trkpt><trkpt lat="40.9466433" lon="14.3168333"><ele>24.0</ele><time>2026-03-28T08:48:53.42Z</time></trkpt><trkpt lat="40.9466217" lon="14.3169217"><ele>24.0</ele><time>2026-03-28T08:48:54.418Z</time></trkpt><trkpt lat="40.9466017" lon="14.3170067"><ele>24.0</ele><time>2026-03-28T08:48:55.418Z</time></trkpt><trkpt lat="40.94658" lon="14.3171"><ele>23.999999999999996</ele><time>2026-03-28T08:48:56.418Z</time></trkpt><trkpt lat="40.946555" lon="14.31719"><ele>24.0</ele><time>2026-03-28T08:48:57.418Z</time></trkpt><trkpt lat="40.9465317" lon="14.3172767"><ele>23.857142857142854</ele><time>2026-03-28T08:48:58.417Z</time></trkpt><trkpt lat="40.9465083" lon="14.3173633"><ele>23.714285714285715</ele><time>2026-03-28T08:48:59.417Z</time></trkpt><trkpt lat="40.9464817" lon="14.3174483"><ele>23.57142857142857</ele><time>2026-03-28T08:49:00.418Z</time></trkpt><trkpt lat="40.946455" lon="14.3175317"><ele>23.428571428571427</ele><time>2026-03-28T08:49:01.418Z</time></trkpt><trkpt lat="40.9464233" lon="14.31761"><ele>23.285714285714285</ele><time>2026-03-28T08:49:02.417Z</time></trkpt><trkpt lat="40.9463933" lon="14.3176867"><ele>23.142857142857142</ele><time>2026-03-28T08:49:03.418Z</time></trkpt><trkpt lat="40.9463617" lon="14.317765"><ele>23.0</ele><time>2026-03-28T08:49:04.419Z</time></trkpt><trkpt lat="40.9463283" lon="14.3178467"><ele>23.0</ele><time>2026-03-28T08:49:05.418Z</time></trkpt><trkpt lat="40.9462983" lon="14.3179317"><ele>23.0</ele><time>2026-03-28T08:49:06.418Z</time></trkpt><trkpt lat="40.946265" lon="14.3180117"><ele>23.0</ele><time>2026-03-28T08:49:07.417Z</time></trkpt><trkpt lat="40.946235" lon="14.3180967"><ele>23.0</ele><time>2026-03-28T08:49:08.417Z</time></trkpt><trkpt lat="40.9462033" lon="14.3181767"><ele>23.0</ele><time>2026-03-28T08:49:09.418Z</time></trkpt><trkpt lat="40.94617" lon="14.3182533"><ele>23.0</ele><time>2026-03-28T08:49:10.418Z</time></trkpt><trkpt lat="40.9461367" lon="14.3183317"><ele>23.0</ele><time>2026-03-28T08:49:11.417Z</time></trkpt><trkpt lat="40.946105" lon="14.318415"><ele>23.0</ele><time>2026-03-28T08:49:12.418Z</time></trkpt><trkpt lat="40.94608" lon="14.3184967"><ele>23.0</ele><time>2026-03-28T08:49:13.418Z</time></trkpt><trkpt lat="40.9460533" lon="14.3185733"><ele>23.0</ele><time>2026-03-28T08:49:14.418Z</time></trkpt><trkpt lat="40.9460283" lon="14.3186567"><ele>23.0</ele><time>2026-03-28T08:49:15.418Z</time></trkpt><trkpt lat="40.9460083" lon="14.3187383"><ele>23.0</ele><time>2026-03-28T08:49:16.415Z</time></trkpt><trkpt lat="40.9459933" lon="14.318825"><ele>23.0</ele><time>2026-03-28T08:49:17.416Z</time></trkpt><trkpt lat="40.945985" lon="14.318915"><ele>23.0</ele><time>2026-03-28T08:49:18.416Z</time></trkpt><trkpt lat="40.9459783" lon="14.3190083"><ele>23.142857142857142</ele><time>2026-03-28T08:49:19.416Z</time></trkpt><trkpt lat="40.9459767" lon="14.3190983"><ele>23.285714285714285</ele><time>2026-03-28T08:49:20.417Z</time></trkpt><trkpt lat="40.9459817" lon="14.31919"><ele>23.428571428571427</ele><time>2026-03-28T08:49:21.416Z</time></trkpt><trkpt lat="40.9459917" lon="14.319275"><ele>23.57142857142857</ele><time>2026-03-28T08:49:22.417Z</time></trkpt><trkpt lat="40.946" lon="14.3193667"><ele>23.714285714285715</ele><time>2026-03-28T08:49:23.419Z</time></trkpt><trkpt lat="40.946005" lon="14.31946"><ele>23.857142857142854</ele><time>2026-03-28T08:49:24.417Z</time></trkpt><trkpt lat="40.9460117" lon="14.3195567"><ele>24.0</ele><time>2026-03-28T08:49:25.419Z</time></trkpt><trkpt lat="40.9460183" lon="14.3196517"><ele>23.999999999999996</ele><time>2026-03-28T08:49:26.418Z</time></trkpt><trkpt lat="40.946025" lon="14.3197517"><ele>24.0</ele><time>2026-03-28T08:49:27.417Z</time></trkpt><trkpt lat="40.9460267" lon="14.3198467"><ele>24.0</ele><time>2026-03-28T08:49:28.418Z</time></trkpt><trkpt lat="40.9460233" lon="14.3199433"><ele>24.0</ele><time>2026-03-28T08:49:29.419Z</time></trkpt><trkpt lat="40.94602" lon="14.3200383"><ele>24.0</ele><time>2026-03-28T08:49:30.419Z</time></trkpt><trkpt lat="40.946015" lon="14.320135"><ele>23.999999999999996</ele><time>2026-03-28T08:49:31.419Z</time></trkpt><trkpt lat="40.9460033" lon="14.3202283"><ele>24.0</ele><time>2026-03-28T08:49:32.417Z</time></trkpt><trkpt lat="40.94599" lon="14.320325"><ele>23.999999999999996</ele><time>2026-03-28T08:49:33.418Z</time></trkpt><trkpt lat="40.9459733" lon="14.32042"><ele>24.0</ele><time>2026-03-28T08:49:34.418Z</time></trkpt><trkpt lat="40.9459567" lon="14.3205133"><ele>24.0</ele><time>2026-03-28T08:49:35.418Z</time></trkpt><trkpt lat="40.9459417" lon="14.3206017"><ele>24.0</ele><time>2026-03-28T08:49:36.418Z</time></trkpt><trkpt lat="40.945925" lon="14.3207"><ele>24.0</ele><time>2026-03-28T08:49:37.418Z</time></trkpt><trkpt lat="40.945905" lon="14.3207917"><ele>23.999999999999996</ele><time>2026-03-28T08:49:38.418Z</time></trkpt><trkpt lat="40.9458867" lon="14.3208817"><ele>24.0</ele><time>2026-03-28T08:49:39.417Z</time></trkpt><trkpt lat="40.94587" lon="14.3209767"><ele>23.999999999999996</ele><time>2026-03-28T08:49:40.419Z</time></trkpt><trkpt lat="40.945855" lon="14.3210717"><ele>24.0</ele><time>2026-03-28T08:49:41.418Z</time></trkpt><trkpt lat="40.9458367" lon="14.3211667"><ele>24.0</ele><time>2026-03-28T08:49:42.419Z</time></trkpt><trkpt lat="40.9458167" lon="14.3212683"><ele>24.0</ele><time>2026-03-28T08:49:43.417Z</time></trkpt><trkpt lat="40.9458" lon="14.3213633"><ele>24.0</ele><time>2026-03-28T08:49:44.418Z</time></trkpt><trkpt lat="40.94578" lon="14.3214567"><ele>23.999999999999996</ele><time>2026-03-28T08:49:45.417Z</time></trkpt><trkpt lat="40.9457617" lon="14.3215517"><ele>24.0</ele><time>2026-03-28T08:49:46.417Z</time></trkpt><trkpt lat="40.945745" lon="14.3216467"><ele>23.999999999999996</ele><time>2026-03-28T08:49:47.418Z</time></trkpt><trkpt lat="40.9457283" lon="14.3217417"><ele>24.0</ele><time>2026-03-28T08:49:48.417Z</time></trkpt><trkpt lat="40.9457117" lon="14.3218367"><ele>24.0</ele><time>2026-03-28T08:49:49.418Z</time></trkpt><trkpt lat="40.9456933" lon="14.3219317"><ele>24.0</ele><time>2026-03-28T08:49:50.418Z</time></trkpt><trkpt lat="40.945675" lon="14.322025"><ele>24.0</ele><time>2026-03-28T08:49:51.417Z</time></trkpt><trkpt lat="40.9456583" lon="14.32212"><ele>23.999999999999996</ele><time>2026-03-28T08:49:52.418Z</time></trkpt><trkpt lat="40.9456433" lon="14.3222133"><ele>24.0</ele><time>2026-03-28T08:49:53.418Z</time></trkpt><trkpt lat="40.94563" lon="14.32231"><ele>23.999999999999996</ele><time>2026-03-28T08:49:54.417Z</time></trkpt><trkpt lat="40.9456133" lon="14.32241"><ele>24.0</ele><time>2026-03-28T08:49:55.417Z</time></trkpt><trkpt lat="40.9455967" lon="14.3225033"><ele>24.0</ele><time>2026-03-28T08:49:56.417Z</time></trkpt><trkpt lat="40.94558" lon="14.3225967"><ele>24.0</ele><time>2026-03-28T08:49:57.418Z</time></trkpt><trkpt lat="40.945565" lon="14.3226933"><ele>24.0</ele><time>2026-03-28T08:49:58.418Z</time></trkpt><trkpt lat="40.9455517" lon="14.3227833"><ele>23.999999999999996</ele><time>2026-03-28T08:49:59.417Z</time></trkpt><trkpt lat="40.94554" lon="14.32288"><ele>24.0</ele><time>2026-03-28T08:50:00.417Z</time></trkpt><trkpt lat="40.9455283" lon="14.322985"><ele>24.142857142857142</ele><time>2026-03-28T08:50:01.417Z</time></trkpt><trkpt lat="40.945515" lon="14.32308"><ele>24.285714285714285</ele><time>2026-03-28T08:50:02.418Z</time></trkpt><trkpt lat="40.945505" lon="14.323175"><ele>24.42857142857143</ele><time>2026-03-28T08:50:03.418Z</time></trkpt><trkpt lat="40.9454933" lon="14.32327"><ele>24.57142857142857</ele><time>2026-03-28T08:50:04.418Z</time></trkpt><trkpt lat="40.94548" lon="14.3233633"><ele>24.714285714285715</ele><time>2026-03-28T08:50:05.418Z</time></trkpt><trkpt lat="40.9454667" lon="14.3234617"><ele>24.857142857142858</ele><time>2026-03-28T08:50:06.417Z</time></trkpt><trkpt lat="40.9454533" lon="14.3235567"><ele>25.0</ele><time>2026-03-28T08:50:07.418Z</time></trkpt><trkpt lat="40.94544" lon="14.32365"><ele>25.000000000000004</ele><time>2026-03-28T08:50:08.417Z</time></trkpt><trkpt lat="40.9454267" lon="14.323745"><ele>25.0</ele><time>2026-03-28T08:50:09.418Z</time></trkpt><trkpt lat="40.9454133" lon="14.3238417"><ele>25.0</ele><time>2026-03-28T08:50:10.418Z</time></trkpt><trkpt lat="40.9453983" lon="14.3239367"><ele>25.0</ele><time>2026-03-28T08:50:11.417Z</time></trkpt><trkpt lat="40.9453783" lon="14.32403"><ele>25.0</ele><time>2026-03-28T08:50:12.418Z</time></trkpt><trkpt lat="40.9453567" lon="14.324125"><ele>25.000000000000004</ele><time>2026-03-28T08:50:13.418Z</time></trkpt><trkpt lat="40.945335" lon="14.32422"><ele>25.0</ele><time>2026-03-28T08:50:14.417Z</time></trkpt><trkpt lat="40.9453083" lon="14.32431"><ele>24.833333333333336</ele><time>2026-03-28T08:50:15.418Z</time></trkpt><trkpt lat="40.9452817" lon="14.3243933"><ele>24.666666666666668</ele><time>2026-03-28T08:50:16.418Z</time></trkpt><trkpt lat="40.94525" lon="14.3244733"><ele>24.5</ele><time>2026-03-28T08:50:17.416Z</time></trkpt><trkpt lat="40.9452183" lon="14.3245483"><ele>24.333333333333336</ele><time>2026-03-28T08:50:18.417Z</time></trkpt><trkpt lat="40.9451833" lon="14.32462"><ele>24.166666666666668</ele><time>2026-03-28T08:50:19.418Z</time></trkpt><trkpt lat="40.9451117" lon="14.3247533"><ele>24.0</ele><time>2026-03-28T08:50:21.417Z</time></trkpt><trkpt lat="40.94504" lon="14.3248817"><ele>24.0</ele><time>2026-03-28T08:50:23.419Z</time></trkpt><trkpt lat="40.944965" lon="14.3250033"><ele>24.0</ele><time>2026-03-28T08:50:25.419Z</time></trkpt><trkpt lat="40.9448983" lon="14.32512"><ele>24.0</ele><time>2026-03-28T08:50:27.417Z</time></trkpt><trkpt lat="40.944835" lon="14.3252283"><ele>24.0</ele><time>2026-03-28T08:50:29.418Z</time></trkpt><trkpt lat="40.9447883" lon="14.3253483"><ele>24.0</ele><time>2026-03-28T08:50:31.418Z</time></trkpt><trkpt lat="40.9447483" lon="14.3254783"><ele>24.0</ele><time>2026-03-28T08:50:33.418Z</time></trkpt><trkpt lat="40.9447283" lon="14.325625"><ele>24.0</ele><time>2026-03-28T08:50:35.418Z</time></trkpt><trkpt lat="40.9447183" lon="14.3257767"><ele>24.0</ele><time>2026-03-28T08:50:37.418Z</time></trkpt><trkpt lat="40.9447083" lon="14.3259333"><ele>24.0</ele><time>2026-03-28T08:50:39.416Z</time></trkpt><trkpt lat="40.9446933" lon="14.3260883"><ele>24.0</ele><time>2026-03-28T08:50:41.415Z</time></trkpt><trkpt lat="40.944685" lon="14.326245"><ele>24.0</ele><time>2026-03-28T08:50:43.418Z</time></trkpt><trkpt lat="40.9446733" lon="14.3264033"><ele>24.0</ele><time>2026-03-28T08:50:45.418Z</time></trkpt><trkpt lat="40.9446483" lon="14.3265633"><ele>24.0</ele><time>2026-03-28T08:50:47.42Z</time></trkpt><trkpt lat="40.9446367" lon="14.3266483"><ele>24.0</ele><time>2026-03-28T08:50:48.417Z</time></trkpt><trkpt lat="40.9446217" lon="14.326735"><ele>23.833333333333332</ele><time>2026-03-28T08:50:49.419Z</time></trkpt><trkpt lat="40.944605" lon="14.326825"><ele>23.666666666666668</ele><time>2026-03-28T08:50:50.418Z</time></trkpt><trkpt lat="40.9445867" lon="14.3269183"><ele>23.5</ele><time>2026-03-28T08:50:51.418Z</time></trkpt><trkpt lat="40.9445683" lon="14.3270183"><ele>23.333333333333336</ele><time>2026-03-28T08:50:52.418Z</time></trkpt><trkpt lat="40.9445467" lon="14.3271267"><ele>23.166666666666668</ele><time>2026-03-28T08:50:53.418Z</time></trkpt><trkpt lat="40.9445217" lon="14.32723"><ele>23.0</ele><time>2026-03-28T08:50:54.418Z</time></trkpt><trkpt lat="40.9444983" lon="14.3273367"><ele>22.799999999999997</ele><time>2026-03-28T08:50:55.418Z</time></trkpt><trkpt lat="40.9444767" lon="14.3274483"><ele>22.6</ele><time>2026-03-28T08:50:56.417Z</time></trkpt><trkpt lat="40.94446" lon="14.327565"><ele>22.4</ele><time>2026-03-28T08:50:57.417Z</time></trkpt><trkpt lat="40.9444467" lon="14.327685"><ele>22.200000000000003</ele><time>2026-03-28T08:50:58.418Z</time></trkpt><trkpt lat="40.9444367" lon="14.3278033"><ele>22.0</ele><time>2026-03-28T08:50:59.418Z</time></trkpt><trkpt lat="40.9444333" lon="14.32793"><ele>22.0</ele><time>2026-03-28T08:51:00.417Z</time></trkpt><trkpt lat="40.94443" lon="14.3280567"><ele>22.0</ele><time>2026-03-28T08:51:01.417Z</time></trkpt><trkpt lat="40.9444267" lon="14.3281817"><ele>22.0</ele><time>2026-03-28T08:51:02.418Z</time></trkpt><trkpt lat="40.9444233" lon="14.3283067"><ele>22.0</ele><time>2026-03-28T08:51:03.418Z</time></trkpt><trkpt lat="40.9444217" lon="14.3284333"><ele>22.0</ele><time>2026-03-28T08:51:04.416Z</time></trkpt><trkpt lat="40.9444183" lon="14.328555"><ele>22.0</ele><time>2026-03-28T08:51:05.419Z</time></trkpt><trkpt lat="40.9444117" lon="14.328675"><ele>22.0</ele><time>2026-03-28T08:51:06.418Z</time></trkpt><trkpt lat="40.9444083" lon="14.3287933"><ele>22.0</ele><time>2026-03-28T08:51:07.419Z</time></trkpt><trkpt lat="40.9444067" lon="14.32891"><ele>22.0</ele><time>2026-03-28T08:51:08.417Z</time></trkpt><trkpt lat="40.9444033" lon="14.32903"><ele>22.0</ele><time>2026-03-28T08:51:09.417Z</time></trkpt><trkpt lat="40.9444" lon="14.329145"><ele>22.0</ele><time>2026-03-28T08:51:10.416Z</time></trkpt><trkpt lat="40.944395" lon="14.3292583"><ele>21.833333333333332</ele><time>2026-03-28T08:51:11.416Z</time></trkpt><trkpt lat="40.9443867" lon="14.3293683"><ele>21.666666666666664</ele><time>2026-03-28T08:51:12.417Z</time></trkpt><trkpt lat="40.9443767" lon="14.329475"><ele>21.5</ele><time>2026-03-28T08:51:13.419Z</time></trkpt><trkpt lat="40.9443667" lon="14.32958"><ele>21.333333333333332</ele><time>2026-03-28T08:51:14.419Z</time></trkpt><trkpt lat="40.944355" lon="14.3296833"><ele>21.166666666666668</ele><time>2026-03-28T08:51:15.418Z</time></trkpt><trkpt lat="40.944345" lon="14.3297833"><ele>21.0</ele><time>2026-03-28T08:51:16.418Z</time></trkpt><trkpt lat="40.9443317" lon="14.3298817"><ele>21.0</ele><time>2026-03-28T08:51:17.416Z</time></trkpt><trkpt lat="40.9443167" lon="14.3299817"><ele>21.0</ele><time>2026-03-28T08:51:18.415Z</time></trkpt><trkpt lat="40.9443033" lon="14.3300783"><ele>21.0</ele><time>2026-03-28T08:51:19.416Z</time></trkpt><trkpt lat="40.94429" lon="14.330175"><ele>21.0</ele><time>2026-03-28T08:51:20.416Z</time></trkpt><trkpt lat="40.944275" lon="14.3302717"><ele>21.0</ele><time>2026-03-28T08:51:21.414Z</time></trkpt><trkpt lat="40.9442617" lon="14.3303667"><ele>21.0</ele><time>2026-03-28T08:51:22.416Z</time></trkpt><trkpt lat="40.9442467" lon="14.3304667"><ele>21.166666666666668</ele><time>2026-03-28T08:51:23.416Z</time></trkpt><trkpt lat="40.94423" lon="14.3305667"><ele>21.333333333333332</ele><time>2026-03-28T08:51:24.417Z</time></trkpt><trkpt lat="40.94421" lon="14.330665"><ele>21.5</ele><time>2026-03-28T08:51:25.416Z</time></trkpt><trkpt lat="40.9441883" lon="14.3307633"><ele>21.666666666666664</ele><time>2026-03-28T08:51:26.416Z</time></trkpt><trkpt lat="40.94416" lon="14.33086"><ele>21.833333333333332</ele><time>2026-03-28T08:51:27.415Z</time></trkpt><trkpt lat="40.944125" lon="14.3309483"><ele>22.0</ele><time>2026-03-28T08:51:28.417Z</time></trkpt><trkpt lat="40.9440817" lon="14.331035"><ele>22.142857142857142</ele><time>2026-03-28T08:51:29.418Z</time></trkpt><trkpt lat="40.9440333" lon="14.3311133"><ele>22.285714285714285</ele><time>2026-03-28T08:51:30.417Z</time></trkpt><trkpt lat="40.9439833" lon="14.331185"><ele>22.42857142857143</ele><time>2026-03-28T08:51:31.418Z</time></trkpt><trkpt lat="40.9439317" lon="14.33125"><ele>22.57142857142857</ele><time>2026-03-28T08:51:32.418Z</time></trkpt><trkpt lat="40.9438817" lon="14.33131"><ele>22.71428571428571</ele><time>2026-03-28T08:51:33.418Z</time></trkpt><trkpt lat="40.94383" lon="14.331365"><ele>22.857142857142858</ele><time>2026-03-28T08:51:34.416Z</time></trkpt><trkpt lat="40.9437767" lon="14.3314167"><ele>23.0</ele><time>2026-03-28T08:51:35.419Z</time></trkpt><trkpt lat="40.9437233" lon="14.3314633"><ele>23.0</ele><time>2026-03-28T08:51:36.416Z</time></trkpt><trkpt lat="40.9436217" lon="14.331505"><ele>23.0</ele><time>2026-03-28T08:51:38.415Z</time></trkpt><trkpt lat="40.9435083" lon="14.3314883"><ele>23.0</ele><time>2026-03-28T08:51:40.414Z</time></trkpt><trkpt lat="40.9433933" lon="14.331485"><ele>23.0</ele><time>2026-03-28T08:51:42.417Z</time></trkpt><trkpt lat="40.94328" lon="14.33152"><ele>23.2</ele><time>2026-03-28T08:51:44.415Z</time></trkpt><trkpt lat="40.9431717" lon="14.3315967"><ele>23.4</ele><time>2026-03-28T08:51:46.418Z</time></trkpt><trkpt lat="40.9431183" lon="14.3316533"><ele>23.599999999999998</ele><time>2026-03-28T08:51:47.416Z</time></trkpt><trkpt lat="40.94308" lon="14.3317233"><ele>23.799999999999997</ele><time>2026-03-28T08:51:48.415Z</time></trkpt><trkpt lat="40.94306" lon="14.331805"><ele>24.0</ele><time>2026-03-28T08:51:49.414Z</time></trkpt><trkpt lat="40.943065" lon="14.33198"><ele>23.999999999999996</ele><time>2026-03-28T08:51:51.415Z</time></trkpt><trkpt lat="40.9430867" lon="14.3320667"><ele>24.0</ele><time>2026-03-28T08:51:52.417Z</time></trkpt><trkpt lat="40.9431267" lon="14.332145"><ele>24.0</ele><time>2026-03-28T08:51:53.417Z</time></trkpt><trkpt lat="40.943175" lon="14.3322133"><ele>24.0</ele><time>2026-03-28T08:51:54.415Z</time></trkpt><trkpt lat="40.943235" lon="14.3322667"><ele>24.0</ele><time>2026-03-28T08:51:55.417Z</time></trkpt><trkpt lat="40.9432983" lon="14.3323033"><ele>23.999999999999996</ele><time>2026-03-28T08:51:56.414Z</time></trkpt><trkpt lat="40.9433633" lon="14.3323183"><ele>24.0</ele><time>2026-03-28T08:51:57.416Z</time></trkpt><trkpt lat="40.9434333" lon="14.3323133"><ele>23.857142857142854</ele><time>2026-03-28T08:51:58.419Z</time></trkpt><trkpt lat="40.9435017" lon="14.3322867"><ele>23.714285714285715</ele><time>2026-03-28T08:51:59.418Z</time></trkpt><trkpt lat="40.9435667" lon="14.3322433"><ele>23.57142857142857</ele><time>2026-03-28T08:52:00.414Z</time></trkpt><trkpt lat="40.9436267" lon="14.3321883"><ele>23.428571428571427</ele><time>2026-03-28T08:52:01.416Z</time></trkpt><trkpt lat="40.94368" lon="14.3321233"><ele>23.285714285714285</ele><time>2026-03-28T08:52:02.417Z</time></trkpt><trkpt lat="40.9437367" lon="14.3320633"><ele>23.142857142857142</ele><time>2026-03-28T08:52:03.417Z</time></trkpt><trkpt lat="40.9438" lon="14.3320167"><ele>23.0</ele><time>2026-03-28T08:52:04.418Z</time></trkpt><trkpt lat="40.9438683" lon="14.3319883"><ele>23.0</ele><time>2026-03-28T08:52:05.418Z</time></trkpt><trkpt lat="40.9439383" lon="14.3319783"><ele>23.0</ele><time>2026-03-28T08:52:06.417Z</time></trkpt><trkpt lat="40.94401" lon="14.3319867"><ele>23.0</ele><time>2026-03-28T08:52:07.418Z</time></trkpt><trkpt lat="40.9440817" lon="14.3320067"><ele>23.0</ele><time>2026-03-28T08:52:08.417Z</time></trkpt><trkpt lat="40.94415" lon="14.3320367"><ele>23.0</ele><time>2026-03-28T08:52:09.415Z</time></trkpt><trkpt lat="40.9442117" lon="14.3320867"><ele>23.0</ele><time>2026-03-28T08:52:10.414Z</time></trkpt><trkpt lat="40.94428" lon="14.3321483"><ele>23.0</ele><time>2026-03-28T08:52:11.417Z</time></trkpt><trkpt lat="40.944345" lon="14.33222"><ele>22.833333333333336</ele><time>2026-03-28T08:52:12.415Z</time></trkpt><trkpt lat="40.94441" lon="14.332295"><ele>22.666666666666668</ele><time>2026-03-28T08:52:13.415Z</time></trkpt><trkpt lat="40.94447" lon="14.3323717"><ele>22.5</ele><time>2026-03-28T08:52:14.416Z</time></trkpt><trkpt lat="40.9445267" lon="14.332445"><ele>22.333333333333332</ele><time>2026-03-28T08:52:15.414Z</time></trkpt><trkpt lat="40.944585" lon="14.33252"><ele>22.166666666666664</ele><time>2026-03-28T08:52:16.42Z</time></trkpt><trkpt lat="40.944645" lon="14.332585"><ele>22.0</ele><time>2026-03-28T08:52:17.415Z</time></trkpt><trkpt lat="40.944705" lon="14.3326483"><ele>22.0</ele><time>2026-03-28T08:52:18.415Z</time></trkpt><trkpt lat="40.9447617" lon="14.3327167"><ele>22.0</ele><time>2026-03-28T08:52:19.415Z</time></trkpt><trkpt lat="40.9448167" lon="14.332785"><ele>22.0</ele><time>2026-03-28T08:52:20.417Z</time></trkpt><trkpt lat="40.9448717" lon="14.3328517"><ele>22.0</ele><time>2026-03-28T08:52:21.416Z</time></trkpt><trkpt lat="40.94493" lon="14.3329183"><ele>22.0</ele><time>2026-03-28T08:52:22.415Z</time></trkpt><trkpt lat="40.94499" lon="14.3329867"><ele>22.0</ele><time>2026-03-28T08:52:23.417Z</time></trkpt><trkpt lat="40.9450483" lon="14.3330533"><ele>21.833333333333332</ele><time>2026-03-28T08:52:24.416Z</time></trkpt><trkpt lat="40.9451067" lon="14.333125"><ele>21.666666666666664</ele><time>2026-03-28T08:52:25.415Z</time></trkpt><trkpt lat="40.9451667" lon="14.3331967"><ele>21.5</ele><time>2026-03-28T08:52:26.415Z</time></trkpt><trkpt lat="40.945225" lon="14.3332633"><ele>21.333333333333332</ele><time>2026-03-28T08:52:27.416Z</time></trkpt><trkpt lat="40.94528" lon="14.3333367"><ele>21.166666666666668</ele><time>2026-03-28T08:52:28.417Z</time></trkpt><trkpt lat="40.9453367" lon="14.3334083"><ele>21.0</ele><time>2026-03-28T08:52:29.416Z</time></trkpt><trkpt lat="40.9453933" lon="14.333485"><ele>21.0</ele><time>2026-03-28T08:52:30.418Z</time></trkpt><trkpt lat="40.945445" lon="14.3335617"><ele>21.0</ele><time>2026-03-28T08:52:31.418Z</time></trkpt><trkpt lat="40.9455" lon="14.3336417"><ele>21.0</ele><time>2026-03-28T08:52:32.418Z</time></trkpt><trkpt lat="40.9455567" lon="14.33372"><ele>21.0</ele><time>2026-03-28T08:52:33.417Z</time></trkpt><trkpt lat="40.9456133" lon="14.3337983"><ele>21.0</ele><time>2026-03-28T08:52:34.418Z</time></trkpt><trkpt lat="40.9456667" lon="14.3338717"><ele>21.0</ele><time>2026-03-28T08:52:35.418Z</time></trkpt><trkpt lat="40.94572" lon="14.3339417"><ele>21.0</ele><time>2026-03-28T08:52:36.416Z</time></trkpt><trkpt lat="40.945775" lon="14.3340133"><ele>21.0</ele><time>2026-03-28T08:52:37.418Z</time></trkpt><trkpt lat="40.9458283" lon="14.3340817"><ele>21.0</ele><time>2026-03-28T08:52:38.417Z</time></trkpt><trkpt lat="40.945885" lon="14.334155"><ele>21.0</ele><time>2026-03-28T08:52:39.416Z</time></trkpt><trkpt lat="40.94594" lon="14.3342233"><ele>21.0</ele><time>2026-03-28T08:52:40.418Z</time></trkpt><trkpt lat="40.9459983" lon="14.3342867"><ele>21.0</ele><time>2026-03-28T08:52:41.418Z</time></trkpt><trkpt lat="40.9460617" lon="14.33435"><ele>21.0</ele><time>2026-03-28T08:52:42.417Z</time></trkpt><trkpt lat="40.946125" lon="14.33442"><ele>21.0</ele><time>2026-03-28T08:52:43.418Z</time></trkpt><trkpt lat="40.9461867" lon="14.3344867"><ele>21.0</ele><time>2026-03-28T08:52:44.416Z</time></trkpt><trkpt lat="40.9462467" lon="14.334555"><ele>21.0</ele><time>2026-03-28T08:52:45.414Z</time></trkpt><trkpt lat="40.946305" lon="14.3346217"><ele>21.0</ele><time>2026-03-28T08:52:46.416Z</time></trkpt><trkpt lat="40.9463667" lon="14.3346817"><ele>21.0</ele><time>2026-03-28T08:52:47.414Z</time></trkpt><trkpt lat="40.9464283" lon="14.33474"><ele>20.833333333333332</ele><time>2026-03-28T08:52:48.416Z</time></trkpt><trkpt lat="40.94649" lon="14.3347983"><ele>20.666666666666668</ele><time>2026-03-28T08:52:49.417Z</time></trkpt><trkpt lat="40.9465517" lon="14.3348517"><ele>20.5</ele><time>2026-03-28T08:52:50.415Z</time></trkpt><trkpt lat="40.9466167" lon="14.3349067"><ele>20.333333333333336</ele><time>2026-03-28T08:52:51.416Z</time></trkpt><trkpt lat="40.94668" lon="14.3349617"><ele>20.166666666666668</ele><time>2026-03-28T08:52:52.416Z</time></trkpt><trkpt lat="40.946745" lon="14.3350217"><ele>20.0</ele><time>2026-03-28T08:52:53.416Z</time></trkpt><trkpt lat="40.9468083" lon="14.3350833"><ele>20.333333333333336</ele><time>2026-03-28T08:52:54.415Z</time></trkpt><trkpt lat="40.9468683" lon="14.3351467"><ele>20.666666666666668</ele><time>2026-03-28T08:52:55.414Z</time></trkpt><trkpt lat="40.9469267" lon="14.33521"><ele>21.0</ele><time>2026-03-28T08:52:56.416Z</time></trkpt><trkpt lat="40.9469867" lon="14.3352733"><ele>21.333333333333332</ele><time>2026-03-28T08:52:57.415Z</time></trkpt><trkpt lat="40.9470467" lon="14.3353367"><ele>21.666666666666664</ele><time>2026-03-28T08:52:58.415Z</time></trkpt><trkpt lat="40.9471067" lon="14.3354"><ele>22.0</ele><time>2026-03-28T08:52:59.417Z</time></trkpt><trkpt lat="40.9471667" lon="14.335465"><ele>22.0</ele><time>2026-03-28T08:53:00.416Z</time></trkpt><trkpt lat="40.9472267" lon="14.33553"><ele>22.0</ele><time>2026-03-28T08:53:01.417Z</time></trkpt><trkpt lat="40.9472867" lon="14.3355967"><ele>22.0</ele><time>2026-03-28T08:53:02.417Z</time></trkpt><trkpt lat="40.947345" lon="14.3356617"><ele>22.0</ele><time>2026-03-28T08:53:03.415Z</time></trkpt><trkpt lat="40.9474033" lon="14.3357267"><ele>22.0</ele><time>2026-03-28T08:53:04.418Z</time></trkpt><trkpt lat="40.9474633" lon="14.3357917"><ele>22.0</ele><time>2026-03-28T08:53:05.418Z</time></trkpt><trkpt lat="40.9475233" lon="14.3358567"><ele>22.166666666666664</ele><time>2026-03-28T08:53:06.415Z</time></trkpt><trkpt lat="40.947585" lon="14.335925"><ele>22.333333333333332</ele><time>2026-03-28T08:53:07.415Z</time></trkpt><trkpt lat="40.9476467" lon="14.3359917"><ele>22.5</ele><time>2026-03-28T08:53:08.415Z</time></trkpt><trkpt lat="40.9477067" lon="14.3360567"><ele>22.666666666666668</ele><time>2026-03-28T08:53:09.418Z</time></trkpt><trkpt lat="40.9477683" lon="14.3361233"><ele>22.833333333333336</ele><time>2026-03-28T08:53:10.416Z</time></trkpt><trkpt lat="40.9478283" lon="14.336185"><ele>23.0</ele><time>2026-03-28T08:53:11.417Z</time></trkpt><trkpt lat="40.94789" lon="14.336245"><ele>23.0</ele><time>2026-03-28T08:53:12.419Z</time></trkpt><trkpt lat="40.9479517" lon="14.3363083"><ele>23.0</ele><time>2026-03-28T08:53:13.416Z</time></trkpt><trkpt lat="40.94801" lon="14.3363767"><ele>23.0</ele><time>2026-03-28T08:53:14.418Z</time></trkpt><trkpt lat="40.9480683" lon="14.3364467"><ele>23.0</ele><time>2026-03-28T08:53:15.418Z</time></trkpt><trkpt lat="40.9481217" lon="14.3365167"><ele>23.0</ele><time>2026-03-28T08:53:16.415Z</time></trkpt><trkpt lat="40.948175" lon="14.33659"><ele>23.0</ele><time>2026-03-28T08:53:17.415Z</time></trkpt><trkpt lat="40.948225" lon="14.3366683"><ele>23.0</ele><time>2026-03-28T08:53:18.415Z</time></trkpt><trkpt lat="40.9482717" lon="14.33675"><ele>23.0</ele><time>2026-03-28T08:53:19.415Z</time></trkpt><trkpt lat="40.9483183" lon="14.336835"><ele>23.0</ele><time>2026-03-28T08:53:20.415Z</time></trkpt><trkpt lat="40.948365" lon="14.3369167"><ele>23.0</ele><time>2026-03-28T08:53:21.415Z</time></trkpt><trkpt lat="40.94841" lon="14.3369983"><ele>23.0</ele><time>2026-03-28T08:53:22.416Z</time></trkpt><trkpt lat="40.9484533" lon="14.3370833"><ele>23.0</ele><time>2026-03-28T08:53:23.419Z</time></trkpt><trkpt lat="40.9484983" lon="14.3371667"><ele>23.0</ele><time>2026-03-28T08:53:24.418Z</time></trkpt><trkpt lat="40.948545" lon="14.33725"><ele>23.0</ele><time>2026-03-28T08:53:25.416Z</time></trkpt><trkpt lat="40.9485933" lon="14.337335"><ele>23.0</ele><time>2026-03-28T08:53:26.417Z</time></trkpt><trkpt lat="40.9486433" lon="14.337415"><ele>23.0</ele><time>2026-03-28T08:53:27.415Z</time></trkpt><trkpt lat="40.9486983" lon="14.3374883"><ele>23.0</ele><time>2026-03-28T08:53:28.415Z</time></trkpt><trkpt lat="40.9487567" lon="14.3375567"><ele>23.0</ele><time>2026-03-28T08:53:29.418Z</time></trkpt><trkpt lat="40.9488217" lon="14.3376183"><ele>23.0</ele><time>2026-03-28T08:53:30.416Z</time></trkpt><trkpt lat="40.9488883" lon="14.3376733"><ele>23.0</ele><time>2026-03-28T08:53:31.415Z</time></trkpt><trkpt lat="40.94896" lon="14.3377233"><ele>23.0</ele><time>2026-03-28T08:53:32.414Z</time></trkpt><trkpt lat="40.9490317" lon="14.3377667"><ele>23.0</ele><time>2026-03-28T08:53:33.414Z</time></trkpt><trkpt lat="40.949105" lon="14.337805"><ele>23.0</ele><time>2026-03-28T08:53:34.414Z</time></trkpt><trkpt lat="40.94918" lon="14.337835"><ele>23.0</ele><time>2026-03-28T08:53:35.416Z</time></trkpt><trkpt lat="40.949255" lon="14.33786"><ele>22.666666666666668</ele><time>2026-03-28T08:53:36.415Z</time></trkpt><trkpt lat="40.94933" lon="14.3378817"><ele>22.333333333333336</ele><time>2026-03-28T08:53:37.415Z</time></trkpt><trkpt lat="40.9494083" lon="14.3379033"><ele>22.0</ele><time>2026-03-28T08:53:38.416Z</time></trkpt><trkpt lat="40.9494867" lon="14.3379167"><ele>21.666666666666668</ele><time>2026-03-28T08:53:39.415Z</time></trkpt><trkpt lat="40.9495667" lon="14.3379233"><ele>21.333333333333332</ele><time>2026-03-28T08:53:40.416Z</time></trkpt><trkpt lat="40.9496483" lon="14.3379267"><ele>21.0</ele><time>2026-03-28T08:53:41.417Z</time></trkpt><trkpt lat="40.949725" lon="14.337925"><ele>21.0</ele><time>2026-03-28T08:53:42.416Z</time></trkpt><trkpt lat="40.9498033" lon="14.337925"><ele>21.0</ele><time>2026-03-28T08:53:43.416Z</time></trkpt><trkpt lat="40.94988" lon="14.337925"><ele>21.0</ele><time>2026-03-28T08:53:44.415Z</time></trkpt><trkpt lat="40.9499583" lon="14.3379133"><ele>21.0</ele><time>2026-03-28T08:53:45.417Z</time></trkpt><trkpt lat="40.950035" lon="14.3378967"><ele>21.0</ele><time>2026-03-28T08:53:46.417Z</time></trkpt><trkpt lat="40.95011" lon="14.337875"><ele>21.0</ele><time>2026-03-28T08:53:47.417Z</time></trkpt><trkpt lat="40.950185" lon="14.3378483"><ele>21.0</ele><time>2026-03-28T08:53:48.415Z</time></trkpt><trkpt lat="40.95026" lon="14.337815"><ele>21.0</ele><time>2026-03-28T08:53:49.416Z</time></trkpt><trkpt lat="40.9503317" lon="14.337785"><ele>21.0</ele><time>2026-03-28T08:53:50.415Z</time></trkpt><trkpt lat="40.9504067" lon="14.3377567"><ele>21.0</ele><time>2026-03-28T08:53:51.415Z</time></trkpt><trkpt lat="40.95048" lon="14.33773"><ele>21.0</ele><time>2026-03-28T08:53:52.415Z</time></trkpt><trkpt lat="40.9505533" lon="14.337705"><ele>21.0</ele><time>2026-03-28T08:53:53.418Z</time></trkpt><trkpt lat="40.9506283" lon="14.3376833"><ele>21.0</ele><time>2026-03-28T08:53:54.418Z</time></trkpt><trkpt lat="40.9507017" lon="14.33766"><ele>21.0</ele><time>2026-03-28T08:53:55.418Z</time></trkpt><trkpt lat="40.9507783" lon="14.337645"><ele>21.0</ele><time>2026-03-28T08:53:56.417Z</time></trkpt><trkpt lat="40.9508583" lon="14.3376367"><ele>21.0</ele><time>2026-03-28T08:53:57.414Z</time></trkpt><trkpt lat="40.9509367" lon="14.3376333"><ele>21.0</ele><time>2026-03-28T08:53:58.416Z</time></trkpt><trkpt lat="40.951015" lon="14.3376367"><ele>21.0</ele><time>2026-03-28T08:53:59.417Z</time></trkpt><trkpt lat="40.951095" lon="14.3376433"><ele>21.0</ele><time>2026-03-28T08:54:00.415Z</time></trkpt><trkpt lat="40.9511767" lon="14.3376583"><ele>21.0</ele><time>2026-03-28T08:54:01.416Z</time></trkpt><trkpt lat="40.9512567" lon="14.3376767"><ele>21.0</ele><time>2026-03-28T08:54:02.417Z</time></trkpt><trkpt lat="40.9513383" lon="14.3376983"><ele>21.0</ele><time>2026-03-28T08:54:03.416Z</time></trkpt><trkpt lat="40.951415" lon="14.3377283"><ele>21.0</ele><time>2026-03-28T08:54:04.418Z</time></trkpt><trkpt lat="40.9514967" lon="14.3377583"><ele>21.0</ele><time>2026-03-28T08:54:05.416Z</time></trkpt><trkpt lat="40.9515733" lon="14.3377867"><ele>21.0</ele><time>2026-03-28T08:54:06.415Z</time></trkpt><trkpt lat="40.9516533" lon="14.3378133"><ele>21.0</ele><time>2026-03-28T08:54:07.415Z</time></trkpt><trkpt lat="40.951735" lon="14.33784"><ele>21.0</ele><time>2026-03-28T08:54:08.415Z</time></trkpt><trkpt lat="40.951815" lon="14.337865"><ele>21.0</ele><time>2026-03-28T08:54:09.416Z</time></trkpt><trkpt lat="40.951895" lon="14.3378833"><ele>21.0</ele><time>2026-03-28T08:54:10.417Z</time></trkpt><trkpt lat="40.9519767" lon="14.3378967"><ele>21.0</ele><time>2026-03-28T08:54:11.416Z</time></trkpt><trkpt lat="40.952055" lon="14.3379083"><ele>21.0</ele><time>2026-03-28T08:54:12.415Z</time></trkpt><trkpt lat="40.9521333" lon="14.3379217"><ele>21.0</ele><time>2026-03-28T08:54:13.417Z</time></trkpt><trkpt lat="40.95221" lon="14.3379333"><ele>21.0</ele><time>2026-03-28T08:54:14.416Z</time></trkpt><trkpt lat="40.9522833" lon="14.3379433"><ele>21.0</ele><time>2026-03-28T08:54:15.418Z</time></trkpt><trkpt lat="40.9523583" lon="14.3379517"><ele>21.0</ele><time>2026-03-28T08:54:16.418Z</time></trkpt><trkpt lat="40.9524333" lon="14.3379583"><ele>21.0</ele><time>2026-03-28T08:54:17.415Z</time></trkpt><trkpt lat="40.95251" lon="14.3379667"><ele>21.166666666666668</ele><time>2026-03-28T08:54:18.415Z</time></trkpt><trkpt lat="40.9525867" lon="14.3379733"><ele>21.333333333333332</ele><time>2026-03-28T08:54:19.417Z</time></trkpt><trkpt lat="40.9526633" lon="14.3379833"><ele>21.5</ele><time>2026-03-28T08:54:20.416Z</time></trkpt><trkpt lat="40.9527417" lon="14.33799"><ele>21.666666666666664</ele><time>2026-03-28T08:54:21.415Z</time></trkpt><trkpt lat="40.95282" lon="14.3379967"><ele>21.833333333333332</ele><time>2026-03-28T08:54:22.415Z</time></trkpt><trkpt lat="40.9528983" lon="14.3379983"><ele>22.0</ele><time>2026-03-28T08:54:23.418Z</time></trkpt><trkpt lat="40.9529783" lon="14.3379967"><ele>22.0</ele><time>2026-03-28T08:54:24.415Z</time></trkpt><trkpt lat="40.9530567" lon="14.33799"><ele>22.0</ele><time>2026-03-28T08:54:25.415Z</time></trkpt><trkpt lat="40.9531367" lon="14.3379767"><ele>22.0</ele><time>2026-03-28T08:54:26.414Z</time></trkpt><trkpt lat="40.9532183" lon="14.33796"><ele>22.0</ele><time>2026-03-28T08:54:27.415Z</time></trkpt><trkpt lat="40.9533" lon="14.33794"><ele>22.0</ele><time>2026-03-28T08:54:28.416Z</time></trkpt><trkpt lat="40.95338" lon="14.337915"><ele>22.0</ele><time>2026-03-28T08:54:29.416Z</time></trkpt><trkpt lat="40.9534583" lon="14.3378833"><ele>22.166666666666664</ele><time>2026-03-28T08:54:30.416Z</time></trkpt><trkpt lat="40.9535367" lon="14.3378483"><ele>22.333333333333332</ele><time>2026-03-28T08:54:31.417Z</time></trkpt><trkpt lat="40.9536133" lon="14.3378133"><ele>22.5</ele><time>2026-03-28T08:54:32.414Z</time></trkpt><trkpt lat="40.953685" lon="14.337775"><ele>22.666666666666668</ele><time>2026-03-28T08:54:33.413Z</time></trkpt><trkpt lat="40.9537533" lon="14.337735"><ele>22.833333333333336</ele><time>2026-03-28T08:54:34.416Z</time></trkpt><trkpt lat="40.953825" lon="14.3376933"><ele>23.0</ele><time>2026-03-28T08:54:35.417Z</time></trkpt><trkpt lat="40.9538983" lon="14.3376417"><ele>23.0</ele><time>2026-03-28T08:54:36.414Z</time></trkpt><trkpt lat="40.9539683" lon="14.3375883"><ele>23.0</ele><time>2026-03-28T08:54:37.417Z</time></trkpt><trkpt lat="40.9540383" lon="14.3375317"><ele>23.0</ele><time>2026-03-28T08:54:38.416Z</time></trkpt><trkpt lat="40.9541067" lon="14.3374717"><ele>23.0</ele><time>2026-03-28T08:54:39.415Z</time></trkpt><trkpt lat="40.9541717" lon="14.33741"><ele>23.0</ele><time>2026-03-28T08:54:40.415Z</time></trkpt><trkpt lat="40.954235" lon="14.3373517"><ele>23.0</ele><time>2026-03-28T08:54:41.417Z</time></trkpt><trkpt lat="40.9542933" lon="14.3372917"><ele>23.0</ele><time>2026-03-28T08:54:42.415Z</time></trkpt><trkpt lat="40.95435" lon="14.3372233"><ele>23.0</ele><time>2026-03-28T08:54:43.415Z</time></trkpt><trkpt lat="40.9544017" lon="14.3371517"><ele>23.0</ele><time>2026-03-28T08:54:44.418Z</time></trkpt><trkpt lat="40.9544467" lon="14.3370733"><ele>23.0</ele><time>2026-03-28T08:54:45.418Z</time></trkpt><trkpt lat="40.9544867" lon="14.3369867"><ele>23.0</ele><time>2026-03-28T08:54:46.416Z</time></trkpt><trkpt lat="40.95452" lon="14.33689"><ele>23.0</ele><time>2026-03-28T08:54:47.418Z</time></trkpt><trkpt lat="40.95454" lon="14.3367917"><ele>23.0</ele><time>2026-03-28T08:54:48.418Z</time></trkpt><trkpt lat="40.9545483" lon="14.3366883"><ele>23.0</ele><time>2026-03-28T08:54:49.418Z</time></trkpt><trkpt lat="40.9545417" lon="14.3365867"><ele>23.0</ele><time>2026-03-28T08:54:50.418Z</time></trkpt><trkpt lat="40.9545267" lon="14.33649"><ele>23.0</ele><time>2026-03-28T08:54:51.418Z</time></trkpt><trkpt lat="40.9545017" lon="14.3363983"><ele>23.0</ele><time>2026-03-28T08:54:52.414Z</time></trkpt><trkpt lat="40.954465" lon="14.336315"><ele>23.0</ele><time>2026-03-28T08:54:53.417Z</time></trkpt><trkpt lat="40.9544167" lon="14.3362417"><ele>23.0</ele><time>2026-03-28T08:54:54.417Z</time></trkpt><trkpt lat="40.95436" lon="14.33618"><ele>23.0</ele><time>2026-03-28T08:54:55.418Z</time></trkpt><trkpt lat="40.9543083" lon="14.3361267"><ele>23.0</ele><time>2026-03-28T08:54:56.417Z</time></trkpt><trkpt lat="40.95426" lon="14.33607"><ele>23.0</ele><time>2026-03-28T08:54:57.415Z</time></trkpt><trkpt lat="40.95418" lon="14.3359467"><ele>23.0</ele><time>2026-03-28T08:54:59.415Z</time></trkpt><trkpt lat="40.95409" lon="14.3358667"><ele>23.0</ele><time>2026-03-28T08:55:01.419Z</time></trkpt><trkpt lat="40.9539767" lon="14.33589"><ele>23.0</ele><time>2026-03-28T08:55:03.414Z</time></trkpt><trkpt lat="40.9538967" lon="14.336"><ele>23.0</ele><time>2026-03-28T08:55:05.419Z</time></trkpt><trkpt lat="40.9538683" lon="14.3361533"><ele>23.0</ele><time>2026-03-28T08:55:07.418Z</time></trkpt><trkpt lat="40.9538617" lon="14.3362383"><ele>23.0</ele><time>2026-03-28T08:55:08.417Z</time></trkpt><trkpt lat="40.9538517" lon="14.336325"><ele>23.0</ele><time>2026-03-28T08:55:09.414Z</time></trkpt><trkpt lat="40.9538383" lon="14.3364083"><ele>23.0</ele><time>2026-03-28T08:55:10.417Z</time></trkpt><trkpt lat="40.953825" lon="14.3364933"><ele>23.0</ele><time>2026-03-28T08:55:11.417Z</time></trkpt><trkpt lat="40.953815" lon="14.3365817"><ele>23.0</ele><time>2026-03-28T08:55:12.417Z</time></trkpt><trkpt lat="40.9538117" lon="14.336665"><ele>23.0</ele><time>2026-03-28T08:55:13.415Z</time></trkpt><trkpt lat="40.953805" lon="14.33682"><ele>23.0</ele><time>2026-03-28T08:55:15.415Z</time></trkpt><trkpt lat="40.9537983" lon="14.3369583"><ele>23.0</ele><time>2026-03-28T08:55:17.417Z</time></trkpt><trkpt lat="40.953795" lon="14.3370867"><ele>23.0</ele><time>2026-03-28T08:55:19.416Z</time></trkpt><trkpt lat="40.953785" lon="14.3372083"><ele>23.0</ele><time>2026-03-28T08:55:21.417Z</time></trkpt><trkpt lat="40.953775" lon="14.3373367"><ele>23.0</ele><time>2026-03-28T08:55:23.417Z</time></trkpt><trkpt lat="40.9537667" lon="14.3374633"><ele>23.0</ele><time>2026-03-28T08:55:25.418Z</time></trkpt><trkpt lat="40.95376" lon="14.3375883"><ele>23.0</ele><time>2026-03-28T08:55:27.418Z</time></trkpt><trkpt lat="40.9537533" lon="14.3377117"><ele>23.0</ele><time>2026-03-28T08:55:29.416Z</time></trkpt><trkpt lat="40.9537417" lon="14.3378383"><ele>23.0</ele><time>2026-03-28T08:55:31.414Z</time></trkpt><trkpt lat="40.9537317" lon="14.337975"><ele>23.0</ele><time>2026-03-28T08:55:33.415Z</time></trkpt><trkpt lat="40.9537233" lon="14.3381233"><ele>23.0</ele><time>2026-03-28T08:55:35.415Z</time></trkpt><trkpt lat="40.95372" lon="14.3382717"><ele>23.0</ele><time>2026-03-28T08:55:37.415Z</time></trkpt><trkpt lat="40.9537083" lon="14.3384133"><ele>23.0</ele><time>2026-03-28T08:55:39.414Z</time></trkpt><trkpt lat="40.9537" lon="14.3385717"><ele>22.599999999999998</ele><time>2026-03-28T08:55:41.417Z</time></trkpt><trkpt lat="40.95369" lon="14.33871"><ele>22.2</ele><time>2026-03-28T08:55:43.416Z</time></trkpt><trkpt lat="40.9536783" lon="14.3388467"><ele>21.8</ele><time>2026-03-28T08:55:45.418Z</time></trkpt><trkpt lat="40.9536633" lon="14.3389867"><ele>21.4</ele><time>2026-03-28T08:55:47.414Z</time></trkpt><trkpt lat="40.9536517" lon="14.3391333"><ele>21.0</ele><time>2026-03-28T08:55:49.414Z</time></trkpt><trkpt lat="40.953645" lon="14.3392867"><ele>21.0</ele><time>2026-03-28T08:55:51.415Z</time></trkpt><trkpt lat="40.953635" lon="14.339445"><ele>21.0</ele><time>2026-03-28T08:55:53.417Z</time></trkpt><trkpt lat="40.95363" lon="14.3396117"><ele>21.0</ele><time>2026-03-28T08:55:55.415Z</time></trkpt><trkpt lat="40.9536233" lon="14.3397017"><ele>21.0</ele><time>2026-03-28T08:55:56.415Z</time></trkpt><trkpt lat="40.953615" lon="14.3397917"><ele>21.0</ele><time>2026-03-28T08:55:57.417Z</time></trkpt><trkpt lat="40.9536067" lon="14.339885"><ele>21.0</ele><time>2026-03-28T08:55:58.416Z</time></trkpt><trkpt lat="40.9536" lon="14.3399833"><ele>21.0</ele><time>2026-03-28T08:55:59.417Z</time></trkpt><trkpt lat="40.953595" lon="14.340085"><ele>21.0</ele><time>2026-03-28T08:56:00.417Z</time></trkpt><trkpt lat="40.953585" lon="14.340195"><ele>21.0</ele><time>2026-03-28T08:56:01.418Z</time></trkpt><trkpt lat="40.9535717" lon="14.3403067"><ele>21.0</ele><time>2026-03-28T08:56:02.417Z</time></trkpt><trkpt lat="40.9535617" lon="14.3404183"><ele>21.0</ele><time>2026-03-28T08:56:03.417Z</time></trkpt><trkpt lat="40.9535533" lon="14.3405367"><ele>20.8</ele><time>2026-03-28T08:56:04.414Z</time></trkpt><trkpt lat="40.953545" lon="14.34066"><ele>20.6</ele><time>2026-03-28T08:56:05.417Z</time></trkpt><trkpt lat="40.9535383" lon="14.34078"><ele>20.4</ele><time>2026-03-28T08:56:06.415Z</time></trkpt><trkpt lat="40.9535317" lon="14.3409033"><ele>20.2</ele><time>2026-03-28T08:56:07.417Z</time></trkpt><trkpt lat="40.9535267" lon="14.34103"><ele>20.0</ele><time>2026-03-28T08:56:08.416Z</time></trkpt><trkpt lat="40.95352" lon="14.34116"><ele>20.0</ele><time>2026-03-28T08:56:09.416Z</time></trkpt><trkpt lat="40.9535217" lon="14.341295"><ele>20.0</ele><time>2026-03-28T08:56:10.416Z</time></trkpt><trkpt lat="40.9535267" lon="14.3414333"><ele>20.0</ele><time>2026-03-28T08:56:11.417Z</time></trkpt><trkpt lat="40.9535367" lon="14.3415733"><ele>20.0</ele><time>2026-03-28T08:56:12.417Z</time></trkpt><trkpt lat="40.95355" lon="14.3417117"><ele>20.0</ele><time>2026-03-28T08:56:13.417Z</time></trkpt><trkpt lat="40.9535667" lon="14.3418417"><ele>20.4</ele><time>2026-03-28T08:56:14.416Z</time></trkpt><trkpt lat="40.9535867" lon="14.34197"><ele>20.8</ele><time>2026-03-28T08:56:15.414Z</time></trkpt><trkpt lat="40.9536117" lon="14.3421017"><ele>21.200000000000003</ele><time>2026-03-28T08:56:16.417Z</time></trkpt><trkpt lat="40.95363" lon="14.34223"><ele>21.6</ele><time>2026-03-28T08:56:17.417Z</time></trkpt><trkpt lat="40.9536467" lon="14.34236"><ele>22.0</ele><time>2026-03-28T08:56:18.414Z</time></trkpt><trkpt lat="40.953665" lon="14.342485"><ele>22.0</ele><time>2026-03-28T08:56:19.419Z</time></trkpt><trkpt lat="40.9536817" lon="14.3426033"><ele>22.0</ele><time>2026-03-28T08:56:20.416Z</time></trkpt><trkpt lat="40.9536983" lon="14.3427233"><ele>22.0</ele><time>2026-03-28T08:56:21.417Z</time></trkpt><trkpt lat="40.953715" lon="14.3428367"><ele>22.0</ele><time>2026-03-28T08:56:22.418Z</time></trkpt><trkpt lat="40.9537283" lon="14.342945"><ele>22.0</ele><time>2026-03-28T08:56:23.416Z</time></trkpt><trkpt lat="40.9537417" lon="14.34305"><ele>22.0</ele><time>2026-03-28T08:56:24.417Z</time></trkpt><trkpt lat="40.953755" lon="14.3431517"><ele>22.0</ele><time>2026-03-28T08:56:25.416Z</time></trkpt><trkpt lat="40.95377" lon="14.3432483"><ele>22.0</ele><time>2026-03-28T08:56:26.415Z</time></trkpt><trkpt lat="40.9537883" lon="14.3433467"><ele>22.0</ele><time>2026-03-28T08:56:27.418Z</time></trkpt><trkpt lat="40.953805" lon="14.3434433"><ele>22.0</ele><time>2026-03-28T08:56:28.415Z</time></trkpt><trkpt lat="40.9538217" lon="14.3435383"><ele>22.0</ele><time>2026-03-28T08:56:29.415Z</time></trkpt><trkpt lat="40.9538367" lon="14.3436317"><ele>22.0</ele><time>2026-03-28T08:56:30.416Z</time></trkpt><trkpt lat="40.9538517" lon="14.3437283"><ele>22.0</ele><time>2026-03-28T08:56:31.417Z</time></trkpt><trkpt lat="40.9538667" lon="14.3438183"><ele>21.857142857142858</ele><time>2026-03-28T08:56:32.417Z</time></trkpt><trkpt lat="40.9538833" lon="14.34391"><ele>21.714285714285715</ele><time>2026-03-28T08:56:33.417Z</time></trkpt><trkpt lat="40.9539017" lon="14.344005"><ele>21.57142857142857</ele><time>2026-03-28T08:56:34.417Z</time></trkpt><trkpt lat="40.9539183" lon="14.3440917"><ele>21.42857142857143</ele><time>2026-03-28T08:56:35.417Z</time></trkpt><trkpt lat="40.9539317" lon="14.3441833"><ele>21.285714285714285</ele><time>2026-03-28T08:56:36.417Z</time></trkpt><trkpt lat="40.9539483" lon="14.3442733"><ele>21.142857142857142</ele><time>2026-03-28T08:56:37.417Z</time></trkpt><trkpt lat="40.953965" lon="14.344365"><ele>21.0</ele><time>2026-03-28T08:56:38.418Z</time></trkpt><trkpt lat="40.9539833" lon="14.344455"><ele>21.0</ele><time>2026-03-28T08:56:39.416Z</time></trkpt><trkpt lat="40.954005" lon="14.3445517"><ele>21.0</ele><time>2026-03-28T08:56:40.418Z</time></trkpt><trkpt lat="40.9540267" lon="14.3446417"><ele>21.0</ele><time>2026-03-28T08:56:41.418Z</time></trkpt><trkpt lat="40.95405" lon="14.3447317"><ele>21.0</ele><time>2026-03-28T08:56:42.415Z</time></trkpt><trkpt lat="40.9540767" lon="14.3448217"><ele>21.0</ele><time>2026-03-28T08:56:43.416Z</time></trkpt><trkpt lat="40.9541017" lon="14.3449083"><ele>21.0</ele><time>2026-03-28T08:56:44.415Z</time></trkpt><trkpt lat="40.95413" lon="14.3449967"><ele>21.0</ele><time>2026-03-28T08:56:45.418Z</time></trkpt><trkpt lat="40.95416" lon="14.3450883"><ele>21.0</ele><time>2026-03-28T08:56:46.414Z</time></trkpt><trkpt lat="40.9541883" lon="14.3451783"><ele>21.0</ele><time>2026-03-28T08:56:47.416Z</time></trkpt><trkpt lat="40.9542167" lon="14.3452667"><ele>21.0</ele><time>2026-03-28T08:56:48.416Z</time></trkpt><trkpt lat="40.9542467" lon="14.3453533"><ele>21.0</ele><time>2026-03-28T08:56:49.417Z</time></trkpt><trkpt lat="40.9542783" lon="14.34544"><ele>21.0</ele><time>2026-03-28T08:56:50.415Z</time></trkpt><trkpt lat="40.9543117" lon="14.345525"><ele>21.0</ele><time>2026-03-28T08:56:51.417Z</time></trkpt><trkpt lat="40.954345" lon="14.3456117"><ele>21.0</ele><time>2026-03-28T08:56:52.418Z</time></trkpt><trkpt lat="40.9543833" lon="14.3456983"><ele>21.142857142857142</ele><time>2026-03-28T08:56:53.418Z</time></trkpt><trkpt lat="40.9544217" lon="14.3457833"><ele>21.285714285714285</ele><time>2026-03-28T08:56:54.418Z</time></trkpt><trkpt lat="40.95446" lon="14.3458617"><ele>21.42857142857143</ele><time>2026-03-28T08:56:55.418Z</time></trkpt><trkpt lat="40.9545" lon="14.3459433"><ele>21.57142857142857</ele><time>2026-03-28T08:56:56.417Z</time></trkpt><trkpt lat="40.9545417" lon="14.3460233"><ele>21.714285714285715</ele><time>2026-03-28T08:56:57.415Z</time></trkpt><trkpt lat="40.9545833" lon="14.346105"><ele>21.857142857142858</ele><time>2026-03-28T08:56:58.414Z</time></trkpt><trkpt lat="40.9546267" lon="14.346185"><ele>22.0</ele><time>2026-03-28T08:56:59.416Z</time></trkpt><trkpt lat="40.9546717" lon="14.346265"><ele>22.0</ele><time>2026-03-28T08:57:00.417Z</time></trkpt><trkpt lat="40.954715" lon="14.346345"><ele>22.0</ele><time>2026-03-28T08:57:01.415Z</time></trkpt><trkpt lat="40.9547583" lon="14.3464217"><ele>22.0</ele><time>2026-03-28T08:57:02.416Z</time></trkpt><trkpt lat="40.9548033" lon="14.3465"><ele>22.0</ele><time>2026-03-28T08:57:03.415Z</time></trkpt><trkpt lat="40.95485" lon="14.3465817"><ele>22.0</ele><time>2026-03-28T08:57:04.415Z</time></trkpt><trkpt lat="40.9548983" lon="14.3466633"><ele>22.0</ele><time>2026-03-28T08:57:05.416Z</time></trkpt><trkpt lat="40.954945" lon="14.346745"><ele>22.0</ele><time>2026-03-28T08:57:06.415Z</time></trkpt><trkpt lat="40.9549883" lon="14.3468283"><ele>22.0</ele><time>2026-03-28T08:57:07.415Z</time></trkpt><trkpt lat="40.9550317" lon="14.3469133"><ele>22.0</ele><time>2026-03-28T08:57:08.415Z</time></trkpt><trkpt lat="40.9550767" lon="14.3469967"><ele>22.0</ele><time>2026-03-28T08:57:09.418Z</time></trkpt><trkpt lat="40.955125" lon="14.3470767"><ele>22.0</ele><time>2026-03-28T08:57:10.416Z</time></trkpt><trkpt lat="40.9551717" lon="14.3471567"><ele>22.0</ele><time>2026-03-28T08:57:11.419Z</time></trkpt><trkpt lat="40.9552217" lon="14.347235"><ele>21.833333333333332</ele><time>2026-03-28T08:57:12.415Z</time></trkpt><trkpt lat="40.9552717" lon="14.3473117"><ele>21.666666666666664</ele><time>2026-03-28T08:57:13.416Z</time></trkpt><trkpt lat="40.9553217" lon="14.34739"><ele>21.5</ele><time>2026-03-28T08:57:14.415Z</time></trkpt><trkpt lat="40.9553683" lon="14.347465"><ele>21.333333333333332</ele><time>2026-03-28T08:57:15.418Z</time></trkpt><trkpt lat="40.9554183" lon="14.3475367"><ele>21.166666666666668</ele><time>2026-03-28T08:57:16.418Z</time></trkpt><trkpt lat="40.95547" lon="14.34761"><ele>21.0</ele><time>2026-03-28T08:57:17.416Z</time></trkpt><trkpt lat="40.9555217" lon="14.3476883"><ele>21.0</ele><time>2026-03-28T08:57:18.415Z</time></trkpt><trkpt lat="40.955575" lon="14.347765"><ele>21.0</ele><time>2026-03-28T08:57:19.418Z</time></trkpt><trkpt lat="40.9556317" lon="14.3478333"><ele>21.0</ele><time>2026-03-28T08:57:20.418Z</time></trkpt><trkpt lat="40.9556867" lon="14.347905"><ele>21.0</ele><time>2026-03-28T08:57:21.416Z</time></trkpt><trkpt lat="40.9557433" lon="14.3479767"><ele>21.0</ele><time>2026-03-28T08:57:22.418Z</time></trkpt><trkpt lat="40.9557983" lon="14.3480483"><ele>21.0</ele><time>2026-03-28T08:57:23.416Z</time></trkpt><trkpt lat="40.9558517" lon="14.3481217"><ele>21.166666666666668</ele><time>2026-03-28T08:57:24.417Z</time></trkpt><trkpt lat="40.9559033" lon="14.3481967"><ele>21.333333333333332</ele><time>2026-03-28T08:57:25.418Z</time></trkpt><trkpt lat="40.9559583" lon="14.34827"><ele>21.5</ele><time>2026-03-28T08:57:26.418Z</time></trkpt><trkpt lat="40.9560133" lon="14.348345"><ele>21.666666666666664</ele><time>2026-03-28T08:57:27.415Z</time></trkpt><trkpt lat="40.9560683" lon="14.3484217"><ele>21.833333333333332</ele><time>2026-03-28T08:57:28.418Z</time></trkpt><trkpt lat="40.95612" lon="14.3484917"><ele>22.0</ele><time>2026-03-28T08:57:29.418Z</time></trkpt><trkpt lat="40.956175" lon="14.3485633"><ele>22.0</ele><time>2026-03-28T08:57:30.418Z</time></trkpt><trkpt lat="40.9562317" lon="14.3486417"><ele>22.0</ele><time>2026-03-28T08:57:31.417Z</time></trkpt><trkpt lat="40.9562867" lon="14.34872"><ele>22.0</ele><time>2026-03-28T08:57:32.415Z</time></trkpt><trkpt lat="40.95634" lon="14.3488"><ele>22.0</ele><time>2026-03-28T08:57:33.415Z</time></trkpt><trkpt lat="40.9563967" lon="14.348875"><ele>22.0</ele><time>2026-03-28T08:57:34.418Z</time></trkpt><trkpt lat="40.9564533" lon="14.3489467"><ele>22.0</ele><time>2026-03-28T08:57:35.414Z</time></trkpt><trkpt lat="40.9565133" lon="14.3490267"><ele>22.0</ele><time>2026-03-28T08:57:36.418Z</time></trkpt><trkpt lat="40.9565667" lon="14.3491117"><ele>22.0</ele><time>2026-03-28T08:57:37.418Z</time></trkpt><trkpt lat="40.9566133" lon="14.3491933"><ele>22.0</ele><time>2026-03-28T08:57:38.415Z</time></trkpt><trkpt lat="40.956655" lon="14.349275"><ele>22.0</ele><time>2026-03-28T08:57:39.417Z</time></trkpt><trkpt lat="40.9566967" lon="14.3493633"><ele>22.0</ele><time>2026-03-28T08:57:40.418Z</time></trkpt><trkpt lat="40.956735" lon="14.3494483"><ele>22.0</ele><time>2026-03-28T08:57:41.417Z</time></trkpt><trkpt lat="40.9567767" lon="14.349535"><ele>22.0</ele><time>2026-03-28T08:57:42.414Z</time></trkpt><trkpt lat="40.9568133" lon="14.3496217"><ele>22.0</ele><time>2026-03-28T08:57:43.417Z</time></trkpt><trkpt lat="40.956845" lon="14.3497117"><ele>22.0</ele><time>2026-03-28T08:57:44.417Z</time></trkpt><trkpt lat="40.9568767" lon="14.34981"><ele>22.0</ele><time>2026-03-28T08:57:45.417Z</time></trkpt><trkpt lat="40.9569033" lon="14.3499133"><ele>22.0</ele><time>2026-03-28T08:57:46.417Z</time></trkpt><trkpt lat="40.9569283" lon="14.3500133"><ele>22.0</ele><time>2026-03-28T08:57:47.415Z</time></trkpt><trkpt lat="40.95695" lon="14.3501117"><ele>22.0</ele><time>2026-03-28T08:57:48.416Z</time></trkpt><trkpt lat="40.9569667" lon="14.3502133"><ele>22.0</ele><time>2026-03-28T08:57:49.418Z</time></trkpt><trkpt lat="40.95698" lon="14.3503167"><ele>22.0</ele><time>2026-03-28T08:57:50.418Z</time></trkpt><trkpt lat="40.95699" lon="14.3504217"><ele>22.0</ele><time>2026-03-28T08:57:51.418Z</time></trkpt><trkpt lat="40.9569983" lon="14.350525"><ele>22.0</ele><time>2026-03-28T08:57:52.415Z</time></trkpt><trkpt lat="40.957005" lon="14.350625"><ele>22.0</ele><time>2026-03-28T08:57:53.419Z</time></trkpt><trkpt lat="40.9570083" lon="14.3507233"><ele>22.166666666666664</ele><time>2026-03-28T08:57:54.418Z</time></trkpt><trkpt lat="40.9570117" lon="14.350825"><ele>22.333333333333332</ele><time>2026-03-28T08:57:55.417Z</time></trkpt><trkpt lat="40.9570167" lon="14.3509267"><ele>22.5</ele><time>2026-03-28T08:57:56.415Z</time></trkpt><trkpt lat="40.9570217" lon="14.3510267"><ele>22.666666666666668</ele><time>2026-03-28T08:57:57.415Z</time></trkpt><trkpt lat="40.9570283" lon="14.3511267"><ele>22.833333333333336</ele><time>2026-03-28T08:57:58.415Z</time></trkpt><trkpt lat="40.95704" lon="14.3512283"><ele>23.0</ele><time>2026-03-28T08:57:59.416Z</time></trkpt><trkpt lat="40.957045" lon="14.3513317"><ele>23.142857142857142</ele><time>2026-03-28T08:58:00.418Z</time></trkpt><trkpt lat="40.95705" lon="14.35143"><ele>23.285714285714285</ele><time>2026-03-28T08:58:01.418Z</time></trkpt><trkpt lat="40.95705" lon="14.351535"><ele>23.428571428571427</ele><time>2026-03-28T08:58:02.415Z</time></trkpt><trkpt lat="40.9570517" lon="14.3516317"><ele>23.57142857142857</ele><time>2026-03-28T08:58:03.415Z</time></trkpt><trkpt lat="40.9570517" lon="14.3517283"><ele>23.714285714285715</ele><time>2026-03-28T08:58:04.418Z</time></trkpt><trkpt lat="40.9570533" lon="14.351825"><ele>23.857142857142854</ele><time>2026-03-28T08:58:05.418Z</time></trkpt><trkpt lat="40.9570567" lon="14.351925"><ele>24.0</ele><time>2026-03-28T08:58:06.418Z</time></trkpt><trkpt lat="40.9570583" lon="14.3520283"><ele>23.999999999999996</ele><time>2026-03-28T08:58:07.418Z</time></trkpt><trkpt lat="40.9570583" lon="14.3521317"><ele>24.0</ele><time>2026-03-28T08:58:08.418Z</time></trkpt><trkpt lat="40.9570567" lon="14.352235"><ele>24.0</ele><time>2026-03-28T08:58:09.418Z</time></trkpt><trkpt lat="40.9570533" lon="14.3523367"><ele>24.0</ele><time>2026-03-28T08:58:10.416Z</time></trkpt><trkpt lat="40.9570483" lon="14.3524317"><ele>24.0</ele><time>2026-03-28T08:58:11.418Z</time></trkpt><trkpt lat="40.95704" lon="14.3525267"><ele>23.999999999999996</ele><time>2026-03-28T08:58:12.414Z</time></trkpt><trkpt lat="40.9570367" lon="14.35262"><ele>24.0</ele><time>2026-03-28T08:58:13.418Z</time></trkpt><trkpt lat="40.957035" lon="14.352715"><ele>23.857142857142854</ele><time>2026-03-28T08:58:14.417Z</time></trkpt><trkpt lat="40.9570317" lon="14.3528083"><ele>23.714285714285715</ele><time>2026-03-28T08:58:15.417Z</time></trkpt><trkpt lat="40.95703" lon="14.352905"><ele>23.57142857142857</ele><time>2026-03-28T08:58:16.413Z</time></trkpt><trkpt lat="40.95703" lon="14.3529967"><ele>23.428571428571427</ele><time>2026-03-28T08:58:17.418Z</time></trkpt><trkpt lat="40.9570283" lon="14.3530933"><ele>23.285714285714285</ele><time>2026-03-28T08:58:18.414Z</time></trkpt><trkpt lat="40.95703" lon="14.3531917"><ele>23.142857142857142</ele><time>2026-03-28T08:58:19.418Z</time></trkpt><trkpt lat="40.9570283" lon="14.35329"><ele>23.0</ele><time>2026-03-28T08:58:20.418Z</time></trkpt><trkpt lat="40.9570183" lon="14.353385"><ele>23.0</ele><time>2026-03-28T08:58:21.417Z</time></trkpt><trkpt lat="40.9570083" lon="14.3534883"><ele>23.0</ele><time>2026-03-28T08:58:22.416Z</time></trkpt><trkpt lat="40.957" lon="14.3535883"><ele>23.0</ele><time>2026-03-28T08:58:23.418Z</time></trkpt><trkpt lat="40.9569933" lon="14.3536917"><ele>23.0</ele><time>2026-03-28T08:58:24.418Z</time></trkpt><trkpt lat="40.956985" lon="14.353795"><ele>23.0</ele><time>2026-03-28T08:58:25.418Z</time></trkpt><trkpt lat="40.9569733" lon="14.353895"><ele>23.0</ele><time>2026-03-28T08:58:26.415Z</time></trkpt><trkpt lat="40.9569667" lon="14.354"><ele>23.0</ele><time>2026-03-28T08:58:27.417Z</time></trkpt><trkpt lat="40.9569617" lon="14.3541033"><ele>23.0</ele><time>2026-03-28T08:58:28.418Z</time></trkpt><trkpt lat="40.9569583" lon="14.354205"><ele>23.0</ele><time>2026-03-28T08:58:29.418Z</time></trkpt><trkpt lat="40.95695" lon="14.3543083"><ele>23.0</ele><time>2026-03-28T08:58:30.415Z</time></trkpt><trkpt lat="40.956945" lon="14.3544133"><ele>23.0</ele><time>2026-03-28T08:58:31.418Z</time></trkpt><trkpt lat="40.9569367" lon="14.35452"><ele>23.0</ele><time>2026-03-28T08:58:32.418Z</time></trkpt><trkpt lat="40.9569267" lon="14.354625"><ele>23.0</ele><time>2026-03-28T08:58:33.418Z</time></trkpt><trkpt lat="40.9569167" lon="14.3547283"><ele>23.0</ele><time>2026-03-28T08:58:34.418Z</time></trkpt><trkpt lat="40.9569083" lon="14.3548317"><ele>23.0</ele><time>2026-03-28T08:58:35.418Z</time></trkpt><trkpt lat="40.9568967" lon="14.354935"><ele>23.0</ele><time>2026-03-28T08:58:36.417Z</time></trkpt><trkpt lat="40.9568867" lon="14.3550367"><ele>23.0</ele><time>2026-03-28T08:58:37.417Z</time></trkpt><trkpt lat="40.95688" lon="14.35514"><ele>23.0</ele><time>2026-03-28T08:58:38.418Z</time></trkpt><trkpt lat="40.9568733" lon="14.3552483"><ele>23.0</ele><time>2026-03-28T08:58:39.414Z</time></trkpt><trkpt lat="40.956865" lon="14.35535"><ele>23.0</ele><time>2026-03-28T08:58:40.417Z</time></trkpt><trkpt lat="40.9568567" lon="14.3554517"><ele>23.0</ele><time>2026-03-28T08:58:41.417Z</time></trkpt><trkpt lat="40.9568517" lon="14.3555533"><ele>23.0</ele><time>2026-03-28T08:58:42.415Z</time></trkpt><trkpt lat="40.9568483" lon="14.355655"><ele>23.0</ele><time>2026-03-28T08:58:43.418Z</time></trkpt><trkpt lat="40.956845" lon="14.3557567"><ele>23.0</ele><time>2026-03-28T08:58:44.418Z</time></trkpt><trkpt lat="40.9568417" lon="14.3558533"><ele>23.0</ele><time>2026-03-28T08:58:45.418Z</time></trkpt><trkpt lat="40.95684" lon="14.3559517"><ele>23.0</ele><time>2026-03-28T08:58:46.418Z</time></trkpt><trkpt lat="40.9568383" lon="14.3560483"><ele>23.0</ele><time>2026-03-28T08:58:47.417Z</time></trkpt><trkpt lat="40.95684" lon="14.3561467"><ele>23.0</ele><time>2026-03-28T08:58:48.416Z</time></trkpt><trkpt lat="40.956845" lon="14.3562417"><ele>23.0</ele><time>2026-03-28T08:58:49.417Z</time></trkpt><trkpt lat="40.9568533" lon="14.35634"><ele>23.0</ele><time>2026-03-28T08:58:50.417Z</time></trkpt><trkpt lat="40.956865" lon="14.3564333"><ele>23.0</ele><time>2026-03-28T08:58:51.418Z</time></trkpt><trkpt lat="40.9568783" lon="14.3565267"><ele>23.0</ele><time>2026-03-28T08:58:52.418Z</time></trkpt><trkpt lat="40.9568933" lon="14.3566217"><ele>23.0</ele><time>2026-03-28T08:58:53.418Z</time></trkpt><trkpt lat="40.9569183" lon="14.3567183"><ele>23.0</ele><time>2026-03-28T08:58:54.418Z</time></trkpt><trkpt lat="40.95695" lon="14.35681"><ele>23.0</ele><time>2026-03-28T08:58:55.418Z</time></trkpt><trkpt lat="40.956985" lon="14.3569033"><ele>23.0</ele><time>2026-03-28T08:58:56.418Z</time></trkpt><trkpt lat="40.9570183" lon="14.3569967"><ele>23.0</ele><time>2026-03-28T08:58:57.414Z</time></trkpt><trkpt lat="40.9570533" lon="14.35709"><ele>23.0</ele><time>2026-03-28T08:58:58.417Z</time></trkpt><trkpt lat="40.9570917" lon="14.3571833"><ele>23.0</ele><time>2026-03-28T08:58:59.416Z</time></trkpt><trkpt lat="40.9571317" lon="14.3572767"><ele>23.0</ele><time>2026-03-28T08:59:00.418Z</time></trkpt><trkpt lat="40.9571733" lon="14.3573683"><ele>23.0</ele><time>2026-03-28T08:59:01.418Z</time></trkpt><trkpt lat="40.9572167" lon="14.357455"><ele>23.0</ele><time>2026-03-28T08:59:02.418Z</time></trkpt><trkpt lat="40.9572583" lon="14.35754"><ele>23.0</ele><time>2026-03-28T08:59:03.418Z</time></trkpt><trkpt lat="40.9573017" lon="14.357625"><ele>23.166666666666668</ele><time>2026-03-28T08:59:04.415Z</time></trkpt><trkpt lat="40.9573467" lon="14.35771"><ele>23.333333333333336</ele><time>2026-03-28T08:59:05.419Z</time></trkpt><trkpt lat="40.9573933" lon="14.357795"><ele>23.5</ele><time>2026-03-28T08:59:06.418Z</time></trkpt><trkpt lat="40.9574417" lon="14.3578767"><ele>23.666666666666668</ele><time>2026-03-28T08:59:07.418Z</time></trkpt><trkpt lat="40.9574917" lon="14.3579517"><ele>23.833333333333332</ele><time>2026-03-28T08:59:08.418Z</time></trkpt><trkpt lat="40.957545" lon="14.358025"><ele>24.0</ele><time>2026-03-28T08:59:09.416Z</time></trkpt><trkpt lat="40.9576017" lon="14.3581"><ele>24.0</ele><time>2026-03-28T08:59:10.418Z</time></trkpt><trkpt lat="40.95766" lon="14.358175"><ele>24.0</ele><time>2026-03-28T08:59:11.416Z</time></trkpt><trkpt lat="40.957715" lon="14.3582533"><ele>24.0</ele><time>2026-03-28T08:59:12.414Z</time></trkpt><trkpt lat="40.9577717" lon="14.35833"><ele>24.0</ele><time>2026-03-28T08:59:13.418Z</time></trkpt><trkpt lat="40.9578267" lon="14.3584067"><ele>24.0</ele><time>2026-03-28T08:59:14.415Z</time></trkpt><trkpt lat="40.9578817" lon="14.3584817"><ele>24.0</ele><time>2026-03-28T08:59:15.416Z</time></trkpt><trkpt lat="40.957935" lon="14.35856"><ele>24.0</ele><time>2026-03-28T08:59:16.415Z</time></trkpt><trkpt lat="40.95799" lon="14.3586433"><ele>24.0</ele><time>2026-03-28T08:59:17.415Z</time></trkpt><trkpt lat="40.9580417" lon="14.3587267"><ele>24.0</ele><time>2026-03-28T08:59:18.416Z</time></trkpt><trkpt lat="40.9580883" lon="14.3588117"><ele>24.0</ele><time>2026-03-28T08:59:19.417Z</time></trkpt><trkpt lat="40.9581333" lon="14.3588983"><ele>24.0</ele><time>2026-03-28T08:59:20.414Z</time></trkpt><trkpt lat="40.9581717" lon="14.3589867"><ele>24.0</ele><time>2026-03-28T08:59:21.418Z</time></trkpt><trkpt lat="40.9582117" lon="14.3590883"><ele>24.166666666666668</ele><time>2026-03-28T08:59:22.418Z</time></trkpt><trkpt lat="40.9582433" lon="14.35919"><ele>24.333333333333336</ele><time>2026-03-28T08:59:23.418Z</time></trkpt><trkpt lat="40.9582733" lon="14.3592867"><ele>24.5</ele><time>2026-03-28T08:59:24.415Z</time></trkpt><trkpt lat="40.9583033" lon="14.35938"><ele>24.666666666666668</ele><time>2026-03-28T08:59:25.416Z</time></trkpt><trkpt lat="40.9583333" lon="14.3594717"><ele>24.833333333333336</ele><time>2026-03-28T08:59:26.418Z</time></trkpt><trkpt lat="40.9583633" lon="14.3595533"><ele>25.0</ele><time>2026-03-28T08:59:27.418Z</time></trkpt><trkpt lat="40.9583883" lon="14.35964"><ele>25.4</ele><time>2026-03-28T08:59:28.418Z</time></trkpt><trkpt lat="40.9584117" lon="14.3597217"><ele>25.8</ele><time>2026-03-28T08:59:29.417Z</time></trkpt><trkpt lat="40.9584633" lon="14.359875"><ele>26.200000000000003</ele><time>2026-03-28T08:59:31.417Z</time></trkpt><trkpt lat="40.9584933" lon="14.3599517"><ele>26.6</ele><time>2026-03-28T08:59:32.418Z</time></trkpt><trkpt lat="40.9585483" lon="14.3600933"><ele>27.0</ele><time>2026-03-28T08:59:34.414Z</time></trkpt><trkpt lat="40.9585983" lon="14.36023"><ele>27.0</ele><time>2026-03-28T08:59:36.416Z</time></trkpt><trkpt lat="40.9586533" lon="14.36037"><ele>27.000000000000004</ele><time>2026-03-28T08:59:38.416Z</time></trkpt><trkpt lat="40.9587033" lon="14.3605017"><ele>27.000000000000004</ele><time>2026-03-28T08:59:40.415Z</time></trkpt><trkpt lat="40.9587467" lon="14.36062"><ele>27.0</ele><time>2026-03-28T08:59:42.418Z</time></trkpt><trkpt lat="40.9587817" lon="14.3607133"><ele>27.0</ele><time>2026-03-28T08:59:44.417Z</time></trkpt><trkpt lat="40.958805" lon="14.360805"><ele>26.400000000000002</ele><time>2026-03-28T08:59:48.414Z</time></trkpt><trkpt lat="40.9588794" lon="14.3608693"><ele>25.800000000000004</ele><time>2026-03-28T09:00:42.457Z</time></trkpt><trkpt lat="40.9589231" lon="14.3610263"><ele>25.2</ele><time>2026-03-28T09:01:00.485Z</time></trkpt><trkpt lat="40.9589322" lon="14.3611121"><ele>24.6</ele><time>2026-03-28T09:01:03.507Z</time></trkpt><trkpt lat="40.9589541" lon="14.3612441"><ele>24.0</ele><time>2026-03-28T09:01:04.514Z</time></trkpt><trkpt lat="40.9589849" lon="14.3614049"><ele>24.0</ele><time>2026-03-28T09:01:07.157Z</time></trkpt><trkpt lat="40.9590008" lon="14.3615026"><ele>24.0</ele><time>2026-03-28T09:01:08.442Z</time></trkpt><trkpt lat="40.9590274" lon="14.3616188"><ele>24.0</ele><time>2026-03-28T09:01:10.557Z</time></trkpt><trkpt lat="40.9590516" lon="14.3616958"><ele>24.0</ele><time>2026-03-28T09:01:12.471Z</time></trkpt><trkpt lat="40.9590787" lon="14.3618079"><ele>24.0</ele><time>2026-03-28T09:01:14.485Z</time></trkpt><trkpt lat="40.9591167" lon="14.3619267"><ele>24.0</ele><time>2026-03-28T09:01:15.415Z</time></trkpt><trkpt lat="40.95916" lon="14.3620583"><ele>24.0</ele><time>2026-03-28T09:01:17.415Z</time></trkpt><trkpt lat="40.959185" lon="14.3621433"><ele>24.0</ele><time>2026-03-28T09:01:18.415Z</time></trkpt><trkpt lat="40.9592417" lon="14.3622967"><ele>24.0</ele><time>2026-03-28T09:01:20.416Z</time></trkpt><trkpt lat="40.9593" lon="14.3624217"><ele>24.0</ele><time>2026-03-28T09:01:22.415Z</time></trkpt><trkpt lat="40.9593567" lon="14.3625467"><ele>24.0</ele><time>2026-03-28T09:01:24.418Z</time></trkpt><trkpt lat="40.959415" lon="14.3626583"><ele>24.0</ele><time>2026-03-28T09:01:26.416Z</time></trkpt><trkpt lat="40.959475" lon="14.36276"><ele>24.0</ele><time>2026-03-28T09:01:28.416Z</time></trkpt><trkpt lat="40.9595383" lon="14.3628583"><ele>24.0</ele><time>2026-03-28T09:01:30.416Z</time></trkpt><trkpt lat="40.9596083" lon="14.3629583"><ele>24.0</ele><time>2026-03-28T09:01:32.415Z</time></trkpt><trkpt lat="40.9596783" lon="14.3630633"><ele>24.0</ele><time>2026-03-28T09:01:34.416Z</time></trkpt><trkpt lat="40.9597483" lon="14.36319"><ele>24.0</ele><time>2026-03-28T09:01:36.415Z</time></trkpt><trkpt lat="40.9598033" lon="14.363315"><ele>24.0</ele><time>2026-03-28T09:01:38.416Z</time></trkpt><trkpt lat="40.9598683" lon="14.3634283"><ele>24.0</ele><time>2026-03-28T09:01:40.416Z</time></trkpt><trkpt lat="40.9599367" lon="14.3635533"><ele>24.0</ele><time>2026-03-28T09:01:42.415Z</time></trkpt><trkpt lat="40.9600033" lon="14.3636917"><ele>24.0</ele><time>2026-03-28T09:01:44.416Z</time></trkpt><trkpt lat="40.9600367" lon="14.3637667"><ele>24.0</ele><time>2026-03-28T09:01:45.416Z</time></trkpt><trkpt lat="40.9601067" lon="14.3639083"><ele>24.0</ele><time>2026-03-28T09:01:47.417Z</time></trkpt><trkpt lat="40.96018" lon="14.364045"><ele>24.0</ele><time>2026-03-28T09:01:49.416Z</time></trkpt><trkpt lat="40.9602183" lon="14.3641217"><ele>24.0</ele><time>2026-03-28T09:01:50.416Z</time></trkpt><trkpt lat="40.960255" lon="14.364195"><ele>23.999999999999996</ele><time>2026-03-28T09:01:51.415Z</time></trkpt><trkpt lat="40.9602917" lon="14.364275"><ele>24.0</ele><time>2026-03-28T09:01:52.417Z</time></trkpt><trkpt lat="40.9603317" lon="14.36436"><ele>24.0</ele><time>2026-03-28T09:01:53.417Z</time></trkpt><trkpt lat="40.96037" lon="14.3644417"><ele>24.0</ele><time>2026-03-28T09:01:54.416Z</time></trkpt><trkpt lat="40.960405" lon="14.3645183"><ele>24.0</ele><time>2026-03-28T09:01:55.417Z</time></trkpt><trkpt lat="40.9604417" lon="14.3645967"><ele>23.999999999999996</ele><time>2026-03-28T09:01:56.416Z</time></trkpt><trkpt lat="40.96048" lon="14.364675"><ele>24.0</ele><time>2026-03-28T09:01:57.417Z</time></trkpt><trkpt lat="40.9605183" lon="14.364745"><ele>24.333333333333332</ele><time>2026-03-28T09:01:58.415Z</time></trkpt><trkpt lat="40.9605583" lon="14.3648117"><ele>24.666666666666664</ele><time>2026-03-28T09:01:59.416Z</time></trkpt><trkpt lat="40.9606017" lon="14.3648817"><ele>25.0</ele><time>2026-03-28T09:02:00.416Z</time></trkpt><trkpt lat="40.9606467" lon="14.3649517"><ele>25.333333333333332</ele><time>2026-03-28T09:02:01.417Z</time></trkpt><trkpt lat="40.9606917" lon="14.36501"><ele>25.666666666666664</ele><time>2026-03-28T09:02:02.415Z</time></trkpt><trkpt lat="40.9607783" lon="14.3651233"><ele>26.0</ele><time>2026-03-28T09:02:04.416Z</time></trkpt><trkpt lat="40.960825" lon="14.3651867"><ele>25.833333333333332</ele><time>2026-03-28T09:02:05.415Z</time></trkpt><trkpt lat="40.9609167" lon="14.3653083"><ele>25.666666666666664</ele><time>2026-03-28T09:02:07.416Z</time></trkpt><trkpt lat="40.9609667" lon="14.3653667"><ele>25.5</ele><time>2026-03-28T09:02:08.414Z</time></trkpt><trkpt lat="40.961015" lon="14.365425"><ele>25.333333333333336</ele><time>2026-03-28T09:02:09.414Z</time></trkpt><trkpt lat="40.961065" lon="14.3654883"><ele>25.166666666666668</ele><time>2026-03-28T09:02:10.416Z</time></trkpt><trkpt lat="40.9611167" lon="14.3655517"><ele>25.0</ele><time>2026-03-28T09:02:11.416Z</time></trkpt><trkpt lat="40.9611683" lon="14.3656133"><ele>25.000000000000004</ele><time>2026-03-28T09:02:12.416Z</time></trkpt><trkpt lat="40.9612183" lon="14.365675"><ele>25.0</ele><time>2026-03-28T09:02:13.414Z</time></trkpt><trkpt lat="40.96127" lon="14.3657383"><ele>25.0</ele><time>2026-03-28T09:02:14.415Z</time></trkpt><trkpt lat="40.961315" lon="14.3658017"><ele>25.0</ele><time>2026-03-28T09:02:15.413Z</time></trkpt><trkpt lat="40.9613583" lon="14.3658683"><ele>25.0</ele><time>2026-03-28T09:02:16.416Z</time></trkpt><trkpt lat="40.9614033" lon="14.3659317"><ele>25.000000000000004</ele><time>2026-03-28T09:02:17.417Z</time></trkpt><trkpt lat="40.9614517" lon="14.3659967"><ele>25.0</ele><time>2026-03-28T09:02:18.417Z</time></trkpt><trkpt lat="40.9615" lon="14.3660633"><ele>25.000000000000004</ele><time>2026-03-28T09:02:19.415Z</time></trkpt><trkpt lat="40.961545" lon="14.3661333"><ele>25.0</ele><time>2026-03-28T09:02:20.417Z</time></trkpt><trkpt lat="40.96159" lon="14.366205"><ele>25.0</ele><time>2026-03-28T09:02:21.414Z</time></trkpt><trkpt lat="40.961675" lon="14.3663383"><ele>25.0</ele><time>2026-03-28T09:02:23.416Z</time></trkpt><trkpt lat="40.9617167" lon="14.36641"><ele>25.000000000000004</ele><time>2026-03-28T09:02:24.417Z</time></trkpt><trkpt lat="40.9617633" lon="14.3664867"><ele>25.0</ele><time>2026-03-28T09:02:25.416Z</time></trkpt><trkpt lat="40.961805" lon="14.3665633"><ele>25.000000000000004</ele><time>2026-03-28T09:02:26.416Z</time></trkpt><trkpt lat="40.961845" lon="14.3666433"><ele>25.0</ele><time>2026-03-28T09:02:27.415Z</time></trkpt><trkpt lat="40.9618867" lon="14.3667217"><ele>25.0</ele><time>2026-03-28T09:02:28.417Z</time></trkpt><trkpt lat="40.96193" lon="14.3667967"><ele>25.0</ele><time>2026-03-28T09:02:29.417Z</time></trkpt><trkpt lat="40.9619733" lon="14.3668733"><ele>25.0</ele><time>2026-03-28T09:02:30.416Z</time></trkpt><trkpt lat="40.9620167" lon="14.366955"><ele>25.000000000000004</ele><time>2026-03-28T09:02:31.414Z</time></trkpt><trkpt lat="40.96206" lon="14.3670367"><ele>25.0</ele><time>2026-03-28T09:02:32.417Z</time></trkpt><trkpt lat="40.9621033" lon="14.3671133"><ele>25.000000000000004</ele><time>2026-03-28T09:02:33.416Z</time></trkpt><trkpt lat="40.9621483" lon="14.3671967"><ele>25.0</ele><time>2026-03-28T09:02:34.416Z</time></trkpt><trkpt lat="40.9621917" lon="14.36728"><ele>25.0</ele><time>2026-03-28T09:02:35.417Z</time></trkpt><trkpt lat="40.9622367" lon="14.3673617"><ele>25.0</ele><time>2026-03-28T09:02:36.416Z</time></trkpt><trkpt lat="40.96228" lon="14.367445"><ele>25.000000000000004</ele><time>2026-03-28T09:02:37.415Z</time></trkpt><trkpt lat="40.962325" lon="14.3675233"><ele>25.0</ele><time>2026-03-28T09:02:38.415Z</time></trkpt><trkpt lat="40.9623667" lon="14.367605"><ele>25.000000000000004</ele><time>2026-03-28T09:02:39.416Z</time></trkpt><trkpt lat="40.9624117" lon="14.367685"><ele>25.0</ele><time>2026-03-28T09:02:40.417Z</time></trkpt><trkpt lat="40.962455" lon="14.3677683"><ele>25.0</ele><time>2026-03-28T09:02:41.415Z</time></trkpt><trkpt lat="40.9624983" lon="14.36785"><ele>25.0</ele><time>2026-03-28T09:02:42.416Z</time></trkpt><trkpt lat="40.9625417" lon="14.3679333"><ele>25.000000000000004</ele><time>2026-03-28T09:02:43.417Z</time></trkpt><trkpt lat="40.9625833" lon="14.36802"><ele>25.0</ele><time>2026-03-28T09:02:44.416Z</time></trkpt><trkpt lat="40.962625" lon="14.368105"><ele>25.166666666666668</ele><time>2026-03-28T09:02:45.415Z</time></trkpt><trkpt lat="40.9626683" lon="14.3681933"><ele>25.333333333333336</ele><time>2026-03-28T09:02:46.415Z</time></trkpt><trkpt lat="40.96271" lon="14.36828"><ele>25.5</ele><time>2026-03-28T09:02:47.415Z</time></trkpt><trkpt lat="40.962755" lon="14.3683667"><ele>25.666666666666664</ele><time>2026-03-28T09:02:48.415Z</time></trkpt><trkpt lat="40.9627967" lon="14.3684617"><ele>25.833333333333332</ele><time>2026-03-28T09:02:49.414Z</time></trkpt><trkpt lat="40.9628333" lon="14.3685483"><ele>26.0</ele><time>2026-03-28T09:02:50.415Z</time></trkpt><trkpt lat="40.9628683" lon="14.3686333"><ele>26.0</ele><time>2026-03-28T09:02:51.417Z</time></trkpt><trkpt lat="40.9629" lon="14.3687133"><ele>26.0</ele><time>2026-03-28T09:02:52.415Z</time></trkpt><trkpt lat="40.96293" lon="14.3687883"><ele>26.0</ele><time>2026-03-28T09:02:53.416Z</time></trkpt><trkpt lat="40.96296" lon="14.3688617"><ele>26.0</ele><time>2026-03-28T09:02:54.416Z</time></trkpt><trkpt lat="40.9629883" lon="14.3689417"><ele>26.0</ele><time>2026-03-28T09:02:55.414Z</time></trkpt><trkpt lat="40.96302" lon="14.369025"><ele>26.0</ele><time>2026-03-28T09:02:56.415Z</time></trkpt><trkpt lat="40.9630517" lon="14.36911"><ele>26.0</ele><time>2026-03-28T09:02:57.415Z</time></trkpt><trkpt lat="40.963085" lon="14.3692"><ele>25.999999999999996</ele><time>2026-03-28T09:02:58.417Z</time></trkpt><trkpt lat="40.9631183" lon="14.36929"><ele>26.0</ele><time>2026-03-28T09:02:59.416Z</time></trkpt><trkpt lat="40.9631517" lon="14.3693817"><ele>26.0</ele><time>2026-03-28T09:03:00.415Z</time></trkpt><trkpt lat="40.963185" lon="14.3694733"><ele>26.0</ele><time>2026-03-28T09:03:01.417Z</time></trkpt><trkpt lat="40.9632167" lon="14.3695683"><ele>25.999999999999996</ele><time>2026-03-28T09:03:02.417Z</time></trkpt><trkpt lat="40.9632483" lon="14.3696583"><ele>26.0</ele><time>2026-03-28T09:03:03.417Z</time></trkpt><trkpt lat="40.96328" lon="14.369745"><ele>26.0</ele><time>2026-03-28T09:03:04.417Z</time></trkpt><trkpt lat="40.963315" lon="14.3698267"><ele>26.0</ele><time>2026-03-28T09:03:05.417Z</time></trkpt><trkpt lat="40.9633483" lon="14.3699133"><ele>26.0</ele><time>2026-03-28T09:03:06.416Z</time></trkpt><trkpt lat="40.96338" lon="14.3699983"><ele>26.0</ele><time>2026-03-28T09:03:07.417Z</time></trkpt><trkpt lat="40.9634083" lon="14.3700817"><ele>26.0</ele><time>2026-03-28T09:03:08.416Z</time></trkpt><trkpt lat="40.9634367" lon="14.3701683"><ele>26.0</ele><time>2026-03-28T09:03:09.415Z</time></trkpt><trkpt lat="40.9634633" lon="14.3702517"><ele>26.0</ele><time>2026-03-28T09:03:10.415Z</time></trkpt><trkpt lat="40.9634883" lon="14.370335"><ele>26.0</ele><time>2026-03-28T09:03:11.416Z</time></trkpt><trkpt lat="40.9635133" lon="14.370415"><ele>26.0</ele><time>2026-03-28T09:03:12.415Z</time></trkpt><trkpt lat="40.9635417" lon="14.370495"><ele>26.0</ele><time>2026-03-28T09:03:13.417Z</time></trkpt><trkpt lat="40.9635683" lon="14.3705783"><ele>26.0</ele><time>2026-03-28T09:03:14.414Z</time></trkpt><trkpt lat="40.9635933" lon="14.370665"><ele>26.0</ele><time>2026-03-28T09:03:15.415Z</time></trkpt><trkpt lat="40.9636183" lon="14.3707517"><ele>26.0</ele><time>2026-03-28T09:03:16.417Z</time></trkpt><trkpt lat="40.9636417" lon="14.3708333"><ele>26.0</ele><time>2026-03-28T09:03:17.415Z</time></trkpt><trkpt lat="40.96367" lon="14.3709167"><ele>26.0</ele><time>2026-03-28T09:03:18.416Z</time></trkpt><trkpt lat="40.963705" lon="14.3709967"><ele>26.0</ele><time>2026-03-28T09:03:19.416Z</time></trkpt><trkpt lat="40.96374" lon="14.371075"><ele>26.0</ele><time>2026-03-28T09:03:20.416Z</time></trkpt><trkpt lat="40.963775" lon="14.3711517"><ele>26.0</ele><time>2026-03-28T09:03:21.414Z</time></trkpt><trkpt lat="40.9638117" lon="14.3712333"><ele>26.0</ele><time>2026-03-28T09:03:22.415Z</time></trkpt><trkpt lat="40.9638517" lon="14.371315"><ele>26.0</ele><time>2026-03-28T09:03:23.415Z</time></trkpt><trkpt lat="40.96389" lon="14.3713967"><ele>26.0</ele><time>2026-03-28T09:03:24.415Z</time></trkpt><trkpt lat="40.9639283" lon="14.3714817"><ele>26.0</ele><time>2026-03-28T09:03:25.415Z</time></trkpt><trkpt lat="40.96397" lon="14.371565"><ele>26.0</ele><time>2026-03-28T09:03:26.417Z</time></trkpt><trkpt lat="40.9640083" lon="14.3716483"><ele>26.0</ele><time>2026-03-28T09:03:27.414Z</time></trkpt><trkpt lat="40.9640483" lon="14.3717283"><ele>26.0</ele><time>2026-03-28T09:03:28.416Z</time></trkpt><trkpt lat="40.9640867" lon="14.3718083"><ele>26.0</ele><time>2026-03-28T09:03:29.417Z</time></trkpt><trkpt lat="40.9641267" lon="14.3718883"><ele>26.0</ele><time>2026-03-28T09:03:30.415Z</time></trkpt><trkpt lat="40.9641667" lon="14.3719667"><ele>26.0</ele><time>2026-03-28T09:03:31.415Z</time></trkpt><trkpt lat="40.964205" lon="14.3720483"><ele>26.0</ele><time>2026-03-28T09:03:32.416Z</time></trkpt><trkpt lat="40.964245" lon="14.37213"><ele>26.0</ele><time>2026-03-28T09:03:33.416Z</time></trkpt><trkpt lat="40.9642883" lon="14.372205"><ele>26.0</ele><time>2026-03-28T09:03:34.414Z</time></trkpt><trkpt lat="40.9643283" lon="14.3722833"><ele>26.0</ele><time>2026-03-28T09:03:35.416Z</time></trkpt><trkpt lat="40.9643633" lon="14.37237"><ele>26.0</ele><time>2026-03-28T09:03:36.415Z</time></trkpt><trkpt lat="40.9644017" lon="14.3724583"><ele>26.0</ele><time>2026-03-28T09:03:37.416Z</time></trkpt><trkpt lat="40.9644433" lon="14.372545"><ele>26.0</ele><time>2026-03-28T09:03:38.415Z</time></trkpt><trkpt lat="40.9644867" lon="14.3726267"><ele>25.999999999999996</ele><time>2026-03-28T09:03:39.416Z</time></trkpt><trkpt lat="40.9645317" lon="14.3727083"><ele>26.0</ele><time>2026-03-28T09:03:40.415Z</time></trkpt><trkpt lat="40.9645783" lon="14.3727917"><ele>26.0</ele><time>2026-03-28T09:03:41.417Z</time></trkpt><trkpt lat="40.9646283" lon="14.3728767"><ele>26.0</ele><time>2026-03-28T09:03:42.414Z</time></trkpt><trkpt lat="40.9646783" lon="14.372955"><ele>25.999999999999996</ele><time>2026-03-28T09:03:43.417Z</time></trkpt><trkpt lat="40.964735" lon="14.373025"><ele>26.0</ele><time>2026-03-28T09:03:44.417Z</time></trkpt><trkpt lat="40.96479" lon="14.37309"><ele>26.166666666666664</ele><time>2026-03-28T09:03:45.415Z</time></trkpt><trkpt lat="40.9648433" lon="14.37316"><ele>26.333333333333332</ele><time>2026-03-28T09:03:46.416Z</time></trkpt><trkpt lat="40.9649017" lon="14.3732333"><ele>26.5</ele><time>2026-03-28T09:03:47.416Z</time></trkpt><trkpt lat="40.9649617" lon="14.3732933"><ele>26.666666666666664</ele><time>2026-03-28T09:03:48.415Z</time></trkpt><trkpt lat="40.96502" lon="14.3733617"><ele>26.833333333333332</ele><time>2026-03-28T09:03:49.416Z</time></trkpt><trkpt lat="40.9650817" lon="14.3734467"><ele>27.0</ele><time>2026-03-28T09:03:50.416Z</time></trkpt><trkpt lat="40.9651417" lon="14.3735167"><ele>27.0</ele><time>2026-03-28T09:03:51.415Z</time></trkpt><trkpt lat="40.9652" lon="14.37359"><ele>27.0</ele><time>2026-03-28T09:03:52.414Z</time></trkpt><trkpt lat="40.9652617" lon="14.3736583"><ele>27.0</ele><time>2026-03-28T09:03:53.416Z</time></trkpt><trkpt lat="40.9653217" lon="14.373725"><ele>27.0</ele><time>2026-03-28T09:03:54.414Z</time></trkpt><trkpt lat="40.9653817" lon="14.3737883"><ele>27.0</ele><time>2026-03-28T09:03:55.414Z</time></trkpt><trkpt lat="40.9654417" lon="14.3738517"><ele>27.0</ele><time>2026-03-28T09:03:56.415Z</time></trkpt><trkpt lat="40.9655017" lon="14.37392"><ele>26.833333333333332</ele><time>2026-03-28T09:03:57.417Z</time></trkpt><trkpt lat="40.9655633" lon="14.3739967"><ele>26.666666666666664</ele><time>2026-03-28T09:03:58.415Z</time></trkpt><trkpt lat="40.9656217" lon="14.374075"><ele>26.5</ele><time>2026-03-28T09:03:59.416Z</time></trkpt><trkpt lat="40.9656783" lon="14.3741567"><ele>26.333333333333332</ele><time>2026-03-28T09:04:00.415Z</time></trkpt><trkpt lat="40.9657317" lon="14.374235"><ele>26.166666666666664</ele><time>2026-03-28T09:04:01.417Z</time></trkpt><trkpt lat="40.96579" lon="14.3743183"><ele>26.0</ele><time>2026-03-28T09:04:02.415Z</time></trkpt><trkpt lat="40.9658483" lon="14.3744017"><ele>25.999999999999996</ele><time>2026-03-28T09:04:03.416Z</time></trkpt><trkpt lat="40.9659067" lon="14.3744833"><ele>26.0</ele><time>2026-03-28T09:04:04.415Z</time></trkpt><trkpt lat="40.9659633" lon="14.374565"><ele>26.0</ele><time>2026-03-28T09:04:05.416Z</time></trkpt><trkpt lat="40.9660183" lon="14.3746467"><ele>26.0</ele><time>2026-03-28T09:04:06.416Z</time></trkpt><trkpt lat="40.9660767" lon="14.3747317"><ele>25.999999999999996</ele><time>2026-03-28T09:04:07.417Z</time></trkpt><trkpt lat="40.9661367" lon="14.3748167"><ele>26.0</ele><time>2026-03-28T09:04:08.417Z</time></trkpt><trkpt lat="40.966195" lon="14.3748983"><ele>25.999999999999996</ele><time>2026-03-28T09:04:09.415Z</time></trkpt><trkpt lat="40.9662517" lon="14.3749817"><ele>26.0</ele><time>2026-03-28T09:04:10.417Z</time></trkpt><trkpt lat="40.96631" lon="14.3750667"><ele>26.0</ele><time>2026-03-28T09:04:11.416Z</time></trkpt><trkpt lat="40.9663667" lon="14.3751533"><ele>26.0</ele><time>2026-03-28T09:04:12.416Z</time></trkpt><trkpt lat="40.9664233" lon="14.37524"><ele>25.999999999999996</ele><time>2026-03-28T09:04:13.416Z</time></trkpt><trkpt lat="40.96648" lon="14.3753267"><ele>26.0</ele><time>2026-03-28T09:04:14.417Z</time></trkpt><trkpt lat="40.966535" lon="14.3754167"><ele>25.999999999999996</ele><time>2026-03-28T09:04:15.415Z</time></trkpt><trkpt lat="40.966585" lon="14.375505"><ele>26.0</ele><time>2026-03-28T09:04:16.414Z</time></trkpt><trkpt lat="40.966635" lon="14.3755967"><ele>26.0</ele><time>2026-03-28T09:04:17.417Z</time></trkpt><trkpt lat="40.96668" lon="14.375685"><ele>26.0</ele><time>2026-03-28T09:04:18.416Z</time></trkpt><trkpt lat="40.96672" lon="14.3757733"><ele>25.999999999999996</ele><time>2026-03-28T09:04:19.414Z</time></trkpt><trkpt lat="40.96676" lon="14.375865"><ele>26.0</ele><time>2026-03-28T09:04:20.416Z</time></trkpt><trkpt lat="40.9668" lon="14.37596"><ele>25.666666666666664</ele><time>2026-03-28T09:04:21.415Z</time></trkpt><trkpt lat="40.966835" lon="14.37606"><ele>25.333333333333332</ele><time>2026-03-28T09:04:22.415Z</time></trkpt><trkpt lat="40.9668717" lon="14.3761633"><ele>25.0</ele><time>2026-03-28T09:04:23.415Z</time></trkpt><trkpt lat="40.9669067" lon="14.3762617"><ele>24.666666666666664</ele><time>2026-03-28T09:04:24.417Z</time></trkpt><trkpt lat="40.9669383" lon="14.3763667"><ele>24.333333333333332</ele><time>2026-03-28T09:04:25.416Z</time></trkpt><trkpt lat="40.9669717" lon="14.3764767"><ele>24.0</ele><time>2026-03-28T09:04:26.416Z</time></trkpt><trkpt lat="40.9670017" lon="14.37658"><ele>23.666666666666668</ele><time>2026-03-28T09:04:27.416Z</time></trkpt><trkpt lat="40.967035" lon="14.3766817"><ele>23.333333333333332</ele><time>2026-03-28T09:04:28.414Z</time></trkpt><trkpt lat="40.9670667" lon="14.3767817"><ele>23.0</ele><time>2026-03-28T09:04:29.415Z</time></trkpt><trkpt lat="40.9670967" lon="14.3768817"><ele>22.666666666666664</ele><time>2026-03-28T09:04:30.414Z</time></trkpt><trkpt lat="40.9671267" lon="14.376985"><ele>22.333333333333332</ele><time>2026-03-28T09:04:31.416Z</time></trkpt><trkpt lat="40.9671567" lon="14.3770817"><ele>22.0</ele><time>2026-03-28T09:04:32.415Z</time></trkpt><trkpt lat="40.9671883" lon="14.3771783"><ele>22.0</ele><time>2026-03-28T09:04:33.415Z</time></trkpt><trkpt lat="40.9672217" lon="14.3772783"><ele>22.0</ele><time>2026-03-28T09:04:34.416Z</time></trkpt><trkpt lat="40.9672517" lon="14.3773783"><ele>22.0</ele><time>2026-03-28T09:04:35.416Z</time></trkpt><trkpt lat="40.9672817" lon="14.3774783"><ele>22.0</ele><time>2026-03-28T09:04:36.414Z</time></trkpt><trkpt lat="40.9673117" lon="14.3775767"><ele>22.0</ele><time>2026-03-28T09:04:37.417Z</time></trkpt><trkpt lat="40.9673433" lon="14.3776683"><ele>22.0</ele><time>2026-03-28T09:04:38.414Z</time></trkpt><trkpt lat="40.9673733" lon="14.3777667"><ele>22.0</ele><time>2026-03-28T09:04:39.416Z</time></trkpt><trkpt lat="40.9674033" lon="14.377865"><ele>22.0</ele><time>2026-03-28T09:04:40.414Z</time></trkpt><trkpt lat="40.9674317" lon="14.3779617"><ele>22.0</ele><time>2026-03-28T09:04:41.415Z</time></trkpt><trkpt lat="40.967465" lon="14.3780617"><ele>22.0</ele><time>2026-03-28T09:04:42.415Z</time></trkpt><trkpt lat="40.9674983" lon="14.37816"><ele>22.0</ele><time>2026-03-28T09:04:43.415Z</time></trkpt><trkpt lat="40.96753" lon="14.3782567"><ele>22.0</ele><time>2026-03-28T09:04:44.416Z</time></trkpt><trkpt lat="40.9675633" lon="14.3783567"><ele>21.833333333333332</ele><time>2026-03-28T09:04:45.413Z</time></trkpt><trkpt lat="40.967595" lon="14.3784517"><ele>21.666666666666664</ele><time>2026-03-28T09:04:46.416Z</time></trkpt><trkpt lat="40.9676267" lon="14.37855"><ele>21.5</ele><time>2026-03-28T09:04:47.417Z</time></trkpt><trkpt lat="40.9676583" lon="14.37865"><ele>21.333333333333332</ele><time>2026-03-28T09:04:48.416Z</time></trkpt><trkpt lat="40.96769" lon="14.3787533"><ele>21.166666666666668</ele><time>2026-03-28T09:04:49.417Z</time></trkpt><trkpt lat="40.9677233" lon="14.378855"><ele>21.0</ele><time>2026-03-28T09:04:50.417Z</time></trkpt><trkpt lat="40.9677567" lon="14.3789533"><ele>21.5</ele><time>2026-03-28T09:04:51.416Z</time></trkpt><trkpt lat="40.9677883" lon="14.379055"><ele>22.0</ele><time>2026-03-28T09:04:52.416Z</time></trkpt><trkpt lat="40.9678183" lon="14.379155"><ele>22.5</ele><time>2026-03-28T09:04:53.416Z</time></trkpt><trkpt lat="40.9678483" lon="14.3792567"><ele>23.0</ele><time>2026-03-28T09:04:54.416Z</time></trkpt><trkpt lat="40.96788" lon="14.3793533"><ele>23.5</ele><time>2026-03-28T09:04:55.416Z</time></trkpt><trkpt lat="40.96791" lon="14.3794517"><ele>24.0</ele><time>2026-03-28T09:04:56.416Z</time></trkpt><trkpt lat="40.9679417" lon="14.3795533"><ele>24.0</ele><time>2026-03-28T09:04:57.416Z</time></trkpt><trkpt lat="40.9679717" lon="14.3796533"><ele>24.0</ele><time>2026-03-28T09:04:58.414Z</time></trkpt><trkpt lat="40.9680017" lon="14.3797533"><ele>24.0</ele><time>2026-03-28T09:04:59.417Z</time></trkpt><trkpt lat="40.9680317" lon="14.3798467"><ele>24.0</ele><time>2026-03-28T09:05:00.417Z</time></trkpt><trkpt lat="40.9680633" lon="14.3799433"><ele>24.0</ele><time>2026-03-28T09:05:01.415Z</time></trkpt><trkpt lat="40.968095" lon="14.38004"><ele>24.0</ele><time>2026-03-28T09:05:02.416Z</time></trkpt><trkpt lat="40.968125" lon="14.3801383"><ele>24.166666666666668</ele><time>2026-03-28T09:05:03.415Z</time></trkpt><trkpt lat="40.968155" lon="14.3802383"><ele>24.333333333333336</ele><time>2026-03-28T09:05:04.418Z</time></trkpt><trkpt lat="40.9681883" lon="14.38034"><ele>24.5</ele><time>2026-03-28T09:05:05.418Z</time></trkpt><trkpt lat="40.96822" lon="14.380435"><ele>24.666666666666668</ele><time>2026-03-28T09:05:06.415Z</time></trkpt><trkpt lat="40.9682533" lon="14.3805317"><ele>24.833333333333336</ele><time>2026-03-28T09:05:07.416Z</time></trkpt><trkpt lat="40.968285" lon="14.3806317"><ele>25.0</ele><time>2026-03-28T09:05:08.415Z</time></trkpt><trkpt lat="40.9683133" lon="14.380735"><ele>25.000000000000004</ele><time>2026-03-28T09:05:09.415Z</time></trkpt><trkpt lat="40.968345" lon="14.38084"><ele>25.0</ele><time>2026-03-28T09:05:10.418Z</time></trkpt><trkpt lat="40.968375" lon="14.3809367"><ele>25.0</ele><time>2026-03-28T09:05:11.417Z</time></trkpt><trkpt lat="40.9684067" lon="14.3810333"><ele>25.0</ele><time>2026-03-28T09:05:12.415Z</time></trkpt><trkpt lat="40.96844" lon="14.3811333"><ele>25.000000000000004</ele><time>2026-03-28T09:05:13.418Z</time></trkpt><trkpt lat="40.96847" lon="14.38123"><ele>25.0</ele><time>2026-03-28T09:05:14.416Z</time></trkpt><trkpt lat="40.9685" lon="14.3813333"><ele>24.833333333333336</ele><time>2026-03-28T09:05:15.415Z</time></trkpt><trkpt lat="40.96853" lon="14.3814317"><ele>24.666666666666668</ele><time>2026-03-28T09:05:16.416Z</time></trkpt><trkpt lat="40.9685617" lon="14.3815283"><ele>24.5</ele><time>2026-03-28T09:05:17.417Z</time></trkpt><trkpt lat="40.9685917" lon="14.3816233"><ele>24.333333333333336</ele><time>2026-03-28T09:05:18.415Z</time></trkpt><trkpt lat="40.96862" lon="14.3817183"><ele>24.166666666666668</ele><time>2026-03-28T09:05:19.416Z</time></trkpt><trkpt lat="40.968645" lon="14.381815"><ele>24.0</ele><time>2026-03-28T09:05:20.415Z</time></trkpt><trkpt lat="40.9686717" lon="14.381915"><ele>24.0</ele><time>2026-03-28T09:05:21.414Z</time></trkpt><trkpt lat="40.9686983" lon="14.3820117"><ele>24.0</ele><time>2026-03-28T09:05:22.416Z</time></trkpt><trkpt lat="40.9687233" lon="14.3821083"><ele>24.0</ele><time>2026-03-28T09:05:23.417Z</time></trkpt><trkpt lat="40.96875" lon="14.3822"><ele>24.0</ele><time>2026-03-28T09:05:24.417Z</time></trkpt><trkpt lat="40.968775" lon="14.382295"><ele>24.0</ele><time>2026-03-28T09:05:25.416Z</time></trkpt><trkpt lat="40.9687983" lon="14.3823917"><ele>24.0</ele><time>2026-03-28T09:05:26.417Z</time></trkpt><trkpt lat="40.968825" lon="14.3824883"><ele>24.333333333333332</ele><time>2026-03-28T09:05:27.415Z</time></trkpt><trkpt lat="40.9688517" lon="14.3825867"><ele>24.666666666666664</ele><time>2026-03-28T09:05:28.417Z</time></trkpt><trkpt lat="40.9688783" lon="14.3826867"><ele>25.0</ele><time>2026-03-28T09:05:29.417Z</time></trkpt><trkpt lat="40.9689083" lon="14.382785"><ele>25.333333333333332</ele><time>2026-03-28T09:05:30.415Z</time></trkpt><trkpt lat="40.9689383" lon="14.3828833"><ele>25.666666666666664</ele><time>2026-03-28T09:05:31.415Z</time></trkpt><trkpt lat="40.9689683" lon="14.3829817"><ele>26.0</ele><time>2026-03-28T09:05:32.418Z</time></trkpt><trkpt lat="40.9689983" lon="14.3830817"><ele>26.166666666666664</ele><time>2026-03-28T09:05:33.417Z</time></trkpt><trkpt lat="40.9690283" lon="14.3831817"><ele>26.333333333333332</ele><time>2026-03-28T09:05:34.419Z</time></trkpt><trkpt lat="40.9690617" lon="14.3832833"><ele>26.5</ele><time>2026-03-28T09:05:35.418Z</time></trkpt><trkpt lat="40.9690967" lon="14.3833817"><ele>26.666666666666664</ele><time>2026-03-28T09:05:36.418Z</time></trkpt><trkpt lat="40.9691317" lon="14.38348"><ele>26.833333333333332</ele><time>2026-03-28T09:05:37.417Z</time></trkpt><trkpt lat="40.96917" lon="14.383585"><ele>27.0</ele><time>2026-03-28T09:05:38.415Z</time></trkpt><trkpt lat="40.96921" lon="14.38369"><ele>26.666666666666668</ele><time>2026-03-28T09:05:39.416Z</time></trkpt><trkpt lat="40.9692483" lon="14.3837983"><ele>26.333333333333336</ele><time>2026-03-28T09:05:40.417Z</time></trkpt><trkpt lat="40.969285" lon="14.383905"><ele>26.0</ele><time>2026-03-28T09:05:41.417Z</time></trkpt><trkpt lat="40.9693217" lon="14.3840167"><ele>25.666666666666668</ele><time>2026-03-28T09:05:42.418Z</time></trkpt><trkpt lat="40.9693567" lon="14.3841167"><ele>25.333333333333336</ele><time>2026-03-28T09:05:43.417Z</time></trkpt><trkpt lat="40.9693933" lon="14.38422"><ele>25.0</ele><time>2026-03-28T09:05:44.417Z</time></trkpt><trkpt lat="40.9694317" lon="14.384325"><ele>25.000000000000004</ele><time>2026-03-28T09:05:45.418Z</time></trkpt><trkpt lat="40.96947" lon="14.3844283"><ele>25.0</ele><time>2026-03-28T09:05:46.415Z</time></trkpt><trkpt lat="40.96951" lon="14.38453"><ele>25.0</ele><time>2026-03-28T09:05:47.416Z</time></trkpt><trkpt lat="40.9695483" lon="14.38463"><ele>25.0</ele><time>2026-03-28T09:05:48.415Z</time></trkpt><trkpt lat="40.9695867" lon="14.38473"><ele>25.000000000000004</ele><time>2026-03-28T09:05:49.415Z</time></trkpt><trkpt lat="40.9696217" lon="14.3848267"><ele>25.0</ele><time>2026-03-28T09:05:50.415Z</time></trkpt><trkpt lat="40.96966" lon="14.3849233"><ele>25.000000000000004</ele><time>2026-03-28T09:05:51.416Z</time></trkpt><trkpt lat="40.9696983" lon="14.38502"><ele>25.0</ele><time>2026-03-28T09:05:52.415Z</time></trkpt><trkpt lat="40.9697383" lon="14.385115"><ele>25.0</ele><time>2026-03-28T09:05:53.419Z</time></trkpt><trkpt lat="40.969775" lon="14.3852133"><ele>25.0</ele><time>2026-03-28T09:05:54.418Z</time></trkpt><trkpt lat="40.969815" lon="14.3853117"><ele>25.000000000000004</ele><time>2026-03-28T09:05:55.418Z</time></trkpt><trkpt lat="40.9698517" lon="14.385405"><ele>25.0</ele><time>2026-03-28T09:05:56.417Z</time></trkpt><trkpt lat="40.96989" lon="14.385505"><ele>25.000000000000004</ele><time>2026-03-28T09:05:57.418Z</time></trkpt><trkpt lat="40.9699267" lon="14.3855967"><ele>25.0</ele><time>2026-03-28T09:05:58.415Z</time></trkpt><trkpt lat="40.9699667" lon="14.3856917"><ele>25.0</ele><time>2026-03-28T09:05:59.419Z</time></trkpt><trkpt lat="40.970005" lon="14.3857867"><ele>25.0</ele><time>2026-03-28T09:06:00.418Z</time></trkpt><trkpt lat="40.9700433" lon="14.3858833"><ele>25.000000000000004</ele><time>2026-03-28T09:06:01.418Z</time></trkpt><trkpt lat="40.9700817" lon="14.38598"><ele>25.0</ele><time>2026-03-28T09:06:02.415Z</time></trkpt><trkpt lat="40.9701217" lon="14.3860733"><ele>24.666666666666668</ele><time>2026-03-28T09:06:03.417Z</time></trkpt><trkpt lat="40.9701617" lon="14.3861683"><ele>24.333333333333336</ele><time>2026-03-28T09:06:04.418Z</time></trkpt><trkpt lat="40.9702033" lon="14.386265"><ele>24.0</ele><time>2026-03-28T09:06:05.415Z</time></trkpt><trkpt lat="40.9702433" lon="14.3863633"><ele>23.666666666666668</ele><time>2026-03-28T09:06:06.415Z</time></trkpt><trkpt lat="40.9702817" lon="14.38646"><ele>23.333333333333336</ele><time>2026-03-28T09:06:07.418Z</time></trkpt><trkpt lat="40.9703217" lon="14.386555"><ele>23.0</ele><time>2026-03-28T09:06:08.417Z</time></trkpt><trkpt lat="40.970365" lon="14.3866517"><ele>23.0</ele><time>2026-03-28T09:06:09.415Z</time></trkpt><trkpt lat="40.9704033" lon="14.3867417"><ele>23.0</ele><time>2026-03-28T09:06:10.418Z</time></trkpt><trkpt lat="40.9704417" lon="14.3868367"><ele>23.0</ele><time>2026-03-28T09:06:11.417Z</time></trkpt><trkpt lat="40.97048" lon="14.3869333"><ele>23.0</ele><time>2026-03-28T09:06:12.414Z</time></trkpt><trkpt lat="40.9705183" lon="14.387025"><ele>23.0</ele><time>2026-03-28T09:06:13.415Z</time></trkpt><trkpt lat="40.9705567" lon="14.3871167"><ele>23.0</ele><time>2026-03-28T09:06:14.413Z</time></trkpt><trkpt lat="40.970595" lon="14.38721"><ele>23.333333333333336</ele><time>2026-03-28T09:06:15.414Z</time></trkpt><trkpt lat="40.9706333" lon="14.3872967"><ele>23.666666666666668</ele><time>2026-03-28T09:06:16.415Z</time></trkpt><trkpt lat="40.9706733" lon="14.3873833"><ele>24.0</ele><time>2026-03-28T09:06:17.417Z</time></trkpt><trkpt lat="40.9707167" lon="14.3874717"><ele>24.333333333333336</ele><time>2026-03-28T09:06:18.415Z</time></trkpt><trkpt lat="40.9707583" lon="14.3875583"><ele>24.666666666666668</ele><time>2026-03-28T09:06:19.417Z</time></trkpt><trkpt lat="40.970805" lon="14.38765"><ele>25.0</ele><time>2026-03-28T09:06:20.415Z</time></trkpt><trkpt lat="40.9708517" lon="14.3877433"><ele>25.000000000000004</ele><time>2026-03-28T09:06:21.416Z</time></trkpt><trkpt lat="40.9708983" lon="14.3878367"><ele>25.0</ele><time>2026-03-28T09:06:22.415Z</time></trkpt><trkpt lat="40.970945" lon="14.387925"><ele>25.0</ele><time>2026-03-28T09:06:23.416Z</time></trkpt><trkpt lat="40.9709933" lon="14.3880117"><ele>25.0</ele><time>2026-03-28T09:06:24.417Z</time></trkpt><trkpt lat="40.9710433" lon="14.388095"><ele>25.000000000000004</ele><time>2026-03-28T09:06:25.416Z</time></trkpt><trkpt lat="40.9710917" lon="14.388185"><ele>25.0</ele><time>2026-03-28T09:06:26.417Z</time></trkpt><trkpt lat="40.9711383" lon="14.38827"><ele>25.333333333333336</ele><time>2026-03-28T09:06:27.418Z</time></trkpt><trkpt lat="40.971185" lon="14.3883583"><ele>25.666666666666668</ele><time>2026-03-28T09:06:28.416Z</time></trkpt><trkpt lat="40.971235" lon="14.3884467"><ele>26.0</ele><time>2026-03-28T09:06:29.418Z</time></trkpt><trkpt lat="40.971285" lon="14.3885367"><ele>26.333333333333336</ele><time>2026-03-28T09:06:30.418Z</time></trkpt><trkpt lat="40.9713317" lon="14.3886217"><ele>26.666666666666668</ele><time>2026-03-28T09:06:31.418Z</time></trkpt><trkpt lat="40.97138" lon="14.388705"><ele>27.0</ele><time>2026-03-28T09:06:32.417Z</time></trkpt><trkpt lat="40.9714267" lon="14.3887867"><ele>27.166666666666668</ele><time>2026-03-28T09:06:33.418Z</time></trkpt><trkpt lat="40.9714733" lon="14.3888733"><ele>27.333333333333336</ele><time>2026-03-28T09:06:34.418Z</time></trkpt><trkpt lat="40.9715167" lon="14.3889583"><ele>27.5</ele><time>2026-03-28T09:06:35.414Z</time></trkpt><trkpt lat="40.9715633" lon="14.3890417"><ele>27.666666666666668</ele><time>2026-03-28T09:06:36.416Z</time></trkpt><trkpt lat="40.97161" lon="14.3891283"><ele>27.833333333333336</ele><time>2026-03-28T09:06:37.416Z</time></trkpt><trkpt lat="40.971655" lon="14.38921"><ele>28.0</ele><time>2026-03-28T09:06:38.415Z</time></trkpt><trkpt lat="40.9717033" lon="14.38929"><ele>28.000000000000004</ele><time>2026-03-28T09:06:39.415Z</time></trkpt><trkpt lat="40.9717533" lon="14.3893667"><ele>28.0</ele><time>2026-03-28T09:06:40.416Z</time></trkpt><trkpt lat="40.971805" lon="14.3894433"><ele>28.0</ele><time>2026-03-28T09:06:41.418Z</time></trkpt><trkpt lat="40.9718583" lon="14.3895167"><ele>28.0</ele><time>2026-03-28T09:06:42.418Z</time></trkpt><trkpt lat="40.97191" lon="14.3895883"><ele>28.000000000000004</ele><time>2026-03-28T09:06:43.416Z</time></trkpt><trkpt lat="40.9719633" lon="14.3896617"><ele>28.0</ele><time>2026-03-28T09:06:44.418Z</time></trkpt><trkpt lat="40.9720233" lon="14.3897333"><ele>27.833333333333336</ele><time>2026-03-28T09:06:45.416Z</time></trkpt><trkpt lat="40.972085" lon="14.3898033"><ele>27.666666666666668</ele><time>2026-03-28T09:06:46.414Z</time></trkpt><trkpt lat="40.9721483" lon="14.3898717"><ele>27.5</ele><time>2026-03-28T09:06:47.416Z</time></trkpt><trkpt lat="40.97221" lon="14.3899383"><ele>27.333333333333336</ele><time>2026-03-28T09:06:48.417Z</time></trkpt><trkpt lat="40.972275" lon="14.3900017"><ele>27.166666666666668</ele><time>2026-03-28T09:06:49.414Z</time></trkpt><trkpt lat="40.9723417" lon="14.3900633"><ele>27.0</ele><time>2026-03-28T09:06:50.417Z</time></trkpt><trkpt lat="40.97241" lon="14.3901183"><ele>27.0</ele><time>2026-03-28T09:06:51.415Z</time></trkpt><trkpt lat="40.97248" lon="14.39017"><ele>27.0</ele><time>2026-03-28T09:06:52.417Z</time></trkpt><trkpt lat="40.97255" lon="14.3902167"><ele>27.0</ele><time>2026-03-28T09:06:53.416Z</time></trkpt><trkpt lat="40.972625" lon="14.3902617"><ele>27.0</ele><time>2026-03-28T09:06:54.415Z</time></trkpt><trkpt lat="40.972695" lon="14.3903033"><ele>27.0</ele><time>2026-03-28T09:06:55.416Z</time></trkpt><trkpt lat="40.9727683" lon="14.39034"><ele>27.0</ele><time>2026-03-28T09:06:56.417Z</time></trkpt><trkpt lat="40.97284" lon="14.3903767"><ele>26.833333333333332</ele><time>2026-03-28T09:06:57.415Z</time></trkpt><trkpt lat="40.9729117" lon="14.3904117"><ele>26.666666666666664</ele><time>2026-03-28T09:06:58.417Z</time></trkpt><trkpt lat="40.9729817" lon="14.3904467"><ele>26.5</ele><time>2026-03-28T09:06:59.417Z</time></trkpt><trkpt lat="40.9730533" lon="14.3904817"><ele>26.333333333333332</ele><time>2026-03-28T09:07:00.415Z</time></trkpt><trkpt lat="40.9731233" lon="14.39052"><ele>26.166666666666664</ele><time>2026-03-28T09:07:01.417Z</time></trkpt><trkpt lat="40.9731933" lon="14.3905583"><ele>26.0</ele><time>2026-03-28T09:07:02.416Z</time></trkpt><trkpt lat="40.97327" lon="14.3905883"><ele>25.999999999999996</ele><time>2026-03-28T09:07:03.415Z</time></trkpt><trkpt lat="40.9733467" lon="14.3906133"><ele>26.0</ele><time>2026-03-28T09:07:04.416Z</time></trkpt><trkpt lat="40.973425" lon="14.3906433"><ele>26.0</ele><time>2026-03-28T09:07:05.416Z</time></trkpt><trkpt lat="40.973505" lon="14.3906717"><ele>26.0</ele><time>2026-03-28T09:07:06.416Z</time></trkpt><trkpt lat="40.9735867" lon="14.3906983"><ele>25.999999999999996</ele><time>2026-03-28T09:07:07.416Z</time></trkpt><trkpt lat="40.9736683" lon="14.390725"><ele>26.0</ele><time>2026-03-28T09:07:08.417Z</time></trkpt><trkpt lat="40.973745" lon="14.390755"><ele>25.999999999999996</ele><time>2026-03-28T09:07:09.415Z</time></trkpt><trkpt lat="40.9738217" lon="14.3907883"><ele>26.0</ele><time>2026-03-28T09:07:10.415Z</time></trkpt><trkpt lat="40.9739" lon="14.3908217"><ele>26.0</ele><time>2026-03-28T09:07:11.416Z</time></trkpt><trkpt lat="40.9739767" lon="14.3908567"><ele>26.0</ele><time>2026-03-28T09:07:12.417Z</time></trkpt><trkpt lat="40.97405" lon="14.3908883"><ele>25.999999999999996</ele><time>2026-03-28T09:07:13.417Z</time></trkpt><trkpt lat="40.9741233" lon="14.3909267"><ele>26.0</ele><time>2026-03-28T09:07:14.418Z</time></trkpt><trkpt lat="40.974195" lon="14.3909633"><ele>25.999999999999996</ele><time>2026-03-28T09:07:15.415Z</time></trkpt><trkpt lat="40.9742667" lon="14.391005"><ele>26.0</ele><time>2026-03-28T09:07:16.417Z</time></trkpt><trkpt lat="40.9743383" lon="14.3910517"><ele>26.0</ele><time>2026-03-28T09:07:17.417Z</time></trkpt><trkpt lat="40.9744083" lon="14.3910983"><ele>26.0</ele><time>2026-03-28T09:07:18.415Z</time></trkpt><trkpt lat="40.9744767" lon="14.39115"><ele>25.999999999999996</ele><time>2026-03-28T09:07:19.416Z</time></trkpt><trkpt lat="40.974545" lon="14.3912017"><ele>26.0</ele><time>2026-03-28T09:07:20.415Z</time></trkpt><trkpt lat="40.9746183" lon="14.3912567"><ele>25.999999999999996</ele><time>2026-03-28T09:07:21.415Z</time></trkpt><trkpt lat="40.974685" lon="14.391315"><ele>26.0</ele><time>2026-03-28T09:07:22.416Z</time></trkpt><trkpt lat="40.97475" lon="14.391375"><ele>26.0</ele><time>2026-03-28T09:07:23.416Z</time></trkpt><trkpt lat="40.97481" lon="14.39144"><ele>26.0</ele><time>2026-03-28T09:07:24.415Z</time></trkpt><trkpt lat="40.9748667" lon="14.3915083"><ele>25.999999999999996</ele><time>2026-03-28T09:07:25.418Z</time></trkpt><trkpt lat="40.9749233" lon="14.3915767"><ele>26.0</ele><time>2026-03-28T09:07:26.415Z</time></trkpt><trkpt lat="40.9749817" lon="14.39165"><ele>25.833333333333332</ele><time>2026-03-28T09:07:27.415Z</time></trkpt><trkpt lat="40.97504" lon="14.3917283"><ele>25.666666666666664</ele><time>2026-03-28T09:07:28.417Z</time></trkpt><trkpt lat="40.9750967" lon="14.391805"><ele>25.5</ele><time>2026-03-28T09:07:29.418Z</time></trkpt><trkpt lat="40.9751517" lon="14.3918817"><ele>25.333333333333336</ele><time>2026-03-28T09:07:30.415Z</time></trkpt><trkpt lat="40.9752083" lon="14.3919633"><ele>25.166666666666668</ele><time>2026-03-28T09:07:31.419Z</time></trkpt><trkpt lat="40.9752667" lon="14.392045"><ele>25.0</ele><time>2026-03-28T09:07:32.417Z</time></trkpt><trkpt lat="40.97532" lon="14.392125"><ele>24.666666666666668</ele><time>2026-03-28T09:07:33.419Z</time></trkpt><trkpt lat="40.9753717" lon="14.3922033"><ele>24.333333333333336</ele><time>2026-03-28T09:07:34.418Z</time></trkpt><trkpt lat="40.975425" lon="14.39228"><ele>24.0</ele><time>2026-03-28T09:07:35.418Z</time></trkpt><trkpt lat="40.9754767" lon="14.3923567"><ele>23.666666666666668</ele><time>2026-03-28T09:07:36.418Z</time></trkpt><trkpt lat="40.97553" lon="14.3924367"><ele>23.333333333333336</ele><time>2026-03-28T09:07:37.414Z</time></trkpt><trkpt lat="40.9755817" lon="14.3925167"><ele>23.0</ele><time>2026-03-28T09:07:38.419Z</time></trkpt><trkpt lat="40.975635" lon="14.3925967"><ele>23.0</ele><time>2026-03-28T09:07:39.415Z</time></trkpt><trkpt lat="40.9756867" lon="14.392675"><ele>23.0</ele><time>2026-03-28T09:07:40.416Z</time></trkpt><trkpt lat="40.975745" lon="14.3927583"><ele>23.0</ele><time>2026-03-28T09:07:41.418Z</time></trkpt><trkpt lat="40.9758" lon="14.3928367"><ele>23.0</ele><time>2026-03-28T09:07:42.415Z</time></trkpt><trkpt lat="40.97585" lon="14.3929133"><ele>23.0</ele><time>2026-03-28T09:07:43.42Z</time></trkpt><trkpt lat="40.9759033" lon="14.3929967"><ele>23.0</ele><time>2026-03-28T09:07:44.414Z</time></trkpt><trkpt lat="40.9759567" lon="14.39308"><ele>23.166666666666668</ele><time>2026-03-28T09:07:45.417Z</time></trkpt><trkpt lat="40.9760083" lon="14.3931617"><ele>23.333333333333336</ele><time>2026-03-28T09:07:46.415Z</time></trkpt><trkpt lat="40.9760667" lon="14.3932483"><ele>23.5</ele><time>2026-03-28T09:07:47.419Z</time></trkpt><trkpt lat="40.97612" lon="14.39333"><ele>23.666666666666668</ele><time>2026-03-28T09:07:48.415Z</time></trkpt><trkpt lat="40.9761767" lon="14.39342"><ele>23.833333333333332</ele><time>2026-03-28T09:07:49.415Z</time></trkpt><trkpt lat="40.9762333" lon="14.3935067"><ele>24.0</ele><time>2026-03-28T09:07:50.418Z</time></trkpt><trkpt lat="40.97629" lon="14.3935933"><ele>24.0</ele><time>2026-03-28T09:07:51.415Z</time></trkpt><trkpt lat="40.9763483" lon="14.3936783"><ele>24.0</ele><time>2026-03-28T09:07:52.418Z</time></trkpt><trkpt lat="40.9764033" lon="14.3937617"><ele>24.0</ele><time>2026-03-28T09:07:53.418Z</time></trkpt><trkpt lat="40.976455" lon="14.3938467"><ele>24.0</ele><time>2026-03-28T09:07:54.415Z</time></trkpt><trkpt lat="40.9765083" lon="14.3939333"><ele>24.0</ele><time>2026-03-28T09:07:55.416Z</time></trkpt><trkpt lat="40.9765617" lon="14.394015"><ele>24.0</ele><time>2026-03-28T09:07:56.415Z</time></trkpt><trkpt lat="40.976615" lon="14.3940967"><ele>24.0</ele><time>2026-03-28T09:07:57.415Z</time></trkpt><trkpt lat="40.9766683" lon="14.3941767"><ele>24.0</ele><time>2026-03-28T09:07:58.416Z</time></trkpt><trkpt lat="40.97672" lon="14.3942533"><ele>24.0</ele><time>2026-03-28T09:07:59.415Z</time></trkpt><trkpt lat="40.9767767" lon="14.3943317"><ele>24.0</ele><time>2026-03-28T09:08:00.415Z</time></trkpt><trkpt lat="40.97683" lon="14.3944133"><ele>24.0</ele><time>2026-03-28T09:08:01.416Z</time></trkpt><trkpt lat="40.9768867" lon="14.3944933"><ele>24.0</ele><time>2026-03-28T09:08:02.416Z</time></trkpt><trkpt lat="40.9769383" lon="14.394575"><ele>24.0</ele><time>2026-03-28T09:08:03.415Z</time></trkpt><trkpt lat="40.9769917" lon="14.3946533"><ele>24.0</ele><time>2026-03-28T09:08:04.417Z</time></trkpt><trkpt lat="40.977045" lon="14.3947367"><ele>24.0</ele><time>2026-03-28T09:08:05.417Z</time></trkpt><trkpt lat="40.9771" lon="14.394825"><ele>24.0</ele><time>2026-03-28T09:08:06.418Z</time></trkpt><trkpt lat="40.9771567" lon="14.3949117"><ele>24.0</ele><time>2026-03-28T09:08:07.42Z</time></trkpt><trkpt lat="40.9772117" lon="14.3949983"><ele>24.0</ele><time>2026-03-28T09:08:08.415Z</time></trkpt><trkpt lat="40.9772667" lon="14.395085"><ele>24.166666666666668</ele><time>2026-03-28T09:08:09.415Z</time></trkpt><trkpt lat="40.9773233" lon="14.3951717"><ele>24.333333333333336</ele><time>2026-03-28T09:08:10.417Z</time></trkpt><trkpt lat="40.97738" lon="14.3952583"><ele>24.5</ele><time>2026-03-28T09:08:11.415Z</time></trkpt><trkpt lat="40.9774383" lon="14.3953433"><ele>24.666666666666668</ele><time>2026-03-28T09:08:12.417Z</time></trkpt><trkpt lat="40.9774917" lon="14.3954283"><ele>24.833333333333336</ele><time>2026-03-28T09:08:13.417Z</time></trkpt><trkpt lat="40.9775483" lon="14.3955067"><ele>25.0</ele><time>2026-03-28T09:08:14.415Z</time></trkpt><trkpt lat="40.9776033" lon="14.3955883"><ele>25.333333333333336</ele><time>2026-03-28T09:08:15.415Z</time></trkpt><trkpt lat="40.97766" lon="14.3956717"><ele>25.666666666666668</ele><time>2026-03-28T09:08:16.415Z</time></trkpt><trkpt lat="40.9777133" lon="14.3957567"><ele>26.0</ele><time>2026-03-28T09:08:17.416Z</time></trkpt><trkpt lat="40.977765" lon="14.3958433"><ele>26.333333333333336</ele><time>2026-03-28T09:08:18.418Z</time></trkpt><trkpt lat="40.97782" lon="14.39593"><ele>26.666666666666668</ele><time>2026-03-28T09:08:19.417Z</time></trkpt><trkpt lat="40.9778783" lon="14.396015"><ele>27.0</ele><time>2026-03-28T09:08:20.417Z</time></trkpt><trkpt lat="40.9779333" lon="14.3960967"><ele>27.0</ele><time>2026-03-28T09:08:21.417Z</time></trkpt><trkpt lat="40.9779883" lon="14.39618"><ele>27.0</ele><time>2026-03-28T09:08:22.414Z</time></trkpt><trkpt lat="40.9780433" lon="14.3962617"><ele>27.0</ele><time>2026-03-28T09:08:23.42Z</time></trkpt><trkpt lat="40.9780983" lon="14.3963467"><ele>27.0</ele><time>2026-03-28T09:08:24.416Z</time></trkpt><trkpt lat="40.978155" lon="14.39643"><ele>27.0</ele><time>2026-03-28T09:08:25.417Z</time></trkpt><trkpt lat="40.97821" lon="14.3965117"><ele>27.0</ele><time>2026-03-28T09:08:26.417Z</time></trkpt><trkpt lat="40.9782667" lon="14.3965933"><ele>27.0</ele><time>2026-03-28T09:08:27.415Z</time></trkpt><trkpt lat="40.9783217" lon="14.3966733"><ele>27.0</ele><time>2026-03-28T09:08:28.416Z</time></trkpt><trkpt lat="40.978375" lon="14.3967483"><ele>27.0</ele><time>2026-03-28T09:08:29.418Z</time></trkpt><trkpt lat="40.97843" lon="14.39683"><ele>27.0</ele><time>2026-03-28T09:08:30.418Z</time></trkpt><trkpt lat="40.978485" lon="14.3969117"><ele>27.0</ele><time>2026-03-28T09:08:31.415Z</time></trkpt><trkpt lat="40.9785383" lon="14.3969933"><ele>27.0</ele><time>2026-03-28T09:08:32.415Z</time></trkpt><trkpt lat="40.978595" lon="14.3970783"><ele>26.666666666666668</ele><time>2026-03-28T09:08:33.417Z</time></trkpt><trkpt lat="40.97865" lon="14.3971583"><ele>26.333333333333336</ele><time>2026-03-28T09:08:34.414Z</time></trkpt><trkpt lat="40.9787033" lon="14.3972383"><ele>26.0</ele><time>2026-03-28T09:08:35.417Z</time></trkpt><trkpt lat="40.9787567" lon="14.3973167"><ele>25.666666666666668</ele><time>2026-03-28T09:08:36.417Z</time></trkpt><trkpt lat="40.9788133" lon="14.3973967"><ele>25.333333333333336</ele><time>2026-03-28T09:08:37.415Z</time></trkpt><trkpt lat="40.97887" lon="14.3974767"><ele>25.0</ele><time>2026-03-28T09:08:38.416Z</time></trkpt><trkpt lat="40.9789267" lon="14.3975617"><ele>25.000000000000004</ele><time>2026-03-28T09:08:39.415Z</time></trkpt><trkpt lat="40.9789767" lon="14.39765"><ele>25.0</ele><time>2026-03-28T09:08:40.416Z</time></trkpt><trkpt lat="40.9790317" lon="14.3977317"><ele>25.0</ele><time>2026-03-28T09:08:41.419Z</time></trkpt><trkpt lat="40.9790867" lon="14.39781"><ele>25.0</ele><time>2026-03-28T09:08:42.417Z</time></trkpt><trkpt lat="40.9791417" lon="14.397895"><ele>25.000000000000004</ele><time>2026-03-28T09:08:43.418Z</time></trkpt><trkpt lat="40.9792" lon="14.3979733"><ele>25.0</ele><time>2026-03-28T09:08:44.415Z</time></trkpt><trkpt lat="40.9792567" lon="14.3980517"><ele>25.166666666666668</ele><time>2026-03-28T09:08:45.415Z</time></trkpt><trkpt lat="40.9793133" lon="14.398135"><ele>25.333333333333336</ele><time>2026-03-28T09:08:46.417Z</time></trkpt><trkpt lat="40.9793683" lon="14.3982167"><ele>25.5</ele><time>2026-03-28T09:08:47.416Z</time></trkpt><trkpt lat="40.9794233" lon="14.3983017"><ele>25.666666666666664</ele><time>2026-03-28T09:08:48.415Z</time></trkpt><trkpt lat="40.9794783" lon="14.3983883"><ele>25.833333333333332</ele><time>2026-03-28T09:08:49.417Z</time></trkpt><trkpt lat="40.9795333" lon="14.3984767"><ele>26.0</ele><time>2026-03-28T09:08:50.417Z</time></trkpt><trkpt lat="40.97959" lon="14.3985567"><ele>25.999999999999996</ele><time>2026-03-28T09:08:51.415Z</time></trkpt><trkpt lat="40.9796467" lon="14.3986367"><ele>26.0</ele><time>2026-03-28T09:08:52.417Z</time></trkpt><trkpt lat="40.9797" lon="14.39872"><ele>26.0</ele><time>2026-03-28T09:08:53.417Z</time></trkpt><trkpt lat="40.9797533" lon="14.3988033"><ele>26.0</ele><time>2026-03-28T09:08:54.415Z</time></trkpt><trkpt lat="40.97981" lon="14.3988917"><ele>25.999999999999996</ele><time>2026-03-28T09:08:55.417Z</time></trkpt><trkpt lat="40.979865" lon="14.39898"><ele>26.0</ele><time>2026-03-28T09:08:56.416Z</time></trkpt><trkpt lat="40.97992" lon="14.3990633"><ele>25.833333333333332</ele><time>2026-03-28T09:08:57.414Z</time></trkpt><trkpt lat="40.979975" lon="14.3991517"><ele>25.666666666666664</ele><time>2026-03-28T09:08:58.416Z</time></trkpt><trkpt lat="40.9800283" lon="14.39924"><ele>25.5</ele><time>2026-03-28T09:08:59.417Z</time></trkpt><trkpt lat="40.9800833" lon="14.3993267"><ele>25.333333333333336</ele><time>2026-03-28T09:09:00.418Z</time></trkpt><trkpt lat="40.98014" lon="14.3994133"><ele>25.166666666666668</ele><time>2026-03-28T09:09:01.419Z</time></trkpt><trkpt lat="40.9801983" lon="14.3994933"><ele>25.0</ele><time>2026-03-28T09:09:02.414Z</time></trkpt><trkpt lat="40.9802567" lon="14.3995783"><ele>25.000000000000004</ele><time>2026-03-28T09:09:03.414Z</time></trkpt><trkpt lat="40.9803133" lon="14.3996633"><ele>25.0</ele><time>2026-03-28T09:09:04.414Z</time></trkpt><trkpt lat="40.9803717" lon="14.3997483"><ele>25.0</ele><time>2026-03-28T09:09:05.417Z</time></trkpt><trkpt lat="40.9804267" lon="14.3998317"><ele>25.0</ele><time>2026-03-28T09:09:06.417Z</time></trkpt><trkpt lat="40.98048" lon="14.399915"><ele>25.000000000000004</ele><time>2026-03-28T09:09:07.415Z</time></trkpt><trkpt lat="40.98053" lon="14.3999967"><ele>25.0</ele><time>2026-03-28T09:09:08.416Z</time></trkpt><trkpt lat="40.98058" lon="14.4000767"><ele>25.28571428571429</ele><time>2026-03-28T09:09:09.414Z</time></trkpt><trkpt lat="40.98063" lon="14.4001567"><ele>25.571428571428573</ele><time>2026-03-28T09:09:10.417Z</time></trkpt><trkpt lat="40.9806783" lon="14.4002383"><ele>25.857142857142858</ele><time>2026-03-28T09:09:11.416Z</time></trkpt><trkpt lat="40.9807267" lon="14.4003117"><ele>26.142857142857146</ele><time>2026-03-28T09:09:12.416Z</time></trkpt><trkpt lat="40.9807733" lon="14.4003783"><ele>26.428571428571427</ele><time>2026-03-28T09:09:13.417Z</time></trkpt><trkpt lat="40.9808217" lon="14.4004483"><ele>26.714285714285715</ele><time>2026-03-28T09:09:14.417Z</time></trkpt><trkpt lat="40.980865" lon="14.400515"><ele>27.0</ele><time>2026-03-28T09:09:15.415Z</time></trkpt><trkpt lat="40.9809083" lon="14.4005833"><ele>27.0</ele><time>2026-03-28T09:09:16.415Z</time></trkpt><trkpt lat="40.9809483" lon="14.40065"><ele>27.0</ele><time>2026-03-28T09:09:17.416Z</time></trkpt><trkpt lat="40.9809883" lon="14.4007167"><ele>27.0</ele><time>2026-03-28T09:09:18.416Z</time></trkpt><trkpt lat="40.9810633" lon="14.4008267"><ele>27.0</ele><time>2026-03-28T09:09:20.416Z</time></trkpt><trkpt lat="40.981115" lon="14.40093"><ele>27.0</ele><time>2026-03-28T09:09:22.417Z</time></trkpt><trkpt lat="40.981085" lon="14.4010383"><ele>27.0</ele><time>2026-03-28T09:09:24.418Z</time></trkpt><trkpt lat="40.9810067" lon="14.40114"><ele>27.0</ele><time>2026-03-28T09:09:26.415Z</time></trkpt><trkpt lat="40.9809583" lon="14.4012"><ele>27.0</ele><time>2026-03-28T09:09:27.416Z</time></trkpt><trkpt lat="40.9809033" lon="14.4012633"><ele>27.0</ele><time>2026-03-28T09:09:28.415Z</time></trkpt><trkpt lat="40.9808467" lon="14.401335"><ele>27.0</ele><time>2026-03-28T09:09:29.416Z</time></trkpt><trkpt lat="40.98079" lon="14.4014033"><ele>27.0</ele><time>2026-03-28T09:09:30.415Z</time></trkpt><trkpt lat="40.980735" lon="14.4014733"><ele>27.0</ele><time>2026-03-28T09:09:31.414Z</time></trkpt><trkpt lat="40.9806733" lon="14.401545"><ele>27.142857142857142</ele><time>2026-03-28T09:09:32.415Z</time></trkpt><trkpt lat="40.9806133" lon="14.4016167"><ele>27.285714285714285</ele><time>2026-03-28T09:09:33.418Z</time></trkpt><trkpt lat="40.9805567" lon="14.4016833"><ele>27.42857142857143</ele><time>2026-03-28T09:09:34.417Z</time></trkpt><trkpt lat="40.9805067" lon="14.40175"><ele>27.57142857142857</ele><time>2026-03-28T09:09:35.417Z</time></trkpt><trkpt lat="40.980465" lon="14.4018267"><ele>27.714285714285715</ele><time>2026-03-28T09:09:36.413Z</time></trkpt><trkpt lat="40.9804183" lon="14.4018983"><ele>27.857142857142858</ele><time>2026-03-28T09:09:37.416Z</time></trkpt><trkpt lat="40.980365" lon="14.4019667"><ele>28.0</ele><time>2026-03-28T09:09:38.417Z</time></trkpt><trkpt lat="40.9803183" lon="14.402035"><ele>28.000000000000004</ele><time>2026-03-28T09:09:39.415Z</time></trkpt><trkpt lat="40.9802667" lon="14.4021"><ele>28.0</ele><time>2026-03-28T09:09:40.415Z</time></trkpt><trkpt lat="40.9802133" lon="14.4021667"><ele>28.0</ele><time>2026-03-28T09:09:41.417Z</time></trkpt><trkpt lat="40.9801583" lon="14.4022383"><ele>28.0</ele><time>2026-03-28T09:09:42.415Z</time></trkpt><trkpt lat="40.9801017" lon="14.4023033"><ele>28.000000000000004</ele><time>2026-03-28T09:09:43.417Z</time></trkpt><trkpt lat="40.980045" lon="14.40237"><ele>28.0</ele><time>2026-03-28T09:09:44.415Z</time></trkpt><trkpt lat="40.9799883" lon="14.40244"><ele>28.000000000000004</ele><time>2026-03-28T09:09:45.416Z</time></trkpt><trkpt lat="40.97993" lon="14.40251"><ele>28.0</ele><time>2026-03-28T09:09:46.415Z</time></trkpt><trkpt lat="40.9798767" lon="14.4025783"><ele>28.0</ele><time>2026-03-28T09:09:47.417Z</time></trkpt><trkpt lat="40.9798233" lon="14.4026467"><ele>28.0</ele><time>2026-03-28T09:09:48.417Z</time></trkpt><trkpt lat="40.9797617" lon="14.4027167"><ele>28.000000000000004</ele><time>2026-03-28T09:09:49.415Z</time></trkpt><trkpt lat="40.9797067" lon="14.40279"><ele>28.0</ele><time>2026-03-28T09:09:50.417Z</time></trkpt><trkpt lat="40.9796517" lon="14.40287"><ele>28.000000000000004</ele><time>2026-03-28T09:09:51.417Z</time></trkpt><trkpt lat="40.979605" lon="14.4029567"><ele>28.0</ele><time>2026-03-28T09:09:52.416Z</time></trkpt><trkpt lat="40.9795567" lon="14.40305"><ele>28.0</ele><time>2026-03-28T09:09:53.417Z</time></trkpt><trkpt lat="40.979515" lon="14.403145"><ele>28.0</ele><time>2026-03-28T09:09:54.416Z</time></trkpt><trkpt lat="40.9794783" lon="14.40324"><ele>28.000000000000004</ele><time>2026-03-28T09:09:55.416Z</time></trkpt><trkpt lat="40.979445" lon="14.40334"><ele>28.0</ele><time>2026-03-28T09:09:56.415Z</time></trkpt><trkpt lat="40.97941" lon="14.4034367"><ele>27.666666666666668</ele><time>2026-03-28T09:09:57.414Z</time></trkpt><trkpt lat="40.979375" lon="14.4035383"><ele>27.333333333333336</ele><time>2026-03-28T09:09:58.416Z</time></trkpt><trkpt lat="40.9793433" lon="14.4036433"><ele>27.0</ele><time>2026-03-28T09:09:59.417Z</time></trkpt><trkpt lat="40.9793117" lon="14.4037483"><ele>26.666666666666664</ele><time>2026-03-28T09:10:00.415Z</time></trkpt><trkpt lat="40.9792833" lon="14.4038483"><ele>26.333333333333332</ele><time>2026-03-28T09:10:01.417Z</time></trkpt><trkpt lat="40.979255" lon="14.403945"><ele>26.0</ele><time>2026-03-28T09:10:02.415Z</time></trkpt><trkpt lat="40.9792267" lon="14.4040433"><ele>25.999999999999996</ele><time>2026-03-28T09:10:03.417Z</time></trkpt><trkpt lat="40.9791983" lon="14.4041417"><ele>26.0</ele><time>2026-03-28T09:10:04.414Z</time></trkpt><trkpt lat="40.97917" lon="14.4042383"><ele>26.0</ele><time>2026-03-28T09:10:05.417Z</time></trkpt><trkpt lat="40.9791417" lon="14.4043367"><ele>26.0</ele><time>2026-03-28T09:10:06.417Z</time></trkpt><trkpt lat="40.9791117" lon="14.4044317"><ele>25.999999999999996</ele><time>2026-03-28T09:10:07.418Z</time></trkpt><trkpt lat="40.979085" lon="14.40453"><ele>26.0</ele><time>2026-03-28T09:10:08.417Z</time></trkpt><trkpt lat="40.9790567" lon="14.40463"><ele>26.166666666666664</ele><time>2026-03-28T09:10:09.414Z</time></trkpt><trkpt lat="40.979025" lon="14.40473"><ele>26.333333333333332</ele><time>2026-03-28T09:10:10.415Z</time></trkpt><trkpt lat="40.9789967" lon="14.4048317"><ele>26.5</ele><time>2026-03-28T09:10:11.417Z</time></trkpt><trkpt lat="40.9789667" lon="14.4049317"><ele>26.666666666666664</ele><time>2026-03-28T09:10:12.416Z</time></trkpt><trkpt lat="40.978935" lon="14.4050333"><ele>26.833333333333332</ele><time>2026-03-28T09:10:13.415Z</time></trkpt><trkpt lat="40.9789" lon="14.40513"><ele>27.0</ele><time>2026-03-28T09:10:14.419Z</time></trkpt><trkpt lat="40.9788683" lon="14.4052283"><ele>27.0</ele><time>2026-03-28T09:10:15.418Z</time></trkpt><trkpt lat="40.978835" lon="14.405325"><ele>27.0</ele><time>2026-03-28T09:10:16.417Z</time></trkpt><trkpt lat="40.9788" lon="14.4054267"><ele>27.0</ele><time>2026-03-28T09:10:17.416Z</time></trkpt><trkpt lat="40.9787667" lon="14.4055233"><ele>27.0</ele><time>2026-03-28T09:10:18.417Z</time></trkpt><trkpt lat="40.9787333" lon="14.4056233"><ele>27.0</ele><time>2026-03-28T09:10:19.416Z</time></trkpt><trkpt lat="40.9786967" lon="14.4057233"><ele>27.0</ele><time>2026-03-28T09:10:20.416Z</time></trkpt><trkpt lat="40.97866" lon="14.4058217"><ele>27.0</ele><time>2026-03-28T09:10:21.417Z</time></trkpt><trkpt lat="40.9786233" lon="14.4059217"><ele>27.0</ele><time>2026-03-28T09:10:22.416Z</time></trkpt><trkpt lat="40.9785867" lon="14.4060217"><ele>27.0</ele><time>2026-03-28T09:10:23.417Z</time></trkpt><trkpt lat="40.9785517" lon="14.4061233"><ele>27.0</ele><time>2026-03-28T09:10:24.416Z</time></trkpt><trkpt lat="40.9785183" lon="14.4062267"><ele>27.0</ele><time>2026-03-28T09:10:25.417Z</time></trkpt><trkpt lat="40.978485" lon="14.4063283"><ele>27.0</ele><time>2026-03-28T09:10:26.415Z</time></trkpt><trkpt lat="40.97845" lon="14.4064233"><ele>27.0</ele><time>2026-03-28T09:10:27.418Z</time></trkpt><trkpt lat="40.978415" lon="14.4065183"><ele>27.0</ele><time>2026-03-28T09:10:28.417Z</time></trkpt><trkpt lat="40.978385" lon="14.4066183"><ele>27.0</ele><time>2026-03-28T09:10:29.419Z</time></trkpt><trkpt lat="40.97835" lon="14.40672"><ele>27.0</ele><time>2026-03-28T09:10:30.415Z</time></trkpt><trkpt lat="40.9783167" lon="14.4068183"><ele>27.0</ele><time>2026-03-28T09:10:31.416Z</time></trkpt><trkpt lat="40.9782833" lon="14.4069183"><ele>27.0</ele><time>2026-03-28T09:10:32.418Z</time></trkpt><trkpt lat="40.9782483" lon="14.40702"><ele>27.333333333333332</ele><time>2026-03-28T09:10:33.415Z</time></trkpt><trkpt lat="40.978215" lon="14.4071183"><ele>27.666666666666664</ele><time>2026-03-28T09:10:34.419Z</time></trkpt><trkpt lat="40.97818" lon="14.407215"><ele>28.0</ele><time>2026-03-28T09:10:35.415Z</time></trkpt><trkpt lat="40.97815" lon="14.4073167"><ele>28.333333333333332</ele><time>2026-03-28T09:10:36.418Z</time></trkpt><trkpt lat="40.9781217" lon="14.40742"><ele>28.666666666666664</ele><time>2026-03-28T09:10:37.417Z</time></trkpt><trkpt lat="40.978095" lon="14.407515"><ele>29.0</ele><time>2026-03-28T09:10:38.415Z</time></trkpt><trkpt lat="40.9780617" lon="14.4076117"><ele>28.999999999999996</ele><time>2026-03-28T09:10:39.415Z</time></trkpt><trkpt lat="40.9780267" lon="14.4077083"><ele>29.0</ele><time>2026-03-28T09:10:40.415Z</time></trkpt><trkpt lat="40.9779917" lon="14.4078083"><ele>29.0</ele><time>2026-03-28T09:10:41.419Z</time></trkpt><trkpt lat="40.9779567" lon="14.407905"><ele>29.0</ele><time>2026-03-28T09:10:42.417Z</time></trkpt><trkpt lat="40.97792" lon="14.4080033"><ele>28.999999999999996</ele><time>2026-03-28T09:10:43.415Z</time></trkpt><trkpt lat="40.9778817" lon="14.4080967"><ele>29.0</ele><time>2026-03-28T09:10:44.416Z</time></trkpt><trkpt lat="40.9778483" lon="14.4081933"><ele>29.166666666666664</ele><time>2026-03-28T09:10:45.415Z</time></trkpt><trkpt lat="40.9778167" lon="14.4082867"><ele>29.333333333333332</ele><time>2026-03-28T09:10:46.417Z</time></trkpt><trkpt lat="40.9777817" lon="14.4083783"><ele>29.5</ele><time>2026-03-28T09:10:47.417Z</time></trkpt><trkpt lat="40.9777433" lon="14.408475"><ele>29.666666666666664</ele><time>2026-03-28T09:10:48.416Z</time></trkpt><trkpt lat="40.977705" lon="14.40857"><ele>29.833333333333332</ele><time>2026-03-28T09:10:49.417Z</time></trkpt><trkpt lat="40.9776667" lon="14.408665"><ele>30.0</ele><time>2026-03-28T09:10:50.415Z</time></trkpt><trkpt lat="40.97763" lon="14.40876"><ele>30.0</ele><time>2026-03-28T09:10:51.417Z</time></trkpt><trkpt lat="40.9775933" lon="14.4088533"><ele>30.0</ele><time>2026-03-28T09:10:52.415Z</time></trkpt><trkpt lat="40.9775583" lon="14.4089483"><ele>30.0</ele><time>2026-03-28T09:10:53.418Z</time></trkpt><trkpt lat="40.9775233" lon="14.4090467"><ele>30.0</ele><time>2026-03-28T09:10:54.418Z</time></trkpt><trkpt lat="40.97749" lon="14.409145"><ele>30.0</ele><time>2026-03-28T09:10:55.419Z</time></trkpt><trkpt lat="40.9774567" lon="14.4092417"><ele>30.0</ele><time>2026-03-28T09:10:56.419Z</time></trkpt><trkpt lat="40.977425" lon="14.40934"><ele>29.833333333333332</ele><time>2026-03-28T09:10:57.416Z</time></trkpt><trkpt lat="40.977395" lon="14.409435"><ele>29.666666666666664</ele><time>2026-03-28T09:10:58.419Z</time></trkpt><trkpt lat="40.9773617" lon="14.4095333"><ele>29.5</ele><time>2026-03-28T09:10:59.417Z</time></trkpt><trkpt lat="40.9773317" lon="14.40963"><ele>29.333333333333332</ele><time>2026-03-28T09:11:00.418Z</time></trkpt><trkpt lat="40.9773" lon="14.40973"><ele>29.166666666666664</ele><time>2026-03-28T09:11:01.419Z</time></trkpt><trkpt lat="40.97727" lon="14.4098317"><ele>29.0</ele><time>2026-03-28T09:11:02.417Z</time></trkpt><trkpt lat="40.9772383" lon="14.409935"><ele>28.833333333333332</ele><time>2026-03-28T09:11:03.417Z</time></trkpt><trkpt lat="40.977205" lon="14.4100333"><ele>28.666666666666664</ele><time>2026-03-28T09:11:04.419Z</time></trkpt><trkpt lat="40.97717" lon="14.4101317"><ele>28.5</ele><time>2026-03-28T09:11:05.415Z</time></trkpt><trkpt lat="40.9771383" lon="14.4102317"><ele>28.333333333333336</ele><time>2026-03-28T09:11:06.417Z</time></trkpt><trkpt lat="40.9771083" lon="14.4103333"><ele>28.166666666666668</ele><time>2026-03-28T09:11:07.415Z</time></trkpt><trkpt lat="40.9770783" lon="14.4104333"><ele>28.0</ele><time>2026-03-28T09:11:08.415Z</time></trkpt><trkpt lat="40.9770483" lon="14.4105333"><ele>28.000000000000004</ele><time>2026-03-28T09:11:09.415Z</time></trkpt><trkpt lat="40.9770183" lon="14.4106317"><ele>28.0</ele><time>2026-03-28T09:11:10.418Z</time></trkpt><trkpt lat="40.9769867" lon="14.41073"><ele>28.0</ele><time>2026-03-28T09:11:11.414Z</time></trkpt><trkpt lat="40.9769567" lon="14.4108267"><ele>28.0</ele><time>2026-03-28T09:11:12.415Z</time></trkpt><trkpt lat="40.97693" lon="14.410925"><ele>28.000000000000004</ele><time>2026-03-28T09:11:13.415Z</time></trkpt><trkpt lat="40.976905" lon="14.4110233"><ele>28.0</ele><time>2026-03-28T09:11:14.416Z</time></trkpt><trkpt lat="40.9768767" lon="14.41112"><ele>28.000000000000004</ele><time>2026-03-28T09:11:15.418Z</time></trkpt><trkpt lat="40.97685" lon="14.41122"><ele>28.0</ele><time>2026-03-28T09:11:16.415Z</time></trkpt><trkpt lat="40.97682" lon="14.4113183"><ele>28.0</ele><time>2026-03-28T09:11:17.415Z</time></trkpt><trkpt lat="40.9767933" lon="14.411415"><ele>28.0</ele><time>2026-03-28T09:11:18.417Z</time></trkpt><trkpt lat="40.9767633" lon="14.41151"><ele>28.000000000000004</ele><time>2026-03-28T09:11:19.416Z</time></trkpt><trkpt lat="40.9767333" lon="14.4116083"><ele>28.0</ele><time>2026-03-28T09:11:20.417Z</time></trkpt><trkpt lat="40.9767083" lon="14.411705"><ele>28.000000000000004</ele><time>2026-03-28T09:11:21.415Z</time></trkpt><trkpt lat="40.976685" lon="14.4118017"><ele>28.0</ele><time>2026-03-28T09:11:22.417Z</time></trkpt><trkpt lat="40.97666" lon="14.4118983"><ele>28.0</ele><time>2026-03-28T09:11:23.418Z</time></trkpt><trkpt lat="40.9766317" lon="14.4119917"><ele>28.0</ele><time>2026-03-28T09:11:24.417Z</time></trkpt><trkpt lat="40.976605" lon="14.412085"><ele>28.000000000000004</ele><time>2026-03-28T09:11:25.417Z</time></trkpt><trkpt lat="40.97658" lon="14.41218"><ele>28.0</ele><time>2026-03-28T09:11:26.418Z</time></trkpt><trkpt lat="40.9765567" lon="14.412275"><ele>28.166666666666668</ele><time>2026-03-28T09:11:27.415Z</time></trkpt><trkpt lat="40.9765333" lon="14.4123667"><ele>28.333333333333336</ele><time>2026-03-28T09:11:28.415Z</time></trkpt><trkpt lat="40.9765083" lon="14.4124567"><ele>28.5</ele><time>2026-03-28T09:11:29.419Z</time></trkpt><trkpt lat="40.9764867" lon="14.412545"><ele>28.666666666666664</ele><time>2026-03-28T09:11:30.416Z</time></trkpt><trkpt lat="40.9764633" lon="14.412625"><ele>28.833333333333332</ele><time>2026-03-28T09:11:31.416Z</time></trkpt><trkpt lat="40.9764267" lon="14.4127683"><ele>29.0</ele><time>2026-03-28T09:11:33.415Z</time></trkpt><trkpt lat="40.97639" lon="14.412885"><ele>29.0</ele><time>2026-03-28T09:11:35.418Z</time></trkpt><trkpt lat="40.9763583" lon="14.4129817"><ele>29.0</ele><time>2026-03-28T09:11:37.419Z</time></trkpt><trkpt lat="40.97632" lon="14.4130883"><ele>29.0</ele><time>2026-03-28T09:11:39.418Z</time></trkpt><trkpt lat="40.97628" lon="14.4132217"><ele>29.0</ele><time>2026-03-28T09:11:41.415Z</time></trkpt><trkpt lat="40.97623" lon="14.4133533"><ele>29.0</ele><time>2026-03-28T09:11:43.418Z</time></trkpt><trkpt lat="40.9761883" lon="14.4134867"><ele>29.166666666666664</ele><time>2026-03-28T09:11:45.417Z</time></trkpt><trkpt lat="40.9761633" lon="14.4136217"><ele>29.333333333333332</ele><time>2026-03-28T09:11:47.416Z</time></trkpt><trkpt lat="40.97614" lon="14.4137267"><ele>29.5</ele><time>2026-03-28T09:11:49.415Z</time></trkpt><trkpt lat="40.9761033" lon="14.413835"><ele>29.666666666666664</ele><time>2026-03-28T09:11:52.415Z</time></trkpt><trkpt lat="40.9760683" lon="14.413935"><ele>29.833333333333332</ele><time>2026-03-28T09:11:55.416Z</time></trkpt><trkpt lat="40.9760533" lon="14.41405"><ele>30.0</ele><time>2026-03-28T09:12:46.413Z</time></trkpt><trkpt lat="40.97608" lon="14.41413"><ele>30.166666666666668</ele><time>2026-03-28T09:12:48.414Z</time></trkpt><trkpt lat="40.9761183" lon="14.4142117"><ele>30.333333333333336</ele><time>2026-03-28T09:12:50.414Z</time></trkpt><trkpt lat="40.976195" lon="14.41427"><ele>30.5</ele><time>2026-03-28T09:12:52.415Z</time></trkpt><trkpt lat="40.9763083" lon="14.4143033"><ele>30.666666666666668</ele><time>2026-03-28T09:12:54.415Z</time></trkpt><trkpt lat="40.97637" lon="14.4143233"><ele>30.833333333333336</ele><time>2026-03-28T09:12:55.414Z</time></trkpt><trkpt lat="40.976435" lon="14.4143467"><ele>31.0</ele><time>2026-03-28T09:12:56.414Z</time></trkpt><trkpt lat="40.97655" lon="14.4144017"><ele>31.000000000000004</ele><time>2026-03-28T09:12:58.414Z</time></trkpt><trkpt lat="40.97667" lon="14.4144417"><ele>31.0</ele><time>2026-03-28T09:13:00.414Z</time></trkpt><trkpt lat="40.9767417" lon="14.41446"><ele>31.0</ele><time>2026-03-28T09:13:01.414Z</time></trkpt><trkpt lat="40.9768117" lon="14.4144833"><ele>31.0</ele><time>2026-03-28T09:13:02.414Z</time></trkpt><trkpt lat="40.9768817" lon="14.414515"><ele>31.000000000000004</ele><time>2026-03-28T09:13:03.413Z</time></trkpt><trkpt lat="40.9769517" lon="14.4145417"><ele>31.0</ele><time>2026-03-28T09:13:04.414Z</time></trkpt><trkpt lat="40.97702" lon="14.4145683"><ele>31.0</ele><time>2026-03-28T09:13:05.414Z</time></trkpt><trkpt lat="40.97709" lon="14.4145967"><ele>31.000000000000004</ele><time>2026-03-28T09:13:06.414Z</time></trkpt><trkpt lat="40.97716" lon="14.414625"><ele>31.0</ele><time>2026-03-28T09:13:07.413Z</time></trkpt><trkpt lat="40.9772317" lon="14.4146533"><ele>31.0</ele><time>2026-03-28T09:13:08.414Z</time></trkpt><trkpt lat="40.9773033" lon="14.4146783"><ele>31.000000000000004</ele><time>2026-03-28T09:13:09.412Z</time></trkpt><trkpt lat="40.9773767" lon="14.4147"><ele>31.0</ele><time>2026-03-28T09:13:10.414Z</time></trkpt><trkpt lat="40.9774517" lon="14.4147233"><ele>31.0</ele><time>2026-03-28T09:13:11.415Z</time></trkpt><trkpt lat="40.9775233" lon="14.4147517"><ele>31.0</ele><time>2026-03-28T09:13:12.414Z</time></trkpt><trkpt lat="40.9775967" lon="14.414775"><ele>31.000000000000004</ele><time>2026-03-28T09:13:13.414Z</time></trkpt><trkpt lat="40.9776667" lon="14.414795"><ele>31.0</ele><time>2026-03-28T09:13:14.415Z</time></trkpt><trkpt lat="40.977735" lon="14.4148167"><ele>31.0</ele><time>2026-03-28T09:13:15.414Z</time></trkpt><trkpt lat="40.97781" lon="14.41484"><ele>31.000000000000004</ele><time>2026-03-28T09:13:16.414Z</time></trkpt><trkpt lat="40.977885" lon="14.4148633"><ele>31.0</ele><time>2026-03-28T09:13:17.414Z</time></trkpt><trkpt lat="40.97796" lon="14.4148883"><ele>31.0</ele><time>2026-03-28T09:13:18.414Z</time></trkpt><trkpt lat="40.9780317" lon="14.4149167"><ele>31.000000000000004</ele><time>2026-03-28T09:13:19.414Z</time></trkpt><trkpt lat="40.9781017" lon="14.4149417"><ele>31.0</ele><time>2026-03-28T09:13:20.414Z</time></trkpt><trkpt lat="40.9781733" lon="14.4149683"><ele>31.0</ele><time>2026-03-28T09:13:21.415Z</time></trkpt><trkpt lat="40.9782483" lon="14.414995"><ele>31.0</ele><time>2026-03-28T09:13:22.414Z</time></trkpt><trkpt lat="40.9783217" lon="14.4150233"><ele>31.000000000000004</ele><time>2026-03-28T09:13:23.415Z</time></trkpt><trkpt lat="40.9783983" lon="14.415055"><ele>31.0</ele><time>2026-03-28T09:13:24.416Z</time></trkpt><trkpt lat="40.9784717" lon="14.4150833"><ele>30.833333333333336</ele><time>2026-03-28T09:13:25.414Z</time></trkpt><trkpt lat="40.9785467" lon="14.41512"><ele>30.666666666666668</ele><time>2026-03-28T09:13:26.414Z</time></trkpt><trkpt lat="40.9786183" lon="14.4151533"><ele>30.5</ele><time>2026-03-28T09:13:27.414Z</time></trkpt><trkpt lat="40.9786917" lon="14.415185"><ele>30.333333333333336</ele><time>2026-03-28T09:13:28.414Z</time></trkpt><trkpt lat="40.978765" lon="14.4152133"><ele>30.166666666666668</ele><time>2026-03-28T09:13:29.416Z</time></trkpt><trkpt lat="40.9788383" lon="14.4152417"><ele>30.0</ele><time>2026-03-28T09:13:30.414Z</time></trkpt><trkpt lat="40.9789133" lon="14.41527"><ele>30.0</ele><time>2026-03-28T09:13:31.414Z</time></trkpt><trkpt lat="40.9789883" lon="14.4153"><ele>30.0</ele><time>2026-03-28T09:13:32.414Z</time></trkpt><trkpt lat="40.979065" lon="14.4153267"><ele>30.0</ele><time>2026-03-28T09:13:33.414Z</time></trkpt><trkpt lat="40.97914" lon="14.41535"><ele>30.0</ele><time>2026-03-28T09:13:34.414Z</time></trkpt><trkpt lat="40.979215" lon="14.4153733"><ele>30.0</ele><time>2026-03-28T09:13:35.414Z</time></trkpt><trkpt lat="40.97929" lon="14.415395"><ele>30.0</ele><time>2026-03-28T09:13:36.414Z</time></trkpt><trkpt lat="40.9793617" lon="14.4154217"><ele>30.142857142857146</ele><time>2026-03-28T09:13:37.415Z</time></trkpt><trkpt lat="40.97943" lon="14.4154433"><ele>30.285714285714285</ele><time>2026-03-28T09:13:38.414Z</time></trkpt><trkpt lat="40.9794983" lon="14.415465"><ele>30.42857142857143</ele><time>2026-03-28T09:13:39.414Z</time></trkpt><trkpt lat="40.979565" lon="14.4154883"><ele>30.571428571428573</ele><time>2026-03-28T09:13:40.415Z</time></trkpt><trkpt lat="40.97963" lon="14.4155117"><ele>30.714285714285715</ele><time>2026-03-28T09:13:41.414Z</time></trkpt><trkpt lat="40.9796933" lon="14.415535"><ele>30.857142857142858</ele><time>2026-03-28T09:13:42.415Z</time></trkpt><trkpt lat="40.9797567" lon="14.4155583"><ele>31.0</ele><time>2026-03-28T09:13:43.414Z</time></trkpt><trkpt lat="40.9798217" lon="14.4155883"><ele>31.142857142857146</ele><time>2026-03-28T09:13:44.414Z</time></trkpt><trkpt lat="40.9798883" lon="14.4156167"><ele>31.28571428571429</ele><time>2026-03-28T09:13:45.414Z</time></trkpt><trkpt lat="40.9799517" lon="14.4156417"><ele>31.42857142857143</ele><time>2026-03-28T09:13:46.414Z</time></trkpt><trkpt lat="40.9800117" lon="14.4156683"><ele>31.57142857142857</ele><time>2026-03-28T09:13:47.414Z</time></trkpt><trkpt lat="40.9800783" lon="14.4157067"><ele>31.71428571428571</ele><time>2026-03-28T09:13:48.414Z</time></trkpt><trkpt lat="40.9801467" lon="14.4157417"><ele>31.857142857142854</ele><time>2026-03-28T09:13:49.414Z</time></trkpt><trkpt lat="40.9802167" lon="14.41577"><ele>32.0</ele><time>2026-03-28T09:13:50.414Z</time></trkpt><trkpt lat="40.9802867" lon="14.4157917"><ele>32.14285714285714</ele><time>2026-03-28T09:13:51.413Z</time></trkpt><trkpt lat="40.9803583" lon="14.4158133"><ele>32.285714285714285</ele><time>2026-03-28T09:13:52.413Z</time></trkpt><trkpt lat="40.9804317" lon="14.4158383"><ele>32.42857142857143</ele><time>2026-03-28T09:13:53.414Z</time></trkpt><trkpt lat="40.9805033" lon="14.4158617"><ele>32.57142857142857</ele><time>2026-03-28T09:13:54.414Z</time></trkpt><trkpt lat="40.9805733" lon="14.4158867"><ele>32.714285714285715</ele><time>2026-03-28T09:13:55.415Z</time></trkpt><trkpt lat="40.9806467" lon="14.4159117"><ele>32.857142857142854</ele><time>2026-03-28T09:13:56.414Z</time></trkpt><trkpt lat="40.980715" lon="14.4159417"><ele>33.0</ele><time>2026-03-28T09:13:57.414Z</time></trkpt><trkpt lat="40.980785" lon="14.4159717"><ele>33.166666666666664</ele><time>2026-03-28T09:13:58.414Z</time></trkpt><trkpt lat="40.980855" lon="14.4159983"><ele>33.333333333333336</ele><time>2026-03-28T09:13:59.413Z</time></trkpt><trkpt lat="40.9809267" lon="14.416025"><ele>33.5</ele><time>2026-03-28T09:14:00.414Z</time></trkpt><trkpt lat="40.9809967" lon="14.41605"><ele>33.66666666666667</ele><time>2026-03-28T09:14:01.414Z</time></trkpt><trkpt lat="40.9810717" lon="14.4160783"><ele>33.833333333333336</ele><time>2026-03-28T09:14:02.414Z</time></trkpt><trkpt lat="40.9811467" lon="14.4161067"><ele>34.0</ele><time>2026-03-28T09:14:03.413Z</time></trkpt><trkpt lat="40.9812233" lon="14.4161333"><ele>34.0</ele><time>2026-03-28T09:14:04.414Z</time></trkpt><trkpt lat="40.9813033" lon="14.4161633"><ele>34.0</ele><time>2026-03-28T09:14:05.416Z</time></trkpt><trkpt lat="40.9813817" lon="14.4161933"><ele>34.0</ele><time>2026-03-28T09:14:06.414Z</time></trkpt><trkpt lat="40.98146" lon="14.4162233"><ele>34.0</ele><time>2026-03-28T09:14:07.413Z</time></trkpt><trkpt lat="40.9815383" lon="14.4162533"><ele>34.0</ele><time>2026-03-28T09:14:08.414Z</time></trkpt><trkpt lat="40.9816133" lon="14.41628"><ele>34.0</ele><time>2026-03-28T09:14:09.415Z</time></trkpt><trkpt lat="40.981685" lon="14.4163033"><ele>33.833333333333336</ele><time>2026-03-28T09:14:10.413Z</time></trkpt><trkpt lat="40.9817583" lon="14.416325"><ele>33.66666666666667</ele><time>2026-03-28T09:14:11.415Z</time></trkpt><trkpt lat="40.9818317" lon="14.4163467"><ele>33.5</ele><time>2026-03-28T09:14:12.414Z</time></trkpt><trkpt lat="40.9819017" lon="14.4163717"><ele>33.333333333333336</ele><time>2026-03-28T09:14:13.415Z</time></trkpt><trkpt lat="40.9819717" lon="14.41639"><ele>33.166666666666664</ele><time>2026-03-28T09:14:14.414Z</time></trkpt><trkpt lat="40.9820383" lon="14.4164317"><ele>33.0</ele><time>2026-03-28T09:14:15.415Z</time></trkpt><trkpt lat="40.98213" lon="14.41645"><ele>33.0</ele><time>2026-03-28T09:14:16.414Z</time></trkpt><trkpt lat="40.9822" lon="14.4164683"><ele>33.0</ele><time>2026-03-28T09:14:17.414Z</time></trkpt><trkpt lat="40.9822817" lon="14.4165083"><ele>33.0</ele><time>2026-03-28T09:14:18.414Z</time></trkpt><trkpt lat="40.98236" lon="14.4165433"><ele>33.0</ele><time>2026-03-28T09:14:19.413Z</time></trkpt><trkpt lat="40.9824317" lon="14.41658"><ele>33.0</ele><time>2026-03-28T09:14:20.414Z</time></trkpt><trkpt lat="40.9825017" lon="14.416605"><ele>33.0</ele><time>2026-03-28T09:14:21.414Z</time></trkpt><trkpt lat="40.9825733" lon="14.4166283"><ele>32.857142857142854</ele><time>2026-03-28T09:14:22.414Z</time></trkpt><trkpt lat="40.9826383" lon="14.4166433"><ele>32.714285714285715</ele><time>2026-03-28T09:14:23.414Z</time></trkpt><trkpt lat="40.9827067" lon="14.416665"><ele>32.57142857142857</ele><time>2026-03-28T09:14:24.414Z</time></trkpt><trkpt lat="40.9827767" lon="14.4166867"><ele>32.42857142857143</ele><time>2026-03-28T09:14:25.414Z</time></trkpt><trkpt lat="40.9828467" lon="14.4167167"><ele>32.285714285714285</ele><time>2026-03-28T09:14:26.414Z</time></trkpt><trkpt lat="40.9829167" lon="14.41675"><ele>32.14285714285714</ele><time>2026-03-28T09:14:27.414Z</time></trkpt><trkpt lat="40.9829883" lon="14.41678"><ele>32.0</ele><time>2026-03-28T09:14:28.414Z</time></trkpt><trkpt lat="40.9830567" lon="14.4168083"><ele>32.0</ele><time>2026-03-28T09:14:29.414Z</time></trkpt><trkpt lat="40.9831267" lon="14.4168317"><ele>31.999999999999996</ele><time>2026-03-28T09:14:30.414Z</time></trkpt><trkpt lat="40.9831967" lon="14.4168533"><ele>32.0</ele><time>2026-03-28T09:14:31.416Z</time></trkpt><trkpt lat="40.98327" lon="14.4168833"><ele>32.0</ele><time>2026-03-28T09:14:32.416Z</time></trkpt><trkpt lat="40.9833433" lon="14.416915"><ele>31.999999999999996</ele><time>2026-03-28T09:14:33.416Z</time></trkpt><trkpt lat="40.9834167" lon="14.4169433"><ele>32.0</ele><time>2026-03-28T09:14:34.416Z</time></trkpt><trkpt lat="40.983485" lon="14.4169717"><ele>32.0</ele><time>2026-03-28T09:14:35.416Z</time></trkpt><trkpt lat="40.9835567" lon="14.417"><ele>32.42857142857143</ele><time>2026-03-28T09:14:36.416Z</time></trkpt><trkpt lat="40.9836267" lon="14.417025"><ele>32.857142857142854</ele><time>2026-03-28T09:14:37.415Z</time></trkpt><trkpt lat="40.9836983" lon="14.4170467"><ele>33.285714285714285</ele><time>2026-03-28T09:14:38.415Z</time></trkpt><trkpt lat="40.98377" lon="14.41707"><ele>33.714285714285715</ele><time>2026-03-28T09:14:39.414Z</time></trkpt><trkpt lat="40.983845" lon="14.4170967"><ele>34.14285714285714</ele><time>2026-03-28T09:14:40.415Z</time></trkpt><trkpt lat="40.9839183" lon="14.417125"><ele>34.57142857142857</ele><time>2026-03-28T09:14:41.414Z</time></trkpt><trkpt lat="40.9839883" lon="14.4171483"><ele>35.0</ele><time>2026-03-28T09:14:42.414Z</time></trkpt><trkpt lat="40.9840567" lon="14.4171633"><ele>35.2</ele><time>2026-03-28T09:14:43.414Z</time></trkpt><trkpt lat="40.9841833" lon="14.417195"><ele>35.4</ele><time>2026-03-28T09:14:45.415Z</time></trkpt><trkpt lat="40.9842517" lon="14.4172133"><ele>35.6</ele><time>2026-03-28T09:14:46.414Z</time></trkpt><trkpt lat="40.9843183" lon="14.4172333"><ele>35.8</ele><time>2026-03-28T09:14:47.413Z</time></trkpt><trkpt lat="40.984385" lon="14.4172517"><ele>36.0</ele><time>2026-03-28T09:14:48.414Z</time></trkpt><trkpt lat="40.9845083" lon="14.417285"><ele>36.0</ele><time>2026-03-28T09:14:50.414Z</time></trkpt><trkpt lat="40.9846" lon="14.4173117"><ele>36.0</ele><time>2026-03-28T09:14:51.414Z</time></trkpt><trkpt lat="40.9846767" lon="14.4173533"><ele>36.0</ele><time>2026-03-28T09:14:52.413Z</time></trkpt><trkpt lat="40.9847433" lon="14.417385"><ele>36.0</ele><time>2026-03-28T09:14:53.414Z</time></trkpt><trkpt lat="40.98482" lon="14.41738"><ele>36.0</ele><time>2026-03-28T09:14:54.415Z</time></trkpt><trkpt lat="40.9848917" lon="14.41737"><ele>36.0</ele><time>2026-03-28T09:14:55.415Z</time></trkpt><trkpt lat="40.9849617" lon="14.4174333"><ele>36.333333333333336</ele><time>2026-03-28T09:14:56.415Z</time></trkpt><trkpt lat="40.9850933" lon="14.4175083"><ele>36.666666666666664</ele><time>2026-03-28T09:14:58.414Z</time></trkpt><trkpt lat="40.98516" lon="14.4175267"><ele>37.0</ele><time>2026-03-28T09:14:59.415Z</time></trkpt><trkpt lat="40.985225" lon="14.417545"><ele>37.33333333333333</ele><time>2026-03-28T09:15:00.416Z</time></trkpt><trkpt lat="40.9852933" lon="14.41757"><ele>37.666666666666664</ele><time>2026-03-28T09:15:01.414Z</time></trkpt><trkpt lat="40.985365" lon="14.4176017"><ele>38.0</ele><time>2026-03-28T09:15:02.414Z</time></trkpt><trkpt lat="40.9854333" lon="14.4176367"><ele>38.0</ele><time>2026-03-28T09:15:03.414Z</time></trkpt><trkpt lat="40.985505" lon="14.4176733"><ele>38.0</ele><time>2026-03-28T09:15:04.414Z</time></trkpt><trkpt lat="40.9855783" lon="14.4177017"><ele>38.0</ele><time>2026-03-28T09:15:05.414Z</time></trkpt><trkpt lat="40.9856483" lon="14.417735"><ele>38.0</ele><time>2026-03-28T09:15:06.414Z</time></trkpt><trkpt lat="40.9857183" lon="14.4177667"><ele>38.0</ele><time>2026-03-28T09:15:07.414Z</time></trkpt><trkpt lat="40.9857883" lon="14.4177933"><ele>38.0</ele><time>2026-03-28T09:15:08.415Z</time></trkpt><trkpt lat="40.9858617" lon="14.4178217"><ele>38.0</ele><time>2026-03-28T09:15:09.414Z</time></trkpt><trkpt lat="40.9859317" lon="14.41785"><ele>38.0</ele><time>2026-03-28T09:15:10.413Z</time></trkpt><trkpt lat="40.986" lon="14.4178717"><ele>38.0</ele><time>2026-03-28T09:15:11.414Z</time></trkpt><trkpt lat="40.9860667" lon="14.41789"><ele>38.0</ele><time>2026-03-28T09:15:12.414Z</time></trkpt><trkpt lat="40.9861333" lon="14.417915"><ele>38.0</ele><time>2026-03-28T09:15:13.414Z</time></trkpt><trkpt lat="40.9862017" lon="14.4179367"><ele>38.0</ele><time>2026-03-28T09:15:14.414Z</time></trkpt><trkpt lat="40.98627" lon="14.4179517"><ele>38.0</ele><time>2026-03-28T09:15:15.414Z</time></trkpt><trkpt lat="40.986335" lon="14.417975"><ele>38.0</ele><time>2026-03-28T09:15:16.414Z</time></trkpt><trkpt lat="40.986405" lon="14.4179867"><ele>38.0</ele><time>2026-03-28T09:15:17.414Z</time></trkpt><trkpt lat="40.986475" lon="14.418005"><ele>38.0</ele><time>2026-03-28T09:15:18.414Z</time></trkpt><trkpt lat="40.986545" lon="14.4180217"><ele>38.0</ele><time>2026-03-28T09:15:19.414Z</time></trkpt><trkpt lat="40.9866183" lon="14.4180533"><ele>38.0</ele><time>2026-03-28T09:15:20.414Z</time></trkpt><trkpt lat="40.9866933" lon="14.4180833"><ele>38.0</ele><time>2026-03-28T09:15:21.414Z</time></trkpt><trkpt lat="40.9867683" lon="14.4181067"><ele>38.0</ele><time>2026-03-28T09:15:22.414Z</time></trkpt><trkpt lat="40.98684" lon="14.4181317"><ele>38.285714285714285</ele><time>2026-03-28T09:15:23.414Z</time></trkpt><trkpt lat="40.98691" lon="14.4181633"><ele>38.57142857142858</ele><time>2026-03-28T09:15:24.414Z</time></trkpt><trkpt lat="40.9869833" lon="14.4181967"><ele>38.85714285714286</ele><time>2026-03-28T09:15:25.414Z</time></trkpt><trkpt lat="40.987055" lon="14.418225"><ele>39.14285714285714</ele><time>2026-03-28T09:15:26.414Z</time></trkpt><trkpt lat="40.98712" lon="14.4182367"><ele>39.42857142857143</ele><time>2026-03-28T09:15:27.414Z</time></trkpt><trkpt lat="40.9871883" lon="14.418255"><ele>39.714285714285715</ele><time>2026-03-28T09:15:28.416Z</time></trkpt><trkpt lat="40.9872583" lon="14.4182833"><ele>40.0</ele><time>2026-03-28T09:15:29.413Z</time></trkpt><trkpt lat="40.9873233" lon="14.4183"><ele>40.0</ele><time>2026-03-28T09:15:30.414Z</time></trkpt><trkpt lat="40.98739" lon="14.4183317"><ele>40.0</ele><time>2026-03-28T09:15:31.414Z</time></trkpt><trkpt lat="40.98746" lon="14.4183633"><ele>40.0</ele><time>2026-03-28T09:15:32.413Z</time></trkpt><trkpt lat="40.98753" lon="14.4183867"><ele>40.0</ele><time>2026-03-28T09:15:33.414Z</time></trkpt><trkpt lat="40.9876017" lon="14.4184083"><ele>40.0</ele><time>2026-03-28T09:15:34.414Z</time></trkpt><trkpt lat="40.9876717" lon="14.41843"><ele>40.0</ele><time>2026-03-28T09:15:35.414Z</time></trkpt><trkpt lat="40.9877417" lon="14.41845"><ele>40.0</ele><time>2026-03-28T09:15:36.414Z</time></trkpt><trkpt lat="40.9878117" lon="14.418475"><ele>39.833333333333336</ele><time>2026-03-28T09:15:37.413Z</time></trkpt><trkpt lat="40.9878833" lon="14.4184983"><ele>39.66666666666667</ele><time>2026-03-28T09:15:38.416Z</time></trkpt><trkpt lat="40.9879583" lon="14.4185133"><ele>39.5</ele><time>2026-03-28T09:15:39.416Z</time></trkpt><trkpt lat="40.98803" lon="14.4185233"><ele>39.333333333333336</ele><time>2026-03-28T09:15:40.415Z</time></trkpt><trkpt lat="40.9881033" lon="14.4185483"><ele>39.166666666666664</ele><time>2026-03-28T09:15:41.415Z</time></trkpt><trkpt lat="40.988175" lon="14.418575"><ele>39.0</ele><time>2026-03-28T09:15:42.415Z</time></trkpt><trkpt lat="40.9882533" lon="14.418605"><ele>39.0</ele><time>2026-03-28T09:15:43.415Z</time></trkpt><trkpt lat="40.9883333" lon="14.4186367"><ele>39.0</ele><time>2026-03-28T09:15:44.414Z</time></trkpt><trkpt lat="40.9884133" lon="14.4186633"><ele>39.0</ele><time>2026-03-28T09:15:45.414Z</time></trkpt><trkpt lat="40.9884933" lon="14.4187067"><ele>39.0</ele><time>2026-03-28T09:15:46.414Z</time></trkpt><trkpt lat="40.98857" lon="14.4187383"><ele>39.0</ele><time>2026-03-28T09:15:47.414Z</time></trkpt><trkpt lat="40.988645" lon="14.4187683"><ele>39.0</ele><time>2026-03-28T09:15:48.414Z</time></trkpt><trkpt lat="40.9887217" lon="14.4188033"><ele>39.0</ele><time>2026-03-28T09:15:49.414Z</time></trkpt><trkpt lat="40.9887967" lon="14.418835"><ele>39.0</ele><time>2026-03-28T09:15:50.414Z</time></trkpt><trkpt lat="40.9888733" lon="14.4188667"><ele>39.0</ele><time>2026-03-28T09:15:51.414Z</time></trkpt><trkpt lat="40.9889483" lon="14.4188883"><ele>39.0</ele><time>2026-03-28T09:15:52.414Z</time></trkpt><trkpt lat="40.989025" lon="14.4189083"><ele>39.0</ele><time>2026-03-28T09:15:53.414Z</time></trkpt><trkpt lat="40.9890983" lon="14.4189317"><ele>39.0</ele><time>2026-03-28T09:15:54.414Z</time></trkpt><trkpt lat="40.989175" lon="14.41895"><ele>39.142857142857146</ele><time>2026-03-28T09:15:55.414Z</time></trkpt><trkpt lat="40.989255" lon="14.4189683"><ele>39.285714285714285</ele><time>2026-03-28T09:15:56.414Z</time></trkpt><trkpt lat="40.9893333" lon="14.4189883"><ele>39.42857142857143</ele><time>2026-03-28T09:15:57.414Z</time></trkpt><trkpt lat="40.989405" lon="14.4190067"><ele>39.57142857142857</ele><time>2026-03-28T09:15:58.414Z</time></trkpt><trkpt lat="40.989475" lon="14.4190233"><ele>39.714285714285715</ele><time>2026-03-28T09:15:59.415Z</time></trkpt><trkpt lat="40.9895433" lon="14.4190433"><ele>39.857142857142854</ele><time>2026-03-28T09:16:00.413Z</time></trkpt><trkpt lat="40.9896083" lon="14.4190667"><ele>40.0</ele><time>2026-03-28T09:16:01.414Z</time></trkpt><trkpt lat="40.9896783" lon="14.4190983"><ele>40.0</ele><time>2026-03-28T09:16:02.414Z</time></trkpt><trkpt lat="40.9897467" lon="14.419125"><ele>40.0</ele><time>2026-03-28T09:16:03.414Z</time></trkpt><trkpt lat="40.9898167" lon="14.4191617"><ele>40.0</ele><time>2026-03-28T09:16:04.414Z</time></trkpt><trkpt lat="40.9898833" lon="14.419195"><ele>40.0</ele><time>2026-03-28T09:16:05.414Z</time></trkpt><trkpt lat="40.9899467" lon="14.4192183"><ele>40.0</ele><time>2026-03-28T09:16:06.413Z</time></trkpt><trkpt lat="40.9900117" lon="14.41924"><ele>40.0</ele><time>2026-03-28T09:16:07.414Z</time></trkpt><trkpt lat="40.9900783" lon="14.4192633"><ele>40.0</ele><time>2026-03-28T09:16:08.414Z</time></trkpt><trkpt lat="40.9901467" lon="14.4192917"><ele>39.66666666666667</ele><time>2026-03-28T09:16:09.414Z</time></trkpt><trkpt lat="40.9902183" lon="14.4193267"><ele>39.333333333333336</ele><time>2026-03-28T09:16:10.415Z</time></trkpt><trkpt lat="40.9902933" lon="14.4193533"><ele>39.0</ele><time>2026-03-28T09:16:11.415Z</time></trkpt><trkpt lat="40.9903667" lon="14.41938"><ele>38.666666666666664</ele><time>2026-03-28T09:16:12.415Z</time></trkpt><trkpt lat="40.99044" lon="14.41942"><ele>38.33333333333333</ele><time>2026-03-28T09:16:13.415Z</time></trkpt><trkpt lat="40.9905217" lon="14.4194617"><ele>38.0</ele><time>2026-03-28T09:16:14.416Z</time></trkpt><trkpt lat="40.9906" lon="14.4194933"><ele>38.0</ele><time>2026-03-28T09:16:15.416Z</time></trkpt><trkpt lat="40.99068" lon="14.4195333"><ele>38.0</ele><time>2026-03-28T09:16:16.416Z</time></trkpt><trkpt lat="40.9907583" lon="14.4195667"><ele>38.0</ele><time>2026-03-28T09:16:17.416Z</time></trkpt><trkpt lat="40.9908333" lon="14.4195967"><ele>38.0</ele><time>2026-03-28T09:16:18.415Z</time></trkpt><trkpt lat="40.9909083" lon="14.4196217"><ele>38.0</ele><time>2026-03-28T09:16:19.416Z</time></trkpt><trkpt lat="40.9909867" lon="14.41965"><ele>38.0</ele><time>2026-03-28T09:16:20.415Z</time></trkpt><trkpt lat="40.991055" lon="14.4196783"><ele>38.14285714285714</ele><time>2026-03-28T09:16:21.416Z</time></trkpt><trkpt lat="40.9911217" lon="14.4197067"><ele>38.28571428571429</ele><time>2026-03-28T09:16:22.415Z</time></trkpt><trkpt lat="40.99119" lon="14.4197383"><ele>38.42857142857143</ele><time>2026-03-28T09:16:23.414Z</time></trkpt><trkpt lat="40.9912583" lon="14.419765"><ele>38.57142857142857</ele><time>2026-03-28T09:16:24.422Z</time></trkpt><trkpt lat="40.9913317" lon="14.419795"><ele>38.71428571428571</ele><time>2026-03-28T09:16:25.414Z</time></trkpt><trkpt lat="40.9914033" lon="14.419825"><ele>38.85714285714286</ele><time>2026-03-28T09:16:26.414Z</time></trkpt><trkpt lat="40.9914783" lon="14.419845"><ele>39.0</ele><time>2026-03-28T09:16:27.415Z</time></trkpt><trkpt lat="40.99155" lon="14.4198767"><ele>39.0</ele><time>2026-03-28T09:16:28.414Z</time></trkpt><trkpt lat="40.9916233" lon="14.419905"><ele>39.0</ele><time>2026-03-28T09:16:29.414Z</time></trkpt><trkpt lat="40.991695" lon="14.4199267"><ele>39.0</ele><time>2026-03-28T09:16:30.414Z</time></trkpt><trkpt lat="40.991765" lon="14.4199483"><ele>39.0</ele><time>2026-03-28T09:16:31.414Z</time></trkpt><trkpt lat="40.991835" lon="14.4199717"><ele>39.0</ele><time>2026-03-28T09:16:32.414Z</time></trkpt><trkpt lat="40.9919033" lon="14.4200017"><ele>39.0</ele><time>2026-03-28T09:16:33.414Z</time></trkpt><trkpt lat="40.9919717" lon="14.4200317"><ele>39.0</ele><time>2026-03-28T09:16:34.414Z</time></trkpt><trkpt lat="40.9920383" lon="14.4200567"><ele>38.833333333333336</ele><time>2026-03-28T09:16:35.414Z</time></trkpt><trkpt lat="40.9921067" lon="14.4200883"><ele>38.666666666666664</ele><time>2026-03-28T09:16:36.414Z</time></trkpt><trkpt lat="40.9921783" lon="14.420115"><ele>38.5</ele><time>2026-03-28T09:16:37.414Z</time></trkpt><trkpt lat="40.9922517" lon="14.4201483"><ele>38.33333333333333</ele><time>2026-03-28T09:16:38.414Z</time></trkpt><trkpt lat="40.9923267" lon="14.42017"><ele>38.166666666666664</ele><time>2026-03-28T09:16:39.414Z</time></trkpt><trkpt lat="40.992405" lon="14.4201933"><ele>38.0</ele><time>2026-03-28T09:16:40.415Z</time></trkpt><trkpt lat="40.9924767" lon="14.42022"><ele>38.285714285714285</ele><time>2026-03-28T09:16:41.415Z</time></trkpt><trkpt lat="40.9925517" lon="14.4202517"><ele>38.57142857142858</ele><time>2026-03-28T09:16:42.414Z</time></trkpt><trkpt lat="40.992625" lon="14.4202767"><ele>38.85714285714286</ele><time>2026-03-28T09:16:43.414Z</time></trkpt><trkpt lat="40.9926967" lon="14.4203017"><ele>39.14285714285714</ele><time>2026-03-28T09:16:44.414Z</time></trkpt><trkpt lat="40.9927667" lon="14.4203267"><ele>39.42857142857143</ele><time>2026-03-28T09:16:45.414Z</time></trkpt><trkpt lat="40.9928367" lon="14.4203533"><ele>39.714285714285715</ele><time>2026-03-28T09:16:46.414Z</time></trkpt><trkpt lat="40.992905" lon="14.4203783"><ele>40.0</ele><time>2026-03-28T09:16:47.414Z</time></trkpt><trkpt lat="40.992975" lon="14.4204033"><ele>40.0</ele><time>2026-03-28T09:16:48.414Z</time></trkpt><trkpt lat="40.9930433" lon="14.420425"><ele>40.0</ele><time>2026-03-28T09:16:49.416Z</time></trkpt><trkpt lat="40.9931083" lon="14.4204483"><ele>40.0</ele><time>2026-03-28T09:16:50.417Z</time></trkpt><trkpt lat="40.9931717" lon="14.4204733"><ele>40.0</ele><time>2026-03-28T09:16:51.414Z</time></trkpt><trkpt lat="40.993235" lon="14.4204967"><ele>40.0</ele><time>2026-03-28T09:16:52.415Z</time></trkpt><trkpt lat="40.9933033" lon="14.42051"><ele>40.0</ele><time>2026-03-28T09:16:53.413Z</time></trkpt><trkpt lat="40.99337" lon="14.42053"><ele>40.0</ele><time>2026-03-28T09:16:54.414Z</time></trkpt><trkpt lat="40.9934333" lon="14.4205467"><ele>39.833333333333336</ele><time>2026-03-28T09:16:55.414Z</time></trkpt><trkpt lat="40.9934967" lon="14.42058"><ele>39.66666666666667</ele><time>2026-03-28T09:16:56.414Z</time></trkpt><trkpt lat="40.9935567" lon="14.4206083"><ele>39.5</ele><time>2026-03-28T09:16:57.414Z</time></trkpt><trkpt lat="40.9936767" lon="14.4206567"><ele>39.333333333333336</ele><time>2026-03-28T09:16:59.414Z</time></trkpt><trkpt lat="40.9937967" lon="14.4206583"><ele>39.166666666666664</ele><time>2026-03-28T09:17:01.414Z</time></trkpt><trkpt lat="40.99386" lon="14.42066"><ele>39.0</ele><time>2026-03-28T09:17:02.414Z</time></trkpt><trkpt lat="40.993975" lon="14.4206783"><ele>39.0</ele><time>2026-03-28T09:17:04.414Z</time></trkpt><trkpt lat="40.994075" lon="14.4206967"><ele>39.0</ele><time>2026-03-28T09:17:06.414Z</time></trkpt><trkpt lat="40.994175" lon="14.42072"><ele>39.0</ele><time>2026-03-28T09:17:08.414Z</time></trkpt><trkpt lat="40.9942717" lon="14.4207617"><ele>39.0</ele><time>2026-03-28T09:17:10.415Z</time></trkpt><trkpt lat="40.99437" lon="14.4208033"><ele>39.0</ele><time>2026-03-28T09:17:12.417Z</time></trkpt><trkpt lat="40.99447" lon="14.42084"><ele>39.2</ele><time>2026-03-28T09:17:14.415Z</time></trkpt><trkpt lat="40.9945633" lon="14.420855"><ele>39.4</ele><time>2026-03-28T09:17:16.415Z</time></trkpt><trkpt lat="40.994655" lon="14.4208783"><ele>39.6</ele><time>2026-03-28T09:17:18.414Z</time></trkpt><trkpt lat="40.99475" lon="14.420915"><ele>39.8</ele><time>2026-03-28T09:17:20.415Z</time></trkpt><trkpt lat="40.994855" lon="14.4209467"><ele>40.0</ele><time>2026-03-28T09:17:22.414Z</time></trkpt><trkpt lat="40.9949633" lon="14.4209833"><ele>40.0</ele><time>2026-03-28T09:17:24.414Z</time></trkpt><trkpt lat="40.9950183" lon="14.42103"><ele>40.0</ele><time>2026-03-28T09:17:25.414Z</time></trkpt><trkpt lat="40.9950783" lon="14.4210733"><ele>40.0</ele><time>2026-03-28T09:17:26.414Z</time></trkpt><trkpt lat="40.9951333" lon="14.4211183"><ele>40.0</ele><time>2026-03-28T09:17:27.414Z</time></trkpt><trkpt lat="40.9951917" lon="14.4211533"><ele>40.0</ele><time>2026-03-28T09:17:28.414Z</time></trkpt><trkpt lat="40.995255" lon="14.4211867"><ele>40.0</ele><time>2026-03-28T09:17:29.414Z</time></trkpt><trkpt lat="40.9953217" lon="14.4212183"><ele>40.0</ele><time>2026-03-28T09:17:30.414Z</time></trkpt><trkpt lat="40.9953833" lon="14.4212567"><ele>40.5</ele><time>2026-03-28T09:17:31.414Z</time></trkpt><trkpt lat="40.9954933" lon="14.42134"><ele>41.0</ele><time>2026-03-28T09:17:33.414Z</time></trkpt><trkpt lat="40.9955483" lon="14.42139"><ele>41.5</ele><time>2026-03-28T09:17:34.414Z</time></trkpt><trkpt lat="40.9956033" lon="14.4214383"><ele>42.0</ele><time>2026-03-28T09:17:35.414Z</time></trkpt><trkpt lat="40.9957017" lon="14.4215267"><ele>42.5</ele><time>2026-03-28T09:17:37.414Z</time></trkpt><trkpt lat="40.9957517" lon="14.4215817"><ele>43.0</ele><time>2026-03-28T09:17:38.414Z</time></trkpt><trkpt lat="40.995805" lon="14.4216333"><ele>42.8</ele><time>2026-03-28T09:17:39.414Z</time></trkpt><trkpt lat="40.9959083" lon="14.42171"><ele>42.599999999999994</ele><time>2026-03-28T09:17:41.415Z</time></trkpt><trkpt lat="40.9960033" lon="14.4217867"><ele>42.400000000000006</ele><time>2026-03-28T09:17:43.414Z</time></trkpt><trkpt lat="40.996105" lon="14.4218683"><ele>42.2</ele><time>2026-03-28T09:17:45.414Z</time></trkpt><trkpt lat="40.99616" lon="14.42191"><ele>42.0</ele><time>2026-03-28T09:17:46.414Z</time></trkpt><trkpt lat="40.9962667" lon="14.4219917"><ele>42.0</ele><time>2026-03-28T09:17:48.414Z</time></trkpt><trkpt lat="40.996365" lon="14.42209"><ele>42.0</ele><time>2026-03-28T09:17:50.414Z</time></trkpt><trkpt lat="40.9964633" lon="14.42219"><ele>42.0</ele><time>2026-03-28T09:17:52.415Z</time></trkpt><trkpt lat="40.9965133" lon="14.422245"><ele>42.0</ele><time>2026-03-28T09:17:53.414Z</time></trkpt><trkpt lat="40.9965617" lon="14.4223017"><ele>42.0</ele><time>2026-03-28T09:17:54.414Z</time></trkpt><trkpt lat="40.9966117" lon="14.4223633"><ele>42.0</ele><time>2026-03-28T09:17:55.414Z</time></trkpt><trkpt lat="40.9966633" lon="14.4224233"><ele>41.857142857142854</ele><time>2026-03-28T09:17:56.414Z</time></trkpt><trkpt lat="40.9967133" lon="14.4224883"><ele>41.714285714285715</ele><time>2026-03-28T09:17:57.413Z</time></trkpt><trkpt lat="40.99676" lon="14.42255"><ele>41.57142857142857</ele><time>2026-03-28T09:17:58.414Z</time></trkpt><trkpt lat="40.996805" lon="14.4226183"><ele>41.42857142857143</ele><time>2026-03-28T09:17:59.414Z</time></trkpt><trkpt lat="40.99685" lon="14.4226833"><ele>41.285714285714285</ele><time>2026-03-28T09:18:00.414Z</time></trkpt><trkpt lat="40.9968967" lon="14.4227467"><ele>41.14285714285714</ele><time>2026-03-28T09:18:01.415Z</time></trkpt><trkpt lat="40.9969433" lon="14.4228083"><ele>41.0</ele><time>2026-03-28T09:18:02.414Z</time></trkpt><trkpt lat="40.99699" lon="14.4228733"><ele>40.99999999999999</ele><time>2026-03-28T09:18:03.415Z</time></trkpt><trkpt lat="40.9970283" lon="14.422945"><ele>41.0</ele><time>2026-03-28T09:18:04.414Z</time></trkpt><trkpt lat="40.9970683" lon="14.4230183"><ele>41.0</ele><time>2026-03-28T09:18:05.417Z</time></trkpt><trkpt lat="40.9971083" lon="14.423095"><ele>41.0</ele><time>2026-03-28T09:18:06.414Z</time></trkpt><trkpt lat="40.9971483" lon="14.4231733"><ele>41.0</ele><time>2026-03-28T09:18:07.414Z</time></trkpt><trkpt lat="40.9971833" lon="14.4232583"><ele>40.99999999999999</ele><time>2026-03-28T09:18:08.414Z</time></trkpt><trkpt lat="40.9972183" lon="14.4233417"><ele>41.0</ele><time>2026-03-28T09:18:09.414Z</time></trkpt><trkpt lat="40.9972567" lon="14.4234233"><ele>40.83333333333333</ele><time>2026-03-28T09:18:10.414Z</time></trkpt><trkpt lat="40.9972917" lon="14.4235117"><ele>40.666666666666664</ele><time>2026-03-28T09:18:11.413Z</time></trkpt><trkpt lat="40.997325" lon="14.4235967"><ele>40.5</ele><time>2026-03-28T09:18:12.415Z</time></trkpt><trkpt lat="40.9973567" lon="14.423685"><ele>40.333333333333336</ele><time>2026-03-28T09:18:13.416Z</time></trkpt><trkpt lat="40.9973833" lon="14.423775"><ele>40.16666666666667</ele><time>2026-03-28T09:18:14.416Z</time></trkpt><trkpt lat="40.9974167" lon="14.423875"><ele>40.0</ele><time>2026-03-28T09:18:15.415Z</time></trkpt><trkpt lat="40.9974467" lon="14.423965"><ele>39.833333333333336</ele><time>2026-03-28T09:18:16.415Z</time></trkpt><trkpt lat="40.9974767" lon="14.4240533"><ele>39.66666666666667</ele><time>2026-03-28T09:18:17.415Z</time></trkpt><trkpt lat="40.997505" lon="14.4241467"><ele>39.5</ele><time>2026-03-28T09:18:18.413Z</time></trkpt><trkpt lat="40.997535" lon="14.42424"><ele>39.333333333333336</ele><time>2026-03-28T09:18:19.414Z</time></trkpt><trkpt lat="40.9975633" lon="14.424335"><ele>39.166666666666664</ele><time>2026-03-28T09:18:20.414Z</time></trkpt><trkpt lat="40.9975917" lon="14.42443"><ele>39.0</ele><time>2026-03-28T09:18:21.414Z</time></trkpt><trkpt lat="40.99762" lon="14.42452"><ele>39.0</ele><time>2026-03-28T09:18:22.414Z</time></trkpt><trkpt lat="40.9976483" lon="14.4246133"><ele>39.0</ele><time>2026-03-28T09:18:23.414Z</time></trkpt><trkpt lat="40.99768" lon="14.4247017"><ele>39.0</ele><time>2026-03-28T09:18:24.415Z</time></trkpt><trkpt lat="40.9977167" lon="14.42479"><ele>39.0</ele><time>2026-03-28T09:18:25.414Z</time></trkpt><trkpt lat="40.9977467" lon="14.4248833"><ele>39.0</ele><time>2026-03-28T09:18:26.414Z</time></trkpt><trkpt lat="40.9977733" lon="14.424975"><ele>39.0</ele><time>2026-03-28T09:18:27.414Z</time></trkpt><trkpt lat="40.9978" lon="14.4250683"><ele>39.42857142857143</ele><time>2026-03-28T09:18:28.416Z</time></trkpt><trkpt lat="40.9978317" lon="14.4251583"><ele>39.857142857142854</ele><time>2026-03-28T09:18:29.415Z</time></trkpt><trkpt lat="40.99786" lon="14.42525"><ele>40.285714285714285</ele><time>2026-03-28T09:18:30.417Z</time></trkpt><trkpt lat="40.9978883" lon="14.42534"><ele>40.714285714285715</ele><time>2026-03-28T09:18:31.415Z</time></trkpt><trkpt lat="40.9979117" lon="14.4254317"><ele>41.14285714285714</ele><time>2026-03-28T09:18:32.414Z</time></trkpt><trkpt lat="40.9979383" lon="14.4255183"><ele>41.57142857142857</ele><time>2026-03-28T09:18:33.414Z</time></trkpt><trkpt lat="40.9979617" lon="14.4256033"><ele>42.0</ele><time>2026-03-28T09:18:34.414Z</time></trkpt><trkpt lat="40.997985" lon="14.4256883"><ele>42.333333333333336</ele><time>2026-03-28T09:18:35.415Z</time></trkpt><trkpt lat="40.99801" lon="14.425765"><ele>42.666666666666664</ele><time>2026-03-28T09:18:36.414Z</time></trkpt><trkpt lat="40.9980317" lon="14.42585"><ele>43.0</ele><time>2026-03-28T09:18:37.414Z</time></trkpt><trkpt lat="40.9980817" lon="14.426"><ele>43.33333333333333</ele><time>2026-03-28T09:18:39.414Z</time></trkpt><trkpt lat="40.9981083" lon="14.4260783"><ele>43.666666666666664</ele><time>2026-03-28T09:18:40.414Z</time></trkpt><trkpt lat="40.998135" lon="14.42616"><ele>44.0</ele><time>2026-03-28T09:18:41.414Z</time></trkpt><trkpt lat="40.9981583" lon="14.42624"><ele>43.83333333333333</ele><time>2026-03-28T09:18:42.416Z</time></trkpt><trkpt lat="40.9981833" lon="14.4263217"><ele>43.666666666666664</ele><time>2026-03-28T09:18:43.414Z</time></trkpt><trkpt lat="40.9982083" lon="14.4264067"><ele>43.5</ele><time>2026-03-28T09:18:44.416Z</time></trkpt><trkpt lat="40.9982283" lon="14.4264933"><ele>43.333333333333336</ele><time>2026-03-28T09:18:45.415Z</time></trkpt><trkpt lat="40.9982517" lon="14.4265783"><ele>43.16666666666667</ele><time>2026-03-28T09:18:46.414Z</time></trkpt><trkpt lat="40.9982717" lon="14.42666"><ele>43.0</ele><time>2026-03-28T09:18:47.415Z</time></trkpt><trkpt lat="40.9983083" lon="14.4268017"><ele>42.0</ele><time>2026-03-28T09:18:49.414Z</time></trkpt><trkpt lat="40.99835" lon="14.4269367"><ele>41.0</ele><time>2026-03-28T09:18:51.414Z</time></trkpt><trkpt lat="40.9983933" lon="14.4270833"><ele>40.0</ele><time>2026-03-28T09:18:53.417Z</time></trkpt><trkpt lat="40.9984383" lon="14.4272367"><ele>39.0</ele><time>2026-03-28T09:18:55.415Z</time></trkpt><trkpt lat="40.9984767" lon="14.4273917"><ele>39.0</ele><time>2026-03-28T09:18:57.415Z</time></trkpt><trkpt lat="40.9984983" lon="14.4274717"><ele>39.0</ele><time>2026-03-28T09:18:58.414Z</time></trkpt><trkpt lat="40.9985183" lon="14.4275517"><ele>39.0</ele><time>2026-03-28T09:18:59.413Z</time></trkpt><trkpt lat="40.99854" lon="14.42763"><ele>39.0</ele><time>2026-03-28T09:19:00.415Z</time></trkpt><trkpt lat="40.9985617" lon="14.42771"><ele>39.0</ele><time>2026-03-28T09:19:01.415Z</time></trkpt><trkpt lat="40.9985833" lon="14.42779"><ele>39.0</ele><time>2026-03-28T09:19:02.415Z</time></trkpt><trkpt lat="40.9986067" lon="14.4278733"><ele>39.0</ele><time>2026-03-28T09:19:03.415Z</time></trkpt><trkpt lat="40.99863" lon="14.4279633"><ele>39.166666666666664</ele><time>2026-03-28T09:19:04.414Z</time></trkpt><trkpt lat="40.998655" lon="14.42806"><ele>39.333333333333336</ele><time>2026-03-28T09:19:05.414Z</time></trkpt><trkpt lat="40.998675" lon="14.4281567"><ele>39.5</ele><time>2026-03-28T09:19:06.414Z</time></trkpt><trkpt lat="40.9986967" lon="14.42826"><ele>39.66666666666667</ele><time>2026-03-28T09:19:07.414Z</time></trkpt><trkpt lat="40.99872" lon="14.4283583"><ele>39.833333333333336</ele><time>2026-03-28T09:19:08.414Z</time></trkpt><trkpt lat="40.9987433" lon="14.42845"><ele>40.0</ele><time>2026-03-28T09:19:09.413Z</time></trkpt><trkpt lat="40.9987667" lon="14.4285417"><ele>40.0</ele><time>2026-03-28T09:19:10.413Z</time></trkpt><trkpt lat="40.9987883" lon="14.4286433"><ele>40.0</ele><time>2026-03-28T09:19:11.413Z</time></trkpt><trkpt lat="40.9988067" lon="14.4287383"><ele>40.0</ele><time>2026-03-28T09:19:12.414Z</time></trkpt><trkpt lat="40.9988233" lon="14.4288283"><ele>40.0</ele><time>2026-03-28T09:19:13.413Z</time></trkpt><trkpt lat="40.9988417" lon="14.42892"><ele>40.0</ele><time>2026-03-28T09:19:14.412Z</time></trkpt><trkpt lat="40.9988633" lon="14.4290167"><ele>40.0</ele><time>2026-03-28T09:19:15.414Z</time></trkpt><trkpt lat="40.99889" lon="14.429115"><ele>40.16666666666667</ele><time>2026-03-28T09:19:16.412Z</time></trkpt><trkpt lat="40.998915" lon="14.4292183"><ele>40.333333333333336</ele><time>2026-03-28T09:19:17.413Z</time></trkpt><trkpt lat="40.99894" lon="14.4293217"><ele>40.5</ele><time>2026-03-28T09:19:18.414Z</time></trkpt><trkpt lat="40.998965" lon="14.4294317"><ele>40.666666666666664</ele><time>2026-03-28T09:19:19.414Z</time></trkpt><trkpt lat="40.99899" lon="14.42954"><ele>40.83333333333333</ele><time>2026-03-28T09:19:20.413Z</time></trkpt><trkpt lat="40.9990133" lon="14.4296483"><ele>41.0</ele><time>2026-03-28T09:19:21.413Z</time></trkpt><trkpt lat="40.9990383" lon="14.4297567"><ele>41.33333333333333</ele><time>2026-03-28T09:19:22.415Z</time></trkpt><trkpt lat="40.9990633" lon="14.429865"><ele>41.666666666666664</ele><time>2026-03-28T09:19:23.415Z</time></trkpt><trkpt lat="40.9990883" lon="14.4299783"><ele>42.0</ele><time>2026-03-28T09:19:24.414Z</time></trkpt><trkpt lat="40.999115" lon="14.430085"><ele>42.333333333333336</ele><time>2026-03-28T09:19:25.414Z</time></trkpt><trkpt lat="40.9991367" lon="14.4301933"><ele>42.66666666666667</ele><time>2026-03-28T09:19:26.415Z</time></trkpt><trkpt lat="40.9991617" lon="14.4303"><ele>43.0</ele><time>2026-03-28T09:19:27.414Z</time></trkpt><trkpt lat="40.9991867" lon="14.430405"><ele>42.5</ele><time>2026-03-28T09:19:28.414Z</time></trkpt><trkpt lat="40.99921" lon="14.4305133"><ele>42.0</ele><time>2026-03-28T09:19:29.414Z</time></trkpt><trkpt lat="40.9992333" lon="14.4306233"><ele>41.5</ele><time>2026-03-28T09:19:30.413Z</time></trkpt><trkpt lat="40.99926" lon="14.4307333"><ele>41.0</ele><time>2026-03-28T09:19:31.414Z</time></trkpt><trkpt lat="40.9992867" lon="14.4308433"><ele>40.5</ele><time>2026-03-28T09:19:32.413Z</time></trkpt><trkpt lat="40.9993117" lon="14.43095"><ele>40.0</ele><time>2026-03-28T09:19:33.413Z</time></trkpt><trkpt lat="40.9993383" lon="14.4310583"><ele>40.0</ele><time>2026-03-28T09:19:34.414Z</time></trkpt><trkpt lat="40.9993667" lon="14.4311633"><ele>40.0</ele><time>2026-03-28T09:19:35.415Z</time></trkpt><trkpt lat="40.99939" lon="14.431275"><ele>40.0</ele><time>2026-03-28T09:19:36.413Z</time></trkpt><trkpt lat="40.9994167" lon="14.431385"><ele>40.0</ele><time>2026-03-28T09:19:37.414Z</time></trkpt><trkpt lat="40.9994433" lon="14.4314933"><ele>40.0</ele><time>2026-03-28T09:19:38.413Z</time></trkpt><trkpt lat="40.9994717" lon="14.4316"><ele>40.0</ele><time>2026-03-28T09:19:39.413Z</time></trkpt><trkpt lat="40.9995017" lon="14.4317033"><ele>40.333333333333336</ele><time>2026-03-28T09:19:40.413Z</time></trkpt><trkpt lat="40.999535" lon="14.43181"><ele>40.66666666666667</ele><time>2026-03-28T09:19:41.414Z</time></trkpt><trkpt lat="40.999565" lon="14.43192"><ele>41.0</ele><time>2026-03-28T09:19:42.413Z</time></trkpt><trkpt lat="40.9995933" lon="14.43203"><ele>41.333333333333336</ele><time>2026-03-28T09:19:43.414Z</time></trkpt><trkpt lat="40.999625" lon="14.43214"><ele>41.666666666666664</ele><time>2026-03-28T09:19:44.414Z</time></trkpt><trkpt lat="40.9996533" lon="14.4322467"><ele>42.0</ele><time>2026-03-28T09:19:45.413Z</time></trkpt><trkpt lat="40.9996817" lon="14.4323567"><ele>42.0</ele><time>2026-03-28T09:19:46.412Z</time></trkpt><trkpt lat="40.9997067" lon="14.4324683"><ele>42.0</ele><time>2026-03-28T09:19:47.413Z</time></trkpt><trkpt lat="40.999735" lon="14.4325783"><ele>42.0</ele><time>2026-03-28T09:19:48.413Z</time></trkpt><trkpt lat="40.999765" lon="14.432685"><ele>42.0</ele><time>2026-03-28T09:19:49.414Z</time></trkpt><trkpt lat="40.999795" lon="14.4327933"><ele>42.0</ele><time>2026-03-28T09:19:50.413Z</time></trkpt><trkpt lat="40.9998283" lon="14.4329067"><ele>42.0</ele><time>2026-03-28T09:19:51.414Z</time></trkpt><trkpt lat="40.9998583" lon="14.4330217"><ele>42.400000000000006</ele><time>2026-03-28T09:19:52.414Z</time></trkpt><trkpt lat="40.99989" lon="14.4331333"><ele>42.800000000000004</ele><time>2026-03-28T09:19:53.414Z</time></trkpt><trkpt lat="40.9999233" lon="14.4332417"><ele>43.2</ele><time>2026-03-28T09:19:54.414Z</time></trkpt><trkpt lat="40.9999583" lon="14.4333517"><ele>43.6</ele><time>2026-03-28T09:19:55.414Z</time></trkpt><trkpt lat="41.0000017" lon="14.433465"><ele>44.0</ele><time>2026-03-28T09:19:56.416Z</time></trkpt><trkpt lat="41.0000317" lon="14.4335783"><ele>44.0</ele><time>2026-03-28T09:19:57.414Z</time></trkpt><trkpt lat="41.00006" lon="14.4336883"><ele>44.0</ele><time>2026-03-28T09:19:58.415Z</time></trkpt><trkpt lat="41.000085" lon="14.433795"><ele>44.0</ele><time>2026-03-28T09:19:59.414Z</time></trkpt><trkpt lat="41.0001117" lon="14.4339033"><ele>44.0</ele><time>2026-03-28T09:20:00.414Z</time></trkpt><trkpt lat="41.0001417" lon="14.4340083"><ele>44.0</ele><time>2026-03-28T09:20:01.414Z</time></trkpt><trkpt lat="41.0001733" lon="14.434115"><ele>44.0</ele><time>2026-03-28T09:20:02.414Z</time></trkpt><trkpt lat="41.0001967" lon="14.4342217"><ele>44.166666666666664</ele><time>2026-03-28T09:20:03.414Z</time></trkpt><trkpt lat="41.0002233" lon="14.4343267"><ele>44.33333333333333</ele><time>2026-03-28T09:20:04.414Z</time></trkpt><trkpt lat="41.0002483" lon="14.4344317"><ele>44.5</ele><time>2026-03-28T09:20:05.414Z</time></trkpt><trkpt lat="41.0002733" lon="14.4345367"><ele>44.666666666666664</ele><time>2026-03-28T09:20:06.413Z</time></trkpt><trkpt lat="41.0003" lon="14.43464"><ele>44.833333333333336</ele><time>2026-03-28T09:20:07.414Z</time></trkpt><trkpt lat="41.000325" lon="14.4347433"><ele>45.0</ele><time>2026-03-28T09:20:08.413Z</time></trkpt><trkpt lat="41.0003517" lon="14.434845"><ele>45.166666666666664</ele><time>2026-03-28T09:20:09.413Z</time></trkpt><trkpt lat="41.0003783" lon="14.4349433"><ele>45.333333333333336</ele><time>2026-03-28T09:20:10.413Z</time></trkpt><trkpt lat="41.0004083" lon="14.43504"><ele>45.5</ele><time>2026-03-28T09:20:11.413Z</time></trkpt><trkpt lat="41.00044" lon="14.4351433"><ele>45.66666666666667</ele><time>2026-03-28T09:20:12.412Z</time></trkpt><trkpt lat="41.0004717" lon="14.4352467"><ele>45.833333333333336</ele><time>2026-03-28T09:20:13.413Z</time></trkpt><trkpt lat="41.0005017" lon="14.4353533"><ele>46.0</ele><time>2026-03-28T09:20:14.414Z</time></trkpt><trkpt lat="41.0005367" lon="14.435455"><ele>46.0</ele><time>2026-03-28T09:20:15.413Z</time></trkpt><trkpt lat="41.0005667" lon="14.43555"><ele>46.0</ele><time>2026-03-28T09:20:16.413Z</time></trkpt><trkpt lat="41.00059" lon="14.43565"><ele>46.0</ele><time>2026-03-28T09:20:17.413Z</time></trkpt><trkpt lat="41.0006167" lon="14.43575"><ele>46.0</ele><time>2026-03-28T09:20:18.413Z</time></trkpt><trkpt lat="41.0006417" lon="14.4358567"><ele>46.0</ele><time>2026-03-28T09:20:19.413Z</time></trkpt><trkpt lat="41.0006683" lon="14.43596"><ele>46.0</ele><time>2026-03-28T09:20:20.413Z</time></trkpt><trkpt lat="41.0006917" lon="14.4360583"><ele>46.0</ele><time>2026-03-28T09:20:21.416Z</time></trkpt><trkpt lat="41.0007167" lon="14.4361567"><ele>46.0</ele><time>2026-03-28T09:20:22.415Z</time></trkpt><trkpt lat="41.0007417" lon="14.4362583"><ele>46.0</ele><time>2026-03-28T09:20:23.415Z</time></trkpt><trkpt lat="41.00077" lon="14.43636"><ele>46.0</ele><time>2026-03-28T09:20:24.415Z</time></trkpt><trkpt lat="41.0007983" lon="14.4364617"><ele>46.0</ele><time>2026-03-28T09:20:25.416Z</time></trkpt><trkpt lat="41.0008233" lon="14.4365633"><ele>46.0</ele><time>2026-03-28T09:20:26.415Z</time></trkpt><trkpt lat="41.0008483" lon="14.436665"><ele>46.0</ele><time>2026-03-28T09:20:27.416Z</time></trkpt><trkpt lat="41.000875" lon="14.4367667"><ele>46.0</ele><time>2026-03-28T09:20:28.416Z</time></trkpt><trkpt lat="41.000905" lon="14.43687"><ele>46.0</ele><time>2026-03-28T09:20:29.415Z</time></trkpt><trkpt lat="41.000935" lon="14.4369683"><ele>46.0</ele><time>2026-03-28T09:20:30.414Z</time></trkpt><trkpt lat="41.0009633" lon="14.437065"><ele>46.0</ele><time>2026-03-28T09:20:31.414Z</time></trkpt><trkpt lat="41.00099" lon="14.43716"><ele>46.0</ele><time>2026-03-28T09:20:32.415Z</time></trkpt><trkpt lat="41.001015" lon="14.4372533"><ele>46.0</ele><time>2026-03-28T09:20:33.415Z</time></trkpt><trkpt lat="41.0010433" lon="14.4373483"><ele>46.0</ele><time>2026-03-28T09:20:34.415Z</time></trkpt><trkpt lat="41.0010667" lon="14.4374417"><ele>46.0</ele><time>2026-03-28T09:20:35.414Z</time></trkpt><trkpt lat="41.0010917" lon="14.4375367"><ele>46.0</ele><time>2026-03-28T09:20:36.416Z</time></trkpt><trkpt lat="41.0011183" lon="14.4376333"><ele>46.0</ele><time>2026-03-28T09:20:37.415Z</time></trkpt><trkpt lat="41.0011433" lon="14.43773"><ele>46.0</ele><time>2026-03-28T09:20:38.415Z</time></trkpt><trkpt lat="41.001175" lon="14.4378267"><ele>46.0</ele><time>2026-03-28T09:20:39.415Z</time></trkpt><trkpt lat="41.0012083" lon="14.4379233"><ele>46.0</ele><time>2026-03-28T09:20:40.415Z</time></trkpt><trkpt lat="41.0012367" lon="14.438025"><ele>46.0</ele><time>2026-03-28T09:20:41.415Z</time></trkpt><trkpt lat="41.001265" lon="14.43813"><ele>46.0</ele><time>2026-03-28T09:20:42.415Z</time></trkpt><trkpt lat="41.001295" lon="14.4382267"><ele>46.0</ele><time>2026-03-28T09:20:43.416Z</time></trkpt><trkpt lat="41.0013283" lon="14.43832"><ele>46.0</ele><time>2026-03-28T09:20:44.415Z</time></trkpt><trkpt lat="41.00136" lon="14.4384133"><ele>46.0</ele><time>2026-03-28T09:20:45.414Z</time></trkpt><trkpt lat="41.00139" lon="14.4385033"><ele>46.0</ele><time>2026-03-28T09:20:46.415Z</time></trkpt><trkpt lat="41.0014167" lon="14.4385967"><ele>46.0</ele><time>2026-03-28T09:20:47.414Z</time></trkpt><trkpt lat="41.0014417" lon="14.438685"><ele>46.0</ele><time>2026-03-28T09:20:48.414Z</time></trkpt><trkpt lat="41.0014667" lon="14.4387783"><ele>46.0</ele><time>2026-03-28T09:20:49.414Z</time></trkpt><trkpt lat="41.0014917" lon="14.4388683"><ele>46.0</ele><time>2026-03-28T09:20:50.415Z</time></trkpt><trkpt lat="41.0015117" lon="14.43896"><ele>46.0</ele><time>2026-03-28T09:20:51.416Z</time></trkpt><trkpt lat="41.00153" lon="14.4390517"><ele>46.0</ele><time>2026-03-28T09:20:52.415Z</time></trkpt><trkpt lat="41.00155" lon="14.4391433"><ele>46.0</ele><time>2026-03-28T09:20:53.415Z</time></trkpt><trkpt lat="41.0015717" lon="14.4392383"><ele>46.0</ele><time>2026-03-28T09:20:54.414Z</time></trkpt><trkpt lat="41.001595" lon="14.4393317"><ele>46.0</ele><time>2026-03-28T09:20:55.416Z</time></trkpt><trkpt lat="41.00162" lon="14.43943"><ele>46.0</ele><time>2026-03-28T09:20:56.414Z</time></trkpt><trkpt lat="41.0016467" lon="14.4395267"><ele>46.0</ele><time>2026-03-28T09:20:57.414Z</time></trkpt><trkpt lat="41.0016717" lon="14.4396233"><ele>46.333333333333336</ele><time>2026-03-28T09:20:58.414Z</time></trkpt><trkpt lat="41.0017" lon="14.4397167"><ele>46.66666666666667</ele><time>2026-03-28T09:20:59.414Z</time></trkpt><trkpt lat="41.00173" lon="14.4398117"><ele>47.0</ele><time>2026-03-28T09:21:00.414Z</time></trkpt><trkpt lat="41.0017567" lon="14.43991"><ele>47.333333333333336</ele><time>2026-03-28T09:21:01.415Z</time></trkpt><trkpt lat="41.0017833" lon="14.44001"><ele>47.666666666666664</ele><time>2026-03-28T09:21:02.413Z</time></trkpt><trkpt lat="41.0018117" lon="14.4401117"><ele>48.0</ele><time>2026-03-28T09:21:03.414Z</time></trkpt><trkpt lat="41.0018383" lon="14.4402133"><ele>48.0</ele><time>2026-03-28T09:21:04.414Z</time></trkpt><trkpt lat="41.0018683" lon="14.4403167"><ele>48.0</ele><time>2026-03-28T09:21:05.414Z</time></trkpt><trkpt lat="41.0019" lon="14.4404167"><ele>48.0</ele><time>2026-03-28T09:21:06.414Z</time></trkpt><trkpt lat="41.00193" lon="14.4405167"><ele>48.0</ele><time>2026-03-28T09:21:07.414Z</time></trkpt><trkpt lat="41.00196" lon="14.4406183"><ele>48.0</ele><time>2026-03-28T09:21:08.413Z</time></trkpt><trkpt lat="41.0019867" lon="14.4407183"><ele>48.0</ele><time>2026-03-28T09:21:09.414Z</time></trkpt><trkpt lat="41.002015" lon="14.4408183"><ele>48.0</ele><time>2026-03-28T09:21:10.414Z</time></trkpt><trkpt lat="41.0020417" lon="14.4409167"><ele>48.0</ele><time>2026-03-28T09:21:11.413Z</time></trkpt><trkpt lat="41.00207" lon="14.4410183"><ele>48.0</ele><time>2026-03-28T09:21:12.413Z</time></trkpt><trkpt lat="41.0020983" lon="14.4411183"><ele>48.0</ele><time>2026-03-28T09:21:13.414Z</time></trkpt><trkpt lat="41.0021217" lon="14.4412217"><ele>48.0</ele><time>2026-03-28T09:21:14.413Z</time></trkpt><trkpt lat="41.00214" lon="14.4413167"><ele>48.0</ele><time>2026-03-28T09:21:15.414Z</time></trkpt><trkpt lat="41.00216" lon="14.4414167"><ele>48.166666666666664</ele><time>2026-03-28T09:21:16.414Z</time></trkpt><trkpt lat="41.002185" lon="14.4415183"><ele>48.33333333333333</ele><time>2026-03-28T09:21:17.413Z</time></trkpt><trkpt lat="41.0022117" lon="14.44162"><ele>48.5</ele><time>2026-03-28T09:21:18.414Z</time></trkpt><trkpt lat="41.0022417" lon="14.4417183"><ele>48.666666666666664</ele><time>2026-03-28T09:21:19.413Z</time></trkpt><trkpt lat="41.0022717" lon="14.44182"><ele>48.83333333333333</ele><time>2026-03-28T09:21:20.414Z</time></trkpt><trkpt lat="41.0022917" lon="14.4419267"><ele>49.0</ele><time>2026-03-28T09:21:21.413Z</time></trkpt><trkpt lat="41.0023167" lon="14.4420317"><ele>48.83333333333333</ele><time>2026-03-28T09:21:22.414Z</time></trkpt><trkpt lat="41.00234" lon="14.4421333"><ele>48.666666666666664</ele><time>2026-03-28T09:21:23.413Z</time></trkpt><trkpt lat="41.002365" lon="14.4422333"><ele>48.5</ele><time>2026-03-28T09:21:24.414Z</time></trkpt><trkpt lat="41.0023983" lon="14.44233"><ele>48.33333333333333</ele><time>2026-03-28T09:21:25.413Z</time></trkpt><trkpt lat="41.00243" lon="14.4424283"><ele>48.166666666666664</ele><time>2026-03-28T09:21:26.414Z</time></trkpt><trkpt lat="41.0024567" lon="14.44252"><ele>48.0</ele><time>2026-03-28T09:21:27.413Z</time></trkpt><trkpt lat="41.00248" lon="14.44261"><ele>47.99999999999999</ele><time>2026-03-28T09:21:28.413Z</time></trkpt><trkpt lat="41.0024967" lon="14.4427017"><ele>48.0</ele><time>2026-03-28T09:21:29.413Z</time></trkpt><trkpt lat="41.0025183" lon="14.4427917"><ele>48.0</ele><time>2026-03-28T09:21:30.414Z</time></trkpt><trkpt lat="41.0025383" lon="14.4428833"><ele>48.0</ele><time>2026-03-28T09:21:31.413Z</time></trkpt><trkpt lat="41.0025617" lon="14.4429717"><ele>48.0</ele><time>2026-03-28T09:21:32.412Z</time></trkpt><trkpt lat="41.0025833" lon="14.44306"><ele>47.99999999999999</ele><time>2026-03-28T09:21:33.412Z</time></trkpt><trkpt lat="41.0026033" lon="14.4431467"><ele>48.0</ele><time>2026-03-28T09:21:34.414Z</time></trkpt><trkpt lat="41.0026267" lon="14.443235"><ele>48.166666666666664</ele><time>2026-03-28T09:21:35.413Z</time></trkpt><trkpt lat="41.0026533" lon="14.4433267"><ele>48.33333333333333</ele><time>2026-03-28T09:21:36.413Z</time></trkpt><trkpt lat="41.0026817" lon="14.4434167"><ele>48.5</ele><time>2026-03-28T09:21:37.414Z</time></trkpt><trkpt lat="41.0027133" lon="14.4435067"><ele>48.666666666666664</ele><time>2026-03-28T09:21:38.413Z</time></trkpt><trkpt lat="41.00274" lon="14.4436033"><ele>48.83333333333333</ele><time>2026-03-28T09:21:39.413Z</time></trkpt><trkpt lat="41.0027667" lon="14.4437017"><ele>49.0</ele><time>2026-03-28T09:21:40.413Z</time></trkpt><trkpt lat="41.0027933" lon="14.4438017"><ele>48.99999999999999</ele><time>2026-03-28T09:21:41.414Z</time></trkpt><trkpt lat="41.00282" lon="14.4439"><ele>49.0</ele><time>2026-03-28T09:21:42.413Z</time></trkpt><trkpt lat="41.002845" lon="14.4440017"><ele>49.0</ele><time>2026-03-28T09:21:43.413Z</time></trkpt><trkpt lat="41.00287" lon="14.4441033"><ele>49.0</ele><time>2026-03-28T09:21:44.414Z</time></trkpt><trkpt lat="41.0028983" lon="14.444205"><ele>48.99999999999999</ele><time>2026-03-28T09:21:45.413Z</time></trkpt><trkpt lat="41.0029283" lon="14.4443017"><ele>49.0</ele><time>2026-03-28T09:21:46.413Z</time></trkpt><trkpt lat="41.0029567" lon="14.4443933"><ele>49.0</ele><time>2026-03-28T09:21:47.414Z</time></trkpt><trkpt lat="41.0029817" lon="14.44448"><ele>49.0</ele><time>2026-03-28T09:21:48.413Z</time></trkpt><trkpt lat="41.003005" lon="14.4445667"><ele>49.0</ele><time>2026-03-28T09:21:49.414Z</time></trkpt><trkpt lat="41.00303" lon="14.4446517"><ele>49.0</ele><time>2026-03-28T09:21:50.413Z</time></trkpt><trkpt lat="41.003055" lon="14.44474"><ele>49.0</ele><time>2026-03-28T09:21:51.414Z</time></trkpt><trkpt lat="41.00308" lon="14.4448283"><ele>49.0</ele><time>2026-03-28T09:21:52.413Z</time></trkpt><trkpt lat="41.0031033" lon="14.4449167"><ele>49.0</ele><time>2026-03-28T09:21:53.412Z</time></trkpt><trkpt lat="41.0031267" lon="14.445005"><ele>49.166666666666664</ele><time>2026-03-28T09:21:54.412Z</time></trkpt><trkpt lat="41.0031483" lon="14.445095"><ele>49.33333333333333</ele><time>2026-03-28T09:21:55.413Z</time></trkpt><trkpt lat="41.0031717" lon="14.4451883"><ele>49.5</ele><time>2026-03-28T09:21:56.414Z</time></trkpt><trkpt lat="41.003195" lon="14.4452867"><ele>49.66666666666667</ele><time>2026-03-28T09:21:57.414Z</time></trkpt><trkpt lat="41.00322" lon="14.445385"><ele>49.833333333333336</ele><time>2026-03-28T09:21:58.414Z</time></trkpt><trkpt lat="41.003245" lon="14.445485"><ele>50.0</ele><time>2026-03-28T09:21:59.413Z</time></trkpt><trkpt lat="41.00327" lon="14.4455833"><ele>50.00000000000001</ele><time>2026-03-28T09:22:00.413Z</time></trkpt><trkpt lat="41.0033" lon="14.4456783"><ele>50.0</ele><time>2026-03-28T09:22:01.413Z</time></trkpt><trkpt lat="41.0033267" lon="14.4457767"><ele>50.0</ele><time>2026-03-28T09:22:02.414Z</time></trkpt><trkpt lat="41.003355" lon="14.4458733"><ele>50.0</ele><time>2026-03-28T09:22:03.413Z</time></trkpt><trkpt lat="41.003385" lon="14.4459767"><ele>50.00000000000001</ele><time>2026-03-28T09:22:04.414Z</time></trkpt><trkpt lat="41.00341" lon="14.4460733"><ele>50.0</ele><time>2026-03-28T09:22:05.414Z</time></trkpt><trkpt lat="41.003435" lon="14.44617"><ele>50.00000000000001</ele><time>2026-03-28T09:22:06.414Z</time></trkpt><trkpt lat="41.00346" lon="14.4462667"><ele>50.0</ele><time>2026-03-28T09:22:07.414Z</time></trkpt><trkpt lat="41.0034817" lon="14.44637"><ele>50.0</ele><time>2026-03-28T09:22:08.414Z</time></trkpt><trkpt lat="41.00351" lon="14.4464667"><ele>50.0</ele><time>2026-03-28T09:22:09.414Z</time></trkpt><trkpt lat="41.0035367" lon="14.4465633"><ele>50.00000000000001</ele><time>2026-03-28T09:22:10.413Z</time></trkpt><trkpt lat="41.003565" lon="14.44666"><ele>50.0</ele><time>2026-03-28T09:22:11.414Z</time></trkpt><trkpt lat="41.0035933" lon="14.4467567"><ele>50.00000000000001</ele><time>2026-03-28T09:22:12.414Z</time></trkpt><trkpt lat="41.0036167" lon="14.4468583"><ele>50.0</ele><time>2026-03-28T09:22:13.414Z</time></trkpt><trkpt lat="41.0036433" lon="14.4469583"><ele>50.0</ele><time>2026-03-28T09:22:14.414Z</time></trkpt><trkpt lat="41.0036717" lon="14.4470617"><ele>50.0</ele><time>2026-03-28T09:22:15.412Z</time></trkpt><trkpt lat="41.0037" lon="14.447165"><ele>50.00000000000001</ele><time>2026-03-28T09:22:16.414Z</time></trkpt><trkpt lat="41.0037267" lon="14.44727"><ele>50.0</ele><time>2026-03-28T09:22:17.414Z</time></trkpt><trkpt lat="41.003755" lon="14.447375"><ele>50.333333333333336</ele><time>2026-03-28T09:22:18.412Z</time></trkpt><trkpt lat="41.0037867" lon="14.44748"><ele>50.66666666666667</ele><time>2026-03-28T09:22:19.413Z</time></trkpt><trkpt lat="41.0038167" lon="14.4475833"><ele>51.0</ele><time>2026-03-28T09:22:20.414Z</time></trkpt><trkpt lat="41.003845" lon="14.4476833"><ele>51.33333333333333</ele><time>2026-03-28T09:22:21.414Z</time></trkpt><trkpt lat="41.0038683" lon="14.4477867"><ele>51.666666666666664</ele><time>2026-03-28T09:22:22.414Z</time></trkpt><trkpt lat="41.00389" lon="14.447885"><ele>52.0</ele><time>2026-03-28T09:22:23.413Z</time></trkpt><trkpt lat="41.0039133" lon="14.4479833"><ele>52.14285714285714</ele><time>2026-03-28T09:22:24.413Z</time></trkpt><trkpt lat="41.0039367" lon="14.4480767"><ele>52.28571428571429</ele><time>2026-03-28T09:22:25.414Z</time></trkpt><trkpt lat="41.0039683" lon="14.44816"><ele>52.42857142857143</ele><time>2026-03-28T09:22:26.414Z</time></trkpt><trkpt lat="41.0039917" lon="14.4482433"><ele>52.57142857142857</ele><time>2026-03-28T09:22:27.413Z</time></trkpt><trkpt lat="41.0040133" lon="14.448325"><ele>52.71428571428571</ele><time>2026-03-28T09:22:28.413Z</time></trkpt><trkpt lat="41.0040317" lon="14.448405"><ele>52.85714285714286</ele><time>2026-03-28T09:22:29.414Z</time></trkpt><trkpt lat="41.004055" lon="14.4484833"><ele>53.0</ele><time>2026-03-28T09:22:30.413Z</time></trkpt><trkpt lat="41.0040783" lon="14.4485617"><ele>53.0</ele><time>2026-03-28T09:22:31.414Z</time></trkpt><trkpt lat="41.0041" lon="14.4486433"><ele>53.0</ele><time>2026-03-28T09:22:32.414Z</time></trkpt><trkpt lat="41.0041183" lon="14.44873"><ele>53.0</ele><time>2026-03-28T09:22:33.413Z</time></trkpt><trkpt lat="41.00414" lon="14.4488183"><ele>53.0</ele><time>2026-03-28T09:22:34.414Z</time></trkpt><trkpt lat="41.0041633" lon="14.44891"><ele>53.0</ele><time>2026-03-28T09:22:35.414Z</time></trkpt><trkpt lat="41.0041883" lon="14.4490067"><ele>53.0</ele><time>2026-03-28T09:22:36.413Z</time></trkpt><trkpt lat="41.0042133" lon="14.449105"><ele>53.0</ele><time>2026-03-28T09:22:37.413Z</time></trkpt><trkpt lat="41.0042383" lon="14.4492083"><ele>53.00000000000001</ele><time>2026-03-28T09:22:38.414Z</time></trkpt><trkpt lat="41.0042617" lon="14.4493067"><ele>53.0</ele><time>2026-03-28T09:22:39.414Z</time></trkpt><trkpt lat="41.0042883" lon="14.449405"><ele>53.0</ele><time>2026-03-28T09:22:40.414Z</time></trkpt><trkpt lat="41.004315" lon="14.4495017"><ele>53.0</ele><time>2026-03-28T09:22:41.414Z</time></trkpt><trkpt lat="41.0043433" lon="14.4496017"><ele>53.00000000000001</ele><time>2026-03-28T09:22:42.413Z</time></trkpt><trkpt lat="41.0043667" lon="14.4497017"><ele>53.0</ele><time>2026-03-28T09:22:43.415Z</time></trkpt><trkpt lat="41.00439" lon="14.4498"><ele>53.00000000000001</ele><time>2026-03-28T09:22:44.413Z</time></trkpt><trkpt lat="41.0044067" lon="14.4498967"><ele>53.0</ele><time>2026-03-28T09:22:45.415Z</time></trkpt><trkpt lat="41.0044317" lon="14.4499917"><ele>53.0</ele><time>2026-03-28T09:22:46.414Z</time></trkpt><trkpt lat="41.00446" lon="14.450085"><ele>53.0</ele><time>2026-03-28T09:22:47.413Z</time></trkpt><trkpt lat="41.0044867" lon="14.4501767"><ele>53.00000000000001</ele><time>2026-03-28T09:22:48.414Z</time></trkpt><trkpt lat="41.0045083" lon="14.4502717"><ele>53.0</ele><time>2026-03-28T09:22:49.414Z</time></trkpt><trkpt lat="41.0045283" lon="14.4503667"><ele>53.285714285714285</ele><time>2026-03-28T09:22:50.414Z</time></trkpt><trkpt lat="41.0045517" lon="14.450465"><ele>53.57142857142857</ele><time>2026-03-28T09:22:51.414Z</time></trkpt><trkpt lat="41.0045767" lon="14.4505567"><ele>53.857142857142854</ele><time>2026-03-28T09:22:52.413Z</time></trkpt><trkpt lat="41.0046033" lon="14.450645"><ele>54.14285714285714</ele><time>2026-03-28T09:22:53.413Z</time></trkpt><trkpt lat="41.0046283" lon="14.4507367"><ele>54.42857142857143</ele><time>2026-03-28T09:22:54.414Z</time></trkpt><trkpt lat="41.004655" lon="14.45083"><ele>54.71428571428571</ele><time>2026-03-28T09:22:55.413Z</time></trkpt><trkpt lat="41.00468" lon="14.4509217"><ele>55.0</ele><time>2026-03-28T09:22:56.414Z</time></trkpt><trkpt lat="41.0047067" lon="14.4510133"><ele>54.99999999999999</ele><time>2026-03-28T09:22:57.414Z</time></trkpt><trkpt lat="41.004735" lon="14.4511033"><ele>55.0</ele><time>2026-03-28T09:22:58.414Z</time></trkpt><trkpt lat="41.0047633" lon="14.4511933"><ele>55.0</ele><time>2026-03-28T09:22:59.414Z</time></trkpt><trkpt lat="41.00479" lon="14.4512783"><ele>55.0</ele><time>2026-03-28T09:23:00.415Z</time></trkpt><trkpt lat="41.004815" lon="14.4513583"><ele>54.99999999999999</ele><time>2026-03-28T09:23:01.414Z</time></trkpt><trkpt lat="41.0048583" lon="14.4514983"><ele>55.0</ele><time>2026-03-28T09:23:03.414Z</time></trkpt><trkpt lat="41.0049133" lon="14.451635"><ele>55.0</ele><time>2026-03-28T09:23:05.414Z</time></trkpt><trkpt lat="41.0049533" lon="14.451795"><ele>55.0</ele><time>2026-03-28T09:23:07.414Z</time></trkpt><trkpt lat="41.0049817" lon="14.45195"><ele>55.0</ele><time>2026-03-28T09:23:09.414Z</time></trkpt><trkpt lat="41.0050233" lon="14.452095"><ele>55.0</ele><time>2026-03-28T09:23:11.414Z</time></trkpt><trkpt lat="41.0050683" lon="14.4522467"><ele>54.99999999999999</ele><time>2026-03-28T09:23:13.413Z</time></trkpt><trkpt lat="41.00509" lon="14.45233"><ele>55.0</ele><time>2026-03-28T09:23:14.414Z</time></trkpt><trkpt lat="41.00511" lon="14.45241"><ele>55.0</ele><time>2026-03-28T09:23:15.414Z</time></trkpt><trkpt lat="41.0051333" lon="14.4524983"><ele>55.0</ele><time>2026-03-28T09:23:16.414Z</time></trkpt><trkpt lat="41.0051583" lon="14.4525867"><ele>54.99999999999999</ele><time>2026-03-28T09:23:17.414Z</time></trkpt><trkpt lat="41.0051867" lon="14.4526667"><ele>55.0</ele><time>2026-03-28T09:23:18.414Z</time></trkpt><trkpt lat="41.005235" lon="14.452825"><ele>54.99999999999999</ele><time>2026-03-28T09:23:20.414Z</time></trkpt><trkpt lat="41.0052567" lon="14.4529067"><ele>55.0</ele><time>2026-03-28T09:23:21.415Z</time></trkpt><trkpt lat="41.0052983" lon="14.453065"><ele>55.0</ele><time>2026-03-28T09:23:23.414Z</time></trkpt><trkpt lat="41.0053217" lon="14.4531433"><ele>55.0</ele><time>2026-03-28T09:23:24.413Z</time></trkpt><trkpt lat="41.005345" lon="14.4532233"><ele>54.99999999999999</ele><time>2026-03-28T09:23:25.415Z</time></trkpt><trkpt lat="41.0053817" lon="14.4533833"><ele>55.0</ele><time>2026-03-28T09:23:27.414Z</time></trkpt><trkpt lat="41.0053983" lon="14.45347"><ele>55.33333333333333</ele><time>2026-03-28T09:23:28.414Z</time></trkpt><trkpt lat="41.005415" lon="14.4535517"><ele>55.666666666666664</ele><time>2026-03-28T09:23:29.414Z</time></trkpt><trkpt lat="41.0054583" lon="14.453715"><ele>56.0</ele><time>2026-03-28T09:23:31.414Z</time></trkpt><trkpt lat="41.0054817" lon="14.4537967"><ele>56.33333333333333</ele><time>2026-03-28T09:23:32.413Z</time></trkpt><trkpt lat="41.005505" lon="14.4538817"><ele>56.666666666666664</ele><time>2026-03-28T09:23:33.413Z</time></trkpt><trkpt lat="41.00553" lon="14.4539683"><ele>57.0</ele><time>2026-03-28T09:23:34.414Z</time></trkpt><trkpt lat="41.0055517" lon="14.454065"><ele>57.333333333333336</ele><time>2026-03-28T09:23:35.414Z</time></trkpt><trkpt lat="41.005575" lon="14.4541683"><ele>57.66666666666667</ele><time>2026-03-28T09:23:36.414Z</time></trkpt><trkpt lat="41.0056017" lon="14.4542667"><ele>58.0</ele><time>2026-03-28T09:23:37.414Z</time></trkpt><trkpt lat="41.005625" lon="14.454365"><ele>58.333333333333336</ele><time>2026-03-28T09:23:38.414Z</time></trkpt><trkpt lat="41.0056533" lon="14.4544617"><ele>58.66666666666667</ele><time>2026-03-28T09:23:39.414Z</time></trkpt><trkpt lat="41.0056833" lon="14.454555"><ele>59.0</ele><time>2026-03-28T09:23:40.416Z</time></trkpt><trkpt lat="41.0057183" lon="14.4546433"><ele>59.0</ele><time>2026-03-28T09:23:41.414Z</time></trkpt><trkpt lat="41.0057467" lon="14.4547367"><ele>59.0</ele><time>2026-03-28T09:23:42.413Z</time></trkpt><trkpt lat="41.0057717" lon="14.4548267"><ele>59.0</ele><time>2026-03-28T09:23:43.414Z</time></trkpt><trkpt lat="41.0058" lon="14.4549217"><ele>59.0</ele><time>2026-03-28T09:23:44.414Z</time></trkpt><trkpt lat="41.0058333" lon="14.455015"><ele>59.0</ele><time>2026-03-28T09:23:45.414Z</time></trkpt><trkpt lat="41.0058617" lon="14.4551033"><ele>59.0</ele><time>2026-03-28T09:23:46.414Z</time></trkpt><trkpt lat="41.0058883" lon="14.4551917"><ele>59.0</ele><time>2026-03-28T09:23:47.414Z</time></trkpt><trkpt lat="41.0059133" lon="14.4552817"><ele>59.0</ele><time>2026-03-28T09:23:48.414Z</time></trkpt><trkpt lat="41.0059383" lon="14.4553717"><ele>59.0</ele><time>2026-03-28T09:23:49.413Z</time></trkpt><trkpt lat="41.005965" lon="14.45546"><ele>59.0</ele><time>2026-03-28T09:23:50.415Z</time></trkpt><trkpt lat="41.0059917" lon="14.455545"><ele>59.0</ele><time>2026-03-28T09:23:51.414Z</time></trkpt><trkpt lat="41.0060167" lon="14.45563"><ele>59.0</ele><time>2026-03-28T09:23:52.414Z</time></trkpt><trkpt lat="41.00604" lon="14.4557133"><ele>59.0</ele><time>2026-03-28T09:23:53.414Z</time></trkpt><trkpt lat="41.00606" lon="14.4558"><ele>59.0</ele><time>2026-03-28T09:23:54.414Z</time></trkpt><trkpt lat="41.0060817" lon="14.4558867"><ele>59.0</ele><time>2026-03-28T09:23:55.414Z</time></trkpt><trkpt lat="41.0061017" lon="14.45597"><ele>59.0</ele><time>2026-03-28T09:23:56.413Z</time></trkpt><trkpt lat="41.0061217" lon="14.4560567"><ele>59.0</ele><time>2026-03-28T09:23:57.414Z</time></trkpt><trkpt lat="41.006145" lon="14.45614"><ele>59.0</ele><time>2026-03-28T09:23:58.414Z</time></trkpt><trkpt lat="41.0061683" lon="14.4562217"><ele>59.0</ele><time>2026-03-28T09:23:59.414Z</time></trkpt><trkpt lat="41.00619" lon="14.45631"><ele>59.0</ele><time>2026-03-28T09:24:00.413Z</time></trkpt><trkpt lat="41.0062133" lon="14.4564"><ele>59.0</ele><time>2026-03-28T09:24:01.415Z</time></trkpt><trkpt lat="41.0062283" lon="14.4564933"><ele>59.0</ele><time>2026-03-28T09:24:02.414Z</time></trkpt><trkpt lat="41.0062417" lon="14.4565833"><ele>59.0</ele><time>2026-03-28T09:24:03.414Z</time></trkpt><trkpt lat="41.00626" lon="14.456675"><ele>59.0</ele><time>2026-03-28T09:24:04.414Z</time></trkpt><trkpt lat="41.0062817" lon="14.4567567"><ele>59.0</ele><time>2026-03-28T09:24:05.414Z</time></trkpt><trkpt lat="41.0063033" lon="14.45684"><ele>59.0</ele><time>2026-03-28T09:24:06.413Z</time></trkpt><trkpt lat="41.006325" lon="14.456925"><ele>59.0</ele><time>2026-03-28T09:24:07.414Z</time></trkpt><trkpt lat="41.006345" lon="14.4570117"><ele>59.0</ele><time>2026-03-28T09:24:08.413Z</time></trkpt><trkpt lat="41.0063667" lon="14.4570967"><ele>59.57142857142857</ele><time>2026-03-28T09:24:09.415Z</time></trkpt><trkpt lat="41.0063917" lon="14.4571833"><ele>60.142857142857146</ele><time>2026-03-28T09:24:10.413Z</time></trkpt><trkpt lat="41.006415" lon="14.4572667"><ele>60.714285714285715</ele><time>2026-03-28T09:24:11.414Z</time></trkpt><trkpt lat="41.0064383" lon="14.4573533"><ele>61.285714285714285</ele><time>2026-03-28T09:24:12.415Z</time></trkpt><trkpt lat="41.0064633" lon="14.4574467"><ele>61.85714285714286</ele><time>2026-03-28T09:24:13.414Z</time></trkpt><trkpt lat="41.00649" lon="14.4575367"><ele>62.42857142857143</ele><time>2026-03-28T09:24:14.414Z</time></trkpt><trkpt lat="41.0065167" lon="14.4576283"><ele>63.0</ele><time>2026-03-28T09:24:15.413Z</time></trkpt><trkpt lat="41.00654" lon="14.45772"><ele>63.0</ele><time>2026-03-28T09:24:16.414Z</time></trkpt><trkpt lat="41.00656" lon="14.4578117"><ele>63.0</ele><time>2026-03-28T09:24:17.414Z</time></trkpt><trkpt lat="41.0065833" lon="14.4579017"><ele>63.0</ele><time>2026-03-28T09:24:18.414Z</time></trkpt><trkpt lat="41.006605" lon="14.4579867"><ele>63.0</ele><time>2026-03-28T09:24:19.414Z</time></trkpt><trkpt lat="41.00663" lon="14.4580717"><ele>63.0</ele><time>2026-03-28T09:24:20.413Z</time></trkpt><trkpt lat="41.0066533" lon="14.4581567"><ele>63.0</ele><time>2026-03-28T09:24:21.414Z</time></trkpt><trkpt lat="41.0066767" lon="14.4582417"><ele>63.0</ele><time>2026-03-28T09:24:22.415Z</time></trkpt><trkpt lat="41.0067" lon="14.4583217"><ele>62.85714285714286</ele><time>2026-03-28T09:24:23.415Z</time></trkpt><trkpt lat="41.0067233" lon="14.4584"><ele>62.714285714285715</ele><time>2026-03-28T09:24:24.413Z</time></trkpt><trkpt lat="41.006745" lon="14.4584833"><ele>62.57142857142857</ele><time>2026-03-28T09:24:25.414Z</time></trkpt><trkpt lat="41.006765" lon="14.4585683"><ele>62.42857142857143</ele><time>2026-03-28T09:24:26.415Z</time></trkpt><trkpt lat="41.0067883" lon="14.458655"><ele>62.28571428571429</ele><time>2026-03-28T09:24:27.415Z</time></trkpt><trkpt lat="41.0068133" lon="14.45874"><ele>62.142857142857146</ele><time>2026-03-28T09:24:28.414Z</time></trkpt><trkpt lat="41.0068333" lon="14.458825"><ele>62.0</ele><time>2026-03-28T09:24:29.415Z</time></trkpt><trkpt lat="41.0068533" lon="14.4589167"><ele>62.0</ele><time>2026-03-28T09:24:30.414Z</time></trkpt><trkpt lat="41.006875" lon="14.4590067"><ele>62.00000000000001</ele><time>2026-03-28T09:24:31.415Z</time></trkpt><trkpt lat="41.0069" lon="14.459095"><ele>62.0</ele><time>2026-03-28T09:24:32.414Z</time></trkpt><trkpt lat="41.0069233" lon="14.459185"><ele>62.0</ele><time>2026-03-28T09:24:33.415Z</time></trkpt><trkpt lat="41.0069467" lon="14.459275"><ele>62.00000000000001</ele><time>2026-03-28T09:24:34.414Z</time></trkpt><trkpt lat="41.0069717" lon="14.45936"><ele>62.0</ele><time>2026-03-28T09:24:35.415Z</time></trkpt><trkpt lat="41.0069967" lon="14.4594483"><ele>62.0</ele><time>2026-03-28T09:24:36.415Z</time></trkpt><trkpt lat="41.00702" lon="14.4595333"><ele>62.28571428571429</ele><time>2026-03-28T09:24:37.415Z</time></trkpt><trkpt lat="41.0070433" lon="14.4596183"><ele>62.57142857142858</ele><time>2026-03-28T09:24:38.415Z</time></trkpt><trkpt lat="41.0070667" lon="14.45971"><ele>62.85714285714286</ele><time>2026-03-28T09:24:39.415Z</time></trkpt><trkpt lat="41.0070883" lon="14.4598033"><ele>63.14285714285714</ele><time>2026-03-28T09:24:40.414Z</time></trkpt><trkpt lat="41.0071167" lon="14.4598883"><ele>63.42857142857142</ele><time>2026-03-28T09:24:41.415Z</time></trkpt><trkpt lat="41.0071467" lon="14.4599783"><ele>63.71428571428571</ele><time>2026-03-28T09:24:42.415Z</time></trkpt><trkpt lat="41.0071683" lon="14.46007"><ele>64.0</ele><time>2026-03-28T09:24:43.415Z</time></trkpt><trkpt lat="41.00719" lon="14.46016"><ele>64.0</ele><time>2026-03-28T09:24:44.415Z</time></trkpt><trkpt lat="41.0072133" lon="14.4602533"><ele>63.99999999999999</ele><time>2026-03-28T09:24:45.415Z</time></trkpt><trkpt lat="41.00724" lon="14.46035"><ele>64.0</ele><time>2026-03-28T09:24:46.415Z</time></trkpt><trkpt lat="41.0072633" lon="14.4604433"><ele>64.0</ele><time>2026-03-28T09:24:47.414Z</time></trkpt><trkpt lat="41.007285" lon="14.460535"><ele>63.99999999999999</ele><time>2026-03-28T09:24:48.414Z</time></trkpt><trkpt lat="41.0073083" lon="14.4606267"><ele>64.0</ele><time>2026-03-28T09:24:49.414Z</time></trkpt><trkpt lat="41.0073317" lon="14.4607133"><ele>64.0</ele><time>2026-03-28T09:24:50.415Z</time></trkpt><trkpt lat="41.0073567" lon="14.4608017"><ele>64.0</ele><time>2026-03-28T09:24:51.415Z</time></trkpt><trkpt lat="41.0073817" lon="14.4608917"><ele>63.99999999999999</ele><time>2026-03-28T09:24:52.415Z</time></trkpt><trkpt lat="41.0074067" lon="14.4609767"><ele>64.0</ele><time>2026-03-28T09:24:53.415Z</time></trkpt><trkpt lat="41.0074317" lon="14.4610633"><ele>64.0</ele><time>2026-03-28T09:24:54.415Z</time></trkpt><trkpt lat="41.007455" lon="14.4611517"><ele>63.99999999999999</ele><time>2026-03-28T09:24:55.415Z</time></trkpt><trkpt lat="41.00748" lon="14.4612367"><ele>64.0</ele><time>2026-03-28T09:24:56.414Z</time></trkpt><trkpt lat="41.007505" lon="14.4613233"><ele>64.0</ele><time>2026-03-28T09:24:57.416Z</time></trkpt><trkpt lat="41.0075267" lon="14.46141"><ele>63.71428571428571</ele><time>2026-03-28T09:24:58.416Z</time></trkpt><trkpt lat="41.00755" lon="14.461495"><ele>63.42857142857142</ele><time>2026-03-28T09:24:59.415Z</time></trkpt><trkpt lat="41.00758" lon="14.4615817"><ele>63.14285714285714</ele><time>2026-03-28T09:25:00.414Z</time></trkpt><trkpt lat="41.0076017" lon="14.4616683"><ele>62.85714285714286</ele><time>2026-03-28T09:25:01.415Z</time></trkpt><trkpt lat="41.007625" lon="14.461755"><ele>62.57142857142858</ele><time>2026-03-28T09:25:02.415Z</time></trkpt><trkpt lat="41.0076483" lon="14.46184"><ele>62.28571428571429</ele><time>2026-03-28T09:25:03.415Z</time></trkpt><trkpt lat="41.0076717" lon="14.461925"><ele>62.0</ele><time>2026-03-28T09:25:04.415Z</time></trkpt><trkpt lat="41.0076967" lon="14.46201"><ele>62.0</ele><time>2026-03-28T09:25:05.415Z</time></trkpt><trkpt lat="41.0077183" lon="14.46209"><ele>62.00000000000001</ele><time>2026-03-28T09:25:06.415Z</time></trkpt><trkpt lat="41.0077433" lon="14.4621717"><ele>62.0</ele><time>2026-03-28T09:25:07.415Z</time></trkpt><trkpt lat="41.00777" lon="14.4622533"><ele>62.0</ele><time>2026-03-28T09:25:08.415Z</time></trkpt><trkpt lat="41.007795" lon="14.4623333"><ele>62.00000000000001</ele><time>2026-03-28T09:25:09.414Z</time></trkpt><trkpt lat="41.0078167" lon="14.4624133"><ele>62.0</ele><time>2026-03-28T09:25:10.415Z</time></trkpt><trkpt lat="41.00784" lon="14.4624917"><ele>62.0</ele><time>2026-03-28T09:25:11.415Z</time></trkpt><trkpt lat="41.0078733" lon="14.462625"><ele>62.16666666666667</ele><time>2026-03-28T09:25:13.415Z</time></trkpt><trkpt lat="41.0078683" lon="14.4627167"><ele>62.333333333333336</ele><time>2026-03-28T09:25:15.414Z</time></trkpt><trkpt lat="41.007885" lon="14.4628183"><ele>62.5</ele><time>2026-03-28T09:25:19.413Z</time></trkpt><trkpt lat="41.0078767" lon="14.4629017"><ele>62.66666666666667</ele><time>2026-03-28T09:25:23.414Z</time></trkpt><trkpt lat="41.0079417" lon="14.4629467"><ele>62.833333333333336</ele><time>2026-03-28T09:25:39.414Z</time></trkpt><trkpt lat="41.0079667" lon="14.4630417"><ele>63.0</ele><time>2026-03-28T09:25:41.414Z</time></trkpt><trkpt lat="41.008" lon="14.463155"><ele>63.166666666666664</ele><time>2026-03-28T09:25:43.413Z</time></trkpt><trkpt lat="41.008035" lon="14.4632833"><ele>63.33333333333333</ele><time>2026-03-28T09:25:45.414Z</time></trkpt><trkpt lat="41.0080733" lon="14.4634317"><ele>63.5</ele><time>2026-03-28T09:25:47.414Z</time></trkpt><trkpt lat="41.008095" lon="14.4635117"><ele>63.666666666666664</ele><time>2026-03-28T09:25:48.415Z</time></trkpt><trkpt lat="41.00812" lon="14.4635967"><ele>63.83333333333333</ele><time>2026-03-28T09:25:49.415Z</time></trkpt><trkpt lat="41.008145" lon="14.4636867"><ele>64.0</ele><time>2026-03-28T09:25:50.415Z</time></trkpt><trkpt lat="41.0081683" lon="14.463775"><ele>64.28571428571428</ele><time>2026-03-28T09:25:51.416Z</time></trkpt><trkpt lat="41.0081933" lon="14.4638633"><ele>64.57142857142857</ele><time>2026-03-28T09:25:52.414Z</time></trkpt><trkpt lat="41.0082183" lon="14.463955"><ele>64.85714285714286</ele><time>2026-03-28T09:25:53.414Z</time></trkpt><trkpt lat="41.008245" lon="14.4640483"><ele>65.14285714285714</ele><time>2026-03-28T09:25:54.414Z</time></trkpt><trkpt lat="41.0082683" lon="14.46414"><ele>65.42857142857143</ele><time>2026-03-28T09:25:55.414Z</time></trkpt><trkpt lat="41.0082933" lon="14.4642317"><ele>65.71428571428571</ele><time>2026-03-28T09:25:56.414Z</time></trkpt><trkpt lat="41.0083167" lon="14.4643267"><ele>66.0</ele><time>2026-03-28T09:25:57.415Z</time></trkpt><trkpt lat="41.0083433" lon="14.4644233"><ele>65.66666666666667</ele><time>2026-03-28T09:25:58.414Z</time></trkpt><trkpt lat="41.0083717" lon="14.46452"><ele>65.33333333333333</ele><time>2026-03-28T09:25:59.414Z</time></trkpt><trkpt lat="41.0083967" lon="14.4646133"><ele>65.0</ele><time>2026-03-28T09:26:00.414Z</time></trkpt><trkpt lat="41.0084267" lon="14.4647067"><ele>64.66666666666666</ele><time>2026-03-28T09:26:01.414Z</time></trkpt><trkpt lat="41.0084517" lon="14.4648017"><ele>64.33333333333333</ele><time>2026-03-28T09:26:02.415Z</time></trkpt><trkpt lat="41.0084767" lon="14.4648967"><ele>64.0</ele><time>2026-03-28T09:26:03.414Z</time></trkpt><trkpt lat="41.0084983" lon="14.4649917"><ele>64.0</ele><time>2026-03-28T09:26:04.414Z</time></trkpt><trkpt lat="41.0085233" lon="14.465085"><ele>63.99999999999999</ele><time>2026-03-28T09:26:05.413Z</time></trkpt><trkpt lat="41.0085483" lon="14.4651783"><ele>64.0</ele><time>2026-03-28T09:26:06.415Z</time></trkpt><trkpt lat="41.0085767" lon="14.4652667"><ele>64.0</ele><time>2026-03-28T09:26:07.413Z</time></trkpt><trkpt lat="41.0086033" lon="14.4653567"><ele>63.99999999999999</ele><time>2026-03-28T09:26:08.415Z</time></trkpt><trkpt lat="41.0086283" lon="14.4654467"><ele>64.0</ele><time>2026-03-28T09:26:09.414Z</time></trkpt><trkpt lat="41.0086533" lon="14.4655383"><ele>64.0</ele><time>2026-03-28T09:26:10.414Z</time></trkpt><trkpt lat="41.0086783" lon="14.4656233"><ele>64.33333333333333</ele><time>2026-03-28T09:26:11.414Z</time></trkpt><trkpt lat="41.008705" lon="14.4657083"><ele>64.66666666666666</ele><time>2026-03-28T09:26:12.415Z</time></trkpt><trkpt lat="41.0087317" lon="14.4657983"><ele>65.0</ele><time>2026-03-28T09:26:13.414Z</time></trkpt><trkpt lat="41.0087567" lon="14.4658933"><ele>65.33333333333333</ele><time>2026-03-28T09:26:14.414Z</time></trkpt><trkpt lat="41.0087783" lon="14.4659883"><ele>65.66666666666667</ele><time>2026-03-28T09:26:15.414Z</time></trkpt><trkpt lat="41.0088033" lon="14.466085"><ele>66.0</ele><time>2026-03-28T09:26:16.414Z</time></trkpt><trkpt lat="41.0088317" lon="14.466185"><ele>66.33333333333333</ele><time>2026-03-28T09:26:17.415Z</time></trkpt><trkpt lat="41.00886" lon="14.4662783"><ele>66.66666666666667</ele><time>2026-03-28T09:26:18.414Z</time></trkpt><trkpt lat="41.0088883" lon="14.4663733"><ele>67.0</ele><time>2026-03-28T09:26:19.414Z</time></trkpt><trkpt lat="41.0089133" lon="14.4664683"><ele>67.33333333333334</ele><time>2026-03-28T09:26:20.414Z</time></trkpt><trkpt lat="41.0089367" lon="14.466565"><ele>67.66666666666667</ele><time>2026-03-28T09:26:21.414Z</time></trkpt><trkpt lat="41.0089617" lon="14.46666"><ele>68.0</ele><time>2026-03-28T09:26:22.414Z</time></trkpt><trkpt lat="41.0089867" lon="14.4667583"><ele>68.0</ele><time>2026-03-28T09:26:23.415Z</time></trkpt><trkpt lat="41.0090117" lon="14.46686"><ele>68.0</ele><time>2026-03-28T09:26:24.414Z</time></trkpt><trkpt lat="41.0090383" lon="14.46696"><ele>68.0</ele><time>2026-03-28T09:26:25.414Z</time></trkpt><trkpt lat="41.0090633" lon="14.4670583"><ele>68.0</ele><time>2026-03-28T09:26:26.418Z</time></trkpt><trkpt lat="41.0090883" lon="14.46716"><ele>68.0</ele><time>2026-03-28T09:26:27.415Z</time></trkpt><trkpt lat="41.009115" lon="14.46726"><ele>68.0</ele><time>2026-03-28T09:26:28.414Z</time></trkpt><trkpt lat="41.009145" lon="14.4673567"><ele>67.66666666666667</ele><time>2026-03-28T09:26:29.416Z</time></trkpt><trkpt lat="41.0091733" lon="14.4674533"><ele>67.33333333333334</ele><time>2026-03-28T09:26:30.414Z</time></trkpt><trkpt lat="41.0091983" lon="14.4675517"><ele>67.0</ele><time>2026-03-28T09:26:31.414Z</time></trkpt><trkpt lat="41.009225" lon="14.4676483"><ele>66.66666666666667</ele><time>2026-03-28T09:26:32.414Z</time></trkpt><trkpt lat="41.0092517" lon="14.4677483"><ele>66.33333333333333</ele><time>2026-03-28T09:26:33.415Z</time></trkpt><trkpt lat="41.0092783" lon="14.4678483"><ele>66.0</ele><time>2026-03-28T09:26:34.415Z</time></trkpt><trkpt lat="41.0093017" lon="14.4679483"><ele>65.83333333333333</ele><time>2026-03-28T09:26:35.414Z</time></trkpt><trkpt lat="41.0093267" lon="14.4680433"><ele>65.66666666666667</ele><time>2026-03-28T09:26:36.414Z</time></trkpt><trkpt lat="41.009355" lon="14.4681417"><ele>65.5</ele><time>2026-03-28T09:26:37.414Z</time></trkpt><trkpt lat="41.0093817" lon="14.46824"><ele>65.33333333333334</ele><time>2026-03-28T09:26:38.415Z</time></trkpt><trkpt lat="41.009405" lon="14.46834"><ele>65.16666666666667</ele><time>2026-03-28T09:26:39.414Z</time></trkpt><trkpt lat="41.0094283" lon="14.4684417"><ele>65.0</ele><time>2026-03-28T09:26:40.414Z</time></trkpt><trkpt lat="41.0094533" lon="14.4685417"><ele>65.00000000000001</ele><time>2026-03-28T09:26:41.414Z</time></trkpt><trkpt lat="41.00948" lon="14.4686367"><ele>65.0</ele><time>2026-03-28T09:26:42.414Z</time></trkpt><trkpt lat="41.0095033" lon="14.46873"><ele>65.0</ele><time>2026-03-28T09:26:43.414Z</time></trkpt><trkpt lat="41.0095267" lon="14.4688167"><ele>65.0</ele><time>2026-03-28T09:26:44.415Z</time></trkpt><trkpt lat="41.00955" lon="14.4688983"><ele>65.0</ele><time>2026-03-28T09:26:45.414Z</time></trkpt><trkpt lat="41.0095733" lon="14.4689783"><ele>65.00000000000001</ele><time>2026-03-28T09:26:46.415Z</time></trkpt><trkpt lat="41.0095933" lon="14.4690617"><ele>65.0</ele><time>2026-03-28T09:26:47.414Z</time></trkpt><trkpt lat="41.00963" lon="14.4692133"><ele>65.2</ele><time>2026-03-28T09:26:49.414Z</time></trkpt><trkpt lat="41.00967" lon="14.46935"><ele>65.4</ele><time>2026-03-28T09:26:51.414Z</time></trkpt><trkpt lat="41.0097067" lon="14.4694817"><ele>65.6</ele><time>2026-03-28T09:26:53.414Z</time></trkpt><trkpt lat="41.0097383" lon="14.4696133"><ele>65.8</ele><time>2026-03-28T09:26:55.414Z</time></trkpt><trkpt lat="41.0097717" lon="14.4697383"><ele>66.0</ele><time>2026-03-28T09:26:57.414Z</time></trkpt><trkpt lat="41.0098" lon="14.469845"><ele>66.16666666666667</ele><time>2026-03-28T09:26:59.414Z</time></trkpt><trkpt lat="41.009815" lon="14.4699433"><ele>66.33333333333333</ele><time>2026-03-28T09:27:01.414Z</time></trkpt><trkpt lat="41.00983" lon="14.4700433"><ele>66.5</ele><time>2026-03-28T09:27:03.415Z</time></trkpt><trkpt lat="41.00985" lon="14.4701483"><ele>66.66666666666666</ele><time>2026-03-28T09:27:05.415Z</time></trkpt><trkpt lat="41.009865" lon="14.4702717"><ele>66.83333333333333</ele><time>2026-03-28T09:27:07.414Z</time></trkpt><trkpt lat="41.00988" lon="14.4703817"><ele>67.0</ele><time>2026-03-28T09:27:09.413Z</time></trkpt><trkpt lat="41.009905" lon="14.4705017"><ele>67.25</ele><time>2026-03-28T09:27:11.414Z</time></trkpt><trkpt lat="41.00993" lon="14.4706367"><ele>67.5</ele><time>2026-03-28T09:27:13.413Z</time></trkpt><trkpt lat="41.0099483" lon="14.47079"><ele>67.75</ele><time>2026-03-28T09:27:15.414Z</time></trkpt><trkpt lat="41.0099717" lon="14.470955"><ele>68.0</ele><time>2026-03-28T09:27:17.414Z</time></trkpt><trkpt lat="41.009995" lon="14.4711167"><ele>67.99999999999999</ele><time>2026-03-28T09:27:19.414Z</time></trkpt><trkpt lat="41.010005" lon="14.4712"><ele>68.0</ele><time>2026-03-28T09:27:20.414Z</time></trkpt><trkpt lat="41.0100117" lon="14.4712867"><ele>68.0</ele><time>2026-03-28T09:27:21.414Z</time></trkpt><trkpt lat="41.0100217" lon="14.4713733"><ele>68.0</ele><time>2026-03-28T09:27:22.414Z</time></trkpt><trkpt lat="41.0100367" lon="14.471465"><ele>68.0</ele><time>2026-03-28T09:27:23.414Z</time></trkpt><trkpt lat="41.0100617" lon="14.4715583"><ele>67.99999999999999</ele><time>2026-03-28T09:27:24.414Z</time></trkpt><trkpt lat="41.0100767" lon="14.47165"><ele>68.0</ele><time>2026-03-28T09:27:25.414Z</time></trkpt><trkpt lat="41.0100917" lon="14.4717383"><ele>68.33333333333334</ele><time>2026-03-28T09:27:26.414Z</time></trkpt><trkpt lat="41.0101033" lon="14.4718267"><ele>68.66666666666667</ele><time>2026-03-28T09:27:27.413Z</time></trkpt><trkpt lat="41.0101167" lon="14.4719167"><ele>69.0</ele><time>2026-03-28T09:27:28.414Z</time></trkpt><trkpt lat="41.010135" lon="14.472"><ele>69.33333333333333</ele><time>2026-03-28T09:27:29.413Z</time></trkpt><trkpt lat="41.0101733" lon="14.4721633"><ele>69.66666666666666</ele><time>2026-03-28T09:27:31.413Z</time></trkpt><trkpt lat="41.0101883" lon="14.47225"><ele>70.0</ele><time>2026-03-28T09:27:32.413Z</time></trkpt><trkpt lat="41.0102067" lon="14.4723417"><ele>70.28571428571429</ele><time>2026-03-28T09:27:33.413Z</time></trkpt><trkpt lat="41.0102233" lon="14.4724383"><ele>70.57142857142857</ele><time>2026-03-28T09:27:34.413Z</time></trkpt><trkpt lat="41.010245" lon="14.4725317"><ele>70.85714285714286</ele><time>2026-03-28T09:27:35.413Z</time></trkpt><trkpt lat="41.0102667" lon="14.4726283"><ele>71.14285714285714</ele><time>2026-03-28T09:27:36.413Z</time></trkpt><trkpt lat="41.010285" lon="14.47273"><ele>71.42857142857143</ele><time>2026-03-28T09:27:37.414Z</time></trkpt><trkpt lat="41.0103017" lon="14.4728233"><ele>71.71428571428572</ele><time>2026-03-28T09:27:38.413Z</time></trkpt><trkpt lat="41.0103183" lon="14.4729117"><ele>72.0</ele><time>2026-03-28T09:27:39.413Z</time></trkpt><trkpt lat="41.010335" lon="14.4730017"><ele>72.28571428571429</ele><time>2026-03-28T09:27:40.414Z</time></trkpt><trkpt lat="41.0103533" lon="14.47309"><ele>72.57142857142857</ele><time>2026-03-28T09:27:41.413Z</time></trkpt><trkpt lat="41.0103717" lon="14.473185"><ele>72.85714285714286</ele><time>2026-03-28T09:27:42.414Z</time></trkpt><trkpt lat="41.0103917" lon="14.4732783"><ele>73.14285714285714</ele><time>2026-03-28T09:27:43.414Z</time></trkpt><trkpt lat="41.010405" lon="14.4733717"><ele>73.42857142857143</ele><time>2026-03-28T09:27:44.413Z</time></trkpt><trkpt lat="41.0104217" lon="14.4734717"><ele>73.71428571428572</ele><time>2026-03-28T09:27:45.413Z</time></trkpt><trkpt lat="41.0104367" lon="14.473575"><ele>74.0</ele><time>2026-03-28T09:27:46.414Z</time></trkpt><trkpt lat="41.01045" lon="14.4736783"><ele>74.16666666666667</ele><time>2026-03-28T09:27:47.413Z</time></trkpt><trkpt lat="41.0104617" lon="14.4737883"><ele>74.33333333333334</ele><time>2026-03-28T09:27:48.413Z</time></trkpt><trkpt lat="41.0104767" lon="14.4739017"><ele>74.5</ele><time>2026-03-28T09:27:49.413Z</time></trkpt><trkpt lat="41.0104917" lon="14.47401"><ele>74.66666666666667</ele><time>2026-03-28T09:27:50.413Z</time></trkpt><trkpt lat="41.0105117" lon="14.4741167"><ele>74.83333333333333</ele><time>2026-03-28T09:27:51.413Z</time></trkpt><trkpt lat="41.010535" lon="14.4742183"><ele>75.0</ele><time>2026-03-28T09:27:52.414Z</time></trkpt><trkpt lat="41.0105533" lon="14.4743183"><ele>75.0</ele><time>2026-03-28T09:27:53.412Z</time></trkpt><trkpt lat="41.0105717" lon="14.474415"><ele>75.0</ele><time>2026-03-28T09:27:54.413Z</time></trkpt><trkpt lat="41.0105883" lon="14.4745017"><ele>75.0</ele><time>2026-03-28T09:27:55.413Z</time></trkpt><trkpt lat="41.010605" lon="14.474585"><ele>75.0</ele><time>2026-03-28T09:27:56.413Z</time></trkpt><trkpt lat="41.0106217" lon="14.4746667"><ele>75.0</ele><time>2026-03-28T09:27:57.414Z</time></trkpt><trkpt lat="41.0106383" lon="14.4748283"><ele>75.0</ele><time>2026-03-28T09:27:59.414Z</time></trkpt><trkpt lat="41.01065" lon="14.4749917"><ele>75.16666666666667</ele><time>2026-03-28T09:28:01.413Z</time></trkpt><trkpt lat="41.0106683" lon="14.4751617"><ele>75.33333333333333</ele><time>2026-03-28T09:28:03.414Z</time></trkpt><trkpt lat="41.0106733" lon="14.47525"><ele>75.5</ele><time>2026-03-28T09:28:04.414Z</time></trkpt><trkpt lat="41.0106833" lon="14.475335"><ele>75.66666666666666</ele><time>2026-03-28T09:28:05.413Z</time></trkpt><trkpt lat="41.01069" lon="14.47542"><ele>75.83333333333333</ele><time>2026-03-28T09:28:06.413Z</time></trkpt><trkpt lat="41.0107033" lon="14.4755017"><ele>76.0</ele><time>2026-03-28T09:28:07.415Z</time></trkpt><trkpt lat="41.0107317" lon="14.4756633"><ele>76.39999999999999</ele><time>2026-03-28T09:28:09.414Z</time></trkpt><trkpt lat="41.0107567" lon="14.4758183"><ele>76.8</ele><time>2026-03-28T09:28:11.413Z</time></trkpt><trkpt lat="41.0107833" lon="14.47596"><ele>77.19999999999999</ele><time>2026-03-28T09:28:13.413Z</time></trkpt><trkpt lat="41.010805" lon="14.4760917"><ele>77.6</ele><time>2026-03-28T09:28:15.414Z</time></trkpt><trkpt lat="41.010825" lon="14.476225"><ele>78.0</ele><time>2026-03-28T09:28:17.413Z</time></trkpt><trkpt lat="41.01084" lon="14.4763683"><ele>78.33333333333333</ele><time>2026-03-28T09:28:19.413Z</time></trkpt><trkpt lat="41.01086" lon="14.476485"><ele>78.66666666666667</ele><time>2026-03-28T09:28:21.413Z</time></trkpt><trkpt lat="41.0108833" lon="14.4765833"><ele>79.0</ele><time>2026-03-28T09:28:23.414Z</time></trkpt><trkpt lat="41.0109083" lon="14.4766717"><ele>79.33333333333334</ele><time>2026-03-28T09:28:25.414Z</time></trkpt><trkpt lat="41.0109317" lon="14.4767817"><ele>79.66666666666667</ele><time>2026-03-28T09:28:27.413Z</time></trkpt><trkpt lat="41.0109483" lon="14.4769083"><ele>80.0</ele><time>2026-03-28T09:28:29.413Z</time></trkpt><trkpt lat="41.0109617" lon="14.4770367"><ele>80.0</ele><time>2026-03-28T09:28:31.413Z</time></trkpt><trkpt lat="41.01098" lon="14.4771733"><ele>80.0</ele><time>2026-03-28T09:28:33.415Z</time></trkpt><trkpt lat="41.0109967" lon="14.4773133"><ele>80.0</ele><time>2026-03-28T09:28:35.414Z</time></trkpt><trkpt lat="41.0110133" lon="14.4774583"><ele>80.0</ele><time>2026-03-28T09:28:37.414Z</time></trkpt><trkpt lat="41.0110333" lon="14.4776017"><ele>80.0</ele><time>2026-03-28T09:28:39.414Z</time></trkpt><trkpt lat="41.01106" lon="14.4777333"><ele>80.0</ele><time>2026-03-28T09:28:41.413Z</time></trkpt><trkpt lat="41.011085" lon="14.4778767"><ele>80.0</ele><time>2026-03-28T09:28:43.412Z</time></trkpt><trkpt lat="41.0111133" lon="14.4780283"><ele>80.0</ele><time>2026-03-28T09:28:45.413Z</time></trkpt><trkpt lat="41.0111383" lon="14.47818"><ele>80.0</ele><time>2026-03-28T09:28:47.413Z</time></trkpt><trkpt lat="41.0111617" lon="14.47833"><ele>80.0</ele><time>2026-03-28T09:28:49.413Z</time></trkpt><trkpt lat="41.01118" lon="14.478475"><ele>80.0</ele><time>2026-03-28T09:28:51.413Z</time></trkpt><trkpt lat="41.0112083" lon="14.4786183"><ele>80.0</ele><time>2026-03-28T09:28:53.413Z</time></trkpt><trkpt lat="41.0112383" lon="14.4787367"><ele>80.0</ele><time>2026-03-28T09:28:55.413Z</time></trkpt><trkpt lat="41.0112617" lon="14.4788317"><ele>80.0</ele><time>2026-03-28T09:28:57.415Z</time></trkpt><trkpt lat="41.0112767" lon="14.47894"><ele>81.0</ele><time>2026-03-28T09:28:59.414Z</time></trkpt><trkpt lat="41.0113033" lon="14.4790717"><ele>82.0</ele><time>2026-03-28T09:29:01.415Z</time></trkpt><trkpt lat="41.0113333" lon="14.4792217"><ele>83.0</ele><time>2026-03-28T09:29:03.415Z</time></trkpt><trkpt lat="41.0113583" lon="14.4793717"><ele>84.0</ele><time>2026-03-28T09:29:05.415Z</time></trkpt><trkpt lat="41.0113733" lon="14.47951"><ele>85.0</ele><time>2026-03-28T09:29:07.416Z</time></trkpt><trkpt lat="41.0113983" lon="14.4796383"><ele>85.4</ele><time>2026-03-28T09:29:09.415Z</time></trkpt><trkpt lat="41.011425" lon="14.479765"><ele>85.8</ele><time>2026-03-28T09:29:11.415Z</time></trkpt><trkpt lat="41.011455" lon="14.4799083"><ele>86.19999999999999</ele><time>2026-03-28T09:29:13.417Z</time></trkpt><trkpt lat="41.011485" lon="14.48005"><ele>86.6</ele><time>2026-03-28T09:29:15.414Z</time></trkpt><trkpt lat="41.0115033" lon="14.48019"><ele>87.0</ele><time>2026-03-28T09:29:17.417Z</time></trkpt><trkpt lat="41.01153" lon="14.4803383"><ele>87.5</ele><time>2026-03-28T09:29:19.416Z</time></trkpt><trkpt lat="41.01156" lon="14.4804867"><ele>88.0</ele><time>2026-03-28T09:29:21.415Z</time></trkpt><trkpt lat="41.0115933" lon="14.48064"><ele>88.5</ele><time>2026-03-28T09:29:23.415Z</time></trkpt><trkpt lat="41.0116183" lon="14.48079"><ele>89.0</ele><time>2026-03-28T09:29:25.416Z</time></trkpt><trkpt lat="41.0116417" lon="14.4809433"><ele>89.0</ele><time>2026-03-28T09:29:27.414Z</time></trkpt><trkpt lat="41.0116683" lon="14.4810817"><ele>89.0</ele><time>2026-03-28T09:29:29.415Z</time></trkpt><trkpt lat="41.0116867" lon="14.4812283"><ele>89.0</ele><time>2026-03-28T09:29:31.416Z</time></trkpt><trkpt lat="41.0117117" lon="14.4813867"><ele>89.0</ele><time>2026-03-28T09:29:33.415Z</time></trkpt><trkpt lat="41.0117433" lon="14.4815233"><ele>89.0</ele><time>2026-03-28T09:29:35.416Z</time></trkpt><trkpt lat="41.0117583" lon="14.48167"><ele>89.0</ele><time>2026-03-28T09:29:37.419Z</time></trkpt><trkpt lat="41.0117783" lon="14.481815"><ele>89.0</ele><time>2026-03-28T09:29:39.418Z</time></trkpt><trkpt lat="41.0118" lon="14.481955"><ele>89.0</ele><time>2026-03-28T09:29:41.415Z</time></trkpt><trkpt lat="41.0118283" lon="14.4821017"><ele>89.0</ele><time>2026-03-28T09:29:43.417Z</time></trkpt><trkpt lat="41.0118633" lon="14.48224"><ele>89.4</ele><time>2026-03-28T09:29:45.416Z</time></trkpt><trkpt lat="41.0118933" lon="14.4823817"><ele>89.80000000000001</ele><time>2026-03-28T09:29:47.417Z</time></trkpt><trkpt lat="41.0119317" lon="14.4825117"><ele>90.19999999999999</ele><time>2026-03-28T09:29:49.414Z</time></trkpt><trkpt lat="41.0119733" lon="14.4826367"><ele>90.6</ele><time>2026-03-28T09:29:51.417Z</time></trkpt><trkpt lat="41.0120217" lon="14.4827417"><ele>91.0</ele><time>2026-03-28T09:29:53.415Z</time></trkpt><trkpt lat="41.01206" lon="14.4828467"><ele>91.4</ele><time>2026-03-28T09:29:55.416Z</time></trkpt><trkpt lat="41.0121033" lon="14.4829717"><ele>91.8</ele><time>2026-03-28T09:29:57.417Z</time></trkpt><trkpt lat="41.01214" lon="14.48311"><ele>92.2</ele><time>2026-03-28T09:29:59.418Z</time></trkpt><trkpt lat="41.0121783" lon="14.4832483"><ele>92.60000000000001</ele><time>2026-03-28T09:30:01.419Z</time></trkpt><trkpt lat="41.0122217" lon="14.483385"><ele>93.0</ele><time>2026-03-28T09:30:03.416Z</time></trkpt><trkpt lat="41.0122633" lon="14.4835083"><ele>93.0</ele><time>2026-03-28T09:30:05.415Z</time></trkpt><trkpt lat="41.01229" lon="14.48365"><ele>93.0</ele><time>2026-03-28T09:30:07.416Z</time></trkpt><trkpt lat="41.01233" lon="14.4837917"><ele>93.0</ele><time>2026-03-28T09:30:09.415Z</time></trkpt><trkpt lat="41.0123733" lon="14.4839217"><ele>93.0</ele><time>2026-03-28T09:30:11.417Z</time></trkpt><trkpt lat="41.0124167" lon="14.4840433"><ele>93.0</ele><time>2026-03-28T09:30:13.415Z</time></trkpt><trkpt lat="41.0124433" lon="14.484185"><ele>92.83333333333333</ele><time>2026-03-28T09:30:15.415Z</time></trkpt><trkpt lat="41.01246" lon="14.4843317"><ele>92.66666666666667</ele><time>2026-03-28T09:30:17.417Z</time></trkpt><trkpt lat="41.012485" lon="14.48444"><ele>92.5</ele><time>2026-03-28T09:30:19.417Z</time></trkpt><trkpt lat="41.01251" lon="14.4845333"><ele>92.33333333333334</ele><time>2026-03-28T09:30:21.418Z</time></trkpt><trkpt lat="41.0125383" lon="14.4846483"><ele>92.16666666666667</ele><time>2026-03-28T09:30:23.417Z</time></trkpt><trkpt lat="41.0125667" lon="14.4847517"><ele>92.0</ele><time>2026-03-28T09:30:25.418Z</time></trkpt><trkpt lat="41.0125967" lon="14.4848533"><ele>91.66666666666667</ele><time>2026-03-28T09:30:27.417Z</time></trkpt><trkpt lat="41.012645" lon="14.4849533"><ele>91.33333333333334</ele><time>2026-03-28T09:30:29.418Z</time></trkpt><trkpt lat="41.0126983" lon="14.4850383"><ele>91.0</ele><time>2026-03-28T09:30:31.417Z</time></trkpt><trkpt lat="41.0127583" lon="14.4851133"><ele>90.66666666666667</ele><time>2026-03-28T09:30:33.415Z</time></trkpt><trkpt lat="41.0128233" lon="14.4851867"><ele>90.33333333333333</ele><time>2026-03-28T09:30:35.416Z</time></trkpt><trkpt lat="41.0128983" lon="14.4852617"><ele>90.0</ele><time>2026-03-28T09:30:37.417Z</time></trkpt><trkpt lat="41.0129817" lon="14.4853317"><ele>90.0</ele><time>2026-03-28T09:30:39.415Z</time></trkpt><trkpt lat="41.01306" lon="14.4854"><ele>90.0</ele><time>2026-03-28T09:30:41.417Z</time></trkpt><trkpt lat="41.0131467" lon="14.4854683"><ele>90.0</ele><time>2026-03-28T09:30:43.417Z</time></trkpt><trkpt lat="41.0132433" lon="14.4855267"><ele>90.0</ele><time>2026-03-28T09:30:45.415Z</time></trkpt><trkpt lat="41.0133267" lon="14.4855967"><ele>90.0</ele><time>2026-03-28T09:30:47.417Z</time></trkpt><trkpt lat="41.0134133" lon="14.4856733"><ele>90.0</ele><time>2026-03-28T09:30:49.418Z</time></trkpt><trkpt lat="41.0135133" lon="14.4857583"><ele>90.0</ele><time>2026-03-28T09:30:51.418Z</time></trkpt><trkpt lat="41.0136183" lon="14.485835"><ele>90.0</ele><time>2026-03-28T09:30:53.419Z</time></trkpt><trkpt lat="41.0137117" lon="14.48594"><ele>90.0</ele><time>2026-03-28T09:30:55.418Z</time></trkpt><trkpt lat="41.013825" lon="14.486015"><ele>90.0</ele><time>2026-03-28T09:30:57.417Z</time></trkpt><trkpt lat="41.0138817" lon="14.486065"><ele>90.0</ele><time>2026-03-28T09:30:58.417Z</time></trkpt><trkpt lat="41.0139317" lon="14.4861217"><ele>90.0</ele><time>2026-03-28T09:30:59.419Z</time></trkpt><trkpt lat="41.0140333" lon="14.4862083"><ele>90.0</ele><time>2026-03-28T09:31:01.419Z</time></trkpt><trkpt lat="41.01414" lon="14.4862867"><ele>90.0</ele><time>2026-03-28T09:31:03.417Z</time></trkpt><trkpt lat="41.0141883" lon="14.4863417"><ele>90.0</ele><time>2026-03-28T09:31:04.419Z</time></trkpt><trkpt lat="41.0142483" lon="14.4863783"><ele>90.33333333333333</ele><time>2026-03-28T09:31:05.419Z</time></trkpt><trkpt lat="41.0143083" lon="14.4864183"><ele>90.66666666666667</ele><time>2026-03-28T09:31:06.419Z</time></trkpt><trkpt lat="41.0143717" lon="14.4864567"><ele>91.0</ele><time>2026-03-28T09:31:07.417Z</time></trkpt><trkpt lat="41.0144317" lon="14.4864933"><ele>91.33333333333334</ele><time>2026-03-28T09:31:08.418Z</time></trkpt><trkpt lat="41.0145383" lon="14.4865717"><ele>91.66666666666667</ele><time>2026-03-28T09:31:10.419Z</time></trkpt><trkpt lat="41.0146433" lon="14.4866283"><ele>92.0</ele><time>2026-03-28T09:31:12.417Z</time></trkpt><trkpt lat="41.0147367" lon="14.4866917"><ele>92.0</ele><time>2026-03-28T09:31:14.418Z</time></trkpt><trkpt lat="41.0148183" lon="14.4867633"><ele>92.0</ele><time>2026-03-28T09:31:16.417Z</time></trkpt><trkpt lat="41.0149083" lon="14.4868283"><ele>92.0</ele><time>2026-03-28T09:31:18.417Z</time></trkpt><trkpt lat="41.01506" lon="14.48691"><ele>92.0</ele><time>2026-03-28T09:31:21.415Z</time></trkpt><trkpt lat="41.015135" lon="14.4869567"><ele>92.0</ele><time>2026-03-28T09:31:23.418Z</time></trkpt><trkpt lat="41.0152183" lon="14.4870317"><ele>91.8</ele><time>2026-03-28T09:31:25.418Z</time></trkpt><trkpt lat="41.01531" lon="14.4871217"><ele>91.6</ele><time>2026-03-28T09:31:27.415Z</time></trkpt><trkpt lat="41.0154267" lon="14.487205"><ele>91.39999999999999</ele><time>2026-03-28T09:31:29.415Z</time></trkpt><trkpt lat="41.0154867" lon="14.4872483"><ele>91.19999999999999</ele><time>2026-03-28T09:31:30.414Z</time></trkpt><trkpt lat="41.0155417" lon="14.4873017"><ele>91.0</ele><time>2026-03-28T09:31:31.416Z</time></trkpt><trkpt lat="41.0156" lon="14.4873467"><ele>91.0</ele><time>2026-03-28T09:31:32.415Z</time></trkpt><trkpt lat="41.0156567" lon="14.4873933"><ele>91.0</ele><time>2026-03-28T09:31:33.418Z</time></trkpt><trkpt lat="41.0157133" lon="14.4874367"><ele>91.0</ele><time>2026-03-28T09:31:34.415Z</time></trkpt><trkpt lat="41.01577" lon="14.4874783"><ele>91.0</ele><time>2026-03-28T09:31:35.418Z</time></trkpt><trkpt lat="41.0158733" lon="14.4875467"><ele>91.0</ele><time>2026-03-28T09:31:37.416Z</time></trkpt><trkpt lat="41.0159417" lon="14.4876083"><ele>91.0</ele><time>2026-03-28T09:31:39.414Z</time></trkpt><trkpt lat="41.0160033" lon="14.4876617"><ele>91.0</ele><time>2026-03-28T09:31:41.419Z</time></trkpt><trkpt lat="41.0160683" lon="14.487705"><ele>91.0</ele><time>2026-03-28T09:31:43.415Z</time></trkpt><trkpt lat="41.0161383" lon="14.48773"><ele>91.0</ele><time>2026-03-28T09:31:45.418Z</time></trkpt><trkpt lat="41.0162183" lon="14.4877767"><ele>91.0</ele><time>2026-03-28T09:31:47.417Z</time></trkpt><trkpt lat="41.0163" lon="14.4878333"><ele>91.0</ele><time>2026-03-28T09:31:49.416Z</time></trkpt><trkpt lat="41.0163833" lon="14.4878967"><ele>91.0</ele><time>2026-03-28T09:31:51.415Z</time></trkpt><trkpt lat="41.0164783" lon="14.4879733"><ele>91.0</ele><time>2026-03-28T09:31:53.417Z</time></trkpt><trkpt lat="41.016575" lon="14.4880467"><ele>91.0</ele><time>2026-03-28T09:31:55.416Z</time></trkpt><trkpt lat="41.0166683" lon="14.4881233"><ele>91.0</ele><time>2026-03-28T09:31:57.417Z</time></trkpt><trkpt lat="41.016765" lon="14.4882"><ele>91.0</ele><time>2026-03-28T09:31:59.416Z</time></trkpt><trkpt lat="41.0168683" lon="14.4882717"><ele>91.0</ele><time>2026-03-28T09:32:01.417Z</time></trkpt><trkpt lat="41.0169683" lon="14.4883467"><ele>91.0</ele><time>2026-03-28T09:32:03.416Z</time></trkpt><trkpt lat="41.0170733" lon="14.488425"><ele>91.0</ele><time>2026-03-28T09:32:05.418Z</time></trkpt><trkpt lat="41.0171733" lon="14.488505"><ele>91.0</ele><time>2026-03-28T09:32:07.418Z</time></trkpt><trkpt lat="41.0172667" lon="14.4885833"><ele>91.0</ele><time>2026-03-28T09:32:09.416Z</time></trkpt><trkpt lat="41.017365" lon="14.4886633"><ele>91.0</ele><time>2026-03-28T09:32:11.417Z</time></trkpt><trkpt lat="41.0174583" lon="14.4887267"><ele>91.0</ele><time>2026-03-28T09:32:13.418Z</time></trkpt><trkpt lat="41.01754" lon="14.4887867"><ele>91.0</ele><time>2026-03-28T09:32:15.418Z</time></trkpt><trkpt lat="41.0176233" lon="14.4888517"><ele>91.0</ele><time>2026-03-28T09:32:17.418Z</time></trkpt><trkpt lat="41.0177183" lon="14.488925"><ele>91.6</ele><time>2026-03-28T09:32:19.417Z</time></trkpt><trkpt lat="41.01781" lon="14.4890017"><ele>92.19999999999999</ele><time>2026-03-28T09:32:21.417Z</time></trkpt><trkpt lat="41.0179017" lon="14.48908"><ele>92.80000000000001</ele><time>2026-03-28T09:32:23.418Z</time></trkpt><trkpt lat="41.018005" lon="14.489155"><ele>93.4</ele><time>2026-03-28T09:32:25.418Z</time></trkpt><trkpt lat="41.0181083" lon="14.4892183"><ele>94.0</ele><time>2026-03-28T09:32:27.416Z</time></trkpt><trkpt lat="41.0182133" lon="14.489285"><ele>94.0</ele><time>2026-03-28T09:32:29.419Z</time></trkpt><trkpt lat="41.01827" lon="14.4893233"><ele>94.0</ele><time>2026-03-28T09:32:30.417Z</time></trkpt><trkpt lat="41.0183283" lon="14.4893617"><ele>94.0</ele><time>2026-03-28T09:32:31.415Z</time></trkpt><trkpt lat="41.0183867" lon="14.4893983"><ele>94.0</ele><time>2026-03-28T09:32:32.419Z</time></trkpt><trkpt lat="41.0184433" lon="14.4894367"><ele>94.0</ele><time>2026-03-28T09:32:33.415Z</time></trkpt><trkpt lat="41.0185" lon="14.4894733"><ele>94.0</ele><time>2026-03-28T09:32:34.416Z</time></trkpt><trkpt lat="41.0186083" lon="14.4895433"><ele>94.0</ele><time>2026-03-28T09:32:36.419Z</time></trkpt><trkpt lat="41.018725" lon="14.489615"><ele>94.5</ele><time>2026-03-28T09:32:38.417Z</time></trkpt><trkpt lat="41.018785" lon="14.4896467"><ele>95.0</ele><time>2026-03-28T09:32:39.414Z</time></trkpt><trkpt lat="41.018845" lon="14.4896783"><ele>95.5</ele><time>2026-03-28T09:32:40.417Z</time></trkpt><trkpt lat="41.0189017" lon="14.489715"><ele>96.0</ele><time>2026-03-28T09:32:41.417Z</time></trkpt><trkpt lat="41.0190117" lon="14.4897783"><ele>96.50000000000001</ele><time>2026-03-28T09:32:43.417Z</time></trkpt><trkpt lat="41.019115" lon="14.48984"><ele>97.0</ele><time>2026-03-28T09:32:45.415Z</time></trkpt><trkpt lat="41.019235" lon="14.4899117"><ele>97.16666666666667</ele><time>2026-03-28T09:32:47.417Z</time></trkpt><trkpt lat="41.0192967" lon="14.4899583"><ele>97.33333333333334</ele><time>2026-03-28T09:32:48.417Z</time></trkpt><trkpt lat="41.0193583" lon="14.489995"><ele>97.5</ele><time>2026-03-28T09:32:49.416Z</time></trkpt><trkpt lat="41.0194183" lon="14.49003"><ele>97.66666666666666</ele><time>2026-03-28T09:32:50.415Z</time></trkpt><trkpt lat="41.0195233" lon="14.49011"><ele>97.83333333333333</ele><time>2026-03-28T09:32:52.417Z</time></trkpt><trkpt lat="41.0196217" lon="14.490195"><ele>98.0</ele><time>2026-03-28T09:32:54.415Z</time></trkpt><trkpt lat="41.0197217" lon="14.4902933"><ele>98.0</ele><time>2026-03-28T09:32:56.415Z</time></trkpt><trkpt lat="41.01977" lon="14.4903483"><ele>98.0</ele><time>2026-03-28T09:32:57.415Z</time></trkpt><trkpt lat="41.0198517" lon="14.4904683"><ele>98.0</ele><time>2026-03-28T09:32:59.417Z</time></trkpt><trkpt lat="41.0198883" lon="14.4905367"><ele>98.0</ele><time>2026-03-28T09:33:00.417Z</time></trkpt><trkpt lat="41.0199283" lon="14.4906067"><ele>98.0</ele><time>2026-03-28T09:33:01.417Z</time></trkpt><trkpt lat="41.01997" lon="14.49067"><ele>98.0</ele><time>2026-03-28T09:33:02.417Z</time></trkpt><trkpt lat="41.0200133" lon="14.4907333"><ele>98.0</ele><time>2026-03-28T09:33:03.415Z</time></trkpt><trkpt lat="41.0200517" lon="14.4908"><ele>98.4</ele><time>2026-03-28T09:33:04.417Z</time></trkpt><trkpt lat="41.0200933" lon="14.4908683"><ele>98.80000000000001</ele><time>2026-03-28T09:33:05.417Z</time></trkpt><trkpt lat="41.02017" lon="14.4909917"><ele>99.2</ele><time>2026-03-28T09:33:07.417Z</time></trkpt><trkpt lat="41.02025" lon="14.491105"><ele>99.6</ele><time>2026-03-28T09:33:09.418Z</time></trkpt><trkpt lat="41.020325" lon="14.4912117"><ele>100.0</ele><time>2026-03-28T09:33:11.418Z</time></trkpt><trkpt lat="41.020385" lon="14.4913383"><ele>102.00000000000001</ele><time>2026-03-28T09:33:13.416Z</time></trkpt><trkpt lat="41.0204517" lon="14.491475"><ele>104.0</ele><time>2026-03-28T09:33:15.418Z</time></trkpt><trkpt lat="41.0204817" lon="14.4915533"><ele>106.0</ele><time>2026-03-28T09:33:16.418Z</time></trkpt><trkpt lat="41.0205183" lon="14.4916267"><ele>108.0</ele><time>2026-03-28T09:33:17.416Z</time></trkpt><trkpt lat="41.0205583" lon="14.491695"><ele>110.00000000000001</ele><time>2026-03-28T09:33:18.417Z</time></trkpt><trkpt lat="41.0205933" lon="14.4917683"><ele>112.0</ele><time>2026-03-28T09:33:19.416Z</time></trkpt><trkpt lat="41.0206617" lon="14.4919033"><ele>112.0</ele><time>2026-03-28T09:33:21.417Z</time></trkpt><trkpt lat="41.0207333" lon="14.4920283"><ele>112.0</ele><time>2026-03-28T09:33:23.417Z</time></trkpt><trkpt lat="41.0208033" lon="14.4921467"><ele>112.0</ele><time>2026-03-28T09:33:25.417Z</time></trkpt><trkpt lat="41.02088" lon="14.4922667"><ele>112.0</ele><time>2026-03-28T09:33:27.417Z</time></trkpt><trkpt lat="41.0209617" lon="14.492385"><ele>110.0</ele><time>2026-03-28T09:33:29.419Z</time></trkpt><trkpt lat="41.021035" lon="14.4925017"><ele>107.99999999999999</ele><time>2026-03-28T09:33:31.419Z</time></trkpt><trkpt lat="41.0211" lon="14.49261"><ele>106.0</ele><time>2026-03-28T09:33:33.419Z</time></trkpt><trkpt lat="41.021165" lon="14.492715"><ele>104.0</ele><time>2026-03-28T09:33:35.417Z</time></trkpt><trkpt lat="41.021225" lon="14.4928117"><ele>102.0</ele><time>2026-03-28T09:33:37.417Z</time></trkpt><trkpt lat="41.0212817" lon="14.492905"><ele>103.0</ele><time>2026-03-28T09:33:39.417Z</time></trkpt><trkpt lat="41.0213367" lon="14.4929783"><ele>104.0</ele><time>2026-03-28T09:33:41.415Z</time></trkpt><trkpt lat="41.02138" lon="14.4930517"><ele>105.0</ele><time>2026-03-28T09:33:43.417Z</time></trkpt><trkpt lat="41.0214267" lon="14.4931267"><ele>106.0</ele><time>2026-03-28T09:33:45.415Z</time></trkpt><trkpt lat="41.0214667" lon="14.493225"><ele>107.0</ele><time>2026-03-28T09:33:47.416Z</time></trkpt><trkpt lat="41.0214983" lon="14.4933183"><ele>108.0</ele><time>2026-03-28T09:33:49.42Z</time></trkpt><trkpt lat="41.0215233" lon="14.493425"><ele>108.0</ele><time>2026-03-28T09:33:52.419Z</time></trkpt><trkpt lat="41.0215233" lon="14.4935167"><ele>108.0</ele><time>2026-03-28T09:33:56.415Z</time></trkpt><trkpt lat="41.021365" lon="14.49304"><ele>108.0</ele><time>2026-03-28T09:34:46.417Z</time></trkpt><trkpt lat="41.0213817" lon="14.4929317"><ele>108.0</ele><time>2026-03-28T09:35:05.417Z</time></trkpt><trkpt lat="41.0215187" lon="14.4935762"><ele>108.0</ele><time>2026-03-28T09:35:22.643Z</time></trkpt><trkpt lat="41.0214817" lon="14.4934533"><ele>108.00000000000001</ele><time>2026-03-28T09:35:55.417Z</time></trkpt><trkpt lat="41.0215423" lon="14.4934773"><ele>108.00000000000001</ele><time>2026-03-28T09:36:11.512Z</time></trkpt><trkpt lat="41.0215868" lon="14.4935855"><ele>108.0</ele><time>2026-03-28T09:36:13.529Z</time></trkpt><trkpt lat="41.0216057" lon="14.4936738"><ele>108.0</ele><time>2026-03-28T09:36:16.454Z</time></trkpt><trkpt lat="41.0216837" lon="14.4940213"><ele>108.0</ele><time>2026-03-28T09:36:25.431Z</time></trkpt><trkpt lat="41.0217208" lon="14.4941615"><ele>108.0</ele><time>2026-03-28T09:36:27.447Z</time></trkpt><trkpt lat="41.021745" lon="14.4942451"><ele>108.0</ele><time>2026-03-28T09:36:29.465Z</time></trkpt><trkpt lat="41.0217669" lon="14.494326"><ele>108.0</ele><time>2026-03-28T09:36:31.483Z</time></trkpt><trkpt lat="41.0217773" lon="14.494418"><ele>108.0</ele><time>2026-03-28T09:36:33.5Z</time></trkpt><trkpt lat="41.0218062" lon="14.494517"><ele>108.0</ele><time>2026-03-28T09:36:35.516Z</time></trkpt><trkpt lat="41.0218181" lon="14.4946135"><ele>108.4</ele><time>2026-03-28T09:36:37.534Z</time></trkpt><trkpt lat="41.0218069" lon="14.4947115"><ele>108.80000000000001</ele><time>2026-03-28T09:36:39.45Z</time></trkpt><trkpt lat="41.021831" lon="14.4948274"><ele>109.2</ele><time>2026-03-28T09:36:41.531Z</time></trkpt><trkpt lat="41.0218506" lon="14.4949408"><ele>109.6</ele><time>2026-03-28T09:36:43.418Z</time></trkpt><trkpt lat="41.0218711" lon="14.4950951"><ele>110.0</ele><time>2026-03-28T09:36:45.417Z</time></trkpt><trkpt lat="41.0218865" lon="14.4952565"><ele>110.0</ele><time>2026-03-28T09:36:47.418Z</time></trkpt><trkpt lat="41.0219083" lon="14.4954145"><ele>110.0</ele><time>2026-03-28T09:36:49.416Z</time></trkpt><trkpt lat="41.0219276" lon="14.495566"><ele>110.0</ele><time>2026-03-28T09:36:51.417Z</time></trkpt><trkpt lat="41.0219477" lon="14.49572"><ele>110.0</ele><time>2026-03-28T09:36:53.417Z</time></trkpt><trkpt lat="41.0219559" lon="14.4958482"><ele>110.49999999999999</ele><time>2026-03-28T09:36:55.418Z</time></trkpt><trkpt lat="41.02195" lon="14.4959567"><ele>111.0</ele><time>2026-03-28T09:36:57.417Z</time></trkpt><trkpt lat="41.0219483" lon="14.49605"><ele>111.5</ele><time>2026-03-28T09:36:59.417Z</time></trkpt><trkpt lat="41.0219483" lon="14.4961533"><ele>112.0</ele><time>2026-03-28T09:37:01.417Z</time></trkpt><trkpt lat="41.0219433" lon="14.4962533"><ele>112.49999999999999</ele><time>2026-03-28T09:37:03.418Z</time></trkpt><trkpt lat="41.0219317" lon="14.4963517"><ele>113.0</ele><time>2026-03-28T09:37:05.417Z</time></trkpt><trkpt lat="41.0219167" lon="14.4964517"><ele>113.66666666666666</ele><time>2026-03-28T09:37:07.417Z</time></trkpt><trkpt lat="41.0218983" lon="14.4965483"><ele>114.33333333333333</ele><time>2026-03-28T09:37:09.416Z</time></trkpt><trkpt lat="41.0218883" lon="14.496645"><ele>115.0</ele><time>2026-03-28T09:37:11.415Z</time></trkpt><trkpt lat="41.0218867" lon="14.496745"><ele>115.66666666666666</ele><time>2026-03-28T09:37:13.416Z</time></trkpt><trkpt lat="41.0218817" lon="14.4968383"><ele>116.33333333333333</ele><time>2026-03-28T09:37:15.416Z</time></trkpt><trkpt lat="41.0218633" lon="14.4969383"><ele>117.0</ele><time>2026-03-28T09:37:17.417Z</time></trkpt><trkpt lat="41.0218383" lon="14.4970533"><ele>117.5</ele><time>2026-03-28T09:37:19.416Z</time></trkpt><trkpt lat="41.0218217" lon="14.4971617"><ele>118.0</ele><time>2026-03-28T09:37:21.417Z</time></trkpt><trkpt lat="41.0217983" lon="14.4972683"><ele>118.5</ele><time>2026-03-28T09:37:23.417Z</time></trkpt><trkpt lat="41.0217667" lon="14.49736"><ele>119.0</ele><time>2026-03-28T09:37:25.418Z</time></trkpt><trkpt lat="41.0217517" lon="14.4974433"><ele>119.5</ele><time>2026-03-28T09:37:27.416Z</time></trkpt><trkpt lat="41.0217333" lon="14.4975433"><ele>120.0</ele><time>2026-03-28T09:37:29.418Z</time></trkpt><trkpt lat="41.0217133" lon="14.497635"><ele>120.0</ele><time>2026-03-28T09:37:31.418Z</time></trkpt><trkpt lat="41.0216917" lon="14.4977267"><ele>120.0</ele><time>2026-03-28T09:37:33.415Z</time></trkpt><trkpt lat="41.0216783" lon="14.49783"><ele>120.0</ele><time>2026-03-28T09:37:35.418Z</time></trkpt><trkpt lat="41.021655" lon="14.4979317"><ele>120.0</ele><time>2026-03-28T09:37:37.418Z</time></trkpt><trkpt lat="41.0216317" lon="14.4980383"><ele>120.0</ele><time>2026-03-28T09:37:39.414Z</time></trkpt><trkpt lat="41.0216133" lon="14.49815"><ele>120.0</ele><time>2026-03-28T09:37:41.415Z</time></trkpt><trkpt lat="41.0215917" lon="14.49826"><ele>123.6</ele><time>2026-03-28T09:37:43.416Z</time></trkpt><trkpt lat="41.021575" lon="14.4983783"><ele>127.2</ele><time>2026-03-28T09:37:45.415Z</time></trkpt><trkpt lat="41.0215517" lon="14.4984917"><ele>130.8</ele><time>2026-03-28T09:37:47.419Z</time></trkpt><trkpt lat="41.0215317" lon="14.4986067"><ele>134.4</ele><time>2026-03-28T09:37:49.415Z</time></trkpt><trkpt lat="41.0215183" lon="14.4987233"><ele>138.0</ele><time>2026-03-28T09:37:51.414Z</time></trkpt><trkpt lat="41.02152" lon="14.4988517"><ele>138.0</ele><time>2026-03-28T09:37:53.416Z</time></trkpt><trkpt lat="41.02153" lon="14.49897"><ele>138.0</ele><time>2026-03-28T09:37:55.416Z</time></trkpt><trkpt lat="41.0215383" lon="14.499085"><ele>138.0</ele><time>2026-03-28T09:37:57.415Z</time></trkpt><trkpt lat="41.0215517" lon="14.4992"><ele>138.0</ele><time>2026-03-28T09:37:59.416Z</time></trkpt><trkpt lat="41.0215733" lon="14.499325"><ele>138.0</ele><time>2026-03-28T09:38:01.415Z</time></trkpt><trkpt lat="41.02159" lon="14.4994417"><ele>138.0</ele><time>2026-03-28T09:38:03.417Z</time></trkpt><trkpt lat="41.021605" lon="14.499555"><ele>138.0</ele><time>2026-03-28T09:38:05.414Z</time></trkpt><trkpt lat="41.02162" lon="14.4996617"><ele>138.0</ele><time>2026-03-28T09:38:07.415Z</time></trkpt><trkpt lat="41.0216317" lon="14.4997583"><ele>138.0</ele><time>2026-03-28T09:38:09.417Z</time></trkpt><trkpt lat="41.0216383" lon="14.499845"><ele>138.0</ele><time>2026-03-28T09:38:11.416Z</time></trkpt><trkpt lat="41.0216333" lon="14.4999317"><ele>138.0</ele><time>2026-03-28T09:38:13.419Z</time></trkpt><trkpt lat="41.0216433" lon="14.5000183"><ele>138.0</ele><time>2026-03-28T09:38:15.417Z</time></trkpt><trkpt lat="41.0216683" lon="14.5000983"><ele>137.5</ele><time>2026-03-28T09:38:18.417Z</time></trkpt><trkpt lat="41.0217217" lon="14.5001567"><ele>137.0</ele><time>2026-03-28T09:38:22.418Z</time></trkpt><trkpt lat="41.0217517" lon="14.5002467"><ele>136.5</ele><time>2026-03-28T09:38:25.419Z</time></trkpt><trkpt lat="41.0217817" lon="14.5003367"><ele>136.0</ele><time>2026-03-28T09:38:27.416Z</time></trkpt><trkpt lat="41.0218117" lon="14.5004433"><ele>135.5</ele><time>2026-03-28T09:38:29.418Z</time></trkpt><trkpt lat="41.02185" lon="14.5005617"><ele>135.0</ele><time>2026-03-28T09:38:31.418Z</time></trkpt><trkpt lat="41.0218783" lon="14.5006817"><ele>135.0</ele><time>2026-03-28T09:38:33.419Z</time></trkpt><trkpt lat="41.02192" lon="14.5008033"><ele>135.0</ele><time>2026-03-28T09:38:35.418Z</time></trkpt><trkpt lat="41.0219617" lon="14.5009283"><ele>135.0</ele><time>2026-03-28T09:38:37.418Z</time></trkpt><trkpt lat="41.022" lon="14.50105"><ele>135.0</ele><time>2026-03-28T09:38:39.418Z</time></trkpt><trkpt lat="41.0220333" lon="14.5011533"><ele>135.0</ele><time>2026-03-28T09:38:41.417Z</time></trkpt><trkpt lat="41.0220583" lon="14.50125"><ele>135.5</ele><time>2026-03-28T09:38:43.419Z</time></trkpt><trkpt lat="41.0220883" lon="14.50134"><ele>136.0</ele><time>2026-03-28T09:38:45.418Z</time></trkpt><trkpt lat="41.02211" lon="14.5014533"><ele>136.5</ele><time>2026-03-28T09:38:47.418Z</time></trkpt><trkpt lat="41.0221333" lon="14.5015633"><ele>137.0</ele><time>2026-03-28T09:38:49.419Z</time></trkpt><trkpt lat="41.0221633" lon="14.50167"><ele>137.5</ele><time>2026-03-28T09:38:51.417Z</time></trkpt><trkpt lat="41.0221817" lon="14.5017733"><ele>138.0</ele><time>2026-03-28T09:38:53.416Z</time></trkpt><trkpt lat="41.0221883" lon="14.5018783"><ele>138.0</ele><time>2026-03-28T09:38:55.417Z</time></trkpt><trkpt lat="41.0222" lon="14.5019983"><ele>138.0</ele><time>2026-03-28T09:38:57.418Z</time></trkpt><trkpt lat="41.0222267" lon="14.5021267"><ele>138.0</ele><time>2026-03-28T09:38:59.418Z</time></trkpt><trkpt lat="41.022265" lon="14.5022633"><ele>138.0</ele><time>2026-03-28T09:39:01.419Z</time></trkpt><trkpt lat="41.0223033" lon="14.502395"><ele>138.0</ele><time>2026-03-28T09:39:03.418Z</time></trkpt><trkpt lat="41.0223433" lon="14.5025117"><ele>138.4</ele><time>2026-03-28T09:39:05.418Z</time></trkpt><trkpt lat="41.0223833" lon="14.5026367"><ele>138.8</ele><time>2026-03-28T09:39:07.419Z</time></trkpt><trkpt lat="41.0224267" lon="14.50276"><ele>139.2</ele><time>2026-03-28T09:39:09.418Z</time></trkpt><trkpt lat="41.022485" lon="14.502875"><ele>139.6</ele><time>2026-03-28T09:39:11.419Z</time></trkpt><trkpt lat="41.022555" lon="14.5029717"><ele>140.0</ele><time>2026-03-28T09:39:13.418Z</time></trkpt><trkpt lat="41.02262" lon="14.50308"><ele>139.2</ele><time>2026-03-28T09:39:15.418Z</time></trkpt><trkpt lat="41.0226783" lon="14.5031967"><ele>138.4</ele><time>2026-03-28T09:39:17.419Z</time></trkpt><trkpt lat="41.0227483" lon="14.50331"><ele>137.6</ele><time>2026-03-28T09:39:19.419Z</time></trkpt><trkpt lat="41.0228067" lon="14.503435"><ele>136.8</ele><time>2026-03-28T09:39:21.417Z</time></trkpt><trkpt lat="41.0228683" lon="14.5035383"><ele>136.0</ele><time>2026-03-28T09:39:23.419Z</time></trkpt><trkpt lat="41.0229417" lon="14.503655"><ele>137.5</ele><time>2026-03-28T09:39:25.417Z</time></trkpt><trkpt lat="41.0230117" lon="14.5037767"><ele>139.0</ele><time>2026-03-28T09:39:27.416Z</time></trkpt><trkpt lat="41.0230867" lon="14.503885"><ele>140.5</ele><time>2026-03-28T09:39:29.416Z</time></trkpt><trkpt lat="41.02316" lon="14.5040033"><ele>142.0</ele><time>2026-03-28T09:39:31.415Z</time></trkpt><trkpt lat="41.0232367" lon="14.5041283"><ele>142.0</ele><time>2026-03-28T09:39:33.414Z</time></trkpt><trkpt lat="41.0232767" lon="14.5041933"><ele>142.0</ele><time>2026-03-28T09:39:34.415Z</time></trkpt><trkpt lat="41.0233283" lon="14.5042433"><ele>142.0</ele><time>2026-03-28T09:39:35.415Z</time></trkpt><trkpt lat="41.02338" lon="14.5042917"><ele>142.0</ele><time>2026-03-28T09:39:36.414Z</time></trkpt><trkpt lat="41.0234283" lon="14.5043467"><ele>142.0</ele><time>2026-03-28T09:39:37.414Z</time></trkpt><trkpt lat="41.0235117" lon="14.5044633"><ele>142.0</ele><time>2026-03-28T09:39:39.415Z</time></trkpt><trkpt lat="41.0235533" lon="14.5045267"><ele>142.0</ele><time>2026-03-28T09:39:40.413Z</time></trkpt><trkpt lat="41.0236067" lon="14.5045883"><ele>141.57142857142856</ele><time>2026-03-28T09:39:41.417Z</time></trkpt><trkpt lat="41.0236567" lon="14.5046517"><ele>141.14285714285714</ele><time>2026-03-28T09:39:42.415Z</time></trkpt><trkpt lat="41.0237083" lon="14.504715"><ele>140.71428571428572</ele><time>2026-03-28T09:39:43.414Z</time></trkpt><trkpt lat="41.02376" lon="14.5047767"><ele>140.28571428571428</ele><time>2026-03-28T09:39:44.415Z</time></trkpt><trkpt lat="41.0238133" lon="14.5048433"><ele>139.85714285714286</ele><time>2026-03-28T09:39:45.414Z</time></trkpt><trkpt lat="41.0238717" lon="14.5049"><ele>139.42857142857142</ele><time>2026-03-28T09:39:46.414Z</time></trkpt><trkpt lat="41.02393" lon="14.5049533"><ele>139.0</ele><time>2026-03-28T09:39:47.415Z</time></trkpt><trkpt lat="41.023985" lon="14.5050167"><ele>139.0</ele><time>2026-03-28T09:39:48.415Z</time></trkpt><trkpt lat="41.02404" lon="14.5050817"><ele>139.0</ele><time>2026-03-28T09:39:49.417Z</time></trkpt><trkpt lat="41.0241" lon="14.5051467"><ele>139.0</ele><time>2026-03-28T09:39:50.414Z</time></trkpt><trkpt lat="41.0241567" lon="14.5052117"><ele>139.0</ele><time>2026-03-28T09:39:51.415Z</time></trkpt><trkpt lat="41.024205" lon="14.5052817"><ele>139.0</ele><time>2026-03-28T09:39:52.414Z</time></trkpt><trkpt lat="41.024255" lon="14.5053483"><ele>139.0</ele><time>2026-03-28T09:39:53.414Z</time></trkpt><trkpt lat="41.0243033" lon="14.5054083"><ele>139.0</ele><time>2026-03-28T09:39:54.415Z</time></trkpt><trkpt lat="41.0243467" lon="14.50547"><ele>138.66666666666669</ele><time>2026-03-28T09:39:55.416Z</time></trkpt><trkpt lat="41.0244267" lon="14.50559"><ele>138.33333333333334</ele><time>2026-03-28T09:39:57.415Z</time></trkpt><trkpt lat="41.0245133" lon="14.5057167"><ele>138.0</ele><time>2026-03-28T09:39:59.414Z</time></trkpt><trkpt lat="41.0245533" lon="14.505785"><ele>137.66666666666666</ele><time>2026-03-28T09:40:00.414Z</time></trkpt><trkpt lat="41.0245933" lon="14.505855"><ele>137.33333333333331</ele><time>2026-03-28T09:40:01.416Z</time></trkpt><trkpt lat="41.0246333" lon="14.505925"><ele>137.0</ele><time>2026-03-28T09:40:02.414Z</time></trkpt><trkpt lat="41.0247133" lon="14.506045"><ele>137.0</ele><time>2026-03-28T09:40:04.416Z</time></trkpt><trkpt lat="41.024805" lon="14.5061633"><ele>137.0</ele><time>2026-03-28T09:40:06.416Z</time></trkpt><trkpt lat="41.0249017" lon="14.50627"><ele>137.0</ele><time>2026-03-28T09:40:08.415Z</time></trkpt><trkpt lat="41.0249967" lon="14.506365"><ele>137.0</ele><time>2026-03-28T09:40:10.414Z</time></trkpt><trkpt lat="41.0251" lon="14.5064533"><ele>137.6</ele><time>2026-03-28T09:40:12.417Z</time></trkpt><trkpt lat="41.0252" lon="14.5065333"><ele>138.2</ele><time>2026-03-28T09:40:14.414Z</time></trkpt><trkpt lat="41.0252967" lon="14.5066133"><ele>138.8</ele><time>2026-03-28T09:40:16.415Z</time></trkpt><trkpt lat="41.0254017" lon="14.5067017"><ele>139.4</ele><time>2026-03-28T09:40:18.415Z</time></trkpt><trkpt lat="41.025455" lon="14.50675"><ele>140.0</ele><time>2026-03-28T09:40:19.415Z</time></trkpt><trkpt lat="41.0255083" lon="14.5067983"><ele>140.0</ele><time>2026-03-28T09:40:20.416Z</time></trkpt><trkpt lat="41.0255583" lon="14.506855"><ele>140.0</ele><time>2026-03-28T09:40:21.415Z</time></trkpt><trkpt lat="41.025605" lon="14.506915"><ele>140.0</ele><time>2026-03-28T09:40:22.414Z</time></trkpt><trkpt lat="41.0257" lon="14.507015"><ele>140.0</ele><time>2026-03-28T09:40:24.415Z</time></trkpt><trkpt lat="41.0257933" lon="14.50712"><ele>140.0</ele><time>2026-03-28T09:40:26.415Z</time></trkpt><trkpt lat="41.025875" lon="14.5072317"><ele>141.0</ele><time>2026-03-28T09:40:28.415Z</time></trkpt><trkpt lat="41.0259617" lon="14.507345"><ele>142.0</ele><time>2026-03-28T09:40:30.415Z</time></trkpt><trkpt lat="41.0260167" lon="14.5073917"><ele>143.0</ele><time>2026-03-28T09:40:31.414Z</time></trkpt><trkpt lat="41.0261167" lon="14.5074917"><ele>144.0</ele><time>2026-03-28T09:40:33.415Z</time></trkpt><trkpt lat="41.0261667" lon="14.5075433"><ele>145.0</ele><time>2026-03-28T09:40:34.415Z</time></trkpt><trkpt lat="41.02626" lon="14.5076483"><ele>145.0</ele><time>2026-03-28T09:40:36.418Z</time></trkpt><trkpt lat="41.026355" lon="14.5077433"><ele>145.0</ele><time>2026-03-28T09:40:38.416Z</time></trkpt><trkpt lat="41.02643" lon="14.5078383"><ele>145.0</ele><time>2026-03-28T09:40:40.415Z</time></trkpt><trkpt lat="41.0265067" lon="14.5079083"><ele>145.0</ele><time>2026-03-28T09:40:42.417Z</time></trkpt><trkpt lat="41.0265767" lon="14.50797"><ele>145.0</ele><time>2026-03-28T09:40:44.418Z</time></trkpt><trkpt lat="41.0266517" lon="14.508045"><ele>145.2</ele><time>2026-03-28T09:40:46.415Z</time></trkpt><trkpt lat="41.0267383" lon="14.5081133"><ele>145.4</ele><time>2026-03-28T09:40:48.415Z</time></trkpt><trkpt lat="41.0268167" lon="14.5081967"><ele>145.6</ele><time>2026-03-28T09:40:50.415Z</time></trkpt><trkpt lat="41.0268933" lon="14.5082833"><ele>145.8</ele><time>2026-03-28T09:40:52.417Z</time></trkpt><trkpt lat="41.0269583" lon="14.5083867"><ele>146.0</ele><time>2026-03-28T09:40:54.417Z</time></trkpt><trkpt lat="41.02701" lon="14.5084883"><ele>146.0</ele><time>2026-03-28T09:40:56.416Z</time></trkpt><trkpt lat="41.0270717" lon="14.50858"><ele>146.0</ele><time>2026-03-28T09:40:58.415Z</time></trkpt><trkpt lat="41.0271267" lon="14.5086783"><ele>146.0</ele><time>2026-03-28T09:41:00.418Z</time></trkpt><trkpt lat="41.0271833" lon="14.5087817"><ele>146.0</ele><time>2026-03-28T09:41:02.415Z</time></trkpt><trkpt lat="41.0272383" lon="14.5088917"><ele>146.0</ele><time>2026-03-28T09:41:04.417Z</time></trkpt><trkpt lat="41.027295" lon="14.50899"><ele>147.0</ele><time>2026-03-28T09:41:06.418Z</time></trkpt><trkpt lat="41.0273617" lon="14.509085"><ele>148.0</ele><time>2026-03-28T09:41:08.417Z</time></trkpt><trkpt lat="41.0274383" lon="14.509185"><ele>149.0</ele><time>2026-03-28T09:41:10.417Z</time></trkpt><trkpt lat="41.0275083" lon="14.509275"><ele>150.0</ele><time>2026-03-28T09:41:12.418Z</time></trkpt><trkpt lat="41.0275867" lon="14.509365"><ele>151.0</ele><time>2026-03-28T09:41:14.416Z</time></trkpt><trkpt lat="41.027675" lon="14.5094483"><ele>151.0</ele><time>2026-03-28T09:41:16.415Z</time></trkpt><trkpt lat="41.0277533" lon="14.509535"><ele>151.0</ele><time>2026-03-28T09:41:18.414Z</time></trkpt><trkpt lat="41.0278317" lon="14.5096333"><ele>151.0</ele><time>2026-03-28T09:41:20.416Z</time></trkpt><trkpt lat="41.0279117" lon="14.5097283"><ele>151.0</ele><time>2026-03-28T09:41:22.417Z</time></trkpt><trkpt lat="41.028005" lon="14.5098083"><ele>151.0</ele><time>2026-03-28T09:41:24.417Z</time></trkpt><trkpt lat="41.02811" lon="14.5098767"><ele>152.4</ele><time>2026-03-28T09:41:26.418Z</time></trkpt><trkpt lat="41.02817" lon="14.5099033"><ele>153.8</ele><time>2026-03-28T09:41:27.415Z</time></trkpt><trkpt lat="41.0282833" lon="14.5099417"><ele>155.20000000000002</ele><time>2026-03-28T09:41:29.414Z</time></trkpt><trkpt lat="41.02839" lon="14.5099717"><ele>156.6</ele><time>2026-03-28T09:41:31.417Z</time></trkpt><trkpt lat="41.02849" lon="14.5099983"><ele>158.0</ele><time>2026-03-28T09:41:33.417Z</time></trkpt><trkpt lat="41.02857" lon="14.5100233"><ele>158.0</ele><time>2026-03-28T09:41:35.417Z</time></trkpt><trkpt lat="41.0286517" lon="14.5100433"><ele>158.0</ele><time>2026-03-28T09:41:37.417Z</time></trkpt><trkpt lat="41.0287267" lon="14.5100633"><ele>158.0</ele><time>2026-03-28T09:41:39.415Z</time></trkpt><trkpt lat="41.0288067" lon="14.5100883"><ele>158.0</ele><time>2026-03-28T09:41:41.416Z</time></trkpt><trkpt lat="41.0288883" lon="14.5101233"><ele>158.0</ele><time>2026-03-28T09:41:43.415Z</time></trkpt><trkpt lat="41.028985" lon="14.5101433"><ele>158.0</ele><time>2026-03-28T09:41:45.415Z</time></trkpt><trkpt lat="41.02908" lon="14.5101667"><ele>157.20000000000002</ele><time>2026-03-28T09:41:47.415Z</time></trkpt><trkpt lat="41.029175" lon="14.5101917"><ele>156.4</ele><time>2026-03-28T09:41:49.415Z</time></trkpt><trkpt lat="41.0292767" lon="14.5102383"><ele>155.60000000000002</ele><time>2026-03-28T09:41:51.414Z</time></trkpt><trkpt lat="41.0293733" lon="14.5103033"><ele>154.8</ele><time>2026-03-28T09:41:53.416Z</time></trkpt><trkpt lat="41.0294633" lon="14.5103817"><ele>154.0</ele><time>2026-03-28T09:41:55.416Z</time></trkpt><trkpt lat="41.029525" lon="14.5105083"><ele>156.6</ele><time>2026-03-28T09:41:57.416Z</time></trkpt><trkpt lat="41.0295833" lon="14.51064"><ele>159.2</ele><time>2026-03-28T09:41:59.412Z</time></trkpt><trkpt lat="41.0295933" lon="14.5107833"><ele>161.79999999999998</ele><time>2026-03-28T09:42:01.414Z</time></trkpt><trkpt lat="41.0296333" lon="14.51093"><ele>164.4</ele><time>2026-03-28T09:42:03.413Z</time></trkpt><trkpt lat="41.0296667" lon="14.51101"><ele>167.0</ele><time>2026-03-28T09:42:04.414Z</time></trkpt><trkpt lat="41.0297183" lon="14.5111533"><ele>168.14285714285714</ele><time>2026-03-28T09:42:06.414Z</time></trkpt><trkpt lat="41.0297433" lon="14.511245"><ele>169.28571428571428</ele><time>2026-03-28T09:42:07.413Z</time></trkpt><trkpt lat="41.0297733" lon="14.511335"><ele>170.42857142857144</ele><time>2026-03-28T09:42:08.413Z</time></trkpt><trkpt lat="41.029805" lon="14.5114417"><ele>171.57142857142856</ele><time>2026-03-28T09:42:09.414Z</time></trkpt><trkpt lat="41.0298367" lon="14.51153"><ele>172.71428571428572</ele><time>2026-03-28T09:42:10.414Z</time></trkpt><trkpt lat="41.02986" lon="14.5116083"><ele>173.85714285714286</ele><time>2026-03-28T09:42:11.414Z</time></trkpt><trkpt lat="41.0298867" lon="14.5116883"><ele>175.0</ele><time>2026-03-28T09:42:12.414Z</time></trkpt><trkpt lat="41.0299133" lon="14.51177"><ele>175.0</ele><time>2026-03-28T09:42:13.413Z</time></trkpt><trkpt lat="41.02994" lon="14.511855"><ele>175.0</ele><time>2026-03-28T09:42:14.414Z</time></trkpt><trkpt lat="41.02997" lon="14.511945"><ele>175.0</ele><time>2026-03-28T09:42:15.413Z</time></trkpt><trkpt lat="41.0300017" lon="14.512035"><ele>175.0</ele><time>2026-03-28T09:42:16.413Z</time></trkpt><trkpt lat="41.0300317" lon="14.5121233"><ele>175.0</ele><time>2026-03-28T09:42:17.414Z</time></trkpt><trkpt lat="41.0300617" lon="14.5122183"><ele>175.0</ele><time>2026-03-28T09:42:18.413Z</time></trkpt><trkpt lat="41.0300883" lon="14.5123167"><ele>175.0</ele><time>2026-03-28T09:42:19.413Z</time></trkpt><trkpt lat="41.03011" lon="14.5124183"><ele>173.57142857142858</ele><time>2026-03-28T09:42:20.413Z</time></trkpt><trkpt lat="41.0301317" lon="14.512515"><ele>172.14285714285714</ele><time>2026-03-28T09:42:21.413Z</time></trkpt><trkpt lat="41.0301533" lon="14.51261"><ele>170.71428571428572</ele><time>2026-03-28T09:42:22.413Z</time></trkpt><trkpt lat="41.0301733" lon="14.5126933"><ele>169.28571428571428</ele><time>2026-03-28T09:42:23.414Z</time></trkpt><trkpt lat="41.0301983" lon="14.5127783"><ele>167.85714285714286</ele><time>2026-03-28T09:42:24.413Z</time></trkpt><trkpt lat="41.0302267" lon="14.5128667"><ele>166.42857142857144</ele><time>2026-03-28T09:42:25.414Z</time></trkpt><trkpt lat="41.0302483" lon="14.5129533"><ele>165.0</ele><time>2026-03-28T09:42:26.413Z</time></trkpt><trkpt lat="41.0302667" lon="14.5130433"><ele>165.00000000000003</ele><time>2026-03-28T09:42:27.413Z</time></trkpt><trkpt lat="41.03029" lon="14.5131417"><ele>165.0</ele><time>2026-03-28T09:42:28.413Z</time></trkpt><trkpt lat="41.0303117" lon="14.5132383"><ele>165.0</ele><time>2026-03-28T09:42:29.414Z</time></trkpt><trkpt lat="41.03033" lon="14.513335"><ele>165.0</ele><time>2026-03-28T09:42:30.412Z</time></trkpt><trkpt lat="41.0303417" lon="14.5134283"><ele>165.0</ele><time>2026-03-28T09:42:31.414Z</time></trkpt><trkpt lat="41.0303567" lon="14.513515"><ele>165.00000000000003</ele><time>2026-03-28T09:42:32.413Z</time></trkpt><trkpt lat="41.03037" lon="14.5136033"><ele>165.0</ele><time>2026-03-28T09:42:33.413Z</time></trkpt><trkpt lat="41.0303867" lon="14.5136883"><ele>167.0</ele><time>2026-03-28T09:42:34.413Z</time></trkpt><trkpt lat="41.03043" lon="14.513835"><ele>169.0</ele><time>2026-03-28T09:42:36.414Z</time></trkpt><trkpt lat="41.0304867" lon="14.5139633"><ele>171.0</ele><time>2026-03-28T09:42:38.413Z</time></trkpt><trkpt lat="41.0305583" lon="14.51408"><ele>173.0</ele><time>2026-03-28T09:42:40.413Z</time></trkpt><trkpt lat="41.0306367" lon="14.51418"><ele>173.0</ele><time>2026-03-28T09:42:42.413Z</time></trkpt><trkpt lat="41.0307117" lon="14.5142883"><ele>173.0</ele><time>2026-03-28T09:42:44.413Z</time></trkpt><trkpt lat="41.03079" lon="14.514395"><ele>173.0</ele><time>2026-03-28T09:42:46.413Z</time></trkpt><trkpt lat="41.0308717" lon="14.5145017"><ele>173.0</ele><time>2026-03-28T09:42:48.413Z</time></trkpt><trkpt lat="41.03095" lon="14.5146083"><ele>171.0</ele><time>2026-03-28T09:42:50.413Z</time></trkpt><trkpt lat="41.0310333" lon="14.5147033"><ele>169.0</ele><time>2026-03-28T09:42:52.413Z</time></trkpt><trkpt lat="41.0311117" lon="14.51481"><ele>167.0</ele><time>2026-03-28T09:42:54.414Z</time></trkpt><trkpt lat="41.0311883" lon="14.5149233"><ele>165.0</ele><time>2026-03-28T09:42:56.413Z</time></trkpt><trkpt lat="41.031245" lon="14.515035"><ele>163.0</ele><time>2026-03-28T09:42:58.413Z</time></trkpt><trkpt lat="41.0312933" lon="14.51516"><ele>163.0</ele><time>2026-03-28T09:43:00.414Z</time></trkpt><trkpt lat="41.03133" lon="14.5152933"><ele>163.0</ele><time>2026-03-28T09:43:02.414Z</time></trkpt><trkpt lat="41.0313583" lon="14.51544"><ele>163.0</ele><time>2026-03-28T09:43:04.417Z</time></trkpt><trkpt lat="41.0313817" lon="14.51559"><ele>163.0</ele><time>2026-03-28T09:43:06.414Z</time></trkpt><trkpt lat="41.0314217" lon="14.5157383"><ele>165.60000000000002</ele><time>2026-03-28T09:43:08.418Z</time></trkpt><trkpt lat="41.0314567" lon="14.5158833"><ele>168.20000000000002</ele><time>2026-03-28T09:43:10.413Z</time></trkpt><trkpt lat="41.031495" lon="14.51602"><ele>170.8</ele><time>2026-03-28T09:43:12.414Z</time></trkpt><trkpt lat="41.03155" lon="14.5161483"><ele>173.4</ele><time>2026-03-28T09:43:14.413Z</time></trkpt><trkpt lat="41.0315883" lon="14.516275"><ele>176.0</ele><time>2026-03-28T09:43:16.414Z</time></trkpt><trkpt lat="41.03163" lon="14.5163967"><ele>175.20000000000002</ele><time>2026-03-28T09:43:18.413Z</time></trkpt><trkpt lat="41.0316617" lon="14.51652"><ele>174.4</ele><time>2026-03-28T09:43:20.413Z</time></trkpt><trkpt lat="41.03168" lon="14.51664"><ele>173.6</ele><time>2026-03-28T09:43:22.413Z</time></trkpt><trkpt lat="41.0316883" lon="14.5167833"><ele>172.8</ele><time>2026-03-28T09:43:24.414Z</time></trkpt><trkpt lat="41.031705" lon="14.5169283"><ele>172.0</ele><time>2026-03-28T09:43:26.414Z</time></trkpt><trkpt lat="41.031715" lon="14.51706"><ele>173.0</ele><time>2026-03-28T09:43:28.414Z</time></trkpt><trkpt lat="41.0317333" lon="14.5171667"><ele>174.0</ele><time>2026-03-28T09:43:30.413Z</time></trkpt><trkpt lat="41.0317483" lon="14.5172817"><ele>175.0</ele><time>2026-03-28T09:43:32.413Z</time></trkpt><trkpt lat="41.0317683" lon="14.517405"><ele>176.0</ele><time>2026-03-28T09:43:34.412Z</time></trkpt><trkpt lat="41.0317767" lon="14.5175367"><ele>177.0</ele><time>2026-03-28T09:43:36.413Z</time></trkpt><trkpt lat="41.03178" lon="14.5176683"><ele>177.0</ele><time>2026-03-28T09:43:38.413Z</time></trkpt><trkpt lat="41.0318" lon="14.517795"><ele>177.0</ele><time>2026-03-28T09:43:40.413Z</time></trkpt><trkpt lat="41.03181" lon="14.5179267"><ele>177.0</ele><time>2026-03-28T09:43:42.413Z</time></trkpt><trkpt lat="41.0318133" lon="14.518065"><ele>177.0</ele><time>2026-03-28T09:43:44.414Z</time></trkpt><trkpt lat="41.0318117" lon="14.5182033"><ele>177.0</ele><time>2026-03-28T09:43:46.414Z</time></trkpt><trkpt lat="41.0318433" lon="14.518335"><ele>177.0</ele><time>2026-03-28T09:43:48.414Z</time></trkpt><trkpt lat="41.03192" lon="14.5184267"><ele>177.0</ele><time>2026-03-28T09:43:50.414Z</time></trkpt><trkpt lat="41.0320267" lon="14.5184417"><ele>177.0</ele><time>2026-03-28T09:43:52.413Z</time></trkpt><trkpt lat="41.032145" lon="14.5184"><ele>177.0</ele><time>2026-03-28T09:43:54.414Z</time></trkpt><trkpt lat="41.0322083" lon="14.5183783"><ele>177.0</ele><time>2026-03-28T09:43:55.414Z</time></trkpt><trkpt lat="41.0323383" lon="14.518325"><ele>177.0</ele><time>2026-03-28T09:43:57.413Z</time></trkpt><trkpt lat="41.0324133" lon="14.5182883"><ele>177.0</ele><time>2026-03-28T09:43:58.417Z</time></trkpt><trkpt lat="41.032485" lon="14.5182617"><ele>177.0</ele><time>2026-03-28T09:43:59.414Z</time></trkpt><trkpt lat="41.0325567" lon="14.5182383"><ele>177.0</ele><time>2026-03-28T09:44:00.413Z</time></trkpt><trkpt lat="41.0326267" lon="14.5182167"><ele>177.0</ele><time>2026-03-28T09:44:01.414Z</time></trkpt><trkpt lat="41.0327433" lon="14.51822"><ele>177.0</ele><time>2026-03-28T09:44:03.413Z</time></trkpt><trkpt lat="41.0328133" lon="14.51831"><ele>175.5</ele><time>2026-03-28T09:44:05.414Z</time></trkpt><trkpt lat="41.0328233" lon="14.5184667"><ele>174.0</ele><time>2026-03-28T09:44:07.414Z</time></trkpt><trkpt lat="41.0328133" lon="14.5186317"><ele>172.5</ele><time>2026-03-28T09:44:09.414Z</time></trkpt><trkpt lat="41.0327983" lon="14.5187883"><ele>171.0</ele><time>2026-03-28T09:44:11.415Z</time></trkpt><trkpt lat="41.03279" lon="14.5189467"><ele>171.0</ele><time>2026-03-28T09:44:13.414Z</time></trkpt><trkpt lat="41.0327933" lon="14.5190967"><ele>171.0</ele><time>2026-03-28T09:44:15.413Z</time></trkpt><trkpt lat="41.0327983" lon="14.51923"><ele>171.0</ele><time>2026-03-28T09:44:17.418Z</time></trkpt><trkpt lat="41.0328033" lon="14.519325"><ele>171.0</ele><time>2026-03-28T09:44:19.414Z</time></trkpt><trkpt lat="41.0328133" lon="14.5194183"><ele>171.0</ele><time>2026-03-28T09:44:21.415Z</time></trkpt><trkpt lat="41.0328017" lon="14.5195417"><ele>171.83333333333334</ele><time>2026-03-28T09:44:23.415Z</time></trkpt><trkpt lat="41.0328033" lon="14.5196283"><ele>172.66666666666666</ele><time>2026-03-28T09:44:24.415Z</time></trkpt><trkpt lat="41.0328083" lon="14.5197167"><ele>173.5</ele><time>2026-03-28T09:44:25.415Z</time></trkpt><trkpt lat="41.0328117" lon="14.519865"><ele>174.33333333333331</ele><time>2026-03-28T09:44:27.413Z</time></trkpt><trkpt lat="41.03279" lon="14.5199817"><ele>175.16666666666666</ele><time>2026-03-28T09:44:29.413Z</time></trkpt><trkpt lat="41.03277" lon="14.52008"><ele>176.0</ele><time>2026-03-28T09:44:31.415Z</time></trkpt><trkpt lat="41.0327417" lon="14.5202"><ele>176.0</ele><time>2026-03-28T09:44:33.414Z</time></trkpt><trkpt lat="41.0327267" lon="14.5203317"><ele>176.0</ele><time>2026-03-28T09:44:35.414Z</time></trkpt><trkpt lat="41.0327067" lon="14.5204617"><ele>176.0</ele><time>2026-03-28T09:44:37.414Z</time></trkpt><trkpt lat="41.0326917" lon="14.5205867"><ele>176.0</ele><time>2026-03-28T09:44:39.413Z</time></trkpt><trkpt lat="41.0326867" lon="14.5207217"><ele>176.0</ele><time>2026-03-28T09:44:41.423Z</time></trkpt><trkpt lat="41.03268" lon="14.52083"><ele>176.33333333333331</ele><time>2026-03-28T09:44:43.416Z</time></trkpt><trkpt lat="41.0326683" lon="14.5209383"><ele>176.66666666666666</ele><time>2026-03-28T09:44:45.414Z</time></trkpt><trkpt lat="41.0326417" lon="14.5210317"><ele>177.0</ele><time>2026-03-28T09:44:47.415Z</time></trkpt><trkpt lat="41.0326317" lon="14.52116"><ele>177.33333333333334</ele><time>2026-03-28T09:44:49.415Z</time></trkpt><trkpt lat="41.0326267" lon="14.5212767"><ele>177.66666666666669</ele><time>2026-03-28T09:44:51.422Z</time></trkpt><trkpt lat="41.0326367" lon="14.521395"><ele>178.0</ele><time>2026-03-28T09:44:53.413Z</time></trkpt><trkpt lat="41.0326233" lon="14.521505"><ele>178.5</ele><time>2026-03-28T09:44:55.415Z</time></trkpt><trkpt lat="41.0326133" lon="14.5216117"><ele>179.0</ele><time>2026-03-28T09:44:57.415Z</time></trkpt><trkpt lat="41.0326" lon="14.5217233"><ele>179.5</ele><time>2026-03-28T09:44:59.414Z</time></trkpt><trkpt lat="41.03259" lon="14.5218333"><ele>180.0</ele><time>2026-03-28T09:45:01.417Z</time></trkpt><trkpt lat="41.0325883" lon="14.5219433"><ele>180.5</ele><time>2026-03-28T09:45:03.414Z</time></trkpt><trkpt lat="41.03258" lon="14.5220633"><ele>181.0</ele><time>2026-03-28T09:45:05.423Z</time></trkpt><trkpt lat="41.0325717" lon="14.52217"><ele>181.60000000000002</ele><time>2026-03-28T09:45:07.416Z</time></trkpt><trkpt lat="41.032565" lon="14.5222967"><ele>182.2</ele><time>2026-03-28T09:45:09.413Z</time></trkpt><trkpt lat="41.032565" lon="14.5224433"><ele>182.8</ele><time>2026-03-28T09:45:11.413Z</time></trkpt><trkpt lat="41.0325783" lon="14.5225883"><ele>183.39999999999998</ele><time>2026-03-28T09:45:13.414Z</time></trkpt><trkpt lat="41.0325933" lon="14.522715"><ele>184.0</ele><time>2026-03-28T09:45:15.417Z</time></trkpt><trkpt lat="41.0326017" lon="14.522815"><ele>184.5</ele><time>2026-03-28T09:45:17.414Z</time></trkpt><trkpt lat="41.032615" lon="14.5229217"><ele>185.0</ele><time>2026-03-28T09:45:19.414Z</time></trkpt><trkpt lat="41.0326217" lon="14.5230383"><ele>185.5</ele><time>2026-03-28T09:45:21.414Z</time></trkpt><trkpt lat="41.0326267" lon="14.5231433"><ele>186.0</ele><time>2026-03-28T09:45:23.414Z</time></trkpt><trkpt lat="41.0326433" lon="14.5232517"><ele>186.5</ele><time>2026-03-28T09:45:25.414Z</time></trkpt><trkpt lat="41.0326567" lon="14.52334"><ele>187.0</ele><time>2026-03-28T09:45:27.414Z</time></trkpt><trkpt lat="41.03265" lon="14.523425"><ele>187.0</ele><time>2026-03-28T09:45:29.414Z</time></trkpt><trkpt lat="41.0325967" lon="14.5235033"><ele>187.0</ele><time>2026-03-28T09:45:32.414Z</time></trkpt><trkpt lat="41.0325183" lon="14.5235617"><ele>187.0</ele><time>2026-03-28T09:45:35.413Z</time></trkpt><trkpt lat="41.03241" lon="14.52357"><ele>187.0</ele><time>2026-03-28T09:45:38.415Z</time></trkpt><trkpt lat="41.0323383" lon="14.5235983"><ele>187.0</ele><time>2026-03-28T09:45:40.417Z</time></trkpt><trkpt lat="41.0322617" lon="14.5236317"><ele>187.0</ele><time>2026-03-28T09:45:42.413Z</time></trkpt><trkpt lat="41.0321967" lon="14.5236683"><ele>187.7142857142857</ele><time>2026-03-28T09:45:44.414Z</time></trkpt><trkpt lat="41.0321267" lon="14.523695"><ele>188.42857142857144</ele><time>2026-03-28T09:45:46.415Z</time></trkpt><trkpt lat="41.0320567" lon="14.5237367"><ele>189.14285714285714</ele><time>2026-03-28T09:45:48.414Z</time></trkpt><trkpt lat="41.0319967" lon="14.523775"><ele>189.85714285714283</ele><time>2026-03-28T09:45:50.414Z</time></trkpt><trkpt lat="41.0319283" lon="14.5238033"><ele>190.57142857142856</ele><time>2026-03-28T09:45:52.414Z</time></trkpt><trkpt lat="41.0318583" lon="14.523845"><ele>191.28571428571428</ele><time>2026-03-28T09:45:54.414Z</time></trkpt><trkpt lat="41.03179" lon="14.5238883"><ele>192.0</ele><time>2026-03-28T09:45:56.416Z</time></trkpt><trkpt lat="41.03172" lon="14.523925"><ele>192.42857142857142</ele><time>2026-03-28T09:45:58.415Z</time></trkpt><trkpt lat="41.0316417" lon="14.5239533"><ele>192.85714285714286</ele><time>2026-03-28T09:46:00.416Z</time></trkpt><trkpt lat="41.0315767" lon="14.5239867"><ele>193.28571428571428</ele><time>2026-03-28T09:46:02.414Z</time></trkpt><trkpt lat="41.0315183" lon="14.5240183"><ele>193.71428571428572</ele><time>2026-03-28T09:46:04.416Z</time></trkpt><trkpt lat="41.031455" lon="14.5240483"><ele>194.14285714285714</ele><time>2026-03-28T09:46:06.415Z</time></trkpt><trkpt lat="41.0313833" lon="14.5240767"><ele>194.57142857142856</ele><time>2026-03-28T09:46:08.416Z</time></trkpt><trkpt lat="41.0313183" lon="14.524115"><ele>195.0</ele><time>2026-03-28T09:46:10.417Z</time></trkpt><trkpt lat="41.03125" lon="14.5241483"><ele>196.0</ele><time>2026-03-28T09:46:12.415Z</time></trkpt><trkpt lat="41.03117" lon="14.52418"><ele>197.0</ele><time>2026-03-28T09:46:14.417Z</time></trkpt><trkpt lat="41.0310967" lon="14.52423"><ele>198.0</ele><time>2026-03-28T09:46:16.415Z</time></trkpt><trkpt lat="41.0310267" lon="14.5242783"><ele>199.0</ele><time>2026-03-28T09:46:18.414Z</time></trkpt><trkpt lat="41.0309617" lon="14.5243167"><ele>200.0</ele><time>2026-03-28T09:46:20.416Z</time></trkpt><trkpt lat="41.0309" lon="14.524355"><ele>201.0</ele><time>2026-03-28T09:46:22.415Z</time></trkpt><trkpt lat="41.0308333" lon="14.5243933"><ele>204.16666666666666</ele><time>2026-03-28T09:46:24.416Z</time></trkpt><trkpt lat="41.0307583" lon="14.5244417"><ele>207.33333333333331</ele><time>2026-03-28T09:46:26.414Z</time></trkpt><trkpt lat="41.030685" lon="14.524495"><ele>210.5</ele><time>2026-03-28T09:46:28.415Z</time></trkpt><trkpt lat="41.030615" lon="14.5245483"><ele>213.66666666666666</ele><time>2026-03-28T09:46:30.414Z</time></trkpt><trkpt lat="41.03055" lon="14.524615"><ele>216.83333333333331</ele><time>2026-03-28T09:46:32.416Z</time></trkpt><trkpt lat="41.030505" lon="14.5247033"><ele>220.0</ele><time>2026-03-28T09:46:34.414Z</time></trkpt><trkpt lat="41.0304867" lon="14.5247967"><ele>219.99999999999997</ele><time>2026-03-28T09:46:36.414Z</time></trkpt><trkpt lat="41.0304817" lon="14.5248883"><ele>220.0</ele><time>2026-03-28T09:46:38.414Z</time></trkpt><trkpt lat="41.0304833" lon="14.5249833"><ele>220.0</ele><time>2026-03-28T09:46:40.415Z</time></trkpt><trkpt lat="41.0304733" lon="14.5250783"><ele>220.0</ele><time>2026-03-28T09:46:42.418Z</time></trkpt><trkpt lat="41.0304767" lon="14.5251717"><ele>220.0</ele><time>2026-03-28T09:46:44.417Z</time></trkpt><trkpt lat="41.0304767" lon="14.5252717"><ele>219.99999999999997</ele><time>2026-03-28T09:46:46.414Z</time></trkpt><trkpt lat="41.0304667" lon="14.5253683"><ele>220.0</ele><time>2026-03-28T09:46:48.416Z</time></trkpt><trkpt lat="41.030435" lon="14.52546"><ele>219.14285714285714</ele><time>2026-03-28T09:46:50.415Z</time></trkpt><trkpt lat="41.0304083" lon="14.5255417"><ele>218.28571428571428</ele><time>2026-03-28T09:46:52.415Z</time></trkpt><trkpt lat="41.03038" lon="14.5256283"><ele>217.42857142857144</ele><time>2026-03-28T09:46:54.415Z</time></trkpt><trkpt lat="41.0303567" lon="14.5257217"><ele>216.57142857142856</ele><time>2026-03-28T09:46:56.414Z</time></trkpt><trkpt lat="41.0303367" lon="14.5258083"><ele>215.71428571428572</ele><time>2026-03-28T09:46:58.415Z</time></trkpt><trkpt lat="41.0303117" lon="14.5258917"><ele>214.85714285714286</ele><time>2026-03-28T09:47:00.417Z</time></trkpt><trkpt lat="41.030285" lon="14.5259733"><ele>214.0</ele><time>2026-03-28T09:47:02.417Z</time></trkpt><trkpt lat="41.0302567" lon="14.526065"><ele>213.99999999999997</ele><time>2026-03-28T09:47:04.417Z</time></trkpt><trkpt lat="41.0302333" lon="14.52616"><ele>214.0</ele><time>2026-03-28T09:47:06.415Z</time></trkpt><trkpt lat="41.0302117" lon="14.526265"><ele>214.0</ele><time>2026-03-28T09:47:08.417Z</time></trkpt><trkpt lat="41.0301767" lon="14.5263583"><ele>214.0</ele><time>2026-03-28T09:47:10.415Z</time></trkpt><trkpt lat="41.0301483" lon="14.52645"><ele>213.99999999999997</ele><time>2026-03-28T09:47:12.415Z</time></trkpt><trkpt lat="41.03014" lon="14.52655"><ele>214.0</ele><time>2026-03-28T09:47:14.414Z</time></trkpt><trkpt lat="41.0301467" lon="14.5266583"><ele>214.33333333333331</ele><time>2026-03-28T09:47:16.415Z</time></trkpt><trkpt lat="41.0301583" lon="14.5267633"><ele>214.66666666666666</ele><time>2026-03-28T09:47:18.416Z</time></trkpt><trkpt lat="41.03017" lon="14.52687"><ele>215.0</ele><time>2026-03-28T09:47:20.415Z</time></trkpt><trkpt lat="41.0301667" lon="14.5269833"><ele>215.33333333333331</ele><time>2026-03-28T09:47:22.414Z</time></trkpt><trkpt lat="41.030155" lon="14.5270917"><ele>215.66666666666666</ele><time>2026-03-28T09:47:24.415Z</time></trkpt><trkpt lat="41.030135" lon="14.5271983"><ele>216.0</ele><time>2026-03-28T09:47:26.414Z</time></trkpt><trkpt lat="41.0301133" lon="14.527305"><ele>216.66666666666666</ele><time>2026-03-28T09:47:28.414Z</time></trkpt><trkpt lat="41.03009" lon="14.52741"><ele>217.33333333333331</ele><time>2026-03-28T09:47:30.417Z</time></trkpt><trkpt lat="41.0300883" lon="14.52752"><ele>218.0</ele><time>2026-03-28T09:47:32.416Z</time></trkpt><trkpt lat="41.0301067" lon="14.52763"><ele>218.66666666666666</ele><time>2026-03-28T09:47:34.417Z</time></trkpt><trkpt lat="41.0301233" lon="14.52774"><ele>219.33333333333331</ele><time>2026-03-28T09:47:36.417Z</time></trkpt><trkpt lat="41.0301417" lon="14.5278433"><ele>220.0</ele><time>2026-03-28T09:47:38.416Z</time></trkpt><trkpt lat="41.03016" lon="14.5279467"><ele>220.49999999999997</ele><time>2026-03-28T09:47:40.417Z</time></trkpt><trkpt lat="41.03019" lon="14.5280517"><ele>221.0</ele><time>2026-03-28T09:47:42.414Z</time></trkpt><trkpt lat="41.030225" lon="14.5281517"><ele>221.5</ele><time>2026-03-28T09:47:44.415Z</time></trkpt><trkpt lat="41.0302733" lon="14.528255"><ele>222.0</ele><time>2026-03-28T09:47:46.414Z</time></trkpt><trkpt lat="41.0303283" lon="14.5283317"><ele>222.49999999999997</ele><time>2026-03-28T09:47:48.414Z</time></trkpt><trkpt lat="41.0303767" lon="14.5284183"><ele>223.0</ele><time>2026-03-28T09:47:50.415Z</time></trkpt><trkpt lat="41.0304267" lon="14.528515"><ele>222.99999999999997</ele><time>2026-03-28T09:47:52.417Z</time></trkpt><trkpt lat="41.0304767" lon="14.5286133"><ele>223.0</ele><time>2026-03-28T09:47:54.415Z</time></trkpt><trkpt lat="41.030505" lon="14.5287117"><ele>223.0</ele><time>2026-03-28T09:47:56.418Z</time></trkpt><trkpt lat="41.030515" lon="14.5288183"><ele>223.0</ele><time>2026-03-28T09:47:58.418Z</time></trkpt><trkpt lat="41.030545" lon="14.52891"><ele>222.99999999999997</ele><time>2026-03-28T09:48:00.415Z</time></trkpt><trkpt lat="41.03057" lon="14.5289983"><ele>223.0</ele><time>2026-03-28T09:48:02.415Z</time></trkpt><trkpt lat="41.0305917" lon="14.5290833"><ele>223.83333333333331</ele><time>2026-03-28T09:48:04.418Z</time></trkpt><trkpt lat="41.0306167" lon="14.52918"><ele>224.66666666666666</ele><time>2026-03-28T09:48:06.417Z</time></trkpt><trkpt lat="41.030645" lon="14.52927"><ele>225.5</ele><time>2026-03-28T09:48:08.418Z</time></trkpt><trkpt lat="41.0306767" lon="14.5293567"><ele>226.33333333333331</ele><time>2026-03-28T09:48:10.418Z</time></trkpt><trkpt lat="41.0307117" lon="14.5294517"><ele>227.16666666666666</ele><time>2026-03-28T09:48:12.414Z</time></trkpt><trkpt lat="41.030745" lon="14.5295567"><ele>228.0</ele><time>2026-03-28T09:48:14.414Z</time></trkpt><trkpt lat="41.0307767" lon="14.5296667"><ele>228.33333333333334</ele><time>2026-03-28T09:48:16.414Z</time></trkpt><trkpt lat="41.030805" lon="14.529785"><ele>228.66666666666669</ele><time>2026-03-28T09:48:18.415Z</time></trkpt><trkpt lat="41.03084" lon="14.52989"><ele>229.0</ele><time>2026-03-28T09:48:20.415Z</time></trkpt><trkpt lat="41.0308833" lon="14.5299933"><ele>229.33333333333334</ele><time>2026-03-28T09:48:22.414Z</time></trkpt><trkpt lat="41.030925" lon="14.530095"><ele>229.66666666666669</ele><time>2026-03-28T09:48:24.417Z</time></trkpt><trkpt lat="41.0309583" lon="14.5301917"><ele>230.0</ele><time>2026-03-28T09:48:26.415Z</time></trkpt><trkpt lat="41.0309983" lon="14.530295"><ele>230.0</ele><time>2026-03-28T09:48:28.418Z</time></trkpt><trkpt lat="41.0310533" lon="14.5304017"><ele>230.0</ele><time>2026-03-28T09:48:30.417Z</time></trkpt><trkpt lat="41.0310933" lon="14.5305217"><ele>230.0</ele><time>2026-03-28T09:48:32.414Z</time></trkpt><trkpt lat="41.0311383" lon="14.53064"><ele>230.0</ele><time>2026-03-28T09:48:34.415Z</time></trkpt><trkpt lat="41.0312" lon="14.5307517"><ele>230.0</ele><time>2026-03-28T09:48:36.418Z</time></trkpt><trkpt lat="41.0312417" lon="14.5308717"><ele>230.00000000000003</ele><time>2026-03-28T09:48:38.416Z</time></trkpt><trkpt lat="41.0312883" lon="14.5309933"><ele>230.0</ele><time>2026-03-28T09:48:40.415Z</time></trkpt><trkpt lat="41.0313083" lon="14.531105"><ele>230.0</ele><time>2026-03-28T09:48:42.418Z</time></trkpt><trkpt lat="41.0312983" lon="14.5312"><ele>230.0</ele><time>2026-03-28T09:48:44.417Z</time></trkpt><trkpt lat="41.0312917" lon="14.5312867"><ele>230.00000000000003</ele><time>2026-03-28T09:48:46.415Z</time></trkpt><trkpt lat="41.0312617" lon="14.5314033"><ele>230.0</ele><time>2026-03-28T09:48:49.415Z</time></trkpt><trkpt lat="41.031225" lon="14.5315117"><ele>230.83333333333334</ele><time>2026-03-28T09:48:52.414Z</time></trkpt><trkpt lat="41.0312" lon="14.5315883"><ele>231.66666666666669</ele><time>2026-03-28T09:48:54.414Z</time></trkpt><trkpt lat="41.0311717" lon="14.5316667"><ele>232.5</ele><time>2026-03-28T09:48:56.415Z</time></trkpt><trkpt lat="41.0311517" lon="14.531755"><ele>233.33333333333331</ele><time>2026-03-28T09:48:58.417Z</time></trkpt><trkpt lat="41.03112" lon="14.5318717"><ele>234.16666666666666</ele><time>2026-03-28T09:49:01.418Z</time></trkpt><trkpt lat="41.0310917" lon="14.5319917"><ele>235.0</ele><time>2026-03-28T09:49:04.414Z</time></trkpt><trkpt lat="41.0310667" lon="14.532075"><ele>235.7142857142857</ele><time>2026-03-28T09:49:06.413Z</time></trkpt><trkpt lat="41.03105" lon="14.53216"><ele>236.4285714285714</ele><time>2026-03-28T09:49:08.414Z</time></trkpt><trkpt lat="41.0310267" lon="14.5322517"><ele>237.14285714285714</ele><time>2026-03-28T09:49:10.414Z</time></trkpt><trkpt lat="41.031" lon="14.53234"><ele>237.85714285714283</ele><time>2026-03-28T09:49:12.415Z</time></trkpt><trkpt lat="41.03098" lon="14.532435"><ele>238.57142857142856</ele><time>2026-03-28T09:49:14.418Z</time></trkpt><trkpt lat="41.030965" lon="14.53252"><ele>239.28571428571428</ele><time>2026-03-28T09:49:16.415Z</time></trkpt><trkpt lat="41.030955" lon="14.532605"><ele>240.0</ele><time>2026-03-28T09:49:18.415Z</time></trkpt><trkpt lat="41.0309367" lon="14.5326867"><ele>240.0</ele><time>2026-03-28T09:49:20.415Z</time></trkpt><trkpt lat="41.030925" lon="14.53277"><ele>240.0</ele><time>2026-03-28T09:49:22.415Z</time></trkpt><trkpt lat="41.03091" lon="14.532885"><ele>240.0</ele><time>2026-03-28T09:49:25.417Z</time></trkpt><trkpt lat="41.03089" lon="14.5330017"><ele>240.0</ele><time>2026-03-28T09:49:28.415Z</time></trkpt><trkpt lat="41.0308733" lon="14.5330833"><ele>240.0</ele><time>2026-03-28T09:49:30.416Z</time></trkpt><trkpt lat="41.0308583" lon="14.53317"><ele>240.0</ele><time>2026-03-28T09:49:32.415Z</time></trkpt><trkpt lat="41.0308583" lon="14.5332567"><ele>240.0</ele><time>2026-03-28T09:49:34.416Z</time></trkpt><trkpt lat="41.0308267" lon="14.533345"><ele>242.14285714285717</ele><time>2026-03-28T09:49:36.414Z</time></trkpt><trkpt lat="41.0307967" lon="14.5334383"><ele>244.28571428571428</ele><time>2026-03-28T09:49:38.416Z</time></trkpt><trkpt lat="41.0307683" lon="14.5335317"><ele>246.42857142857144</ele><time>2026-03-28T09:49:40.415Z</time></trkpt><trkpt lat="41.0307467" lon="14.5336267"><ele>248.57142857142858</ele><time>2026-03-28T09:49:42.414Z</time></trkpt><trkpt lat="41.0307183" lon="14.5337083"><ele>250.71428571428572</ele><time>2026-03-28T09:49:44.417Z</time></trkpt><trkpt lat="41.030685" lon="14.53379"><ele>252.85714285714286</ele><time>2026-03-28T09:49:46.414Z</time></trkpt><trkpt lat="41.0306633" lon="14.533875"><ele>255.0</ele><time>2026-03-28T09:49:48.417Z</time></trkpt><trkpt lat="41.030645" lon="14.5339683"><ele>255.42857142857144</ele><time>2026-03-28T09:49:50.414Z</time></trkpt><trkpt lat="41.0306233" lon="14.5340633"><ele>255.8571428571429</ele><time>2026-03-28T09:49:52.415Z</time></trkpt><trkpt lat="41.030595" lon="14.5341483"><ele>256.2857142857143</ele><time>2026-03-28T09:49:54.415Z</time></trkpt><trkpt lat="41.0305783" lon="14.534245"><ele>256.7142857142857</ele><time>2026-03-28T09:49:57.415Z</time></trkpt><trkpt lat="41.0305683" lon="14.534335"><ele>257.1428571428571</ele><time>2026-03-28T09:50:00.415Z</time></trkpt><trkpt lat="41.0305933" lon="14.5344317"><ele>257.57142857142856</ele><time>2026-03-28T09:50:03.414Z</time></trkpt><trkpt lat="41.0306417" lon="14.5344933"><ele>258.0</ele><time>2026-03-28T09:50:05.415Z</time></trkpt><trkpt lat="41.0306817" lon="14.5345717"><ele>257.3333333333333</ele><time>2026-03-28T09:50:07.416Z</time></trkpt><trkpt lat="41.0307217" lon="14.5346583"><ele>256.6666666666667</ele><time>2026-03-28T09:50:09.415Z</time></trkpt><trkpt lat="41.0307617" lon="14.5347367"><ele>256.0</ele><time>2026-03-28T09:50:11.417Z</time></trkpt><trkpt lat="41.0307967" lon="14.5348367"><ele>255.33333333333334</ele><time>2026-03-28T09:50:13.416Z</time></trkpt><trkpt lat="41.0308067" lon="14.534935"><ele>254.66666666666669</ele><time>2026-03-28T09:50:15.414Z</time></trkpt><trkpt lat="41.03083" lon="14.5350217"><ele>254.0</ele><time>2026-03-28T09:50:17.416Z</time></trkpt><trkpt lat="41.0308717" lon="14.535135"><ele>254.0</ele><time>2026-03-28T09:50:20.414Z</time></trkpt><trkpt lat="41.0309133" lon="14.5352"><ele>254.0</ele><time>2026-03-28T09:50:22.415Z</time></trkpt><trkpt lat="41.03095" lon="14.5352783"><ele>254.0</ele><time>2026-03-28T09:50:24.416Z</time></trkpt><trkpt lat="41.0309867" lon="14.53536"><ele>254.0</ele><time>2026-03-28T09:50:26.418Z</time></trkpt><trkpt lat="41.03103" lon="14.5354667"><ele>254.0</ele><time>2026-03-28T09:50:29.414Z</time></trkpt><trkpt lat="41.03107" lon="14.5355333"><ele>254.0</ele><time>2026-03-28T09:50:31.418Z</time></trkpt><trkpt lat="41.0311233" lon="14.535605"><ele>254.0</ele><time>2026-03-28T09:50:33.415Z</time></trkpt><trkpt lat="41.0311883" lon="14.535665"><ele>255.16666666666669</ele><time>2026-03-28T09:50:35.414Z</time></trkpt><trkpt lat="41.031255" lon="14.5357083"><ele>256.33333333333337</ele><time>2026-03-28T09:50:37.415Z</time></trkpt><trkpt lat="41.0313317" lon="14.5357283"><ele>257.5</ele><time>2026-03-28T09:50:39.417Z</time></trkpt><trkpt lat="41.0314133" lon="14.5357317"><ele>258.6666666666667</ele><time>2026-03-28T09:50:41.415Z</time></trkpt><trkpt lat="41.0314867" lon="14.5357283"><ele>259.8333333333333</ele><time>2026-03-28T09:50:43.414Z</time></trkpt><trkpt lat="41.0315633" lon="14.5357183"><ele>261.0</ele><time>2026-03-28T09:50:45.418Z</time></trkpt><trkpt lat="41.0316333" lon="14.5356883"><ele>260.5</ele><time>2026-03-28T09:50:47.415Z</time></trkpt><trkpt lat="41.031705" lon="14.5356417"><ele>260.0</ele><time>2026-03-28T09:50:49.415Z</time></trkpt><trkpt lat="41.0317783" lon="14.53563"><ele>259.5</ele><time>2026-03-28T09:50:51.414Z</time></trkpt><trkpt lat="41.031855" lon="14.5356683"><ele>259.0</ele><time>2026-03-28T09:50:53.415Z</time></trkpt><trkpt lat="41.0319217" lon="14.53574"><ele>258.5</ele><time>2026-03-28T09:50:55.417Z</time></trkpt><trkpt lat="41.0319717" lon="14.5358367"><ele>258.0</ele><time>2026-03-28T09:50:57.415Z</time></trkpt><trkpt lat="41.0320133" lon="14.53593"><ele>258.0</ele><time>2026-03-28T09:50:59.415Z</time></trkpt><trkpt lat="41.0320533" lon="14.5360317"><ele>258.0</ele><time>2026-03-28T09:51:01.418Z</time></trkpt><trkpt lat="41.0320917" lon="14.5361283"><ele>258.0</ele><time>2026-03-28T09:51:03.415Z</time></trkpt><trkpt lat="41.03213" lon="14.536205"><ele>258.0</ele><time>2026-03-28T09:51:05.418Z</time></trkpt><trkpt lat="41.0321567" lon="14.536295"><ele>258.0</ele><time>2026-03-28T09:51:07.416Z</time></trkpt><trkpt lat="41.0321683" lon="14.53639"><ele>258.0</ele><time>2026-03-28T09:51:09.414Z</time></trkpt><trkpt lat="41.0321833" lon="14.5364933"><ele>259.1666666666667</ele><time>2026-03-28T09:51:11.417Z</time></trkpt><trkpt lat="41.032195" lon="14.5366117"><ele>260.3333333333333</ele><time>2026-03-28T09:51:13.417Z</time></trkpt><trkpt lat="41.0322017" lon="14.5367233"><ele>261.5</ele><time>2026-03-28T09:51:15.417Z</time></trkpt><trkpt lat="41.03222" lon="14.5368367"><ele>262.66666666666663</ele><time>2026-03-28T09:51:17.415Z</time></trkpt><trkpt lat="41.032245" lon="14.5369433"><ele>263.8333333333333</ele><time>2026-03-28T09:51:19.415Z</time></trkpt><trkpt lat="41.0322667" lon="14.5370517"><ele>265.0</ele><time>2026-03-28T09:51:21.414Z</time></trkpt><trkpt lat="41.0322883" lon="14.5371583"><ele>265.8333333333333</ele><time>2026-03-28T09:51:23.415Z</time></trkpt><trkpt lat="41.03232" lon="14.5372467"><ele>266.66666666666663</ele><time>2026-03-28T09:51:25.415Z</time></trkpt><trkpt lat="41.0323333" lon="14.5373333"><ele>267.5</ele><time>2026-03-28T09:51:27.416Z</time></trkpt><trkpt lat="41.0323417" lon="14.537435"><ele>268.3333333333333</ele><time>2026-03-28T09:51:29.418Z</time></trkpt><trkpt lat="41.032345" lon="14.53754"><ele>269.1666666666667</ele><time>2026-03-28T09:51:31.418Z</time></trkpt><trkpt lat="41.0323367" lon="14.5376433"><ele>270.0</ele><time>2026-03-28T09:51:33.418Z</time></trkpt><trkpt lat="41.0323183" lon="14.5377533"><ele>270.0</ele><time>2026-03-28T09:51:35.416Z</time></trkpt><trkpt lat="41.0322983" lon="14.537875"><ele>270.0</ele><time>2026-03-28T09:51:37.419Z</time></trkpt><trkpt lat="41.032285" lon="14.5379917"><ele>270.0</ele><time>2026-03-28T09:51:39.415Z</time></trkpt><trkpt lat="41.0322683" lon="14.5381133"><ele>270.0</ele><time>2026-03-28T09:51:41.418Z</time></trkpt><trkpt lat="41.032255" lon="14.5382467"><ele>270.0</ele><time>2026-03-28T09:51:43.416Z</time></trkpt><trkpt lat="41.03225" lon="14.5383717"><ele>271.0</ele><time>2026-03-28T09:51:45.418Z</time></trkpt><trkpt lat="41.0322433" lon="14.5385083"><ele>272.0</ele><time>2026-03-28T09:51:47.414Z</time></trkpt><trkpt lat="41.032235" lon="14.5386533"><ele>273.0</ele><time>2026-03-28T09:51:49.415Z</time></trkpt><trkpt lat="41.0322283" lon="14.5388067"><ele>274.0</ele><time>2026-03-28T09:51:51.415Z</time></trkpt><trkpt lat="41.032225" lon="14.538975"><ele>275.2</ele><time>2026-03-28T09:51:53.416Z</time></trkpt><trkpt lat="41.032215" lon="14.5391367"><ele>276.4</ele><time>2026-03-28T09:51:55.415Z</time></trkpt><trkpt lat="41.0322167" lon="14.5392883"><ele>277.6</ele><time>2026-03-28T09:51:57.414Z</time></trkpt><trkpt lat="41.03222" lon="14.5394267"><ele>278.8</ele><time>2026-03-28T09:51:59.418Z</time></trkpt><trkpt lat="41.0322283" lon="14.5395533"><ele>280.0</ele><time>2026-03-28T09:52:01.419Z</time></trkpt><trkpt lat="41.03224" lon="14.5396733"><ele>281.8333333333333</ele><time>2026-03-28T09:52:03.417Z</time></trkpt><trkpt lat="41.0322617" lon="14.5397917"><ele>283.66666666666663</ele><time>2026-03-28T09:52:05.413Z</time></trkpt><trkpt lat="41.0322867" lon="14.5398983"><ele>285.5</ele><time>2026-03-28T09:52:07.418Z</time></trkpt><trkpt lat="41.0323067" lon="14.5400033"><ele>287.3333333333333</ele><time>2026-03-28T09:52:09.415Z</time></trkpt><trkpt lat="41.03233" lon="14.54011"><ele>289.1666666666667</ele><time>2026-03-28T09:52:11.414Z</time></trkpt><trkpt lat="41.0323617" lon="14.54021"><ele>291.0</ele><time>2026-03-28T09:52:13.416Z</time></trkpt><trkpt lat="41.0323917" lon="14.5403083"><ele>289.3333333333333</ele><time>2026-03-28T09:52:15.418Z</time></trkpt><trkpt lat="41.03242" lon="14.5404083"><ele>287.6666666666667</ele><time>2026-03-28T09:52:17.415Z</time></trkpt><trkpt lat="41.0324483" lon="14.5405067"><ele>286.0</ele><time>2026-03-28T09:52:19.413Z</time></trkpt><trkpt lat="41.03248" lon="14.5405917"><ele>284.33333333333337</ele><time>2026-03-28T09:52:21.413Z</time></trkpt><trkpt lat="41.0325083" lon="14.5406767"><ele>282.6666666666667</ele><time>2026-03-28T09:52:23.415Z</time></trkpt><trkpt lat="41.0325333" lon="14.540785"><ele>281.0</ele><time>2026-03-28T09:52:26.415Z</time></trkpt><trkpt lat="41.0325717" lon="14.5408667"><ele>281.0</ele><time>2026-03-28T09:52:29.416Z</time></trkpt><trkpt lat="41.03261" lon="14.5409383"><ele>281.0</ele><time>2026-03-28T09:52:32.418Z</time></trkpt><trkpt lat="41.0326717" lon="14.5410083"><ele>281.0</ele><time>2026-03-28T09:52:35.417Z</time></trkpt><trkpt lat="41.03273" lon="14.5411067"><ele>281.0</ele><time>2026-03-28T09:52:38.418Z</time></trkpt><trkpt lat="41.0327817" lon="14.54118"><ele>281.0</ele><time>2026-03-28T09:52:40.413Z</time></trkpt><trkpt lat="41.0328217" lon="14.54128"><ele>281.0</ele><time>2026-03-28T09:52:42.414Z</time></trkpt><trkpt lat="41.03288" lon="14.5413917"><ele>284.2</ele><time>2026-03-28T09:52:44.416Z</time></trkpt><trkpt lat="41.032945" lon="14.54151"><ele>287.40000000000003</ele><time>2026-03-28T09:52:46.415Z</time></trkpt><trkpt lat="41.0330083" lon="14.5416467"><ele>290.6</ele><time>2026-03-28T09:52:48.414Z</time></trkpt><trkpt lat="41.0330467" lon="14.5417133"><ele>293.8</ele><time>2026-03-28T09:52:49.415Z</time></trkpt><trkpt lat="41.033115" lon="14.5418517"><ele>297.0</ele><time>2026-03-28T09:52:51.414Z</time></trkpt><trkpt lat="41.0331467" lon="14.5419267"><ele>294.4</ele><time>2026-03-28T09:52:52.415Z</time></trkpt><trkpt lat="41.0332083" lon="14.5420733"><ele>291.79999999999995</ele><time>2026-03-28T09:52:54.415Z</time></trkpt><trkpt lat="41.03324" lon="14.5421483"><ele>289.2</ele><time>2026-03-28T09:52:55.416Z</time></trkpt><trkpt lat="41.033275" lon="14.5422217"><ele>286.59999999999997</ele><time>2026-03-28T09:52:56.415Z</time></trkpt><trkpt lat="41.0333333" lon="14.5423633"><ele>284.0</ele><time>2026-03-28T09:52:58.415Z</time></trkpt><trkpt lat="41.0333867" lon="14.5425033"><ele>284.0</ele><time>2026-03-28T09:53:00.413Z</time></trkpt><trkpt lat="41.0334333" lon="14.542655"><ele>284.0</ele><time>2026-03-28T09:53:02.415Z</time></trkpt><trkpt lat="41.033475" lon="14.5428083"><ele>284.0</ele><time>2026-03-28T09:53:04.415Z</time></trkpt><trkpt lat="41.0335117" lon="14.54296"><ele>284.0</ele><time>2026-03-28T09:53:06.414Z</time></trkpt><trkpt lat="41.0335683" lon="14.5431067"><ele>285.2857142857143</ele><time>2026-03-28T09:53:08.414Z</time></trkpt><trkpt lat="41.03361" lon="14.54317"><ele>286.57142857142856</ele><time>2026-03-28T09:53:09.414Z</time></trkpt><trkpt lat="41.0336483" lon="14.5432383"><ele>287.85714285714283</ele><time>2026-03-28T09:53:10.417Z</time></trkpt><trkpt lat="41.0336917" lon="14.5433"><ele>289.1428571428571</ele><time>2026-03-28T09:53:11.416Z</time></trkpt><trkpt lat="41.0337367" lon="14.543365"><ele>290.42857142857144</ele><time>2026-03-28T09:53:12.414Z</time></trkpt><trkpt lat="41.033785" lon="14.543425"><ele>291.71428571428567</ele><time>2026-03-28T09:53:13.415Z</time></trkpt><trkpt lat="41.0338367" lon="14.5434817"><ele>293.0</ele><time>2026-03-28T09:53:14.415Z</time></trkpt><trkpt lat="41.033895" lon="14.5435267"><ele>292.99999999999994</ele><time>2026-03-28T09:53:15.414Z</time></trkpt><trkpt lat="41.0339567" lon="14.5435617"><ele>293.0</ele><time>2026-03-28T09:53:16.416Z</time></trkpt><trkpt lat="41.03402" lon="14.5435933"><ele>293.0</ele><time>2026-03-28T09:53:17.414Z</time></trkpt><trkpt lat="41.0340883" lon="14.5436133"><ele>293.0</ele><time>2026-03-28T09:53:18.414Z</time></trkpt><trkpt lat="41.034155" lon="14.5436283"><ele>293.0</ele><time>2026-03-28T09:53:19.415Z</time></trkpt><trkpt lat="41.0342217" lon="14.54364"><ele>292.99999999999994</ele><time>2026-03-28T09:53:20.414Z</time></trkpt><trkpt lat="41.0342867" lon="14.54365"><ele>293.0</ele><time>2026-03-28T09:53:21.414Z</time></trkpt><trkpt lat="41.0343517" lon="14.543665"><ele>292.1428571428571</ele><time>2026-03-28T09:53:22.415Z</time></trkpt><trkpt lat="41.0344167" lon="14.543695"><ele>291.2857142857143</ele><time>2026-03-28T09:53:23.416Z</time></trkpt><trkpt lat="41.0344767" lon="14.5437433"><ele>290.42857142857144</ele><time>2026-03-28T09:53:24.415Z</time></trkpt><trkpt lat="41.03454" lon="14.54378"><ele>289.57142857142856</ele><time>2026-03-28T09:53:25.415Z</time></trkpt><trkpt lat="41.0346033" lon="14.5438217"><ele>288.7142857142857</ele><time>2026-03-28T09:53:26.417Z</time></trkpt><trkpt lat="41.034655" lon="14.5438783"><ele>287.85714285714283</ele><time>2026-03-28T09:53:27.417Z</time></trkpt><trkpt lat="41.0347033" lon="14.5439383"><ele>287.0</ele><time>2026-03-28T09:53:28.415Z</time></trkpt><trkpt lat="41.0347483" lon="14.5440033"><ele>287.0</ele><time>2026-03-28T09:53:29.415Z</time></trkpt><trkpt lat="41.03479" lon="14.5440767"><ele>287.0</ele><time>2026-03-28T09:53:30.415Z</time></trkpt><trkpt lat="41.0348267" lon="14.544155"><ele>287.0</ele><time>2026-03-28T09:53:31.418Z</time></trkpt><trkpt lat="41.034855" lon="14.54424"><ele>287.0</ele><time>2026-03-28T09:53:32.417Z</time></trkpt><trkpt lat="41.03488" lon="14.5443267"><ele>287.0</ele><time>2026-03-28T09:53:33.417Z</time></trkpt><trkpt lat="41.0349067" lon="14.5444117"><ele>287.0</ele><time>2026-03-28T09:53:34.417Z</time></trkpt><trkpt lat="41.03493" lon="14.544495"><ele>287.0</ele><time>2026-03-28T09:53:35.415Z</time></trkpt><trkpt lat="41.0349517" lon="14.54458"><ele>286.0</ele><time>2026-03-28T09:53:36.414Z</time></trkpt><trkpt lat="41.034975" lon="14.544665"><ele>285.0</ele><time>2026-03-28T09:53:37.414Z</time></trkpt><trkpt lat="41.035" lon="14.5447483"><ele>284.0</ele><time>2026-03-28T09:53:38.415Z</time></trkpt><trkpt lat="41.0350233" lon="14.54483"><ele>283.0</ele><time>2026-03-28T09:53:39.417Z</time></trkpt><trkpt lat="41.0350767" lon="14.54497"><ele>282.0</ele><time>2026-03-28T09:53:41.415Z</time></trkpt><trkpt lat="41.0351517" lon="14.5450533"><ele>281.0</ele><time>2026-03-28T09:53:43.414Z</time></trkpt><trkpt lat="41.0352233" lon="14.5450717"><ele>281.0</ele><time>2026-03-28T09:53:45.414Z</time></trkpt><trkpt lat="41.03529" lon="14.5450433"><ele>281.0</ele><time>2026-03-28T09:53:48.414Z</time></trkpt><trkpt lat="41.035375" lon="14.5450233"><ele>281.0</ele><time>2026-03-28T09:53:59.416Z</time></trkpt><trkpt lat="41.0353967" lon="14.5451167"><ele>281.0</ele><time>2026-03-28T09:54:02.414Z</time></trkpt><trkpt lat="41.03543" lon="14.5452017"><ele>281.0</ele><time>2026-03-28T09:54:04.415Z</time></trkpt><trkpt lat="41.0354783" lon="14.54529"><ele>281.0</ele><time>2026-03-28T09:54:06.417Z</time></trkpt><trkpt lat="41.035515" lon="14.54539"><ele>281.8</ele><time>2026-03-28T09:54:08.417Z</time></trkpt><trkpt lat="41.0355533" lon="14.5454933"><ele>282.6</ele><time>2026-03-28T09:54:10.413Z</time></trkpt><trkpt lat="41.0356033" lon="14.5455933"><ele>283.4</ele><time>2026-03-28T09:54:12.415Z</time></trkpt><trkpt lat="41.03564" lon="14.545705"><ele>284.2</ele><time>2026-03-28T09:54:14.417Z</time></trkpt><trkpt lat="41.0356783" lon="14.5458217"><ele>285.0</ele><time>2026-03-28T09:54:16.418Z</time></trkpt><trkpt lat="41.0357199" lon="14.5459383"><ele>285.0</ele><time>2026-03-28T09:54:18.416Z</time></trkpt><trkpt lat="41.0357631" lon="14.546062"><ele>285.0</ele><time>2026-03-28T09:54:20.416Z</time></trkpt><trkpt lat="41.0358143" lon="14.5461995"><ele>285.0</ele><time>2026-03-28T09:54:22.415Z</time></trkpt><trkpt lat="41.0358617" lon="14.5463428"><ele>285.0</ele><time>2026-03-28T09:54:24.414Z</time></trkpt><trkpt lat="41.0359118" lon="14.5464875"><ele>285.25</ele><time>2026-03-28T09:54:26.415Z</time></trkpt><trkpt lat="41.0359661" lon="14.5466309"><ele>285.5</ele><time>2026-03-28T09:54:28.417Z</time></trkpt><trkpt lat="41.0360198" lon="14.5467719"><ele>285.75</ele><time>2026-03-28T09:54:30.417Z</time></trkpt><trkpt lat="41.036069" lon="14.5469166"><ele>286.0</ele><time>2026-03-28T09:54:32.417Z</time></trkpt><trkpt lat="41.0361229" lon="14.5470444"><ele>286.8</ele><time>2026-03-28T09:54:34.416Z</time></trkpt><trkpt lat="41.03617" lon="14.5471674"><ele>287.6</ele><time>2026-03-28T09:54:36.414Z</time></trkpt><trkpt lat="41.0362131" lon="14.5472961"><ele>288.4</ele><time>2026-03-28T09:54:38.415Z</time></trkpt><trkpt lat="41.0362588" lon="14.547427"><ele>289.2</ele><time>2026-03-28T09:54:40.417Z</time></trkpt><trkpt lat="41.0362973" lon="14.5475548"><ele>290.0</ele><time>2026-03-28T09:54:42.417Z</time></trkpt><trkpt lat="41.0363379" lon="14.5476695"><ele>290.0</ele><time>2026-03-28T09:54:44.417Z</time></trkpt><trkpt lat="41.0363754" lon="14.5477785"><ele>290.0</ele><time>2026-03-28T09:54:46.417Z</time></trkpt><trkpt lat="41.0364133" lon="14.54787"><ele>290.0</ele><time>2026-03-28T09:54:48.416Z</time></trkpt><trkpt lat="41.0364517" lon="14.5479683"><ele>290.0</ele><time>2026-03-28T09:54:50.417Z</time></trkpt><trkpt lat="41.0364867" lon="14.5480783"><ele>290.0</ele><time>2026-03-28T09:54:52.417Z</time></trkpt><trkpt lat="41.03652" lon="14.548185"><ele>290.0</ele><time>2026-03-28T09:54:54.417Z</time></trkpt><trkpt lat="41.0365617" lon="14.5482917"><ele>290.4</ele><time>2026-03-28T09:54:56.415Z</time></trkpt><trkpt lat="41.0366" lon="14.5484"><ele>290.8</ele><time>2026-03-28T09:54:58.415Z</time></trkpt><trkpt lat="41.0366417" lon="14.54851"><ele>291.2</ele><time>2026-03-28T09:55:00.415Z</time></trkpt><trkpt lat="41.0366817" lon="14.5486183"><ele>291.6</ele><time>2026-03-28T09:55:02.416Z</time></trkpt><trkpt lat="41.036725" lon="14.548725"><ele>292.0</ele><time>2026-03-28T09:55:04.416Z</time></trkpt><trkpt lat="41.0367733" lon="14.5488283"><ele>292.6</ele><time>2026-03-28T09:55:06.415Z</time></trkpt><trkpt lat="41.036815" lon="14.5489417"><ele>293.2</ele><time>2026-03-28T09:55:08.415Z</time></trkpt><trkpt lat="41.0368533" lon="14.5490567"><ele>293.8</ele><time>2026-03-28T09:55:10.417Z</time></trkpt><trkpt lat="41.0368967" lon="14.5491633"><ele>294.4</ele><time>2026-03-28T09:55:12.416Z</time></trkpt><trkpt lat="41.0369383" lon="14.5492733"><ele>295.0</ele><time>2026-03-28T09:55:14.416Z</time></trkpt><trkpt lat="41.03698" lon="14.5493783"><ele>295.0</ele><time>2026-03-28T09:55:16.415Z</time></trkpt><trkpt lat="41.0370233" lon="14.5494867"><ele>295.0</ele><time>2026-03-28T09:55:18.415Z</time></trkpt><trkpt lat="41.03707" lon="14.549595"><ele>295.0</ele><time>2026-03-28T09:55:20.416Z</time></trkpt><trkpt lat="41.0371183" lon="14.5497133"><ele>295.0</ele><time>2026-03-28T09:55:22.415Z</time></trkpt><trkpt lat="41.0371617" lon="14.5498333"><ele>295.0</ele><time>2026-03-28T09:55:24.416Z</time></trkpt><trkpt lat="41.0372017" lon="14.5499633"><ele>296.0</ele><time>2026-03-28T09:55:26.415Z</time></trkpt><trkpt lat="41.03724" lon="14.55009"><ele>297.0</ele><time>2026-03-28T09:55:28.414Z</time></trkpt><trkpt lat="41.0372783" lon="14.5502217"><ele>298.0</ele><time>2026-03-28T09:55:30.415Z</time></trkpt><trkpt lat="41.03732" lon="14.5503433"><ele>299.0</ele><time>2026-03-28T09:55:32.415Z</time></trkpt><trkpt lat="41.0373683" lon="14.5504533"><ele>300.0</ele><time>2026-03-28T09:55:34.415Z</time></trkpt><trkpt lat="41.037415" lon="14.550565"><ele>300.0</ele><time>2026-03-28T09:55:36.415Z</time></trkpt><trkpt lat="41.0374833" lon="14.5507117"><ele>300.0</ele><time>2026-03-28T09:55:39.415Z</time></trkpt><trkpt lat="41.0375117" lon="14.55083"><ele>300.0</ele><time>2026-03-28T09:55:41.417Z</time></trkpt><trkpt lat="41.0375483" lon="14.5509517"><ele>300.0</ele><time>2026-03-28T09:55:43.416Z</time></trkpt><trkpt lat="41.0375983" lon="14.5510683"><ele>300.0</ele><time>2026-03-28T09:55:45.417Z</time></trkpt><trkpt lat="41.0376367" lon="14.5511817"><ele>300.0</ele><time>2026-03-28T09:55:47.418Z</time></trkpt><trkpt lat="41.03768" lon="14.5512783"><ele>300.0</ele><time>2026-03-28T09:55:49.415Z</time></trkpt><trkpt lat="41.0377167" lon="14.55139"><ele>300.0</ele><time>2026-03-28T09:55:51.414Z</time></trkpt><trkpt lat="41.0377583" lon="14.5515017"><ele>300.0</ele><time>2026-03-28T09:55:53.417Z</time></trkpt><trkpt lat="41.0377883" lon="14.5515983"><ele>300.0</ele><time>2026-03-28T09:55:55.418Z</time></trkpt><trkpt lat="41.03777" lon="14.5516883"><ele>300.0</ele><time>2026-03-28T09:55:58.418Z</time></trkpt><trkpt lat="41.03783" lon="14.5517183"><ele>300.0</ele><time>2026-03-28T09:57:10.415Z</time></trkpt><trkpt lat="41.0378633" lon="14.5517983"><ele>300.0</ele><time>2026-03-28T09:57:12.415Z</time></trkpt><trkpt lat="41.0379017" lon="14.5518933"><ele>300.0</ele><time>2026-03-28T09:57:14.418Z</time></trkpt><trkpt lat="41.03794" lon="14.552005"><ele>300.0</ele><time>2026-03-28T09:57:16.418Z</time></trkpt><trkpt lat="41.037985" lon="14.5521333"><ele>300.0</ele><time>2026-03-28T09:57:18.417Z</time></trkpt><trkpt lat="41.0380417" lon="14.5522683"><ele>300.1666666666667</ele><time>2026-03-28T09:57:20.418Z</time></trkpt><trkpt lat="41.0381017" lon="14.552415"><ele>300.3333333333333</ele><time>2026-03-28T09:57:22.418Z</time></trkpt><trkpt lat="41.03813" lon="14.5524917"><ele>300.5</ele><time>2026-03-28T09:57:23.415Z</time></trkpt><trkpt lat="41.03816" lon="14.5525683"><ele>300.66666666666663</ele><time>2026-03-28T09:57:24.418Z</time></trkpt><trkpt lat="41.0381917" lon="14.5526433"><ele>300.8333333333333</ele><time>2026-03-28T09:57:25.418Z</time></trkpt><trkpt lat="41.03822" lon="14.552725"><ele>301.0</ele><time>2026-03-28T09:57:26.418Z</time></trkpt><trkpt lat="41.038275" lon="14.5528867"><ele>300.14285714285717</ele><time>2026-03-28T09:57:28.418Z</time></trkpt><trkpt lat="41.0383033" lon="14.5529717"><ele>299.2857142857143</ele><time>2026-03-28T09:57:29.418Z</time></trkpt><trkpt lat="41.03833" lon="14.55306"><ele>298.42857142857144</ele><time>2026-03-28T09:57:30.414Z</time></trkpt><trkpt lat="41.0383583" lon="14.5531483"><ele>297.57142857142856</ele><time>2026-03-28T09:57:31.418Z</time></trkpt><trkpt lat="41.0383883" lon="14.5532333"><ele>296.7142857142857</ele><time>2026-03-28T09:57:32.418Z</time></trkpt><trkpt lat="41.0384217" lon="14.5533283"><ele>295.8571428571429</ele><time>2026-03-28T09:57:33.418Z</time></trkpt><trkpt lat="41.038455" lon="14.553425"><ele>295.0</ele><time>2026-03-28T09:57:34.419Z</time></trkpt><trkpt lat="41.0384833" lon="14.5535233"><ele>295.0</ele><time>2026-03-28T09:57:35.418Z</time></trkpt><trkpt lat="41.0385117" lon="14.5536233"><ele>295.0</ele><time>2026-03-28T09:57:36.419Z</time></trkpt><trkpt lat="41.0385417" lon="14.5537217"><ele>295.0</ele><time>2026-03-28T09:57:37.419Z</time></trkpt><trkpt lat="41.0385683" lon="14.5538233"><ele>295.0</ele><time>2026-03-28T09:57:38.419Z</time></trkpt><trkpt lat="41.0385933" lon="14.55393"><ele>295.0</ele><time>2026-03-28T09:57:39.418Z</time></trkpt><trkpt lat="41.03862" lon="14.5540333"><ele>295.0</ele><time>2026-03-28T09:57:40.419Z</time></trkpt><trkpt lat="41.0386483" lon="14.5541383"><ele>294.66666666666663</ele><time>2026-03-28T09:57:41.419Z</time></trkpt><trkpt lat="41.0386767" lon="14.5542417"><ele>294.3333333333333</ele><time>2026-03-28T09:57:42.418Z</time></trkpt><trkpt lat="41.038705" lon="14.5543467"><ele>294.0</ele><time>2026-03-28T09:57:43.417Z</time></trkpt><trkpt lat="41.038735" lon="14.5544533"><ele>293.6666666666667</ele><time>2026-03-28T09:57:44.418Z</time></trkpt><trkpt lat="41.0387667" lon="14.5545567"><ele>293.33333333333337</ele><time>2026-03-28T09:57:45.417Z</time></trkpt><trkpt lat="41.0387933" lon="14.55466"><ele>293.0</ele><time>2026-03-28T09:57:46.414Z</time></trkpt><trkpt lat="41.0388167" lon="14.5547667"><ele>293.0</ele><time>2026-03-28T09:57:47.415Z</time></trkpt><trkpt lat="41.03884" lon="14.5548683"><ele>293.0</ele><time>2026-03-28T09:57:48.416Z</time></trkpt><trkpt lat="41.0388633" lon="14.5549717"><ele>293.0</ele><time>2026-03-28T09:57:49.415Z</time></trkpt><trkpt lat="41.03889" lon="14.5550767"><ele>293.0</ele><time>2026-03-28T09:57:50.415Z</time></trkpt><trkpt lat="41.03892" lon="14.55518"><ele>293.0</ele><time>2026-03-28T09:57:51.416Z</time></trkpt><trkpt lat="41.0389483" lon="14.555285"><ele>293.0</ele><time>2026-03-28T09:57:52.415Z</time></trkpt><trkpt lat="41.0389783" lon="14.55539"><ele>292.6666666666667</ele><time>2026-03-28T09:57:53.419Z</time></trkpt><trkpt lat="41.0390067" lon="14.5554967"><ele>292.33333333333337</ele><time>2026-03-28T09:57:54.417Z</time></trkpt><trkpt lat="41.0390367" lon="14.5556067"><ele>292.0</ele><time>2026-03-28T09:57:55.419Z</time></trkpt><trkpt lat="41.0390667" lon="14.5557167"><ele>291.6666666666667</ele><time>2026-03-28T09:57:56.418Z</time></trkpt><trkpt lat="41.039095" lon="14.5558283"><ele>291.3333333333333</ele><time>2026-03-28T09:57:57.419Z</time></trkpt><trkpt lat="41.039125" lon="14.555945"><ele>291.0</ele><time>2026-03-28T09:57:58.418Z</time></trkpt><trkpt lat="41.0391533" lon="14.55606"><ele>290.0</ele><time>2026-03-28T09:57:59.418Z</time></trkpt><trkpt lat="41.0391817" lon="14.5561767"><ele>289.0</ele><time>2026-03-28T09:58:00.418Z</time></trkpt><trkpt lat="41.03921" lon="14.5562917"><ele>288.0</ele><time>2026-03-28T09:58:01.419Z</time></trkpt><trkpt lat="41.03924" lon="14.5564083"><ele>287.0</ele><time>2026-03-28T09:58:02.418Z</time></trkpt><trkpt lat="41.0392683" lon="14.5565267"><ele>286.0</ele><time>2026-03-28T09:58:03.418Z</time></trkpt><trkpt lat="41.0392983" lon="14.556645"><ele>285.6</ele><time>2026-03-28T09:58:04.418Z</time></trkpt><trkpt lat="41.0393283" lon="14.5567617"><ele>285.20000000000005</ele><time>2026-03-28T09:58:05.415Z</time></trkpt><trkpt lat="41.0393583" lon="14.55688"><ele>284.79999999999995</ele><time>2026-03-28T09:58:06.419Z</time></trkpt><trkpt lat="41.0393867" lon="14.5569983"><ele>284.4</ele><time>2026-03-28T09:58:07.419Z</time></trkpt><trkpt lat="41.0394133" lon="14.5571167"><ele>284.0</ele><time>2026-03-28T09:58:08.417Z</time></trkpt><trkpt lat="41.03944" lon="14.557235"><ele>283.59999999999997</ele><time>2026-03-28T09:58:09.418Z</time></trkpt><trkpt lat="41.0394683" lon="14.55735"><ele>283.2</ele><time>2026-03-28T09:58:10.419Z</time></trkpt><trkpt lat="41.039495" lon="14.5574667"><ele>282.79999999999995</ele><time>2026-03-28T09:58:11.417Z</time></trkpt><trkpt lat="41.0395217" lon="14.557585"><ele>282.4</ele><time>2026-03-28T09:58:12.417Z</time></trkpt><trkpt lat="41.0395467" lon="14.5577067"><ele>282.0</ele><time>2026-03-28T09:58:13.419Z</time></trkpt><trkpt lat="41.03957" lon="14.5578267"><ele>282.0</ele><time>2026-03-28T09:58:14.419Z</time></trkpt><trkpt lat="41.0395983" lon="14.55795"><ele>282.0</ele><time>2026-03-28T09:58:15.419Z</time></trkpt><trkpt lat="41.0396283" lon="14.5580683"><ele>282.0</ele><time>2026-03-28T09:58:16.417Z</time></trkpt><trkpt lat="41.0396567" lon="14.5581867"><ele>282.0</ele><time>2026-03-28T09:58:17.417Z</time></trkpt><trkpt lat="41.0396833" lon="14.5583067"><ele>282.0</ele><time>2026-03-28T09:58:18.415Z</time></trkpt><trkpt lat="41.03971" lon="14.5584283"><ele>282.0</ele><time>2026-03-28T09:58:19.415Z</time></trkpt><trkpt lat="41.03974" lon="14.5585483"><ele>282.0</ele><time>2026-03-28T09:58:20.417Z</time></trkpt><trkpt lat="41.0397717" lon="14.5586683"><ele>282.0</ele><time>2026-03-28T09:58:21.415Z</time></trkpt><trkpt lat="41.039805" lon="14.5587883"><ele>282.0</ele><time>2026-03-28T09:58:22.416Z</time></trkpt><trkpt lat="41.039835" lon="14.5589067"><ele>282.0</ele><time>2026-03-28T09:58:23.418Z</time></trkpt><trkpt lat="41.0398617" lon="14.559025"><ele>281.6</ele><time>2026-03-28T09:58:24.419Z</time></trkpt><trkpt lat="41.0398883" lon="14.5591417"><ele>281.2</ele><time>2026-03-28T09:58:25.419Z</time></trkpt><trkpt lat="41.039915" lon="14.5592567"><ele>280.8</ele><time>2026-03-28T09:58:26.418Z</time></trkpt><trkpt lat="41.039945" lon="14.55937"><ele>280.4</ele><time>2026-03-28T09:58:27.419Z</time></trkpt><trkpt lat="41.0399733" lon="14.5594817"><ele>280.0</ele><time>2026-03-28T09:58:28.419Z</time></trkpt><trkpt lat="41.04" lon="14.559595"><ele>279.3333333333333</ele><time>2026-03-28T09:58:29.419Z</time></trkpt><trkpt lat="41.0400233" lon="14.55971"><ele>278.66666666666663</ele><time>2026-03-28T09:58:30.419Z</time></trkpt><trkpt lat="41.0400467" lon="14.5598233"><ele>278.0</ele><time>2026-03-28T09:58:31.419Z</time></trkpt><trkpt lat="41.0400733" lon="14.5599383"><ele>277.3333333333333</ele><time>2026-03-28T09:58:32.418Z</time></trkpt><trkpt lat="41.0401017" lon="14.560045"><ele>276.6666666666667</ele><time>2026-03-28T09:58:33.417Z</time></trkpt><trkpt lat="41.0401183" lon="14.5601517"><ele>276.0</ele><time>2026-03-28T09:58:34.417Z</time></trkpt><trkpt lat="41.040135" lon="14.560265"><ele>275.6666666666667</ele><time>2026-03-28T09:58:35.417Z</time></trkpt><trkpt lat="41.0401583" lon="14.560375"><ele>275.3333333333333</ele><time>2026-03-28T09:58:36.419Z</time></trkpt><trkpt lat="41.0401817" lon="14.5604867"><ele>275.0</ele><time>2026-03-28T09:58:37.418Z</time></trkpt><trkpt lat="41.040205" lon="14.5605917"><ele>274.66666666666663</ele><time>2026-03-28T09:58:38.419Z</time></trkpt><trkpt lat="41.04023" lon="14.5607"><ele>274.3333333333333</ele><time>2026-03-28T09:58:39.419Z</time></trkpt><trkpt lat="41.0402633" lon="14.560805"><ele>274.0</ele><time>2026-03-28T09:58:40.417Z</time></trkpt><trkpt lat="41.0402933" lon="14.5609083"><ele>274.0</ele><time>2026-03-28T09:58:41.419Z</time></trkpt><trkpt lat="41.0403283" lon="14.5610083"><ele>274.0</ele><time>2026-03-28T09:58:42.419Z</time></trkpt><trkpt lat="41.04036" lon="14.5611033"><ele>274.0</ele><time>2026-03-28T09:58:43.419Z</time></trkpt><trkpt lat="41.0403883" lon="14.561185"><ele>274.0</ele><time>2026-03-28T09:58:44.418Z</time></trkpt><trkpt lat="41.0404617" lon="14.5612933"><ele>274.0</ele><time>2026-03-28T09:58:46.415Z</time></trkpt><trkpt lat="41.040565" lon="14.5613083"><ele>274.0</ele><time>2026-03-28T09:58:48.415Z</time></trkpt><trkpt lat="41.04069" lon="14.5612717"><ele>274.0</ele><time>2026-03-28T09:58:50.415Z</time></trkpt><trkpt lat="41.0407533" lon="14.5612383"><ele>274.0</ele><time>2026-03-28T09:58:51.416Z</time></trkpt><trkpt lat="41.0408217" lon="14.5612017"><ele>274.0</ele><time>2026-03-28T09:58:52.416Z</time></trkpt><trkpt lat="41.0408883" lon="14.56116"><ele>274.0</ele><time>2026-03-28T09:58:53.418Z</time></trkpt><trkpt lat="41.04096" lon="14.5611133"><ele>274.0</ele><time>2026-03-28T09:58:54.417Z</time></trkpt><trkpt lat="41.0410333" lon="14.561065"><ele>274.0</ele><time>2026-03-28T09:58:55.419Z</time></trkpt><trkpt lat="41.0411067" lon="14.5610133"><ele>273.8333333333333</ele><time>2026-03-28T09:58:56.418Z</time></trkpt><trkpt lat="41.0411833" lon="14.5609667"><ele>273.66666666666663</ele><time>2026-03-28T09:58:57.415Z</time></trkpt><trkpt lat="41.0412633" lon="14.560925"><ele>273.5</ele><time>2026-03-28T09:58:58.415Z</time></trkpt><trkpt lat="41.0413433" lon="14.5608817"><ele>273.3333333333333</ele><time>2026-03-28T09:58:59.415Z</time></trkpt><trkpt lat="41.041425" lon="14.560845"><ele>273.1666666666667</ele><time>2026-03-28T09:59:00.417Z</time></trkpt><trkpt lat="41.041505" lon="14.560805"><ele>273.0</ele><time>2026-03-28T09:59:01.416Z</time></trkpt><trkpt lat="41.04158" lon="14.5607567"><ele>272.5</ele><time>2026-03-28T09:59:02.415Z</time></trkpt><trkpt lat="41.041655" lon="14.560705"><ele>272.0</ele><time>2026-03-28T09:59:03.419Z</time></trkpt><trkpt lat="41.0417267" lon="14.56065"><ele>271.5</ele><time>2026-03-28T09:59:04.418Z</time></trkpt><trkpt lat="41.0417983" lon="14.5605933"><ele>271.0</ele><time>2026-03-28T09:59:05.418Z</time></trkpt><trkpt lat="41.04187" lon="14.5605367"><ele>270.5</ele><time>2026-03-28T09:59:06.418Z</time></trkpt><trkpt lat="41.0419433" lon="14.5604733"><ele>270.0</ele><time>2026-03-28T09:59:07.419Z</time></trkpt><trkpt lat="41.0420133" lon="14.5604017"><ele>270.0</ele><time>2026-03-28T09:59:08.418Z</time></trkpt><trkpt lat="41.0420867" lon="14.5603267"><ele>270.0</ele><time>2026-03-28T09:59:09.419Z</time></trkpt><trkpt lat="41.04216" lon="14.5602583"><ele>270.0</ele><time>2026-03-28T09:59:10.415Z</time></trkpt><trkpt lat="41.0422317" lon="14.5601917"><ele>270.0</ele><time>2026-03-28T09:59:11.419Z</time></trkpt><trkpt lat="41.0423017" lon="14.5601233"><ele>270.0</ele><time>2026-03-28T09:59:12.418Z</time></trkpt><trkpt lat="41.04237" lon="14.5600567"><ele>270.0</ele><time>2026-03-28T09:59:13.419Z</time></trkpt><trkpt lat="41.042435" lon="14.5599917"><ele>269.8333333333333</ele><time>2026-03-28T09:59:14.417Z</time></trkpt><trkpt lat="41.0425" lon="14.5599233"><ele>269.6666666666667</ele><time>2026-03-28T09:59:15.419Z</time></trkpt><trkpt lat="41.0425633" lon="14.5598583"><ele>269.5</ele><time>2026-03-28T09:59:16.416Z</time></trkpt><trkpt lat="41.0426233" lon="14.559795"><ele>269.33333333333337</ele><time>2026-03-28T09:59:17.416Z</time></trkpt><trkpt lat="41.042685" lon="14.559735"><ele>269.1666666666667</ele><time>2026-03-28T09:59:18.415Z</time></trkpt><trkpt lat="41.042745" lon="14.5596767"><ele>269.0</ele><time>2026-03-28T09:59:19.415Z</time></trkpt><trkpt lat="41.0428067" lon="14.5596167"><ele>269.0</ele><time>2026-03-28T09:59:20.416Z</time></trkpt><trkpt lat="41.0428633" lon="14.5595583"><ele>269.0</ele><time>2026-03-28T09:59:21.414Z</time></trkpt><trkpt lat="41.0429233" lon="14.559515"><ele>269.0</ele><time>2026-03-28T09:59:22.416Z</time></trkpt><trkpt lat="41.0429817" lon="14.5594683"><ele>269.0</ele><time>2026-03-28T09:59:23.419Z</time></trkpt><trkpt lat="41.04304" lon="14.5594167"><ele>269.0</ele><time>2026-03-28T09:59:24.418Z</time></trkpt><trkpt lat="41.0431" lon="14.5593667"><ele>269.0</ele><time>2026-03-28T09:59:25.415Z</time></trkpt><trkpt lat="41.043165" lon="14.5593217"><ele>269.0</ele><time>2026-03-28T09:59:26.416Z</time></trkpt><trkpt lat="41.0432333" lon="14.559285"><ele>268.83333333333337</ele><time>2026-03-28T09:59:27.415Z</time></trkpt><trkpt lat="41.043305" lon="14.5592517"><ele>268.6666666666667</ele><time>2026-03-28T09:59:28.417Z</time></trkpt><trkpt lat="41.043375" lon="14.559215"><ele>268.5</ele><time>2026-03-28T09:59:29.419Z</time></trkpt><trkpt lat="41.0434467" lon="14.5591817"><ele>268.3333333333333</ele><time>2026-03-28T09:59:30.416Z</time></trkpt><trkpt lat="41.04352" lon="14.5591467"><ele>268.16666666666663</ele><time>2026-03-28T09:59:31.418Z</time></trkpt><trkpt lat="41.043595" lon="14.5591133"><ele>268.0</ele><time>2026-03-28T09:59:32.417Z</time></trkpt><trkpt lat="41.0436733" lon="14.559085"><ele>268.0</ele><time>2026-03-28T09:59:33.415Z</time></trkpt><trkpt lat="41.0437517" lon="14.5590617"><ele>268.0</ele><time>2026-03-28T09:59:34.415Z</time></trkpt><trkpt lat="41.04383" lon="14.5590417"><ele>268.0</ele><time>2026-03-28T09:59:35.417Z</time></trkpt><trkpt lat="41.0439083" lon="14.5590217"><ele>268.0</ele><time>2026-03-28T09:59:36.419Z</time></trkpt><trkpt lat="41.0439883" lon="14.559"><ele>268.0</ele><time>2026-03-28T09:59:37.417Z</time></trkpt><trkpt lat="41.044065" lon="14.5589767"><ele>268.0</ele><time>2026-03-28T09:59:38.415Z</time></trkpt><trkpt lat="41.0441433" lon="14.5589517"><ele>268.0</ele><time>2026-03-28T09:59:39.414Z</time></trkpt><trkpt lat="41.0442233" lon="14.558925"><ele>268.0</ele><time>2026-03-28T09:59:40.415Z</time></trkpt><trkpt lat="41.0443017" lon="14.5588967"><ele>268.0</ele><time>2026-03-28T09:59:41.415Z</time></trkpt><trkpt lat="41.0443783" lon="14.5588683"><ele>268.0</ele><time>2026-03-28T09:59:42.416Z</time></trkpt><trkpt lat="41.044455" lon="14.5588467"><ele>268.0</ele><time>2026-03-28T09:59:43.416Z</time></trkpt><trkpt lat="41.0445283" lon="14.5588233"><ele>268.0</ele><time>2026-03-28T09:59:44.419Z</time></trkpt><trkpt lat="41.0446017" lon="14.5587983"><ele>268.0</ele><time>2026-03-28T09:59:45.419Z</time></trkpt><trkpt lat="41.044675" lon="14.5587767"><ele>268.0</ele><time>2026-03-28T09:59:46.414Z</time></trkpt><trkpt lat="41.044745" lon="14.5587567"><ele>268.0</ele><time>2026-03-28T09:59:47.416Z</time></trkpt><trkpt lat="41.0448167" lon="14.5587383"><ele>268.0</ele><time>2026-03-28T09:59:48.416Z</time></trkpt><trkpt lat="41.044885" lon="14.5587167"><ele>268.0</ele><time>2026-03-28T09:59:49.417Z</time></trkpt><trkpt lat="41.0449533" lon="14.5587"><ele>268.0</ele><time>2026-03-28T09:59:50.415Z</time></trkpt><trkpt lat="41.0450233" lon="14.5586817"><ele>268.0</ele><time>2026-03-28T09:59:51.416Z</time></trkpt><trkpt lat="41.04509" lon="14.5586633"><ele>268.2857142857143</ele><time>2026-03-28T09:59:52.416Z</time></trkpt><trkpt lat="41.0451583" lon="14.5586533"><ele>268.57142857142856</ele><time>2026-03-28T09:59:53.417Z</time></trkpt><trkpt lat="41.0452233" lon="14.55864"><ele>268.85714285714283</ele><time>2026-03-28T09:59:54.416Z</time></trkpt><trkpt lat="41.0452883" lon="14.55862"><ele>269.1428571428571</ele><time>2026-03-28T09:59:55.415Z</time></trkpt><trkpt lat="41.04535" lon="14.5586033"><ele>269.4285714285714</ele><time>2026-03-28T09:59:56.417Z</time></trkpt><trkpt lat="41.045415" lon="14.5585917"><ele>269.7142857142857</ele><time>2026-03-28T09:59:57.416Z</time></trkpt><trkpt lat="41.0454833" lon="14.5585933"><ele>270.0</ele><time>2026-03-28T09:59:58.417Z</time></trkpt><trkpt lat="41.0455483" lon="14.5585867"><ele>270.0</ele><time>2026-03-28T09:59:59.413Z</time></trkpt><trkpt lat="41.0456133" lon="14.5585817"><ele>270.0</ele><time>2026-03-28T10:00:00.414Z</time></trkpt><trkpt lat="41.0456817" lon="14.558575"><ele>270.0</ele><time>2026-03-28T10:00:01.414Z</time></trkpt><trkpt lat="41.04575" lon="14.5585683"><ele>270.0</ele><time>2026-03-28T10:00:02.414Z</time></trkpt><trkpt lat="41.04582" lon="14.558565"><ele>270.0</ele><time>2026-03-28T10:00:03.414Z</time></trkpt><trkpt lat="41.0458867" lon="14.5585583"><ele>270.0</ele><time>2026-03-28T10:00:04.415Z</time></trkpt><trkpt lat="41.0459517" lon="14.55855"><ele>270.0</ele><time>2026-03-28T10:00:05.414Z</time></trkpt><trkpt lat="41.0460183" lon="14.55854"><ele>270.0</ele><time>2026-03-28T10:00:06.421Z</time></trkpt><trkpt lat="41.0460933" lon="14.5585383"><ele>270.0</ele><time>2026-03-28T10:00:07.425Z</time></trkpt><trkpt lat="41.0461667" lon="14.5585383"><ele>270.0</ele><time>2026-03-28T10:00:08.413Z</time></trkpt><trkpt lat="41.046245" lon="14.5585433"><ele>270.0</ele><time>2026-03-28T10:00:09.413Z</time></trkpt><trkpt lat="41.0463167" lon="14.55855"><ele>270.0</ele><time>2026-03-28T10:00:10.432Z</time></trkpt><trkpt lat="41.046455" lon="14.5585783"><ele>270.0</ele><time>2026-03-28T10:00:12.433Z</time></trkpt><trkpt lat="41.046525" lon="14.5585883"><ele>269.75</ele><time>2026-03-28T10:00:13.424Z</time></trkpt><trkpt lat="41.0467867" lon="14.5586017"><ele>269.5</ele><time>2026-03-28T10:00:16.421Z</time></trkpt><trkpt lat="41.04686" lon="14.5586067"><ele>269.25</ele><time>2026-03-28T10:00:17.433Z</time></trkpt><trkpt lat="41.0469383" lon="14.558615"><ele>269.0</ele><time>2026-03-28T10:00:18.424Z</time></trkpt><trkpt lat="41.0470167" lon="14.5586217"><ele>269.0</ele><time>2026-03-28T10:00:19.414Z</time></trkpt><trkpt lat="41.0470967" lon="14.5586267"><ele>269.0</ele><time>2026-03-28T10:00:20.413Z</time></trkpt><trkpt lat="41.0471933" lon="14.558635"><ele>269.0</ele><time>2026-03-28T10:00:21.414Z</time></trkpt><trkpt lat="41.0472867" lon="14.5586483"><ele>269.0</ele><time>2026-03-28T10:00:22.424Z</time></trkpt><trkpt lat="41.047375" lon="14.5586567"><ele>269.0</ele><time>2026-03-28T10:00:23.414Z</time></trkpt><trkpt lat="41.0474717" lon="14.5586633"><ele>268.8</ele><time>2026-03-28T10:00:24.416Z</time></trkpt><trkpt lat="41.0475617" lon="14.5586733"><ele>268.59999999999997</ele><time>2026-03-28T10:00:25.414Z</time></trkpt><trkpt lat="41.047655" lon="14.558685"><ele>268.4</ele><time>2026-03-28T10:00:26.413Z</time></trkpt><trkpt lat="41.04775" lon="14.55869"><ele>268.2</ele><time>2026-03-28T10:00:27.415Z</time></trkpt><trkpt lat="41.0478483" lon="14.5586983"><ele>268.0</ele><time>2026-03-28T10:00:28.414Z</time></trkpt><trkpt lat="41.0479467" lon="14.5587067"><ele>267.5</ele><time>2026-03-28T10:00:29.414Z</time></trkpt><trkpt lat="41.0480433" lon="14.5587167"><ele>267.0</ele><time>2026-03-28T10:00:30.415Z</time></trkpt><trkpt lat="41.0481233" lon="14.55874"><ele>266.5</ele><time>2026-03-28T10:00:31.415Z</time></trkpt><trkpt lat="41.048205" lon="14.5587633"><ele>266.0</ele><time>2026-03-28T10:00:32.418Z</time></trkpt><trkpt lat="41.0482883" lon="14.55879"><ele>265.5</ele><time>2026-03-28T10:00:33.414Z</time></trkpt><trkpt lat="41.048375" lon="14.558815"><ele>265.0</ele><time>2026-03-28T10:00:34.413Z</time></trkpt><trkpt lat="41.0484633" lon="14.5588367"><ele>265.0</ele><time>2026-03-28T10:00:35.413Z</time></trkpt><trkpt lat="41.04855" lon="14.55886"><ele>265.0</ele><time>2026-03-28T10:00:36.425Z</time></trkpt><trkpt lat="41.0486333" lon="14.5588767"><ele>265.0</ele><time>2026-03-28T10:00:37.414Z</time></trkpt><trkpt lat="41.0487233" lon="14.558895"><ele>265.0</ele><time>2026-03-28T10:00:38.419Z</time></trkpt><trkpt lat="41.0488167" lon="14.55891"><ele>265.0</ele><time>2026-03-28T10:00:39.429Z</time></trkpt><trkpt lat="41.048905" lon="14.558925"><ele>265.0</ele><time>2026-03-28T10:00:40.413Z</time></trkpt><trkpt lat="41.0489967" lon="14.5589483"><ele>265.0</ele><time>2026-03-28T10:00:41.414Z</time></trkpt><trkpt lat="41.049085" lon="14.5589633"><ele>265.0</ele><time>2026-03-28T10:00:42.415Z</time></trkpt><trkpt lat="41.0491783" lon="14.5589783"><ele>265.0</ele><time>2026-03-28T10:00:43.415Z</time></trkpt><trkpt lat="41.04927" lon="14.5589917"><ele>265.0</ele><time>2026-03-28T10:00:44.411Z</time></trkpt><trkpt lat="41.0493517" lon="14.5590067"><ele>265.0</ele><time>2026-03-28T10:00:45.415Z</time></trkpt><trkpt lat="41.049435" lon="14.5590217"><ele>265.0</ele><time>2026-03-28T10:00:46.413Z</time></trkpt><trkpt lat="41.049515" lon="14.5590283"><ele>264.85714285714283</ele><time>2026-03-28T10:00:47.425Z</time></trkpt><trkpt lat="41.0495767" lon="14.559045"><ele>264.7142857142857</ele><time>2026-03-28T10:00:48.457Z</time></trkpt><trkpt lat="41.0496533" lon="14.5590683"><ele>264.57142857142856</ele><time>2026-03-28T10:00:49.414Z</time></trkpt><trkpt lat="41.04972" lon="14.559085"><ele>264.42857142857144</ele><time>2026-03-28T10:00:50.414Z</time></trkpt><trkpt lat="41.0497967" lon="14.5591033"><ele>264.2857142857143</ele><time>2026-03-28T10:00:51.432Z</time></trkpt><trkpt lat="41.04987" lon="14.5591183"><ele>264.1428571428571</ele><time>2026-03-28T10:00:52.413Z</time></trkpt><trkpt lat="41.0499433" lon="14.55913"><ele>264.0</ele><time>2026-03-28T10:00:53.414Z</time></trkpt><trkpt lat="41.05001" lon="14.559135"><ele>264.0</ele><time>2026-03-28T10:00:54.414Z</time></trkpt><trkpt lat="41.05008" lon="14.559155"><ele>264.0</ele><time>2026-03-28T10:00:55.414Z</time></trkpt><trkpt lat="41.05016" lon="14.559175"><ele>264.0</ele><time>2026-03-28T10:00:56.412Z</time></trkpt><trkpt lat="41.0502433" lon="14.5591933"><ele>264.0</ele><time>2026-03-28T10:00:57.416Z</time></trkpt><trkpt lat="41.0503233" lon="14.5592117"><ele>264.0</ele><time>2026-03-28T10:00:58.413Z</time></trkpt><trkpt lat="41.0504117" lon="14.55923"><ele>264.0</ele><time>2026-03-28T10:00:59.413Z</time></trkpt><trkpt lat="41.050495" lon="14.5592417"><ele>264.0</ele><time>2026-03-28T10:01:00.413Z</time></trkpt><trkpt lat="41.0505817" lon="14.55926"><ele>264.0</ele><time>2026-03-28T10:01:01.413Z</time></trkpt><trkpt lat="41.0506683" lon="14.5592717"><ele>264.0</ele><time>2026-03-28T10:01:02.412Z</time></trkpt><trkpt lat="41.0507483" lon="14.559285"><ele>264.0</ele><time>2026-03-28T10:01:03.414Z</time></trkpt><trkpt lat="41.0508317" lon="14.5592983"><ele>264.0</ele><time>2026-03-28T10:01:04.413Z</time></trkpt><trkpt lat="41.0509183" lon="14.5593133"><ele>264.0</ele><time>2026-03-28T10:01:05.415Z</time></trkpt><trkpt lat="41.05101" lon="14.5593217"><ele>263.8</ele><time>2026-03-28T10:01:06.413Z</time></trkpt><trkpt lat="41.0511017" lon="14.55933"><ele>263.59999999999997</ele><time>2026-03-28T10:01:07.413Z</time></trkpt><trkpt lat="41.0511933" lon="14.5593383"><ele>263.4</ele><time>2026-03-28T10:01:08.415Z</time></trkpt><trkpt lat="41.0512867" lon="14.5593317"><ele>263.2</ele><time>2026-03-28T10:01:09.415Z</time></trkpt><trkpt lat="41.051375" lon="14.5593333"><ele>263.0</ele><time>2026-03-28T10:01:10.413Z</time></trkpt><trkpt lat="41.0514717" lon="14.5593333"><ele>263.0</ele><time>2026-03-28T10:01:11.413Z</time></trkpt><trkpt lat="41.0515617" lon="14.5593333"><ele>263.0</ele><time>2026-03-28T10:01:12.418Z</time></trkpt><trkpt lat="41.0516517" lon="14.5593283"><ele>263.0</ele><time>2026-03-28T10:01:13.416Z</time></trkpt><trkpt lat="41.0517383" lon="14.5593067"><ele>263.0</ele><time>2026-03-28T10:01:14.426Z</time></trkpt><trkpt lat="41.0518117" lon="14.5592917"><ele>263.0</ele><time>2026-03-28T10:01:15.42Z</time></trkpt><trkpt lat="41.0519033" lon="14.5592717"><ele>263.0</ele><time>2026-03-28T10:01:16.416Z</time></trkpt><trkpt lat="41.0519833" lon="14.55926"><ele>262.83333333333337</ele><time>2026-03-28T10:01:17.416Z</time></trkpt><trkpt lat="41.0520633" lon="14.559255"><ele>262.6666666666667</ele><time>2026-03-28T10:01:18.414Z</time></trkpt><trkpt lat="41.0521433" lon="14.5592483"><ele>262.5</ele><time>2026-03-28T10:01:19.415Z</time></trkpt><trkpt lat="41.0522233" lon="14.55924"><ele>262.3333333333333</ele><time>2026-03-28T10:01:20.415Z</time></trkpt><trkpt lat="41.052305" lon="14.5592333"><ele>262.16666666666663</ele><time>2026-03-28T10:01:21.414Z</time></trkpt><trkpt lat="41.0523783" lon="14.559225"><ele>262.0</ele><time>2026-03-28T10:01:22.414Z</time></trkpt><trkpt lat="41.0524483" lon="14.5592183"><ele>262.16666666666663</ele><time>2026-03-28T10:01:23.417Z</time></trkpt><trkpt lat="41.0525283" lon="14.55921"><ele>262.3333333333333</ele><time>2026-03-28T10:01:24.417Z</time></trkpt><trkpt lat="41.05261" lon="14.5592017"><ele>262.5</ele><time>2026-03-28T10:01:25.417Z</time></trkpt><trkpt lat="41.052695" lon="14.5591817"><ele>262.6666666666667</ele><time>2026-03-28T10:01:26.418Z</time></trkpt><trkpt lat="41.0527733" lon="14.5591667"><ele>262.83333333333337</ele><time>2026-03-28T10:01:27.414Z</time></trkpt><trkpt lat="41.0528533" lon="14.559155"><ele>263.0</ele><time>2026-03-28T10:01:28.414Z</time></trkpt><trkpt lat="41.05293" lon="14.559145"><ele>263.0</ele><time>2026-03-28T10:01:29.414Z</time></trkpt><trkpt lat="41.053005" lon="14.5591317"><ele>263.0</ele><time>2026-03-28T10:01:30.416Z</time></trkpt><trkpt lat="41.053075" lon="14.5591067"><ele>263.0</ele><time>2026-03-28T10:01:31.414Z</time></trkpt><trkpt lat="41.05314" lon="14.5590733"><ele>263.0</ele><time>2026-03-28T10:01:32.414Z</time></trkpt><trkpt lat="41.0532033" lon="14.5590383"><ele>263.0</ele><time>2026-03-28T10:01:33.414Z</time></trkpt><trkpt lat="41.053265" lon="14.559"><ele>263.0</ele><time>2026-03-28T10:01:34.415Z</time></trkpt><trkpt lat="41.05332" lon="14.55895"><ele>263.0</ele><time>2026-03-28T10:01:35.413Z</time></trkpt><trkpt lat="41.0533733" lon="14.5588917"><ele>263.0</ele><time>2026-03-28T10:01:36.415Z</time></trkpt><trkpt lat="41.05343" lon="14.5588267"><ele>263.0</ele><time>2026-03-28T10:01:37.416Z</time></trkpt><trkpt lat="41.0534817" lon="14.55876"><ele>263.0</ele><time>2026-03-28T10:01:38.416Z</time></trkpt><trkpt lat="41.053535" lon="14.5586933"><ele>263.0</ele><time>2026-03-28T10:01:39.414Z</time></trkpt><trkpt lat="41.0535833" lon="14.5586267"><ele>263.0</ele><time>2026-03-28T10:01:40.417Z</time></trkpt><trkpt lat="41.053635" lon="14.5585533"><ele>263.0</ele><time>2026-03-28T10:01:41.417Z</time></trkpt><trkpt lat="41.0536867" lon="14.5584867"><ele>263.0</ele><time>2026-03-28T10:01:42.418Z</time></trkpt><trkpt lat="41.0537383" lon="14.55842"><ele>263.0</ele><time>2026-03-28T10:01:43.417Z</time></trkpt><trkpt lat="41.0537933" lon="14.5583517"><ele>263.0</ele><time>2026-03-28T10:01:44.418Z</time></trkpt><trkpt lat="41.0538467" lon="14.5582833"><ele>263.0</ele><time>2026-03-28T10:01:45.414Z</time></trkpt><trkpt lat="41.0539" lon="14.5582167"><ele>263.0</ele><time>2026-03-28T10:01:46.414Z</time></trkpt><trkpt lat="41.053955" lon="14.55815"><ele>263.0</ele><time>2026-03-28T10:01:47.418Z</time></trkpt><trkpt lat="41.0540117" lon="14.5580867"><ele>263.0</ele><time>2026-03-28T10:01:48.414Z</time></trkpt><trkpt lat="41.0540667" lon="14.55803"><ele>263.0</ele><time>2026-03-28T10:01:49.418Z</time></trkpt><trkpt lat="41.0541217" lon="14.557975"><ele>263.0</ele><time>2026-03-28T10:01:50.416Z</time></trkpt><trkpt lat="41.054175" lon="14.5579217"><ele>263.0</ele><time>2026-03-28T10:01:51.418Z</time></trkpt><trkpt lat="41.0542333" lon="14.5578717"><ele>263.0</ele><time>2026-03-28T10:01:52.416Z</time></trkpt><trkpt lat="41.05434" lon="14.557795"><ele>263.0</ele><time>2026-03-28T10:01:54.417Z</time></trkpt><trkpt lat="41.054405" lon="14.5577567"><ele>263.0</ele><time>2026-03-28T10:01:55.418Z</time></trkpt><trkpt lat="41.0544717" lon="14.5577233"><ele>263.0</ele><time>2026-03-28T10:01:56.415Z</time></trkpt><trkpt lat="41.0545417" lon="14.5576917"><ele>263.2857142857143</ele><time>2026-03-28T10:01:57.412Z</time></trkpt><trkpt lat="41.0546167" lon="14.5576583"><ele>263.57142857142856</ele><time>2026-03-28T10:01:58.416Z</time></trkpt><trkpt lat="41.0546933" lon="14.5576317"><ele>263.85714285714283</ele><time>2026-03-28T10:01:59.414Z</time></trkpt><trkpt lat="41.054765" lon="14.5576067"><ele>264.1428571428571</ele><time>2026-03-28T10:02:00.416Z</time></trkpt><trkpt lat="41.054835" lon="14.557585"><ele>264.42857142857144</ele><time>2026-03-28T10:02:01.414Z</time></trkpt><trkpt lat="41.054905" lon="14.557565"><ele>264.71428571428567</ele><time>2026-03-28T10:02:02.418Z</time></trkpt><trkpt lat="41.054975" lon="14.55754"><ele>265.0</ele><time>2026-03-28T10:02:03.414Z</time></trkpt><trkpt lat="41.0550483" lon="14.557515"><ele>265.0</ele><time>2026-03-28T10:02:04.414Z</time></trkpt><trkpt lat="41.0551233" lon="14.5574933"><ele>265.0</ele><time>2026-03-28T10:02:05.414Z</time></trkpt><trkpt lat="41.0551983" lon="14.5574683"><ele>265.0</ele><time>2026-03-28T10:02:06.414Z</time></trkpt><trkpt lat="41.055275" lon="14.557445"><ele>265.0</ele><time>2026-03-28T10:02:07.415Z</time></trkpt><trkpt lat="41.0553483" lon="14.55742"><ele>265.0</ele><time>2026-03-28T10:02:08.414Z</time></trkpt><trkpt lat="41.05542" lon="14.5573967"><ele>265.0</ele><time>2026-03-28T10:02:09.414Z</time></trkpt><trkpt lat="41.0554917" lon="14.5573733"><ele>265.0</ele><time>2026-03-28T10:02:10.417Z</time></trkpt><trkpt lat="41.0555633" lon="14.5573583"><ele>265.0</ele><time>2026-03-28T10:02:11.416Z</time></trkpt><trkpt lat="41.0556383" lon="14.5573467"><ele>265.0</ele><time>2026-03-28T10:02:12.416Z</time></trkpt><trkpt lat="41.055715" lon="14.5573367"><ele>265.0</ele><time>2026-03-28T10:02:13.415Z</time></trkpt><trkpt lat="41.0557917" lon="14.5573267"><ele>265.0</ele><time>2026-03-28T10:02:14.413Z</time></trkpt><trkpt lat="41.0558667" lon="14.5573167"><ele>265.0</ele><time>2026-03-28T10:02:15.412Z</time></trkpt><trkpt lat="41.0559433" lon="14.5573067"><ele>264.85714285714283</ele><time>2026-03-28T10:02:16.416Z</time></trkpt><trkpt lat="41.0560183" lon="14.557305"><ele>264.7142857142857</ele><time>2026-03-28T10:02:17.417Z</time></trkpt><trkpt lat="41.0560967" lon="14.557305"><ele>264.57142857142856</ele><time>2026-03-28T10:02:18.417Z</time></trkpt><trkpt lat="41.0561717" lon="14.5573"><ele>264.42857142857144</ele><time>2026-03-28T10:02:19.414Z</time></trkpt><trkpt lat="41.0562417" lon="14.5572933"><ele>264.2857142857143</ele><time>2026-03-28T10:02:20.416Z</time></trkpt><trkpt lat="41.0563117" lon="14.5572833"><ele>264.1428571428571</ele><time>2026-03-28T10:02:21.416Z</time></trkpt><trkpt lat="41.0563783" lon="14.5572733"><ele>264.0</ele><time>2026-03-28T10:02:22.416Z</time></trkpt><trkpt lat="41.056445" lon="14.5572683"><ele>264.0</ele><time>2026-03-28T10:02:23.416Z</time></trkpt><trkpt lat="41.056515" lon="14.5572617"><ele>264.0</ele><time>2026-03-28T10:02:24.414Z</time></trkpt><trkpt lat="41.0565883" lon="14.5572567"><ele>264.0</ele><time>2026-03-28T10:02:25.416Z</time></trkpt><trkpt lat="41.05666" lon="14.55725"><ele>264.0</ele><time>2026-03-28T10:02:26.415Z</time></trkpt><trkpt lat="41.056735" lon="14.5572483"><ele>264.0</ele><time>2026-03-28T10:02:27.413Z</time></trkpt><trkpt lat="41.0568067" lon="14.5572483"><ele>264.0</ele><time>2026-03-28T10:02:28.414Z</time></trkpt><trkpt lat="41.056875" lon="14.5572483"><ele>264.0</ele><time>2026-03-28T10:02:29.415Z</time></trkpt><trkpt lat="41.0569417" lon="14.5572483"><ele>264.2857142857143</ele><time>2026-03-28T10:02:30.416Z</time></trkpt><trkpt lat="41.0570067" lon="14.557245"><ele>264.57142857142856</ele><time>2026-03-28T10:02:31.415Z</time></trkpt><trkpt lat="41.0570717" lon="14.5572433"><ele>264.8571428571429</ele><time>2026-03-28T10:02:32.414Z</time></trkpt><trkpt lat="41.0571433" lon="14.55724"><ele>265.1428571428571</ele><time>2026-03-28T10:02:33.413Z</time></trkpt><trkpt lat="41.0572083" lon="14.557235"><ele>265.42857142857144</ele><time>2026-03-28T10:02:34.415Z</time></trkpt><trkpt lat="41.05728" lon="14.5572233"><ele>265.7142857142857</ele><time>2026-03-28T10:02:35.415Z</time></trkpt><trkpt lat="41.0573567" lon="14.55722"><ele>266.0</ele><time>2026-03-28T10:02:36.414Z</time></trkpt><trkpt lat="41.0574333" lon="14.5572033"><ele>265.83333333333337</ele><time>2026-03-28T10:02:37.416Z</time></trkpt><trkpt lat="41.0575083" lon="14.55718"><ele>265.6666666666667</ele><time>2026-03-28T10:02:38.414Z</time></trkpt><trkpt lat="41.05758" lon="14.557155"><ele>265.5</ele><time>2026-03-28T10:02:39.415Z</time></trkpt><trkpt lat="41.0576517" lon="14.5571433"><ele>265.3333333333333</ele><time>2026-03-28T10:02:40.415Z</time></trkpt><trkpt lat="41.0577233" lon="14.5571417"><ele>265.16666666666663</ele><time>2026-03-28T10:02:41.415Z</time></trkpt><trkpt lat="41.0577917" lon="14.5571367"><ele>265.0</ele><time>2026-03-28T10:02:42.415Z</time></trkpt><trkpt lat="41.057915" lon="14.55712"><ele>265.0</ele><time>2026-03-28T10:02:44.415Z</time></trkpt><trkpt lat="41.0580217" lon="14.5570817"><ele>265.0</ele><time>2026-03-28T10:02:46.415Z</time></trkpt><trkpt lat="41.0581383" lon="14.55702"><ele>265.0</ele><time>2026-03-28T10:02:48.416Z</time></trkpt><trkpt lat="41.0581967" lon="14.5569733"><ele>265.0</ele><time>2026-03-28T10:02:49.418Z</time></trkpt><trkpt lat="41.058255" lon="14.5569317"><ele>265.0</ele><time>2026-03-28T10:02:50.417Z</time></trkpt><trkpt lat="41.0583133" lon="14.55689"><ele>265.0</ele><time>2026-03-28T10:02:51.414Z</time></trkpt><trkpt lat="41.0583717" lon="14.5568533"><ele>265.4285714285714</ele><time>2026-03-28T10:02:52.414Z</time></trkpt><trkpt lat="41.0584367" lon="14.5568167"><ele>265.85714285714283</ele><time>2026-03-28T10:02:53.418Z</time></trkpt><trkpt lat="41.0585033" lon="14.55678"><ele>266.2857142857143</ele><time>2026-03-28T10:02:54.414Z</time></trkpt><trkpt lat="41.0585717" lon="14.55674"><ele>266.71428571428567</ele><time>2026-03-28T10:02:55.418Z</time></trkpt><trkpt lat="41.0586417" lon="14.5567017"><ele>267.1428571428571</ele><time>2026-03-28T10:02:56.418Z</time></trkpt><trkpt lat="41.0587117" lon="14.5566633"><ele>267.57142857142856</ele><time>2026-03-28T10:02:57.414Z</time></trkpt><trkpt lat="41.0587767" lon="14.5566233"><ele>268.0</ele><time>2026-03-28T10:02:58.414Z</time></trkpt><trkpt lat="41.05885" lon="14.5565883"><ele>268.0</ele><time>2026-03-28T10:02:59.414Z</time></trkpt><trkpt lat="41.0589233" lon="14.5565583"><ele>268.0</ele><time>2026-03-28T10:03:00.414Z</time></trkpt><trkpt lat="41.0589883" lon="14.556515"><ele>268.0</ele><time>2026-03-28T10:03:01.414Z</time></trkpt><trkpt lat="41.0590533" lon="14.5564683"><ele>268.0</ele><time>2026-03-28T10:03:02.415Z</time></trkpt><trkpt lat="41.059115" lon="14.556415"><ele>268.0</ele><time>2026-03-28T10:03:03.414Z</time></trkpt><trkpt lat="41.05918" lon="14.55637"><ele>268.0</ele><time>2026-03-28T10:03:04.416Z</time></trkpt><trkpt lat="41.0592367" lon="14.5563333"><ele>268.0</ele><time>2026-03-28T10:03:05.418Z</time></trkpt><trkpt lat="41.0592967" lon="14.556295"><ele>268.0</ele><time>2026-03-28T10:03:07.413Z</time></trkpt><trkpt lat="41.0593633" lon="14.5562467"><ele>268.0</ele><time>2026-03-28T10:03:10.415Z</time></trkpt><trkpt lat="41.0594483" lon="14.5562033"><ele>268.0</ele><time>2026-03-28T10:03:13.415Z</time></trkpt><trkpt lat="41.059515" lon="14.5561617"><ele>268.0</ele><time>2026-03-28T10:03:15.417Z</time></trkpt><trkpt lat="41.0595867" lon="14.5561167"><ele>268.0</ele><time>2026-03-28T10:03:17.414Z</time></trkpt><trkpt lat="41.0596583" lon="14.5560617"><ele>268.0</ele><time>2026-03-28T10:03:19.415Z</time></trkpt><trkpt lat="41.059735" lon="14.5560167"><ele>268.0</ele><time>2026-03-28T10:03:21.414Z</time></trkpt><trkpt lat="41.059835" lon="14.5559667"><ele>268.0</ele><time>2026-03-28T10:03:23.414Z</time></trkpt><trkpt lat="41.059935" lon="14.5559"><ele>268.0</ele><time>2026-03-28T10:03:25.415Z</time></trkpt><trkpt lat="41.060025" lon="14.55584"><ele>268.0</ele><time>2026-03-28T10:03:27.414Z</time></trkpt><trkpt lat="41.060115" lon="14.5558033"><ele>268.0</ele><time>2026-03-28T10:03:29.416Z</time></trkpt><trkpt lat="41.0602067" lon="14.555765"><ele>268.2</ele><time>2026-03-28T10:03:31.417Z</time></trkpt><trkpt lat="41.06031" lon="14.5557233"><ele>268.4</ele><time>2026-03-28T10:03:33.414Z</time></trkpt><trkpt lat="41.0604117" lon="14.5556833"><ele>268.59999999999997</ele><time>2026-03-28T10:03:35.414Z</time></trkpt><trkpt lat="41.0605067" lon="14.5556433"><ele>268.8</ele><time>2026-03-28T10:03:37.415Z</time></trkpt><trkpt lat="41.060605" lon="14.5556"><ele>269.0</ele><time>2026-03-28T10:03:39.417Z</time></trkpt><trkpt lat="41.0607117" lon="14.55556"><ele>268.83333333333337</ele><time>2026-03-28T10:03:41.414Z</time></trkpt><trkpt lat="41.0608017" lon="14.5555217"><ele>268.6666666666667</ele><time>2026-03-28T10:03:43.418Z</time></trkpt><trkpt lat="41.0608767" lon="14.5554933"><ele>268.5</ele><time>2026-03-28T10:03:45.414Z</time></trkpt><trkpt lat="41.0609567" lon="14.5555667"><ele>268.3333333333333</ele><time>2026-03-28T10:03:47.416Z</time></trkpt><trkpt lat="41.0610017" lon="14.5556367"><ele>268.16666666666663</ele><time>2026-03-28T10:03:48.414Z</time></trkpt><trkpt lat="41.061035" lon="14.5557133"><ele>268.0</ele><time>2026-03-28T10:03:49.416Z</time></trkpt><trkpt lat="41.06106" lon="14.5557933"><ele>268.0</ele><time>2026-03-28T10:03:50.414Z</time></trkpt><trkpt lat="41.0611217" lon="14.5559217"><ele>268.0</ele><time>2026-03-28T10:03:52.414Z</time></trkpt><trkpt lat="41.0611883" lon="14.5560333"><ele>268.0</ele><time>2026-03-28T10:03:54.416Z</time></trkpt><trkpt lat="41.0612433" lon="14.5561433"><ele>268.0</ele><time>2026-03-28T10:03:56.416Z</time></trkpt><trkpt lat="41.0612783" lon="14.5562633"><ele>268.0</ele><time>2026-03-28T10:03:58.414Z</time></trkpt><trkpt lat="41.0613017" lon="14.5563867"><ele>267.6</ele><time>2026-03-28T10:04:00.415Z</time></trkpt><trkpt lat="41.0613283" lon="14.5564983"><ele>267.20000000000005</ele><time>2026-03-28T10:04:02.416Z</time></trkpt><trkpt lat="41.0613567" lon="14.5566083"><ele>266.8</ele><time>2026-03-28T10:04:04.416Z</time></trkpt><trkpt lat="41.061385" lon="14.5567283"><ele>266.40000000000003</ele><time>2026-03-28T10:04:06.415Z</time></trkpt><trkpt lat="41.06142" lon="14.556845"><ele>266.0</ele><time>2026-03-28T10:04:08.415Z</time></trkpt><trkpt lat="41.0614533" lon="14.55696"><ele>266.0</ele><time>2026-03-28T10:04:10.418Z</time></trkpt><trkpt lat="41.06148" lon="14.55708"><ele>266.0</ele><time>2026-03-28T10:04:12.414Z</time></trkpt><trkpt lat="41.0615133" lon="14.5571883"><ele>266.0</ele><time>2026-03-28T10:04:14.414Z</time></trkpt><trkpt lat="41.0615483" lon="14.5572867"><ele>266.0</ele><time>2026-03-28T10:04:16.417Z</time></trkpt><trkpt lat="41.0615933" lon="14.5574067"><ele>266.0</ele><time>2026-03-28T10:04:18.414Z</time></trkpt><trkpt lat="41.0616333" lon="14.5575283"><ele>266.0</ele><time>2026-03-28T10:04:20.414Z</time></trkpt><trkpt lat="41.0616667" lon="14.55764"><ele>266.0</ele><time>2026-03-28T10:04:22.416Z</time></trkpt><trkpt lat="41.0617" lon="14.5577483"><ele>266.0</ele><time>2026-03-28T10:04:24.414Z</time></trkpt><trkpt lat="41.0617283" lon="14.5578517"><ele>266.0</ele><time>2026-03-28T10:04:26.414Z</time></trkpt><trkpt lat="41.0617583" lon="14.5579533"><ele>266.0</ele><time>2026-03-28T10:04:28.416Z</time></trkpt><trkpt lat="41.0617867" lon="14.55805"><ele>266.0</ele><time>2026-03-28T10:04:30.416Z</time></trkpt><trkpt lat="41.0618183" lon="14.5581483"><ele>265.6666666666667</ele><time>2026-03-28T10:04:32.415Z</time></trkpt><trkpt lat="41.0618467" lon="14.5582567"><ele>265.33333333333337</ele><time>2026-03-28T10:04:34.415Z</time></trkpt><trkpt lat="41.061875" lon="14.55837"><ele>265.0</ele><time>2026-03-28T10:04:36.416Z</time></trkpt><trkpt lat="41.0619067" lon="14.5584767"><ele>264.6666666666667</ele><time>2026-03-28T10:04:38.417Z</time></trkpt><trkpt lat="41.0619383" lon="14.558575"><ele>264.3333333333333</ele><time>2026-03-28T10:04:40.416Z</time></trkpt><trkpt lat="41.0619683" lon="14.5586733"><ele>264.0</ele><time>2026-03-28T10:04:42.418Z</time></trkpt><trkpt lat="41.0620033" lon="14.5587633"><ele>263.8333333333333</ele><time>2026-03-28T10:04:44.418Z</time></trkpt><trkpt lat="41.0620367" lon="14.55887"><ele>263.6666666666667</ele><time>2026-03-28T10:04:46.415Z</time></trkpt><trkpt lat="41.0620667" lon="14.5589767"><ele>263.5</ele><time>2026-03-28T10:04:48.415Z</time></trkpt><trkpt lat="41.0621017" lon="14.5590783"><ele>263.33333333333337</ele><time>2026-03-28T10:04:50.414Z</time></trkpt><trkpt lat="41.0621517" lon="14.55915"><ele>263.1666666666667</ele><time>2026-03-28T10:04:52.415Z</time></trkpt><trkpt lat="41.0622133" lon="14.55918"><ele>263.0</ele><time>2026-03-28T10:04:54.415Z</time></trkpt><trkpt lat="41.0623067" lon="14.559125"><ele>263.0</ele><time>2026-03-28T10:04:56.416Z</time></trkpt><trkpt lat="41.0623617" lon="14.5590817"><ele>263.0</ele><time>2026-03-28T10:04:57.417Z</time></trkpt><trkpt lat="41.0624283" lon="14.5590267"><ele>263.0</ele><time>2026-03-28T10:04:58.416Z</time></trkpt><trkpt lat="41.062495" lon="14.558975"><ele>263.0</ele><time>2026-03-28T10:04:59.416Z</time></trkpt><trkpt lat="41.062565" lon="14.558925"><ele>263.0</ele><time>2026-03-28T10:05:00.417Z</time></trkpt><trkpt lat="41.0626417" lon="14.558875"><ele>263.0</ele><time>2026-03-28T10:05:01.418Z</time></trkpt><trkpt lat="41.0627233" lon="14.5588217"><ele>263.33333333333337</ele><time>2026-03-28T10:05:02.415Z</time></trkpt><trkpt lat="41.0627967" lon="14.558775"><ele>263.6666666666667</ele><time>2026-03-28T10:05:03.414Z</time></trkpt><trkpt lat="41.0628733" lon="14.558735"><ele>264.0</ele><time>2026-03-28T10:05:04.418Z</time></trkpt><trkpt lat="41.062975" lon="14.5586617"><ele>264.3333333333333</ele><time>2026-03-28T10:05:06.417Z</time></trkpt><trkpt lat="41.06306" lon="14.5586033"><ele>264.66666666666663</ele><time>2026-03-28T10:05:08.415Z</time></trkpt><trkpt lat="41.0631217" lon="14.55856"><ele>265.0</ele><time>2026-03-28T10:05:10.418Z</time></trkpt><trkpt lat="41.0631833" lon="14.5585183"><ele>265.0</ele><time>2026-03-28T10:05:13.419Z</time></trkpt><trkpt lat="41.0632417" lon="14.5584783"><ele>265.0</ele><time>2026-03-28T10:05:15.418Z</time></trkpt><trkpt lat="41.0633117" lon="14.5584267"><ele>265.0</ele><time>2026-03-28T10:05:17.415Z</time></trkpt><trkpt lat="41.0633917" lon="14.5583633"><ele>265.0</ele><time>2026-03-28T10:05:19.416Z</time></trkpt><trkpt lat="41.06349" lon="14.5582983"><ele>265.0</ele><time>2026-03-28T10:05:21.417Z</time></trkpt><trkpt lat="41.0635983" lon="14.55823"><ele>264.99999999999994</ele><time>2026-03-28T10:05:23.417Z</time></trkpt><trkpt lat="41.063655" lon="14.55819"><ele>265.0</ele><time>2026-03-28T10:05:24.416Z</time></trkpt><trkpt lat="41.0637133" lon="14.5581483"><ele>265.0</ele><time>2026-03-28T10:05:25.418Z</time></trkpt><trkpt lat="41.0637717" lon="14.5581067"><ele>265.0</ele><time>2026-03-28T10:05:26.418Z</time></trkpt><trkpt lat="41.0638333" lon="14.558065"><ele>265.0</ele><time>2026-03-28T10:05:27.417Z</time></trkpt><trkpt lat="41.0639017" lon="14.558035"><ele>264.99999999999994</ele><time>2026-03-28T10:05:28.415Z</time></trkpt><trkpt lat="41.0639733" lon="14.5580083"><ele>265.0</ele><time>2026-03-28T10:05:29.418Z</time></trkpt><trkpt lat="41.0640467" lon="14.55798"><ele>265.1428571428571</ele><time>2026-03-28T10:05:30.417Z</time></trkpt><trkpt lat="41.06412" lon="14.5579533"><ele>265.2857142857143</ele><time>2026-03-28T10:05:31.419Z</time></trkpt><trkpt lat="41.0641883" lon="14.557945"><ele>265.42857142857144</ele><time>2026-03-28T10:05:32.415Z</time></trkpt><trkpt lat="41.064255" lon="14.55796"><ele>265.57142857142856</ele><time>2026-03-28T10:05:33.415Z</time></trkpt><trkpt lat="41.064325" lon="14.5579933"><ele>265.7142857142857</ele><time>2026-03-28T10:05:34.415Z</time></trkpt><trkpt lat="41.064395" lon="14.5580233"><ele>265.85714285714283</ele><time>2026-03-28T10:05:35.415Z</time></trkpt><trkpt lat="41.0644667" lon="14.55805"><ele>266.0</ele><time>2026-03-28T10:05:36.419Z</time></trkpt><trkpt lat="41.0645317" lon="14.5580717"><ele>266.0</ele><time>2026-03-28T10:05:37.417Z</time></trkpt><trkpt lat="41.0645983" lon="14.558105"><ele>266.0</ele><time>2026-03-28T10:05:38.419Z</time></trkpt><trkpt lat="41.064665" lon="14.5581367"><ele>266.0</ele><time>2026-03-28T10:05:39.418Z</time></trkpt><trkpt lat="41.0647367" lon="14.558165"><ele>266.0</ele><time>2026-03-28T10:05:40.418Z</time></trkpt><trkpt lat="41.0648117" lon="14.558175"><ele>266.0</ele><time>2026-03-28T10:05:41.415Z</time></trkpt><trkpt lat="41.0648833" lon="14.55817"><ele>266.0</ele><time>2026-03-28T10:05:42.414Z</time></trkpt><trkpt lat="41.0649533" lon="14.558155"><ele>266.0</ele><time>2026-03-28T10:05:43.419Z</time></trkpt><trkpt lat="41.065015" lon="14.5581317"><ele>266.40000000000003</ele><time>2026-03-28T10:05:44.415Z</time></trkpt><trkpt lat="41.0651267" lon="14.55806"><ele>266.8</ele><time>2026-03-28T10:05:46.416Z</time></trkpt><trkpt lat="41.0652317" lon="14.5579917"><ele>267.20000000000005</ele><time>2026-03-28T10:05:48.415Z</time></trkpt><trkpt lat="41.065345" lon="14.5579717"><ele>267.6</ele><time>2026-03-28T10:05:50.414Z</time></trkpt><trkpt lat="41.06541" lon="14.557955"><ele>268.0</ele><time>2026-03-28T10:05:51.415Z</time></trkpt><trkpt lat="41.0654733" lon="14.55793"><ele>268.0</ele><time>2026-03-28T10:05:52.415Z</time></trkpt><trkpt lat="41.0655383" lon="14.5579083"><ele>268.0</ele><time>2026-03-28T10:05:53.416Z</time></trkpt><trkpt lat="41.0655983" lon="14.55788"><ele>268.0</ele><time>2026-03-28T10:05:54.417Z</time></trkpt><trkpt lat="41.06571" lon="14.5578233"><ele>268.0</ele><time>2026-03-28T10:05:56.419Z</time></trkpt><trkpt lat="41.0658083" lon="14.557785"><ele>268.0</ele><time>2026-03-28T10:05:58.419Z</time></trkpt><trkpt lat="41.0659" lon="14.5577367"><ele>268.0</ele><time>2026-03-28T10:06:00.418Z</time></trkpt><trkpt lat="41.0659883" lon="14.557675"><ele>268.0</ele><time>2026-03-28T10:06:02.415Z</time></trkpt><trkpt lat="41.0660883" lon="14.5576033"><ele>268.0</ele><time>2026-03-28T10:06:04.416Z</time></trkpt><trkpt lat="41.06619" lon="14.5575117"><ele>268.0</ele><time>2026-03-28T10:06:06.418Z</time></trkpt><trkpt lat="41.0662383" lon="14.5574533"><ele>268.0</ele><time>2026-03-28T10:06:07.416Z</time></trkpt><trkpt lat="41.066285" lon="14.5573967"><ele>268.0</ele><time>2026-03-28T10:06:08.418Z</time></trkpt><trkpt lat="41.0663383" lon="14.5573417"><ele>268.0</ele><time>2026-03-28T10:06:09.415Z</time></trkpt><trkpt lat="41.0663967" lon="14.5572933"><ele>268.0</ele><time>2026-03-28T10:06:10.415Z</time></trkpt><trkpt lat="41.0664517" lon="14.5572383"><ele>268.0</ele><time>2026-03-28T10:06:11.417Z</time></trkpt><trkpt lat="41.0665067" lon="14.5571867"><ele>268.0</ele><time>2026-03-28T10:06:12.418Z</time></trkpt><trkpt lat="41.0665633" lon="14.5571317"><ele>268.0</ele><time>2026-03-28T10:06:13.419Z</time></trkpt><trkpt lat="41.06662" lon="14.5570767"><ele>268.0</ele><time>2026-03-28T10:06:14.418Z</time></trkpt><trkpt lat="41.0666767" lon="14.5570233"><ele>267.57142857142856</ele><time>2026-03-28T10:06:15.417Z</time></trkpt><trkpt lat="41.066735" lon="14.5569717"><ele>267.1428571428571</ele><time>2026-03-28T10:06:16.418Z</time></trkpt><trkpt lat="41.0667933" lon="14.556925"><ele>266.71428571428567</ele><time>2026-03-28T10:06:17.417Z</time></trkpt><trkpt lat="41.0668467" lon="14.556875"><ele>266.2857142857143</ele><time>2026-03-28T10:06:18.419Z</time></trkpt><trkpt lat="41.0669067" lon="14.556825"><ele>265.85714285714283</ele><time>2026-03-28T10:06:19.417Z</time></trkpt><trkpt lat="41.06697" lon="14.55678"><ele>265.4285714285714</ele><time>2026-03-28T10:06:20.418Z</time></trkpt><trkpt lat="41.0670367" lon="14.55673"><ele>265.0</ele><time>2026-03-28T10:06:21.417Z</time></trkpt><trkpt lat="41.067105" lon="14.5566767"><ele>264.99999999999994</ele><time>2026-03-28T10:06:22.419Z</time></trkpt><trkpt lat="41.0671633" lon="14.5566283"><ele>265.0</ele><time>2026-03-28T10:06:23.419Z</time></trkpt><trkpt lat="41.0672283" lon="14.556575"><ele>265.0</ele><time>2026-03-28T10:06:24.416Z</time></trkpt><trkpt lat="41.0672933" lon="14.556525"><ele>265.0</ele><time>2026-03-28T10:06:25.419Z</time></trkpt><trkpt lat="41.06736" lon="14.5564733"><ele>265.0</ele><time>2026-03-28T10:06:26.416Z</time></trkpt><trkpt lat="41.0674183" lon="14.5564233"><ele>264.99999999999994</ele><time>2026-03-28T10:06:27.417Z</time></trkpt><trkpt lat="41.0674783" lon="14.5563817"><ele>265.0</ele><time>2026-03-28T10:06:28.418Z</time></trkpt><trkpt lat="41.067545" lon="14.5563333"><ele>264.66666666666663</ele><time>2026-03-28T10:06:29.418Z</time></trkpt><trkpt lat="41.0676033" lon="14.55629"><ele>264.3333333333333</ele><time>2026-03-28T10:06:30.415Z</time></trkpt><trkpt lat="41.06766" lon="14.556245"><ele>264.0</ele><time>2026-03-28T10:06:31.419Z</time></trkpt><trkpt lat="41.067715" lon="14.5562017"><ele>263.6666666666667</ele><time>2026-03-28T10:06:32.418Z</time></trkpt><trkpt lat="41.0678217" lon="14.5561117"><ele>263.33333333333337</ele><time>2026-03-28T10:06:34.415Z</time></trkpt><trkpt lat="41.0678833" lon="14.5560633"><ele>263.0</ele><time>2026-03-28T10:06:35.416Z</time></trkpt><trkpt lat="41.06794" lon="14.5560167"><ele>263.0</ele><time>2026-03-28T10:06:36.415Z</time></trkpt><trkpt lat="41.067995" lon="14.555965"><ele>263.0</ele><time>2026-03-28T10:06:37.417Z</time></trkpt><trkpt lat="41.068055" lon="14.5559117"><ele>263.0</ele><time>2026-03-28T10:06:38.418Z</time></trkpt><trkpt lat="41.06813" lon="14.5558467"><ele>263.0</ele><time>2026-03-28T10:06:39.415Z</time></trkpt><trkpt lat="41.0682017" lon="14.5557867"><ele>263.0</ele><time>2026-03-28T10:06:40.417Z</time></trkpt><trkpt lat="41.06826" lon="14.5557233"><ele>263.0</ele><time>2026-03-28T10:06:41.418Z</time></trkpt><trkpt lat="41.068325" lon="14.555655"><ele>262.85714285714283</ele><time>2026-03-28T10:06:42.416Z</time></trkpt><trkpt lat="41.06838" lon="14.5555867"><ele>262.71428571428567</ele><time>2026-03-28T10:06:43.418Z</time></trkpt><trkpt lat="41.06843" lon="14.555525"><ele>262.57142857142856</ele><time>2026-03-28T10:06:44.418Z</time></trkpt><trkpt lat="41.068475" lon="14.5554633"><ele>262.42857142857144</ele><time>2026-03-28T10:06:45.418Z</time></trkpt><trkpt lat="41.06852" lon="14.5553983"><ele>262.28571428571433</ele><time>2026-03-28T10:06:46.415Z</time></trkpt><trkpt lat="41.0685633" lon="14.5553283"><ele>262.14285714285717</ele><time>2026-03-28T10:06:47.416Z</time></trkpt><trkpt lat="41.0686133" lon="14.5552583"><ele>262.0</ele><time>2026-03-28T10:06:48.418Z</time></trkpt><trkpt lat="41.068665" lon="14.5551883"><ele>262.0</ele><time>2026-03-28T10:06:49.416Z</time></trkpt><trkpt lat="41.0687183" lon="14.5551133"><ele>262.0</ele><time>2026-03-28T10:06:50.415Z</time></trkpt><trkpt lat="41.0687817" lon="14.55503"><ele>262.0</ele><time>2026-03-28T10:06:51.418Z</time></trkpt><trkpt lat="41.06884" lon="14.554955"><ele>262.0</ele><time>2026-03-28T10:06:52.419Z</time></trkpt><trkpt lat="41.068895" lon="14.5548817"><ele>262.0</ele><time>2026-03-28T10:06:53.419Z</time></trkpt><trkpt lat="41.0689583" lon="14.5548033"><ele>262.0</ele><time>2026-03-28T10:06:54.415Z</time></trkpt><trkpt lat="41.069015" lon="14.554725"><ele>262.0</ele><time>2026-03-28T10:06:55.417Z</time></trkpt><trkpt lat="41.069075" lon="14.5546467"><ele>262.0</ele><time>2026-03-28T10:06:56.415Z</time></trkpt><trkpt lat="41.069135" lon="14.5545717"><ele>262.0</ele><time>2026-03-28T10:06:57.417Z</time></trkpt><trkpt lat="41.069195" lon="14.5545017"><ele>262.0</ele><time>2026-03-28T10:06:58.419Z</time></trkpt><trkpt lat="41.06926" lon="14.5544267"><ele>262.0</ele><time>2026-03-28T10:06:59.418Z</time></trkpt><trkpt lat="41.0693217" lon="14.55435"><ele>262.0</ele><time>2026-03-28T10:07:00.418Z</time></trkpt><trkpt lat="41.0693817" lon="14.5542733"><ele>262.0</ele><time>2026-03-28T10:07:01.419Z</time></trkpt><trkpt lat="41.0694383" lon="14.5541983"><ele>262.0</ele><time>2026-03-28T10:07:02.416Z</time></trkpt><trkpt lat="41.0694933" lon="14.55412"><ele>262.0</ele><time>2026-03-28T10:07:03.415Z</time></trkpt><trkpt lat="41.069545" lon="14.5540467"><ele>262.0</ele><time>2026-03-28T10:07:04.419Z</time></trkpt><trkpt lat="41.069595" lon="14.5539783"><ele>262.0</ele><time>2026-03-28T10:07:05.417Z</time></trkpt><trkpt lat="41.0696483" lon="14.5539133"><ele>262.0</ele><time>2026-03-28T10:07:06.419Z</time></trkpt><trkpt lat="41.0697067" lon="14.553845"><ele>262.0</ele><time>2026-03-28T10:07:07.415Z</time></trkpt><trkpt lat="41.069765" lon="14.5537717"><ele>262.0</ele><time>2026-03-28T10:07:08.415Z</time></trkpt><trkpt lat="41.0698217" lon="14.5536983"><ele>262.0</ele><time>2026-03-28T10:07:09.419Z</time></trkpt><trkpt lat="41.06987" lon="14.5536333"><ele>262.0</ele><time>2026-03-28T10:07:10.418Z</time></trkpt><trkpt lat="41.0699217" lon="14.553565"><ele>262.0</ele><time>2026-03-28T10:07:11.418Z</time></trkpt><trkpt lat="41.069975" lon="14.5534933"><ele>262.0</ele><time>2026-03-28T10:07:12.417Z</time></trkpt><trkpt lat="41.0700367" lon="14.5534183"><ele>262.16666666666663</ele><time>2026-03-28T10:07:13.415Z</time></trkpt><trkpt lat="41.0700967" lon="14.553345"><ele>262.3333333333333</ele><time>2026-03-28T10:07:14.419Z</time></trkpt><trkpt lat="41.070165" lon="14.5532617"><ele>262.5</ele><time>2026-03-28T10:07:15.418Z</time></trkpt><trkpt lat="41.0702283" lon="14.5531833"><ele>262.6666666666667</ele><time>2026-03-28T10:07:16.417Z</time></trkpt><trkpt lat="41.07029" lon="14.5531067"><ele>262.83333333333337</ele><time>2026-03-28T10:07:17.417Z</time></trkpt><trkpt lat="41.0703433" lon="14.553035"><ele>263.0</ele><time>2026-03-28T10:07:18.419Z</time></trkpt><trkpt lat="41.070395" lon="14.5529583"><ele>263.0</ele><time>2026-03-28T10:07:19.418Z</time></trkpt><trkpt lat="41.0704467" lon="14.5528817"><ele>263.0</ele><time>2026-03-28T10:07:20.418Z</time></trkpt><trkpt lat="41.0705" lon="14.55282"><ele>263.0</ele><time>2026-03-28T10:07:21.418Z</time></trkpt><trkpt lat="41.0705483" lon="14.5527583"><ele>263.0</ele><time>2026-03-28T10:07:22.419Z</time></trkpt><trkpt lat="41.070595" lon="14.55269"><ele>263.0</ele><time>2026-03-28T10:07:23.419Z</time></trkpt><trkpt lat="41.0706383" lon="14.55262"><ele>263.0</ele><time>2026-03-28T10:07:24.416Z</time></trkpt><trkpt lat="41.07069" lon="14.552555"><ele>263.0</ele><time>2026-03-28T10:07:25.419Z</time></trkpt><trkpt lat="41.07077" lon="14.5524317"><ele>263.1666666666667</ele><time>2026-03-28T10:07:27.415Z</time></trkpt><trkpt lat="41.070815" lon="14.552365"><ele>263.33333333333337</ele><time>2026-03-28T10:07:28.415Z</time></trkpt><trkpt lat="41.0708667" lon="14.55229"><ele>263.5</ele><time>2026-03-28T10:07:29.415Z</time></trkpt><trkpt lat="41.070935" lon="14.5522083"><ele>263.6666666666667</ele><time>2026-03-28T10:07:30.415Z</time></trkpt><trkpt lat="41.0709967" lon="14.55213"><ele>263.8333333333333</ele><time>2026-03-28T10:07:31.417Z</time></trkpt><trkpt lat="41.0710633" lon="14.5520517"><ele>264.0</ele><time>2026-03-28T10:07:32.415Z</time></trkpt><trkpt lat="41.0711267" lon="14.55197"><ele>264.0</ele><time>2026-03-28T10:07:33.415Z</time></trkpt><trkpt lat="41.0711767" lon="14.551895"><ele>264.0</ele><time>2026-03-28T10:07:34.418Z</time></trkpt><trkpt lat="41.0712317" lon="14.551815"><ele>264.0</ele><time>2026-03-28T10:07:35.414Z</time></trkpt><trkpt lat="41.071285" lon="14.5517383"><ele>264.0</ele><time>2026-03-28T10:07:36.414Z</time></trkpt><trkpt lat="41.0713383" lon="14.5516583"><ele>264.0</ele><time>2026-03-28T10:07:37.415Z</time></trkpt><trkpt lat="41.07139" lon="14.551575"><ele>264.0</ele><time>2026-03-28T10:07:38.414Z</time></trkpt><trkpt lat="41.071445" lon="14.5514933"><ele>264.0</ele><time>2026-03-28T10:07:39.418Z</time></trkpt><trkpt lat="41.0715033" lon="14.5514117"><ele>264.0</ele><time>2026-03-28T10:07:40.415Z</time></trkpt><trkpt lat="41.0715567" lon="14.5513317"><ele>264.0</ele><time>2026-03-28T10:07:41.416Z</time></trkpt><trkpt lat="41.071605" lon="14.5512467"><ele>264.0</ele><time>2026-03-28T10:07:42.419Z</time></trkpt><trkpt lat="41.07165" lon="14.5511633"><ele>264.0</ele><time>2026-03-28T10:07:43.419Z</time></trkpt><trkpt lat="41.0716983" lon="14.55108"><ele>264.0</ele><time>2026-03-28T10:07:44.415Z</time></trkpt><trkpt lat="41.071745" lon="14.5509967"><ele>263.8333333333333</ele><time>2026-03-28T10:07:45.415Z</time></trkpt><trkpt lat="41.07179" lon="14.5509133"><ele>263.6666666666667</ele><time>2026-03-28T10:07:46.417Z</time></trkpt><trkpt lat="41.0718317" lon="14.55083"><ele>263.5</ele><time>2026-03-28T10:07:47.417Z</time></trkpt><trkpt lat="41.0718717" lon="14.5507483"><ele>263.33333333333337</ele><time>2026-03-28T10:07:48.415Z</time></trkpt><trkpt lat="41.071915" lon="14.55067"><ele>263.1666666666667</ele><time>2026-03-28T10:07:49.415Z</time></trkpt><trkpt lat="41.0719583" lon="14.550585"><ele>263.0</ele><time>2026-03-28T10:07:50.414Z</time></trkpt><trkpt lat="41.072005" lon="14.550495"><ele>263.0</ele><time>2026-03-28T10:07:51.416Z</time></trkpt><trkpt lat="41.0720483" lon="14.5504083"><ele>263.0</ele><time>2026-03-28T10:07:52.416Z</time></trkpt><trkpt lat="41.0720833" lon="14.5503233"><ele>263.0</ele><time>2026-03-28T10:07:53.418Z</time></trkpt><trkpt lat="41.072125" lon="14.5502383"><ele>263.0</ele><time>2026-03-28T10:07:54.416Z</time></trkpt><trkpt lat="41.072165" lon="14.5501567"><ele>263.0</ele><time>2026-03-28T10:07:55.415Z</time></trkpt><trkpt lat="41.0722033" lon="14.550075"><ele>263.0</ele><time>2026-03-28T10:07:56.417Z</time></trkpt><trkpt lat="41.0722467" lon="14.5499867"><ele>263.1666666666667</ele><time>2026-03-28T10:07:57.415Z</time></trkpt><trkpt lat="41.0722967" lon="14.549895"><ele>263.33333333333337</ele><time>2026-03-28T10:07:58.417Z</time></trkpt><trkpt lat="41.07235" lon="14.549805"><ele>263.5</ele><time>2026-03-28T10:07:59.417Z</time></trkpt><trkpt lat="41.0723967" lon="14.54972"><ele>263.6666666666667</ele><time>2026-03-28T10:08:00.416Z</time></trkpt><trkpt lat="41.0724467" lon="14.5496333"><ele>263.8333333333333</ele><time>2026-03-28T10:08:01.415Z</time></trkpt><trkpt lat="41.072495" lon="14.5495467"><ele>264.0</ele><time>2026-03-28T10:08:02.419Z</time></trkpt><trkpt lat="41.07254" lon="14.5494583"><ele>264.1666666666667</ele><time>2026-03-28T10:08:03.419Z</time></trkpt><trkpt lat="41.0725817" lon="14.54937"><ele>264.3333333333333</ele><time>2026-03-28T10:08:04.415Z</time></trkpt><trkpt lat="41.0726333" lon="14.5492767"><ele>264.5</ele><time>2026-03-28T10:08:05.419Z</time></trkpt><trkpt lat="41.0726833" lon="14.549185"><ele>264.66666666666663</ele><time>2026-03-28T10:08:06.415Z</time></trkpt><trkpt lat="41.0727283" lon="14.549105"><ele>264.8333333333333</ele><time>2026-03-28T10:08:07.419Z</time></trkpt><trkpt lat="41.0727683" lon="14.5490283"><ele>265.0</ele><time>2026-03-28T10:08:08.419Z</time></trkpt><trkpt lat="41.072805" lon="14.548955"><ele>265.0</ele><time>2026-03-28T10:08:09.415Z</time></trkpt><trkpt lat="41.0728483" lon="14.54887"><ele>265.0</ele><time>2026-03-28T10:08:10.419Z</time></trkpt><trkpt lat="41.0728917" lon="14.548785"><ele>265.0</ele><time>2026-03-28T10:08:11.415Z</time></trkpt><trkpt lat="41.0729333" lon="14.5487017"><ele>265.0</ele><time>2026-03-28T10:08:12.415Z</time></trkpt><trkpt lat="41.0729883" lon="14.5486133"><ele>265.0</ele><time>2026-03-28T10:08:13.416Z</time></trkpt><trkpt lat="41.0730333" lon="14.54853"><ele>265.0</ele><time>2026-03-28T10:08:14.418Z</time></trkpt><trkpt lat="41.07308" lon="14.5484417"><ele>265.1428571428571</ele><time>2026-03-28T10:08:15.418Z</time></trkpt><trkpt lat="41.0731233" lon="14.5483617"><ele>265.2857142857143</ele><time>2026-03-28T10:08:16.418Z</time></trkpt><trkpt lat="41.07317" lon="14.5482783"><ele>265.42857142857144</ele><time>2026-03-28T10:08:17.419Z</time></trkpt><trkpt lat="41.0732217" lon="14.5481967"><ele>265.57142857142856</ele><time>2026-03-28T10:08:18.419Z</time></trkpt><trkpt lat="41.0732667" lon="14.548125"><ele>265.7142857142857</ele><time>2026-03-28T10:08:19.418Z</time></trkpt><trkpt lat="41.0733117" lon="14.5480533"><ele>265.85714285714283</ele><time>2026-03-28T10:08:20.416Z</time></trkpt><trkpt lat="41.0733583" lon="14.5479817"><ele>266.0</ele><time>2026-03-28T10:08:21.417Z</time></trkpt><trkpt lat="41.0734117" lon="14.5479117"><ele>266.14285714285717</ele><time>2026-03-28T10:08:22.416Z</time></trkpt><trkpt lat="41.073465" lon="14.547845"><ele>266.2857142857143</ele><time>2026-03-28T10:08:23.419Z</time></trkpt><trkpt lat="41.0735217" lon="14.5477817"><ele>266.42857142857144</ele><time>2026-03-28T10:08:24.418Z</time></trkpt><trkpt lat="41.0735783" lon="14.5477217"><ele>266.57142857142856</ele><time>2026-03-28T10:08:25.418Z</time></trkpt><trkpt lat="41.0736367" lon="14.5476617"><ele>266.7142857142857</ele><time>2026-03-28T10:08:26.417Z</time></trkpt><trkpt lat="41.0736917" lon="14.5476083"><ele>266.8571428571429</ele><time>2026-03-28T10:08:27.419Z</time></trkpt><trkpt lat="41.073755" lon="14.54756"><ele>267.0</ele><time>2026-03-28T10:08:28.419Z</time></trkpt><trkpt lat="41.0738217" lon="14.547515"><ele>267.00000000000006</ele><time>2026-03-28T10:08:29.418Z</time></trkpt><trkpt lat="41.0738883" lon="14.54747"><ele>267.0</ele><time>2026-03-28T10:08:30.419Z</time></trkpt><trkpt lat="41.0739533" lon="14.5474217"><ele>267.0</ele><time>2026-03-28T10:08:31.418Z</time></trkpt><trkpt lat="41.0740167" lon="14.5473717"><ele>267.0</ele><time>2026-03-28T10:08:32.418Z</time></trkpt><trkpt lat="41.0740783" lon="14.5473233"><ele>267.0</ele><time>2026-03-28T10:08:33.417Z</time></trkpt><trkpt lat="41.0741383" lon="14.54728"><ele>267.00000000000006</ele><time>2026-03-28T10:08:34.418Z</time></trkpt><trkpt lat="41.074195" lon="14.5472333"><ele>267.0</ele><time>2026-03-28T10:08:35.418Z</time></trkpt><trkpt lat="41.0742533" lon="14.5471817"><ele>266.8</ele><time>2026-03-28T10:08:36.415Z</time></trkpt><trkpt lat="41.0743683" lon="14.547095"><ele>266.6</ele><time>2026-03-28T10:08:38.418Z</time></trkpt><trkpt lat="41.0744817" lon="14.5470133"><ele>266.40000000000003</ele><time>2026-03-28T10:08:40.418Z</time></trkpt><trkpt lat="41.0745383" lon="14.546965"><ele>266.2</ele><time>2026-03-28T10:08:41.418Z</time></trkpt><trkpt lat="41.0745967" lon="14.54692"><ele>266.0</ele><time>2026-03-28T10:08:42.419Z</time></trkpt><trkpt lat="41.0747083" lon="14.546825"><ele>266.0</ele><time>2026-03-28T10:08:44.418Z</time></trkpt><trkpt lat="41.0747667" lon="14.546775"><ele>266.0</ele><time>2026-03-28T10:08:45.418Z</time></trkpt><trkpt lat="41.0748233" lon="14.546725"><ele>266.0</ele><time>2026-03-28T10:08:46.416Z</time></trkpt><trkpt lat="41.0748817" lon="14.546675"><ele>266.0</ele><time>2026-03-28T10:08:47.419Z</time></trkpt><trkpt lat="41.07494" lon="14.5466233"><ele>266.0</ele><time>2026-03-28T10:08:48.419Z</time></trkpt><trkpt lat="41.075" lon="14.5465733"><ele>266.0</ele><time>2026-03-28T10:08:49.415Z</time></trkpt><trkpt lat="41.0750617" lon="14.5465217"><ele>266.0</ele><time>2026-03-28T10:08:50.418Z</time></trkpt><trkpt lat="41.0751267" lon="14.54647"><ele>266.0</ele><time>2026-03-28T10:08:51.415Z</time></trkpt><trkpt lat="41.075195" lon="14.5464183"><ele>266.0</ele><time>2026-03-28T10:08:52.415Z</time></trkpt><trkpt lat="41.0752667" lon="14.546365"><ele>266.0</ele><time>2026-03-28T10:08:53.415Z</time></trkpt><trkpt lat="41.0753233" lon="14.5463217"><ele>266.0</ele><time>2026-03-28T10:08:54.419Z</time></trkpt><trkpt lat="41.075385" lon="14.5462767"><ele>266.0</ele><time>2026-03-28T10:08:55.416Z</time></trkpt><trkpt lat="41.0754483" lon="14.5462283"><ele>266.0</ele><time>2026-03-28T10:08:56.419Z</time></trkpt><trkpt lat="41.0755167" lon="14.5461767"><ele>266.0</ele><time>2026-03-28T10:08:57.419Z</time></trkpt><trkpt lat="41.07559" lon="14.5461183"><ele>266.14285714285717</ele><time>2026-03-28T10:08:58.419Z</time></trkpt><trkpt lat="41.0756567" lon="14.5460617"><ele>266.2857142857143</ele><time>2026-03-28T10:08:59.418Z</time></trkpt><trkpt lat="41.0757217" lon="14.5460083"><ele>266.42857142857144</ele><time>2026-03-28T10:09:00.418Z</time></trkpt><trkpt lat="41.0757833" lon="14.5459567"><ele>266.57142857142856</ele><time>2026-03-28T10:09:01.417Z</time></trkpt><trkpt lat="41.0758417" lon="14.5459067"><ele>266.7142857142857</ele><time>2026-03-28T10:09:02.419Z</time></trkpt><trkpt lat="41.0759017" lon="14.5458567"><ele>266.8571428571429</ele><time>2026-03-28T10:09:03.419Z</time></trkpt><trkpt lat="41.075965" lon="14.5458033"><ele>267.0</ele><time>2026-03-28T10:09:04.415Z</time></trkpt><trkpt lat="41.0760283" lon="14.545755"><ele>267.0</ele><time>2026-03-28T10:09:05.417Z</time></trkpt><trkpt lat="41.0761367" lon="14.545675"><ele>267.0</ele><time>2026-03-28T10:09:07.417Z</time></trkpt><trkpt lat="41.0761917" lon="14.5456283"><ele>267.0</ele><time>2026-03-28T10:09:08.414Z</time></trkpt><trkpt lat="41.076285" lon="14.5455483"><ele>267.0</ele><time>2026-03-28T10:09:10.418Z</time></trkpt><trkpt lat="41.0763583" lon="14.5454533"><ele>267.0</ele><time>2026-03-28T10:09:12.416Z</time></trkpt><trkpt lat="41.0763733" lon="14.54531"><ele>267.0</ele><time>2026-03-28T10:09:14.418Z</time></trkpt><trkpt lat="41.0763733" lon="14.5451483"><ele>267.0</ele><time>2026-03-28T10:09:16.418Z</time></trkpt><trkpt lat="41.0764067" lon="14.544995"><ele>267.0</ele><time>2026-03-28T10:09:18.419Z</time></trkpt><trkpt lat="41.0764317" lon="14.5449133"><ele>267.0</ele><time>2026-03-28T10:09:19.418Z</time></trkpt><trkpt lat="41.0764817" lon="14.5447533"><ele>267.0</ele><time>2026-03-28T10:09:21.418Z</time></trkpt><trkpt lat="41.0765083" lon="14.5446767"><ele>267.1666666666667</ele><time>2026-03-28T10:09:22.417Z</time></trkpt><trkpt lat="41.0765617" lon="14.544525"><ele>267.3333333333333</ele><time>2026-03-28T10:09:24.419Z</time></trkpt><trkpt lat="41.0765883" lon="14.5444483"><ele>267.5</ele><time>2026-03-28T10:09:25.419Z</time></trkpt><trkpt lat="41.0766167" lon="14.5443633"><ele>267.66666666666663</ele><time>2026-03-28T10:09:26.419Z</time></trkpt><trkpt lat="41.07664" lon="14.5442817"><ele>267.8333333333333</ele><time>2026-03-28T10:09:27.415Z</time></trkpt><trkpt lat="41.076665" lon="14.5442033"><ele>268.0</ele><time>2026-03-28T10:09:28.416Z</time></trkpt><trkpt lat="41.076695" lon="14.5441267"><ele>268.0</ele><time>2026-03-28T10:09:29.417Z</time></trkpt><trkpt lat="41.0767467" lon="14.5439767"><ele>268.0</ele><time>2026-03-28T10:09:31.415Z</time></trkpt><trkpt lat="41.0767917" lon="14.54383"><ele>268.0</ele><time>2026-03-28T10:09:33.417Z</time></trkpt><trkpt lat="41.076835" lon="14.5436867"><ele>268.0</ele><time>2026-03-28T10:09:35.417Z</time></trkpt><trkpt lat="41.0768867" lon="14.5435383"><ele>268.4</ele><time>2026-03-28T10:09:37.416Z</time></trkpt><trkpt lat="41.0769267" lon="14.5433917"><ele>268.8</ele><time>2026-03-28T10:09:39.416Z</time></trkpt><trkpt lat="41.07697" lon="14.5432567"><ele>269.2</ele><time>2026-03-28T10:09:41.416Z</time></trkpt><trkpt lat="41.0770083" lon="14.5431333"><ele>269.6</ele><time>2026-03-28T10:09:43.416Z</time></trkpt><trkpt lat="41.0770417" lon="14.543025"><ele>270.0</ele><time>2026-03-28T10:09:45.417Z</time></trkpt><trkpt lat="41.0770717" lon="14.5429333"><ele>270.0</ele><time>2026-03-28T10:09:47.415Z</time></trkpt><trkpt lat="41.077035" lon="14.5428367"><ele>270.0</ele><time>2026-03-28T10:09:50.414Z</time></trkpt><trkpt lat="41.0769483" lon="14.5428017"><ele>270.0</ele><time>2026-03-28T10:09:53.415Z</time></trkpt><trkpt lat="41.076885" lon="14.5427933"><ele>270.0</ele><time>2026-03-28T10:09:55.414Z</time></trkpt><trkpt lat="41.0768083" lon="14.5428033"><ele>270.0</ele><time>2026-03-28T10:09:58.417Z</time></trkpt><trkpt lat="41.0767654" lon="14.542874"><ele>270.0</ele><time>2026-03-28T10:14:05.512Z</time></trkpt><trkpt lat="41.076709" lon="14.5429214"><ele>270.0</ele><time>2026-03-28T10:15:58.737Z</time></trkpt><trkpt lat="41.0768163" lon="14.5429409"><ele>270.1666666666667</ele><time>2026-03-28T10:16:21.929Z</time></trkpt><trkpt lat="41.0767898" lon="14.5428544"><ele>270.3333333333333</ele><time>2026-03-28T10:18:05.556Z</time></trkpt><trkpt lat="41.0768068" lon="14.5427386"><ele>270.5</ele><time>2026-03-28T10:18:09.485Z</time></trkpt><trkpt lat="41.0768372" lon="14.5426129"><ele>270.66666666666663</ele><time>2026-03-28T10:18:16.536Z</time></trkpt><trkpt lat="41.0767681" lon="14.5426303"><ele>270.8333333333333</ele><time>2026-03-28T10:18:28.521Z</time></trkpt><trkpt lat="41.0767738" lon="14.5427528"><ele>271.0</ele><time>2026-03-28T10:18:30.536Z</time></trkpt><trkpt lat="41.0767345" lon="14.5428358"><ele>270.8333333333333</ele><time>2026-03-28T10:18:34.536Z</time></trkpt><trkpt lat="41.0767719" lon="14.5429082"><ele>270.66666666666663</ele><time>2026-03-28T10:18:37.494Z</time></trkpt><trkpt lat="41.0767806" lon="14.5430049"><ele>270.5</ele><time>2026-03-28T10:18:40.616Z</time></trkpt><trkpt lat="41.0767695" lon="14.5431179"><ele>270.3333333333333</ele><time>2026-03-28T10:18:42.529Z</time></trkpt><trkpt lat="41.0768212" lon="14.5430098"><ele>270.1666666666667</ele><time>2026-03-28T10:18:43.436Z</time></trkpt><trkpt lat="41.0767537" lon="14.5429665"><ele>270.0</ele><time>2026-03-28T10:18:49.479Z</time></trkpt><trkpt lat="41.0768451" lon="14.5429497"><ele>270.0</ele><time>2026-03-28T10:26:40.344Z</time></trkpt><trkpt lat="41.0767951" lon="14.5428983"><ele>270.0</ele><time>2026-03-28T10:27:24.442Z</time></trkpt><trkpt lat="41.0768188" lon="14.5429844"><ele>270.0</ele><time>2026-03-28T10:31:38.488Z</time></trkpt><trkpt lat="41.0768428" lon="14.5430752"><ele>270.0</ele><time>2026-03-28T10:31:44.53Z</time></trkpt><trkpt lat="41.0768383" lon="14.5431658"><ele>270.0</ele><time>2026-03-28T10:32:59.803Z</time></trkpt><trkpt lat="41.0768424" lon="14.5430696"><ele>270.0</ele><time>2026-03-28T10:33:13.447Z</time></trkpt><trkpt lat="41.0767979" lon="14.5430027"><ele>270.0</ele><time>2026-03-28T10:33:23.451Z</time></trkpt><trkpt lat="41.0768092" lon="14.5429182"><ele>270.0</ele><time>2026-03-28T10:33:36.559Z</time></trkpt><trkpt lat="41.0768799" lon="14.5429142"><ele>270.0</ele><time>2026-03-28T10:33:57.497Z</time></trkpt><trkpt lat="41.0769728" lon="14.5429079"><ele>270.0</ele><time>2026-03-28T10:34:00.519Z</time></trkpt><trkpt lat="41.0770454" lon="14.542897"><ele>270.0</ele><time>2026-03-28T10:34:02.534Z</time></trkpt><trkpt lat="41.0771223" lon="14.5429046"><ele>270.0</ele><time>2026-03-28T10:34:03.54Z</time></trkpt><trkpt lat="41.0771937" lon="14.5429269"><ele>270.0</ele><time>2026-03-28T10:34:04.448Z</time></trkpt><trkpt lat="41.0772851" lon="14.5429701"><ele>270.0</ele><time>2026-03-28T10:34:06.462Z</time></trkpt><trkpt lat="41.0773517" lon="14.5430183"><ele>270.0</ele><time>2026-03-28T10:34:08.477Z</time></trkpt><trkpt lat="41.0774073" lon="14.5430637"><ele>270.0</ele><time>2026-03-28T10:34:10.492Z</time></trkpt><trkpt lat="41.0774636" lon="14.5431508"><ele>270.0</ele><time>2026-03-28T10:34:13.514Z</time></trkpt><trkpt lat="41.0774583" lon="14.5430552"><ele>270.0</ele><time>2026-03-28T10:34:19.458Z</time></trkpt><trkpt lat="41.0774026" lon="14.5429978"><ele>270.0</ele><time>2026-03-28T10:34:22.48Z</time></trkpt><trkpt lat="41.0773376" lon="14.5429414"><ele>270.0</ele><time>2026-03-28T10:34:25.502Z</time></trkpt><trkpt lat="41.0772709" lon="14.5429142"><ele>270.0</ele><time>2026-03-28T10:34:27.416Z</time></trkpt><trkpt lat="41.0771957" lon="14.5429056"><ele>270.0</ele><time>2026-03-28T10:34:29.333Z</time></trkpt><trkpt lat="41.0771102" lon="14.542882"><ele>270.0</ele><time>2026-03-28T10:34:31.35Z</time></trkpt><trkpt lat="41.0770203" lon="14.5429066"><ele>270.0</ele><time>2026-03-28T10:34:33.462Z</time></trkpt><trkpt lat="41.0769512" lon="14.5429791"><ele>270.0</ele><time>2026-03-28T10:34:35.477Z</time></trkpt><trkpt lat="41.0769317" lon="14.5430667"><ele>270.0</ele><time>2026-03-28T10:34:37.413Z</time></trkpt><trkpt lat="41.07689" lon="14.5432183"><ele>270.0</ele><time>2026-03-28T10:34:39.414Z</time></trkpt><trkpt lat="41.07686" lon="14.5433033"><ele>270.0</ele><time>2026-03-28T10:34:40.413Z</time></trkpt><trkpt lat="41.0768383" lon="14.5433817"><ele>270.0</ele><time>2026-03-28T10:34:41.414Z</time></trkpt><trkpt lat="41.076805" lon="14.5434783"><ele>270.0</ele><time>2026-03-28T10:34:42.413Z</time></trkpt><trkpt lat="41.0767767" lon="14.5435633"><ele>270.0</ele><time>2026-03-28T10:34:43.414Z</time></trkpt><trkpt lat="41.0767467" lon="14.543645"><ele>270.0</ele><time>2026-03-28T10:34:44.414Z</time></trkpt><trkpt lat="41.0767033" lon="14.543795"><ele>269.8333333333333</ele><time>2026-03-28T10:34:46.414Z</time></trkpt><trkpt lat="41.0766567" lon="14.54396"><ele>269.6666666666667</ele><time>2026-03-28T10:34:48.414Z</time></trkpt><trkpt lat="41.07663" lon="14.544055"><ele>269.5</ele><time>2026-03-28T10:34:49.414Z</time></trkpt><trkpt lat="41.0766033" lon="14.5441367"><ele>269.33333333333337</ele><time>2026-03-28T10:34:50.414Z</time></trkpt><trkpt lat="41.0765767" lon="14.544215"><ele>269.1666666666667</ele><time>2026-03-28T10:34:51.414Z</time></trkpt><trkpt lat="41.076545" lon="14.5442933"><ele>269.0</ele><time>2026-03-28T10:34:52.414Z</time></trkpt><trkpt lat="41.076515" lon="14.5443717"><ele>269.0</ele><time>2026-03-28T10:34:53.414Z</time></trkpt><trkpt lat="41.0764867" lon="14.544525"><ele>269.0</ele><time>2026-03-28T10:34:55.413Z</time></trkpt><trkpt lat="41.076445" lon="14.5446833"><ele>269.0</ele><time>2026-03-28T10:34:57.415Z</time></trkpt><trkpt lat="41.07642" lon="14.544765"><ele>269.0</ele><time>2026-03-28T10:34:58.414Z</time></trkpt><trkpt lat="41.076385" lon="14.544855"><ele>269.0</ele><time>2026-03-28T10:34:59.414Z</time></trkpt><trkpt lat="41.076355" lon="14.5449433"><ele>268.6666666666667</ele><time>2026-03-28T10:35:00.414Z</time></trkpt><trkpt lat="41.0763283" lon="14.5450233"><ele>268.33333333333337</ele><time>2026-03-28T10:35:01.414Z</time></trkpt><trkpt lat="41.0763017" lon="14.5451"><ele>268.0</ele><time>2026-03-28T10:35:02.414Z</time></trkpt><trkpt lat="41.0762333" lon="14.545235"><ele>267.6666666666667</ele><time>2026-03-28T10:35:04.413Z</time></trkpt><trkpt lat="41.076155" lon="14.5453567"><ele>267.3333333333333</ele><time>2026-03-28T10:35:06.414Z</time></trkpt><trkpt lat="41.0761117" lon="14.54542"><ele>267.0</ele><time>2026-03-28T10:35:07.414Z</time></trkpt><trkpt lat="41.07607" lon="14.54549"><ele>267.00000000000006</ele><time>2026-03-28T10:35:08.414Z</time></trkpt><trkpt lat="41.07602" lon="14.5455467"><ele>267.0</ele><time>2026-03-28T10:35:09.413Z</time></trkpt><trkpt lat="41.0759667" lon="14.545605"><ele>267.0</ele><time>2026-03-28T10:35:10.414Z</time></trkpt><trkpt lat="41.0759083" lon="14.545665"><ele>267.0</ele><time>2026-03-28T10:35:11.415Z</time></trkpt><trkpt lat="41.07585" lon="14.545715"><ele>267.0</ele><time>2026-03-28T10:35:12.414Z</time></trkpt><trkpt lat="41.0757967" lon="14.5457633"><ele>267.00000000000006</ele><time>2026-03-28T10:35:13.414Z</time></trkpt><trkpt lat="41.0757433" lon="14.545815"><ele>267.0</ele><time>2026-03-28T10:35:14.413Z</time></trkpt><trkpt lat="41.07568" lon="14.54587"><ele>267.00000000000006</ele><time>2026-03-28T10:35:15.414Z</time></trkpt><trkpt lat="41.0756233" lon="14.5459217"><ele>267.0</ele><time>2026-03-28T10:35:16.413Z</time></trkpt><trkpt lat="41.0755683" lon="14.54597"><ele>267.0</ele><time>2026-03-28T10:35:17.414Z</time></trkpt><trkpt lat="41.0755133" lon="14.5460283"><ele>267.0</ele><time>2026-03-28T10:35:18.413Z</time></trkpt><trkpt lat="41.075455" lon="14.5460883"><ele>267.0</ele><time>2026-03-28T10:35:19.413Z</time></trkpt><trkpt lat="41.07539" lon="14.5461483"><ele>267.00000000000006</ele><time>2026-03-28T10:35:20.415Z</time></trkpt><trkpt lat="41.0753167" lon="14.5462033"><ele>267.0</ele><time>2026-03-28T10:35:21.414Z</time></trkpt><trkpt lat="41.0752433" lon="14.5462633"><ele>266.8333333333333</ele><time>2026-03-28T10:35:22.414Z</time></trkpt><trkpt lat="41.0751783" lon="14.5463217"><ele>266.6666666666667</ele><time>2026-03-28T10:35:23.414Z</time></trkpt><trkpt lat="41.0751067" lon="14.5463767"><ele>266.5</ele><time>2026-03-28T10:35:24.415Z</time></trkpt><trkpt lat="41.0750317" lon="14.5464433"><ele>266.33333333333337</ele><time>2026-03-28T10:35:25.414Z</time></trkpt><trkpt lat="41.0749683" lon="14.546505"><ele>266.1666666666667</ele><time>2026-03-28T10:35:26.414Z</time></trkpt><trkpt lat="41.0749083" lon="14.5465517"><ele>266.0</ele><time>2026-03-28T10:35:27.413Z</time></trkpt><trkpt lat="41.0748517" lon="14.5465917"><ele>266.75</ele><time>2026-03-28T10:35:28.414Z</time></trkpt><trkpt lat="41.0747533" lon="14.5466683"><ele>267.5</ele><time>2026-03-28T10:35:30.412Z</time></trkpt><trkpt lat="41.0746467" lon="14.5467583"><ele>268.25</ele><time>2026-03-28T10:35:32.414Z</time></trkpt><trkpt lat="41.0745217" lon="14.546865"><ele>269.0</ele><time>2026-03-28T10:35:34.413Z</time></trkpt><trkpt lat="41.0744483" lon="14.54692"><ele>269.0</ele><time>2026-03-28T10:35:35.414Z</time></trkpt><trkpt lat="41.0743383" lon="14.5469883"><ele>269.0</ele><time>2026-03-28T10:35:37.414Z</time></trkpt><trkpt lat="41.0742183" lon="14.547075"><ele>269.0</ele><time>2026-03-28T10:35:39.413Z</time></trkpt><trkpt lat="41.074155" lon="14.5471217"><ele>269.0</ele><time>2026-03-28T10:35:40.413Z</time></trkpt><trkpt lat="41.0740833" lon="14.5471667"><ele>269.0</ele><time>2026-03-28T10:35:41.414Z</time></trkpt><trkpt lat="41.0740133" lon="14.5472067"><ele>268.7142857142857</ele><time>2026-03-28T10:35:42.414Z</time></trkpt><trkpt lat="41.0739483" lon="14.5472317"><ele>268.42857142857144</ele><time>2026-03-28T10:35:43.414Z</time></trkpt><trkpt lat="41.0738833" lon="14.5472433"><ele>268.14285714285717</ele><time>2026-03-28T10:35:44.413Z</time></trkpt><trkpt lat="41.0738033" lon="14.54727"><ele>267.8571428571429</ele><time>2026-03-28T10:35:45.416Z</time></trkpt><trkpt lat="41.073735" lon="14.5472883"><ele>267.57142857142856</ele><time>2026-03-28T10:35:46.414Z</time></trkpt><trkpt lat="41.0736717" lon="14.5473167"><ele>267.28571428571433</ele><time>2026-03-28T10:35:47.415Z</time></trkpt><trkpt lat="41.0736117" lon="14.54736"><ele>267.0</ele><time>2026-03-28T10:35:48.417Z</time></trkpt><trkpt lat="41.0735617" lon="14.5474167"><ele>267.0</ele><time>2026-03-28T10:35:49.415Z</time></trkpt><trkpt lat="41.073515" lon="14.5475067"><ele>267.0</ele><time>2026-03-28T10:35:50.414Z</time></trkpt><trkpt lat="41.0734767" lon="14.547585"><ele>267.0</ele><time>2026-03-28T10:35:51.413Z</time></trkpt><trkpt lat="41.073435" lon="14.5476717"><ele>267.0</ele><time>2026-03-28T10:35:52.413Z</time></trkpt><trkpt lat="41.0733833" lon="14.547745"><ele>267.0</ele><time>2026-03-28T10:35:53.415Z</time></trkpt><trkpt lat="41.073335" lon="14.5478233"><ele>267.0</ele><time>2026-03-28T10:35:54.414Z</time></trkpt><trkpt lat="41.0732883" lon="14.5479017"><ele>267.0</ele><time>2026-03-28T10:35:55.414Z</time></trkpt><trkpt lat="41.0732433" lon="14.547985"><ele>267.0</ele><time>2026-03-28T10:35:56.414Z</time></trkpt><trkpt lat="41.073195" lon="14.5480683"><ele>267.0</ele><time>2026-03-28T10:35:57.414Z</time></trkpt><trkpt lat="41.0731533" lon="14.548145"><ele>267.0</ele><time>2026-03-28T10:35:58.412Z</time></trkpt><trkpt lat="41.073105" lon="14.5482267"><ele>267.0</ele><time>2026-03-28T10:35:59.414Z</time></trkpt><trkpt lat="41.0730583" lon="14.5483083"><ele>267.0</ele><time>2026-03-28T10:36:00.414Z</time></trkpt><trkpt lat="41.0730117" lon="14.5483833"><ele>267.00000000000006</ele><time>2026-03-28T10:36:01.414Z</time></trkpt><trkpt lat="41.072965" lon="14.5484633"><ele>267.0</ele><time>2026-03-28T10:36:02.415Z</time></trkpt><trkpt lat="41.0729167" lon="14.54854"><ele>267.0</ele><time>2026-03-28T10:36:03.414Z</time></trkpt><trkpt lat="41.0728733" lon="14.5486183"><ele>267.0</ele><time>2026-03-28T10:36:04.414Z</time></trkpt><trkpt lat="41.0728367" lon="14.548695"><ele>267.0</ele><time>2026-03-28T10:36:05.414Z</time></trkpt><trkpt lat="41.0727967" lon="14.548775"><ele>267.00000000000006</ele><time>2026-03-28T10:36:06.414Z</time></trkpt><trkpt lat="41.0727683" lon="14.5488683"><ele>267.0</ele><time>2026-03-28T10:36:07.414Z</time></trkpt><trkpt lat="41.0727367" lon="14.548955"><ele>266.6666666666667</ele><time>2026-03-28T10:36:08.413Z</time></trkpt><trkpt lat="41.0726967" lon="14.5490317"><ele>266.3333333333333</ele><time>2026-03-28T10:36:09.416Z</time></trkpt><trkpt lat="41.0726517" lon="14.549115"><ele>266.0</ele><time>2026-03-28T10:36:10.414Z</time></trkpt><trkpt lat="41.07261" lon="14.549205"><ele>265.66666666666663</ele><time>2026-03-28T10:36:11.414Z</time></trkpt><trkpt lat="41.0725667" lon="14.5492867"><ele>265.3333333333333</ele><time>2026-03-28T10:36:12.414Z</time></trkpt><trkpt lat="41.0725233" lon="14.549365"><ele>265.0</ele><time>2026-03-28T10:36:13.414Z</time></trkpt><trkpt lat="41.0724683" lon="14.5494517"><ele>265.0</ele><time>2026-03-28T10:36:14.414Z</time></trkpt><trkpt lat="41.0724133" lon="14.5495367"><ele>265.0</ele><time>2026-03-28T10:36:15.413Z</time></trkpt><trkpt lat="41.0723633" lon="14.54962"><ele>265.0</ele><time>2026-03-28T10:36:16.414Z</time></trkpt><trkpt lat="41.072315" lon="14.5497083"><ele>265.0</ele><time>2026-03-28T10:36:17.414Z</time></trkpt><trkpt lat="41.0722667" lon="14.54979"><ele>265.0</ele><time>2026-03-28T10:36:18.414Z</time></trkpt><trkpt lat="41.072225" lon="14.5498717"><ele>265.0</ele><time>2026-03-28T10:36:19.414Z</time></trkpt><trkpt lat="41.0721933" lon="14.54995"><ele>265.1428571428571</ele><time>2026-03-28T10:36:20.413Z</time></trkpt><trkpt lat="41.07216" lon="14.5500233"><ele>265.2857142857143</ele><time>2026-03-28T10:36:21.413Z</time></trkpt><trkpt lat="41.0721217" lon="14.5501033"><ele>265.42857142857144</ele><time>2026-03-28T10:36:22.414Z</time></trkpt><trkpt lat="41.072075" lon="14.5501783"><ele>265.57142857142856</ele><time>2026-03-28T10:36:23.414Z</time></trkpt><trkpt lat="41.0720367" lon="14.5502517"><ele>265.7142857142857</ele><time>2026-03-28T10:36:24.414Z</time></trkpt><trkpt lat="41.071995" lon="14.5503267"><ele>265.85714285714283</ele><time>2026-03-28T10:36:25.414Z</time></trkpt><trkpt lat="41.07195" lon="14.5504033"><ele>266.0</ele><time>2026-03-28T10:36:26.415Z</time></trkpt><trkpt lat="41.0719133" lon="14.550475"><ele>265.7142857142857</ele><time>2026-03-28T10:36:27.413Z</time></trkpt><trkpt lat="41.071875" lon="14.5505433"><ele>265.42857142857144</ele><time>2026-03-28T10:36:28.414Z</time></trkpt><trkpt lat="41.07183" lon="14.55061"><ele>265.1428571428571</ele><time>2026-03-28T10:36:29.415Z</time></trkpt><trkpt lat="41.071775" lon="14.5506833"><ele>264.8571428571429</ele><time>2026-03-28T10:36:30.414Z</time></trkpt><trkpt lat="41.0717317" lon="14.55076"><ele>264.57142857142856</ele><time>2026-03-28T10:36:31.413Z</time></trkpt><trkpt lat="41.07169" lon="14.5508317"><ele>264.2857142857143</ele><time>2026-03-28T10:36:32.414Z</time></trkpt><trkpt lat="41.0716533" lon="14.5509083"><ele>264.0</ele><time>2026-03-28T10:36:33.413Z</time></trkpt><trkpt lat="41.071605" lon="14.5509833"><ele>264.0</ele><time>2026-03-28T10:36:34.415Z</time></trkpt><trkpt lat="41.07156" lon="14.55108"><ele>264.0</ele><time>2026-03-28T10:36:35.414Z</time></trkpt><trkpt lat="41.0715233" lon="14.5511617"><ele>264.0</ele><time>2026-03-28T10:36:36.413Z</time></trkpt><trkpt lat="41.0714833" lon="14.5512367"><ele>264.0</ele><time>2026-03-28T10:36:37.414Z</time></trkpt><trkpt lat="41.0714383" lon="14.5513117"><ele>264.0</ele><time>2026-03-28T10:36:38.414Z</time></trkpt><trkpt lat="41.071385" lon="14.5513767"><ele>264.0</ele><time>2026-03-28T10:36:39.414Z</time></trkpt><trkpt lat="41.0713483" lon="14.551445"><ele>264.0</ele><time>2026-03-28T10:36:40.414Z</time></trkpt><trkpt lat="41.071305" lon="14.5515183"><ele>264.0</ele><time>2026-03-28T10:36:41.414Z</time></trkpt><trkpt lat="41.0712533" lon="14.5516183"><ele>264.0</ele><time>2026-03-28T10:36:42.414Z</time></trkpt><trkpt lat="41.0711967" lon="14.5517167"><ele>264.0</ele><time>2026-03-28T10:36:43.413Z</time></trkpt><trkpt lat="41.0711483" lon="14.5518017"><ele>264.0</ele><time>2026-03-28T10:36:44.414Z</time></trkpt><trkpt lat="41.0711067" lon="14.55188"><ele>264.0</ele><time>2026-03-28T10:36:45.414Z</time></trkpt><trkpt lat="41.0710617" lon="14.5519517"><ele>264.0</ele><time>2026-03-28T10:36:46.414Z</time></trkpt><trkpt lat="41.0710167" lon="14.55202"><ele>264.0</ele><time>2026-03-28T10:36:47.414Z</time></trkpt><trkpt lat="41.0709717" lon="14.5520833"><ele>264.0</ele><time>2026-03-28T10:36:48.414Z</time></trkpt><trkpt lat="41.07092" lon="14.5521467"><ele>264.0</ele><time>2026-03-28T10:36:49.413Z</time></trkpt><trkpt lat="41.07087" lon="14.55221"><ele>264.0</ele><time>2026-03-28T10:36:50.414Z</time></trkpt><trkpt lat="41.0708233" lon="14.552275"><ele>264.0</ele><time>2026-03-28T10:36:51.414Z</time></trkpt><trkpt lat="41.07074" lon="14.5523933"><ele>264.0</ele><time>2026-03-28T10:36:53.414Z</time></trkpt><trkpt lat="41.0706867" lon="14.5524617"><ele>264.1666666666667</ele><time>2026-03-28T10:36:54.414Z</time></trkpt><trkpt lat="41.0706433" lon="14.5525233"><ele>264.3333333333333</ele><time>2026-03-28T10:36:55.415Z</time></trkpt><trkpt lat="41.0705967" lon="14.5525833"><ele>264.5</ele><time>2026-03-28T10:36:56.414Z</time></trkpt><trkpt lat="41.0705483" lon="14.5526517"><ele>264.66666666666663</ele><time>2026-03-28T10:36:57.414Z</time></trkpt><trkpt lat="41.0704617" lon="14.5527683"><ele>264.8333333333333</ele><time>2026-03-28T10:36:59.414Z</time></trkpt><trkpt lat="41.07039" lon="14.55286"><ele>265.0</ele><time>2026-03-28T10:37:00.414Z</time></trkpt><trkpt lat="41.0703267" lon="14.5529317"><ele>264.66666666666663</ele><time>2026-03-28T10:37:01.414Z</time></trkpt><trkpt lat="41.070255" lon="14.553015"><ele>264.3333333333333</ele><time>2026-03-28T10:37:02.413Z</time></trkpt><trkpt lat="41.0701867" lon="14.553095"><ele>264.0</ele><time>2026-03-28T10:37:03.414Z</time></trkpt><trkpt lat="41.070125" lon="14.553175"><ele>263.6666666666667</ele><time>2026-03-28T10:37:04.414Z</time></trkpt><trkpt lat="41.0700717" lon="14.5532483"><ele>263.33333333333337</ele><time>2026-03-28T10:37:05.414Z</time></trkpt><trkpt lat="41.0700217" lon="14.55333"><ele>263.0</ele><time>2026-03-28T10:37:06.414Z</time></trkpt><trkpt lat="41.0699833" lon="14.5533983"><ele>263.0</ele><time>2026-03-28T10:37:07.414Z</time></trkpt><trkpt lat="41.0699367" lon="14.5534633"><ele>263.0</ele><time>2026-03-28T10:37:08.414Z</time></trkpt><trkpt lat="41.0698833" lon="14.5535283"><ele>263.0</ele><time>2026-03-28T10:37:09.414Z</time></trkpt><trkpt lat="41.0698383" lon="14.553595"><ele>263.0</ele><time>2026-03-28T10:37:10.415Z</time></trkpt><trkpt lat="41.0697817" lon="14.5536683"><ele>263.0</ele><time>2026-03-28T10:37:11.414Z</time></trkpt><trkpt lat="41.0697233" lon="14.55374"><ele>263.0</ele><time>2026-03-28T10:37:12.414Z</time></trkpt><trkpt lat="41.0696583" lon="14.55382"><ele>262.83333333333337</ele><time>2026-03-28T10:37:13.414Z</time></trkpt><trkpt lat="41.0695917" lon="14.5539083"><ele>262.6666666666667</ele><time>2026-03-28T10:37:14.414Z</time></trkpt><trkpt lat="41.0695333" lon="14.553985"><ele>262.5</ele><time>2026-03-28T10:37:15.414Z</time></trkpt><trkpt lat="41.0694733" lon="14.5540583"><ele>262.3333333333333</ele><time>2026-03-28T10:37:16.414Z</time></trkpt><trkpt lat="41.0694033" lon="14.5541367"><ele>262.16666666666663</ele><time>2026-03-28T10:37:17.415Z</time></trkpt><trkpt lat="41.0693417" lon="14.554215"><ele>262.0</ele><time>2026-03-28T10:37:18.413Z</time></trkpt><trkpt lat="41.0692833" lon="14.5542917"><ele>262.0</ele><time>2026-03-28T10:37:19.414Z</time></trkpt><trkpt lat="41.0692233" lon="14.5543683"><ele>262.0</ele><time>2026-03-28T10:37:20.414Z</time></trkpt><trkpt lat="41.0691667" lon="14.554445"><ele>262.0</ele><time>2026-03-28T10:37:21.413Z</time></trkpt><trkpt lat="41.06911" lon="14.5545217"><ele>262.0</ele><time>2026-03-28T10:37:22.414Z</time></trkpt><trkpt lat="41.069055" lon="14.5545917"><ele>262.0</ele><time>2026-03-28T10:37:23.414Z</time></trkpt><trkpt lat="41.0689983" lon="14.5546583"><ele>262.0</ele><time>2026-03-28T10:37:24.414Z</time></trkpt><trkpt lat="41.0689017" lon="14.5547883"><ele>262.0</ele><time>2026-03-28T10:37:26.416Z</time></trkpt><trkpt lat="41.06885" lon="14.5548583"><ele>262.0</ele><time>2026-03-28T10:37:27.414Z</time></trkpt><trkpt lat="41.0687917" lon="14.5549417"><ele>262.0</ele><time>2026-03-28T10:37:28.413Z</time></trkpt><trkpt lat="41.0687333" lon="14.5550167"><ele>262.0</ele><time>2026-03-28T10:37:29.414Z</time></trkpt><trkpt lat="41.0686817" lon="14.5550883"><ele>262.0</ele><time>2026-03-28T10:37:30.414Z</time></trkpt><trkpt lat="41.0686233" lon="14.5551667"><ele>262.0</ele><time>2026-03-28T10:37:31.418Z</time></trkpt><trkpt lat="41.0685583" lon="14.5552517"><ele>262.0</ele><time>2026-03-28T10:37:32.415Z</time></trkpt><trkpt lat="41.0684967" lon="14.5553267"><ele>262.0</ele><time>2026-03-28T10:37:33.414Z</time></trkpt><trkpt lat="41.0684367" lon="14.5553983"><ele>262.0</ele><time>2026-03-28T10:37:34.414Z</time></trkpt><trkpt lat="41.0683783" lon="14.555465"><ele>262.0</ele><time>2026-03-28T10:37:35.414Z</time></trkpt><trkpt lat="41.068315" lon="14.5555333"><ele>262.0</ele><time>2026-03-28T10:37:36.412Z</time></trkpt><trkpt lat="41.0682367" lon="14.555615"><ele>262.0</ele><time>2026-03-28T10:37:37.414Z</time></trkpt><trkpt lat="41.0681567" lon="14.55571"><ele>262.16666666666663</ele><time>2026-03-28T10:37:38.417Z</time></trkpt><trkpt lat="41.06809" lon="14.5557833"><ele>262.3333333333333</ele><time>2026-03-28T10:37:39.414Z</time></trkpt><trkpt lat="41.0680333" lon="14.55584"><ele>262.5</ele><time>2026-03-28T10:37:40.414Z</time></trkpt><trkpt lat="41.0679667" lon="14.5559033"><ele>262.6666666666667</ele><time>2026-03-28T10:37:41.414Z</time></trkpt><trkpt lat="41.0678967" lon="14.5559583"><ele>262.83333333333337</ele><time>2026-03-28T10:37:42.416Z</time></trkpt><trkpt lat="41.0678217" lon="14.5560117"><ele>263.0</ele><time>2026-03-28T10:37:43.413Z</time></trkpt><trkpt lat="41.06774" lon="14.5560767"><ele>263.0</ele><time>2026-03-28T10:37:44.415Z</time></trkpt><trkpt lat="41.0676733" lon="14.55614"><ele>263.0</ele><time>2026-03-28T10:37:45.414Z</time></trkpt><trkpt lat="41.0676" lon="14.5562033"><ele>263.0</ele><time>2026-03-28T10:37:46.415Z</time></trkpt><trkpt lat="41.0675367" lon="14.5562583"><ele>263.0</ele><time>2026-03-28T10:37:47.414Z</time></trkpt><trkpt lat="41.06748" lon="14.5563"><ele>263.0</ele><time>2026-03-28T10:37:48.416Z</time></trkpt><trkpt lat="41.0674233" lon="14.5563383"><ele>263.0</ele><time>2026-03-28T10:37:49.415Z</time></trkpt><trkpt lat="41.06736" lon="14.5563833"><ele>263.0</ele><time>2026-03-28T10:37:50.413Z</time></trkpt><trkpt lat="41.067305" lon="14.5564267"><ele>263.2857142857143</ele><time>2026-03-28T10:37:51.414Z</time></trkpt><trkpt lat="41.067245" lon="14.5564767"><ele>263.57142857142856</ele><time>2026-03-28T10:37:52.416Z</time></trkpt><trkpt lat="41.067185" lon="14.556525"><ele>263.85714285714283</ele><time>2026-03-28T10:37:53.415Z</time></trkpt><trkpt lat="41.067125" lon="14.5565767"><ele>264.1428571428571</ele><time>2026-03-28T10:37:54.415Z</time></trkpt><trkpt lat="41.067065" lon="14.5566317"><ele>264.42857142857144</ele><time>2026-03-28T10:37:55.414Z</time></trkpt><trkpt lat="41.067" lon="14.55669"><ele>264.71428571428567</ele><time>2026-03-28T10:37:56.412Z</time></trkpt><trkpt lat="41.066935" lon="14.5567433"><ele>265.0</ele><time>2026-03-28T10:37:57.414Z</time></trkpt><trkpt lat="41.06687" lon="14.5567917"><ele>265.0</ele><time>2026-03-28T10:37:58.414Z</time></trkpt><trkpt lat="41.0668083" lon="14.5568333"><ele>265.0</ele><time>2026-03-28T10:37:59.417Z</time></trkpt><trkpt lat="41.06675" lon="14.5568717"><ele>265.0</ele><time>2026-03-28T10:38:00.414Z</time></trkpt><trkpt lat="41.0666367" lon="14.5569567"><ele>265.0</ele><time>2026-03-28T10:38:02.414Z</time></trkpt><trkpt lat="41.0665733" lon="14.5570167"><ele>265.0</ele><time>2026-03-28T10:38:03.413Z</time></trkpt><trkpt lat="41.0664733" lon="14.5570983"><ele>265.4285714285714</ele><time>2026-03-28T10:38:05.415Z</time></trkpt><trkpt lat="41.06642" lon="14.557165"><ele>265.85714285714283</ele><time>2026-03-28T10:38:06.413Z</time></trkpt><trkpt lat="41.0663717" lon="14.55723"><ele>266.2857142857143</ele><time>2026-03-28T10:38:07.414Z</time></trkpt><trkpt lat="41.0663167" lon="14.5573067"><ele>266.71428571428567</ele><time>2026-03-28T10:38:08.414Z</time></trkpt><trkpt lat="41.066265" lon="14.5573733"><ele>267.1428571428571</ele><time>2026-03-28T10:38:09.414Z</time></trkpt><trkpt lat="41.0662083" lon="14.5574333"><ele>267.57142857142856</ele><time>2026-03-28T10:38:10.414Z</time></trkpt><trkpt lat="41.0661517" lon="14.5574883"><ele>268.0</ele><time>2026-03-28T10:38:11.414Z</time></trkpt><trkpt lat="41.0661" lon="14.55754"><ele>268.0</ele><time>2026-03-28T10:38:12.414Z</time></trkpt><trkpt lat="41.066045" lon="14.5575833"><ele>268.0</ele><time>2026-03-28T10:38:13.414Z</time></trkpt><trkpt lat="41.0659783" lon="14.5576333"><ele>268.0</ele><time>2026-03-28T10:38:14.414Z</time></trkpt><trkpt lat="41.0659117" lon="14.557685"><ele>268.0</ele><time>2026-03-28T10:38:15.412Z</time></trkpt><trkpt lat="41.06584" lon="14.557735"><ele>268.0</ele><time>2026-03-28T10:38:16.413Z</time></trkpt><trkpt lat="41.0657717" lon="14.55779"><ele>268.0</ele><time>2026-03-28T10:38:17.415Z</time></trkpt><trkpt lat="41.0657017" lon="14.5578233"><ele>268.0</ele><time>2026-03-28T10:38:18.413Z</time></trkpt><trkpt lat="41.0656317" lon="14.557855"><ele>268.0</ele><time>2026-03-28T10:38:19.414Z</time></trkpt><trkpt lat="41.0655367" lon="14.5579133"><ele>268.0</ele><time>2026-03-28T10:38:20.413Z</time></trkpt><trkpt lat="41.0654633" lon="14.5579567"><ele>268.0</ele><time>2026-03-28T10:38:21.414Z</time></trkpt><trkpt lat="41.0653883" lon="14.5579933"><ele>268.0</ele><time>2026-03-28T10:38:22.414Z</time></trkpt><trkpt lat="41.065315" lon="14.5580233"><ele>268.0</ele><time>2026-03-28T10:38:23.413Z</time></trkpt><trkpt lat="41.0652317" lon="14.5580567"><ele>268.0</ele><time>2026-03-28T10:38:24.414Z</time></trkpt><trkpt lat="41.06516" lon="14.5580833"><ele>268.0</ele><time>2026-03-28T10:38:25.414Z</time></trkpt><trkpt lat="41.0650867" lon="14.5581117"><ele>268.0</ele><time>2026-03-28T10:38:26.414Z</time></trkpt><trkpt lat="41.0650183" lon="14.5581383"><ele>268.0</ele><time>2026-03-28T10:38:27.418Z</time></trkpt><trkpt lat="41.0649467" lon="14.5581533"><ele>268.0</ele><time>2026-03-28T10:38:28.415Z</time></trkpt><trkpt lat="41.0648733" lon="14.558165"><ele>268.0</ele><time>2026-03-28T10:38:29.416Z</time></trkpt><trkpt lat="41.064805" lon="14.5581683"><ele>268.0</ele><time>2026-03-28T10:38:30.414Z</time></trkpt><trkpt lat="41.0647333" lon="14.5581467"><ele>267.66666666666663</ele><time>2026-03-28T10:38:31.414Z</time></trkpt><trkpt lat="41.0646567" lon="14.5581267"><ele>267.3333333333333</ele><time>2026-03-28T10:38:32.414Z</time></trkpt><trkpt lat="41.064585" lon="14.5580967"><ele>267.0</ele><time>2026-03-28T10:38:33.413Z</time></trkpt><trkpt lat="41.0645117" lon="14.55806"><ele>266.6666666666667</ele><time>2026-03-28T10:38:34.413Z</time></trkpt><trkpt lat="41.0644417" lon="14.5580217"><ele>266.33333333333337</ele><time>2026-03-28T10:38:35.414Z</time></trkpt><trkpt lat="41.0643733" lon="14.5579833"><ele>266.0</ele><time>2026-03-28T10:38:36.417Z</time></trkpt><trkpt lat="41.064305" lon="14.5579483"><ele>266.0</ele><time>2026-03-28T10:38:37.417Z</time></trkpt><trkpt lat="41.06424" lon="14.5579233"><ele>266.0</ele><time>2026-03-28T10:38:38.413Z</time></trkpt><trkpt lat="41.0641733" lon="14.557905"><ele>266.0</ele><time>2026-03-28T10:38:39.416Z</time></trkpt><trkpt lat="41.0641" lon="14.5578983"><ele>266.0</ele><time>2026-03-28T10:38:40.417Z</time></trkpt><trkpt lat="41.0640283" lon="14.5579067"><ele>266.0</ele><time>2026-03-28T10:38:41.415Z</time></trkpt><trkpt lat="41.0639567" lon="14.557925"><ele>266.0</ele><time>2026-03-28T10:38:42.414Z</time></trkpt><trkpt lat="41.0638867" lon="14.5579517"><ele>266.0</ele><time>2026-03-28T10:38:43.414Z</time></trkpt><trkpt lat="41.0638133" lon="14.557995"><ele>265.83333333333337</ele><time>2026-03-28T10:38:44.414Z</time></trkpt><trkpt lat="41.0637483" lon="14.55804"><ele>265.6666666666667</ele><time>2026-03-28T10:38:45.414Z</time></trkpt><trkpt lat="41.0636817" lon="14.55809"><ele>265.5</ele><time>2026-03-28T10:38:46.414Z</time></trkpt><trkpt lat="41.0636117" lon="14.55814"><ele>265.3333333333333</ele><time>2026-03-28T10:38:47.414Z</time></trkpt><trkpt lat="41.0635483" lon="14.5581917"><ele>265.16666666666663</ele><time>2026-03-28T10:38:48.414Z</time></trkpt><trkpt lat="41.0634783" lon="14.5582333"><ele>265.0</ele><time>2026-03-28T10:38:49.414Z</time></trkpt><trkpt lat="41.0634117" lon="14.5582683"><ele>264.99999999999994</ele><time>2026-03-28T10:38:50.413Z</time></trkpt><trkpt lat="41.0633433" lon="14.5583083"><ele>265.0</ele><time>2026-03-28T10:38:51.413Z</time></trkpt><trkpt lat="41.0632767" lon="14.5583517"><ele>265.0</ele><time>2026-03-28T10:38:52.415Z</time></trkpt><trkpt lat="41.0632133" lon="14.5583933"><ele>265.0</ele><time>2026-03-28T10:38:53.414Z</time></trkpt><trkpt lat="41.063145" lon="14.5584367"><ele>265.0</ele><time>2026-03-28T10:38:54.414Z</time></trkpt><trkpt lat="41.0630817" lon="14.5584767"><ele>264.99999999999994</ele><time>2026-03-28T10:38:55.414Z</time></trkpt><trkpt lat="41.0630167" lon="14.55852"><ele>265.0</ele><time>2026-03-28T10:38:56.414Z</time></trkpt><trkpt lat="41.0629567" lon="14.5585617"><ele>265.0</ele><time>2026-03-28T10:38:57.416Z</time></trkpt><trkpt lat="41.06286" lon="14.5586417"><ele>265.0</ele><time>2026-03-28T10:38:59.414Z</time></trkpt><trkpt lat="41.0627733" lon="14.5587133"><ele>265.0</ele><time>2026-03-28T10:39:01.417Z</time></trkpt><trkpt lat="41.0627083" lon="14.55877"><ele>265.0</ele><time>2026-03-28T10:39:03.414Z</time></trkpt><trkpt lat="41.0626433" lon="14.5588533"><ele>265.0</ele><time>2026-03-28T10:39:07.414Z</time></trkpt><trkpt lat="41.06258" lon="14.5589133"><ele>265.0</ele><time>2026-03-28T10:39:10.416Z</time></trkpt><trkpt lat="41.0625" lon="14.5589717"><ele>265.0</ele><time>2026-03-28T10:39:13.414Z</time></trkpt><trkpt lat="41.0624117" lon="14.55902"><ele>265.0</ele><time>2026-03-28T10:39:16.413Z</time></trkpt><trkpt lat="41.0623217" lon="14.5590667"><ele>265.0</ele><time>2026-03-28T10:39:19.414Z</time></trkpt><trkpt lat="41.0622433" lon="14.5590917"><ele>265.0</ele><time>2026-03-28T10:39:22.415Z</time></trkpt><trkpt lat="41.0621667" lon="14.5591333"><ele>265.0</ele><time>2026-03-28T10:39:26.413Z</time></trkpt><trkpt lat="41.0620933" lon="14.55918"><ele>264.6</ele><time>2026-03-28T10:39:29.415Z</time></trkpt><trkpt lat="41.062005" lon="14.5592083"><ele>264.2</ele><time>2026-03-28T10:39:31.414Z</time></trkpt><trkpt lat="41.061915" lon="14.559215"><ele>263.8</ele><time>2026-03-28T10:39:33.415Z</time></trkpt><trkpt lat="41.0618183" lon="14.5592433"><ele>263.4</ele><time>2026-03-28T10:39:35.414Z</time></trkpt><trkpt lat="41.0617183" lon="14.5592767"><ele>263.0</ele><time>2026-03-28T10:39:37.414Z</time></trkpt><trkpt lat="41.0616517" lon="14.5593033"><ele>263.0</ele><time>2026-03-28T10:39:38.414Z</time></trkpt><trkpt lat="41.0615533" lon="14.559295"><ele>263.0</ele><time>2026-03-28T10:39:40.414Z</time></trkpt><trkpt lat="41.0614533" lon="14.55928"><ele>263.0</ele><time>2026-03-28T10:39:42.414Z</time></trkpt><trkpt lat="41.0613333" lon="14.55927"><ele>263.0</ele><time>2026-03-28T10:39:44.414Z</time></trkpt><trkpt lat="41.0612383" lon="14.5592433"><ele>263.0</ele><time>2026-03-28T10:39:46.414Z</time></trkpt><trkpt lat="41.0611333" lon="14.5592117"><ele>263.0</ele><time>2026-03-28T10:39:48.415Z</time></trkpt><trkpt lat="41.0610117" lon="14.5591583"><ele>263.0</ele><time>2026-03-28T10:39:50.414Z</time></trkpt><trkpt lat="41.0609467" lon="14.5591317"><ele>263.0</ele><time>2026-03-28T10:39:51.413Z</time></trkpt><trkpt lat="41.06088" lon="14.5591017"><ele>263.0</ele><time>2026-03-28T10:39:52.415Z</time></trkpt><trkpt lat="41.0608167" lon="14.5590733"><ele>263.0</ele><time>2026-03-28T10:39:53.414Z</time></trkpt><trkpt lat="41.0607483" lon="14.5590467"><ele>263.0</ele><time>2026-03-28T10:39:54.414Z</time></trkpt><trkpt lat="41.0606383" lon="14.558995"><ele>263.0</ele><time>2026-03-28T10:39:56.414Z</time></trkpt><trkpt lat="41.0605317" lon="14.558935"><ele>263.0</ele><time>2026-03-28T10:39:58.414Z</time></trkpt><trkpt lat="41.060435" lon="14.5588917"><ele>263.0</ele><time>2026-03-28T10:40:00.414Z</time></trkpt><trkpt lat="41.0603433" lon="14.5588417"><ele>263.0</ele><time>2026-03-28T10:40:02.414Z</time></trkpt><trkpt lat="41.0602517" lon="14.5587733"><ele>263.0</ele><time>2026-03-28T10:40:04.414Z</time></trkpt><trkpt lat="41.0601917" lon="14.558735"><ele>263.1666666666667</ele><time>2026-03-28T10:40:05.414Z</time></trkpt><trkpt lat="41.060105" lon="14.5586817"><ele>263.33333333333337</ele><time>2026-03-28T10:40:07.414Z</time></trkpt><trkpt lat="41.0600333" lon="14.55865"><ele>263.5</ele><time>2026-03-28T10:40:11.414Z</time></trkpt><trkpt lat="41.05996" lon="14.5586267"><ele>263.6666666666667</ele><time>2026-03-28T10:40:15.413Z</time></trkpt><trkpt lat="41.0599" lon="14.5585867"><ele>263.8333333333333</ele><time>2026-03-28T10:40:19.414Z</time></trkpt><trkpt lat="41.059835" lon="14.558515"><ele>264.0</ele><time>2026-03-28T10:40:22.412Z</time></trkpt><trkpt lat="41.0597633" lon="14.5584233"><ele>264.0</ele><time>2026-03-28T10:40:25.417Z</time></trkpt><trkpt lat="41.059705" lon="14.55838"><ele>264.0</ele><time>2026-03-28T10:40:27.413Z</time></trkpt><trkpt lat="41.0596167" lon="14.5583417"><ele>264.0</ele><time>2026-03-28T10:40:29.414Z</time></trkpt><trkpt lat="41.0594883" lon="14.5583533"><ele>264.0</ele><time>2026-03-28T10:40:31.414Z</time></trkpt><trkpt lat="41.0594067" lon="14.5583717"><ele>264.0</ele><time>2026-03-28T10:40:33.413Z</time></trkpt><trkpt lat="41.0593017" lon="14.5584033"><ele>264.0</ele><time>2026-03-28T10:40:35.414Z</time></trkpt><trkpt lat="41.05923" lon="14.5584233"><ele>264.0</ele><time>2026-03-28T10:40:36.415Z</time></trkpt><trkpt lat="41.0591617" lon="14.5584133"><ele>264.0</ele><time>2026-03-28T10:40:38.413Z</time></trkpt><trkpt lat="41.0591" lon="14.5584317"><ele>264.0</ele><time>2026-03-28T10:40:40.414Z</time></trkpt><trkpt lat="41.05903" lon="14.55845"><ele>264.0</ele><time>2026-03-28T10:40:42.413Z</time></trkpt><trkpt lat="41.0589633" lon="14.5584883"><ele>264.0</ele><time>2026-03-28T10:40:44.415Z</time></trkpt><trkpt lat="41.0588667" lon="14.5584833"><ele>264.0</ele><time>2026-03-28T10:40:47.414Z</time></trkpt><trkpt lat="41.05879" lon="14.5584183"><ele>264.0</ele><time>2026-03-28T10:40:49.414Z</time></trkpt><trkpt lat="41.0587117" lon="14.5583333"><ele>264.0</ele><time>2026-03-28T10:40:51.416Z</time></trkpt><trkpt lat="41.058655" lon="14.5582367"><ele>264.0</ele><time>2026-03-28T10:40:53.414Z</time></trkpt><trkpt lat="41.0586133" lon="14.55813"><ele>264.0</ele><time>2026-03-28T10:40:56.414Z</time></trkpt><trkpt lat="41.0585583" lon="14.55802"><ele>264.0</ele><time>2026-03-28T10:40:58.414Z</time></trkpt><trkpt lat="41.058485" lon="14.5579033"><ele>264.2</ele><time>2026-03-28T10:41:00.414Z</time></trkpt><trkpt lat="41.0584283" lon="14.5577883"><ele>264.4</ele><time>2026-03-28T10:41:02.414Z</time></trkpt><trkpt lat="41.0583667" lon="14.5576717"><ele>264.6</ele><time>2026-03-28T10:41:04.413Z</time></trkpt><trkpt lat="41.0582983" lon="14.5575583"><ele>264.8</ele><time>2026-03-28T10:41:06.414Z</time></trkpt><trkpt lat="41.058245" lon="14.5574633"><ele>265.0</ele><time>2026-03-28T10:41:08.412Z</time></trkpt><trkpt lat="41.0582" lon="14.55739"><ele>265.0</ele><time>2026-03-28T10:41:10.413Z</time></trkpt><trkpt lat="41.058165" lon="14.5573117"><ele>265.0</ele><time>2026-03-28T10:41:12.414Z</time></trkpt><trkpt lat="41.0581233" lon="14.557235"><ele>265.0</ele><time>2026-03-28T10:41:15.414Z</time></trkpt><trkpt lat="41.0580533" lon="14.5571717"><ele>265.0</ele><time>2026-03-28T10:41:18.414Z</time></trkpt><trkpt lat="41.0579667" lon="14.55717"><ele>265.0</ele><time>2026-03-28T10:41:20.414Z</time></trkpt><trkpt lat="41.0578683" lon="14.5571883"><ele>265.0</ele><time>2026-03-28T10:41:22.414Z</time></trkpt><trkpt lat="41.0578017" lon="14.5571983"><ele>265.0</ele><time>2026-03-28T10:41:23.414Z</time></trkpt><trkpt lat="41.0576767" lon="14.5572183"><ele>265.0</ele><time>2026-03-28T10:41:25.413Z</time></trkpt><trkpt lat="41.05761" lon="14.5572283"><ele>265.0</ele><time>2026-03-28T10:41:26.415Z</time></trkpt><trkpt lat="41.0575417" lon="14.5572367"><ele>265.0</ele><time>2026-03-28T10:41:27.414Z</time></trkpt><trkpt lat="41.0574767" lon="14.5572467"><ele>265.0</ele><time>2026-03-28T10:41:28.414Z</time></trkpt><trkpt lat="41.0574117" lon="14.55725"><ele>265.0</ele><time>2026-03-28T10:41:29.414Z</time></trkpt><trkpt lat="41.057275" lon="14.557245"><ele>265.16666666666663</ele><time>2026-03-28T10:41:31.415Z</time></trkpt><trkpt lat="41.0571933" lon="14.5572517"><ele>265.3333333333333</ele><time>2026-03-28T10:41:32.413Z</time></trkpt><trkpt lat="41.0571117" lon="14.55725"><ele>265.5</ele><time>2026-03-28T10:41:33.415Z</time></trkpt><trkpt lat="41.05703" lon="14.557245"><ele>265.6666666666667</ele><time>2026-03-28T10:41:34.413Z</time></trkpt><trkpt lat="41.05695" lon="14.557235"><ele>265.83333333333337</ele><time>2026-03-28T10:41:35.414Z</time></trkpt><trkpt lat="41.0568683" lon="14.55722"><ele>266.0</ele><time>2026-03-28T10:41:36.416Z</time></trkpt><trkpt lat="41.0567833" lon="14.5572133"><ele>266.0</ele><time>2026-03-28T10:41:37.414Z</time></trkpt><trkpt lat="41.0567" lon="14.5572133"><ele>266.0</ele><time>2026-03-28T10:41:38.414Z</time></trkpt><trkpt lat="41.0566183" lon="14.5572133"><ele>266.0</ele><time>2026-03-28T10:41:39.413Z</time></trkpt><trkpt lat="41.056545" lon="14.5572183"><ele>266.0</ele><time>2026-03-28T10:41:40.414Z</time></trkpt><trkpt lat="41.05647" lon="14.5572217"><ele>266.0</ele><time>2026-03-28T10:41:41.414Z</time></trkpt><trkpt lat="41.0563933" lon="14.5572183"><ele>266.0</ele><time>2026-03-28T10:41:42.414Z</time></trkpt><trkpt lat="41.0563167" lon="14.5572233"><ele>265.6666666666667</ele><time>2026-03-28T10:41:43.415Z</time></trkpt><trkpt lat="41.056245" lon="14.5572333"><ele>265.33333333333337</ele><time>2026-03-28T10:41:44.414Z</time></trkpt><trkpt lat="41.0561517" lon="14.5572483"><ele>265.0</ele><time>2026-03-28T10:41:45.413Z</time></trkpt><trkpt lat="41.0560633" lon="14.5572533"><ele>264.6666666666667</ele><time>2026-03-28T10:41:46.414Z</time></trkpt><trkpt lat="41.055985" lon="14.557255"><ele>264.3333333333333</ele><time>2026-03-28T10:41:47.414Z</time></trkpt><trkpt lat="41.0558983" lon="14.5572467"><ele>264.0</ele><time>2026-03-28T10:41:48.413Z</time></trkpt><trkpt lat="41.0558183" lon="14.5572417"><ele>264.1666666666667</ele><time>2026-03-28T10:41:49.414Z</time></trkpt><trkpt lat="41.0557367" lon="14.5572467"><ele>264.3333333333333</ele><time>2026-03-28T10:41:50.414Z</time></trkpt><trkpt lat="41.0556533" lon="14.5572517"><ele>264.5</ele><time>2026-03-28T10:41:51.413Z</time></trkpt><trkpt lat="41.0555733" lon="14.557265"><ele>264.66666666666663</ele><time>2026-03-28T10:41:52.414Z</time></trkpt><trkpt lat="41.0554967" lon="14.5572883"><ele>264.8333333333333</ele><time>2026-03-28T10:41:53.417Z</time></trkpt><trkpt lat="41.0554217" lon="14.5573217"><ele>265.0</ele><time>2026-03-28T10:41:54.414Z</time></trkpt><trkpt lat="41.0553467" lon="14.5573467"><ele>265.0</ele><time>2026-03-28T10:41:55.415Z</time></trkpt><trkpt lat="41.0552683" lon="14.5573767"><ele>265.0</ele><time>2026-03-28T10:41:56.414Z</time></trkpt><trkpt lat="41.0551883" lon="14.5574067"><ele>265.0</ele><time>2026-03-28T10:41:57.415Z</time></trkpt><trkpt lat="41.055105" lon="14.5574333"><ele>265.0</ele><time>2026-03-28T10:41:58.415Z</time></trkpt><trkpt lat="41.055025" lon="14.5574633"><ele>265.0</ele><time>2026-03-28T10:41:59.414Z</time></trkpt><trkpt lat="41.0549383" lon="14.5574883"><ele>265.0</ele><time>2026-03-28T10:42:00.414Z</time></trkpt><trkpt lat="41.0548533" lon="14.5575083"><ele>265.0</ele><time>2026-03-28T10:42:01.414Z</time></trkpt><trkpt lat="41.0547617" lon="14.5575317"><ele>265.0</ele><time>2026-03-28T10:42:02.413Z</time></trkpt><trkpt lat="41.0546817" lon="14.55755"><ele>265.0</ele><time>2026-03-28T10:42:03.414Z</time></trkpt><trkpt lat="41.0545967" lon="14.557575"><ele>265.0</ele><time>2026-03-28T10:42:04.414Z</time></trkpt><trkpt lat="41.0545167" lon="14.5575967"><ele>265.0</ele><time>2026-03-28T10:42:05.414Z</time></trkpt><trkpt lat="41.054445" lon="14.55763"><ele>265.0</ele><time>2026-03-28T10:42:06.414Z</time></trkpt><trkpt lat="41.0543767" lon="14.557655"><ele>265.0</ele><time>2026-03-28T10:42:07.415Z</time></trkpt><trkpt lat="41.0543033" lon="14.5576933"><ele>265.0</ele><time>2026-03-28T10:42:08.414Z</time></trkpt><trkpt lat="41.0542333" lon="14.5577333"><ele>265.0</ele><time>2026-03-28T10:42:09.414Z</time></trkpt><trkpt lat="41.0541617" lon="14.55778"><ele>265.0</ele><time>2026-03-28T10:42:10.415Z</time></trkpt><trkpt lat="41.054085" lon="14.5578317"><ele>265.0</ele><time>2026-03-28T10:42:11.413Z</time></trkpt><trkpt lat="41.0540083" lon="14.5578783"><ele>265.0</ele><time>2026-03-28T10:42:12.413Z</time></trkpt><trkpt lat="41.053945" lon="14.557935"><ele>264.66666666666663</ele><time>2026-03-28T10:42:13.414Z</time></trkpt><trkpt lat="41.053885" lon="14.5580017"><ele>264.3333333333333</ele><time>2026-03-28T10:42:14.414Z</time></trkpt><trkpt lat="41.0538183" lon="14.558065"><ele>264.0</ele><time>2026-03-28T10:42:15.414Z</time></trkpt><trkpt lat="41.0537567" lon="14.55814"><ele>263.6666666666667</ele><time>2026-03-28T10:42:16.414Z</time></trkpt><trkpt lat="41.0536983" lon="14.5582133"><ele>263.33333333333337</ele><time>2026-03-28T10:42:17.414Z</time></trkpt><trkpt lat="41.05364" lon="14.5582933"><ele>263.0</ele><time>2026-03-28T10:42:18.418Z</time></trkpt><trkpt lat="41.0535833" lon="14.5583783"><ele>263.0</ele><time>2026-03-28T10:42:19.416Z</time></trkpt><trkpt lat="41.053525" lon="14.55847"><ele>263.0</ele><time>2026-03-28T10:42:20.417Z</time></trkpt><trkpt lat="41.0534683" lon="14.5585617"><ele>263.0</ele><time>2026-03-28T10:42:21.413Z</time></trkpt><trkpt lat="41.053415" lon="14.5586567"><ele>263.0</ele><time>2026-03-28T10:42:22.414Z</time></trkpt><trkpt lat="41.0533633" lon="14.55875"><ele>263.0</ele><time>2026-03-28T10:42:23.415Z</time></trkpt><trkpt lat="41.0533067" lon="14.55883"><ele>263.0</ele><time>2026-03-28T10:42:24.413Z</time></trkpt><trkpt lat="41.0532367" lon="14.558905"><ele>263.0</ele><time>2026-03-28T10:42:25.413Z</time></trkpt><trkpt lat="41.0531617" lon="14.558965"><ele>263.0</ele><time>2026-03-28T10:42:26.414Z</time></trkpt><trkpt lat="41.0530867" lon="14.5590083"><ele>263.0</ele><time>2026-03-28T10:42:27.414Z</time></trkpt><trkpt lat="41.0530117" lon="14.5590467"><ele>263.0</ele><time>2026-03-28T10:42:28.414Z</time></trkpt><trkpt lat="41.0529267" lon="14.5590733"><ele>263.0</ele><time>2026-03-28T10:42:29.414Z</time></trkpt><trkpt lat="41.0528433" lon="14.5590933"><ele>263.0</ele><time>2026-03-28T10:42:30.416Z</time></trkpt><trkpt lat="41.0527583" lon="14.5591167"><ele>263.0</ele><time>2026-03-28T10:42:31.414Z</time></trkpt><trkpt lat="41.0526783" lon="14.5591367"><ele>263.0</ele><time>2026-03-28T10:42:32.414Z</time></trkpt><trkpt lat="41.0525967" lon="14.5591583"><ele>263.0</ele><time>2026-03-28T10:42:33.414Z</time></trkpt><trkpt lat="41.052515" lon="14.559175"><ele>263.0</ele><time>2026-03-28T10:42:34.415Z</time></trkpt><trkpt lat="41.0524333" lon="14.5591883"><ele>263.0</ele><time>2026-03-28T10:42:35.414Z</time></trkpt><trkpt lat="41.0523517" lon="14.5591917"><ele>263.0</ele><time>2026-03-28T10:42:36.414Z</time></trkpt><trkpt lat="41.0522633" lon="14.5591967"><ele>262.83333333333337</ele><time>2026-03-28T10:42:37.414Z</time></trkpt><trkpt lat="41.0521733" lon="14.5592117"><ele>262.6666666666667</ele><time>2026-03-28T10:42:38.414Z</time></trkpt><trkpt lat="41.0520883" lon="14.5592283"><ele>262.5</ele><time>2026-03-28T10:42:39.414Z</time></trkpt><trkpt lat="41.0520033" lon="14.5592433"><ele>262.3333333333333</ele><time>2026-03-28T10:42:40.414Z</time></trkpt><trkpt lat="41.051915" lon="14.5592617"><ele>262.16666666666663</ele><time>2026-03-28T10:42:41.413Z</time></trkpt><trkpt lat="41.0518317" lon="14.55928"><ele>262.0</ele><time>2026-03-28T10:42:42.414Z</time></trkpt><trkpt lat="41.05175" lon="14.55929"><ele>262.0</ele><time>2026-03-28T10:42:43.414Z</time></trkpt><trkpt lat="41.0516667" lon="14.5592983"><ele>262.0</ele><time>2026-03-28T10:42:44.414Z</time></trkpt><trkpt lat="41.0515783" lon="14.5593067"><ele>262.0</ele><time>2026-03-28T10:42:45.414Z</time></trkpt><trkpt lat="41.0514933" lon="14.559315"><ele>262.0</ele><time>2026-03-28T10:42:46.414Z</time></trkpt><trkpt lat="41.0514117" lon="14.5593167"><ele>262.0</ele><time>2026-03-28T10:42:47.417Z</time></trkpt><trkpt lat="41.0513283" lon="14.559315"><ele>262.0</ele><time>2026-03-28T10:42:48.413Z</time></trkpt><trkpt lat="41.051245" lon="14.5593117"><ele>262.16666666666663</ele><time>2026-03-28T10:42:49.414Z</time></trkpt><trkpt lat="41.0511567" lon="14.5593083"><ele>262.3333333333333</ele><time>2026-03-28T10:42:50.414Z</time></trkpt><trkpt lat="41.05107" lon="14.5593017"><ele>262.5</ele><time>2026-03-28T10:42:51.413Z</time></trkpt><trkpt lat="41.050985" lon="14.5592933"><ele>262.6666666666667</ele><time>2026-03-28T10:42:52.414Z</time></trkpt><trkpt lat="41.0508967" lon="14.5592817"><ele>262.83333333333337</ele><time>2026-03-28T10:42:53.414Z</time></trkpt><trkpt lat="41.0508117" lon="14.5592717"><ele>263.0</ele><time>2026-03-28T10:42:54.414Z</time></trkpt><trkpt lat="41.0507283" lon="14.5592533"><ele>263.1666666666667</ele><time>2026-03-28T10:42:55.414Z</time></trkpt><trkpt lat="41.0506517" lon="14.5592367"><ele>263.33333333333337</ele><time>2026-03-28T10:42:56.414Z</time></trkpt><trkpt lat="41.0505717" lon="14.5592167"><ele>263.5</ele><time>2026-03-28T10:42:57.413Z</time></trkpt><trkpt lat="41.0504917" lon="14.5592"><ele>263.6666666666667</ele><time>2026-03-28T10:42:58.413Z</time></trkpt><trkpt lat="41.0504083" lon="14.5591867"><ele>263.8333333333333</ele><time>2026-03-28T10:42:59.414Z</time></trkpt><trkpt lat="41.050325" lon="14.55917"><ele>264.0</ele><time>2026-03-28T10:43:00.414Z</time></trkpt><trkpt lat="41.0502417" lon="14.559155"><ele>264.0</ele><time>2026-03-28T10:43:01.415Z</time></trkpt><trkpt lat="41.050165" lon="14.55914"><ele>264.0</ele><time>2026-03-28T10:43:02.416Z</time></trkpt><trkpt lat="41.0500883" lon="14.5591267"><ele>264.0</ele><time>2026-03-28T10:43:03.417Z</time></trkpt><trkpt lat="41.0500083" lon="14.5591133"><ele>264.0</ele><time>2026-03-28T10:43:04.414Z</time></trkpt><trkpt lat="41.0499267" lon="14.5590983"><ele>264.0</ele><time>2026-03-28T10:43:05.414Z</time></trkpt><trkpt lat="41.0498417" lon="14.559085"><ele>264.0</ele><time>2026-03-28T10:43:06.414Z</time></trkpt><trkpt lat="41.0497617" lon="14.5590717"><ele>264.0</ele><time>2026-03-28T10:43:07.419Z</time></trkpt><trkpt lat="41.04968" lon="14.5590533"><ele>264.0</ele><time>2026-03-28T10:43:08.414Z</time></trkpt><trkpt lat="41.0495967" lon="14.55903"><ele>264.0</ele><time>2026-03-28T10:43:09.414Z</time></trkpt><trkpt lat="41.04951" lon="14.5590117"><ele>264.0</ele><time>2026-03-28T10:43:10.414Z</time></trkpt><trkpt lat="41.049425" lon="14.55899"><ele>264.0</ele><time>2026-03-28T10:43:11.413Z</time></trkpt><trkpt lat="41.0493417" lon="14.5589717"><ele>264.0</ele><time>2026-03-28T10:43:12.413Z</time></trkpt><trkpt lat="41.0492583" lon="14.5589533"><ele>264.0</ele><time>2026-03-28T10:43:13.413Z</time></trkpt><trkpt lat="41.0491767" lon="14.5589333"><ele>264.0</ele><time>2026-03-28T10:43:14.413Z</time></trkpt><trkpt lat="41.0490933" lon="14.5589133"><ele>264.0</ele><time>2026-03-28T10:43:15.412Z</time></trkpt><trkpt lat="41.0490067" lon="14.5588933"><ele>264.0</ele><time>2026-03-28T10:43:16.413Z</time></trkpt><trkpt lat="41.0489217" lon="14.5588767"><ele>264.0</ele><time>2026-03-28T10:43:17.413Z</time></trkpt><trkpt lat="41.0488333" lon="14.558865"><ele>264.0</ele><time>2026-03-28T10:43:18.414Z</time></trkpt><trkpt lat="41.0487483" lon="14.55885"><ele>264.1666666666667</ele><time>2026-03-28T10:43:19.413Z</time></trkpt><trkpt lat="41.0486633" lon="14.5588333"><ele>264.3333333333333</ele><time>2026-03-28T10:43:20.413Z</time></trkpt><trkpt lat="41.0485817" lon="14.558815"><ele>264.5</ele><time>2026-03-28T10:43:21.412Z</time></trkpt><trkpt lat="41.0484967" lon="14.5588017"><ele>264.66666666666663</ele><time>2026-03-28T10:43:22.413Z</time></trkpt><trkpt lat="41.0484133" lon="14.55879"><ele>264.8333333333333</ele><time>2026-03-28T10:43:23.413Z</time></trkpt><trkpt lat="41.0483267" lon="14.5587733"><ele>265.0</ele><time>2026-03-28T10:43:24.414Z</time></trkpt><trkpt lat="41.0482433" lon="14.5587533"><ele>265.0</ele><time>2026-03-28T10:43:25.413Z</time></trkpt><trkpt lat="41.0481617" lon="14.5587383"><ele>265.0</ele><time>2026-03-28T10:43:26.413Z</time></trkpt><trkpt lat="41.0480783" lon="14.5587283"><ele>265.0</ele><time>2026-03-28T10:43:27.413Z</time></trkpt><trkpt lat="41.048" lon="14.5587133"><ele>265.0</ele><time>2026-03-28T10:43:28.412Z</time></trkpt><trkpt lat="41.0479183" lon="14.5587017"><ele>265.0</ele><time>2026-03-28T10:43:29.413Z</time></trkpt><trkpt lat="41.0478367" lon="14.55869"><ele>265.0</ele><time>2026-03-28T10:43:30.414Z</time></trkpt><trkpt lat="41.0477583" lon="14.5586767"><ele>265.5</ele><time>2026-03-28T10:43:31.412Z</time></trkpt><trkpt lat="41.04768" lon="14.5586633"><ele>266.0</ele><time>2026-03-28T10:43:32.413Z</time></trkpt><trkpt lat="41.0476033" lon="14.55865"><ele>266.5</ele><time>2026-03-28T10:43:33.413Z</time></trkpt><trkpt lat="41.0475167" lon="14.5586383"><ele>267.0</ele><time>2026-03-28T10:43:34.413Z</time></trkpt><trkpt lat="41.04744" lon="14.5586283"><ele>267.5</ele><time>2026-03-28T10:43:35.413Z</time></trkpt><trkpt lat="41.0473633" lon="14.558615"><ele>268.0</ele><time>2026-03-28T10:43:36.413Z</time></trkpt><trkpt lat="41.0472883" lon="14.5586017"><ele>268.14285714285717</ele><time>2026-03-28T10:43:37.413Z</time></trkpt><trkpt lat="41.0472133" lon="14.5585883"><ele>268.2857142857143</ele><time>2026-03-28T10:43:38.413Z</time></trkpt><trkpt lat="41.0471383" lon="14.5585783"><ele>268.42857142857144</ele><time>2026-03-28T10:43:39.413Z</time></trkpt><trkpt lat="41.0470667" lon="14.5585717"><ele>268.57142857142856</ele><time>2026-03-28T10:43:40.413Z</time></trkpt><trkpt lat="41.0469933" lon="14.558565"><ele>268.7142857142857</ele><time>2026-03-28T10:43:41.413Z</time></trkpt><trkpt lat="41.04692" lon="14.558555"><ele>268.8571428571429</ele><time>2026-03-28T10:43:42.414Z</time></trkpt><trkpt lat="41.0468417" lon="14.5585467"><ele>269.0</ele><time>2026-03-28T10:43:43.413Z</time></trkpt><trkpt lat="41.0467683" lon="14.5585433"><ele>269.0</ele><time>2026-03-28T10:43:44.413Z</time></trkpt><trkpt lat="41.046695" lon="14.55854"><ele>269.0</ele><time>2026-03-28T10:43:45.414Z</time></trkpt><trkpt lat="41.0466233" lon="14.5585367"><ele>269.0</ele><time>2026-03-28T10:43:46.413Z</time></trkpt><trkpt lat="41.0465533" lon="14.5585317"><ele>269.0</ele><time>2026-03-28T10:43:47.414Z</time></trkpt><trkpt lat="41.0464717" lon="14.5585233"><ele>269.0</ele><time>2026-03-28T10:43:48.413Z</time></trkpt><trkpt lat="41.0463983" lon="14.5585233"><ele>269.0</ele><time>2026-03-28T10:43:49.413Z</time></trkpt><trkpt lat="41.0463333" lon="14.5585133"><ele>269.0</ele><time>2026-03-28T10:43:50.415Z</time></trkpt><trkpt lat="41.0462633" lon="14.55851"><ele>269.14285714285717</ele><time>2026-03-28T10:43:51.413Z</time></trkpt><trkpt lat="41.0461917" lon="14.558505"><ele>269.28571428571433</ele><time>2026-03-28T10:43:52.413Z</time></trkpt><trkpt lat="41.04612" lon="14.55849"><ele>269.42857142857144</ele><time>2026-03-28T10:43:53.413Z</time></trkpt><trkpt lat="41.0460517" lon="14.5584817"><ele>269.57142857142856</ele><time>2026-03-28T10:43:54.413Z</time></trkpt><trkpt lat="41.04598" lon="14.5584733"><ele>269.71428571428567</ele><time>2026-03-28T10:43:55.413Z</time></trkpt><trkpt lat="41.0459167" lon="14.5584467"><ele>269.85714285714283</ele><time>2026-03-28T10:43:56.413Z</time></trkpt><trkpt lat="41.0458517" lon="14.55841"><ele>270.0</ele><time>2026-03-28T10:43:57.412Z</time></trkpt><trkpt lat="41.0457833" lon="14.558365"><ele>270.0</ele><time>2026-03-28T10:43:58.413Z</time></trkpt><trkpt lat="41.0457233" lon="14.5583133"><ele>270.0</ele><time>2026-03-28T10:43:59.413Z</time></trkpt><trkpt lat="41.045665" lon="14.5582583"><ele>270.0</ele><time>2026-03-28T10:44:00.413Z</time></trkpt><trkpt lat="41.0456067" lon="14.5581967"><ele>270.0</ele><time>2026-03-28T10:44:01.416Z</time></trkpt><trkpt lat="41.0455433" lon="14.5581383"><ele>270.0</ele><time>2026-03-28T10:44:02.413Z</time></trkpt><trkpt lat="41.0454833" lon="14.5580733"><ele>270.0</ele><time>2026-03-28T10:44:03.413Z</time></trkpt><trkpt lat="41.0454233" lon="14.558005"><ele>270.0</ele><time>2026-03-28T10:44:04.413Z</time></trkpt><trkpt lat="41.0453617" lon="14.557935"><ele>270.0</ele><time>2026-03-28T10:44:05.413Z</time></trkpt><trkpt lat="41.0452933" lon="14.5578633"><ele>270.0</ele><time>2026-03-28T10:44:06.413Z</time></trkpt><trkpt lat="41.0452283" lon="14.55779"><ele>270.0</ele><time>2026-03-28T10:44:07.414Z</time></trkpt><trkpt lat="41.0451683" lon="14.557715"><ele>270.0</ele><time>2026-03-28T10:44:08.413Z</time></trkpt><trkpt lat="41.04511" lon="14.5576417"><ele>270.0</ele><time>2026-03-28T10:44:09.413Z</time></trkpt><trkpt lat="41.0450467" lon="14.5575717"><ele>270.3333333333333</ele><time>2026-03-28T10:44:10.413Z</time></trkpt><trkpt lat="41.0449833" lon="14.5575"><ele>270.6666666666667</ele><time>2026-03-28T10:44:11.414Z</time></trkpt><trkpt lat="41.0449283" lon="14.5574317"><ele>271.0</ele><time>2026-03-28T10:44:12.413Z</time></trkpt><trkpt lat="41.0448733" lon="14.55736"><ele>271.33333333333337</ele><time>2026-03-28T10:44:13.413Z</time></trkpt><trkpt lat="41.0448167" lon="14.5572933"><ele>271.6666666666667</ele><time>2026-03-28T10:44:14.414Z</time></trkpt><trkpt lat="41.0447517" lon="14.55722"><ele>272.0</ele><time>2026-03-28T10:44:15.414Z</time></trkpt><trkpt lat="41.0446867" lon="14.5571467"><ele>272.0</ele><time>2026-03-28T10:44:16.413Z</time></trkpt><trkpt lat="41.0446283" lon="14.55708"><ele>272.0</ele><time>2026-03-28T10:44:17.413Z</time></trkpt><trkpt lat="41.0445683" lon="14.557015"><ele>272.0</ele><time>2026-03-28T10:44:18.413Z</time></trkpt><trkpt lat="41.0445117" lon="14.556945"><ele>272.0</ele><time>2026-03-28T10:44:19.413Z</time></trkpt><trkpt lat="41.04446" lon="14.5568717"><ele>272.0</ele><time>2026-03-28T10:44:20.413Z</time></trkpt><trkpt lat="41.0444033" lon="14.556795"><ele>272.0</ele><time>2026-03-28T10:44:21.413Z</time></trkpt><trkpt lat="41.04435" lon="14.5567233"><ele>272.2857142857143</ele><time>2026-03-28T10:44:22.413Z</time></trkpt><trkpt lat="41.0443067" lon="14.5566517"><ele>272.57142857142856</ele><time>2026-03-28T10:44:23.414Z</time></trkpt><trkpt lat="41.044255" lon="14.5565833"><ele>272.8571428571429</ele><time>2026-03-28T10:44:24.413Z</time></trkpt><trkpt lat="41.0442" lon="14.5565167"><ele>273.1428571428571</ele><time>2026-03-28T10:44:25.412Z</time></trkpt><trkpt lat="41.0441467" lon="14.5564517"><ele>273.42857142857144</ele><time>2026-03-28T10:44:26.413Z</time></trkpt><trkpt lat="41.04409" lon="14.5563983"><ele>273.7142857142857</ele><time>2026-03-28T10:44:27.413Z</time></trkpt><trkpt lat="41.0440267" lon="14.5563533"><ele>274.0</ele><time>2026-03-28T10:44:28.413Z</time></trkpt><trkpt lat="41.04396" lon="14.5563083"><ele>274.00000000000006</ele><time>2026-03-28T10:44:29.413Z</time></trkpt><trkpt lat="41.0438983" lon="14.5562617"><ele>274.0</ele><time>2026-03-28T10:44:30.413Z</time></trkpt><trkpt lat="41.043835" lon="14.5562133"><ele>274.0</ele><time>2026-03-28T10:44:31.413Z</time></trkpt><trkpt lat="41.04377" lon="14.5561633"><ele>274.0</ele><time>2026-03-28T10:44:32.413Z</time></trkpt><trkpt lat="41.0437067" lon="14.5561133"><ele>274.0</ele><time>2026-03-28T10:44:33.413Z</time></trkpt><trkpt lat="41.0436417" lon="14.5560667"><ele>274.00000000000006</ele><time>2026-03-28T10:44:34.413Z</time></trkpt><trkpt lat="41.0435767" lon="14.5560217"><ele>274.0</ele><time>2026-03-28T10:44:35.413Z</time></trkpt><trkpt lat="41.0435117" lon="14.555975"><ele>274.5714285714286</ele><time>2026-03-28T10:44:36.413Z</time></trkpt><trkpt lat="41.043445" lon="14.5559383"><ele>275.14285714285717</ele><time>2026-03-28T10:44:37.413Z</time></trkpt><trkpt lat="41.0433783" lon="14.5559017"><ele>275.7142857142857</ele><time>2026-03-28T10:44:38.413Z</time></trkpt><trkpt lat="41.04331" lon="14.5558667"><ele>276.28571428571433</ele><time>2026-03-28T10:44:39.413Z</time></trkpt><trkpt lat="41.0432417" lon="14.5558267"><ele>276.8571428571429</ele><time>2026-03-28T10:44:40.413Z</time></trkpt><trkpt lat="41.0431733" lon="14.5557833"><ele>277.42857142857144</ele><time>2026-03-28T10:44:41.415Z</time></trkpt><trkpt lat="41.0431067" lon="14.5557417"><ele>278.0</ele><time>2026-03-28T10:44:42.414Z</time></trkpt><trkpt lat="41.0430383" lon="14.555705"><ele>278.1428571428571</ele><time>2026-03-28T10:44:43.414Z</time></trkpt><trkpt lat="41.0429683" lon="14.5556667"><ele>278.2857142857143</ele><time>2026-03-28T10:44:44.412Z</time></trkpt><trkpt lat="41.0429017" lon="14.5556267"><ele>278.42857142857144</ele><time>2026-03-28T10:44:45.413Z</time></trkpt><trkpt lat="41.0428333" lon="14.555585"><ele>278.57142857142856</ele><time>2026-03-28T10:44:46.413Z</time></trkpt><trkpt lat="41.0427683" lon="14.5555433"><ele>278.7142857142857</ele><time>2026-03-28T10:44:47.413Z</time></trkpt><trkpt lat="41.0427033" lon="14.555505"><ele>278.85714285714283</ele><time>2026-03-28T10:44:48.413Z</time></trkpt><trkpt lat="41.04264" lon="14.55547"><ele>279.0</ele><time>2026-03-28T10:44:49.413Z</time></trkpt><trkpt lat="41.042575" lon="14.55543"><ele>278.99999999999994</ele><time>2026-03-28T10:44:50.413Z</time></trkpt><trkpt lat="41.0425083" lon="14.55539"><ele>279.0</ele><time>2026-03-28T10:44:51.413Z</time></trkpt><trkpt lat="41.0424383" lon="14.5553533"><ele>279.0</ele><time>2026-03-28T10:44:52.413Z</time></trkpt><trkpt lat="41.0423683" lon="14.5553217"><ele>279.0</ele><time>2026-03-28T10:44:53.414Z</time></trkpt><trkpt lat="41.0423" lon="14.55529"><ele>279.0</ele><time>2026-03-28T10:44:54.413Z</time></trkpt><trkpt lat="41.04223" lon="14.5552617"><ele>278.99999999999994</ele><time>2026-03-28T10:44:55.413Z</time></trkpt><trkpt lat="41.04216" lon="14.5552317"><ele>279.0</ele><time>2026-03-28T10:44:56.413Z</time></trkpt><trkpt lat="41.0420917" lon="14.5551917"><ele>279.8333333333333</ele><time>2026-03-28T10:44:57.413Z</time></trkpt><trkpt lat="41.0420217" lon="14.5551617"><ele>280.6666666666667</ele><time>2026-03-28T10:44:58.413Z</time></trkpt><trkpt lat="41.04195" lon="14.55513"><ele>281.5</ele><time>2026-03-28T10:44:59.415Z</time></trkpt><trkpt lat="41.0418817" lon="14.5550933"><ele>282.33333333333337</ele><time>2026-03-28T10:45:00.413Z</time></trkpt><trkpt lat="41.0418033" lon="14.5550583"><ele>283.1666666666667</ele><time>2026-03-28T10:45:01.413Z</time></trkpt><trkpt lat="41.0417283" lon="14.5550233"><ele>284.0</ele><time>2026-03-28T10:45:02.413Z</time></trkpt><trkpt lat="41.04166" lon="14.55498"><ele>284.0</ele><time>2026-03-28T10:45:03.413Z</time></trkpt><trkpt lat="41.04159" lon="14.5549367"><ele>284.0</ele><time>2026-03-28T10:45:04.413Z</time></trkpt><trkpt lat="41.0415217" lon="14.554885"><ele>284.0</ele><time>2026-03-28T10:45:05.413Z</time></trkpt><trkpt lat="41.041455" lon="14.5548367"><ele>284.0</ele><time>2026-03-28T10:45:06.413Z</time></trkpt><trkpt lat="41.0413883" lon="14.5547883"><ele>284.0</ele><time>2026-03-28T10:45:07.414Z</time></trkpt><trkpt lat="41.0413167" lon="14.55474"><ele>284.0</ele><time>2026-03-28T10:45:08.412Z</time></trkpt><trkpt lat="41.041245" lon="14.554695"><ele>284.0</ele><time>2026-03-28T10:45:09.414Z</time></trkpt><trkpt lat="41.0411767" lon="14.5546467"><ele>284.0</ele><time>2026-03-28T10:45:10.413Z</time></trkpt><trkpt lat="41.0411067" lon="14.5546017"><ele>284.0</ele><time>2026-03-28T10:45:11.414Z</time></trkpt><trkpt lat="41.041035" lon="14.5545667"><ele>284.0</ele><time>2026-03-28T10:45:12.413Z</time></trkpt><trkpt lat="41.04095" lon="14.55455"><ele>284.0</ele><time>2026-03-28T10:45:13.414Z</time></trkpt><trkpt lat="41.0408683" lon="14.554545"><ele>284.0</ele><time>2026-03-28T10:45:14.413Z</time></trkpt><trkpt lat="41.0407867" lon="14.5545667"><ele>284.2857142857143</ele><time>2026-03-28T10:45:15.413Z</time></trkpt><trkpt lat="41.0407117" lon="14.55459"><ele>284.57142857142856</ele><time>2026-03-28T10:45:16.413Z</time></trkpt><trkpt lat="41.0406367" lon="14.5546183"><ele>284.85714285714283</ele><time>2026-03-28T10:45:17.413Z</time></trkpt><trkpt lat="41.0405667" lon="14.5546517"><ele>285.1428571428571</ele><time>2026-03-28T10:45:18.413Z</time></trkpt><trkpt lat="41.0404967" lon="14.554685"><ele>285.42857142857144</ele><time>2026-03-28T10:45:19.413Z</time></trkpt><trkpt lat="41.0404333" lon="14.5547083"><ele>285.71428571428567</ele><time>2026-03-28T10:45:20.413Z</time></trkpt><trkpt lat="41.0403667" lon="14.5547417"><ele>286.0</ele><time>2026-03-28T10:45:21.413Z</time></trkpt><trkpt lat="41.0403017" lon="14.5547567"><ele>286.0</ele><time>2026-03-28T10:45:22.413Z</time></trkpt><trkpt lat="41.040175" lon="14.5547517"><ele>286.0</ele><time>2026-03-28T10:45:24.413Z</time></trkpt><trkpt lat="41.040115" lon="14.5547217"><ele>286.0</ele><time>2026-03-28T10:45:25.414Z</time></trkpt><trkpt lat="41.0400583" lon="14.5546783"><ele>286.0</ele><time>2026-03-28T10:45:26.414Z</time></trkpt><trkpt lat="41.0400033" lon="14.55462"><ele>286.0</ele><time>2026-03-28T10:45:27.413Z</time></trkpt><trkpt lat="41.0399617" lon="14.5545467"><ele>286.0</ele><time>2026-03-28T10:45:28.412Z</time></trkpt><trkpt lat="41.0399283" lon="14.55447"><ele>286.4285714285714</ele><time>2026-03-28T10:45:29.413Z</time></trkpt><trkpt lat="41.0399067" lon="14.5543833"><ele>286.85714285714283</ele><time>2026-03-28T10:45:30.412Z</time></trkpt><trkpt lat="41.0398833" lon="14.554295"><ele>287.2857142857143</ele><time>2026-03-28T10:45:31.414Z</time></trkpt><trkpt lat="41.039855" lon="14.5542067"><ele>287.71428571428567</ele><time>2026-03-28T10:45:32.413Z</time></trkpt><trkpt lat="41.0398333" lon="14.55412"><ele>288.1428571428571</ele><time>2026-03-28T10:45:33.413Z</time></trkpt><trkpt lat="41.03981" lon="14.554035"><ele>288.57142857142856</ele><time>2026-03-28T10:45:34.414Z</time></trkpt><trkpt lat="41.0397833" lon="14.553945"><ele>289.0</ele><time>2026-03-28T10:45:35.413Z</time></trkpt><trkpt lat="41.03976" lon="14.5538567"><ele>289.0</ele><time>2026-03-28T10:45:36.413Z</time></trkpt><trkpt lat="41.0397483" lon="14.553765"><ele>289.0</ele><time>2026-03-28T10:45:37.413Z</time></trkpt><trkpt lat="41.0397267" lon="14.5536833"><ele>289.0</ele><time>2026-03-28T10:45:38.414Z</time></trkpt><trkpt lat="41.0397067" lon="14.5536017"><ele>289.0</ele><time>2026-03-28T10:45:39.413Z</time></trkpt><trkpt lat="41.0396833" lon="14.55352"><ele>289.0</ele><time>2026-03-28T10:45:40.413Z</time></trkpt><trkpt lat="41.0396667" lon="14.5534367"><ele>289.0</ele><time>2026-03-28T10:45:41.414Z</time></trkpt><trkpt lat="41.0396167" lon="14.5532833"><ele>289.3333333333333</ele><time>2026-03-28T10:45:43.415Z</time></trkpt><trkpt lat="41.0395783" lon="14.5531683"><ele>289.66666666666663</ele><time>2026-03-28T10:45:45.414Z</time></trkpt><trkpt lat="41.039515" lon="14.5531483"><ele>290.0</ele><time>2026-03-28T10:45:49.413Z</time></trkpt><trkpt lat="41.03945" lon="14.5531767"><ele>290.3333333333333</ele><time>2026-03-28T10:45:54.413Z</time></trkpt><trkpt lat="41.0393583" lon="14.5531783"><ele>290.6666666666667</ele><time>2026-03-28T10:45:57.414Z</time></trkpt><trkpt lat="41.0392717" lon="14.5532133"><ele>291.0</ele><time>2026-03-28T10:46:00.413Z</time></trkpt><trkpt lat="41.03921" lon="14.55324"><ele>291.0</ele><time>2026-03-28T10:46:02.413Z</time></trkpt><trkpt lat="41.039145" lon="14.553275"><ele>291.0</ele><time>2026-03-28T10:46:04.413Z</time></trkpt><trkpt lat="41.0390683" lon="14.5533033"><ele>291.0</ele><time>2026-03-28T10:46:06.413Z</time></trkpt><trkpt lat="41.03899" lon="14.5533133"><ele>291.0</ele><time>2026-03-28T10:46:08.412Z</time></trkpt><trkpt lat="41.038905" lon="14.5533433"><ele>291.0</ele><time>2026-03-28T10:46:10.413Z</time></trkpt><trkpt lat="41.0388367" lon="14.55338"><ele>291.0</ele><time>2026-03-28T10:46:12.413Z</time></trkpt><trkpt lat="41.0387633" lon="14.5534217"><ele>291.6666666666667</ele><time>2026-03-28T10:46:14.413Z</time></trkpt><trkpt lat="41.0386717" lon="14.5534683"><ele>292.3333333333333</ele><time>2026-03-28T10:46:16.413Z</time></trkpt><trkpt lat="41.0385967" lon="14.5534767"><ele>293.0</ele><time>2026-03-28T10:46:18.413Z</time></trkpt><trkpt lat="41.038535" lon="14.5534383"><ele>293.66666666666663</ele><time>2026-03-28T10:46:20.414Z</time></trkpt><trkpt lat="41.03848" lon="14.5533333"><ele>294.3333333333333</ele><time>2026-03-28T10:46:23.413Z</time></trkpt><trkpt lat="41.0384533" lon="14.553245"><ele>295.0</ele><time>2026-03-28T10:46:25.413Z</time></trkpt><trkpt lat="41.0384183" lon="14.553135"><ele>295.0</ele><time>2026-03-28T10:46:27.413Z</time></trkpt><trkpt lat="41.0383833" lon="14.55302"><ele>295.0</ele><time>2026-03-28T10:46:29.414Z</time></trkpt><trkpt lat="41.0383517" lon="14.5529183"><ele>295.0</ele><time>2026-03-28T10:46:31.413Z</time></trkpt><trkpt lat="41.0383033" lon="14.55281"><ele>295.0</ele><time>2026-03-28T10:46:33.413Z</time></trkpt><trkpt lat="41.03826" lon="14.5526833"><ele>295.0</ele><time>2026-03-28T10:46:35.413Z</time></trkpt><trkpt lat="41.0381833" lon="14.55257"><ele>296.0</ele><time>2026-03-28T10:46:37.413Z</time></trkpt><trkpt lat="41.0381417" lon="14.55245"><ele>297.0</ele><time>2026-03-28T10:46:39.414Z</time></trkpt><trkpt lat="41.0380967" lon="14.55233"><ele>298.0</ele><time>2026-03-28T10:46:41.413Z</time></trkpt><trkpt lat="41.03806" lon="14.5522083"><ele>299.0</ele><time>2026-03-28T10:46:43.413Z</time></trkpt><trkpt lat="41.038025" lon="14.5520967"><ele>300.0</ele><time>2026-03-28T10:46:45.415Z</time></trkpt><trkpt lat="41.0379817" lon="14.55197"><ele>300.0</ele><time>2026-03-28T10:46:47.413Z</time></trkpt><trkpt lat="41.0379483" lon="14.5518583"><ele>300.0</ele><time>2026-03-28T10:46:49.413Z</time></trkpt><trkpt lat="41.037905" lon="14.55173"><ele>300.0</ele><time>2026-03-28T10:46:52.412Z</time></trkpt><trkpt lat="41.037875" lon="14.5516417"><ele>300.0</ele><time>2026-03-28T10:46:55.413Z</time></trkpt><trkpt lat="41.0378783" lon="14.5515333"><ele>300.0</ele><time>2026-03-28T10:47:08.412Z</time></trkpt><trkpt lat="41.0378633" lon="14.5514367"><ele>300.0</ele><time>2026-03-28T10:47:10.413Z</time></trkpt><trkpt lat="41.0378267" lon="14.5513283"><ele>300.0</ele><time>2026-03-28T10:47:12.412Z</time></trkpt><trkpt lat="41.0377833" lon="14.5512017"><ele>300.0</ele><time>2026-03-28T10:47:14.415Z</time></trkpt><trkpt lat="41.0377333" lon="14.5510583"><ele>300.0</ele><time>2026-03-28T10:47:16.414Z</time></trkpt><trkpt lat="41.03767" lon="14.55092"><ele>300.0</ele><time>2026-03-28T10:47:18.413Z</time></trkpt><trkpt lat="41.037615" lon="14.550775"><ele>300.0</ele><time>2026-03-28T10:47:20.414Z</time></trkpt><trkpt lat="41.0375567" lon="14.5506283"><ele>300.0</ele><time>2026-03-28T10:47:22.413Z</time></trkpt><trkpt lat="41.0374933" lon="14.5504833"><ele>300.0</ele><time>2026-03-28T10:47:24.412Z</time></trkpt><trkpt lat="41.0374583" lon="14.5504117"><ele>300.0</ele><time>2026-03-28T10:47:25.414Z</time></trkpt><trkpt lat="41.0374283" lon="14.5503383"><ele>300.0</ele><time>2026-03-28T10:47:26.414Z</time></trkpt><trkpt lat="41.0373983" lon="14.5502633"><ele>300.0</ele><time>2026-03-28T10:47:27.415Z</time></trkpt><trkpt lat="41.0373717" lon="14.55018"><ele>299.99999999999994</ele><time>2026-03-28T10:47:28.413Z</time></trkpt><trkpt lat="41.037345" lon="14.5501017"><ele>300.0</ele><time>2026-03-28T10:47:29.414Z</time></trkpt><trkpt lat="41.0373167" lon="14.550015"><ele>300.0</ele><time>2026-03-28T10:47:30.413Z</time></trkpt><trkpt lat="41.0372833" lon="14.5499333"><ele>300.0</ele><time>2026-03-28T10:47:31.414Z</time></trkpt><trkpt lat="41.0372533" lon="14.54985"><ele>300.0</ele><time>2026-03-28T10:47:32.414Z</time></trkpt><trkpt lat="41.0372233" lon="14.5497567"><ele>299.99999999999994</ele><time>2026-03-28T10:47:33.413Z</time></trkpt><trkpt lat="41.0371833" lon="14.5496717"><ele>300.0</ele><time>2026-03-28T10:47:34.413Z</time></trkpt><trkpt lat="41.03715" lon="14.5495767"><ele>299.1666666666667</ele><time>2026-03-28T10:47:35.413Z</time></trkpt><trkpt lat="41.0371167" lon="14.5494767"><ele>298.3333333333333</ele><time>2026-03-28T10:47:36.414Z</time></trkpt><trkpt lat="41.03708" lon="14.5493767"><ele>297.5</ele><time>2026-03-28T10:47:37.416Z</time></trkpt><trkpt lat="41.03705" lon="14.5492717"><ele>296.66666666666663</ele><time>2026-03-28T10:47:38.413Z</time></trkpt><trkpt lat="41.037015" lon="14.5491567"><ele>295.8333333333333</ele><time>2026-03-28T10:47:39.413Z</time></trkpt><trkpt lat="41.0369733" lon="14.549045"><ele>295.0</ele><time>2026-03-28T10:47:40.413Z</time></trkpt><trkpt lat="41.0369267" lon="14.54893"><ele>295.0</ele><time>2026-03-28T10:47:41.414Z</time></trkpt><trkpt lat="41.0368783" lon="14.5488117"><ele>295.0</ele><time>2026-03-28T10:47:42.415Z</time></trkpt><trkpt lat="41.03683" lon="14.5486917"><ele>295.0</ele><time>2026-03-28T10:47:43.414Z</time></trkpt><trkpt lat="41.03679" lon="14.548565"><ele>295.0</ele><time>2026-03-28T10:47:44.413Z</time></trkpt><trkpt lat="41.03674" lon="14.5484333"><ele>295.0</ele><time>2026-03-28T10:47:45.413Z</time></trkpt><trkpt lat="41.03669" lon="14.5483"><ele>294.25</ele><time>2026-03-28T10:47:46.413Z</time></trkpt><trkpt lat="41.0366433" lon="14.5481633"><ele>293.5</ele><time>2026-03-28T10:47:47.414Z</time></trkpt><trkpt lat="41.0365917" lon="14.5480233"><ele>292.75</ele><time>2026-03-28T10:47:48.415Z</time></trkpt><trkpt lat="41.0365367" lon="14.5478833"><ele>292.0</ele><time>2026-03-28T10:47:49.414Z</time></trkpt><trkpt lat="41.03649" lon="14.5477333"><ele>291.5</ele><time>2026-03-28T10:47:50.413Z</time></trkpt><trkpt lat="41.0364267" lon="14.5475917"><ele>291.0</ele><time>2026-03-28T10:47:51.413Z</time></trkpt><trkpt lat="41.036375" lon="14.5474433"><ele>290.5</ele><time>2026-03-28T10:47:52.414Z</time></trkpt><trkpt lat="41.0363217" lon="14.5472917"><ele>290.0</ele><time>2026-03-28T10:47:53.414Z</time></trkpt><trkpt lat="41.0362517" lon="14.5471267"><ele>289.2</ele><time>2026-03-28T10:47:54.413Z</time></trkpt><trkpt lat="41.0361983" lon="14.5469833"><ele>288.4</ele><time>2026-03-28T10:47:55.414Z</time></trkpt><trkpt lat="41.0361583" lon="14.5468617"><ele>287.6</ele><time>2026-03-28T10:47:56.413Z</time></trkpt><trkpt lat="41.0361267" lon="14.54676"><ele>286.8</ele><time>2026-03-28T10:47:57.413Z</time></trkpt><trkpt lat="41.0361" lon="14.5466667"><ele>286.0</ele><time>2026-03-28T10:47:58.416Z</time></trkpt><trkpt lat="41.0360683" lon="14.5465817"><ele>286.0</ele><time>2026-03-28T10:47:59.413Z</time></trkpt><trkpt lat="41.0360317" lon="14.54649"><ele>286.0</ele><time>2026-03-28T10:48:00.413Z</time></trkpt><trkpt lat="41.0359967" lon="14.54639"><ele>286.0</ele><time>2026-03-28T10:48:01.419Z</time></trkpt><trkpt lat="41.035945" lon="14.546295"><ele>286.0</ele><time>2026-03-28T10:48:02.412Z</time></trkpt><trkpt lat="41.035895" lon="14.546185"><ele>286.0</ele><time>2026-03-28T10:48:03.413Z</time></trkpt><trkpt lat="41.035855" lon="14.546065"><ele>286.0</ele><time>2026-03-28T10:48:04.413Z</time></trkpt><trkpt lat="41.0358067" lon="14.5459383"><ele>285.75</ele><time>2026-03-28T10:48:05.414Z</time></trkpt><trkpt lat="41.035755" lon="14.5458083"><ele>285.5</ele><time>2026-03-28T10:48:06.413Z</time></trkpt><trkpt lat="41.0356983" lon="14.5456767"><ele>285.25</ele><time>2026-03-28T10:48:07.414Z</time></trkpt><trkpt lat="41.0356433" lon="14.5455383"><ele>285.0</ele><time>2026-03-28T10:48:08.414Z</time></trkpt><trkpt lat="41.03559" lon="14.5454083"><ele>284.2</ele><time>2026-03-28T10:48:09.413Z</time></trkpt><trkpt lat="41.03554" lon="14.54529"><ele>283.4</ele><time>2026-03-28T10:48:10.413Z</time></trkpt><trkpt lat="41.035495" lon="14.5451783"><ele>282.6</ele><time>2026-03-28T10:48:11.414Z</time></trkpt><trkpt lat="41.03546" lon="14.5450683"><ele>281.8</ele><time>2026-03-28T10:48:12.414Z</time></trkpt><trkpt lat="41.03543" lon="14.5449533"><ele>281.0</ele><time>2026-03-28T10:48:13.414Z</time></trkpt><trkpt lat="41.0354183" lon="14.5448267"><ele>281.0</ele><time>2026-03-28T10:48:14.414Z</time></trkpt><trkpt lat="41.0354067" lon="14.5446983"><ele>281.0</ele><time>2026-03-28T10:48:15.413Z</time></trkpt><trkpt lat="41.0354" lon="14.5445567"><ele>281.0</ele><time>2026-03-28T10:48:16.412Z</time></trkpt><trkpt lat="41.03539" lon="14.54441"><ele>281.0</ele><time>2026-03-28T10:48:17.414Z</time></trkpt><trkpt lat="41.035375" lon="14.5442583"><ele>281.0</ele><time>2026-03-28T10:48:18.416Z</time></trkpt><trkpt lat="41.0353617" lon="14.5441"><ele>280.0</ele><time>2026-03-28T10:48:19.413Z</time></trkpt><trkpt lat="41.0353417" lon="14.5439383"><ele>279.0</ele><time>2026-03-28T10:48:20.415Z</time></trkpt><trkpt lat="41.0353183" lon="14.5437733"><ele>278.0</ele><time>2026-03-28T10:48:21.413Z</time></trkpt><trkpt lat="41.0352967" lon="14.5436017"><ele>277.0</ele><time>2026-03-28T10:48:22.413Z</time></trkpt><trkpt lat="41.03528" lon="14.5434217"><ele>274.75</ele><time>2026-03-28T10:48:23.413Z</time></trkpt><trkpt lat="41.0352633" lon="14.54324"><ele>272.5</ele><time>2026-03-28T10:48:24.413Z</time></trkpt><trkpt lat="41.03525" lon="14.5430483"><ele>270.25</ele><time>2026-03-28T10:48:25.413Z</time></trkpt><trkpt lat="41.035235" lon="14.542855"><ele>268.0</ele><time>2026-03-28T10:48:26.414Z</time></trkpt><trkpt lat="41.035215" lon="14.5426567"><ele>265.3333333333333</ele><time>2026-03-28T10:48:27.413Z</time></trkpt><trkpt lat="41.0351917" lon="14.5424583"><ele>262.6666666666667</ele><time>2026-03-28T10:48:28.413Z</time></trkpt><trkpt lat="41.0351733" lon="14.5422533"><ele>260.0</ele><time>2026-03-28T10:48:29.415Z</time></trkpt><trkpt lat="41.0351617" lon="14.5420367"><ele>258.33333333333337</ele><time>2026-03-28T10:48:30.413Z</time></trkpt><trkpt lat="41.0351633" lon="14.54182"><ele>256.6666666666667</ele><time>2026-03-28T10:48:31.414Z</time></trkpt><trkpt lat="41.0351733" lon="14.541615"><ele>255.0</ele><time>2026-03-28T10:48:32.414Z</time></trkpt><trkpt lat="41.0352067" lon="14.5414133"><ele>255.0</ele><time>2026-03-28T10:48:33.412Z</time></trkpt><trkpt lat="41.03523" lon="14.5412233"><ele>255.0</ele><time>2026-03-28T10:48:34.413Z</time></trkpt><trkpt lat="41.03524" lon="14.541035"><ele>255.0</ele><time>2026-03-28T10:48:35.414Z</time></trkpt><trkpt lat="41.0352283" lon="14.5408467"><ele>255.0</ele><time>2026-03-28T10:48:36.414Z</time></trkpt><trkpt lat="41.0351983" lon="14.5406583"><ele>253.75</ele><time>2026-03-28T10:48:37.414Z</time></trkpt><trkpt lat="41.0351667" lon="14.540465"><ele>252.5</ele><time>2026-03-28T10:48:38.414Z</time></trkpt><trkpt lat="41.0351367" lon="14.5402683"><ele>251.25</ele><time>2026-03-28T10:48:39.413Z</time></trkpt><trkpt lat="41.0351117" lon="14.540075"><ele>250.0</ele><time>2026-03-28T10:48:40.414Z</time></trkpt><trkpt lat="41.0350983" lon="14.539875"><ele>249.33333333333331</ele><time>2026-03-28T10:48:41.414Z</time></trkpt><trkpt lat="41.0351033" lon="14.5396767"><ele>248.66666666666669</ele><time>2026-03-28T10:48:42.413Z</time></trkpt><trkpt lat="41.03513" lon="14.53948"><ele>248.0</ele><time>2026-03-28T10:48:43.414Z</time></trkpt><trkpt lat="41.0351583" lon="14.5392833"><ele>246.33333333333334</ele><time>2026-03-28T10:48:44.416Z</time></trkpt><trkpt lat="41.0351883" lon="14.539085"><ele>244.66666666666669</ele><time>2026-03-28T10:48:45.413Z</time></trkpt><trkpt lat="41.0352133" lon="14.5388883"><ele>243.0</ele><time>2026-03-28T10:48:46.414Z</time></trkpt><trkpt lat="41.0352533" lon="14.53869"><ele>240.33333333333331</ele><time>2026-03-28T10:48:47.414Z</time></trkpt><trkpt lat="41.0353117" lon="14.5385"><ele>237.66666666666666</ele><time>2026-03-28T10:48:48.414Z</time></trkpt><trkpt lat="41.0353867" lon="14.5383267"><ele>235.0</ele><time>2026-03-28T10:48:49.414Z</time></trkpt><trkpt lat="41.0354817" lon="14.5381683"><ele>235.0</ele><time>2026-03-28T10:48:50.414Z</time></trkpt><trkpt lat="41.0355867" lon="14.5380083"><ele>235.0</ele><time>2026-03-28T10:48:51.413Z</time></trkpt><trkpt lat="41.035685" lon="14.53785"><ele>235.0</ele><time>2026-03-28T10:48:52.414Z</time></trkpt><trkpt lat="41.035785" lon="14.5376833"><ele>235.66666666666666</ele><time>2026-03-28T10:48:53.414Z</time></trkpt><trkpt lat="41.0358817" lon="14.5375167"><ele>236.33333333333331</ele><time>2026-03-28T10:48:54.413Z</time></trkpt><trkpt lat="41.0359733" lon="14.5373433"><ele>237.0</ele><time>2026-03-28T10:48:55.414Z</time></trkpt><trkpt lat="41.0360517" lon="14.5371683"><ele>236.25</ele><time>2026-03-28T10:48:56.413Z</time></trkpt><trkpt lat="41.0361167" lon="14.5369883"><ele>235.5</ele><time>2026-03-28T10:48:57.413Z</time></trkpt><trkpt lat="41.0361617" lon="14.5368033"><ele>234.75</ele><time>2026-03-28T10:48:58.413Z</time></trkpt><trkpt lat="41.036195" lon="14.5366083"><ele>234.0</ele><time>2026-03-28T10:48:59.414Z</time></trkpt><trkpt lat="41.036215" lon="14.5364083"><ele>232.5</ele><time>2026-03-28T10:49:00.413Z</time></trkpt><trkpt lat="41.03622" lon="14.536215"><ele>231.0</ele><time>2026-03-28T10:49:01.416Z</time></trkpt><trkpt lat="41.0362283" lon="14.5360167"><ele>229.5</ele><time>2026-03-28T10:49:02.414Z</time></trkpt><trkpt lat="41.03623" lon="14.53582"><ele>228.0</ele><time>2026-03-28T10:49:03.413Z</time></trkpt><trkpt lat="41.036225" lon="14.535625"><ele>228.0</ele><time>2026-03-28T10:49:04.413Z</time></trkpt><trkpt lat="41.036215" lon="14.5354283"><ele>228.0</ele><time>2026-03-28T10:49:05.415Z</time></trkpt><trkpt lat="41.036205" lon="14.5352267"><ele>228.0</ele><time>2026-03-28T10:49:06.414Z</time></trkpt><trkpt lat="41.036195" lon="14.5350267"><ele>227.0</ele><time>2026-03-28T10:49:07.414Z</time></trkpt><trkpt lat="41.0361867" lon="14.5348217"><ele>226.0</ele><time>2026-03-28T10:49:08.413Z</time></trkpt><trkpt lat="41.0361767" lon="14.53462"><ele>225.0</ele><time>2026-03-28T10:49:09.413Z</time></trkpt><trkpt lat="41.0361683" lon="14.534415"><ele>223.66666666666669</ele><time>2026-03-28T10:49:10.413Z</time></trkpt><trkpt lat="41.0361567" lon="14.5342117"><ele>222.33333333333334</ele><time>2026-03-28T10:49:11.414Z</time></trkpt><trkpt lat="41.03614" lon="14.53401"><ele>221.0</ele><time>2026-03-28T10:49:12.414Z</time></trkpt><trkpt lat="41.036125" lon="14.53381"><ele>220.33333333333334</ele><time>2026-03-28T10:49:13.414Z</time></trkpt><trkpt lat="41.0361133" lon="14.5336067"><ele>219.66666666666669</ele><time>2026-03-28T10:49:14.414Z</time></trkpt><trkpt lat="41.0361067" lon="14.5334017"><ele>219.0</ele><time>2026-03-28T10:49:15.414Z</time></trkpt><trkpt lat="41.0360967" lon="14.5332"><ele>219.0</ele><time>2026-03-28T10:49:16.413Z</time></trkpt><trkpt lat="41.036085" lon="14.533"><ele>219.0</ele><time>2026-03-28T10:49:17.415Z</time></trkpt><trkpt lat="41.0360717" lon="14.532795"><ele>219.0</ele><time>2026-03-28T10:49:18.414Z</time></trkpt><trkpt lat="41.036055" lon="14.5326033"><ele>218.75</ele><time>2026-03-28T10:49:19.414Z</time></trkpt><trkpt lat="41.03604" lon="14.532415"><ele>218.5</ele><time>2026-03-28T10:49:20.414Z</time></trkpt><trkpt lat="41.0360233" lon="14.53223"><ele>218.25</ele><time>2026-03-28T10:49:21.413Z</time></trkpt><trkpt lat="41.036015" lon="14.532045"><ele>218.0</ele><time>2026-03-28T10:49:22.414Z</time></trkpt><trkpt lat="41.0360083" lon="14.5318583"><ele>217.25</ele><time>2026-03-28T10:49:23.414Z</time></trkpt><trkpt lat="41.0359967" lon="14.5316767"><ele>216.5</ele><time>2026-03-28T10:49:24.414Z</time></trkpt><trkpt lat="41.03599" lon="14.5314983"><ele>215.75</ele><time>2026-03-28T10:49:25.414Z</time></trkpt><trkpt lat="41.035985" lon="14.5313217"><ele>215.0</ele><time>2026-03-28T10:49:26.415Z</time></trkpt><trkpt lat="41.0359883" lon="14.531145"><ele>214.0</ele><time>2026-03-28T10:49:27.413Z</time></trkpt><trkpt lat="41.0359917" lon="14.530965"><ele>213.0</ele><time>2026-03-28T10:49:28.414Z</time></trkpt><trkpt lat="41.036" lon="14.5307783"><ele>212.0</ele><time>2026-03-28T10:49:29.413Z</time></trkpt><trkpt lat="41.0360083" lon="14.5305967"><ele>211.0</ele><time>2026-03-28T10:49:30.414Z</time></trkpt><trkpt lat="41.03602" lon="14.5304167"><ele>210.25</ele><time>2026-03-28T10:49:31.414Z</time></trkpt><trkpt lat="41.0360333" lon="14.5302317"><ele>209.5</ele><time>2026-03-28T10:49:32.414Z</time></trkpt><trkpt lat="41.0360433" lon="14.5300467"><ele>208.75</ele><time>2026-03-28T10:49:33.414Z</time></trkpt><trkpt lat="41.0360517" lon="14.5298567"><ele>208.0</ele><time>2026-03-28T10:49:34.414Z</time></trkpt><trkpt lat="41.0360617" lon="14.5296683"><ele>207.0</ele><time>2026-03-28T10:49:35.414Z</time></trkpt><trkpt lat="41.0360767" lon="14.5294783"><ele>206.0</ele><time>2026-03-28T10:49:36.413Z</time></trkpt><trkpt lat="41.036085" lon="14.5292867"><ele>205.0</ele><time>2026-03-28T10:49:37.414Z</time></trkpt><trkpt lat="41.03609" lon="14.5290933"><ele>204.0</ele><time>2026-03-28T10:49:38.413Z</time></trkpt><trkpt lat="41.0360967" lon="14.5288983"><ele>203.33333333333331</ele><time>2026-03-28T10:49:39.414Z</time></trkpt><trkpt lat="41.036105" lon="14.5287033"><ele>202.66666666666666</ele><time>2026-03-28T10:49:40.413Z</time></trkpt><trkpt lat="41.0361133" lon="14.5285033"><ele>202.0</ele><time>2026-03-28T10:49:41.414Z</time></trkpt><trkpt lat="41.03612" lon="14.5283"><ele>202.0</ele><time>2026-03-28T10:49:42.413Z</time></trkpt><trkpt lat="41.0361217" lon="14.5280983"><ele>202.0</ele><time>2026-03-28T10:49:43.414Z</time></trkpt><trkpt lat="41.036125" lon="14.5278983"><ele>202.0</ele><time>2026-03-28T10:49:44.413Z</time></trkpt><trkpt lat="41.0361317" lon="14.5277017"><ele>201.5</ele><time>2026-03-28T10:49:45.414Z</time></trkpt><trkpt lat="41.0361333" lon="14.5275033"><ele>201.0</ele><time>2026-03-28T10:49:46.413Z</time></trkpt><trkpt lat="41.0361417" lon="14.52731"><ele>200.5</ele><time>2026-03-28T10:49:47.414Z</time></trkpt><trkpt lat="41.0361467" lon="14.5271283"><ele>200.0</ele><time>2026-03-28T10:49:48.413Z</time></trkpt><trkpt lat="41.0361517" lon="14.52695"><ele>199.25</ele><time>2026-03-28T10:49:49.414Z</time></trkpt><trkpt lat="41.0361583" lon="14.5267683"><ele>198.5</ele><time>2026-03-28T10:49:50.413Z</time></trkpt><trkpt lat="41.0361617" lon="14.5265883"><ele>197.75</ele><time>2026-03-28T10:49:51.413Z</time></trkpt><trkpt lat="41.0361667" lon="14.5264067"><ele>197.0</ele><time>2026-03-28T10:49:52.414Z</time></trkpt><trkpt lat="41.036175" lon="14.5262217"><ele>196.25</ele><time>2026-03-28T10:49:53.414Z</time></trkpt><trkpt lat="41.0361933" lon="14.52603"><ele>195.5</ele><time>2026-03-28T10:49:54.414Z</time></trkpt><trkpt lat="41.0361933" lon="14.5258483"><ele>194.75</ele><time>2026-03-28T10:49:55.413Z</time></trkpt><trkpt lat="41.03619" lon="14.5256683"><ele>194.0</ele><time>2026-03-28T10:49:56.414Z</time></trkpt><trkpt lat="41.0361833" lon="14.5254883"><ele>193.5</ele><time>2026-03-28T10:49:57.413Z</time></trkpt><trkpt lat="41.03617" lon="14.52531"><ele>193.0</ele><time>2026-03-28T10:49:58.413Z</time></trkpt><trkpt lat="41.03615" lon="14.5251267"><ele>192.5</ele><time>2026-03-28T10:49:59.414Z</time></trkpt><trkpt lat="41.0361267" lon="14.52494"><ele>192.0</ele><time>2026-03-28T10:50:00.414Z</time></trkpt><trkpt lat="41.036095" lon="14.5247567"><ele>192.0</ele><time>2026-03-28T10:50:01.414Z</time></trkpt><trkpt lat="41.0360583" lon="14.5245717"><ele>192.0</ele><time>2026-03-28T10:50:02.414Z</time></trkpt><trkpt lat="41.0360217" lon="14.52438"><ele>192.0</ele><time>2026-03-28T10:50:03.412Z</time></trkpt><trkpt lat="41.035985" lon="14.5241883"><ele>192.0</ele><time>2026-03-28T10:50:04.413Z</time></trkpt><trkpt lat="41.035945" lon="14.5239967"><ele>191.33333333333334</ele><time>2026-03-28T10:50:05.414Z</time></trkpt><trkpt lat="41.0359067" lon="14.5238"><ele>190.66666666666669</ele><time>2026-03-28T10:50:06.413Z</time></trkpt><trkpt lat="41.03587" lon="14.523605"><ele>190.0</ele><time>2026-03-28T10:50:07.414Z</time></trkpt><trkpt lat="41.0358333" lon="14.523405"><ele>186.66666666666669</ele><time>2026-03-28T10:50:08.414Z</time></trkpt><trkpt lat="41.035795" lon="14.5232067"><ele>183.33333333333334</ele><time>2026-03-28T10:50:09.414Z</time></trkpt><trkpt lat="41.0357583" lon="14.523005"><ele>180.0</ele><time>2026-03-28T10:50:10.416Z</time></trkpt><trkpt lat="41.0357183" lon="14.5228067"><ele>179.66666666666666</ele><time>2026-03-28T10:50:11.414Z</time></trkpt><trkpt lat="41.0356817" lon="14.522605"><ele>179.33333333333331</ele><time>2026-03-28T10:50:12.414Z</time></trkpt><trkpt lat="41.0356483" lon="14.522405"><ele>179.0</ele><time>2026-03-28T10:50:13.414Z</time></trkpt><trkpt lat="41.035615" lon="14.52221"><ele>178.75</ele><time>2026-03-28T10:50:14.414Z</time></trkpt><trkpt lat="41.0355817" lon="14.5220167"><ele>178.5</ele><time>2026-03-28T10:50:15.414Z</time></trkpt><trkpt lat="41.03555" lon="14.521825"><ele>178.25</ele><time>2026-03-28T10:50:16.414Z</time></trkpt><trkpt lat="41.0355233" lon="14.5216333"><ele>178.0</ele><time>2026-03-28T10:50:17.414Z</time></trkpt><trkpt lat="41.0355067" lon="14.5214417"><ele>178.0</ele><time>2026-03-28T10:50:18.414Z</time></trkpt><trkpt lat="41.03551" lon="14.521245"><ele>178.0</ele><time>2026-03-28T10:50:19.414Z</time></trkpt><trkpt lat="41.03552" lon="14.5210567"><ele>178.0</ele><time>2026-03-28T10:50:20.414Z</time></trkpt><trkpt lat="41.0355417" lon="14.5208683"><ele>178.0</ele><time>2026-03-28T10:50:21.413Z</time></trkpt><trkpt lat="41.0355667" lon="14.5206867"><ele>177.5</ele><time>2026-03-28T10:50:22.413Z</time></trkpt><trkpt lat="41.0355917" lon="14.5205117"><ele>177.0</ele><time>2026-03-28T10:50:23.415Z</time></trkpt><trkpt lat="41.0356167" lon="14.520335"><ele>176.5</ele><time>2026-03-28T10:50:24.414Z</time></trkpt><trkpt lat="41.0356433" lon="14.520155"><ele>176.0</ele><time>2026-03-28T10:50:25.414Z</time></trkpt><trkpt lat="41.0356667" lon="14.51997"><ele>175.25</ele><time>2026-03-28T10:50:26.413Z</time></trkpt><trkpt lat="41.03568" lon="14.5197867"><ele>174.5</ele><time>2026-03-28T10:50:27.413Z</time></trkpt><trkpt lat="41.0356883" lon="14.5196067"><ele>173.75</ele><time>2026-03-28T10:50:28.42Z</time></trkpt><trkpt lat="41.0356933" lon="14.519425"><ele>173.0</ele><time>2026-03-28T10:50:29.414Z</time></trkpt><trkpt lat="41.0356917" lon="14.51924"><ele>172.0</ele><time>2026-03-28T10:50:30.414Z</time></trkpt><trkpt lat="41.03568" lon="14.5190583"><ele>171.0</ele><time>2026-03-28T10:50:31.415Z</time></trkpt><trkpt lat="41.0356683" lon="14.51888"><ele>170.0</ele><time>2026-03-28T10:50:32.414Z</time></trkpt><trkpt lat="41.0356517" lon="14.5187033"><ele>169.0</ele><time>2026-03-28T10:50:33.414Z</time></trkpt><trkpt lat="41.0356417" lon="14.5185217"><ele>168.25</ele><time>2026-03-28T10:50:34.414Z</time></trkpt><trkpt lat="41.0356267" lon="14.5183367"><ele>167.5</ele><time>2026-03-28T10:50:35.414Z</time></trkpt><trkpt lat="41.0356133" lon="14.5181517"><ele>166.75</ele><time>2026-03-28T10:50:36.414Z</time></trkpt><trkpt lat="41.03559" lon="14.5179717"><ele>166.0</ele><time>2026-03-28T10:50:37.414Z</time></trkpt><trkpt lat="41.035555" lon="14.517795"><ele>165.75</ele><time>2026-03-28T10:50:38.414Z</time></trkpt><trkpt lat="41.0355083" lon="14.5176217"><ele>165.5</ele><time>2026-03-28T10:50:39.413Z</time></trkpt><trkpt lat="41.03546" lon="14.5174467"><ele>165.25</ele><time>2026-03-28T10:50:40.414Z</time></trkpt><trkpt lat="41.0354" lon="14.5172733"><ele>165.0</ele><time>2026-03-28T10:50:41.414Z</time></trkpt><trkpt lat="41.0353367" lon="14.5171033"><ele>165.0</ele><time>2026-03-28T10:50:42.414Z</time></trkpt><trkpt lat="41.035275" lon="14.5169317"><ele>165.0</ele><time>2026-03-28T10:50:43.414Z</time></trkpt><trkpt lat="41.0352083" lon="14.5167667"><ele>165.0</ele><time>2026-03-28T10:50:44.414Z</time></trkpt><trkpt lat="41.0351483" lon="14.5165967"><ele>165.0</ele><time>2026-03-28T10:50:45.414Z</time></trkpt><trkpt lat="41.035095" lon="14.516425"><ele>165.0</ele><time>2026-03-28T10:50:46.415Z</time></trkpt><trkpt lat="41.035045" lon="14.5162467"><ele>165.0</ele><time>2026-03-28T10:50:47.415Z</time></trkpt><trkpt lat="41.0349967" lon="14.516075"><ele>165.0</ele><time>2026-03-28T10:50:48.415Z</time></trkpt><trkpt lat="41.0349467" lon="14.515905"><ele>165.0</ele><time>2026-03-28T10:50:49.415Z</time></trkpt><trkpt lat="41.0348983" lon="14.5157317"><ele>163.5</ele><time>2026-03-28T10:50:50.415Z</time></trkpt><trkpt lat="41.0348517" lon="14.5155583"><ele>162.0</ele><time>2026-03-28T10:50:51.414Z</time></trkpt><trkpt lat="41.0348133" lon="14.515385"><ele>160.5</ele><time>2026-03-28T10:50:52.415Z</time></trkpt><trkpt lat="41.034775" lon="14.5152083"><ele>159.0</ele><time>2026-03-28T10:50:53.415Z</time></trkpt><trkpt lat="41.03474" lon="14.5150317"><ele>158.75</ele><time>2026-03-28T10:50:54.415Z</time></trkpt><trkpt lat="41.0347083" lon="14.5148567"><ele>158.5</ele><time>2026-03-28T10:50:55.415Z</time></trkpt><trkpt lat="41.034675" lon="14.514685"><ele>158.25</ele><time>2026-03-28T10:50:56.415Z</time></trkpt><trkpt lat="41.0346467" lon="14.51451"><ele>158.0</ele><time>2026-03-28T10:50:57.414Z</time></trkpt><trkpt lat="41.0346183" lon="14.5143333"><ele>157.25</ele><time>2026-03-28T10:50:58.415Z</time></trkpt><trkpt lat="41.0345883" lon="14.5141583"><ele>156.5</ele><time>2026-03-28T10:50:59.415Z</time></trkpt><trkpt lat="41.0345617" lon="14.5139817"><ele>155.75</ele><time>2026-03-28T10:51:00.414Z</time></trkpt><trkpt lat="41.0345317" lon="14.5138083"><ele>155.0</ele><time>2026-03-28T10:51:01.415Z</time></trkpt><trkpt lat="41.034505" lon="14.5136383"><ele>155.0</ele><time>2026-03-28T10:51:02.414Z</time></trkpt><trkpt lat="41.03448" lon="14.5134683"><ele>155.0</ele><time>2026-03-28T10:51:03.414Z</time></trkpt><trkpt lat="41.0344567" lon="14.5133"><ele>155.0</ele><time>2026-03-28T10:51:04.415Z</time></trkpt><trkpt lat="41.0344317" lon="14.5131333"><ele>155.0</ele><time>2026-03-28T10:51:05.415Z</time></trkpt><trkpt lat="41.0344067" lon="14.5129683"><ele>154.75</ele><time>2026-03-28T10:51:06.415Z</time></trkpt><trkpt lat="41.0343817" lon="14.512805"><ele>154.5</ele><time>2026-03-28T10:51:07.415Z</time></trkpt><trkpt lat="41.03436" lon="14.51264"><ele>154.25</ele><time>2026-03-28T10:51:08.415Z</time></trkpt><trkpt lat="41.034335" lon="14.51248"><ele>154.0</ele><time>2026-03-28T10:51:09.414Z</time></trkpt><trkpt lat="41.0343083" lon="14.5123167"><ele>154.0</ele><time>2026-03-28T10:51:10.415Z</time></trkpt><trkpt lat="41.03428" lon="14.5121517"><ele>154.0</ele><time>2026-03-28T10:51:11.414Z</time></trkpt><trkpt lat="41.03425" lon="14.51199"><ele>154.0</ele><time>2026-03-28T10:51:12.415Z</time></trkpt><trkpt lat="41.0342217" lon="14.5118217"><ele>154.0</ele><time>2026-03-28T10:51:13.416Z</time></trkpt><trkpt lat="41.0342" lon="14.5116533"><ele>154.0</ele><time>2026-03-28T10:51:14.415Z</time></trkpt><trkpt lat="41.0341717" lon="14.511485"><ele>154.0</ele><time>2026-03-28T10:51:15.414Z</time></trkpt><trkpt lat="41.0341417" lon="14.51131"><ele>154.0</ele><time>2026-03-28T10:51:16.415Z</time></trkpt><trkpt lat="41.034115" lon="14.5111333"><ele>154.0</ele><time>2026-03-28T10:51:17.415Z</time></trkpt><trkpt lat="41.0340883" lon="14.510955"><ele>153.25</ele><time>2026-03-28T10:51:18.415Z</time></trkpt><trkpt lat="41.034065" lon="14.5107767"><ele>152.5</ele><time>2026-03-28T10:51:19.415Z</time></trkpt><trkpt lat="41.03404" lon="14.5105967"><ele>151.75</ele><time>2026-03-28T10:51:20.415Z</time></trkpt><trkpt lat="41.03402" lon="14.5104133"><ele>151.0</ele><time>2026-03-28T10:51:21.415Z</time></trkpt><trkpt lat="41.034" lon="14.5102317"><ele>150.5</ele><time>2026-03-28T10:51:22.415Z</time></trkpt><trkpt lat="41.0339833" lon="14.51005"><ele>150.0</ele><time>2026-03-28T10:51:23.414Z</time></trkpt><trkpt lat="41.0339733" lon="14.50987"><ele>149.5</ele><time>2026-03-28T10:51:24.415Z</time></trkpt><trkpt lat="41.0339617" lon="14.5097"><ele>149.0</ele><time>2026-03-28T10:51:25.415Z</time></trkpt><trkpt lat="41.0339483" lon="14.5095367"><ele>148.5</ele><time>2026-03-28T10:51:26.415Z</time></trkpt><trkpt lat="41.0339417" lon="14.5093683"><ele>148.0</ele><time>2026-03-28T10:51:27.414Z</time></trkpt><trkpt lat="41.033935" lon="14.5092"><ele>147.5</ele><time>2026-03-28T10:51:28.415Z</time></trkpt><trkpt lat="41.0339217" lon="14.5090367"><ele>147.0</ele><time>2026-03-28T10:51:29.417Z</time></trkpt><trkpt lat="41.033915" lon="14.50887"><ele>147.0</ele><time>2026-03-28T10:51:30.415Z</time></trkpt><trkpt lat="41.0339083" lon="14.5086983"><ele>147.0</ele><time>2026-03-28T10:51:31.415Z</time></trkpt><trkpt lat="41.0339017" lon="14.5085317"><ele>147.0</ele><time>2026-03-28T10:51:32.415Z</time></trkpt><trkpt lat="41.0338933" lon="14.5083683"><ele>147.0</ele><time>2026-03-28T10:51:33.414Z</time></trkpt><trkpt lat="41.0338833" lon="14.5082"><ele>147.0</ele><time>2026-03-28T10:51:34.415Z</time></trkpt><trkpt lat="41.0338733" lon="14.508035"><ele>147.0</ele><time>2026-03-28T10:51:35.415Z</time></trkpt><trkpt lat="41.0338633" lon="14.5078733"><ele>147.0</ele><time>2026-03-28T10:51:36.414Z</time></trkpt><trkpt lat="41.0338533" lon="14.5077033"><ele>147.0</ele><time>2026-03-28T10:51:37.415Z</time></trkpt><trkpt lat="41.0338467" lon="14.507535"><ele>146.25</ele><time>2026-03-28T10:51:38.415Z</time></trkpt><trkpt lat="41.0338367" lon="14.50737"><ele>145.5</ele><time>2026-03-28T10:51:39.414Z</time></trkpt><trkpt lat="41.03383" lon="14.5072067"><ele>144.75</ele><time>2026-03-28T10:51:40.415Z</time></trkpt><trkpt lat="41.0338217" lon="14.5070467"><ele>144.0</ele><time>2026-03-28T10:51:41.416Z</time></trkpt><trkpt lat="41.033815" lon="14.5068867"><ele>143.75</ele><time>2026-03-28T10:51:42.415Z</time></trkpt><trkpt lat="41.0338083" lon="14.5067217"><ele>143.5</ele><time>2026-03-28T10:51:43.415Z</time></trkpt><trkpt lat="41.0338" lon="14.50657"><ele>143.25</ele><time>2026-03-28T10:51:44.415Z</time></trkpt><trkpt lat="41.03379" lon="14.5064183"><ele>143.0</ele><time>2026-03-28T10:51:45.414Z</time></trkpt><trkpt lat="41.0337833" lon="14.5062583"><ele>143.0</ele><time>2026-03-28T10:51:46.415Z</time></trkpt><trkpt lat="41.0337783" lon="14.506105"><ele>143.0</ele><time>2026-03-28T10:51:47.415Z</time></trkpt><trkpt lat="41.03377" lon="14.505955"><ele>143.0</ele><time>2026-03-28T10:51:48.415Z</time></trkpt><trkpt lat="41.0337583" lon="14.5058083"><ele>143.0</ele><time>2026-03-28T10:51:49.415Z</time></trkpt><trkpt lat="41.03375" lon="14.5056583"><ele>143.0</ele><time>2026-03-28T10:51:50.416Z</time></trkpt><trkpt lat="41.0337417" lon="14.5055133"><ele>143.0</ele><time>2026-03-28T10:51:51.415Z</time></trkpt><trkpt lat="41.033735" lon="14.5053617"><ele>143.0</ele><time>2026-03-28T10:51:52.415Z</time></trkpt><trkpt lat="41.0337283" lon="14.5052083"><ele>143.0</ele><time>2026-03-28T10:51:53.415Z</time></trkpt><trkpt lat="41.033715" lon="14.5050567"><ele>142.5</ele><time>2026-03-28T10:51:54.415Z</time></trkpt><trkpt lat="41.033705" lon="14.5049"><ele>142.0</ele><time>2026-03-28T10:51:55.415Z</time></trkpt><trkpt lat="41.0337" lon="14.5047417"><ele>141.5</ele><time>2026-03-28T10:51:56.415Z</time></trkpt><trkpt lat="41.0336983" lon="14.5045833"><ele>141.0</ele><time>2026-03-28T10:51:57.414Z</time></trkpt><trkpt lat="41.03369" lon="14.5044217"><ele>140.25</ele><time>2026-03-28T10:51:58.414Z</time></trkpt><trkpt lat="41.03368" lon="14.50426"><ele>139.5</ele><time>2026-03-28T10:51:59.415Z</time></trkpt><trkpt lat="41.0336683" lon="14.5040983"><ele>138.75</ele><time>2026-03-28T10:52:00.413Z</time></trkpt><trkpt lat="41.033655" lon="14.5039383"><ele>138.0</ele><time>2026-03-28T10:52:01.415Z</time></trkpt><trkpt lat="41.0336467" lon="14.503775"><ele>137.5</ele><time>2026-03-28T10:52:02.415Z</time></trkpt><trkpt lat="41.0336417" lon="14.5036117"><ele>137.0</ele><time>2026-03-28T10:52:03.415Z</time></trkpt><trkpt lat="41.033645" lon="14.5034433"><ele>136.5</ele><time>2026-03-28T10:52:04.415Z</time></trkpt><trkpt lat="41.033645" lon="14.5032783"><ele>136.0</ele><time>2026-03-28T10:52:05.415Z</time></trkpt><trkpt lat="41.0336383" lon="14.5031133"><ele>136.0</ele><time>2026-03-28T10:52:06.415Z</time></trkpt><trkpt lat="41.03363" lon="14.5029467"><ele>136.0</ele><time>2026-03-28T10:52:07.415Z</time></trkpt><trkpt lat="41.0336233" lon="14.50278"><ele>136.0</ele><time>2026-03-28T10:52:08.414Z</time></trkpt><trkpt lat="41.03362" lon="14.5026133"><ele>136.0</ele><time>2026-03-28T10:52:09.416Z</time></trkpt><trkpt lat="41.0336133" lon="14.5024467"><ele>135.5</ele><time>2026-03-28T10:52:10.414Z</time></trkpt><trkpt lat="41.0336067" lon="14.5022817"><ele>135.0</ele><time>2026-03-28T10:52:11.416Z</time></trkpt><trkpt lat="41.0336017" lon="14.5021167"><ele>134.5</ele><time>2026-03-28T10:52:12.415Z</time></trkpt><trkpt lat="41.033595" lon="14.5019533"><ele>134.0</ele><time>2026-03-28T10:52:13.415Z</time></trkpt><trkpt lat="41.0335883" lon="14.50179"><ele>133.5</ele><time>2026-03-28T10:52:14.415Z</time></trkpt><trkpt lat="41.033585" lon="14.5016217"><ele>133.0</ele><time>2026-03-28T10:52:15.414Z</time></trkpt><trkpt lat="41.0335767" lon="14.5014533"><ele>132.5</ele><time>2026-03-28T10:52:16.414Z</time></trkpt><trkpt lat="41.0335667" lon="14.5012883"><ele>132.0</ele><time>2026-03-28T10:52:17.415Z</time></trkpt><trkpt lat="41.03356" lon="14.50112"><ele>131.5</ele><time>2026-03-28T10:52:18.415Z</time></trkpt><trkpt lat="41.0335517" lon="14.500955"><ele>131.0</ele><time>2026-03-28T10:52:19.415Z</time></trkpt><trkpt lat="41.0335417" lon="14.500795"><ele>130.5</ele><time>2026-03-28T10:52:20.414Z</time></trkpt><trkpt lat="41.0335317" lon="14.50063"><ele>130.0</ele><time>2026-03-28T10:52:21.414Z</time></trkpt><trkpt lat="41.03352" lon="14.5004633"><ele>129.5</ele><time>2026-03-28T10:52:22.414Z</time></trkpt><trkpt lat="41.03351" lon="14.500295"><ele>129.0</ele><time>2026-03-28T10:52:23.415Z</time></trkpt><trkpt lat="41.033495" lon="14.5001333"><ele>128.5</ele><time>2026-03-28T10:52:24.415Z</time></trkpt><trkpt lat="41.0334717" lon="14.4999733"><ele>128.0</ele><time>2026-03-28T10:52:25.416Z</time></trkpt><trkpt lat="41.0334433" lon="14.4998167"><ele>128.0</ele><time>2026-03-28T10:52:26.415Z</time></trkpt><trkpt lat="41.0334167" lon="14.4996583"><ele>128.0</ele><time>2026-03-28T10:52:27.414Z</time></trkpt><trkpt lat="41.03339" lon="14.4995"><ele>128.0</ele><time>2026-03-28T10:52:28.414Z</time></trkpt><trkpt lat="41.0333583" lon="14.4993433"><ele>128.0</ele><time>2026-03-28T10:52:29.413Z</time></trkpt><trkpt lat="41.033325" lon="14.4991883"><ele>127.25</ele><time>2026-03-28T10:52:30.414Z</time></trkpt><trkpt lat="41.033285" lon="14.499035"><ele>126.5</ele><time>2026-03-28T10:52:31.414Z</time></trkpt><trkpt lat="41.0332383" lon="14.498885"><ele>125.75</ele><time>2026-03-28T10:52:32.413Z</time></trkpt><trkpt lat="41.033195" lon="14.4987317"><ele>125.0</ele><time>2026-03-28T10:52:33.413Z</time></trkpt><trkpt lat="41.0331483" lon="14.4985783"><ele>125.0</ele><time>2026-03-28T10:52:34.414Z</time></trkpt><trkpt lat="41.033095" lon="14.498425"><ele>125.0</ele><time>2026-03-28T10:52:35.413Z</time></trkpt><trkpt lat="41.0330333" lon="14.4982717"><ele>125.0</ele><time>2026-03-28T10:52:36.415Z</time></trkpt><trkpt lat="41.0329683" lon="14.4981217"><ele>125.0</ele><time>2026-03-28T10:52:37.414Z</time></trkpt><trkpt lat="41.0328983" lon="14.4979683"><ele>124.75</ele><time>2026-03-28T10:52:38.415Z</time></trkpt><trkpt lat="41.0328283" lon="14.4978167"><ele>124.5</ele><time>2026-03-28T10:52:39.414Z</time></trkpt><trkpt lat="41.0327533" lon="14.4976633"><ele>124.25</ele><time>2026-03-28T10:52:40.414Z</time></trkpt><trkpt lat="41.0326817" lon="14.4975117"><ele>124.0</ele><time>2026-03-28T10:52:41.414Z</time></trkpt><trkpt lat="41.03261" lon="14.49736"><ele>124.0</ele><time>2026-03-28T10:52:42.414Z</time></trkpt><trkpt lat="41.0325417" lon="14.4972083"><ele>124.0</ele><time>2026-03-28T10:52:43.413Z</time></trkpt><trkpt lat="41.0324783" lon="14.4970567"><ele>124.0</ele><time>2026-03-28T10:52:44.414Z</time></trkpt><trkpt lat="41.0324133" lon="14.4969033"><ele>124.0</ele><time>2026-03-28T10:52:45.414Z</time></trkpt><trkpt lat="41.0323483" lon="14.4967517"><ele>123.25</ele><time>2026-03-28T10:52:46.414Z</time></trkpt><trkpt lat="41.03228" lon="14.4965983"><ele>122.5</ele><time>2026-03-28T10:52:47.414Z</time></trkpt><trkpt lat="41.0322117" lon="14.4964467"><ele>121.75</ele><time>2026-03-28T10:52:48.413Z</time></trkpt><trkpt lat="41.03214" lon="14.496295"><ele>121.0</ele><time>2026-03-28T10:52:49.414Z</time></trkpt><trkpt lat="41.0320717" lon="14.4961417"><ele>120.5</ele><time>2026-03-28T10:52:50.414Z</time></trkpt><trkpt lat="41.032005" lon="14.4959883"><ele>120.0</ele><time>2026-03-28T10:52:51.414Z</time></trkpt><trkpt lat="41.0319383" lon="14.49584"><ele>119.5</ele><time>2026-03-28T10:52:52.414Z</time></trkpt><trkpt lat="41.0318717" lon="14.4956933"><ele>119.0</ele><time>2026-03-28T10:52:53.414Z</time></trkpt><trkpt lat="41.031805" lon="14.4955517"><ele>119.0</ele><time>2026-03-28T10:52:54.414Z</time></trkpt><trkpt lat="41.0317383" lon="14.4954083"><ele>119.0</ele><time>2026-03-28T10:52:55.414Z</time></trkpt><trkpt lat="41.0316733" lon="14.495265"><ele>119.0</ele><time>2026-03-28T10:52:56.414Z</time></trkpt><trkpt lat="41.0316133" lon="14.4951233"><ele>119.0</ele><time>2026-03-28T10:52:57.414Z</time></trkpt><trkpt lat="41.031555" lon="14.4949817"><ele>118.75</ele><time>2026-03-28T10:52:58.414Z</time></trkpt><trkpt lat="41.031495" lon="14.494845"><ele>118.5</ele><time>2026-03-28T10:52:59.414Z</time></trkpt><trkpt lat="41.03144" lon="14.4947067"><ele>118.25</ele><time>2026-03-28T10:53:00.413Z</time></trkpt><trkpt lat="41.03139" lon="14.4945667"><ele>118.0</ele><time>2026-03-28T10:53:01.414Z</time></trkpt><trkpt lat="41.0313417" lon="14.4944267"><ele>117.25</ele><time>2026-03-28T10:53:02.414Z</time></trkpt><trkpt lat="41.0312883" lon="14.4942867"><ele>116.5</ele><time>2026-03-28T10:53:03.414Z</time></trkpt><trkpt lat="41.03123" lon="14.4941483"><ele>115.75</ele><time>2026-03-28T10:53:04.413Z</time></trkpt><trkpt lat="41.03117" lon="14.4940083"><ele>115.0</ele><time>2026-03-28T10:53:05.414Z</time></trkpt><trkpt lat="41.0311167" lon="14.4938717"><ele>115.2</ele><time>2026-03-28T10:53:06.414Z</time></trkpt><trkpt lat="41.031065" lon="14.4937417"><ele>115.4</ele><time>2026-03-28T10:53:07.414Z</time></trkpt><trkpt lat="41.031015" lon="14.4936117"><ele>115.6</ele><time>2026-03-28T10:53:08.414Z</time></trkpt><trkpt lat="41.0309633" lon="14.4934883"><ele>115.8</ele><time>2026-03-28T10:53:09.412Z</time></trkpt><trkpt lat="41.03091" lon="14.4933617"><ele>116.0</ele><time>2026-03-28T10:53:10.415Z</time></trkpt><trkpt lat="41.03086" lon="14.493235"><ele>116.0</ele><time>2026-03-28T10:53:11.414Z</time></trkpt><trkpt lat="41.0308117" lon="14.4931117"><ele>116.0</ele><time>2026-03-28T10:53:12.414Z</time></trkpt><trkpt lat="41.0307583" lon="14.49299"><ele>116.0</ele><time>2026-03-28T10:53:13.414Z</time></trkpt><trkpt lat="41.030705" lon="14.4928733"><ele>116.0</ele><time>2026-03-28T10:53:14.414Z</time></trkpt><trkpt lat="41.0306517" lon="14.4927583"><ele>116.0</ele><time>2026-03-28T10:53:15.413Z</time></trkpt><trkpt lat="41.0306017" lon="14.49264"><ele>115.4</ele><time>2026-03-28T10:53:16.414Z</time></trkpt><trkpt lat="41.0305567" lon="14.4925217"><ele>114.8</ele><time>2026-03-28T10:53:17.414Z</time></trkpt><trkpt lat="41.030515" lon="14.4924"><ele>114.20000000000002</ele><time>2026-03-28T10:53:18.414Z</time></trkpt><trkpt lat="41.03048" lon="14.492275"><ele>113.60000000000001</ele><time>2026-03-28T10:53:19.414Z</time></trkpt><trkpt lat="41.0304467" lon="14.492145"><ele>113.0</ele><time>2026-03-28T10:53:20.414Z</time></trkpt><trkpt lat="41.0304217" lon="14.49201"><ele>113.0</ele><time>2026-03-28T10:53:21.413Z</time></trkpt><trkpt lat="41.0303983" lon="14.49187"><ele>113.00000000000001</ele><time>2026-03-28T10:53:22.414Z</time></trkpt><trkpt lat="41.0303767" lon="14.4917283"><ele>113.00000000000001</ele><time>2026-03-28T10:53:23.414Z</time></trkpt><trkpt lat="41.0303583" lon="14.491585"><ele>113.0</ele><time>2026-03-28T10:53:24.414Z</time></trkpt><trkpt lat="41.03034" lon="14.49144"><ele>113.0</ele><time>2026-03-28T10:53:25.413Z</time></trkpt><trkpt lat="41.03032" lon="14.491295"><ele>112.80000000000001</ele><time>2026-03-28T10:53:26.413Z</time></trkpt><trkpt lat="41.0303017" lon="14.49115"><ele>112.60000000000001</ele><time>2026-03-28T10:53:27.413Z</time></trkpt><trkpt lat="41.030285" lon="14.4910067"><ele>112.39999999999999</ele><time>2026-03-28T10:53:28.413Z</time></trkpt><trkpt lat="41.030265" lon="14.4908617"><ele>112.19999999999999</ele><time>2026-03-28T10:53:29.413Z</time></trkpt><trkpt lat="41.0302383" lon="14.490715"><ele>112.0</ele><time>2026-03-28T10:53:30.413Z</time></trkpt><trkpt lat="41.0302133" lon="14.4905683"><ele>111.6</ele><time>2026-03-28T10:53:31.413Z</time></trkpt><trkpt lat="41.0301917" lon="14.4904233"><ele>111.19999999999999</ele><time>2026-03-28T10:53:32.413Z</time></trkpt><trkpt lat="41.03017" lon="14.4902783"><ele>110.8</ele><time>2026-03-28T10:53:33.413Z</time></trkpt><trkpt lat="41.0301433" lon="14.4901333"><ele>110.4</ele><time>2026-03-28T10:53:34.413Z</time></trkpt><trkpt lat="41.03012" lon="14.4899867"><ele>110.0</ele><time>2026-03-28T10:53:35.413Z</time></trkpt><trkpt lat="41.0301017" lon="14.4898383"><ele>110.0</ele><time>2026-03-28T10:53:36.413Z</time></trkpt><trkpt lat="41.0300783" lon="14.489695"><ele>110.0</ele><time>2026-03-28T10:53:37.413Z</time></trkpt><trkpt lat="41.0300567" lon="14.4895517"><ele>110.0</ele><time>2026-03-28T10:53:38.413Z</time></trkpt><trkpt lat="41.0300367" lon="14.4894067"><ele>110.0</ele><time>2026-03-28T10:53:39.413Z</time></trkpt><trkpt lat="41.0300167" lon="14.4892567"><ele>110.0</ele><time>2026-03-28T10:53:40.413Z</time></trkpt><trkpt lat="41.029995" lon="14.4891033"><ele>109.0</ele><time>2026-03-28T10:53:41.413Z</time></trkpt><trkpt lat="41.0299683" lon="14.4889567"><ele>108.0</ele><time>2026-03-28T10:53:42.413Z</time></trkpt><trkpt lat="41.029945" lon="14.48881"><ele>107.0</ele><time>2026-03-28T10:53:43.413Z</time></trkpt><trkpt lat="41.0299217" lon="14.4886633"><ele>106.0</ele><time>2026-03-28T10:53:44.413Z</time></trkpt><trkpt lat="41.0299" lon="14.4885183"><ele>106.0</ele><time>2026-03-28T10:53:45.412Z</time></trkpt><trkpt lat="41.0298767" lon="14.4883733"><ele>106.0</ele><time>2026-03-28T10:53:46.413Z</time></trkpt><trkpt lat="41.0298517" lon="14.4882317"><ele>106.0</ele><time>2026-03-28T10:53:47.413Z</time></trkpt><trkpt lat="41.02983" lon="14.4880883"><ele>106.0</ele><time>2026-03-28T10:53:48.413Z</time></trkpt><trkpt lat="41.0298083" lon="14.4879467"><ele>106.0</ele><time>2026-03-28T10:53:49.412Z</time></trkpt><trkpt lat="41.0297883" lon="14.487805"><ele>105.8</ele><time>2026-03-28T10:53:50.412Z</time></trkpt><trkpt lat="41.0297683" lon="14.4876667"><ele>105.6</ele><time>2026-03-28T10:53:51.412Z</time></trkpt><trkpt lat="41.0297567" lon="14.4875217"><ele>105.4</ele><time>2026-03-28T10:53:52.412Z</time></trkpt><trkpt lat="41.0297483" lon="14.487375"><ele>105.2</ele><time>2026-03-28T10:53:53.413Z</time></trkpt><trkpt lat="41.0297433" lon="14.48723"><ele>105.0</ele><time>2026-03-28T10:53:54.413Z</time></trkpt><trkpt lat="41.0297283" lon="14.4870833"><ele>104.6</ele><time>2026-03-28T10:53:55.413Z</time></trkpt><trkpt lat="41.029715" lon="14.486935"><ele>104.2</ele><time>2026-03-28T10:53:56.413Z</time></trkpt><trkpt lat="41.0296983" lon="14.48679"><ele>103.80000000000001</ele><time>2026-03-28T10:53:57.413Z</time></trkpt><trkpt lat="41.0296817" lon="14.4866417"><ele>103.4</ele><time>2026-03-28T10:53:58.413Z</time></trkpt><trkpt lat="41.0296633" lon="14.4864967"><ele>103.0</ele><time>2026-03-28T10:53:59.413Z</time></trkpt><trkpt lat="41.0296533" lon="14.486355"><ele>103.0</ele><time>2026-03-28T10:54:00.413Z</time></trkpt><trkpt lat="41.029645" lon="14.4862133"><ele>103.0</ele><time>2026-03-28T10:54:01.413Z</time></trkpt><trkpt lat="41.0296433" lon="14.486085"><ele>103.0</ele><time>2026-03-28T10:54:02.413Z</time></trkpt><trkpt lat="41.0296367" lon="14.4859633"><ele>103.0</ele><time>2026-03-28T10:54:03.413Z</time></trkpt><trkpt lat="41.0296133" lon="14.4858517"><ele>103.0</ele><time>2026-03-28T10:54:04.412Z</time></trkpt><trkpt lat="41.02958" lon="14.4857383"><ele>103.0</ele><time>2026-03-28T10:54:05.413Z</time></trkpt><trkpt lat="41.02955" lon="14.48562"><ele>103.0</ele><time>2026-03-28T10:54:06.412Z</time></trkpt><trkpt lat="41.029525" lon="14.4854933"><ele>103.0</ele><time>2026-03-28T10:54:07.413Z</time></trkpt><trkpt lat="41.0294983" lon="14.4853717"><ele>103.0</ele><time>2026-03-28T10:54:08.413Z</time></trkpt><trkpt lat="41.0294733" lon="14.4852467"><ele>103.0</ele><time>2026-03-28T10:54:09.413Z</time></trkpt><trkpt lat="41.029445" lon="14.4851217"><ele>103.0</ele><time>2026-03-28T10:54:10.413Z</time></trkpt><trkpt lat="41.0294117" lon="14.4849933"><ele>103.0</ele><time>2026-03-28T10:54:11.413Z</time></trkpt><trkpt lat="41.02938" lon="14.484865"><ele>103.0</ele><time>2026-03-28T10:54:12.413Z</time></trkpt><trkpt lat="41.0293417" lon="14.48474"><ele>103.0</ele><time>2026-03-28T10:54:13.413Z</time></trkpt><trkpt lat="41.0293" lon="14.4846167"><ele>103.0</ele><time>2026-03-28T10:54:14.413Z</time></trkpt><trkpt lat="41.0292483" lon="14.4844967"><ele>103.0</ele><time>2026-03-28T10:54:15.413Z</time></trkpt><trkpt lat="41.0291917" lon="14.4843783"><ele>103.0</ele><time>2026-03-28T10:54:16.412Z</time></trkpt><trkpt lat="41.0291383" lon="14.48426"><ele>103.0</ele><time>2026-03-28T10:54:17.412Z</time></trkpt><trkpt lat="41.0290817" lon="14.4841433"><ele>103.0</ele><time>2026-03-28T10:54:18.413Z</time></trkpt><trkpt lat="41.0290233" lon="14.4840283"><ele>103.0</ele><time>2026-03-28T10:54:19.412Z</time></trkpt><trkpt lat="41.0289617" lon="14.4839217"><ele>102.4</ele><time>2026-03-28T10:54:20.413Z</time></trkpt><trkpt lat="41.0289017" lon="14.4838183"><ele>101.80000000000001</ele><time>2026-03-28T10:54:21.412Z</time></trkpt><trkpt lat="41.02885" lon="14.48371"><ele>101.2</ele><time>2026-03-28T10:54:22.414Z</time></trkpt><trkpt lat="41.0287983" lon="14.4836"><ele>100.6</ele><time>2026-03-28T10:54:23.414Z</time></trkpt><trkpt lat="41.0287517" lon="14.483485"><ele>100.0</ele><time>2026-03-28T10:54:24.412Z</time></trkpt><trkpt lat="41.0287033" lon="14.483365"><ele>100.0</ele><time>2026-03-28T10:54:25.414Z</time></trkpt><trkpt lat="41.02865" lon="14.4832383"><ele>100.0</ele><time>2026-03-28T10:54:26.413Z</time></trkpt><trkpt lat="41.0285917" lon="14.48311"><ele>100.0</ele><time>2026-03-28T10:54:27.413Z</time></trkpt><trkpt lat="41.0285367" lon="14.48298"><ele>100.0</ele><time>2026-03-28T10:54:28.414Z</time></trkpt><trkpt lat="41.0284767" lon="14.4828517"><ele>100.0</ele><time>2026-03-28T10:54:29.413Z</time></trkpt><trkpt lat="41.0284117" lon="14.4827267"><ele>99.5</ele><time>2026-03-28T10:54:30.412Z</time></trkpt><trkpt lat="41.02835" lon="14.4826033"><ele>99.0</ele><time>2026-03-28T10:54:31.413Z</time></trkpt><trkpt lat="41.0282867" lon="14.4824767"><ele>98.5</ele><time>2026-03-28T10:54:32.413Z</time></trkpt><trkpt lat="41.0282217" lon="14.48235"><ele>98.0</ele><time>2026-03-28T10:54:33.413Z</time></trkpt><trkpt lat="41.0281583" lon="14.4822267"><ele>97.60000000000001</ele><time>2026-03-28T10:54:34.414Z</time></trkpt><trkpt lat="41.0280933" lon="14.4821083"><ele>97.2</ele><time>2026-03-28T10:54:35.415Z</time></trkpt><trkpt lat="41.02803" lon="14.4819867"><ele>96.8</ele><time>2026-03-28T10:54:36.413Z</time></trkpt><trkpt lat="41.027965" lon="14.4818633"><ele>96.4</ele><time>2026-03-28T10:54:37.413Z</time></trkpt><trkpt lat="41.027905" lon="14.48174"><ele>96.0</ele><time>2026-03-28T10:54:38.414Z</time></trkpt><trkpt lat="41.027845" lon="14.4816183"><ele>95.6</ele><time>2026-03-28T10:54:39.413Z</time></trkpt><trkpt lat="41.02779" lon="14.481495"><ele>95.19999999999999</ele><time>2026-03-28T10:54:40.415Z</time></trkpt><trkpt lat="41.0277317" lon="14.4813717"><ele>94.80000000000001</ele><time>2026-03-28T10:54:41.414Z</time></trkpt><trkpt lat="41.0276717" lon="14.481255"><ele>94.4</ele><time>2026-03-28T10:54:42.413Z</time></trkpt><trkpt lat="41.0276133" lon="14.4811383"><ele>94.0</ele><time>2026-03-28T10:54:43.413Z</time></trkpt><trkpt lat="41.027555" lon="14.48102"><ele>93.80000000000001</ele><time>2026-03-28T10:54:44.414Z</time></trkpt><trkpt lat="41.0274967" lon="14.4809033"><ele>93.60000000000001</ele><time>2026-03-28T10:54:45.413Z</time></trkpt><trkpt lat="41.0274367" lon="14.480785"><ele>93.4</ele><time>2026-03-28T10:54:46.413Z</time></trkpt><trkpt lat="41.02738" lon="14.4806667"><ele>93.2</ele><time>2026-03-28T10:54:47.413Z</time></trkpt><trkpt lat="41.02732" lon="14.4805533"><ele>93.0</ele><time>2026-03-28T10:54:48.415Z</time></trkpt><trkpt lat="41.0272617" lon="14.4804383"><ele>92.4</ele><time>2026-03-28T10:54:49.413Z</time></trkpt><trkpt lat="41.027205" lon="14.4803233"><ele>91.80000000000001</ele><time>2026-03-28T10:54:50.416Z</time></trkpt><trkpt lat="41.0271433" lon="14.48021"><ele>91.2</ele><time>2026-03-28T10:54:51.413Z</time></trkpt><trkpt lat="41.0270817" lon="14.4801"><ele>90.6</ele><time>2026-03-28T10:54:52.413Z</time></trkpt><trkpt lat="41.0270217" lon="14.4799883"><ele>90.0</ele><time>2026-03-28T10:54:53.414Z</time></trkpt><trkpt lat="41.0269617" lon="14.4798767"><ele>90.0</ele><time>2026-03-28T10:54:54.413Z</time></trkpt><trkpt lat="41.0268983" lon="14.47977"><ele>90.0</ele><time>2026-03-28T10:54:55.413Z</time></trkpt><trkpt lat="41.0268367" lon="14.479665"><ele>90.0</ele><time>2026-03-28T10:54:56.413Z</time></trkpt><trkpt lat="41.0267783" lon="14.479555"><ele>90.0</ele><time>2026-03-28T10:54:57.412Z</time></trkpt><trkpt lat="41.0267217" lon="14.4794433"><ele>90.0</ele><time>2026-03-28T10:54:58.413Z</time></trkpt><trkpt lat="41.0266717" lon="14.4793333"><ele>89.0</ele><time>2026-03-28T10:54:59.413Z</time></trkpt><trkpt lat="41.0266267" lon="14.479225"><ele>88.0</ele><time>2026-03-28T10:55:00.414Z</time></trkpt><trkpt lat="41.0265817" lon="14.479115"><ele>87.0</ele><time>2026-03-28T10:55:01.413Z</time></trkpt><trkpt lat="41.0265367" lon="14.4790033"><ele>86.0</ele><time>2026-03-28T10:55:02.413Z</time></trkpt><trkpt lat="41.0264967" lon="14.4788867"><ele>85.0</ele><time>2026-03-28T10:55:03.413Z</time></trkpt><trkpt lat="41.0264533" lon="14.4787683"><ele>84.6</ele><time>2026-03-28T10:55:04.413Z</time></trkpt><trkpt lat="41.02641" lon="14.4786533"><ele>84.2</ele><time>2026-03-28T10:55:05.413Z</time></trkpt><trkpt lat="41.0263667" lon="14.4785367"><ele>83.80000000000001</ele><time>2026-03-28T10:55:06.413Z</time></trkpt><trkpt lat="41.02632" lon="14.4784233"><ele>83.4</ele><time>2026-03-28T10:55:07.413Z</time></trkpt><trkpt lat="41.026285" lon="14.4783083"><ele>83.0</ele><time>2026-03-28T10:55:08.413Z</time></trkpt><trkpt lat="41.0262583" lon="14.4781883"><ele>83.0</ele><time>2026-03-28T10:55:09.413Z</time></trkpt><trkpt lat="41.0262367" lon="14.47807"><ele>83.0</ele><time>2026-03-28T10:55:10.413Z</time></trkpt><trkpt lat="41.0262183" lon="14.4779517"><ele>83.0</ele><time>2026-03-28T10:55:11.413Z</time></trkpt><trkpt lat="41.0262083" lon="14.47784"><ele>83.0</ele><time>2026-03-28T10:55:12.413Z</time></trkpt><trkpt lat="41.0262017" lon="14.4777267"><ele>83.0</ele><time>2026-03-28T10:55:13.413Z</time></trkpt><trkpt lat="41.0261983" lon="14.4776117"><ele>83.0</ele><time>2026-03-28T10:55:14.413Z</time></trkpt><trkpt lat="41.0262" lon="14.4774983"><ele>83.2</ele><time>2026-03-28T10:55:15.412Z</time></trkpt><trkpt lat="41.0262083" lon="14.477375"><ele>83.4</ele><time>2026-03-28T10:55:16.413Z</time></trkpt><trkpt lat="41.026215" lon="14.4772617"><ele>83.60000000000001</ele><time>2026-03-28T10:55:17.412Z</time></trkpt><trkpt lat="41.02622" lon="14.4771433"><ele>83.80000000000001</ele><time>2026-03-28T10:55:18.414Z</time></trkpt><trkpt lat="41.0262133" lon="14.4770267"><ele>84.0</ele><time>2026-03-28T10:55:19.413Z</time></trkpt><trkpt lat="41.0262133" lon="14.4769033"><ele>84.16666666666667</ele><time>2026-03-28T10:55:20.413Z</time></trkpt><trkpt lat="41.02621" lon="14.47679"><ele>84.33333333333333</ele><time>2026-03-28T10:55:21.413Z</time></trkpt><trkpt lat="41.0262083" lon="14.4766733"><ele>84.5</ele><time>2026-03-28T10:55:22.413Z</time></trkpt><trkpt lat="41.0262033" lon="14.4765617"><ele>84.66666666666666</ele><time>2026-03-28T10:55:23.413Z</time></trkpt><trkpt lat="41.0262117" lon="14.4764467"><ele>84.83333333333333</ele><time>2026-03-28T10:55:24.412Z</time></trkpt><trkpt lat="41.026215" lon="14.4763317"><ele>85.0</ele><time>2026-03-28T10:55:25.413Z</time></trkpt><trkpt lat="41.026215" lon="14.476215"><ele>85.0</ele><time>2026-03-28T10:55:26.413Z</time></trkpt><trkpt lat="41.026205" lon="14.4760983"><ele>85.0</ele><time>2026-03-28T10:55:27.414Z</time></trkpt><trkpt lat="41.0262033" lon="14.47598"><ele>85.0</ele><time>2026-03-28T10:55:28.413Z</time></trkpt><trkpt lat="41.0261983" lon="14.47586"><ele>85.0</ele><time>2026-03-28T10:55:29.413Z</time></trkpt><trkpt lat="41.026195" lon="14.4757417"><ele>85.0</ele><time>2026-03-28T10:55:30.413Z</time></trkpt><trkpt lat="41.0261967" lon="14.4756183"><ele>85.0</ele><time>2026-03-28T10:55:31.413Z</time></trkpt><trkpt lat="41.0262017" lon="14.4754967"><ele>85.0</ele><time>2026-03-28T10:55:32.413Z</time></trkpt><trkpt lat="41.0262067" lon="14.4753733"><ele>85.0</ele><time>2026-03-28T10:55:33.413Z</time></trkpt><trkpt lat="41.0262067" lon="14.4752517"><ele>85.0</ele><time>2026-03-28T10:55:34.413Z</time></trkpt><trkpt lat="41.026205" lon="14.4751317"><ele>85.0</ele><time>2026-03-28T10:55:35.413Z</time></trkpt><trkpt lat="41.0262017" lon="14.4750083"><ele>84.8</ele><time>2026-03-28T10:55:36.413Z</time></trkpt><trkpt lat="41.026195" lon="14.47488"><ele>84.6</ele><time>2026-03-28T10:55:37.413Z</time></trkpt><trkpt lat="41.0261833" lon="14.47475"><ele>84.4</ele><time>2026-03-28T10:55:38.414Z</time></trkpt><trkpt lat="41.0261667" lon="14.4746217"><ele>84.2</ele><time>2026-03-28T10:55:39.413Z</time></trkpt><trkpt lat="41.026145" lon="14.474495"><ele>84.0</ele><time>2026-03-28T10:55:40.413Z</time></trkpt><trkpt lat="41.02612" lon="14.474375"><ele>84.0</ele><time>2026-03-28T10:55:41.413Z</time></trkpt><trkpt lat="41.0260917" lon="14.4742583"><ele>84.0</ele><time>2026-03-28T10:55:42.413Z</time></trkpt><trkpt lat="41.0260567" lon="14.4741383"><ele>84.0</ele><time>2026-03-28T10:55:43.413Z</time></trkpt><trkpt lat="41.0260133" lon="14.474025"><ele>84.0</ele><time>2026-03-28T10:55:44.413Z</time></trkpt><trkpt lat="41.025965" lon="14.473915"><ele>84.0</ele><time>2026-03-28T10:55:45.413Z</time></trkpt><trkpt lat="41.0259167" lon="14.473805"><ele>83.6</ele><time>2026-03-28T10:55:46.413Z</time></trkpt><trkpt lat="41.0258783" lon="14.4736867"><ele>83.2</ele><time>2026-03-28T10:55:47.413Z</time></trkpt><trkpt lat="41.02584" lon="14.4735683"><ele>82.8</ele><time>2026-03-28T10:55:48.413Z</time></trkpt><trkpt lat="41.0257917" lon="14.47345"><ele>82.39999999999999</ele><time>2026-03-28T10:55:49.414Z</time></trkpt><trkpt lat="41.0257433" lon="14.4733267"><ele>82.0</ele><time>2026-03-28T10:55:50.413Z</time></trkpt><trkpt lat="41.0256917" lon="14.473205"><ele>81.8</ele><time>2026-03-28T10:55:51.413Z</time></trkpt><trkpt lat="41.0256467" lon="14.4730783"><ele>81.6</ele><time>2026-03-28T10:55:52.416Z</time></trkpt><trkpt lat="41.0255983" lon="14.4729533"><ele>81.39999999999999</ele><time>2026-03-28T10:55:53.413Z</time></trkpt><trkpt lat="41.02556" lon="14.472825"><ele>81.19999999999999</ele><time>2026-03-28T10:55:54.412Z</time></trkpt><trkpt lat="41.0255183" lon="14.4727"><ele>81.0</ele><time>2026-03-28T10:55:55.414Z</time></trkpt><trkpt lat="41.025485" lon="14.4725733"><ele>80.8</ele><time>2026-03-28T10:55:56.413Z</time></trkpt><trkpt lat="41.0254517" lon="14.4724417"><ele>80.6</ele><time>2026-03-28T10:55:57.413Z</time></trkpt><trkpt lat="41.0254267" lon="14.472305"><ele>80.4</ele><time>2026-03-28T10:55:58.412Z</time></trkpt><trkpt lat="41.0254033" lon="14.472175"><ele>80.2</ele><time>2026-03-28T10:55:59.413Z</time></trkpt><trkpt lat="41.02539" lon="14.4720433"><ele>80.0</ele><time>2026-03-28T10:56:00.412Z</time></trkpt><trkpt lat="41.0253783" lon="14.4719083"><ele>79.8</ele><time>2026-03-28T10:56:01.414Z</time></trkpt><trkpt lat="41.0253767" lon="14.4717717"><ele>79.6</ele><time>2026-03-28T10:56:02.413Z</time></trkpt><trkpt lat="41.025375" lon="14.4716283"><ele>79.4</ele><time>2026-03-28T10:56:03.413Z</time></trkpt><trkpt lat="41.0253783" lon="14.4714917"><ele>79.2</ele><time>2026-03-28T10:56:04.414Z</time></trkpt><trkpt lat="41.0253817" lon="14.471355"><ele>79.0</ele><time>2026-03-28T10:56:05.413Z</time></trkpt><trkpt lat="41.025385" lon="14.4712183"><ele>79.0</ele><time>2026-03-28T10:56:06.413Z</time></trkpt><trkpt lat="41.0253883" lon="14.4710833"><ele>79.0</ele><time>2026-03-28T10:56:07.413Z</time></trkpt><trkpt lat="41.0253883" lon="14.470955"><ele>79.0</ele><time>2026-03-28T10:56:08.413Z</time></trkpt><trkpt lat="41.02539" lon="14.4708267"><ele>79.0</ele><time>2026-03-28T10:56:09.412Z</time></trkpt><trkpt lat="41.0253883" lon="14.4707"><ele>79.0</ele><time>2026-03-28T10:56:10.413Z</time></trkpt><trkpt lat="41.0253933" lon="14.4705733"><ele>79.0</ele><time>2026-03-28T10:56:11.413Z</time></trkpt><trkpt lat="41.0254" lon="14.4704433"><ele>79.0</ele><time>2026-03-28T10:56:12.414Z</time></trkpt><trkpt lat="41.0254033" lon="14.4703133"><ele>79.0</ele><time>2026-03-28T10:56:13.412Z</time></trkpt><trkpt lat="41.0254067" lon="14.4701883"><ele>79.0</ele><time>2026-03-28T10:56:14.413Z</time></trkpt><trkpt lat="41.0254083" lon="14.4700617"><ele>79.0</ele><time>2026-03-28T10:56:15.413Z</time></trkpt><trkpt lat="41.0254083" lon="14.46993"><ele>78.8</ele><time>2026-03-28T10:56:16.413Z</time></trkpt><trkpt lat="41.02541" lon="14.4697983"><ele>78.60000000000001</ele><time>2026-03-28T10:56:17.413Z</time></trkpt><trkpt lat="41.0254133" lon="14.4696667"><ele>78.4</ele><time>2026-03-28T10:56:18.413Z</time></trkpt><trkpt lat="41.0254133" lon="14.4695333"><ele>78.2</ele><time>2026-03-28T10:56:19.414Z</time></trkpt><trkpt lat="41.025415" lon="14.4693967"><ele>78.0</ele><time>2026-03-28T10:56:20.414Z</time></trkpt><trkpt lat="41.025425" lon="14.4692583"><ele>78.0</ele><time>2026-03-28T10:56:21.413Z</time></trkpt><trkpt lat="41.025435" lon="14.4691183"><ele>78.0</ele><time>2026-03-28T10:56:22.413Z</time></trkpt><trkpt lat="41.0254517" lon="14.468975"><ele>78.0</ele><time>2026-03-28T10:56:23.414Z</time></trkpt><trkpt lat="41.0254683" lon="14.4688333"><ele>78.0</ele><time>2026-03-28T10:56:24.414Z</time></trkpt><trkpt lat="41.0254917" lon="14.4686917"><ele>78.0</ele><time>2026-03-28T10:56:25.414Z</time></trkpt><trkpt lat="41.025515" lon="14.4685517"><ele>77.6</ele><time>2026-03-28T10:56:26.413Z</time></trkpt><trkpt lat="41.0255383" lon="14.46841"><ele>77.19999999999999</ele><time>2026-03-28T10:56:27.413Z</time></trkpt><trkpt lat="41.02556" lon="14.4682633"><ele>76.8</ele><time>2026-03-28T10:56:28.412Z</time></trkpt><trkpt lat="41.0255817" lon="14.4681183"><ele>76.39999999999999</ele><time>2026-03-28T10:56:29.414Z</time></trkpt><trkpt lat="41.0256" lon="14.4679783"><ele>76.0</ele><time>2026-03-28T10:56:30.413Z</time></trkpt><trkpt lat="41.0256233" lon="14.4678367"><ele>75.39999999999999</ele><time>2026-03-28T10:56:31.414Z</time></trkpt><trkpt lat="41.02565" lon="14.467695"><ele>74.8</ele><time>2026-03-28T10:56:32.413Z</time></trkpt><trkpt lat="41.0256783" lon="14.467545"><ele>74.19999999999999</ele><time>2026-03-28T10:56:33.413Z</time></trkpt><trkpt lat="41.0257" lon="14.4674"><ele>73.6</ele><time>2026-03-28T10:56:34.414Z</time></trkpt><trkpt lat="41.025725" lon="14.4672633"><ele>73.0</ele><time>2026-03-28T10:56:35.414Z</time></trkpt><trkpt lat="41.02575" lon="14.4671217"><ele>72.8</ele><time>2026-03-28T10:56:36.413Z</time></trkpt><trkpt lat="41.025775" lon="14.4669833"><ele>72.6</ele><time>2026-03-28T10:56:37.414Z</time></trkpt><trkpt lat="41.0258" lon="14.46684"><ele>72.4</ele><time>2026-03-28T10:56:38.413Z</time></trkpt><trkpt lat="41.0258267" lon="14.466695"><ele>72.2</ele><time>2026-03-28T10:56:39.413Z</time></trkpt><trkpt lat="41.025855" lon="14.4665533"><ele>72.0</ele><time>2026-03-28T10:56:40.413Z</time></trkpt><trkpt lat="41.025885" lon="14.4664117"><ele>72.6</ele><time>2026-03-28T10:56:41.413Z</time></trkpt><trkpt lat="41.025915" lon="14.466275"><ele>73.2</ele><time>2026-03-28T10:56:42.413Z</time></trkpt><trkpt lat="41.02594" lon="14.466135"><ele>73.8</ele><time>2026-03-28T10:56:43.414Z</time></trkpt><trkpt lat="41.02596" lon="14.4660017"><ele>74.4</ele><time>2026-03-28T10:56:44.413Z</time></trkpt><trkpt lat="41.0259733" lon="14.46587"><ele>75.0</ele><time>2026-03-28T10:56:45.413Z</time></trkpt><trkpt lat="41.0259767" lon="14.4657417"><ele>75.0</ele><time>2026-03-28T10:56:46.413Z</time></trkpt><trkpt lat="41.0259833" lon="14.465615"><ele>75.0</ele><time>2026-03-28T10:56:47.413Z</time></trkpt><trkpt lat="41.0259867" lon="14.4654917"><ele>75.0</ele><time>2026-03-28T10:56:48.413Z</time></trkpt><trkpt lat="41.0259883" lon="14.4653633"><ele>75.0</ele><time>2026-03-28T10:56:49.414Z</time></trkpt><trkpt lat="41.02599" lon="14.4652367"><ele>75.0</ele><time>2026-03-28T10:56:50.412Z</time></trkpt><trkpt lat="41.0259933" lon="14.4651117"><ele>75.0</ele><time>2026-03-28T10:56:51.413Z</time></trkpt><trkpt lat="41.0259933" lon="14.464985"><ele>75.0</ele><time>2026-03-28T10:56:52.414Z</time></trkpt><trkpt lat="41.0259917" lon="14.46486"><ele>75.0</ele><time>2026-03-28T10:56:53.414Z</time></trkpt><trkpt lat="41.02599" lon="14.4647367"><ele>75.0</ele><time>2026-03-28T10:56:54.414Z</time></trkpt><trkpt lat="41.02599" lon="14.4646117"><ele>75.0</ele><time>2026-03-28T10:56:55.414Z</time></trkpt><trkpt lat="41.0259917" lon="14.464485"><ele>75.0</ele><time>2026-03-28T10:56:56.413Z</time></trkpt><trkpt lat="41.025995" lon="14.464355"><ele>75.0</ele><time>2026-03-28T10:56:57.413Z</time></trkpt><trkpt lat="41.025995" lon="14.4642233"><ele>75.0</ele><time>2026-03-28T10:56:58.413Z</time></trkpt><trkpt lat="41.025995" lon="14.4640867"><ele>75.0</ele><time>2026-03-28T10:56:59.413Z</time></trkpt><trkpt lat="41.0260067" lon="14.4639583"><ele>75.0</ele><time>2026-03-28T10:57:00.413Z</time></trkpt><trkpt lat="41.0260083" lon="14.463825"><ele>75.0</ele><time>2026-03-28T10:57:01.413Z</time></trkpt><trkpt lat="41.0260033" lon="14.4636933"><ele>75.0</ele><time>2026-03-28T10:57:02.412Z</time></trkpt><trkpt lat="41.026005" lon="14.4635683"><ele>75.0</ele><time>2026-03-28T10:57:03.413Z</time></trkpt><trkpt lat="41.0260083" lon="14.4634467"><ele>75.0</ele><time>2026-03-28T10:57:04.413Z</time></trkpt><trkpt lat="41.0260067" lon="14.4633267"><ele>75.0</ele><time>2026-03-28T10:57:05.413Z</time></trkpt><trkpt lat="41.0260017" lon="14.4632133"><ele>75.0</ele><time>2026-03-28T10:57:06.413Z</time></trkpt><trkpt lat="41.026005" lon="14.4630967"><ele>75.0</ele><time>2026-03-28T10:57:07.414Z</time></trkpt><trkpt lat="41.026005" lon="14.4629817"><ele>75.0</ele><time>2026-03-28T10:57:08.413Z</time></trkpt><trkpt lat="41.0259967" lon="14.4628683"><ele>75.0</ele><time>2026-03-28T10:57:09.412Z</time></trkpt><trkpt lat="41.0259917" lon="14.4627567"><ele>75.0</ele><time>2026-03-28T10:57:10.413Z</time></trkpt><trkpt lat="41.0259917" lon="14.4626433"><ele>75.0</ele><time>2026-03-28T10:57:11.414Z</time></trkpt><trkpt lat="41.0259917" lon="14.4625367"><ele>74.83333333333333</ele><time>2026-03-28T10:57:12.413Z</time></trkpt><trkpt lat="41.0259883" lon="14.4624467"><ele>74.66666666666667</ele><time>2026-03-28T10:57:13.414Z</time></trkpt><trkpt lat="41.0259833" lon="14.4623617"><ele>74.5</ele><time>2026-03-28T10:57:14.413Z</time></trkpt><trkpt lat="41.0259683" lon="14.4622017"><ele>74.33333333333334</ele><time>2026-03-28T10:57:16.412Z</time></trkpt><trkpt lat="41.02597" lon="14.462115"><ele>74.16666666666667</ele><time>2026-03-28T10:57:17.412Z</time></trkpt><trkpt lat="41.025985" lon="14.461955"><ele>74.0</ele><time>2026-03-28T10:57:19.414Z</time></trkpt><trkpt lat="41.0259883" lon="14.46187"><ele>73.85714285714286</ele><time>2026-03-28T10:57:20.413Z</time></trkpt><trkpt lat="41.02599" lon="14.4617817"><ele>73.71428571428571</ele><time>2026-03-28T10:57:21.413Z</time></trkpt><trkpt lat="41.025985" lon="14.46169"><ele>73.57142857142857</ele><time>2026-03-28T10:57:22.413Z</time></trkpt><trkpt lat="41.0259783" lon="14.4615967"><ele>73.42857142857143</ele><time>2026-03-28T10:57:23.414Z</time></trkpt><trkpt lat="41.0259733" lon="14.4615033"><ele>73.28571428571429</ele><time>2026-03-28T10:57:24.413Z</time></trkpt><trkpt lat="41.0259683" lon="14.4614067"><ele>73.14285714285714</ele><time>2026-03-28T10:57:25.414Z</time></trkpt><trkpt lat="41.0259617" lon="14.4613083"><ele>73.0</ele><time>2026-03-28T10:57:26.413Z</time></trkpt><trkpt lat="41.0259583" lon="14.4612133"><ele>73.33333333333333</ele><time>2026-03-28T10:57:27.414Z</time></trkpt><trkpt lat="41.0259567" lon="14.461115"><ele>73.66666666666666</ele><time>2026-03-28T10:57:28.414Z</time></trkpt><trkpt lat="41.025955" lon="14.4610167"><ele>74.0</ele><time>2026-03-28T10:57:29.413Z</time></trkpt><trkpt lat="41.025955" lon="14.460915"><ele>74.33333333333333</ele><time>2026-03-28T10:57:30.414Z</time></trkpt><trkpt lat="41.025955" lon="14.4608117"><ele>74.66666666666667</ele><time>2026-03-28T10:57:31.414Z</time></trkpt><trkpt lat="41.025955" lon="14.46071"><ele>75.0</ele><time>2026-03-28T10:57:32.413Z</time></trkpt><trkpt lat="41.0259567" lon="14.4606067"><ele>75.0</ele><time>2026-03-28T10:57:33.413Z</time></trkpt><trkpt lat="41.0259567" lon="14.4605033"><ele>75.0</ele><time>2026-03-28T10:57:34.412Z</time></trkpt><trkpt lat="41.025955" lon="14.4604017"><ele>75.0</ele><time>2026-03-28T10:57:35.414Z</time></trkpt><trkpt lat="41.025955" lon="14.4603033"><ele>75.0</ele><time>2026-03-28T10:57:36.413Z</time></trkpt><trkpt lat="41.025955" lon="14.4602033"><ele>75.0</ele><time>2026-03-28T10:57:37.415Z</time></trkpt><trkpt lat="41.025955" lon="14.460105"><ele>75.0</ele><time>2026-03-28T10:57:38.412Z</time></trkpt><trkpt lat="41.025955" lon="14.4600017"><ele>74.83333333333333</ele><time>2026-03-28T10:57:39.412Z</time></trkpt><trkpt lat="41.0259517" lon="14.4598983"><ele>74.66666666666667</ele><time>2026-03-28T10:57:40.413Z</time></trkpt><trkpt lat="41.0259517" lon="14.45979"><ele>74.5</ele><time>2026-03-28T10:57:41.414Z</time></trkpt><trkpt lat="41.0259483" lon="14.4596833"><ele>74.33333333333334</ele><time>2026-03-28T10:57:42.414Z</time></trkpt><trkpt lat="41.0259467" lon="14.459575"><ele>74.16666666666667</ele><time>2026-03-28T10:57:43.414Z</time></trkpt><trkpt lat="41.0259417" lon="14.459465"><ele>74.0</ele><time>2026-03-28T10:57:44.414Z</time></trkpt><trkpt lat="41.0259383" lon="14.4593583"><ele>74.0</ele><time>2026-03-28T10:57:45.413Z</time></trkpt><trkpt lat="41.0259367" lon="14.4592467"><ele>74.0</ele><time>2026-03-28T10:57:46.413Z</time></trkpt><trkpt lat="41.0259283" lon="14.459135"><ele>74.0</ele><time>2026-03-28T10:57:47.413Z</time></trkpt><trkpt lat="41.02592" lon="14.4590233"><ele>74.0</ele><time>2026-03-28T10:57:48.414Z</time></trkpt><trkpt lat="41.0259133" lon="14.45891"><ele>74.0</ele><time>2026-03-28T10:57:49.414Z</time></trkpt><trkpt lat="41.02591" lon="14.4587917"><ele>74.0</ele><time>2026-03-28T10:57:50.413Z</time></trkpt><trkpt lat="41.0259033" lon="14.4586783"><ele>73.33333333333334</ele><time>2026-03-28T10:57:51.415Z</time></trkpt><trkpt lat="41.0258967" lon="14.4585683"><ele>72.66666666666667</ele><time>2026-03-28T10:57:52.413Z</time></trkpt><trkpt lat="41.02589" lon="14.4584567"><ele>72.0</ele><time>2026-03-28T10:57:53.414Z</time></trkpt><trkpt lat="41.025885" lon="14.4583433"><ele>71.33333333333333</ele><time>2026-03-28T10:57:54.413Z</time></trkpt><trkpt lat="41.0258767" lon="14.4582317"><ele>70.66666666666666</ele><time>2026-03-28T10:57:55.414Z</time></trkpt><trkpt lat="41.0258683" lon="14.4581267"><ele>70.0</ele><time>2026-03-28T10:57:56.414Z</time></trkpt><trkpt lat="41.02585" lon="14.4580183"><ele>69.83333333333333</ele><time>2026-03-28T10:57:57.413Z</time></trkpt><trkpt lat="41.025845" lon="14.457905"><ele>69.66666666666666</ele><time>2026-03-28T10:57:58.418Z</time></trkpt><trkpt lat="41.0258367" lon="14.4577883"><ele>69.5</ele><time>2026-03-28T10:57:59.414Z</time></trkpt><trkpt lat="41.0258183" lon="14.4576733"><ele>69.33333333333333</ele><time>2026-03-28T10:58:00.414Z</time></trkpt><trkpt lat="41.0258033" lon="14.4575567"><ele>69.16666666666667</ele><time>2026-03-28T10:58:01.414Z</time></trkpt><trkpt lat="41.0258" lon="14.4574317"><ele>69.0</ele><time>2026-03-28T10:58:02.413Z</time></trkpt><trkpt lat="41.0257967" lon="14.457305"><ele>69.0</ele><time>2026-03-28T10:58:03.414Z</time></trkpt><trkpt lat="41.0257867" lon="14.4571867"><ele>69.0</ele><time>2026-03-28T10:58:04.413Z</time></trkpt><trkpt lat="41.0257783" lon="14.45707"><ele>69.0</ele><time>2026-03-28T10:58:05.414Z</time></trkpt><trkpt lat="41.025775" lon="14.4569517"><ele>69.0</ele><time>2026-03-28T10:58:06.414Z</time></trkpt><trkpt lat="41.0257683" lon="14.45683"><ele>69.0</ele><time>2026-03-28T10:58:07.414Z</time></trkpt><trkpt lat="41.02576" lon="14.4567067"><ele>68.60000000000001</ele><time>2026-03-28T10:58:08.414Z</time></trkpt><trkpt lat="41.0257533" lon="14.456585"><ele>68.2</ele><time>2026-03-28T10:58:09.416Z</time></trkpt><trkpt lat="41.02575" lon="14.4564633"><ele>67.80000000000001</ele><time>2026-03-28T10:58:10.413Z</time></trkpt><trkpt lat="41.0257483" lon="14.4563383"><ele>67.4</ele><time>2026-03-28T10:58:11.414Z</time></trkpt><trkpt lat="41.0257467" lon="14.4562133"><ele>67.0</ele><time>2026-03-28T10:58:12.414Z</time></trkpt><trkpt lat="41.0257467" lon="14.4560933"><ele>67.0</ele><time>2026-03-28T10:58:13.417Z</time></trkpt><trkpt lat="41.0257433" lon="14.455975"><ele>67.0</ele><time>2026-03-28T10:58:14.417Z</time></trkpt><trkpt lat="41.0257367" lon="14.45586"><ele>67.0</ele><time>2026-03-28T10:58:15.414Z</time></trkpt><trkpt lat="41.025725" lon="14.455745"><ele>67.0</ele><time>2026-03-28T10:58:16.413Z</time></trkpt><trkpt lat="41.0257183" lon="14.4556267"><ele>67.0</ele><time>2026-03-28T10:58:17.413Z</time></trkpt><trkpt lat="41.0257117" lon="14.455515"><ele>67.0</ele><time>2026-03-28T10:58:18.414Z</time></trkpt><trkpt lat="41.0257067" lon="14.4554033"><ele>67.0</ele><time>2026-03-28T10:58:19.414Z</time></trkpt><trkpt lat="41.0257017" lon="14.4552933"><ele>67.0</ele><time>2026-03-28T10:58:20.413Z</time></trkpt><trkpt lat="41.0257" lon="14.4551883"><ele>67.0</ele><time>2026-03-28T10:58:21.414Z</time></trkpt><trkpt lat="41.0256967" lon="14.4550883"><ele>67.0</ele><time>2026-03-28T10:58:22.413Z</time></trkpt><trkpt lat="41.0256933" lon="14.4549933"><ele>67.0</ele><time>2026-03-28T10:58:23.413Z</time></trkpt><trkpt lat="41.0256917" lon="14.4548933"><ele>67.0</ele><time>2026-03-28T10:58:24.414Z</time></trkpt><trkpt lat="41.025695" lon="14.4547817"><ele>67.0</ele><time>2026-03-28T10:58:25.414Z</time></trkpt><trkpt lat="41.025695" lon="14.45467"><ele>67.0</ele><time>2026-03-28T10:58:26.413Z</time></trkpt><trkpt lat="41.0256933" lon="14.4545483"><ele>67.0</ele><time>2026-03-28T10:58:27.414Z</time></trkpt><trkpt lat="41.02569" lon="14.4544317"><ele>67.0</ele><time>2026-03-28T10:58:28.413Z</time></trkpt><trkpt lat="41.0256783" lon="14.4543117"><ele>67.0</ele><time>2026-03-28T10:58:29.415Z</time></trkpt><trkpt lat="41.0256667" lon="14.45419"><ele>67.0</ele><time>2026-03-28T10:58:30.414Z</time></trkpt><trkpt lat="41.0256517" lon="14.4540583"><ele>67.0</ele><time>2026-03-28T10:58:31.414Z</time></trkpt><trkpt lat="41.0256417" lon="14.4539233"><ele>67.0</ele><time>2026-03-28T10:58:32.413Z</time></trkpt><trkpt lat="41.025635" lon="14.4537817"><ele>67.0</ele><time>2026-03-28T10:58:33.413Z</time></trkpt><trkpt lat="41.0256233" lon="14.4536367"><ele>67.0</ele><time>2026-03-28T10:58:34.415Z</time></trkpt><trkpt lat="41.0256117" lon="14.4534883"><ele>67.0</ele><time>2026-03-28T10:58:35.414Z</time></trkpt><trkpt lat="41.0256017" lon="14.4533333"><ele>66.8</ele><time>2026-03-28T10:58:36.414Z</time></trkpt><trkpt lat="41.025595" lon="14.45318"><ele>66.6</ele><time>2026-03-28T10:58:37.414Z</time></trkpt><trkpt lat="41.02559" lon="14.4530317"><ele>66.39999999999999</ele><time>2026-03-28T10:58:38.413Z</time></trkpt><trkpt lat="41.02558" lon="14.4528917"><ele>66.2</ele><time>2026-03-28T10:58:39.413Z</time></trkpt><trkpt lat="41.02557" lon="14.452755"><ele>66.0</ele><time>2026-03-28T10:58:40.414Z</time></trkpt><trkpt lat="41.02556" lon="14.4526183"><ele>66.0</ele><time>2026-03-28T10:58:41.414Z</time></trkpt><trkpt lat="41.0255533" lon="14.452485"><ele>66.0</ele><time>2026-03-28T10:58:42.413Z</time></trkpt><trkpt lat="41.02555" lon="14.452345"><ele>66.0</ele><time>2026-03-28T10:58:43.414Z</time></trkpt><trkpt lat="41.0255483" lon="14.4522067"><ele>66.0</ele><time>2026-03-28T10:58:44.416Z</time></trkpt><trkpt lat="41.0255433" lon="14.4520683"><ele>66.0</ele><time>2026-03-28T10:58:45.414Z</time></trkpt><trkpt lat="41.0255367" lon="14.45193"><ele>66.0</ele><time>2026-03-28T10:58:46.414Z</time></trkpt><trkpt lat="41.0255283" lon="14.451795"><ele>66.0</ele><time>2026-03-28T10:58:47.414Z</time></trkpt><trkpt lat="41.0255183" lon="14.45167"><ele>66.0</ele><time>2026-03-28T10:58:48.413Z</time></trkpt><trkpt lat="41.0254983" lon="14.4515683"><ele>66.0</ele><time>2026-03-28T10:58:49.414Z</time></trkpt><trkpt lat="41.0254833" lon="14.45143"><ele>66.0</ele><time>2026-03-28T10:58:51.413Z</time></trkpt><trkpt lat="41.02549" lon="14.451335"><ele>66.0</ele><time>2026-03-28T10:58:53.414Z</time></trkpt><trkpt lat="41.02551" lon="14.4512067"><ele>66.0</ele><time>2026-03-28T10:58:56.414Z</time></trkpt><trkpt lat="41.02551" lon="14.45111"><ele>66.0</ele><time>2026-03-28T10:58:58.413Z</time></trkpt><trkpt lat="41.0255117" lon="14.45101"><ele>66.0</ele><time>2026-03-28T10:59:00.413Z</time></trkpt><trkpt lat="41.0255117" lon="14.450915"><ele>66.0</ele><time>2026-03-28T10:59:02.414Z</time></trkpt><trkpt lat="41.0255217" lon="14.4507917"><ele>66.0</ele><time>2026-03-28T10:59:04.413Z</time></trkpt><trkpt lat="41.02552" lon="14.4506433"><ele>66.0</ele><time>2026-03-28T10:59:06.414Z</time></trkpt><trkpt lat="41.025515" lon="14.450475"><ele>66.0</ele><time>2026-03-28T10:59:08.414Z</time></trkpt><trkpt lat="41.0255133" lon="14.45038"><ele>66.0</ele><time>2026-03-28T10:59:09.413Z</time></trkpt><trkpt lat="41.0255067" lon="14.4502883"><ele>66.0</ele><time>2026-03-28T10:59:10.412Z</time></trkpt><trkpt lat="41.0254967" lon="14.4501967"><ele>66.0</ele><time>2026-03-28T10:59:11.413Z</time></trkpt><trkpt lat="41.0254883" lon="14.4501"><ele>66.0</ele><time>2026-03-28T10:59:12.415Z</time></trkpt><trkpt lat="41.02548" lon="14.450005"><ele>65.83333333333333</ele><time>2026-03-28T10:59:13.414Z</time></trkpt><trkpt lat="41.02547" lon="14.4499033"><ele>65.66666666666667</ele><time>2026-03-28T10:59:14.413Z</time></trkpt><trkpt lat="41.025465" lon="14.44979"><ele>65.5</ele><time>2026-03-28T10:59:15.414Z</time></trkpt><trkpt lat="41.0254517" lon="14.4496833"><ele>65.33333333333334</ele><time>2026-03-28T10:59:16.413Z</time></trkpt><trkpt lat="41.0254417" lon="14.449585"><ele>65.16666666666667</ele><time>2026-03-28T10:59:17.414Z</time></trkpt><trkpt lat="41.02544" lon="14.4494817"><ele>65.0</ele><time>2026-03-28T10:59:18.414Z</time></trkpt><trkpt lat="41.0254367" lon="14.449375"><ele>65.0</ele><time>2026-03-28T10:59:19.414Z</time></trkpt><trkpt lat="41.02543" lon="14.449265"><ele>65.0</ele><time>2026-03-28T10:59:20.414Z</time></trkpt><trkpt lat="41.0254283" lon="14.4491467"><ele>65.0</ele><time>2026-03-28T10:59:21.413Z</time></trkpt><trkpt lat="41.0254217" lon="14.4490333"><ele>65.0</ele><time>2026-03-28T10:59:22.414Z</time></trkpt><trkpt lat="41.0254117" lon="14.448925"><ele>65.0</ele><time>2026-03-28T10:59:23.414Z</time></trkpt><trkpt lat="41.0254067" lon="14.4488067"><ele>65.0</ele><time>2026-03-28T10:59:24.413Z</time></trkpt><trkpt lat="41.0254017" lon="14.4486917"><ele>64.5</ele><time>2026-03-28T10:59:25.414Z</time></trkpt><trkpt lat="41.0253967" lon="14.44858"><ele>64.0</ele><time>2026-03-28T10:59:26.413Z</time></trkpt><trkpt lat="41.02539" lon="14.44847"><ele>63.5</ele><time>2026-03-28T10:59:27.413Z</time></trkpt><trkpt lat="41.0253833" lon="14.4483567"><ele>63.0</ele><time>2026-03-28T10:59:28.414Z</time></trkpt><trkpt lat="41.0253783" lon="14.4482433"><ele>62.50000000000001</ele><time>2026-03-28T10:59:29.415Z</time></trkpt><trkpt lat="41.0253717" lon="14.4481283"><ele>62.0</ele><time>2026-03-28T10:59:30.413Z</time></trkpt><trkpt lat="41.025365" lon="14.4480117"><ele>62.2</ele><time>2026-03-28T10:59:31.414Z</time></trkpt><trkpt lat="41.02536" lon="14.4478917"><ele>62.400000000000006</ele><time>2026-03-28T10:59:32.415Z</time></trkpt><trkpt lat="41.0253517" lon="14.4477733"><ele>62.599999999999994</ele><time>2026-03-28T10:59:33.414Z</time></trkpt><trkpt lat="41.025345" lon="14.4476517"><ele>62.8</ele><time>2026-03-28T10:59:34.413Z</time></trkpt><trkpt lat="41.0253417" lon="14.44753"><ele>63.0</ele><time>2026-03-28T10:59:35.413Z</time></trkpt><trkpt lat="41.0253367" lon="14.4474083"><ele>63.0</ele><time>2026-03-28T10:59:36.413Z</time></trkpt><trkpt lat="41.0253317" lon="14.4472817"><ele>63.0</ele><time>2026-03-28T10:59:37.414Z</time></trkpt><trkpt lat="41.02533" lon="14.4471583"><ele>63.0</ele><time>2026-03-28T10:59:38.414Z</time></trkpt><trkpt lat="41.0253283" lon="14.4470333"><ele>63.0</ele><time>2026-03-28T10:59:39.413Z</time></trkpt><trkpt lat="41.025325" lon="14.4469133"><ele>63.0</ele><time>2026-03-28T10:59:40.414Z</time></trkpt><trkpt lat="41.025325" lon="14.44679"><ele>63.2</ele><time>2026-03-28T10:59:41.414Z</time></trkpt><trkpt lat="41.0253233" lon="14.446665"><ele>63.4</ele><time>2026-03-28T10:59:42.414Z</time></trkpt><trkpt lat="41.0253167" lon="14.44654"><ele>63.60000000000001</ele><time>2026-03-28T10:59:43.414Z</time></trkpt><trkpt lat="41.02531" lon="14.4464167"><ele>63.800000000000004</ele><time>2026-03-28T10:59:44.413Z</time></trkpt><trkpt lat="41.0253" lon="14.4462933"><ele>64.0</ele><time>2026-03-28T10:59:45.413Z</time></trkpt><trkpt lat="41.0252933" lon="14.4461683"><ele>64.2</ele><time>2026-03-28T10:59:46.414Z</time></trkpt><trkpt lat="41.0252867" lon="14.4460433"><ele>64.4</ele><time>2026-03-28T10:59:47.414Z</time></trkpt><trkpt lat="41.0252783" lon="14.44592"><ele>64.6</ele><time>2026-03-28T10:59:48.414Z</time></trkpt><trkpt lat="41.02527" lon="14.445795"><ele>64.8</ele><time>2026-03-28T10:59:49.413Z</time></trkpt><trkpt lat="41.025265" lon="14.4456717"><ele>65.0</ele><time>2026-03-28T10:59:50.412Z</time></trkpt><trkpt lat="41.0252567" lon="14.4455483"><ele>65.0</ele><time>2026-03-28T10:59:51.419Z</time></trkpt><trkpt lat="41.02525" lon="14.4454217"><ele>65.0</ele><time>2026-03-28T10:59:52.414Z</time></trkpt><trkpt lat="41.02524" lon="14.4453"><ele>65.0</ele><time>2026-03-28T10:59:53.414Z</time></trkpt><trkpt lat="41.0252317" lon="14.4451783"><ele>65.0</ele><time>2026-03-28T10:59:54.413Z</time></trkpt><trkpt lat="41.025225" lon="14.4450633"><ele>65.0</ele><time>2026-03-28T10:59:55.414Z</time></trkpt><trkpt lat="41.0252183" lon="14.44495"><ele>65.0</ele><time>2026-03-28T10:59:56.414Z</time></trkpt><trkpt lat="41.0252083" lon="14.4448433"><ele>65.0</ele><time>2026-03-28T10:59:57.413Z</time></trkpt><trkpt lat="41.0252" lon="14.4447367"><ele>65.0</ele><time>2026-03-28T10:59:58.419Z</time></trkpt><trkpt lat="41.02519" lon="14.44463"><ele>65.0</ele><time>2026-03-28T10:59:59.414Z</time></trkpt><trkpt lat="41.0251833" lon="14.44452"><ele>65.0</ele><time>2026-03-28T11:00:00.413Z</time></trkpt><trkpt lat="41.0251767" lon="14.4444067"><ele>65.0</ele><time>2026-03-28T11:00:01.414Z</time></trkpt><trkpt lat="41.0251633" lon="14.4442917"><ele>65.2</ele><time>2026-03-28T11:00:02.414Z</time></trkpt><trkpt lat="41.0251533" lon="14.4441733"><ele>65.4</ele><time>2026-03-28T11:00:03.413Z</time></trkpt><trkpt lat="41.0251417" lon="14.44405"><ele>65.6</ele><time>2026-03-28T11:00:04.413Z</time></trkpt><trkpt lat="41.02513" lon="14.44392"><ele>65.8</ele><time>2026-03-28T11:00:05.414Z</time></trkpt><trkpt lat="41.0251217" lon="14.4437917"><ele>66.0</ele><time>2026-03-28T11:00:06.414Z</time></trkpt><trkpt lat="41.025115" lon="14.443665"><ele>65.6</ele><time>2026-03-28T11:00:07.414Z</time></trkpt><trkpt lat="41.0251083" lon="14.4435333"><ele>65.19999999999999</ele><time>2026-03-28T11:00:08.414Z</time></trkpt><trkpt lat="41.0251017" lon="14.4433983"><ele>64.80000000000001</ele><time>2026-03-28T11:00:09.412Z</time></trkpt><trkpt lat="41.0251017" lon="14.44327"><ele>64.4</ele><time>2026-03-28T11:00:10.414Z</time></trkpt><trkpt lat="41.0250967" lon="14.4431467"><ele>64.0</ele><time>2026-03-28T11:00:11.414Z</time></trkpt><trkpt lat="41.0250933" lon="14.4430267"><ele>63.800000000000004</ele><time>2026-03-28T11:00:12.414Z</time></trkpt><trkpt lat="41.02509" lon="14.4429033"><ele>63.60000000000001</ele><time>2026-03-28T11:00:13.414Z</time></trkpt><trkpt lat="41.02509" lon="14.4427767"><ele>63.4</ele><time>2026-03-28T11:00:14.414Z</time></trkpt><trkpt lat="41.025095" lon="14.4426533"><ele>63.2</ele><time>2026-03-28T11:00:15.413Z</time></trkpt><trkpt lat="41.0250983" lon="14.4425283"><ele>63.0</ele><time>2026-03-28T11:00:16.414Z</time></trkpt><trkpt lat="41.0250967" lon="14.4424"><ele>63.0</ele><time>2026-03-28T11:00:17.414Z</time></trkpt><trkpt lat="41.0250933" lon="14.4422733"><ele>63.0</ele><time>2026-03-28T11:00:18.413Z</time></trkpt><trkpt lat="41.025085" lon="14.4421517"><ele>63.0</ele><time>2026-03-28T11:00:19.414Z</time></trkpt><trkpt lat="41.0250767" lon="14.4420317"><ele>63.0</ele><time>2026-03-28T11:00:20.413Z</time></trkpt><trkpt lat="41.02507" lon="14.4419133"><ele>63.0</ele><time>2026-03-28T11:00:21.412Z</time></trkpt><trkpt lat="41.025065" lon="14.4417967"><ele>63.0</ele><time>2026-03-28T11:00:22.414Z</time></trkpt><trkpt lat="41.0250583" lon="14.4416783"><ele>63.0</ele><time>2026-03-28T11:00:23.415Z</time></trkpt><trkpt lat="41.0250517" lon="14.4415667"><ele>63.0</ele><time>2026-03-28T11:00:24.414Z</time></trkpt><trkpt lat="41.0250467" lon="14.4414517"><ele>63.0</ele><time>2026-03-28T11:00:25.414Z</time></trkpt><trkpt lat="41.0250417" lon="14.4413317"><ele>63.0</ele><time>2026-03-28T11:00:26.415Z</time></trkpt><trkpt lat="41.025035" lon="14.44121"><ele>63.0</ele><time>2026-03-28T11:00:27.413Z</time></trkpt><trkpt lat="41.025025" lon="14.4410917"><ele>63.0</ele><time>2026-03-28T11:00:28.415Z</time></trkpt><trkpt lat="41.02502" lon="14.440975"><ele>63.0</ele><time>2026-03-28T11:00:29.414Z</time></trkpt><trkpt lat="41.0250133" lon="14.4408567"><ele>63.0</ele><time>2026-03-28T11:00:30.413Z</time></trkpt><trkpt lat="41.0250067" lon="14.4407367"><ele>63.0</ele><time>2026-03-28T11:00:31.414Z</time></trkpt><trkpt lat="41.025" lon="14.4406133"><ele>63.0</ele><time>2026-03-28T11:00:32.412Z</time></trkpt><trkpt lat="41.0249933" lon="14.4404867"><ele>62.833333333333336</ele><time>2026-03-28T11:00:33.419Z</time></trkpt><trkpt lat="41.0249867" lon="14.4403683"><ele>62.66666666666667</ele><time>2026-03-28T11:00:34.412Z</time></trkpt><trkpt lat="41.0249817" lon="14.4402533"><ele>62.5</ele><time>2026-03-28T11:00:35.414Z</time></trkpt><trkpt lat="41.02498" lon="14.4401367"><ele>62.333333333333336</ele><time>2026-03-28T11:00:36.415Z</time></trkpt><trkpt lat="41.0249783" lon="14.440015"><ele>62.16666666666667</ele><time>2026-03-28T11:00:37.414Z</time></trkpt><trkpt lat="41.0249733" lon="14.439895"><ele>62.0</ele><time>2026-03-28T11:00:38.414Z</time></trkpt><trkpt lat="41.02497" lon="14.4397733"><ele>61.8</ele><time>2026-03-28T11:00:39.413Z</time></trkpt><trkpt lat="41.0249633" lon="14.4396517"><ele>61.6</ele><time>2026-03-28T11:00:40.413Z</time></trkpt><trkpt lat="41.024955" lon="14.4395333"><ele>61.39999999999999</ele><time>2026-03-28T11:00:41.414Z</time></trkpt><trkpt lat="41.0249483" lon="14.43941"><ele>61.199999999999996</ele><time>2026-03-28T11:00:42.414Z</time></trkpt><trkpt lat="41.0249417" lon="14.4392917"><ele>61.0</ele><time>2026-03-28T11:00:43.413Z</time></trkpt><trkpt lat="41.0249383" lon="14.4391683"><ele>61.0</ele><time>2026-03-28T11:00:44.414Z</time></trkpt><trkpt lat="41.02493" lon="14.4390467"><ele>60.99999999999999</ele><time>2026-03-28T11:00:45.413Z</time></trkpt><trkpt lat="41.0249233" lon="14.4389233"><ele>60.99999999999999</ele><time>2026-03-28T11:00:46.414Z</time></trkpt><trkpt lat="41.02492" lon="14.438795"><ele>61.0</ele><time>2026-03-28T11:00:47.414Z</time></trkpt><trkpt lat="41.0249183" lon="14.4386717"><ele>61.0</ele><time>2026-03-28T11:00:48.413Z</time></trkpt><trkpt lat="41.024915" lon="14.4385467"><ele>60.599999999999994</ele><time>2026-03-28T11:00:49.414Z</time></trkpt><trkpt lat="41.02491" lon="14.4384283"><ele>60.199999999999996</ele><time>2026-03-28T11:00:50.414Z</time></trkpt><trkpt lat="41.0249033" lon="14.438305"><ele>59.800000000000004</ele><time>2026-03-28T11:00:51.416Z</time></trkpt><trkpt lat="41.024895" lon="14.438185"><ele>59.400000000000006</ele><time>2026-03-28T11:00:52.413Z</time></trkpt><trkpt lat="41.0248867" lon="14.43806"><ele>59.0</ele><time>2026-03-28T11:00:53.414Z</time></trkpt><trkpt lat="41.0248783" lon="14.43794"><ele>59.0</ele><time>2026-03-28T11:00:54.414Z</time></trkpt><trkpt lat="41.02487" lon="14.4378167"><ele>59.00000000000001</ele><time>2026-03-28T11:00:55.415Z</time></trkpt><trkpt lat="41.0248633" lon="14.437695"><ele>59.00000000000001</ele><time>2026-03-28T11:00:56.413Z</time></trkpt><trkpt lat="41.0248617" lon="14.4375733"><ele>59.0</ele><time>2026-03-28T11:00:57.414Z</time></trkpt><trkpt lat="41.0248633" lon="14.4374483"><ele>59.0</ele><time>2026-03-28T11:00:58.413Z</time></trkpt><trkpt lat="41.02486" lon="14.4373233"><ele>59.0</ele><time>2026-03-28T11:00:59.413Z</time></trkpt><trkpt lat="41.024855" lon="14.4372017"><ele>59.00000000000001</ele><time>2026-03-28T11:01:00.413Z</time></trkpt><trkpt lat="41.02485" lon="14.4370867"><ele>59.00000000000001</ele><time>2026-03-28T11:01:01.414Z</time></trkpt><trkpt lat="41.0248433" lon="14.4369683"><ele>59.0</ele><time>2026-03-28T11:01:02.415Z</time></trkpt><trkpt lat="41.0248333" lon="14.43685"><ele>59.0</ele><time>2026-03-28T11:01:03.414Z</time></trkpt><trkpt lat="41.0248233" lon="14.4367283"><ele>59.333333333333336</ele><time>2026-03-28T11:01:04.414Z</time></trkpt><trkpt lat="41.024815" lon="14.43661"><ele>59.66666666666667</ele><time>2026-03-28T11:01:05.414Z</time></trkpt><trkpt lat="41.0248067" lon="14.4364933"><ele>60.0</ele><time>2026-03-28T11:01:06.413Z</time></trkpt><trkpt lat="41.0247983" lon="14.4363767"><ele>60.33333333333333</ele><time>2026-03-28T11:01:07.414Z</time></trkpt><trkpt lat="41.02479" lon="14.4362667"><ele>60.666666666666664</ele><time>2026-03-28T11:01:08.414Z</time></trkpt><trkpt lat="41.0247817" lon="14.4361633"><ele>61.0</ele><time>2026-03-28T11:01:09.413Z</time></trkpt><trkpt lat="41.0247667" lon="14.4360083"><ele>61.0</ele><time>2026-03-28T11:01:11.414Z</time></trkpt><trkpt lat="41.0247633" lon="14.4358683"><ele>60.99999999999999</ele><time>2026-03-28T11:01:13.414Z</time></trkpt><trkpt lat="41.0247567" lon="14.43572"><ele>60.99999999999999</ele><time>2026-03-28T11:01:15.414Z</time></trkpt><trkpt lat="41.0247483" lon="14.435555"><ele>61.0</ele><time>2026-03-28T11:01:17.414Z</time></trkpt><trkpt lat="41.0247467" lon="14.4354667"><ele>61.0</ele><time>2026-03-28T11:01:18.414Z</time></trkpt><trkpt lat="41.0247417" lon="14.4353733"><ele>60.83333333333333</ele><time>2026-03-28T11:01:19.414Z</time></trkpt><trkpt lat="41.0247367" lon="14.43528"><ele>60.666666666666664</ele><time>2026-03-28T11:01:20.414Z</time></trkpt><trkpt lat="41.0247333" lon="14.4351733"><ele>60.5</ele><time>2026-03-28T11:01:21.414Z</time></trkpt><trkpt lat="41.0247267" lon="14.4350617"><ele>60.33333333333333</ele><time>2026-03-28T11:01:22.415Z</time></trkpt><trkpt lat="41.0247183" lon="14.4349517"><ele>60.166666666666664</ele><time>2026-03-28T11:01:23.414Z</time></trkpt><trkpt lat="41.024715" lon="14.434835"><ele>60.0</ele><time>2026-03-28T11:01:24.413Z</time></trkpt><trkpt lat="41.0247117" lon="14.4347233"><ele>59.833333333333336</ele><time>2026-03-28T11:01:25.414Z</time></trkpt><trkpt lat="41.0247067" lon="14.43461"><ele>59.66666666666667</ele><time>2026-03-28T11:01:26.414Z</time></trkpt><trkpt lat="41.0247" lon="14.4345"><ele>59.5</ele><time>2026-03-28T11:01:27.413Z</time></trkpt><trkpt lat="41.0246967" lon="14.4343967"><ele>59.333333333333336</ele><time>2026-03-28T11:01:28.414Z</time></trkpt><trkpt lat="41.0246917" lon="14.4342933"><ele>59.16666666666667</ele><time>2026-03-28T11:01:29.413Z</time></trkpt><trkpt lat="41.0246883" lon="14.4341883"><ele>59.0</ele><time>2026-03-28T11:01:30.414Z</time></trkpt><trkpt lat="41.0246833" lon="14.4340867"><ele>59.00000000000001</ele><time>2026-03-28T11:01:31.413Z</time></trkpt><trkpt lat="41.024675" lon="14.433985"><ele>59.0</ele><time>2026-03-28T11:01:32.417Z</time></trkpt><trkpt lat="41.02467" lon="14.43388"><ele>59.0</ele><time>2026-03-28T11:01:33.413Z</time></trkpt><trkpt lat="41.0246633" lon="14.433775"><ele>59.0</ele><time>2026-03-28T11:01:34.414Z</time></trkpt><trkpt lat="41.0246583" lon="14.4336683"><ele>59.00000000000001</ele><time>2026-03-28T11:01:35.413Z</time></trkpt><trkpt lat="41.02465" lon="14.4335583"><ele>59.0</ele><time>2026-03-28T11:01:36.413Z</time></trkpt><trkpt lat="41.024645" lon="14.4334433"><ele>58.833333333333336</ele><time>2026-03-28T11:01:37.414Z</time></trkpt><trkpt lat="41.02464" lon="14.4333333"><ele>58.66666666666667</ele><time>2026-03-28T11:01:38.413Z</time></trkpt><trkpt lat="41.024635" lon="14.4332233"><ele>58.5</ele><time>2026-03-28T11:01:39.413Z</time></trkpt><trkpt lat="41.0246283" lon="14.4331133"><ele>58.33333333333333</ele><time>2026-03-28T11:01:40.414Z</time></trkpt><trkpt lat="41.0246233" lon="14.433005"><ele>58.166666666666664</ele><time>2026-03-28T11:01:41.414Z</time></trkpt><trkpt lat="41.0246167" lon="14.4328933"><ele>58.0</ele><time>2026-03-28T11:01:42.414Z</time></trkpt><trkpt lat="41.0246117" lon="14.43278"><ele>58.33333333333333</ele><time>2026-03-28T11:01:43.414Z</time></trkpt><trkpt lat="41.0246067" lon="14.4326733"><ele>58.666666666666664</ele><time>2026-03-28T11:01:44.414Z</time></trkpt><trkpt lat="41.0246" lon="14.4325617"><ele>59.0</ele><time>2026-03-28T11:01:45.413Z</time></trkpt><trkpt lat="41.0245883" lon="14.43245"><ele>59.33333333333333</ele><time>2026-03-28T11:01:46.414Z</time></trkpt><trkpt lat="41.024585" lon="14.4323367"><ele>59.666666666666664</ele><time>2026-03-28T11:01:47.414Z</time></trkpt><trkpt lat="41.02458" lon="14.43222"><ele>60.0</ele><time>2026-03-28T11:01:48.414Z</time></trkpt><trkpt lat="41.0245783" lon="14.4321083"><ele>60.0</ele><time>2026-03-28T11:01:49.414Z</time></trkpt><trkpt lat="41.024575" lon="14.432005"><ele>60.0</ele><time>2026-03-28T11:01:50.414Z</time></trkpt><trkpt lat="41.0245667" lon="14.4319017"><ele>60.0</ele><time>2026-03-28T11:01:51.414Z</time></trkpt><trkpt lat="41.0245617" lon="14.4317967"><ele>60.0</ele><time>2026-03-28T11:01:52.414Z</time></trkpt><trkpt lat="41.0245567" lon="14.4316867"><ele>60.0</ele><time>2026-03-28T11:01:53.414Z</time></trkpt><trkpt lat="41.0245517" lon="14.4315767"><ele>60.0</ele><time>2026-03-28T11:01:54.414Z</time></trkpt><trkpt lat="41.0245467" lon="14.43147"><ele>60.0</ele><time>2026-03-28T11:01:55.416Z</time></trkpt><trkpt lat="41.0245383" lon="14.4313683"><ele>60.0</ele><time>2026-03-28T11:01:56.414Z</time></trkpt><trkpt lat="41.0245367" lon="14.431265"><ele>60.0</ele><time>2026-03-28T11:01:57.412Z</time></trkpt><trkpt lat="41.024535" lon="14.4311617"><ele>60.0</ele><time>2026-03-28T11:01:58.413Z</time></trkpt><trkpt lat="41.0245417" lon="14.4310583"><ele>60.0</ele><time>2026-03-28T11:01:59.414Z</time></trkpt><trkpt lat="41.0245467" lon="14.4309583"><ele>60.0</ele><time>2026-03-28T11:02:00.414Z</time></trkpt><trkpt lat="41.0245517" lon="14.43086"><ele>59.8</ele><time>2026-03-28T11:02:01.415Z</time></trkpt><trkpt lat="41.0245567" lon="14.4307683"><ele>59.6</ele><time>2026-03-28T11:02:02.414Z</time></trkpt><trkpt lat="41.02457" lon="14.4306117"><ele>59.400000000000006</ele><time>2026-03-28T11:02:04.414Z</time></trkpt><trkpt lat="41.0245883" lon="14.4304733"><ele>59.2</ele><time>2026-03-28T11:02:06.413Z</time></trkpt><trkpt lat="41.0246167" lon="14.4303267"><ele>59.0</ele><time>2026-03-28T11:02:08.414Z</time></trkpt><trkpt lat="41.0246417" lon="14.4301833"><ele>58.66666666666667</ele><time>2026-03-28T11:02:10.414Z</time></trkpt><trkpt lat="41.02466" lon="14.4300183"><ele>58.333333333333336</ele><time>2026-03-28T11:02:12.414Z</time></trkpt><trkpt lat="41.0246667" lon="14.4299317"><ele>58.0</ele><time>2026-03-28T11:02:13.414Z</time></trkpt><trkpt lat="41.024675" lon="14.4298417"><ele>57.66666666666667</ele><time>2026-03-28T11:02:14.414Z</time></trkpt><trkpt lat="41.0246833" lon="14.42975"><ele>57.333333333333336</ele><time>2026-03-28T11:02:15.413Z</time></trkpt><trkpt lat="41.024695" lon="14.4296517"><ele>57.0</ele><time>2026-03-28T11:02:16.415Z</time></trkpt><trkpt lat="41.0247083" lon="14.429555"><ele>57.666666666666664</ele><time>2026-03-28T11:02:17.414Z</time></trkpt><trkpt lat="41.0247233" lon="14.4294583"><ele>58.33333333333333</ele><time>2026-03-28T11:02:18.414Z</time></trkpt><trkpt lat="41.024735" lon="14.429365"><ele>59.0</ele><time>2026-03-28T11:02:19.414Z</time></trkpt><trkpt lat="41.0247417" lon="14.429265"><ele>59.666666666666664</ele><time>2026-03-28T11:02:20.413Z</time></trkpt><trkpt lat="41.02475" lon="14.4291633"><ele>60.33333333333333</ele><time>2026-03-28T11:02:21.413Z</time></trkpt><trkpt lat="41.0247633" lon="14.429065"><ele>61.0</ele><time>2026-03-28T11:02:22.414Z</time></trkpt><trkpt lat="41.0247767" lon="14.428965"><ele>60.99999999999999</ele><time>2026-03-28T11:02:23.414Z</time></trkpt><trkpt lat="41.02479" lon="14.4288633"><ele>61.0</ele><time>2026-03-28T11:02:24.414Z</time></trkpt><trkpt lat="41.0248067" lon="14.428765"><ele>61.0</ele><time>2026-03-28T11:02:25.413Z</time></trkpt><trkpt lat="41.024825" lon="14.4286617"><ele>61.0</ele><time>2026-03-28T11:02:26.413Z</time></trkpt><trkpt lat="41.0248433" lon="14.4285533"><ele>60.99999999999999</ele><time>2026-03-28T11:02:27.413Z</time></trkpt><trkpt lat="41.0248633" lon="14.4284433"><ele>61.0</ele><time>2026-03-28T11:02:28.414Z</time></trkpt><trkpt lat="41.024885" lon="14.428335"><ele>60.83333333333333</ele><time>2026-03-28T11:02:29.412Z</time></trkpt><trkpt lat="41.0249" lon="14.42823"><ele>60.666666666666664</ele><time>2026-03-28T11:02:30.413Z</time></trkpt><trkpt lat="41.0249167" lon="14.42812"><ele>60.5</ele><time>2026-03-28T11:02:31.413Z</time></trkpt><trkpt lat="41.0249333" lon="14.4280117"><ele>60.33333333333333</ele><time>2026-03-28T11:02:32.413Z</time></trkpt><trkpt lat="41.0249533" lon="14.4279067"><ele>60.166666666666664</ele><time>2026-03-28T11:02:33.413Z</time></trkpt><trkpt lat="41.0249733" lon="14.4278"><ele>60.0</ele><time>2026-03-28T11:02:34.413Z</time></trkpt><trkpt lat="41.0249933" lon="14.4276917"><ele>59.666666666666664</ele><time>2026-03-28T11:02:35.413Z</time></trkpt><trkpt lat="41.0250133" lon="14.427585"><ele>59.33333333333333</ele><time>2026-03-28T11:02:36.413Z</time></trkpt><trkpt lat="41.02503" lon="14.4274767"><ele>59.0</ele><time>2026-03-28T11:02:37.412Z</time></trkpt><trkpt lat="41.0250433" lon="14.4273717"><ele>58.666666666666664</ele><time>2026-03-28T11:02:38.413Z</time></trkpt><trkpt lat="41.025055" lon="14.4272667"><ele>58.33333333333333</ele><time>2026-03-28T11:02:39.414Z</time></trkpt><trkpt lat="41.0250683" lon="14.4271583"><ele>58.0</ele><time>2026-03-28T11:02:40.413Z</time></trkpt><trkpt lat="41.025085" lon="14.4270467"><ele>57.599999999999994</ele><time>2026-03-28T11:02:41.413Z</time></trkpt><trkpt lat="41.0251017" lon="14.42693"><ele>57.199999999999996</ele><time>2026-03-28T11:02:42.413Z</time></trkpt><trkpt lat="41.0251183" lon="14.4268083"><ele>56.8</ele><time>2026-03-28T11:02:43.413Z</time></trkpt><trkpt lat="41.025135" lon="14.4266883"><ele>56.4</ele><time>2026-03-28T11:02:44.413Z</time></trkpt><trkpt lat="41.0251533" lon="14.426565"><ele>56.0</ele><time>2026-03-28T11:02:45.413Z</time></trkpt><trkpt lat="41.02517" lon="14.4264417"><ele>55.8</ele><time>2026-03-28T11:02:46.413Z</time></trkpt><trkpt lat="41.0251883" lon="14.4263083"><ele>55.599999999999994</ele><time>2026-03-28T11:02:47.413Z</time></trkpt><trkpt lat="41.0252067" lon="14.4261817"><ele>55.4</ele><time>2026-03-28T11:02:48.413Z</time></trkpt><trkpt lat="41.025225" lon="14.4260483"><ele>55.2</ele><time>2026-03-28T11:02:49.413Z</time></trkpt><trkpt lat="41.0252433" lon="14.4259167"><ele>55.0</ele><time>2026-03-28T11:02:50.413Z</time></trkpt><trkpt lat="41.0252617" lon="14.4257783"><ele>55.0</ele><time>2026-03-28T11:02:51.413Z</time></trkpt><trkpt lat="41.0252867" lon="14.4256433"><ele>55.0</ele><time>2026-03-28T11:02:52.413Z</time></trkpt><trkpt lat="41.02531" lon="14.4255067"><ele>55.0</ele><time>2026-03-28T11:02:53.413Z</time></trkpt><trkpt lat="41.02533" lon="14.42537"><ele>55.0</ele><time>2026-03-28T11:02:54.414Z</time></trkpt><trkpt lat="41.0253517" lon="14.4252333"><ele>55.0</ele><time>2026-03-28T11:02:55.413Z</time></trkpt><trkpt lat="41.0253717" lon="14.425095"><ele>55.0</ele><time>2026-03-28T11:02:56.413Z</time></trkpt><trkpt lat="41.0253933" lon="14.4249617"><ele>55.0</ele><time>2026-03-28T11:02:57.414Z</time></trkpt><trkpt lat="41.0254167" lon="14.4248267"><ele>55.0</ele><time>2026-03-28T11:02:58.413Z</time></trkpt><trkpt lat="41.02544" lon="14.4246883"><ele>55.0</ele><time>2026-03-28T11:02:59.413Z</time></trkpt><trkpt lat="41.02546" lon="14.4245483"><ele>55.0</ele><time>2026-03-28T11:03:00.413Z</time></trkpt><trkpt lat="41.0254783" lon="14.424415"><ele>54.8</ele><time>2026-03-28T11:03:01.412Z</time></trkpt><trkpt lat="41.0255" lon="14.4242767"><ele>54.6</ele><time>2026-03-28T11:03:02.413Z</time></trkpt><trkpt lat="41.025525" lon="14.4241367"><ele>54.400000000000006</ele><time>2026-03-28T11:03:03.413Z</time></trkpt><trkpt lat="41.02555" lon="14.4240017"><ele>54.2</ele><time>2026-03-28T11:03:04.414Z</time></trkpt><trkpt lat="41.02557" lon="14.4238683"><ele>54.0</ele><time>2026-03-28T11:03:05.414Z</time></trkpt><trkpt lat="41.0255917" lon="14.4237317"><ele>53.800000000000004</ele><time>2026-03-28T11:03:06.413Z</time></trkpt><trkpt lat="41.02561" lon="14.4235917"><ele>53.60000000000001</ele><time>2026-03-28T11:03:07.414Z</time></trkpt><trkpt lat="41.02563" lon="14.423455"><ele>53.4</ele><time>2026-03-28T11:03:08.413Z</time></trkpt><trkpt lat="41.0256467" lon="14.4233233"><ele>53.2</ele><time>2026-03-28T11:03:09.414Z</time></trkpt><trkpt lat="41.0256667" lon="14.4231933"><ele>53.0</ele><time>2026-03-28T11:03:10.413Z</time></trkpt><trkpt lat="41.0256867" lon="14.4230633"><ele>52.599999999999994</ele><time>2026-03-28T11:03:11.413Z</time></trkpt><trkpt lat="41.0257067" lon="14.42293"><ele>52.199999999999996</ele><time>2026-03-28T11:03:12.413Z</time></trkpt><trkpt lat="41.0257283" lon="14.4227933"><ele>51.8</ele><time>2026-03-28T11:03:13.413Z</time></trkpt><trkpt lat="41.02575" lon="14.4226583"><ele>51.4</ele><time>2026-03-28T11:03:14.414Z</time></trkpt><trkpt lat="41.0257717" lon="14.4225217"><ele>51.0</ele><time>2026-03-28T11:03:15.413Z</time></trkpt><trkpt lat="41.02579" lon="14.4223883"><ele>51.0</ele><time>2026-03-28T11:03:16.413Z</time></trkpt><trkpt lat="41.0258083" lon="14.4222567"><ele>51.0</ele><time>2026-03-28T11:03:17.413Z</time></trkpt><trkpt lat="41.0258267" lon="14.42212"><ele>51.0</ele><time>2026-03-28T11:03:18.414Z</time></trkpt><trkpt lat="41.025845" lon="14.4219833"><ele>51.0</ele><time>2026-03-28T11:03:19.414Z</time></trkpt><trkpt lat="41.025865" lon="14.42185"><ele>51.0</ele><time>2026-03-28T11:03:20.413Z</time></trkpt><trkpt lat="41.0258833" lon="14.4217183"><ele>51.4</ele><time>2026-03-28T11:03:21.413Z</time></trkpt><trkpt lat="41.0259033" lon="14.4215817"><ele>51.8</ele><time>2026-03-28T11:03:22.414Z</time></trkpt><trkpt lat="41.02592" lon="14.42145"><ele>52.199999999999996</ele><time>2026-03-28T11:03:23.414Z</time></trkpt><trkpt lat="41.0259383" lon="14.42132"><ele>52.599999999999994</ele><time>2026-03-28T11:03:24.414Z</time></trkpt><trkpt lat="41.0259567" lon="14.4211883"><ele>53.0</ele><time>2026-03-28T11:03:25.415Z</time></trkpt><trkpt lat="41.0259783" lon="14.4210583"><ele>53.0</ele><time>2026-03-28T11:03:26.413Z</time></trkpt><trkpt lat="41.0259933" lon="14.4209217"><ele>53.0</ele><time>2026-03-28T11:03:27.414Z</time></trkpt><trkpt lat="41.02601" lon="14.4207833"><ele>53.0</ele><time>2026-03-28T11:03:28.414Z</time></trkpt><trkpt lat="41.02603" lon="14.4206517"><ele>53.0</ele><time>2026-03-28T11:03:29.415Z</time></trkpt><trkpt lat="41.0260483" lon="14.42052"><ele>53.0</ele><time>2026-03-28T11:03:30.413Z</time></trkpt><trkpt lat="41.0260667" lon="14.4203867"><ele>52.4</ele><time>2026-03-28T11:03:31.414Z</time></trkpt><trkpt lat="41.0260883" lon="14.4202517"><ele>51.8</ele><time>2026-03-28T11:03:32.414Z</time></trkpt><trkpt lat="41.026105" lon="14.4201217"><ele>51.2</ele><time>2026-03-28T11:03:33.414Z</time></trkpt><trkpt lat="41.02612" lon="14.419995"><ele>50.6</ele><time>2026-03-28T11:03:34.414Z</time></trkpt><trkpt lat="41.02614" lon="14.4198633"><ele>50.0</ele><time>2026-03-28T11:03:35.414Z</time></trkpt><trkpt lat="41.0261567" lon="14.419735"><ele>50.2</ele><time>2026-03-28T11:03:36.414Z</time></trkpt><trkpt lat="41.0261767" lon="14.419605"><ele>50.4</ele><time>2026-03-28T11:03:37.415Z</time></trkpt><trkpt lat="41.0261933" lon="14.4194783"><ele>50.599999999999994</ele><time>2026-03-28T11:03:38.414Z</time></trkpt><trkpt lat="41.0262117" lon="14.4193517"><ele>50.8</ele><time>2026-03-28T11:03:39.415Z</time></trkpt><trkpt lat="41.0262317" lon="14.419225"><ele>51.0</ele><time>2026-03-28T11:03:40.414Z</time></trkpt><trkpt lat="41.0262517" lon="14.4190967"><ele>51.0</ele><time>2026-03-28T11:03:41.413Z</time></trkpt><trkpt lat="41.0262717" lon="14.4189683"><ele>51.0</ele><time>2026-03-28T11:03:42.414Z</time></trkpt><trkpt lat="41.02629" lon="14.4188417"><ele>51.0</ele><time>2026-03-28T11:03:43.414Z</time></trkpt><trkpt lat="41.0263067" lon="14.4187167"><ele>51.0</ele><time>2026-03-28T11:03:44.414Z</time></trkpt><trkpt lat="41.0263267" lon="14.4185983"><ele>51.0</ele><time>2026-03-28T11:03:45.414Z</time></trkpt><trkpt lat="41.026345" lon="14.4184783"><ele>50.4</ele><time>2026-03-28T11:03:46.414Z</time></trkpt><trkpt lat="41.026365" lon="14.4183533"><ele>49.8</ele><time>2026-03-28T11:03:47.414Z</time></trkpt><trkpt lat="41.0263833" lon="14.41823"><ele>49.199999999999996</ele><time>2026-03-28T11:03:48.414Z</time></trkpt><trkpt lat="41.0264" lon="14.4181083"><ele>48.599999999999994</ele><time>2026-03-28T11:03:49.414Z</time></trkpt><trkpt lat="41.0264167" lon="14.417985"><ele>48.0</ele><time>2026-03-28T11:03:50.414Z</time></trkpt><trkpt lat="41.02643" lon="14.4178617"><ele>47.8</ele><time>2026-03-28T11:03:51.414Z</time></trkpt><trkpt lat="41.0264467" lon="14.4177383"><ele>47.599999999999994</ele><time>2026-03-28T11:03:52.417Z</time></trkpt><trkpt lat="41.0264633" lon="14.417615"><ele>47.400000000000006</ele><time>2026-03-28T11:03:53.414Z</time></trkpt><trkpt lat="41.02648" lon="14.4174933"><ele>47.2</ele><time>2026-03-28T11:03:54.414Z</time></trkpt><trkpt lat="41.0264983" lon="14.4173683"><ele>47.0</ele><time>2026-03-28T11:03:55.414Z</time></trkpt><trkpt lat="41.0265183" lon="14.417245"><ele>47.2</ele><time>2026-03-28T11:03:56.413Z</time></trkpt><trkpt lat="41.026535" lon="14.4171233"><ele>47.400000000000006</ele><time>2026-03-28T11:03:57.414Z</time></trkpt><trkpt lat="41.02655" lon="14.4170033"><ele>47.599999999999994</ele><time>2026-03-28T11:03:58.421Z</time></trkpt><trkpt lat="41.0265667" lon="14.4168833"><ele>47.8</ele><time>2026-03-28T11:03:59.414Z</time></trkpt><trkpt lat="41.0265867" lon="14.4167633"><ele>48.0</ele><time>2026-03-28T11:04:00.414Z</time></trkpt><trkpt lat="41.0266033" lon="14.416645"><ele>48.0</ele><time>2026-03-28T11:04:01.415Z</time></trkpt><trkpt lat="41.0266233" lon="14.416525"><ele>48.0</ele><time>2026-03-28T11:04:02.414Z</time></trkpt><trkpt lat="41.0266433" lon="14.4164033"><ele>48.0</ele><time>2026-03-28T11:04:03.413Z</time></trkpt><trkpt lat="41.0266633" lon="14.416285"><ele>48.0</ele><time>2026-03-28T11:04:04.414Z</time></trkpt><trkpt lat="41.0266883" lon="14.4161667"><ele>48.0</ele><time>2026-03-28T11:04:05.413Z</time></trkpt><trkpt lat="41.02671" lon="14.416045"><ele>48.0</ele><time>2026-03-28T11:04:06.414Z</time></trkpt><trkpt lat="41.02673" lon="14.4159233"><ele>48.0</ele><time>2026-03-28T11:04:07.414Z</time></trkpt><trkpt lat="41.0267467" lon="14.4158033"><ele>48.0</ele><time>2026-03-28T11:04:08.414Z</time></trkpt><trkpt lat="41.0267617" lon="14.4156833"><ele>48.0</ele><time>2026-03-28T11:04:09.414Z</time></trkpt><trkpt lat="41.02678" lon="14.4155633"><ele>48.0</ele><time>2026-03-28T11:04:10.413Z</time></trkpt><trkpt lat="41.0268" lon="14.4154467"><ele>48.2</ele><time>2026-03-28T11:04:11.414Z</time></trkpt><trkpt lat="41.0268183" lon="14.41533"><ele>48.4</ele><time>2026-03-28T11:04:12.414Z</time></trkpt><trkpt lat="41.0268367" lon="14.41521"><ele>48.6</ele><time>2026-03-28T11:04:13.414Z</time></trkpt><trkpt lat="41.0268517" lon="14.4150883"><ele>48.800000000000004</ele><time>2026-03-28T11:04:14.414Z</time></trkpt><trkpt lat="41.0268683" lon="14.4149683"><ele>49.0</ele><time>2026-03-28T11:04:15.414Z</time></trkpt><trkpt lat="41.0268867" lon="14.4148483"><ele>48.99999999999999</ele><time>2026-03-28T11:04:16.414Z</time></trkpt><trkpt lat="41.0269067" lon="14.4147317"><ele>49.0</ele><time>2026-03-28T11:04:17.414Z</time></trkpt><trkpt lat="41.0269267" lon="14.4146183"><ele>49.0</ele><time>2026-03-28T11:04:18.415Z</time></trkpt><trkpt lat="41.0269433" lon="14.414505"><ele>49.0</ele><time>2026-03-28T11:04:19.413Z</time></trkpt><trkpt lat="41.0269633" lon="14.414385"><ele>48.99999999999999</ele><time>2026-03-28T11:04:20.414Z</time></trkpt><trkpt lat="41.02698" lon="14.4142667"><ele>49.0</ele><time>2026-03-28T11:04:21.414Z</time></trkpt><trkpt lat="41.0269967" lon="14.4141483"><ele>49.0</ele><time>2026-03-28T11:04:22.415Z</time></trkpt><trkpt lat="41.027015" lon="14.4140333"><ele>49.0</ele><time>2026-03-28T11:04:23.414Z</time></trkpt><trkpt lat="41.0270317" lon="14.4139183"><ele>49.0</ele><time>2026-03-28T11:04:24.414Z</time></trkpt><trkpt lat="41.0270467" lon="14.4137967"><ele>49.0</ele><time>2026-03-28T11:04:25.415Z</time></trkpt><trkpt lat="41.027065" lon="14.4136733"><ele>49.0</ele><time>2026-03-28T11:04:26.415Z</time></trkpt><trkpt lat="41.0270833" lon="14.4135483"><ele>48.6</ele><time>2026-03-28T11:04:27.414Z</time></trkpt><trkpt lat="41.0270983" lon="14.4134267"><ele>48.2</ele><time>2026-03-28T11:04:28.413Z</time></trkpt><trkpt lat="41.02712" lon="14.4133067"><ele>47.800000000000004</ele><time>2026-03-28T11:04:29.414Z</time></trkpt><trkpt lat="41.0271417" lon="14.4131867"><ele>47.400000000000006</ele><time>2026-03-28T11:04:30.414Z</time></trkpt><trkpt lat="41.0271583" lon="14.41307"><ele>47.0</ele><time>2026-03-28T11:04:31.414Z</time></trkpt><trkpt lat="41.0271717" lon="14.4129533"><ele>47.0</ele><time>2026-03-28T11:04:32.414Z</time></trkpt><trkpt lat="41.0271867" lon="14.412835"><ele>47.0</ele><time>2026-03-28T11:04:33.414Z</time></trkpt><trkpt lat="41.0272067" lon="14.412715"><ele>47.0</ele><time>2026-03-28T11:04:34.414Z</time></trkpt><trkpt lat="41.0272267" lon="14.4125917"><ele>47.0</ele><time>2026-03-28T11:04:35.413Z</time></trkpt><trkpt lat="41.0272417" lon="14.4124733"><ele>47.0</ele><time>2026-03-28T11:04:36.415Z</time></trkpt><trkpt lat="41.02726" lon="14.412355"><ele>47.0</ele><time>2026-03-28T11:04:37.414Z</time></trkpt><trkpt lat="41.027275" lon="14.4122333"><ele>47.0</ele><time>2026-03-28T11:04:38.416Z</time></trkpt><trkpt lat="41.0272917" lon="14.412115"><ele>47.0</ele><time>2026-03-28T11:04:39.414Z</time></trkpt><trkpt lat="41.0273083" lon="14.4119983"><ele>47.0</ele><time>2026-03-28T11:04:40.414Z</time></trkpt><trkpt lat="41.027325" lon="14.41188"><ele>47.0</ele><time>2026-03-28T11:04:41.414Z</time></trkpt><trkpt lat="41.0273467" lon="14.411765"><ele>47.0</ele><time>2026-03-28T11:04:42.414Z</time></trkpt><trkpt lat="41.0273617" lon="14.4116467"><ele>47.0</ele><time>2026-03-28T11:04:43.414Z</time></trkpt><trkpt lat="41.02738" lon="14.4115267"><ele>47.0</ele><time>2026-03-28T11:04:44.415Z</time></trkpt><trkpt lat="41.0273983" lon="14.4114083"><ele>47.0</ele><time>2026-03-28T11:04:45.413Z</time></trkpt><trkpt lat="41.0274167" lon="14.4112883"><ele>47.0</ele><time>2026-03-28T11:04:46.414Z</time></trkpt><trkpt lat="41.02743" lon="14.41117"><ele>47.0</ele><time>2026-03-28T11:04:47.415Z</time></trkpt><trkpt lat="41.027445" lon="14.4110533"><ele>47.0</ele><time>2026-03-28T11:04:48.415Z</time></trkpt><trkpt lat="41.02746" lon="14.4109383"><ele>47.0</ele><time>2026-03-28T11:04:49.414Z</time></trkpt><trkpt lat="41.0274767" lon="14.4108217"><ele>47.0</ele><time>2026-03-28T11:04:50.415Z</time></trkpt><trkpt lat="41.027495" lon="14.4107083"><ele>47.0</ele><time>2026-03-28T11:04:51.414Z</time></trkpt><trkpt lat="41.027515" lon="14.4105983"><ele>47.0</ele><time>2026-03-28T11:04:52.413Z</time></trkpt><trkpt lat="41.0275367" lon="14.4104867"><ele>47.166666666666664</ele><time>2026-03-28T11:04:53.413Z</time></trkpt><trkpt lat="41.0275533" lon="14.4103717"><ele>47.33333333333333</ele><time>2026-03-28T11:04:54.415Z</time></trkpt><trkpt lat="41.0275683" lon="14.4102633"><ele>47.5</ele><time>2026-03-28T11:04:55.414Z</time></trkpt><trkpt lat="41.0275867" lon="14.4101583"><ele>47.666666666666664</ele><time>2026-03-28T11:04:56.414Z</time></trkpt><trkpt lat="41.027605" lon="14.4100533"><ele>47.833333333333336</ele><time>2026-03-28T11:04:57.414Z</time></trkpt><trkpt lat="41.0276183" lon="14.4099467"><ele>48.0</ele><time>2026-03-28T11:04:58.414Z</time></trkpt><trkpt lat="41.0276333" lon="14.4098417"><ele>48.0</ele><time>2026-03-28T11:04:59.414Z</time></trkpt><trkpt lat="41.02765" lon="14.4097333"><ele>48.0</ele><time>2026-03-28T11:05:00.414Z</time></trkpt><trkpt lat="41.0276633" lon="14.409625"><ele>48.0</ele><time>2026-03-28T11:05:01.414Z</time></trkpt><trkpt lat="41.0276767" lon="14.4095183"><ele>48.0</ele><time>2026-03-28T11:05:02.414Z</time></trkpt><trkpt lat="41.02769" lon="14.4094117"><ele>48.0</ele><time>2026-03-28T11:05:03.414Z</time></trkpt><trkpt lat="41.0277033" lon="14.4093033"><ele>48.0</ele><time>2026-03-28T11:05:04.414Z</time></trkpt><trkpt lat="41.0277167" lon="14.4091967"><ele>48.5</ele><time>2026-03-28T11:05:05.413Z</time></trkpt><trkpt lat="41.0277317" lon="14.4090817"><ele>49.0</ele><time>2026-03-28T11:05:06.414Z</time></trkpt><trkpt lat="41.02775" lon="14.4089667"><ele>49.5</ele><time>2026-03-28T11:05:07.415Z</time></trkpt><trkpt lat="41.0277683" lon="14.408855"><ele>50.0</ele><time>2026-03-28T11:05:08.414Z</time></trkpt><trkpt lat="41.0277917" lon="14.4087483"><ele>50.5</ele><time>2026-03-28T11:05:09.414Z</time></trkpt><trkpt lat="41.0278167" lon="14.40864"><ele>51.0</ele><time>2026-03-28T11:05:10.415Z</time></trkpt><trkpt lat="41.0278433" lon="14.4085317"><ele>51.0</ele><time>2026-03-28T11:05:11.415Z</time></trkpt><trkpt lat="41.02787" lon="14.40842"><ele>51.0</ele><time>2026-03-28T11:05:12.414Z</time></trkpt><trkpt lat="41.0278983" lon="14.4083083"><ele>51.0</ele><time>2026-03-28T11:05:13.414Z</time></trkpt><trkpt lat="41.02793" lon="14.4082"><ele>51.0</ele><time>2026-03-28T11:05:14.414Z</time></trkpt><trkpt lat="41.0279633" lon="14.4080933"><ele>51.0</ele><time>2026-03-28T11:05:15.414Z</time></trkpt><trkpt lat="41.0279967" lon="14.40799"><ele>51.0</ele><time>2026-03-28T11:05:16.414Z</time></trkpt><trkpt lat="41.0280283" lon="14.4078833"><ele>51.0</ele><time>2026-03-28T11:05:17.414Z</time></trkpt><trkpt lat="41.028065" lon="14.4077767"><ele>51.0</ele><time>2026-03-28T11:05:18.414Z</time></trkpt><trkpt lat="41.0281" lon="14.4076683"><ele>51.0</ele><time>2026-03-28T11:05:19.414Z</time></trkpt><trkpt lat="41.0281333" lon="14.4075667"><ele>51.0</ele><time>2026-03-28T11:05:20.414Z</time></trkpt><trkpt lat="41.0281667" lon="14.4074683"><ele>51.0</ele><time>2026-03-28T11:05:21.413Z</time></trkpt><trkpt lat="41.0281983" lon="14.4073733"><ele>51.0</ele><time>2026-03-28T11:05:22.413Z</time></trkpt><trkpt lat="41.0282317" lon="14.40728"><ele>51.0</ele><time>2026-03-28T11:05:23.414Z</time></trkpt><trkpt lat="41.0282667" lon="14.4071867"><ele>51.0</ele><time>2026-03-28T11:05:24.416Z</time></trkpt><trkpt lat="41.0282983" lon="14.407095"><ele>51.0</ele><time>2026-03-28T11:05:25.414Z</time></trkpt><trkpt lat="41.0283317" lon="14.4070033"><ele>51.0</ele><time>2026-03-28T11:05:26.414Z</time></trkpt><trkpt lat="41.028365" lon="14.4069117"><ele>51.0</ele><time>2026-03-28T11:05:27.414Z</time></trkpt><trkpt lat="41.0283983" lon="14.40682"><ele>51.0</ele><time>2026-03-28T11:05:28.414Z</time></trkpt><trkpt lat="41.0284283" lon="14.4067317"><ele>51.57142857142857</ele><time>2026-03-28T11:05:29.414Z</time></trkpt><trkpt lat="41.0284567" lon="14.406645"><ele>52.142857142857146</ele><time>2026-03-28T11:05:30.415Z</time></trkpt><trkpt lat="41.0284833" lon="14.4065617"><ele>52.71428571428571</ele><time>2026-03-28T11:05:31.414Z</time></trkpt><trkpt lat="41.0285117" lon="14.4064767"><ele>53.285714285714285</ele><time>2026-03-28T11:05:32.414Z</time></trkpt><trkpt lat="41.0285383" lon="14.406395"><ele>53.857142857142854</ele><time>2026-03-28T11:05:33.414Z</time></trkpt><trkpt lat="41.0285683" lon="14.4063133"><ele>54.42857142857142</ele><time>2026-03-28T11:05:34.414Z</time></trkpt><trkpt lat="41.028595" lon="14.4062317"><ele>55.0</ele><time>2026-03-28T11:05:35.414Z</time></trkpt><trkpt lat="41.028625" lon="14.40615"><ele>54.99999999999999</ele><time>2026-03-28T11:05:36.414Z</time></trkpt><trkpt lat="41.0286533" lon="14.40607"><ele>55.0</ele><time>2026-03-28T11:05:37.415Z</time></trkpt><trkpt lat="41.02868" lon="14.40599"><ele>55.0</ele><time>2026-03-28T11:05:38.413Z</time></trkpt><trkpt lat="41.0287083" lon="14.4059133"><ele>55.0</ele><time>2026-03-28T11:05:39.414Z</time></trkpt><trkpt lat="41.0287583" lon="14.4057683"><ele>54.99999999999999</ele><time>2026-03-28T11:05:41.414Z</time></trkpt><trkpt lat="41.0288" lon="14.405635"><ele>55.0</ele><time>2026-03-28T11:05:43.415Z</time></trkpt><trkpt lat="41.0288467" lon="14.4055233"><ele>55.166666666666664</ele><time>2026-03-28T11:05:45.414Z</time></trkpt><trkpt lat="41.02889" lon="14.4054133"><ele>55.33333333333333</ele><time>2026-03-28T11:05:47.415Z</time></trkpt><trkpt lat="41.028925" lon="14.40531"><ele>55.5</ele><time>2026-03-28T11:05:49.413Z</time></trkpt><trkpt lat="41.02896" lon="14.4051967"><ele>55.66666666666667</ele><time>2026-03-28T11:05:51.414Z</time></trkpt><trkpt lat="41.028995" lon="14.4050983"><ele>55.833333333333336</ele><time>2026-03-28T11:05:53.415Z</time></trkpt><trkpt lat="41.0290317" lon="14.4049967"><ele>56.0</ele><time>2026-03-28T11:05:55.415Z</time></trkpt><trkpt lat="41.0290717" lon="14.4048917"><ele>56.00000000000001</ele><time>2026-03-28T11:05:57.414Z</time></trkpt><trkpt lat="41.029115" lon="14.4047767"><ele>56.0</ele><time>2026-03-28T11:05:59.415Z</time></trkpt><trkpt lat="41.0291533" lon="14.4046617"><ele>56.0</ele><time>2026-03-28T11:06:01.414Z</time></trkpt><trkpt lat="41.0291917" lon="14.404555"><ele>56.0</ele><time>2026-03-28T11:06:03.414Z</time></trkpt><trkpt lat="41.02923" lon="14.4044567"><ele>56.00000000000001</ele><time>2026-03-28T11:06:05.415Z</time></trkpt><trkpt lat="41.0292617" lon="14.40437"><ele>56.0</ele><time>2026-03-28T11:06:07.415Z</time></trkpt><trkpt lat="41.0293017" lon="14.4042667"><ele>56.16666666666667</ele><time>2026-03-28T11:06:10.414Z</time></trkpt><trkpt lat="41.0293317" lon="14.404165"><ele>56.333333333333336</ele><time>2026-03-28T11:06:13.415Z</time></trkpt><trkpt lat="41.0293583" lon="14.404075"><ele>56.5</ele><time>2026-03-28T11:06:16.414Z</time></trkpt><trkpt lat="41.029405" lon="14.4039683"><ele>56.66666666666667</ele><time>2026-03-28T11:06:19.415Z</time></trkpt><trkpt lat="41.0294333" lon="14.403875"><ele>56.833333333333336</ele><time>2026-03-28T11:06:21.413Z</time></trkpt><trkpt lat="41.02947" lon="14.4037733"><ele>57.0</ele><time>2026-03-28T11:06:23.417Z</time></trkpt><trkpt lat="41.0295017" lon="14.403675"><ele>57.333333333333336</ele><time>2026-03-28T11:06:25.415Z</time></trkpt><trkpt lat="41.0295417" lon="14.4035633"><ele>57.66666666666667</ele><time>2026-03-28T11:06:27.414Z</time></trkpt><trkpt lat="41.02959" lon="14.4034367"><ele>58.0</ele><time>2026-03-28T11:06:29.415Z</time></trkpt><trkpt lat="41.0296433" lon="14.4032917"><ele>58.333333333333336</ele><time>2026-03-28T11:06:31.415Z</time></trkpt><trkpt lat="41.02967" lon="14.403215"><ele>58.66666666666667</ele><time>2026-03-28T11:06:32.415Z</time></trkpt><trkpt lat="41.0296983" lon="14.40314"><ele>59.0</ele><time>2026-03-28T11:06:33.414Z</time></trkpt><trkpt lat="41.0297233" lon="14.40306"><ele>59.00000000000001</ele><time>2026-03-28T11:06:34.413Z</time></trkpt><trkpt lat="41.029755" lon="14.4029767"><ele>59.0</ele><time>2026-03-28T11:06:35.414Z</time></trkpt><trkpt lat="41.0297883" lon="14.40289"><ele>59.0</ele><time>2026-03-28T11:06:36.415Z</time></trkpt><trkpt lat="41.0298217" lon="14.4027967"><ele>59.0</ele><time>2026-03-28T11:06:37.414Z</time></trkpt><trkpt lat="41.0298533" lon="14.4027067"><ele>59.00000000000001</ele><time>2026-03-28T11:06:38.415Z</time></trkpt><trkpt lat="41.0298867" lon="14.4026133"><ele>59.0</ele><time>2026-03-28T11:06:39.415Z</time></trkpt><trkpt lat="41.0299233" lon="14.402515"><ele>59.00000000000001</ele><time>2026-03-28T11:06:40.415Z</time></trkpt><trkpt lat="41.0299567" lon="14.4024183"><ele>59.0</ele><time>2026-03-28T11:06:41.415Z</time></trkpt><trkpt lat="41.0299917" lon="14.4023183"><ele>59.0</ele><time>2026-03-28T11:06:42.415Z</time></trkpt><trkpt lat="41.0300267" lon="14.4022183"><ele>59.0</ele><time>2026-03-28T11:06:43.418Z</time></trkpt><trkpt lat="41.0300633" lon="14.402115"><ele>59.00000000000001</ele><time>2026-03-28T11:06:44.418Z</time></trkpt><trkpt lat="41.0301017" lon="14.4020083"><ele>59.0</ele><time>2026-03-28T11:06:45.414Z</time></trkpt><trkpt lat="41.0301367" lon="14.4019067"><ele>59.16666666666667</ele><time>2026-03-28T11:06:46.414Z</time></trkpt><trkpt lat="41.0301733" lon="14.4017967"><ele>59.333333333333336</ele><time>2026-03-28T11:06:47.415Z</time></trkpt><trkpt lat="41.0302117" lon="14.40169"><ele>59.5</ele><time>2026-03-28T11:06:48.414Z</time></trkpt><trkpt lat="41.030245" lon="14.401585"><ele>59.66666666666667</ele><time>2026-03-28T11:06:49.416Z</time></trkpt><trkpt lat="41.0302767" lon="14.4014717"><ele>59.833333333333336</ele><time>2026-03-28T11:06:50.414Z</time></trkpt><trkpt lat="41.03031" lon="14.4013667"><ele>60.0</ele><time>2026-03-28T11:06:51.414Z</time></trkpt><trkpt lat="41.030345" lon="14.4012617"><ele>60.0</ele><time>2026-03-28T11:06:52.414Z</time></trkpt><trkpt lat="41.0303783" lon="14.4011533"><ele>60.0</ele><time>2026-03-28T11:06:53.415Z</time></trkpt><trkpt lat="41.03041" lon="14.401045"><ele>60.0</ele><time>2026-03-28T11:06:54.415Z</time></trkpt><trkpt lat="41.0304383" lon="14.400935"><ele>60.0</ele><time>2026-03-28T11:06:55.414Z</time></trkpt><trkpt lat="41.0304617" lon="14.4008283"><ele>60.0</ele><time>2026-03-28T11:06:56.414Z</time></trkpt><trkpt lat="41.03048" lon="14.40072"><ele>60.0</ele><time>2026-03-28T11:06:57.414Z</time></trkpt><trkpt lat="41.030495" lon="14.4006117"><ele>60.0</ele><time>2026-03-28T11:06:58.414Z</time></trkpt><trkpt lat="41.0305067" lon="14.4005"><ele>60.0</ele><time>2026-03-28T11:06:59.415Z</time></trkpt><trkpt lat="41.030515" lon="14.4003883"><ele>60.0</ele><time>2026-03-28T11:07:00.415Z</time></trkpt><trkpt lat="41.0305217" lon="14.40028"><ele>60.0</ele><time>2026-03-28T11:07:01.414Z</time></trkpt><trkpt lat="41.0305267" lon="14.4001733"><ele>60.0</ele><time>2026-03-28T11:07:02.415Z</time></trkpt><trkpt lat="41.03053" lon="14.4000667"><ele>60.0</ele><time>2026-03-28T11:07:03.413Z</time></trkpt><trkpt lat="41.03053" lon="14.399955"><ele>59.833333333333336</ele><time>2026-03-28T11:07:04.415Z</time></trkpt><trkpt lat="41.0305233" lon="14.399845"><ele>59.66666666666667</ele><time>2026-03-28T11:07:05.415Z</time></trkpt><trkpt lat="41.0305133" lon="14.3997333"><ele>59.5</ele><time>2026-03-28T11:07:06.414Z</time></trkpt><trkpt lat="41.0304967" lon="14.3996183"><ele>59.333333333333336</ele><time>2026-03-28T11:07:07.414Z</time></trkpt><trkpt lat="41.0304783" lon="14.3995067"><ele>59.16666666666667</ele><time>2026-03-28T11:07:08.416Z</time></trkpt><trkpt lat="41.03046" lon="14.3994"><ele>59.0</ele><time>2026-03-28T11:07:09.413Z</time></trkpt><trkpt lat="41.03044" lon="14.3992883"><ele>59.00000000000001</ele><time>2026-03-28T11:07:10.414Z</time></trkpt><trkpt lat="41.0304167" lon="14.3991767"><ele>59.0</ele><time>2026-03-28T11:07:11.415Z</time></trkpt><trkpt lat="41.0303917" lon="14.3990667"><ele>59.0</ele><time>2026-03-28T11:07:12.415Z</time></trkpt><trkpt lat="41.0303633" lon="14.3989583"><ele>59.0</ele><time>2026-03-28T11:07:13.415Z</time></trkpt><trkpt lat="41.0303333" lon="14.3988517"><ele>59.00000000000001</ele><time>2026-03-28T11:07:14.413Z</time></trkpt><trkpt lat="41.030305" lon="14.398745"><ele>59.0</ele><time>2026-03-28T11:07:15.414Z</time></trkpt><trkpt lat="41.0302717" lon="14.3986417"><ele>59.00000000000001</ele><time>2026-03-28T11:07:16.414Z</time></trkpt><trkpt lat="41.0302383" lon="14.398535"><ele>59.0</ele><time>2026-03-28T11:07:17.415Z</time></trkpt><trkpt lat="41.030205" lon="14.3984317"><ele>59.0</ele><time>2026-03-28T11:07:18.413Z</time></trkpt><trkpt lat="41.0301733" lon="14.3983233"><ele>59.0</ele><time>2026-03-28T11:07:19.415Z</time></trkpt><trkpt lat="41.0301417" lon="14.3982167"><ele>59.00000000000001</ele><time>2026-03-28T11:07:20.413Z</time></trkpt><trkpt lat="41.0301083" lon="14.3981117"><ele>59.0</ele><time>2026-03-28T11:07:21.415Z</time></trkpt><trkpt lat="41.0300767" lon="14.3980117"><ele>58.833333333333336</ele><time>2026-03-28T11:07:22.414Z</time></trkpt><trkpt lat="41.0300467" lon="14.39791"><ele>58.66666666666667</ele><time>2026-03-28T11:07:23.415Z</time></trkpt><trkpt lat="41.0300183" lon="14.3978067"><ele>58.5</ele><time>2026-03-28T11:07:24.415Z</time></trkpt><trkpt lat="41.0299917" lon="14.3977033"><ele>58.33333333333333</ele><time>2026-03-28T11:07:25.415Z</time></trkpt><trkpt lat="41.0299633" lon="14.3975983"><ele>58.166666666666664</ele><time>2026-03-28T11:07:26.415Z</time></trkpt><trkpt lat="41.0299367" lon="14.3974933"><ele>58.0</ele><time>2026-03-28T11:07:27.414Z</time></trkpt><trkpt lat="41.02991" lon="14.3973883"><ele>57.83333333333333</ele><time>2026-03-28T11:07:28.414Z</time></trkpt><trkpt lat="41.0298833" lon="14.39728"><ele>57.666666666666664</ele><time>2026-03-28T11:07:29.417Z</time></trkpt><trkpt lat="41.0298583" lon="14.3971683"><ele>57.5</ele><time>2026-03-28T11:07:30.415Z</time></trkpt><trkpt lat="41.02983" lon="14.39706"><ele>57.33333333333333</ele><time>2026-03-28T11:07:31.416Z</time></trkpt><trkpt lat="41.0298" lon="14.3969483"><ele>57.166666666666664</ele><time>2026-03-28T11:07:32.415Z</time></trkpt><trkpt lat="41.0297717" lon="14.39684"><ele>57.0</ele><time>2026-03-28T11:07:33.414Z</time></trkpt><trkpt lat="41.0297433" lon="14.39673"><ele>57.0</ele><time>2026-03-28T11:07:34.414Z</time></trkpt><trkpt lat="41.0297183" lon="14.3966183"><ele>57.0</ele><time>2026-03-28T11:07:35.415Z</time></trkpt><trkpt lat="41.02969" lon="14.3965083"><ele>57.0</ele><time>2026-03-28T11:07:36.415Z</time></trkpt><trkpt lat="41.029665" lon="14.3963983"><ele>57.0</ele><time>2026-03-28T11:07:37.415Z</time></trkpt><trkpt lat="41.0296433" lon="14.396285"><ele>57.0</ele><time>2026-03-28T11:07:38.415Z</time></trkpt><trkpt lat="41.02962" lon="14.396175"><ele>57.0</ele><time>2026-03-28T11:07:39.415Z</time></trkpt><trkpt lat="41.0295983" lon="14.39606"><ele>57.166666666666664</ele><time>2026-03-28T11:07:40.415Z</time></trkpt><trkpt lat="41.0295767" lon="14.3959467"><ele>57.33333333333333</ele><time>2026-03-28T11:07:41.415Z</time></trkpt><trkpt lat="41.0295533" lon="14.3958333"><ele>57.5</ele><time>2026-03-28T11:07:42.415Z</time></trkpt><trkpt lat="41.0295267" lon="14.3957217"><ele>57.666666666666664</ele><time>2026-03-28T11:07:43.415Z</time></trkpt><trkpt lat="41.0295" lon="14.3956067"><ele>57.83333333333333</ele><time>2026-03-28T11:07:44.415Z</time></trkpt><trkpt lat="41.0294767" lon="14.3954917"><ele>58.0</ele><time>2026-03-28T11:07:45.414Z</time></trkpt><trkpt lat="41.0294567" lon="14.3953767"><ele>57.99999999999999</ele><time>2026-03-28T11:07:46.415Z</time></trkpt><trkpt lat="41.0294333" lon="14.3952633"><ele>58.0</ele><time>2026-03-28T11:07:47.415Z</time></trkpt><trkpt lat="41.0294083" lon="14.3951533"><ele>58.0</ele><time>2026-03-28T11:07:48.418Z</time></trkpt><trkpt lat="41.0293833" lon="14.39504"><ele>58.0</ele><time>2026-03-28T11:07:49.415Z</time></trkpt><trkpt lat="41.0293567" lon="14.3949283"><ele>57.99999999999999</ele><time>2026-03-28T11:07:50.415Z</time></trkpt><trkpt lat="41.0293317" lon="14.3948217"><ele>58.0</ele><time>2026-03-28T11:07:51.415Z</time></trkpt><trkpt lat="41.0293033" lon="14.3947117"><ele>57.83333333333333</ele><time>2026-03-28T11:07:52.415Z</time></trkpt><trkpt lat="41.0292767" lon="14.3946"><ele>57.666666666666664</ele><time>2026-03-28T11:07:53.414Z</time></trkpt><trkpt lat="41.0292517" lon="14.39449"><ele>57.5</ele><time>2026-03-28T11:07:54.415Z</time></trkpt><trkpt lat="41.02923" lon="14.39438"><ele>57.33333333333333</ele><time>2026-03-28T11:07:55.415Z</time></trkpt><trkpt lat="41.02921" lon="14.394265"><ele>57.166666666666664</ele><time>2026-03-28T11:07:56.415Z</time></trkpt><trkpt lat="41.02919" lon="14.3941567"><ele>57.0</ele><time>2026-03-28T11:07:57.415Z</time></trkpt><trkpt lat="41.0291717" lon="14.39405"><ele>57.0</ele><time>2026-03-28T11:07:58.416Z</time></trkpt><trkpt lat="41.0291517" lon="14.3939383"><ele>57.0</ele><time>2026-03-28T11:07:59.415Z</time></trkpt><trkpt lat="41.0291317" lon="14.3938317"><ele>57.0</ele><time>2026-03-28T11:08:00.415Z</time></trkpt><trkpt lat="41.0291117" lon="14.39372"><ele>57.0</ele><time>2026-03-28T11:08:01.416Z</time></trkpt><trkpt lat="41.0290917" lon="14.3936117"><ele>57.0</ele><time>2026-03-28T11:08:02.415Z</time></trkpt><trkpt lat="41.02907" lon="14.3935033"><ele>57.0</ele><time>2026-03-28T11:08:03.415Z</time></trkpt><trkpt lat="41.0290467" lon="14.3934"><ele>56.666666666666664</ele><time>2026-03-28T11:08:04.415Z</time></trkpt><trkpt lat="41.0290233" lon="14.393295"><ele>56.33333333333333</ele><time>2026-03-28T11:08:05.415Z</time></trkpt><trkpt lat="41.029005" lon="14.39319"><ele>56.0</ele><time>2026-03-28T11:08:06.414Z</time></trkpt><trkpt lat="41.0289833" lon="14.3930883"><ele>55.666666666666664</ele><time>2026-03-28T11:08:07.415Z</time></trkpt><trkpt lat="41.0289633" lon="14.3929883"><ele>55.33333333333333</ele><time>2026-03-28T11:08:08.415Z</time></trkpt><trkpt lat="41.0289483" lon="14.392895"><ele>55.0</ele><time>2026-03-28T11:08:09.414Z</time></trkpt><trkpt lat="41.0289333" lon="14.3928"><ele>54.99999999999999</ele><time>2026-03-28T11:08:10.414Z</time></trkpt><trkpt lat="41.0289233" lon="14.3926983"><ele>55.0</ele><time>2026-03-28T11:08:11.415Z</time></trkpt><trkpt lat="41.0289183" lon="14.3925983"><ele>55.0</ele><time>2026-03-28T11:08:12.415Z</time></trkpt><trkpt lat="41.0289167" lon="14.3924967"><ele>55.0</ele><time>2026-03-28T11:08:13.417Z</time></trkpt><trkpt lat="41.0289167" lon="14.3923917"><ele>54.99999999999999</ele><time>2026-03-28T11:08:14.415Z</time></trkpt><trkpt lat="41.028915" lon="14.3923"><ele>55.0</ele><time>2026-03-28T11:08:15.416Z</time></trkpt><trkpt lat="41.0288733" lon="14.392175"><ele>54.49999999999999</ele><time>2026-03-28T11:08:17.415Z</time></trkpt><trkpt lat="41.0287933" lon="14.3921233"><ele>54.0</ele><time>2026-03-28T11:08:19.418Z</time></trkpt><trkpt lat="41.028725" lon="14.3921167"><ele>53.5</ele><time>2026-03-28T11:08:20.415Z</time></trkpt><trkpt lat="41.0286567" lon="14.3921033"><ele>53.0</ele><time>2026-03-28T11:08:21.415Z</time></trkpt><trkpt lat="41.0285783" lon="14.3920817"><ele>52.49999999999999</ele><time>2026-03-28T11:08:22.414Z</time></trkpt><trkpt lat="41.028505" lon="14.3920517"><ele>52.0</ele><time>2026-03-28T11:08:23.415Z</time></trkpt><trkpt lat="41.028425" lon="14.3920217"><ele>51.99999999999999</ele><time>2026-03-28T11:08:24.415Z</time></trkpt><trkpt lat="41.0283433" lon="14.391995"><ele>52.0</ele><time>2026-03-28T11:08:25.415Z</time></trkpt><trkpt lat="41.028255" lon="14.3919783"><ele>52.0</ele><time>2026-03-28T11:08:26.416Z</time></trkpt><trkpt lat="41.0281683" lon="14.391965"><ele>52.0</ele><time>2026-03-28T11:08:27.413Z</time></trkpt><trkpt lat="41.0280883" lon="14.3919483"><ele>51.99999999999999</ele><time>2026-03-28T11:08:28.415Z</time></trkpt><trkpt lat="41.0280067" lon="14.3919217"><ele>52.0</ele><time>2026-03-28T11:08:29.415Z</time></trkpt><trkpt lat="41.027935" lon="14.391875"><ele>51.99999999999999</ele><time>2026-03-28T11:08:30.415Z</time></trkpt><trkpt lat="41.02787" lon="14.39181"><ele>52.0</ele><time>2026-03-28T11:08:31.415Z</time></trkpt><trkpt lat="41.02781" lon="14.3917367"><ele>52.0</ele><time>2026-03-28T11:08:32.415Z</time></trkpt><trkpt lat="41.0277517" lon="14.3916583"><ele>52.0</ele><time>2026-03-28T11:08:33.415Z</time></trkpt><trkpt lat="41.0276933" lon="14.3915767"><ele>51.99999999999999</ele><time>2026-03-28T11:08:34.415Z</time></trkpt><trkpt lat="41.0276333" lon="14.39149"><ele>52.0</ele><time>2026-03-28T11:08:35.415Z</time></trkpt><trkpt lat="41.0275717" lon="14.39141"><ele>51.99999999999999</ele><time>2026-03-28T11:08:36.415Z</time></trkpt><trkpt lat="41.0275067" lon="14.3913283"><ele>52.0</ele><time>2026-03-28T11:08:37.415Z</time></trkpt><trkpt lat="41.0274467" lon="14.3912467"><ele>52.0</ele><time>2026-03-28T11:08:38.417Z</time></trkpt><trkpt lat="41.027385" lon="14.391165"><ele>52.0</ele><time>2026-03-28T11:08:39.415Z</time></trkpt><trkpt lat="41.0273233" lon="14.39108"><ele>51.99999999999999</ele><time>2026-03-28T11:08:40.415Z</time></trkpt><trkpt lat="41.0272583" lon="14.3909967"><ele>52.0</ele><time>2026-03-28T11:08:41.416Z</time></trkpt><trkpt lat="41.02719" lon="14.3909167"><ele>51.6</ele><time>2026-03-28T11:08:42.414Z</time></trkpt><trkpt lat="41.027125" lon="14.3908367"><ele>51.2</ele><time>2026-03-28T11:08:43.416Z</time></trkpt><trkpt lat="41.02706" lon="14.3907533"><ele>50.8</ele><time>2026-03-28T11:08:44.415Z</time></trkpt><trkpt lat="41.0269967" lon="14.3906667"><ele>50.4</ele><time>2026-03-28T11:08:45.415Z</time></trkpt><trkpt lat="41.0269333" lon="14.3905783"><ele>50.0</ele><time>2026-03-28T11:08:46.415Z</time></trkpt><trkpt lat="41.02687" lon="14.3904933"><ele>50.0</ele><time>2026-03-28T11:08:47.416Z</time></trkpt><trkpt lat="41.0268083" lon="14.3904083"><ele>50.0</ele><time>2026-03-28T11:08:48.415Z</time></trkpt><trkpt lat="41.026745" lon="14.39032"><ele>50.0</ele><time>2026-03-28T11:08:49.415Z</time></trkpt><trkpt lat="41.02668" lon="14.390235"><ele>50.0</ele><time>2026-03-28T11:08:50.416Z</time></trkpt><trkpt lat="41.0266167" lon="14.3901483"><ele>50.0</ele><time>2026-03-28T11:08:51.415Z</time></trkpt><trkpt lat="41.026555" lon="14.3900583"><ele>50.0</ele><time>2026-03-28T11:08:52.415Z</time></trkpt><trkpt lat="41.0264917" lon="14.3899733"><ele>50.0</ele><time>2026-03-28T11:08:53.415Z</time></trkpt><trkpt lat="41.0264233" lon="14.389885"><ele>50.0</ele><time>2026-03-28T11:08:54.415Z</time></trkpt><trkpt lat="41.0263567" lon="14.3897983"><ele>50.0</ele><time>2026-03-28T11:08:55.417Z</time></trkpt><trkpt lat="41.0262867" lon="14.3897067"><ele>50.0</ele><time>2026-03-28T11:08:56.415Z</time></trkpt><trkpt lat="41.0262217" lon="14.3896183"><ele>50.0</ele><time>2026-03-28T11:08:57.415Z</time></trkpt><trkpt lat="41.026155" lon="14.3895283"><ele>50.0</ele><time>2026-03-28T11:08:58.415Z</time></trkpt><trkpt lat="41.0260883" lon="14.3894383"><ele>50.0</ele><time>2026-03-28T11:08:59.415Z</time></trkpt><trkpt lat="41.0260183" lon="14.389345"><ele>50.0</ele><time>2026-03-28T11:09:00.415Z</time></trkpt><trkpt lat="41.0259483" lon="14.3892533"><ele>50.0</ele><time>2026-03-28T11:09:01.417Z</time></trkpt><trkpt lat="41.0258783" lon="14.38916"><ele>50.0</ele><time>2026-03-28T11:09:02.415Z</time></trkpt><trkpt lat="41.0258117" lon="14.3890667"><ele>50.0</ele><time>2026-03-28T11:09:03.416Z</time></trkpt><trkpt lat="41.0257433" lon="14.3889733"><ele>50.0</ele><time>2026-03-28T11:09:04.415Z</time></trkpt><trkpt lat="41.025675" lon="14.3888767"><ele>50.0</ele><time>2026-03-28T11:09:05.416Z</time></trkpt><trkpt lat="41.0256067" lon="14.3887833"><ele>50.0</ele><time>2026-03-28T11:09:06.416Z</time></trkpt><trkpt lat="41.0255367" lon="14.3886933"><ele>50.0</ele><time>2026-03-28T11:09:07.415Z</time></trkpt><trkpt lat="41.0254683" lon="14.3886017"><ele>50.0</ele><time>2026-03-28T11:09:08.415Z</time></trkpt><trkpt lat="41.0254" lon="14.388515"><ele>50.0</ele><time>2026-03-28T11:09:09.414Z</time></trkpt><trkpt lat="41.0253317" lon="14.3884283"><ele>50.0</ele><time>2026-03-28T11:09:10.415Z</time></trkpt><trkpt lat="41.025265" lon="14.3883367"><ele>50.0</ele><time>2026-03-28T11:09:11.416Z</time></trkpt><trkpt lat="41.0251967" lon="14.3882433"><ele>50.0</ele><time>2026-03-28T11:09:12.415Z</time></trkpt><trkpt lat="41.0251317" lon="14.3881483"><ele>50.0</ele><time>2026-03-28T11:09:13.415Z</time></trkpt><trkpt lat="41.0250633" lon="14.38805"><ele>50.0</ele><time>2026-03-28T11:09:14.415Z</time></trkpt><trkpt lat="41.0249983" lon="14.3879517"><ele>50.0</ele><time>2026-03-28T11:09:15.416Z</time></trkpt><trkpt lat="41.0249333" lon="14.3878533"><ele>50.0</ele><time>2026-03-28T11:09:16.415Z</time></trkpt><trkpt lat="41.0248717" lon="14.3877567"><ele>50.2</ele><time>2026-03-28T11:09:17.416Z</time></trkpt><trkpt lat="41.024815" lon="14.3876583"><ele>50.4</ele><time>2026-03-28T11:09:18.416Z</time></trkpt><trkpt lat="41.0247617" lon="14.38755"><ele>50.599999999999994</ele><time>2026-03-28T11:09:19.415Z</time></trkpt><trkpt lat="41.0247083" lon="14.387445"><ele>50.8</ele><time>2026-03-28T11:09:20.415Z</time></trkpt><trkpt lat="41.02466" lon="14.3873367"><ele>51.0</ele><time>2026-03-28T11:09:21.415Z</time></trkpt><trkpt lat="41.024615" lon="14.3872233"><ele>51.0</ele><time>2026-03-28T11:09:22.415Z</time></trkpt><trkpt lat="41.0245717" lon="14.3871067"><ele>51.0</ele><time>2026-03-28T11:09:23.414Z</time></trkpt><trkpt lat="41.0245317" lon="14.3869933"><ele>51.0</ele><time>2026-03-28T11:09:24.414Z</time></trkpt><trkpt lat="41.024495" lon="14.38688"><ele>51.0</ele><time>2026-03-28T11:09:25.415Z</time></trkpt><trkpt lat="41.0244617" lon="14.3867683"><ele>51.0</ele><time>2026-03-28T11:09:26.415Z</time></trkpt><trkpt lat="41.0244333" lon="14.38665"><ele>51.0</ele><time>2026-03-28T11:09:27.414Z</time></trkpt><trkpt lat="41.024405" lon="14.3865333"><ele>51.0</ele><time>2026-03-28T11:09:28.415Z</time></trkpt><trkpt lat="41.02438" lon="14.38641"><ele>51.0</ele><time>2026-03-28T11:09:29.415Z</time></trkpt><trkpt lat="41.0243567" lon="14.3862867"><ele>51.0</ele><time>2026-03-28T11:09:30.416Z</time></trkpt><trkpt lat="41.0243317" lon="14.386165"><ele>51.0</ele><time>2026-03-28T11:09:31.414Z</time></trkpt><trkpt lat="41.0243117" lon="14.38604"><ele>50.199999999999996</ele><time>2026-03-28T11:09:32.414Z</time></trkpt><trkpt lat="41.02429" lon="14.3859167"><ele>49.4</ele><time>2026-03-28T11:09:33.415Z</time></trkpt><trkpt lat="41.0242683" lon="14.38579"><ele>48.6</ele><time>2026-03-28T11:09:34.415Z</time></trkpt><trkpt lat="41.0242467" lon="14.3856633"><ele>47.8</ele><time>2026-03-28T11:09:35.415Z</time></trkpt><trkpt lat="41.024225" lon="14.38554"><ele>47.0</ele><time>2026-03-28T11:09:36.415Z</time></trkpt><trkpt lat="41.0242017" lon="14.3854167"><ele>46.8</ele><time>2026-03-28T11:09:37.415Z</time></trkpt><trkpt lat="41.0241817" lon="14.3852917"><ele>46.6</ele><time>2026-03-28T11:09:38.417Z</time></trkpt><trkpt lat="41.02416" lon="14.3851683"><ele>46.4</ele><time>2026-03-28T11:09:39.415Z</time></trkpt><trkpt lat="41.0241383" lon="14.3850433"><ele>46.199999999999996</ele><time>2026-03-28T11:09:40.415Z</time></trkpt><trkpt lat="41.0241183" lon="14.3849183"><ele>46.0</ele><time>2026-03-28T11:09:41.416Z</time></trkpt><trkpt lat="41.0240983" lon="14.3847883"><ele>45.8</ele><time>2026-03-28T11:09:42.415Z</time></trkpt><trkpt lat="41.0240767" lon="14.38466"><ele>45.599999999999994</ele><time>2026-03-28T11:09:43.416Z</time></trkpt><trkpt lat="41.0240583" lon="14.38453"><ele>45.4</ele><time>2026-03-28T11:09:44.415Z</time></trkpt><trkpt lat="41.0240383" lon="14.3844033"><ele>45.2</ele><time>2026-03-28T11:09:45.415Z</time></trkpt><trkpt lat="41.02402" lon="14.3842767"><ele>45.0</ele><time>2026-03-28T11:09:46.415Z</time></trkpt><trkpt lat="41.0240017" lon="14.3841467"><ele>45.0</ele><time>2026-03-28T11:09:47.416Z</time></trkpt><trkpt lat="41.0239817" lon="14.38402"><ele>45.0</ele><time>2026-03-28T11:09:48.416Z</time></trkpt><trkpt lat="41.0239617" lon="14.3838917"><ele>45.0</ele><time>2026-03-28T11:09:49.416Z</time></trkpt><trkpt lat="41.0239417" lon="14.38376"><ele>45.0</ele><time>2026-03-28T11:09:50.415Z</time></trkpt><trkpt lat="41.0239183" lon="14.3836317"><ele>45.0</ele><time>2026-03-28T11:09:51.417Z</time></trkpt><trkpt lat="41.0238967" lon="14.3835"><ele>45.0</ele><time>2026-03-28T11:09:52.416Z</time></trkpt><trkpt lat="41.0238767" lon="14.383365"><ele>45.0</ele><time>2026-03-28T11:09:53.418Z</time></trkpt><trkpt lat="41.023855" lon="14.3832317"><ele>45.0</ele><time>2026-03-28T11:09:54.415Z</time></trkpt><trkpt lat="41.0238317" lon="14.3831"><ele>45.0</ele><time>2026-03-28T11:09:55.415Z</time></trkpt><trkpt lat="41.02381" lon="14.382965"><ele>45.0</ele><time>2026-03-28T11:09:56.415Z</time></trkpt><trkpt lat="41.0237883" lon="14.3828367"><ele>45.0</ele><time>2026-03-28T11:09:57.415Z</time></trkpt><trkpt lat="41.023765" lon="14.3827083"><ele>45.0</ele><time>2026-03-28T11:09:58.416Z</time></trkpt><trkpt lat="41.0237417" lon="14.3825767"><ele>45.0</ele><time>2026-03-28T11:09:59.416Z</time></trkpt><trkpt lat="41.023725" lon="14.3824467"><ele>45.0</ele><time>2026-03-28T11:10:00.415Z</time></trkpt><trkpt lat="41.0237083" lon="14.3823167"><ele>45.0</ele><time>2026-03-28T11:10:01.415Z</time></trkpt><trkpt lat="41.0236867" lon="14.3821917"><ele>45.0</ele><time>2026-03-28T11:10:02.416Z</time></trkpt><trkpt lat="41.023665" lon="14.382065"><ele>45.0</ele><time>2026-03-28T11:10:03.414Z</time></trkpt><trkpt lat="41.0236483" lon="14.381935"><ele>45.0</ele><time>2026-03-28T11:10:04.415Z</time></trkpt><trkpt lat="41.02363" lon="14.3818067"><ele>45.0</ele><time>2026-03-28T11:10:05.415Z</time></trkpt><trkpt lat="41.02361" lon="14.3816767"><ele>45.0</ele><time>2026-03-28T11:10:06.415Z</time></trkpt><trkpt lat="41.023595" lon="14.381545"><ele>45.0</ele><time>2026-03-28T11:10:07.416Z</time></trkpt><trkpt lat="41.0235833" lon="14.38141"><ele>45.0</ele><time>2026-03-28T11:10:08.415Z</time></trkpt><trkpt lat="41.0235767" lon="14.38128"><ele>45.0</ele><time>2026-03-28T11:10:09.414Z</time></trkpt><trkpt lat="41.0235717" lon="14.381145"><ele>45.0</ele><time>2026-03-28T11:10:10.415Z</time></trkpt><trkpt lat="41.0235683" lon="14.3810117"><ele>45.0</ele><time>2026-03-28T11:10:11.416Z</time></trkpt><trkpt lat="41.0235683" lon="14.3808767"><ele>44.6</ele><time>2026-03-28T11:10:12.415Z</time></trkpt><trkpt lat="41.0235683" lon="14.380745"><ele>44.2</ele><time>2026-03-28T11:10:13.415Z</time></trkpt><trkpt lat="41.0235717" lon="14.3806083"><ele>43.8</ele><time>2026-03-28T11:10:14.415Z</time></trkpt><trkpt lat="41.0235817" lon="14.38047"><ele>43.4</ele><time>2026-03-28T11:10:15.415Z</time></trkpt><trkpt lat="41.0235933" lon="14.3803333"><ele>43.0</ele><time>2026-03-28T11:10:16.416Z</time></trkpt><trkpt lat="41.0236067" lon="14.3801983"><ele>43.0</ele><time>2026-03-28T11:10:17.415Z</time></trkpt><trkpt lat="41.0236267" lon="14.380065"><ele>43.0</ele><time>2026-03-28T11:10:18.415Z</time></trkpt><trkpt lat="41.0236483" lon="14.3799283"><ele>43.0</ele><time>2026-03-28T11:10:19.416Z</time></trkpt><trkpt lat="41.0236733" lon="14.3797967"><ele>43.0</ele><time>2026-03-28T11:10:20.415Z</time></trkpt><trkpt lat="41.0236983" lon="14.3796683"><ele>43.0</ele><time>2026-03-28T11:10:21.415Z</time></trkpt><trkpt lat="41.023725" lon="14.3795367"><ele>43.0</ele><time>2026-03-28T11:10:22.415Z</time></trkpt><trkpt lat="41.02375" lon="14.3794133"><ele>43.0</ele><time>2026-03-28T11:10:23.415Z</time></trkpt><trkpt lat="41.0237767" lon="14.379295"><ele>43.0</ele><time>2026-03-28T11:10:24.415Z</time></trkpt><trkpt lat="41.023805" lon="14.37917"><ele>43.0</ele><time>2026-03-28T11:10:25.416Z</time></trkpt><trkpt lat="41.02383" lon="14.379045"><ele>43.0</ele><time>2026-03-28T11:10:26.416Z</time></trkpt><trkpt lat="41.0238533" lon="14.378925"><ele>42.833333333333336</ele><time>2026-03-28T11:10:27.414Z</time></trkpt><trkpt lat="41.023875" lon="14.378805"><ele>42.66666666666667</ele><time>2026-03-28T11:10:28.414Z</time></trkpt><trkpt lat="41.023895" lon="14.3786917"><ele>42.5</ele><time>2026-03-28T11:10:29.415Z</time></trkpt><trkpt lat="41.0239183" lon="14.3785817"><ele>42.333333333333336</ele><time>2026-03-28T11:10:30.414Z</time></trkpt><trkpt lat="41.02394" lon="14.3784717"><ele>42.166666666666664</ele><time>2026-03-28T11:10:31.414Z</time></trkpt><trkpt lat="41.0239617" lon="14.37836"><ele>42.0</ele><time>2026-03-28T11:10:32.414Z</time></trkpt><trkpt lat="41.023985" lon="14.3782467"><ele>42.0</ele><time>2026-03-28T11:10:33.414Z</time></trkpt><trkpt lat="41.0240067" lon="14.3781333"><ele>42.0</ele><time>2026-03-28T11:10:34.415Z</time></trkpt><trkpt lat="41.02403" lon="14.3780233"><ele>42.0</ele><time>2026-03-28T11:10:35.414Z</time></trkpt><trkpt lat="41.0240517" lon="14.3779117"><ele>42.0</ele><time>2026-03-28T11:10:36.414Z</time></trkpt><trkpt lat="41.0240733" lon="14.3778"><ele>42.0</ele><time>2026-03-28T11:10:37.417Z</time></trkpt><trkpt lat="41.024095" lon="14.3776867"><ele>42.0</ele><time>2026-03-28T11:10:38.414Z</time></trkpt><trkpt lat="41.0241233" lon="14.3775767"><ele>42.166666666666664</ele><time>2026-03-28T11:10:39.414Z</time></trkpt><trkpt lat="41.02415" lon="14.3774667"><ele>42.333333333333336</ele><time>2026-03-28T11:10:40.414Z</time></trkpt><trkpt lat="41.0241817" lon="14.3773533"><ele>42.5</ele><time>2026-03-28T11:10:41.415Z</time></trkpt><trkpt lat="41.0242083" lon="14.37724"><ele>42.66666666666667</ele><time>2026-03-28T11:10:42.413Z</time></trkpt><trkpt lat="41.0242333" lon="14.37713"><ele>42.833333333333336</ele><time>2026-03-28T11:10:43.415Z</time></trkpt><trkpt lat="41.02426" lon="14.3770183"><ele>43.0</ele><time>2026-03-28T11:10:44.414Z</time></trkpt><trkpt lat="41.0242867" lon="14.3769067"><ele>43.0</ele><time>2026-03-28T11:10:45.416Z</time></trkpt><trkpt lat="41.0243117" lon="14.3767933"><ele>43.0</ele><time>2026-03-28T11:10:46.414Z</time></trkpt><trkpt lat="41.024335" lon="14.37668"><ele>43.0</ele><time>2026-03-28T11:10:47.414Z</time></trkpt><trkpt lat="41.0243583" lon="14.3765683"><ele>43.0</ele><time>2026-03-28T11:10:48.414Z</time></trkpt><trkpt lat="41.024385" lon="14.3764533"><ele>43.0</ele><time>2026-03-28T11:10:49.415Z</time></trkpt><trkpt lat="41.0244133" lon="14.3763367"><ele>43.0</ele><time>2026-03-28T11:10:50.414Z</time></trkpt><trkpt lat="41.0244417" lon="14.3762217"><ele>43.16666666666667</ele><time>2026-03-28T11:10:51.415Z</time></trkpt><trkpt lat="41.0244683" lon="14.3761083"><ele>43.333333333333336</ele><time>2026-03-28T11:10:52.414Z</time></trkpt><trkpt lat="41.0244933" lon="14.3759983"><ele>43.5</ele><time>2026-03-28T11:10:53.414Z</time></trkpt><trkpt lat="41.0245183" lon="14.3758883"><ele>43.666666666666664</ele><time>2026-03-28T11:10:54.414Z</time></trkpt><trkpt lat="41.0245433" lon="14.3757783"><ele>43.83333333333333</ele><time>2026-03-28T11:10:55.414Z</time></trkpt><trkpt lat="41.0245683" lon="14.37567"><ele>44.0</ele><time>2026-03-28T11:10:56.414Z</time></trkpt><trkpt lat="41.0245933" lon="14.375565"><ele>43.85714285714286</ele><time>2026-03-28T11:10:57.416Z</time></trkpt><trkpt lat="41.024615" lon="14.3754617"><ele>43.714285714285715</ele><time>2026-03-28T11:10:58.416Z</time></trkpt><trkpt lat="41.0246383" lon="14.3753617"><ele>43.57142857142857</ele><time>2026-03-28T11:10:59.415Z</time></trkpt><trkpt lat="41.02466" lon="14.3752683"><ele>43.42857142857143</ele><time>2026-03-28T11:11:00.414Z</time></trkpt><trkpt lat="41.0246733" lon="14.3751733"><ele>43.285714285714285</ele><time>2026-03-28T11:11:01.414Z</time></trkpt><trkpt lat="41.0246783" lon="14.375075"><ele>43.142857142857146</ele><time>2026-03-28T11:11:02.414Z</time></trkpt><trkpt lat="41.0246867" lon="14.374985"><ele>43.0</ele><time>2026-03-28T11:11:03.414Z</time></trkpt><trkpt lat="41.024705" lon="14.374905"><ele>43.0</ele><time>2026-03-28T11:11:04.414Z</time></trkpt><trkpt lat="41.0247433" lon="14.3748317"><ele>43.0</ele><time>2026-03-28T11:11:05.414Z</time></trkpt><trkpt lat="41.02479" lon="14.3747683"><ele>43.0</ele><time>2026-03-28T11:11:06.414Z</time></trkpt><trkpt lat="41.0248433" lon="14.3747033"><ele>43.0</ele><time>2026-03-28T11:11:07.414Z</time></trkpt><trkpt lat="41.024885" lon="14.3746367"><ele>43.0</ele><time>2026-03-28T11:11:08.414Z</time></trkpt><trkpt lat="41.0248983" lon="14.374485"><ele>43.0</ele><time>2026-03-28T11:11:10.414Z</time></trkpt><trkpt lat="41.0248917" lon="14.3743967"><ele>43.0</ele><time>2026-03-28T11:11:11.415Z</time></trkpt><trkpt lat="41.0248933" lon="14.3743033"><ele>43.0</ele><time>2026-03-28T11:11:12.414Z</time></trkpt><trkpt lat="41.0249083" lon="14.374205"><ele>43.0</ele><time>2026-03-28T11:11:13.414Z</time></trkpt><trkpt lat="41.0249283" lon="14.3741033"><ele>43.0</ele><time>2026-03-28T11:11:14.414Z</time></trkpt><trkpt lat="41.0249567" lon="14.374"><ele>43.0</ele><time>2026-03-28T11:11:15.415Z</time></trkpt><trkpt lat="41.02498" lon="14.3738967"><ele>43.0</ele><time>2026-03-28T11:11:16.414Z</time></trkpt><trkpt lat="41.0250017" lon="14.3737917"><ele>42.833333333333336</ele><time>2026-03-28T11:11:17.415Z</time></trkpt><trkpt lat="41.025025" lon="14.373685"><ele>42.66666666666667</ele><time>2026-03-28T11:11:18.414Z</time></trkpt><trkpt lat="41.0250483" lon="14.3735817"><ele>42.5</ele><time>2026-03-28T11:11:19.414Z</time></trkpt><trkpt lat="41.0250683" lon="14.3734767"><ele>42.333333333333336</ele><time>2026-03-28T11:11:20.414Z</time></trkpt><trkpt lat="41.0250883" lon="14.3733717"><ele>42.166666666666664</ele><time>2026-03-28T11:11:21.417Z</time></trkpt><trkpt lat="41.0251033" lon="14.373265"><ele>42.0</ele><time>2026-03-28T11:11:22.415Z</time></trkpt><trkpt lat="41.0251217" lon="14.3731567"><ele>42.0</ele><time>2026-03-28T11:11:23.417Z</time></trkpt><trkpt lat="41.0251467" lon="14.37305"><ele>42.0</ele><time>2026-03-28T11:11:24.415Z</time></trkpt><trkpt lat="41.0251667" lon="14.3729467"><ele>42.0</ele><time>2026-03-28T11:11:25.414Z</time></trkpt><trkpt lat="41.0251883" lon="14.372845"><ele>42.0</ele><time>2026-03-28T11:11:26.414Z</time></trkpt><trkpt lat="41.0252083" lon="14.3727417"><ele>42.0</ele><time>2026-03-28T11:11:27.414Z</time></trkpt><trkpt lat="41.0252267" lon="14.3726383"><ele>42.0</ele><time>2026-03-28T11:11:28.413Z</time></trkpt><trkpt lat="41.0252433" lon="14.3725317"><ele>42.166666666666664</ele><time>2026-03-28T11:11:29.414Z</time></trkpt><trkpt lat="41.025265" lon="14.372425"><ele>42.333333333333336</ele><time>2026-03-28T11:11:30.413Z</time></trkpt><trkpt lat="41.02529" lon="14.3723167"><ele>42.5</ele><time>2026-03-28T11:11:31.413Z</time></trkpt><trkpt lat="41.0253167" lon="14.3722117"><ele>42.66666666666667</ele><time>2026-03-28T11:11:32.414Z</time></trkpt><trkpt lat="41.0253417" lon="14.3721033"><ele>42.833333333333336</ele><time>2026-03-28T11:11:33.414Z</time></trkpt><trkpt lat="41.025365" lon="14.3719967"><ele>43.0</ele><time>2026-03-28T11:11:34.414Z</time></trkpt><trkpt lat="41.0253883" lon="14.3718917"><ele>43.16666666666667</ele><time>2026-03-28T11:11:35.414Z</time></trkpt><trkpt lat="41.0254133" lon="14.3717867"><ele>43.333333333333336</ele><time>2026-03-28T11:11:36.413Z</time></trkpt><trkpt lat="41.0254367" lon="14.3716767"><ele>43.5</ele><time>2026-03-28T11:11:37.414Z</time></trkpt><trkpt lat="41.02546" lon="14.3715667"><ele>43.666666666666664</ele><time>2026-03-28T11:11:38.415Z</time></trkpt><trkpt lat="41.0254833" lon="14.3714617"><ele>43.83333333333333</ele><time>2026-03-28T11:11:39.414Z</time></trkpt><trkpt lat="41.0255083" lon="14.3713567"><ele>44.0</ele><time>2026-03-28T11:11:40.415Z</time></trkpt><trkpt lat="41.0255333" lon="14.37125"><ele>43.666666666666664</ele><time>2026-03-28T11:11:41.414Z</time></trkpt><trkpt lat="41.0255583" lon="14.3711383"><ele>43.33333333333333</ele><time>2026-03-28T11:11:42.414Z</time></trkpt><trkpt lat="41.0255783" lon="14.3710233"><ele>43.0</ele><time>2026-03-28T11:11:43.414Z</time></trkpt><trkpt lat="41.0256" lon="14.3709133"><ele>42.666666666666664</ele><time>2026-03-28T11:11:44.417Z</time></trkpt><trkpt lat="41.0256233" lon="14.3708067"><ele>42.333333333333336</ele><time>2026-03-28T11:11:45.414Z</time></trkpt><trkpt lat="41.0256483" lon="14.3707"><ele>42.0</ele><time>2026-03-28T11:11:46.413Z</time></trkpt><trkpt lat="41.0256717" lon="14.3705983"><ele>42.0</ele><time>2026-03-28T11:11:47.414Z</time></trkpt><trkpt lat="41.0256933" lon="14.3704917"><ele>42.0</ele><time>2026-03-28T11:11:48.415Z</time></trkpt><trkpt lat="41.025715" lon="14.3703817"><ele>42.0</ele><time>2026-03-28T11:11:49.415Z</time></trkpt><trkpt lat="41.02574" lon="14.37027"><ele>42.0</ele><time>2026-03-28T11:11:50.414Z</time></trkpt><trkpt lat="41.0257667" lon="14.3701567"><ele>42.0</ele><time>2026-03-28T11:11:51.414Z</time></trkpt><trkpt lat="41.0257933" lon="14.3700433"><ele>42.0</ele><time>2026-03-28T11:11:52.414Z</time></trkpt><trkpt lat="41.0258167" lon="14.36993"><ele>42.166666666666664</ele><time>2026-03-28T11:11:53.415Z</time></trkpt><trkpt lat="41.0258417" lon="14.369815"><ele>42.333333333333336</ele><time>2026-03-28T11:11:54.415Z</time></trkpt><trkpt lat="41.02587" lon="14.3697033"><ele>42.5</ele><time>2026-03-28T11:11:55.415Z</time></trkpt><trkpt lat="41.025895" lon="14.3695917"><ele>42.66666666666667</ele><time>2026-03-28T11:11:56.415Z</time></trkpt><trkpt lat="41.02592" lon="14.3694783"><ele>42.833333333333336</ele><time>2026-03-28T11:11:57.414Z</time></trkpt><trkpt lat="41.0259467" lon="14.3693617"><ele>43.0</ele><time>2026-03-28T11:11:58.414Z</time></trkpt><trkpt lat="41.0259733" lon="14.3692417"><ele>43.0</ele><time>2026-03-28T11:11:59.414Z</time></trkpt><trkpt lat="41.026" lon="14.369125"><ele>43.0</ele><time>2026-03-28T11:12:00.415Z</time></trkpt><trkpt lat="41.0260283" lon="14.3690083"><ele>43.0</ele><time>2026-03-28T11:12:01.421Z</time></trkpt><trkpt lat="41.02606" lon="14.36889"><ele>43.0</ele><time>2026-03-28T11:12:02.414Z</time></trkpt><trkpt lat="41.0260867" lon="14.3687733"><ele>43.0</ele><time>2026-03-28T11:12:03.414Z</time></trkpt><trkpt lat="41.0261167" lon="14.36866"><ele>42.833333333333336</ele><time>2026-03-28T11:12:04.413Z</time></trkpt><trkpt lat="41.026145" lon="14.3685483"><ele>42.66666666666667</ele><time>2026-03-28T11:12:05.414Z</time></trkpt><trkpt lat="41.02617" lon="14.3684417"><ele>42.5</ele><time>2026-03-28T11:12:06.414Z</time></trkpt><trkpt lat="41.026195" lon="14.3683433"><ele>42.333333333333336</ele><time>2026-03-28T11:12:07.414Z</time></trkpt><trkpt lat="41.026215" lon="14.3682467"><ele>42.166666666666664</ele><time>2026-03-28T11:12:08.414Z</time></trkpt><trkpt lat="41.02623" lon="14.3681533"><ele>42.0</ele><time>2026-03-28T11:12:09.416Z</time></trkpt><trkpt lat="41.02625" lon="14.3680633"><ele>42.0</ele><time>2026-03-28T11:12:10.415Z</time></trkpt><trkpt lat="41.02627" lon="14.3679717"><ele>42.0</ele><time>2026-03-28T11:12:11.414Z</time></trkpt><trkpt lat="41.0262883" lon="14.3678833"><ele>42.0</ele><time>2026-03-28T11:12:12.414Z</time></trkpt><trkpt lat="41.0263083" lon="14.3678017"><ele>42.0</ele><time>2026-03-28T11:12:13.413Z</time></trkpt><trkpt lat="41.0263383" lon="14.3677267"><ele>42.0</ele><time>2026-03-28T11:12:14.414Z</time></trkpt><trkpt lat="41.0263717" lon="14.3676533"><ele>42.0</ele><time>2026-03-28T11:12:15.414Z</time></trkpt><trkpt lat="41.0264167" lon="14.367585"><ele>42.0</ele><time>2026-03-28T11:12:16.415Z</time></trkpt><trkpt lat="41.0264733" lon="14.3675417"><ele>42.0</ele><time>2026-03-28T11:12:17.415Z</time></trkpt><trkpt lat="41.0265433" lon="14.367525"><ele>42.0</ele><time>2026-03-28T11:12:18.414Z</time></trkpt><trkpt lat="41.026615" lon="14.367545"><ele>42.0</ele><time>2026-03-28T11:12:19.414Z</time></trkpt><trkpt lat="41.026685" lon="14.3676"><ele>42.0</ele><time>2026-03-28T11:12:20.413Z</time></trkpt><trkpt lat="41.0267433" lon="14.3676817"><ele>42.0</ele><time>2026-03-28T11:12:21.414Z</time></trkpt><trkpt lat="41.0267817" lon="14.3677917"><ele>42.0</ele><time>2026-03-28T11:12:22.413Z</time></trkpt><trkpt lat="41.0268033" lon="14.36791"><ele>42.0</ele><time>2026-03-28T11:12:23.414Z</time></trkpt><trkpt lat="41.0268033" lon="14.3680367"><ele>42.0</ele><time>2026-03-28T11:12:24.414Z</time></trkpt><trkpt lat="41.0267917" lon="14.36816"><ele>42.0</ele><time>2026-03-28T11:12:25.414Z</time></trkpt><trkpt lat="41.0267733" lon="14.3682717"><ele>42.0</ele><time>2026-03-28T11:12:26.414Z</time></trkpt><trkpt lat="41.026745" lon="14.368375"><ele>42.0</ele><time>2026-03-28T11:12:27.414Z</time></trkpt><trkpt lat="41.026685" lon="14.36845"><ele>42.0</ele><time>2026-03-28T11:12:28.414Z</time></trkpt><trkpt lat="41.0266183" lon="14.3684867"><ele>42.0</ele><time>2026-03-28T11:12:29.414Z</time></trkpt><trkpt lat="41.0265517" lon="14.368515"><ele>42.0</ele><time>2026-03-28T11:12:30.414Z</time></trkpt><trkpt lat="41.0264467" lon="14.3684733"><ele>42.0</ele><time>2026-03-28T11:12:31.415Z</time></trkpt><trkpt lat="41.0263317" lon="14.3683733"><ele>42.0</ele><time>2026-03-28T11:12:32.414Z</time></trkpt><trkpt lat="41.0262667" lon="14.3682867"><ele>42.0</ele><time>2026-03-28T11:12:33.415Z</time></trkpt><trkpt lat="41.026205" lon="14.3681833"><ele>42.0</ele><time>2026-03-28T11:12:34.413Z</time></trkpt><trkpt lat="41.026165" lon="14.3680833"><ele>42.0</ele><time>2026-03-28T11:12:35.413Z</time></trkpt><trkpt lat="41.0261167" lon="14.3679917"><ele>42.0</ele><time>2026-03-28T11:12:36.413Z</time></trkpt><trkpt lat="41.026095" lon="14.36786"><ele>42.0</ele><time>2026-03-28T11:12:37.414Z</time></trkpt><trkpt lat="41.02607" lon="14.36773"><ele>42.0</ele><time>2026-03-28T11:12:38.413Z</time></trkpt><trkpt lat="41.0260483" lon="14.3676067"><ele>42.0</ele><time>2026-03-28T11:12:39.413Z</time></trkpt><trkpt lat="41.02602" lon="14.36749"><ele>42.0</ele><time>2026-03-28T11:12:40.413Z</time></trkpt><trkpt lat="41.0259867" lon="14.3673767"><ele>42.0</ele><time>2026-03-28T11:12:41.413Z</time></trkpt><trkpt lat="41.0259567" lon="14.3672633"><ele>42.0</ele><time>2026-03-28T11:12:42.413Z</time></trkpt><trkpt lat="41.025925" lon="14.3671567"><ele>42.0</ele><time>2026-03-28T11:12:43.413Z</time></trkpt><trkpt lat="41.025895" lon="14.3670417"><ele>42.0</ele><time>2026-03-28T11:12:44.413Z</time></trkpt><trkpt lat="41.0258683" lon="14.3669367"><ele>42.0</ele><time>2026-03-28T11:12:45.413Z</time></trkpt><trkpt lat="41.02584" lon="14.3668283"><ele>42.0</ele><time>2026-03-28T11:12:46.413Z</time></trkpt><trkpt lat="41.02581" lon="14.3667217"><ele>42.0</ele><time>2026-03-28T11:12:47.414Z</time></trkpt><trkpt lat="41.0257783" lon="14.3666167"><ele>42.0</ele><time>2026-03-28T11:12:48.413Z</time></trkpt><trkpt lat="41.025745" lon="14.366515"><ele>42.0</ele><time>2026-03-28T11:12:49.413Z</time></trkpt><trkpt lat="41.025715" lon="14.36641"><ele>41.833333333333336</ele><time>2026-03-28T11:12:50.413Z</time></trkpt><trkpt lat="41.025685" lon="14.3663017"><ele>41.666666666666664</ele><time>2026-03-28T11:12:51.413Z</time></trkpt><trkpt lat="41.0256533" lon="14.3661917"><ele>41.5</ele><time>2026-03-28T11:12:52.414Z</time></trkpt><trkpt lat="41.02562" lon="14.366085"><ele>41.33333333333333</ele><time>2026-03-28T11:12:53.414Z</time></trkpt><trkpt lat="41.025585" lon="14.36598"><ele>41.166666666666664</ele><time>2026-03-28T11:12:54.412Z</time></trkpt><trkpt lat="41.02555" lon="14.3658733"><ele>41.0</ele><time>2026-03-28T11:12:55.413Z</time></trkpt><trkpt lat="41.025515" lon="14.3657717"><ele>41.0</ele><time>2026-03-28T11:12:56.414Z</time></trkpt><trkpt lat="41.0254817" lon="14.3656683"><ele>41.0</ele><time>2026-03-28T11:12:57.414Z</time></trkpt><trkpt lat="41.025445" lon="14.3655633"><ele>41.0</ele><time>2026-03-28T11:12:58.414Z</time></trkpt><trkpt lat="41.025405" lon="14.3654617"><ele>41.0</ele><time>2026-03-28T11:12:59.414Z</time></trkpt><trkpt lat="41.025365" lon="14.36536"><ele>41.0</ele><time>2026-03-28T11:13:00.414Z</time></trkpt><trkpt lat="41.02533" lon="14.36526"><ele>41.0</ele><time>2026-03-28T11:13:01.413Z</time></trkpt><trkpt lat="41.0252967" lon="14.36516"><ele>41.0</ele><time>2026-03-28T11:13:02.413Z</time></trkpt><trkpt lat="41.0252633" lon="14.3650583"><ele>41.0</ele><time>2026-03-28T11:13:03.415Z</time></trkpt><trkpt lat="41.025235" lon="14.3649567"><ele>41.0</ele><time>2026-03-28T11:13:04.413Z</time></trkpt><trkpt lat="41.0252083" lon="14.364855"><ele>41.0</ele><time>2026-03-28T11:13:05.414Z</time></trkpt><trkpt lat="41.0251783" lon="14.3647483"><ele>41.0</ele><time>2026-03-28T11:13:06.413Z</time></trkpt><trkpt lat="41.0251483" lon="14.3646417"><ele>41.0</ele><time>2026-03-28T11:13:07.414Z</time></trkpt><trkpt lat="41.0251167" lon="14.3645317"><ele>41.0</ele><time>2026-03-28T11:13:08.414Z</time></trkpt><trkpt lat="41.0250883" lon="14.36442"><ele>41.0</ele><time>2026-03-28T11:13:09.413Z</time></trkpt><trkpt lat="41.0250567" lon="14.3643083"><ele>41.0</ele><time>2026-03-28T11:13:10.413Z</time></trkpt><trkpt lat="41.0250267" lon="14.364195"><ele>41.0</ele><time>2026-03-28T11:13:11.413Z</time></trkpt><trkpt lat="41.0249967" lon="14.3640833"><ele>41.0</ele><time>2026-03-28T11:13:12.415Z</time></trkpt><trkpt lat="41.02497" lon="14.3639733"><ele>41.0</ele><time>2026-03-28T11:13:13.414Z</time></trkpt><trkpt lat="41.0249367" lon="14.363865"><ele>40.83333333333333</ele><time>2026-03-28T11:13:14.414Z</time></trkpt><trkpt lat="41.0249017" lon="14.3637583"><ele>40.666666666666664</ele><time>2026-03-28T11:13:15.413Z</time></trkpt><trkpt lat="41.024865" lon="14.36365"><ele>40.5</ele><time>2026-03-28T11:13:16.418Z</time></trkpt><trkpt lat="41.0248317" lon="14.3635417"><ele>40.333333333333336</ele><time>2026-03-28T11:13:17.414Z</time></trkpt><trkpt lat="41.0247983" lon="14.363435"><ele>40.16666666666667</ele><time>2026-03-28T11:13:18.414Z</time></trkpt><trkpt lat="41.024765" lon="14.3633283"><ele>40.0</ele><time>2026-03-28T11:13:19.414Z</time></trkpt><trkpt lat="41.0247283" lon="14.3632117"><ele>40.0</ele><time>2026-03-28T11:13:20.413Z</time></trkpt><trkpt lat="41.0246933" lon="14.3631"><ele>40.0</ele><time>2026-03-28T11:13:21.413Z</time></trkpt><trkpt lat="41.02466" lon="14.362985"><ele>40.0</ele><time>2026-03-28T11:13:22.413Z</time></trkpt><trkpt lat="41.0246267" lon="14.3628717"><ele>40.0</ele><time>2026-03-28T11:13:23.414Z</time></trkpt><trkpt lat="41.024595" lon="14.362755"><ele>40.0</ele><time>2026-03-28T11:13:24.413Z</time></trkpt><trkpt lat="41.0245617" lon="14.3626417"><ele>39.8</ele><time>2026-03-28T11:13:25.414Z</time></trkpt><trkpt lat="41.024525" lon="14.3625233"><ele>39.6</ele><time>2026-03-28T11:13:26.414Z</time></trkpt><trkpt lat="41.0244917" lon="14.362405"><ele>39.4</ele><time>2026-03-28T11:13:27.413Z</time></trkpt><trkpt lat="41.0244583" lon="14.3622917"><ele>39.2</ele><time>2026-03-28T11:13:28.413Z</time></trkpt><trkpt lat="41.0244233" lon="14.362175"><ele>39.0</ele><time>2026-03-28T11:13:29.415Z</time></trkpt><trkpt lat="41.0243883" lon="14.3620567"><ele>39.0</ele><time>2026-03-28T11:13:30.414Z</time></trkpt><trkpt lat="41.0243533" lon="14.361935"><ele>39.0</ele><time>2026-03-28T11:13:31.414Z</time></trkpt><trkpt lat="41.024315" lon="14.3618167"><ele>39.0</ele><time>2026-03-28T11:13:32.413Z</time></trkpt><trkpt lat="41.0242767" lon="14.3617033"><ele>39.0</ele><time>2026-03-28T11:13:33.415Z</time></trkpt><trkpt lat="41.0242367" lon="14.36159"><ele>39.0</ele><time>2026-03-28T11:13:34.413Z</time></trkpt><trkpt lat="41.0242017" lon="14.361475"><ele>39.2</ele><time>2026-03-28T11:13:35.416Z</time></trkpt><trkpt lat="41.02417" lon="14.3613633"><ele>39.4</ele><time>2026-03-28T11:13:36.413Z</time></trkpt><trkpt lat="41.0241367" lon="14.3612483"><ele>39.6</ele><time>2026-03-28T11:13:37.413Z</time></trkpt><trkpt lat="41.0241033" lon="14.3611367"><ele>39.8</ele><time>2026-03-28T11:13:38.413Z</time></trkpt><trkpt lat="41.0240683" lon="14.3610233"><ele>40.0</ele><time>2026-03-28T11:13:39.412Z</time></trkpt><trkpt lat="41.0240317" lon="14.3609083"><ele>40.0</ele><time>2026-03-28T11:13:40.414Z</time></trkpt><trkpt lat="41.0239983" lon="14.3608017"><ele>40.0</ele><time>2026-03-28T11:13:41.414Z</time></trkpt><trkpt lat="41.0239717" lon="14.360705"><ele>40.0</ele><time>2026-03-28T11:13:42.414Z</time></trkpt><trkpt lat="41.0239417" lon="14.360615"><ele>40.0</ele><time>2026-03-28T11:13:43.414Z</time></trkpt><trkpt lat="41.0239083" lon="14.3605267"><ele>40.0</ele><time>2026-03-28T11:13:44.414Z</time></trkpt><trkpt lat="41.0238767" lon="14.3604317"><ele>40.0</ele><time>2026-03-28T11:13:45.413Z</time></trkpt><trkpt lat="41.02385" lon="14.3603317"><ele>40.0</ele><time>2026-03-28T11:13:46.414Z</time></trkpt><trkpt lat="41.0238233" lon="14.3602267"><ele>40.0</ele><time>2026-03-28T11:13:47.414Z</time></trkpt><trkpt lat="41.0237917" lon="14.36012"><ele>40.0</ele><time>2026-03-28T11:13:48.414Z</time></trkpt><trkpt lat="41.0237567" lon="14.36001"><ele>40.0</ele><time>2026-03-28T11:13:49.412Z</time></trkpt><trkpt lat="41.0237167" lon="14.3599"><ele>40.0</ele><time>2026-03-28T11:13:50.413Z</time></trkpt><trkpt lat="41.0236767" lon="14.359795"><ele>40.0</ele><time>2026-03-28T11:13:51.413Z</time></trkpt><trkpt lat="41.023635" lon="14.359685"><ele>39.8</ele><time>2026-03-28T11:13:52.413Z</time></trkpt><trkpt lat="41.02359" lon="14.3595633"><ele>39.6</ele><time>2026-03-28T11:13:53.414Z</time></trkpt><trkpt lat="41.0235533" lon="14.3594367"><ele>39.4</ele><time>2026-03-28T11:13:54.414Z</time></trkpt><trkpt lat="41.023515" lon="14.359305"><ele>39.2</ele><time>2026-03-28T11:13:55.414Z</time></trkpt><trkpt lat="41.0234883" lon="14.3591733"><ele>39.0</ele><time>2026-03-28T11:13:56.414Z</time></trkpt><trkpt lat="41.023465" lon="14.3590417"><ele>39.0</ele><time>2026-03-28T11:13:57.414Z</time></trkpt><trkpt lat="41.0234583" lon="14.3589117"><ele>39.0</ele><time>2026-03-28T11:13:58.415Z</time></trkpt><trkpt lat="41.0234817" lon="14.358785"><ele>39.0</ele><time>2026-03-28T11:13:59.413Z</time></trkpt><trkpt lat="41.0235067" lon="14.3586583"><ele>39.0</ele><time>2026-03-28T11:14:00.413Z</time></trkpt><trkpt lat="41.0235117" lon="14.3585283"><ele>39.0</ele><time>2026-03-28T11:14:01.414Z</time></trkpt><trkpt lat="41.0234917" lon="14.3584083"><ele>38.8</ele><time>2026-03-28T11:14:02.414Z</time></trkpt><trkpt lat="41.0234433" lon="14.3583033"><ele>38.599999999999994</ele><time>2026-03-28T11:14:03.414Z</time></trkpt><trkpt lat="41.023375" lon="14.35821"><ele>38.4</ele><time>2026-03-28T11:14:04.413Z</time></trkpt><trkpt lat="41.0233" lon="14.3581333"><ele>38.199999999999996</ele><time>2026-03-28T11:14:05.413Z</time></trkpt><trkpt lat="41.0232283" lon="14.35804"><ele>38.0</ele><time>2026-03-28T11:14:06.412Z</time></trkpt><trkpt lat="41.0231717" lon="14.3579383"><ele>37.4</ele><time>2026-03-28T11:14:07.412Z</time></trkpt><trkpt lat="41.0231317" lon="14.357825"><ele>36.8</ele><time>2026-03-28T11:14:08.413Z</time></trkpt><trkpt lat="41.0230983" lon="14.3577017"><ele>36.2</ele><time>2026-03-28T11:14:09.413Z</time></trkpt><trkpt lat="41.0230617" lon="14.357575"><ele>35.6</ele><time>2026-03-28T11:14:10.413Z</time></trkpt><trkpt lat="41.02302" lon="14.3574483"><ele>35.0</ele><time>2026-03-28T11:14:11.414Z</time></trkpt><trkpt lat="41.0229817" lon="14.3573283"><ele>35.0</ele><time>2026-03-28T11:14:12.414Z</time></trkpt><trkpt lat="41.0229433" lon="14.35721"><ele>35.0</ele><time>2026-03-28T11:14:13.414Z</time></trkpt><trkpt lat="41.02291" lon="14.3570883"><ele>35.0</ele><time>2026-03-28T11:14:14.413Z</time></trkpt><trkpt lat="41.0228717" lon="14.3569683"><ele>35.0</ele><time>2026-03-28T11:14:15.413Z</time></trkpt><trkpt lat="41.0228367" lon="14.3568483"><ele>35.0</ele><time>2026-03-28T11:14:16.413Z</time></trkpt><trkpt lat="41.0228033" lon="14.3567267"><ele>35.2</ele><time>2026-03-28T11:14:17.414Z</time></trkpt><trkpt lat="41.02277" lon="14.3566083"><ele>35.4</ele><time>2026-03-28T11:14:18.413Z</time></trkpt><trkpt lat="41.0227367" lon="14.3564967"><ele>35.6</ele><time>2026-03-28T11:14:19.414Z</time></trkpt><trkpt lat="41.0227033" lon="14.3563833"><ele>35.8</ele><time>2026-03-28T11:14:20.413Z</time></trkpt><trkpt lat="41.0226717" lon="14.3562717"><ele>36.0</ele><time>2026-03-28T11:14:21.413Z</time></trkpt><trkpt lat="41.0226433" lon="14.3561617"><ele>36.0</ele><time>2026-03-28T11:14:22.413Z</time></trkpt><trkpt lat="41.0226067" lon="14.3560533"><ele>36.0</ele><time>2026-03-28T11:14:23.415Z</time></trkpt><trkpt lat="41.02257" lon="14.3559467"><ele>36.0</ele><time>2026-03-28T11:14:24.413Z</time></trkpt><trkpt lat="41.0225417" lon="14.355835"><ele>36.0</ele><time>2026-03-28T11:14:25.414Z</time></trkpt><trkpt lat="41.02251" lon="14.35572"><ele>36.0</ele><time>2026-03-28T11:14:26.413Z</time></trkpt><trkpt lat="41.0224783" lon="14.3556067"><ele>36.2</ele><time>2026-03-28T11:14:27.414Z</time></trkpt><trkpt lat="41.0224433" lon="14.3554983"><ele>36.400000000000006</ele><time>2026-03-28T11:14:28.413Z</time></trkpt><trkpt lat="41.0224067" lon="14.355385"><ele>36.6</ele><time>2026-03-28T11:14:29.414Z</time></trkpt><trkpt lat="41.0223717" lon="14.3552733"><ele>36.800000000000004</ele><time>2026-03-28T11:14:30.413Z</time></trkpt><trkpt lat="41.0223367" lon="14.355165"><ele>37.0</ele><time>2026-03-28T11:14:31.414Z</time></trkpt><trkpt lat="41.0223" lon="14.35505"><ele>37.0</ele><time>2026-03-28T11:14:32.413Z</time></trkpt><trkpt lat="41.022265" lon="14.3549317"><ele>37.0</ele><time>2026-03-28T11:14:33.413Z</time></trkpt><trkpt lat="41.0222317" lon="14.3548133"><ele>37.0</ele><time>2026-03-28T11:14:34.414Z</time></trkpt><trkpt lat="41.022195" lon="14.35469"><ele>37.0</ele><time>2026-03-28T11:14:35.414Z</time></trkpt><trkpt lat="41.022155" lon="14.3545683"><ele>37.0</ele><time>2026-03-28T11:14:36.414Z</time></trkpt><trkpt lat="41.0221167" lon="14.3544517"><ele>36.6</ele><time>2026-03-28T11:14:37.414Z</time></trkpt><trkpt lat="41.02208" lon="14.3543367"><ele>36.2</ele><time>2026-03-28T11:14:38.413Z</time></trkpt><trkpt lat="41.0220467" lon="14.3542183"><ele>35.8</ele><time>2026-03-28T11:14:39.415Z</time></trkpt><trkpt lat="41.0220117" lon="14.3541017"><ele>35.4</ele><time>2026-03-28T11:14:40.412Z</time></trkpt><trkpt lat="41.0219733" lon="14.3539867"><ele>35.0</ele><time>2026-03-28T11:14:41.413Z</time></trkpt><trkpt lat="41.0219367" lon="14.3538683"><ele>34.8</ele><time>2026-03-28T11:14:42.414Z</time></trkpt><trkpt lat="41.0219017" lon="14.3537517"><ele>34.6</ele><time>2026-03-28T11:14:43.414Z</time></trkpt><trkpt lat="41.0218667" lon="14.353635"><ele>34.4</ele><time>2026-03-28T11:14:44.414Z</time></trkpt><trkpt lat="41.0218317" lon="14.3535133"><ele>34.2</ele><time>2026-03-28T11:14:45.413Z</time></trkpt><trkpt lat="41.0217967" lon="14.3533883"><ele>34.0</ele><time>2026-03-28T11:14:46.418Z</time></trkpt><trkpt lat="41.0217617" lon="14.3532633"><ele>34.0</ele><time>2026-03-28T11:14:47.415Z</time></trkpt><trkpt lat="41.0217267" lon="14.35314"><ele>34.0</ele><time>2026-03-28T11:14:48.413Z</time></trkpt><trkpt lat="41.021695" lon="14.35302"><ele>34.0</ele><time>2026-03-28T11:14:49.413Z</time></trkpt><trkpt lat="41.02166" lon="14.3529033"><ele>34.0</ele><time>2026-03-28T11:14:50.414Z</time></trkpt><trkpt lat="41.0216233" lon="14.3527833"><ele>34.0</ele><time>2026-03-28T11:14:51.413Z</time></trkpt><trkpt lat="41.0215817" lon="14.3526617"><ele>34.0</ele><time>2026-03-28T11:14:52.414Z</time></trkpt><trkpt lat="41.0215467" lon="14.3525467"><ele>34.0</ele><time>2026-03-28T11:14:53.415Z</time></trkpt><trkpt lat="41.02151" lon="14.3524267"><ele>34.0</ele><time>2026-03-28T11:14:54.413Z</time></trkpt><trkpt lat="41.0214717" lon="14.3523067"><ele>34.0</ele><time>2026-03-28T11:14:55.414Z</time></trkpt><trkpt lat="41.021435" lon="14.35219"><ele>34.0</ele><time>2026-03-28T11:14:56.413Z</time></trkpt><trkpt lat="41.0214017" lon="14.3520717"><ele>34.0</ele><time>2026-03-28T11:14:57.414Z</time></trkpt><trkpt lat="41.021365" lon="14.3519417"><ele>34.0</ele><time>2026-03-28T11:14:58.413Z</time></trkpt><trkpt lat="41.0213267" lon="14.35182"><ele>34.0</ele><time>2026-03-28T11:14:59.413Z</time></trkpt><trkpt lat="41.0212883" lon="14.3517033"><ele>34.0</ele><time>2026-03-28T11:15:00.414Z</time></trkpt><trkpt lat="41.02125" lon="14.351575"><ele>34.0</ele><time>2026-03-28T11:15:01.414Z</time></trkpt><trkpt lat="41.0212117" lon="14.35145"><ele>33.8</ele><time>2026-03-28T11:15:02.413Z</time></trkpt><trkpt lat="41.0211783" lon="14.3513267"><ele>33.599999999999994</ele><time>2026-03-28T11:15:03.415Z</time></trkpt><trkpt lat="41.0211433" lon="14.351205"><ele>33.4</ele><time>2026-03-28T11:15:04.414Z</time></trkpt><trkpt lat="41.0211033" lon="14.3510817"><ele>33.199999999999996</ele><time>2026-03-28T11:15:05.414Z</time></trkpt><trkpt lat="41.021065" lon="14.3509633"><ele>33.0</ele><time>2026-03-28T11:15:06.414Z</time></trkpt><trkpt lat="41.0210283" lon="14.35084"><ele>33.0</ele><time>2026-03-28T11:15:07.415Z</time></trkpt><trkpt lat="41.0209933" lon="14.3507217"><ele>33.0</ele><time>2026-03-28T11:15:08.413Z</time></trkpt><trkpt lat="41.0209583" lon="14.3506067"><ele>33.0</ele><time>2026-03-28T11:15:09.414Z</time></trkpt><trkpt lat="41.0209167" lon="14.3504833"><ele>33.0</ele><time>2026-03-28T11:15:10.414Z</time></trkpt><trkpt lat="41.0208733" lon="14.35036"><ele>33.0</ele><time>2026-03-28T11:15:11.414Z</time></trkpt><trkpt lat="41.0208317" lon="14.3502367"><ele>33.0</ele><time>2026-03-28T11:15:12.414Z</time></trkpt><trkpt lat="41.020795" lon="14.3501167"><ele>33.0</ele><time>2026-03-28T11:15:13.414Z</time></trkpt><trkpt lat="41.0207633" lon="14.3499883"><ele>33.0</ele><time>2026-03-28T11:15:14.414Z</time></trkpt><trkpt lat="41.0207283" lon="14.3498583"><ele>33.0</ele><time>2026-03-28T11:15:15.413Z</time></trkpt><trkpt lat="41.02069" lon="14.34973"><ele>33.0</ele><time>2026-03-28T11:15:16.413Z</time></trkpt><trkpt lat="41.02065" lon="14.3496"><ele>32.8</ele><time>2026-03-28T11:15:17.414Z</time></trkpt><trkpt lat="41.0206117" lon="14.3494733"><ele>32.599999999999994</ele><time>2026-03-28T11:15:18.413Z</time></trkpt><trkpt lat="41.0205717" lon="14.3493433"><ele>32.400000000000006</ele><time>2026-03-28T11:15:19.414Z</time></trkpt><trkpt lat="41.0205333" lon="14.349215"><ele>32.2</ele><time>2026-03-28T11:15:20.412Z</time></trkpt><trkpt lat="41.020495" lon="14.3490883"><ele>32.0</ele><time>2026-03-28T11:15:21.414Z</time></trkpt><trkpt lat="41.020455" lon="14.3489617"><ele>32.2</ele><time>2026-03-28T11:15:22.414Z</time></trkpt><trkpt lat="41.020415" lon="14.3488383"><ele>32.400000000000006</ele><time>2026-03-28T11:15:23.414Z</time></trkpt><trkpt lat="41.0203733" lon="14.3487183"><ele>32.599999999999994</ele><time>2026-03-28T11:15:24.414Z</time></trkpt><trkpt lat="41.0203333" lon="14.3485983"><ele>32.8</ele><time>2026-03-28T11:15:25.413Z</time></trkpt><trkpt lat="41.0202917" lon="14.348475"><ele>33.0</ele><time>2026-03-28T11:15:26.413Z</time></trkpt><trkpt lat="41.0202533" lon="14.3483517"><ele>33.0</ele><time>2026-03-28T11:15:27.412Z</time></trkpt><trkpt lat="41.0202133" lon="14.3482283"><ele>33.0</ele><time>2026-03-28T11:15:28.414Z</time></trkpt><trkpt lat="41.020175" lon="14.34811"><ele>33.0</ele><time>2026-03-28T11:15:29.414Z</time></trkpt><trkpt lat="41.0201367" lon="14.34799"><ele>33.0</ele><time>2026-03-28T11:15:30.413Z</time></trkpt><trkpt lat="41.0200983" lon="14.3478733"><ele>33.0</ele><time>2026-03-28T11:15:31.414Z</time></trkpt><trkpt lat="41.0200583" lon="14.3477567"><ele>32.8</ele><time>2026-03-28T11:15:32.412Z</time></trkpt><trkpt lat="41.0200183" lon="14.3476367"><ele>32.599999999999994</ele><time>2026-03-28T11:15:33.413Z</time></trkpt><trkpt lat="41.01998" lon="14.3475167"><ele>32.400000000000006</ele><time>2026-03-28T11:15:34.413Z</time></trkpt><trkpt lat="41.0199417" lon="14.3473933"><ele>32.2</ele><time>2026-03-28T11:15:35.414Z</time></trkpt><trkpt lat="41.0199033" lon="14.3472717"><ele>32.0</ele><time>2026-03-28T11:15:36.414Z</time></trkpt><trkpt lat="41.0198667" lon="14.3471517"><ele>32.0</ele><time>2026-03-28T11:15:37.414Z</time></trkpt><trkpt lat="41.0198317" lon="14.3470283"><ele>32.0</ele><time>2026-03-28T11:15:38.413Z</time></trkpt><trkpt lat="41.019795" lon="14.3469083"><ele>32.0</ele><time>2026-03-28T11:15:39.413Z</time></trkpt><trkpt lat="41.0197583" lon="14.3467883"><ele>32.0</ele><time>2026-03-28T11:15:40.414Z</time></trkpt><trkpt lat="41.0197233" lon="14.3466717"><ele>32.0</ele><time>2026-03-28T11:15:41.414Z</time></trkpt><trkpt lat="41.019685" lon="14.3465517"><ele>32.0</ele><time>2026-03-28T11:15:42.414Z</time></trkpt><trkpt lat="41.01965" lon="14.3464333"><ele>32.0</ele><time>2026-03-28T11:15:43.414Z</time></trkpt><trkpt lat="41.0196183" lon="14.34631"><ele>32.0</ele><time>2026-03-28T11:15:44.413Z</time></trkpt><trkpt lat="41.019585" lon="14.3461883"><ele>32.0</ele><time>2026-03-28T11:15:45.413Z</time></trkpt><trkpt lat="41.0195517" lon="14.34607"><ele>32.0</ele><time>2026-03-28T11:15:46.414Z</time></trkpt><trkpt lat="41.0195133" lon="14.3459517"><ele>32.0</ele><time>2026-03-28T11:15:47.414Z</time></trkpt><trkpt lat="41.019475" lon="14.34583"><ele>32.0</ele><time>2026-03-28T11:15:48.414Z</time></trkpt><trkpt lat="41.0194383" lon="14.345705"><ele>32.0</ele><time>2026-03-28T11:15:49.413Z</time></trkpt><trkpt lat="41.0194017" lon="14.34558"><ele>32.0</ele><time>2026-03-28T11:15:50.414Z</time></trkpt><trkpt lat="41.0193683" lon="14.345455"><ele>32.0</ele><time>2026-03-28T11:15:51.413Z</time></trkpt><trkpt lat="41.0193317" lon="14.3453267"><ele>32.0</ele><time>2026-03-28T11:15:52.414Z</time></trkpt><trkpt lat="41.0192917" lon="14.345195"><ele>32.0</ele><time>2026-03-28T11:15:53.414Z</time></trkpt><trkpt lat="41.0192517" lon="14.3450683"><ele>32.0</ele><time>2026-03-28T11:15:54.413Z</time></trkpt><trkpt lat="41.0192133" lon="14.3449467"><ele>32.0</ele><time>2026-03-28T11:15:55.414Z</time></trkpt><trkpt lat="41.019175" lon="14.3448267"><ele>32.0</ele><time>2026-03-28T11:15:56.413Z</time></trkpt><trkpt lat="41.0191383" lon="14.3447067"><ele>31.400000000000002</ele><time>2026-03-28T11:15:57.415Z</time></trkpt><trkpt lat="41.0191" lon="14.3445833"><ele>30.800000000000004</ele><time>2026-03-28T11:15:58.414Z</time></trkpt><trkpt lat="41.01906" lon="14.344465"><ele>30.2</ele><time>2026-03-28T11:15:59.414Z</time></trkpt><trkpt lat="41.0190217" lon="14.3443417"><ele>29.6</ele><time>2026-03-28T11:16:00.413Z</time></trkpt><trkpt lat="41.0189867" lon="14.3442167"><ele>29.0</ele><time>2026-03-28T11:16:01.414Z</time></trkpt><trkpt lat="41.0189483" lon="14.3440933"><ele>29.0</ele><time>2026-03-28T11:16:02.415Z</time></trkpt><trkpt lat="41.0189117" lon="14.34397"><ele>29.0</ele><time>2026-03-28T11:16:03.413Z</time></trkpt><trkpt lat="41.0188717" lon="14.34385"><ele>29.0</ele><time>2026-03-28T11:16:04.415Z</time></trkpt><trkpt lat="41.0188333" lon="14.34373"><ele>29.0</ele><time>2026-03-28T11:16:05.414Z</time></trkpt><trkpt lat="41.0187983" lon="14.3436133"><ele>29.0</ele><time>2026-03-28T11:16:06.414Z</time></trkpt><trkpt lat="41.0187633" lon="14.3434983"><ele>29.0</ele><time>2026-03-28T11:16:07.417Z</time></trkpt><trkpt lat="41.018725" lon="14.343385"><ele>29.0</ele><time>2026-03-28T11:16:08.414Z</time></trkpt><trkpt lat="41.0186883" lon="14.3432767"><ele>29.0</ele><time>2026-03-28T11:16:09.412Z</time></trkpt><trkpt lat="41.0186583" lon="14.343165"><ele>29.0</ele><time>2026-03-28T11:16:10.414Z</time></trkpt><trkpt lat="41.01863" lon="14.3430517"><ele>29.0</ele><time>2026-03-28T11:16:11.414Z</time></trkpt><trkpt lat="41.0185967" lon="14.3429433"><ele>28.999999999999996</ele><time>2026-03-28T11:16:12.414Z</time></trkpt><trkpt lat="41.018565" lon="14.3428367"><ele>29.0</ele><time>2026-03-28T11:16:13.414Z</time></trkpt><trkpt lat="41.0185333" lon="14.3427283"><ele>29.0</ele><time>2026-03-28T11:16:14.413Z</time></trkpt><trkpt lat="41.0185017" lon="14.3426183"><ele>29.0</ele><time>2026-03-28T11:16:15.414Z</time></trkpt><trkpt lat="41.0184717" lon="14.34251"><ele>28.999999999999996</ele><time>2026-03-28T11:16:16.414Z</time></trkpt><trkpt lat="41.0184333" lon="14.342405"><ele>29.0</ele><time>2026-03-28T11:16:17.414Z</time></trkpt><trkpt lat="41.0184" lon="14.3422983"><ele>29.333333333333332</ele><time>2026-03-28T11:16:18.414Z</time></trkpt><trkpt lat="41.0183717" lon="14.3421867"><ele>29.666666666666664</ele><time>2026-03-28T11:16:19.414Z</time></trkpt><trkpt lat="41.0183583" lon="14.34207"><ele>30.0</ele><time>2026-03-28T11:16:20.418Z</time></trkpt><trkpt lat="41.0183567" lon="14.34196"><ele>30.333333333333336</ele><time>2026-03-28T11:16:21.413Z</time></trkpt><trkpt lat="41.01836" lon="14.3418483"><ele>30.666666666666668</ele><time>2026-03-28T11:16:22.414Z</time></trkpt><trkpt lat="41.0183517" lon="14.3417433"><ele>31.0</ele><time>2026-03-28T11:16:23.414Z</time></trkpt><trkpt lat="41.018325" lon="14.3416433"><ele>30.333333333333336</ele><time>2026-03-28T11:16:24.414Z</time></trkpt><trkpt lat="41.0182767" lon="14.341555"><ele>29.666666666666668</ele><time>2026-03-28T11:16:25.414Z</time></trkpt><trkpt lat="41.0182267" lon="14.34147"><ele>29.0</ele><time>2026-03-28T11:16:26.413Z</time></trkpt><trkpt lat="41.0181683" lon="14.3413867"><ele>28.333333333333336</ele><time>2026-03-28T11:16:27.413Z</time></trkpt><trkpt lat="41.0181117" lon="14.3413017"><ele>27.666666666666668</ele><time>2026-03-28T11:16:28.414Z</time></trkpt><trkpt lat="41.018065" lon="14.341205"><ele>27.0</ele><time>2026-03-28T11:16:29.414Z</time></trkpt><trkpt lat="41.0180233" lon="14.3411017"><ele>27.0</ele><time>2026-03-28T11:16:30.414Z</time></trkpt><trkpt lat="41.017985" lon="14.3409983"><ele>27.0</ele><time>2026-03-28T11:16:31.414Z</time></trkpt><trkpt lat="41.0179467" lon="14.3408967"><ele>27.0</ele><time>2026-03-28T11:16:32.413Z</time></trkpt><trkpt lat="41.0179067" lon="14.3407933"><ele>27.0</ele><time>2026-03-28T11:16:33.413Z</time></trkpt><trkpt lat="41.0178683" lon="14.3406883"><ele>27.0</ele><time>2026-03-28T11:16:34.415Z</time></trkpt><trkpt lat="41.01783" lon="14.3405783"><ele>27.0</ele><time>2026-03-28T11:16:35.414Z</time></trkpt><trkpt lat="41.0177917" lon="14.3404683"><ele>27.400000000000002</ele><time>2026-03-28T11:16:36.413Z</time></trkpt><trkpt lat="41.017755" lon="14.34036"><ele>27.800000000000004</ele><time>2026-03-28T11:16:37.414Z</time></trkpt><trkpt lat="41.01772" lon="14.3402483"><ele>28.2</ele><time>2026-03-28T11:16:38.414Z</time></trkpt><trkpt lat="41.0176917" lon="14.3401367"><ele>28.6</ele><time>2026-03-28T11:16:39.414Z</time></trkpt><trkpt lat="41.0176617" lon="14.3400217"><ele>29.0</ele><time>2026-03-28T11:16:40.414Z</time></trkpt><trkpt lat="41.017625" lon="14.339905"><ele>29.0</ele><time>2026-03-28T11:16:41.414Z</time></trkpt><trkpt lat="41.0175883" lon="14.3397883"><ele>29.0</ele><time>2026-03-28T11:16:42.414Z</time></trkpt><trkpt lat="41.017555" lon="14.3396717"><ele>29.0</ele><time>2026-03-28T11:16:43.415Z</time></trkpt><trkpt lat="41.0175217" lon="14.3395567"><ele>29.0</ele><time>2026-03-28T11:16:44.414Z</time></trkpt><trkpt lat="41.0174917" lon="14.3394417"><ele>29.0</ele><time>2026-03-28T11:16:45.413Z</time></trkpt><trkpt lat="41.0174567" lon="14.3393283"><ele>28.4</ele><time>2026-03-28T11:16:46.414Z</time></trkpt><trkpt lat="41.0174217" lon="14.339215"><ele>27.799999999999997</ele><time>2026-03-28T11:16:47.414Z</time></trkpt><trkpt lat="41.01739" lon="14.3391"><ele>27.200000000000003</ele><time>2026-03-28T11:16:48.413Z</time></trkpt><trkpt lat="41.0173533" lon="14.3389867"><ele>26.6</ele><time>2026-03-28T11:16:49.414Z</time></trkpt><trkpt lat="41.01732" lon="14.3388783"><ele>26.0</ele><time>2026-03-28T11:16:50.414Z</time></trkpt><trkpt lat="41.0172817" lon="14.3387683"><ele>26.0</ele><time>2026-03-28T11:16:51.414Z</time></trkpt><trkpt lat="41.017245" lon="14.338655"><ele>26.0</ele><time>2026-03-28T11:16:52.414Z</time></trkpt><trkpt lat="41.017215" lon="14.3385367"><ele>26.0</ele><time>2026-03-28T11:16:53.413Z</time></trkpt><trkpt lat="41.0171817" lon="14.3384183"><ele>26.0</ele><time>2026-03-28T11:16:54.413Z</time></trkpt><trkpt lat="41.017145" lon="14.3383033"><ele>26.0</ele><time>2026-03-28T11:16:55.414Z</time></trkpt><trkpt lat="41.01711" lon="14.3381917"><ele>26.0</ele><time>2026-03-28T11:16:56.413Z</time></trkpt><trkpt lat="41.0170733" lon="14.3380767"><ele>26.0</ele><time>2026-03-28T11:16:57.413Z</time></trkpt><trkpt lat="41.0170417" lon="14.33796"><ele>26.0</ele><time>2026-03-28T11:16:58.414Z</time></trkpt><trkpt lat="41.017015" lon="14.337845"><ele>26.0</ele><time>2026-03-28T11:16:59.414Z</time></trkpt><trkpt lat="41.0169933" lon="14.33773"><ele>26.0</ele><time>2026-03-28T11:17:00.414Z</time></trkpt><trkpt lat="41.0169683" lon="14.3376183"><ele>25.6</ele><time>2026-03-28T11:17:01.414Z</time></trkpt><trkpt lat="41.0169317" lon="14.3375117"><ele>25.200000000000003</ele><time>2026-03-28T11:17:02.413Z</time></trkpt><trkpt lat="41.0168867" lon="14.3374067"><ele>24.799999999999997</ele><time>2026-03-28T11:17:03.413Z</time></trkpt><trkpt lat="41.0168317" lon="14.3373067"><ele>24.4</ele><time>2026-03-28T11:17:04.414Z</time></trkpt><trkpt lat="41.016775" lon="14.3372067"><ele>24.0</ele><time>2026-03-28T11:17:05.414Z</time></trkpt><trkpt lat="41.0167217" lon="14.337105"><ele>24.0</ele><time>2026-03-28T11:17:06.414Z</time></trkpt><trkpt lat="41.0166817" lon="14.337"><ele>24.0</ele><time>2026-03-28T11:17:07.414Z</time></trkpt><trkpt lat="41.01664" lon="14.3368917"><ele>24.0</ele><time>2026-03-28T11:17:08.415Z</time></trkpt><trkpt lat="41.0166033" lon="14.3367883"><ele>24.0</ele><time>2026-03-28T11:17:09.414Z</time></trkpt><trkpt lat="41.0165667" lon="14.3366833"><ele>24.0</ele><time>2026-03-28T11:17:10.414Z</time></trkpt><trkpt lat="41.0165317" lon="14.33658"><ele>24.0</ele><time>2026-03-28T11:17:11.414Z</time></trkpt><trkpt lat="41.0164983" lon="14.3364717"><ele>23.833333333333332</ele><time>2026-03-28T11:17:12.414Z</time></trkpt><trkpt lat="41.01647" lon="14.336365"><ele>23.666666666666668</ele><time>2026-03-28T11:17:13.414Z</time></trkpt><trkpt lat="41.01644" lon="14.3362583"><ele>23.5</ele><time>2026-03-28T11:17:14.414Z</time></trkpt><trkpt lat="41.0164067" lon="14.3361583"><ele>23.333333333333336</ele><time>2026-03-28T11:17:15.413Z</time></trkpt><trkpt lat="41.0163733" lon="14.3360567"><ele>23.166666666666668</ele><time>2026-03-28T11:17:16.414Z</time></trkpt><trkpt lat="41.01634" lon="14.3359533"><ele>23.0</ele><time>2026-03-28T11:17:17.414Z</time></trkpt><trkpt lat="41.016305" lon="14.33585"><ele>23.0</ele><time>2026-03-28T11:17:18.414Z</time></trkpt><trkpt lat="41.0162667" lon="14.3357433"><ele>23.0</ele><time>2026-03-28T11:17:19.414Z</time></trkpt><trkpt lat="41.01623" lon="14.3356333"><ele>23.0</ele><time>2026-03-28T11:17:20.415Z</time></trkpt><trkpt lat="41.0161933" lon="14.3355217"><ele>23.0</ele><time>2026-03-28T11:17:21.414Z</time></trkpt><trkpt lat="41.016155" lon="14.33541"><ele>23.0</ele><time>2026-03-28T11:17:22.414Z</time></trkpt><trkpt lat="41.0161183" lon="14.3352967"><ele>23.2</ele><time>2026-03-28T11:17:23.414Z</time></trkpt><trkpt lat="41.016085" lon="14.3351833"><ele>23.4</ele><time>2026-03-28T11:17:24.414Z</time></trkpt><trkpt lat="41.0160517" lon="14.3350633"><ele>23.599999999999998</ele><time>2026-03-28T11:17:25.415Z</time></trkpt><trkpt lat="41.0160167" lon="14.3349417"><ele>23.799999999999997</ele><time>2026-03-28T11:17:26.414Z</time></trkpt><trkpt lat="41.0159883" lon="14.3348183"><ele>24.0</ele><time>2026-03-28T11:17:27.414Z</time></trkpt><trkpt lat="41.0159717" lon="14.3346983"><ele>24.0</ele><time>2026-03-28T11:17:28.414Z</time></trkpt><trkpt lat="41.0159567" lon="14.3345767"><ele>24.0</ele><time>2026-03-28T11:17:29.414Z</time></trkpt><trkpt lat="41.0159417" lon="14.3344533"><ele>24.0</ele><time>2026-03-28T11:17:30.414Z</time></trkpt><trkpt lat="41.01593" lon="14.334335"><ele>24.0</ele><time>2026-03-28T11:17:31.415Z</time></trkpt><trkpt lat="41.01592" lon="14.3342133"><ele>24.0</ele><time>2026-03-28T11:17:32.415Z</time></trkpt><trkpt lat="41.0159083" lon="14.3340917"><ele>24.0</ele><time>2026-03-28T11:17:33.414Z</time></trkpt><trkpt lat="41.015895" lon="14.3339683"><ele>24.0</ele><time>2026-03-28T11:17:34.414Z</time></trkpt><trkpt lat="41.0158783" lon="14.33385"><ele>24.0</ele><time>2026-03-28T11:17:35.414Z</time></trkpt><trkpt lat="41.0158617" lon="14.3337217"><ele>24.0</ele><time>2026-03-28T11:17:36.414Z</time></trkpt><trkpt lat="41.0158483" lon="14.3335983"><ele>24.0</ele><time>2026-03-28T11:17:37.414Z</time></trkpt><trkpt lat="41.01583" lon="14.333475"><ele>23.4</ele><time>2026-03-28T11:17:38.414Z</time></trkpt><trkpt lat="41.015815" lon="14.3333517"><ele>22.799999999999997</ele><time>2026-03-28T11:17:39.413Z</time></trkpt><trkpt lat="41.0157983" lon="14.33323"><ele>22.200000000000003</ele><time>2026-03-28T11:17:40.414Z</time></trkpt><trkpt lat="41.0157883" lon="14.333105"><ele>21.6</ele><time>2026-03-28T11:17:41.414Z</time></trkpt><trkpt lat="41.015775" lon="14.33298"><ele>21.0</ele><time>2026-03-28T11:17:42.414Z</time></trkpt><trkpt lat="41.0157633" lon="14.332855"><ele>20.8</ele><time>2026-03-28T11:17:43.415Z</time></trkpt><trkpt lat="41.0157533" lon="14.3327267"><ele>20.6</ele><time>2026-03-28T11:17:44.414Z</time></trkpt><trkpt lat="41.0157433" lon="14.3326017"><ele>20.4</ele><time>2026-03-28T11:17:45.414Z</time></trkpt><trkpt lat="41.01573" lon="14.3324767"><ele>20.2</ele><time>2026-03-28T11:17:46.414Z</time></trkpt><trkpt lat="41.015715" lon="14.3323533"><ele>20.0</ele><time>2026-03-28T11:17:47.414Z</time></trkpt><trkpt lat="41.0157" lon="14.3322317"><ele>20.8</ele><time>2026-03-28T11:17:48.413Z</time></trkpt><trkpt lat="41.0156883" lon="14.3321083"><ele>21.6</ele><time>2026-03-28T11:17:49.414Z</time></trkpt><trkpt lat="41.015675" lon="14.3319783"><ele>22.4</ele><time>2026-03-28T11:17:50.413Z</time></trkpt><trkpt lat="41.0156633" lon="14.3318517"><ele>23.2</ele><time>2026-03-28T11:17:51.413Z</time></trkpt><trkpt lat="41.0156517" lon="14.331725"><ele>24.0</ele><time>2026-03-28T11:17:52.413Z</time></trkpt><trkpt lat="41.01564" lon="14.3315967"><ele>24.0</ele><time>2026-03-28T11:17:53.413Z</time></trkpt><trkpt lat="41.0156267" lon="14.33147"><ele>24.0</ele><time>2026-03-28T11:17:54.414Z</time></trkpt><trkpt lat="41.015615" lon="14.3313417"><ele>24.0</ele><time>2026-03-28T11:17:55.413Z</time></trkpt><trkpt lat="41.0156033" lon="14.3312133"><ele>24.0</ele><time>2026-03-28T11:17:56.412Z</time></trkpt><trkpt lat="41.01559" lon="14.3310867"><ele>24.0</ele><time>2026-03-28T11:17:57.415Z</time></trkpt><trkpt lat="41.0155783" lon="14.3309583"><ele>24.0</ele><time>2026-03-28T11:17:58.414Z</time></trkpt><trkpt lat="41.015575" lon="14.3308283"><ele>24.0</ele><time>2026-03-28T11:17:59.413Z</time></trkpt><trkpt lat="41.0155767" lon="14.3306917"><ele>24.0</ele><time>2026-03-28T11:18:00.413Z</time></trkpt><trkpt lat="41.0155733" lon="14.3305583"><ele>24.0</ele><time>2026-03-28T11:18:01.415Z</time></trkpt><trkpt lat="41.0155717" lon="14.3304217"><ele>24.0</ele><time>2026-03-28T11:18:02.413Z</time></trkpt><trkpt lat="41.0155733" lon="14.330285"><ele>23.6</ele><time>2026-03-28T11:18:03.413Z</time></trkpt><trkpt lat="41.0155817" lon="14.33015"><ele>23.2</ele><time>2026-03-28T11:18:04.413Z</time></trkpt><trkpt lat="41.0155917" lon="14.3300133"><ele>22.8</ele><time>2026-03-28T11:18:05.413Z</time></trkpt><trkpt lat="41.0155933" lon="14.3298817"><ele>22.400000000000002</ele><time>2026-03-28T11:18:06.413Z</time></trkpt><trkpt lat="41.0155967" lon="14.3297483"><ele>22.0</ele><time>2026-03-28T11:18:07.413Z</time></trkpt><trkpt lat="41.0155983" lon="14.329615"><ele>22.0</ele><time>2026-03-28T11:18:08.413Z</time></trkpt><trkpt lat="41.015605" lon="14.3294867"><ele>22.0</ele><time>2026-03-28T11:18:09.413Z</time></trkpt><trkpt lat="41.0156133" lon="14.3293617"><ele>22.0</ele><time>2026-03-28T11:18:10.413Z</time></trkpt><trkpt lat="41.0156183" lon="14.32924"><ele>22.0</ele><time>2026-03-28T11:18:11.413Z</time></trkpt><trkpt lat="41.0156217" lon="14.3291233"><ele>22.0</ele><time>2026-03-28T11:18:12.413Z</time></trkpt><trkpt lat="41.0156233" lon="14.329005"><ele>22.333333333333332</ele><time>2026-03-28T11:18:13.413Z</time></trkpt><trkpt lat="41.0156283" lon="14.32889"><ele>22.666666666666664</ele><time>2026-03-28T11:18:14.413Z</time></trkpt><trkpt lat="41.0156317" lon="14.3287767"><ele>23.0</ele><time>2026-03-28T11:18:15.413Z</time></trkpt><trkpt lat="41.0156317" lon="14.3286633"><ele>23.333333333333332</ele><time>2026-03-28T11:18:16.413Z</time></trkpt><trkpt lat="41.0156383" lon="14.3285517"><ele>23.666666666666668</ele><time>2026-03-28T11:18:17.413Z</time></trkpt><trkpt lat="41.0156483" lon="14.3284417"><ele>24.0</ele><time>2026-03-28T11:18:18.414Z</time></trkpt><trkpt lat="41.0156567" lon="14.328335"><ele>24.0</ele><time>2026-03-28T11:18:19.413Z</time></trkpt><trkpt lat="41.015665" lon="14.3282333"><ele>24.0</ele><time>2026-03-28T11:18:20.413Z</time></trkpt><trkpt lat="41.015675" lon="14.32813"><ele>24.0</ele><time>2026-03-28T11:18:21.413Z</time></trkpt><trkpt lat="41.015685" lon="14.3280283"><ele>24.0</ele><time>2026-03-28T11:18:22.413Z</time></trkpt><trkpt lat="41.0156967" lon="14.3279317"><ele>24.0</ele><time>2026-03-28T11:18:23.415Z</time></trkpt><trkpt lat="41.0157167" lon="14.327835"><ele>24.0</ele><time>2026-03-28T11:18:24.414Z</time></trkpt><trkpt lat="41.0157433" lon="14.3277333"><ele>23.833333333333332</ele><time>2026-03-28T11:18:25.413Z</time></trkpt><trkpt lat="41.01577" lon="14.32764"><ele>23.666666666666668</ele><time>2026-03-28T11:18:26.413Z</time></trkpt><trkpt lat="41.0158083" lon="14.3275517"><ele>23.5</ele><time>2026-03-28T11:18:27.413Z</time></trkpt><trkpt lat="41.0158633" lon="14.32749"><ele>23.333333333333336</ele><time>2026-03-28T11:18:28.413Z</time></trkpt><trkpt lat="41.0159367" lon="14.32745"><ele>23.166666666666668</ele><time>2026-03-28T11:18:29.413Z</time></trkpt><trkpt lat="41.0160167" lon="14.3274083"><ele>23.0</ele><time>2026-03-28T11:18:30.413Z</time></trkpt><trkpt lat="41.0160967" lon="14.3273783"><ele>23.0</ele><time>2026-03-28T11:18:31.413Z</time></trkpt><trkpt lat="41.0161683" lon="14.3273317"><ele>23.0</ele><time>2026-03-28T11:18:32.412Z</time></trkpt><trkpt lat="41.016245" lon="14.3272933"><ele>23.0</ele><time>2026-03-28T11:18:33.414Z</time></trkpt><trkpt lat="41.0163233" lon="14.3272533"><ele>23.0</ele><time>2026-03-28T11:18:34.413Z</time></trkpt><trkpt lat="41.0164" lon="14.3272133"><ele>23.0</ele><time>2026-03-28T11:18:35.413Z</time></trkpt><trkpt lat="41.0164767" lon="14.3271833"><ele>23.0</ele><time>2026-03-28T11:18:36.414Z</time></trkpt><trkpt lat="41.016555" lon="14.327165"><ele>23.0</ele><time>2026-03-28T11:18:37.412Z</time></trkpt><trkpt lat="41.016635" lon="14.32715"><ele>23.0</ele><time>2026-03-28T11:18:38.413Z</time></trkpt><trkpt lat="41.0167133" lon="14.3271417"><ele>23.0</ele><time>2026-03-28T11:18:39.412Z</time></trkpt><trkpt lat="41.0167933" lon="14.3271333"><ele>23.0</ele><time>2026-03-28T11:18:40.413Z</time></trkpt><trkpt lat="41.01687" lon="14.3271383"><ele>23.0</ele><time>2026-03-28T11:18:41.413Z</time></trkpt><trkpt lat="41.0169417" lon="14.3271317"><ele>23.0</ele><time>2026-03-28T11:18:42.413Z</time></trkpt><trkpt lat="41.017015" lon="14.3271283"><ele>23.0</ele><time>2026-03-28T11:18:43.414Z</time></trkpt><trkpt lat="41.01709" lon="14.3271217"><ele>23.0</ele><time>2026-03-28T11:18:44.413Z</time></trkpt><trkpt lat="41.0171617" lon="14.3271133"><ele>23.0</ele><time>2026-03-28T11:18:45.413Z</time></trkpt><trkpt lat="41.017235" lon="14.327105"><ele>23.0</ele><time>2026-03-28T11:18:46.414Z</time></trkpt><trkpt lat="41.0173083" lon="14.327095"><ele>23.0</ele><time>2026-03-28T11:18:47.415Z</time></trkpt><trkpt lat="41.01738" lon="14.32708"><ele>23.0</ele><time>2026-03-28T11:18:48.413Z</time></trkpt><trkpt lat="41.0174517" lon="14.327065"><ele>23.0</ele><time>2026-03-28T11:18:49.414Z</time></trkpt><trkpt lat="41.0175217" lon="14.3270417"><ele>23.0</ele><time>2026-03-28T11:18:50.413Z</time></trkpt><trkpt lat="41.0175967" lon="14.327025"><ele>23.0</ele><time>2026-03-28T11:18:51.414Z</time></trkpt><trkpt lat="41.01767" lon="14.327005"><ele>23.0</ele><time>2026-03-28T11:18:52.413Z</time></trkpt><trkpt lat="41.0177433" lon="14.326995"><ele>23.0</ele><time>2026-03-28T11:18:53.413Z</time></trkpt><trkpt lat="41.0178183" lon="14.3269933"><ele>23.0</ele><time>2026-03-28T11:18:54.413Z</time></trkpt><trkpt lat="41.0178933" lon="14.32699"><ele>23.0</ele><time>2026-03-28T11:18:55.414Z</time></trkpt><trkpt lat="41.0179667" lon="14.3269867"><ele>23.0</ele><time>2026-03-28T11:18:56.413Z</time></trkpt><trkpt lat="41.0180417" lon="14.3269833"><ele>23.0</ele><time>2026-03-28T11:18:57.414Z</time></trkpt><trkpt lat="41.018115" lon="14.32698"><ele>23.0</ele><time>2026-03-28T11:18:58.413Z</time></trkpt><trkpt lat="41.01819" lon="14.3269717"><ele>23.0</ele><time>2026-03-28T11:18:59.413Z</time></trkpt><trkpt lat="41.0182583" lon="14.326965"><ele>23.0</ele><time>2026-03-28T11:19:00.414Z</time></trkpt><trkpt lat="41.0183317" lon="14.3269517"><ele>23.0</ele><time>2026-03-28T11:19:01.415Z</time></trkpt><trkpt lat="41.0184033" lon="14.3269367"><ele>23.0</ele><time>2026-03-28T11:19:02.413Z</time></trkpt><trkpt lat="41.0184783" lon="14.3269183"><ele>23.0</ele><time>2026-03-28T11:19:03.413Z</time></trkpt><trkpt lat="41.0185533" lon="14.3269033"><ele>23.142857142857142</ele><time>2026-03-28T11:19:04.413Z</time></trkpt><trkpt lat="41.0186267" lon="14.32689"><ele>23.285714285714285</ele><time>2026-03-28T11:19:05.418Z</time></trkpt><trkpt lat="41.0187" lon="14.3268783"><ele>23.428571428571427</ele><time>2026-03-28T11:19:06.414Z</time></trkpt><trkpt lat="41.0187733" lon="14.3268667"><ele>23.57142857142857</ele><time>2026-03-28T11:19:07.413Z</time></trkpt><trkpt lat="41.0188483" lon="14.3268583"><ele>23.714285714285715</ele><time>2026-03-28T11:19:08.413Z</time></trkpt><trkpt lat="41.01892" lon="14.32685"><ele>23.857142857142854</ele><time>2026-03-28T11:19:09.413Z</time></trkpt><trkpt lat="41.01899" lon="14.3268383"><ele>24.0</ele><time>2026-03-28T11:19:10.414Z</time></trkpt><trkpt lat="41.0190583" lon="14.32682"><ele>23.999999999999996</ele><time>2026-03-28T11:19:11.414Z</time></trkpt><trkpt lat="41.0191283" lon="14.3267983"><ele>24.0</ele><time>2026-03-28T11:19:12.413Z</time></trkpt><trkpt lat="41.0191967" lon="14.326785"><ele>24.0</ele><time>2026-03-28T11:19:13.414Z</time></trkpt><trkpt lat="41.019265" lon="14.32677"><ele>24.0</ele><time>2026-03-28T11:19:14.414Z</time></trkpt><trkpt lat="41.0193333" lon="14.3267467"><ele>24.0</ele><time>2026-03-28T11:19:15.414Z</time></trkpt><trkpt lat="41.0193983" lon="14.326715"><ele>23.999999999999996</ele><time>2026-03-28T11:19:16.413Z</time></trkpt><trkpt lat="41.0194667" lon="14.32668"><ele>24.0</ele><time>2026-03-28T11:19:17.415Z</time></trkpt><trkpt lat="41.0195317" lon="14.3266433"><ele>24.142857142857142</ele><time>2026-03-28T11:19:18.414Z</time></trkpt><trkpt lat="41.0195967" lon="14.3266033"><ele>24.285714285714285</ele><time>2026-03-28T11:19:19.414Z</time></trkpt><trkpt lat="41.01966" lon="14.3265583"><ele>24.42857142857143</ele><time>2026-03-28T11:19:20.415Z</time></trkpt><trkpt lat="41.0197217" lon="14.326515"><ele>24.57142857142857</ele><time>2026-03-28T11:19:21.413Z</time></trkpt><trkpt lat="41.0197833" lon="14.326465"><ele>24.714285714285715</ele><time>2026-03-28T11:19:22.414Z</time></trkpt><trkpt lat="41.0198383" lon="14.3264133"><ele>24.857142857142858</ele><time>2026-03-28T11:19:23.413Z</time></trkpt><trkpt lat="41.019895" lon="14.3263517"><ele>25.0</ele><time>2026-03-28T11:19:24.413Z</time></trkpt><trkpt lat="41.0199533" lon="14.32629"><ele>25.28571428571429</ele><time>2026-03-28T11:19:25.414Z</time></trkpt><trkpt lat="41.0200083" lon="14.3262267"><ele>25.571428571428573</ele><time>2026-03-28T11:19:26.413Z</time></trkpt><trkpt lat="41.0200617" lon="14.3261633"><ele>25.857142857142858</ele><time>2026-03-28T11:19:27.414Z</time></trkpt><trkpt lat="41.0201167" lon="14.3260967"><ele>26.142857142857146</ele><time>2026-03-28T11:19:28.414Z</time></trkpt><trkpt lat="41.0201683" lon="14.3260283"><ele>26.428571428571427</ele><time>2026-03-28T11:19:29.413Z</time></trkpt><trkpt lat="41.0202217" lon="14.3259583"><ele>26.714285714285715</ele><time>2026-03-28T11:19:30.413Z</time></trkpt><trkpt lat="41.0202733" lon="14.3258933"><ele>27.0</ele><time>2026-03-28T11:19:31.414Z</time></trkpt><trkpt lat="41.0203217" lon="14.3258217"><ele>27.0</ele><time>2026-03-28T11:19:32.413Z</time></trkpt><trkpt lat="41.0203683" lon="14.3257417"><ele>27.0</ele><time>2026-03-28T11:19:33.413Z</time></trkpt><trkpt lat="41.0204033" lon="14.325655"><ele>27.0</ele><time>2026-03-28T11:19:34.413Z</time></trkpt><trkpt lat="41.0204233" lon="14.3255633"><ele>27.0</ele><time>2026-03-28T11:19:35.412Z</time></trkpt><trkpt lat="41.02043" lon="14.325465"><ele>27.0</ele><time>2026-03-28T11:19:36.413Z</time></trkpt><trkpt lat="41.0204167" lon="14.3253683"><ele>27.0</ele><time>2026-03-28T11:19:37.414Z</time></trkpt><trkpt lat="41.0203883" lon="14.32527"><ele>26.666666666666668</ele><time>2026-03-28T11:19:38.413Z</time></trkpt><trkpt lat="41.0203417" lon="14.3251833"><ele>26.333333333333336</ele><time>2026-03-28T11:19:39.413Z</time></trkpt><trkpt lat="41.0202867" lon="14.3251117"><ele>26.0</ele><time>2026-03-28T11:19:40.413Z</time></trkpt><trkpt lat="41.0202233" lon="14.3250483"><ele>25.666666666666668</ele><time>2026-03-28T11:19:41.413Z</time></trkpt><trkpt lat="41.0201483" lon="14.3250017"><ele>25.333333333333336</ele><time>2026-03-28T11:19:42.414Z</time></trkpt><trkpt lat="41.0200633" lon="14.3249767"><ele>25.0</ele><time>2026-03-28T11:19:43.415Z</time></trkpt><trkpt lat="41.0199783" lon="14.3249633"><ele>24.666666666666668</ele><time>2026-03-28T11:19:44.413Z</time></trkpt><trkpt lat="41.0198933" lon="14.324955"><ele>24.333333333333336</ele><time>2026-03-28T11:19:45.413Z</time></trkpt><trkpt lat="41.0198083" lon="14.3249533"><ele>24.0</ele><time>2026-03-28T11:19:46.413Z</time></trkpt><trkpt lat="41.01972" lon="14.3249533"><ele>23.666666666666668</ele><time>2026-03-28T11:19:47.413Z</time></trkpt><trkpt lat="41.0196367" lon="14.3249483"><ele>23.333333333333336</ele><time>2026-03-28T11:19:48.413Z</time></trkpt><trkpt lat="41.0195567" lon="14.3249417"><ele>23.0</ele><time>2026-03-28T11:19:49.414Z</time></trkpt><trkpt lat="41.019475" lon="14.32494"><ele>23.0</ele><time>2026-03-28T11:19:50.413Z</time></trkpt><trkpt lat="41.0193867" lon="14.3249383"><ele>23.0</ele><time>2026-03-28T11:19:51.413Z</time></trkpt><trkpt lat="41.0193033" lon="14.32494"><ele>23.0</ele><time>2026-03-28T11:19:52.412Z</time></trkpt><trkpt lat="41.0192183" lon="14.3249367"><ele>23.0</ele><time>2026-03-28T11:19:53.414Z</time></trkpt><trkpt lat="41.0191367" lon="14.3249383"><ele>23.0</ele><time>2026-03-28T11:19:54.413Z</time></trkpt><trkpt lat="41.0190583" lon="14.3249383"><ele>23.0</ele><time>2026-03-28T11:19:55.413Z</time></trkpt><trkpt lat="41.0189767" lon="14.324935"><ele>23.166666666666668</ele><time>2026-03-28T11:19:56.413Z</time></trkpt><trkpt lat="41.0188983" lon="14.3249333"><ele>23.333333333333336</ele><time>2026-03-28T11:19:57.413Z</time></trkpt><trkpt lat="41.0188133" lon="14.324935"><ele>23.5</ele><time>2026-03-28T11:19:58.413Z</time></trkpt><trkpt lat="41.0187283" lon="14.324945"><ele>23.666666666666668</ele><time>2026-03-28T11:19:59.413Z</time></trkpt><trkpt lat="41.0186467" lon="14.3249533"><ele>23.833333333333332</ele><time>2026-03-28T11:20:00.413Z</time></trkpt><trkpt lat="41.0185583" lon="14.3249667"><ele>24.0</ele><time>2026-03-28T11:20:01.413Z</time></trkpt><trkpt lat="41.01848" lon="14.32497"><ele>24.0</ele><time>2026-03-28T11:20:02.414Z</time></trkpt><trkpt lat="41.018395" lon="14.324975"><ele>24.0</ele><time>2026-03-28T11:20:03.413Z</time></trkpt><trkpt lat="41.0183117" lon="14.32498"><ele>24.0</ele><time>2026-03-28T11:20:04.413Z</time></trkpt><trkpt lat="41.0182267" lon="14.32498"><ele>24.0</ele><time>2026-03-28T11:20:05.413Z</time></trkpt><trkpt lat="41.0181417" lon="14.324985"><ele>24.0</ele><time>2026-03-28T11:20:06.413Z</time></trkpt><trkpt lat="41.0180483" lon="14.3249933"><ele>24.0</ele><time>2026-03-28T11:20:07.414Z</time></trkpt><trkpt lat="41.01796" lon="14.325"><ele>23.833333333333332</ele><time>2026-03-28T11:20:08.414Z</time></trkpt><trkpt lat="41.0178733" lon="14.3250033"><ele>23.666666666666668</ele><time>2026-03-28T11:20:09.415Z</time></trkpt><trkpt lat="41.01779" lon="14.3250033"><ele>23.5</ele><time>2026-03-28T11:20:10.413Z</time></trkpt><trkpt lat="41.017705" lon="14.3250033"><ele>23.333333333333336</ele><time>2026-03-28T11:20:11.413Z</time></trkpt><trkpt lat="41.0176183" lon="14.325"><ele>23.166666666666668</ele><time>2026-03-28T11:20:12.416Z</time></trkpt><trkpt lat="41.0175317" lon="14.324995"><ele>23.0</ele><time>2026-03-28T11:20:13.413Z</time></trkpt><trkpt lat="41.0174467" lon="14.3249917"><ele>23.5</ele><time>2026-03-28T11:20:14.413Z</time></trkpt><trkpt lat="41.0173617" lon="14.324985"><ele>24.0</ele><time>2026-03-28T11:20:15.414Z</time></trkpt><trkpt lat="41.0172733" lon="14.324985"><ele>24.5</ele><time>2026-03-28T11:20:16.414Z</time></trkpt><trkpt lat="41.01719" lon="14.3249833"><ele>25.0</ele><time>2026-03-28T11:20:17.414Z</time></trkpt><trkpt lat="41.0171067" lon="14.3249817"><ele>25.499999999999996</ele><time>2026-03-28T11:20:18.413Z</time></trkpt><trkpt lat="41.0170117" lon="14.3249883"><ele>26.0</ele><time>2026-03-28T11:20:19.413Z</time></trkpt><trkpt lat="41.01692" lon="14.3249817"><ele>26.0</ele><time>2026-03-28T11:20:20.414Z</time></trkpt><trkpt lat="41.0168317" lon="14.3249717"><ele>26.0</ele><time>2026-03-28T11:20:21.413Z</time></trkpt><trkpt lat="41.01674" lon="14.3249633"><ele>26.0</ele><time>2026-03-28T11:20:22.413Z</time></trkpt><trkpt lat="41.0166483" lon="14.3249517"><ele>26.0</ele><time>2026-03-28T11:20:23.414Z</time></trkpt><trkpt lat="41.0165567" lon="14.324945"><ele>26.0</ele><time>2026-03-28T11:20:24.414Z</time></trkpt><trkpt lat="41.0164633" lon="14.324935"><ele>25.6</ele><time>2026-03-28T11:20:25.414Z</time></trkpt><trkpt lat="41.0163733" lon="14.324925"><ele>25.200000000000003</ele><time>2026-03-28T11:20:26.412Z</time></trkpt><trkpt lat="41.0162767" lon="14.3249183"><ele>24.799999999999997</ele><time>2026-03-28T11:20:27.413Z</time></trkpt><trkpt lat="41.0161817" lon="14.32492"><ele>24.4</ele><time>2026-03-28T11:20:28.416Z</time></trkpt><trkpt lat="41.0160867" lon="14.3249233"><ele>24.0</ele><time>2026-03-28T11:20:29.414Z</time></trkpt><trkpt lat="41.0159917" lon="14.3249217"><ele>24.0</ele><time>2026-03-28T11:20:30.416Z</time></trkpt><trkpt lat="41.0159033" lon="14.32492"><ele>24.0</ele><time>2026-03-28T11:20:31.416Z</time></trkpt><trkpt lat="41.0158133" lon="14.3249183"><ele>24.0</ele><time>2026-03-28T11:20:32.412Z</time></trkpt><trkpt lat="41.0157183" lon="14.3249167"><ele>24.0</ele><time>2026-03-28T11:20:33.413Z</time></trkpt><trkpt lat="41.0156267" lon="14.3249117"><ele>24.0</ele><time>2026-03-28T11:20:34.414Z</time></trkpt><trkpt lat="41.0155333" lon="14.3249067"><ele>24.0</ele><time>2026-03-28T11:20:35.414Z</time></trkpt><trkpt lat="41.0154367" lon="14.3249033"><ele>24.0</ele><time>2026-03-28T11:20:36.415Z</time></trkpt><trkpt lat="41.015345" lon="14.3248983"><ele>24.0</ele><time>2026-03-28T11:20:37.414Z</time></trkpt><trkpt lat="41.0152533" lon="14.3248883"><ele>24.0</ele><time>2026-03-28T11:20:38.414Z</time></trkpt><trkpt lat="41.01516" lon="14.3248733"><ele>24.0</ele><time>2026-03-28T11:20:39.412Z</time></trkpt><trkpt lat="41.015065" lon="14.3248533"><ele>24.2</ele><time>2026-03-28T11:20:40.413Z</time></trkpt><trkpt lat="41.0149717" lon="14.32483"><ele>24.4</ele><time>2026-03-28T11:20:41.413Z</time></trkpt><trkpt lat="41.01488" lon="14.3248"><ele>24.6</ele><time>2026-03-28T11:20:42.415Z</time></trkpt><trkpt lat="41.01479" lon="14.3247667"><ele>24.8</ele><time>2026-03-28T11:20:43.414Z</time></trkpt><trkpt lat="41.0147" lon="14.3247333"><ele>25.0</ele><time>2026-03-28T11:20:44.413Z</time></trkpt><trkpt lat="41.0146133" lon="14.324695"><ele>25.000000000000004</ele><time>2026-03-28T11:20:45.414Z</time></trkpt><trkpt lat="41.0145317" lon="14.3246567"><ele>25.0</ele><time>2026-03-28T11:20:46.414Z</time></trkpt><trkpt lat="41.01445" lon="14.3246233"><ele>25.0</ele><time>2026-03-28T11:20:47.413Z</time></trkpt><trkpt lat="41.014365" lon="14.32459"><ele>25.0</ele><time>2026-03-28T11:20:48.413Z</time></trkpt><trkpt lat="41.0142867" lon="14.3245517"><ele>25.000000000000004</ele><time>2026-03-28T11:20:49.414Z</time></trkpt><trkpt lat="41.0142033" lon="14.3244967"><ele>25.0</ele><time>2026-03-28T11:20:50.413Z</time></trkpt><trkpt lat="41.0141183" lon="14.3244483"><ele>25.000000000000004</ele><time>2026-03-28T11:20:51.414Z</time></trkpt><trkpt lat="41.01404" lon="14.3244"><ele>25.0</ele><time>2026-03-28T11:20:52.414Z</time></trkpt><trkpt lat="41.01397" lon="14.324345"><ele>25.0</ele><time>2026-03-28T11:20:53.413Z</time></trkpt><trkpt lat="41.0139017" lon="14.32428"><ele>25.0</ele><time>2026-03-28T11:20:54.414Z</time></trkpt><trkpt lat="41.01383" lon="14.3242183"><ele>25.000000000000004</ele><time>2026-03-28T11:20:55.413Z</time></trkpt><trkpt lat="41.013765" lon="14.3241617"><ele>25.0</ele><time>2026-03-28T11:20:56.414Z</time></trkpt><trkpt lat="41.0137" lon="14.32411"><ele>25.000000000000004</ele><time>2026-03-28T11:20:57.413Z</time></trkpt><trkpt lat="41.0136283" lon="14.3240583"><ele>25.0</ele><time>2026-03-28T11:20:58.414Z</time></trkpt><trkpt lat="41.013565" lon="14.324005"><ele>25.0</ele><time>2026-03-28T11:20:59.414Z</time></trkpt><trkpt lat="41.0135033" lon="14.3239517"><ele>25.0</ele><time>2026-03-28T11:21:00.413Z</time></trkpt><trkpt lat="41.0134367" lon="14.3239017"><ele>25.0</ele><time>2026-03-28T11:21:01.414Z</time></trkpt><trkpt lat="41.0133783" lon="14.3238483"><ele>25.000000000000004</ele><time>2026-03-28T11:21:02.413Z</time></trkpt><trkpt lat="41.0133183" lon="14.3237967"><ele>25.0</ele><time>2026-03-28T11:21:03.414Z</time></trkpt><trkpt lat="41.01326" lon="14.3237467"><ele>25.142857142857146</ele><time>2026-03-28T11:21:04.413Z</time></trkpt><trkpt lat="41.0132033" lon="14.3236933"><ele>25.285714285714285</ele><time>2026-03-28T11:21:05.414Z</time></trkpt><trkpt lat="41.013145" lon="14.32364"><ele>25.42857142857143</ele><time>2026-03-28T11:21:06.413Z</time></trkpt><trkpt lat="41.013085" lon="14.3235833"><ele>25.571428571428573</ele><time>2026-03-28T11:21:07.414Z</time></trkpt><trkpt lat="41.013025" lon="14.3235283"><ele>25.714285714285715</ele><time>2026-03-28T11:21:08.414Z</time></trkpt><trkpt lat="41.012965" lon="14.3234667"><ele>25.857142857142858</ele><time>2026-03-28T11:21:09.414Z</time></trkpt><trkpt lat="41.0129067" lon="14.3234033"><ele>26.0</ele><time>2026-03-28T11:21:10.413Z</time></trkpt><trkpt lat="41.0128517" lon="14.323345"><ele>25.999999999999996</ele><time>2026-03-28T11:21:11.414Z</time></trkpt><trkpt lat="41.012745" lon="14.3232283"><ele>26.0</ele><time>2026-03-28T11:21:13.414Z</time></trkpt><trkpt lat="41.0127" lon="14.3231567"><ele>26.0</ele><time>2026-03-28T11:21:14.413Z</time></trkpt><trkpt lat="41.0126533" lon="14.3230917"><ele>26.0</ele><time>2026-03-28T11:21:15.413Z</time></trkpt><trkpt lat="41.0126067" lon="14.3230233"><ele>25.999999999999996</ele><time>2026-03-28T11:21:16.414Z</time></trkpt><trkpt lat="41.012555" lon="14.3229567"><ele>26.0</ele><time>2026-03-28T11:21:17.414Z</time></trkpt><trkpt lat="41.0125067" lon="14.3228883"><ele>25.857142857142858</ele><time>2026-03-28T11:21:18.413Z</time></trkpt><trkpt lat="41.0124533" lon="14.3228217"><ele>25.714285714285715</ele><time>2026-03-28T11:21:19.414Z</time></trkpt><trkpt lat="41.0123983" lon="14.3227583"><ele>25.571428571428573</ele><time>2026-03-28T11:21:20.412Z</time></trkpt><trkpt lat="41.012345" lon="14.322695"><ele>25.42857142857143</ele><time>2026-03-28T11:21:21.413Z</time></trkpt><trkpt lat="41.0122917" lon="14.3226317"><ele>25.285714285714285</ele><time>2026-03-28T11:21:22.413Z</time></trkpt><trkpt lat="41.0122383" lon="14.322565"><ele>25.142857142857146</ele><time>2026-03-28T11:21:23.413Z</time></trkpt><trkpt lat="41.0121833" lon="14.3224983"><ele>25.0</ele><time>2026-03-28T11:21:24.414Z</time></trkpt><trkpt lat="41.0121317" lon="14.3224317"><ele>25.000000000000004</ele><time>2026-03-28T11:21:25.414Z</time></trkpt><trkpt lat="41.012075" lon="14.3223667"><ele>25.0</ele><time>2026-03-28T11:21:26.414Z</time></trkpt><trkpt lat="41.0120217" lon="14.3223083"><ele>25.0</ele><time>2026-03-28T11:21:27.414Z</time></trkpt><trkpt lat="41.0119667" lon="14.32224"><ele>25.0</ele><time>2026-03-28T11:21:28.413Z</time></trkpt><trkpt lat="41.01191" lon="14.3221767"><ele>25.0</ele><time>2026-03-28T11:21:29.414Z</time></trkpt><trkpt lat="41.01185" lon="14.32211"><ele>25.000000000000004</ele><time>2026-03-28T11:21:30.414Z</time></trkpt><trkpt lat="41.0117967" lon="14.3220417"><ele>25.0</ele><time>2026-03-28T11:21:31.413Z</time></trkpt><trkpt lat="41.0117367" lon="14.3219767"><ele>24.666666666666668</ele><time>2026-03-28T11:21:32.414Z</time></trkpt><trkpt lat="41.0116783" lon="14.3219067"><ele>24.333333333333336</ele><time>2026-03-28T11:21:33.415Z</time></trkpt><trkpt lat="41.0116217" lon="14.3218383"><ele>24.0</ele><time>2026-03-28T11:21:34.414Z</time></trkpt><trkpt lat="41.01156" lon="14.321775"><ele>23.666666666666668</ele><time>2026-03-28T11:21:35.414Z</time></trkpt><trkpt lat="41.0114983" lon="14.3217083"><ele>23.333333333333336</ele><time>2026-03-28T11:21:36.414Z</time></trkpt><trkpt lat="41.011435" lon="14.3216367"><ele>23.0</ele><time>2026-03-28T11:21:37.414Z</time></trkpt><trkpt lat="41.0113717" lon="14.3215633"><ele>23.0</ele><time>2026-03-28T11:21:38.414Z</time></trkpt><trkpt lat="41.0113133" lon="14.321485"><ele>23.0</ele><time>2026-03-28T11:21:39.412Z</time></trkpt><trkpt lat="41.0112533" lon="14.32141"><ele>23.0</ele><time>2026-03-28T11:21:40.413Z</time></trkpt><trkpt lat="41.011195" lon="14.32133"><ele>23.0</ele><time>2026-03-28T11:21:41.417Z</time></trkpt><trkpt lat="41.011135" lon="14.3212533"><ele>23.0</ele><time>2026-03-28T11:21:42.413Z</time></trkpt><trkpt lat="41.0110733" lon="14.3211817"><ele>23.0</ele><time>2026-03-28T11:21:43.415Z</time></trkpt><trkpt lat="41.0110067" lon="14.3211067"><ele>22.799999999999997</ele><time>2026-03-28T11:21:44.416Z</time></trkpt><trkpt lat="41.0109383" lon="14.3210317"><ele>22.6</ele><time>2026-03-28T11:21:45.414Z</time></trkpt><trkpt lat="41.01087" lon="14.3209567"><ele>22.4</ele><time>2026-03-28T11:21:46.413Z</time></trkpt><trkpt lat="41.0107967" lon="14.3208767"><ele>22.200000000000003</ele><time>2026-03-28T11:21:47.414Z</time></trkpt><trkpt lat="41.010725" lon="14.3207967"><ele>22.0</ele><time>2026-03-28T11:21:48.413Z</time></trkpt><trkpt lat="41.0106467" lon="14.3207183"><ele>22.0</ele><time>2026-03-28T11:21:49.414Z</time></trkpt><trkpt lat="41.010565" lon="14.3206483"><ele>22.0</ele><time>2026-03-28T11:21:50.414Z</time></trkpt><trkpt lat="41.0104867" lon="14.3205783"><ele>22.0</ele><time>2026-03-28T11:21:51.413Z</time></trkpt><trkpt lat="41.0104083" lon="14.3205117"><ele>22.0</ele><time>2026-03-28T11:21:52.413Z</time></trkpt><trkpt lat="41.0103267" lon="14.320455"><ele>22.0</ele><time>2026-03-28T11:21:53.416Z</time></trkpt><trkpt lat="41.0102417" lon="14.3204017"><ele>22.200000000000003</ele><time>2026-03-28T11:21:54.414Z</time></trkpt><trkpt lat="41.0101483" lon="14.3203617"><ele>22.4</ele><time>2026-03-28T11:21:55.414Z</time></trkpt><trkpt lat="41.0100567" lon="14.3203267"><ele>22.6</ele><time>2026-03-28T11:21:56.413Z</time></trkpt><trkpt lat="41.0099683" lon="14.3202883"><ele>22.799999999999997</ele><time>2026-03-28T11:21:57.414Z</time></trkpt><trkpt lat="41.0098817" lon="14.3202533"><ele>23.0</ele><time>2026-03-28T11:21:58.414Z</time></trkpt><trkpt lat="41.0097917" lon="14.3202217"><ele>22.5</ele><time>2026-03-28T11:21:59.414Z</time></trkpt><trkpt lat="41.009705" lon="14.3201883"><ele>22.0</ele><time>2026-03-28T11:22:00.413Z</time></trkpt><trkpt lat="41.0096167" lon="14.3201567"><ele>21.5</ele><time>2026-03-28T11:22:01.414Z</time></trkpt><trkpt lat="41.0095317" lon="14.320125"><ele>21.0</ele><time>2026-03-28T11:22:02.412Z</time></trkpt><trkpt lat="41.0094483" lon="14.3200933"><ele>20.5</ele><time>2026-03-28T11:22:03.414Z</time></trkpt><trkpt lat="41.009365" lon="14.3200583"><ele>20.0</ele><time>2026-03-28T11:22:04.412Z</time></trkpt><trkpt lat="41.0092833" lon="14.3200217"><ele>20.0</ele><time>2026-03-28T11:22:05.414Z</time></trkpt><trkpt lat="41.0091933" lon="14.3199867"><ele>20.0</ele><time>2026-03-28T11:22:06.413Z</time></trkpt><trkpt lat="41.00911" lon="14.3199567"><ele>20.0</ele><time>2026-03-28T11:22:07.414Z</time></trkpt><trkpt lat="41.00903" lon="14.3199233"><ele>20.0</ele><time>2026-03-28T11:22:08.413Z</time></trkpt><trkpt lat="41.0089467" lon="14.3198917"><ele>20.0</ele><time>2026-03-28T11:22:09.414Z</time></trkpt><trkpt lat="41.0088583" lon="14.3198683"><ele>20.0</ele><time>2026-03-28T11:22:10.414Z</time></trkpt><trkpt lat="41.0087717" lon="14.3198433"><ele>20.0</ele><time>2026-03-28T11:22:11.414Z</time></trkpt><trkpt lat="41.0086817" lon="14.3198217"><ele>20.0</ele><time>2026-03-28T11:22:12.413Z</time></trkpt><trkpt lat="41.0085883" lon="14.319795"><ele>20.0</ele><time>2026-03-28T11:22:13.414Z</time></trkpt><trkpt lat="41.0085017" lon="14.3197617"><ele>20.0</ele><time>2026-03-28T11:22:14.413Z</time></trkpt><trkpt lat="41.008415" lon="14.3197267"><ele>20.0</ele><time>2026-03-28T11:22:15.413Z</time></trkpt><trkpt lat="41.00833" lon="14.3196933"><ele>20.0</ele><time>2026-03-28T11:22:16.414Z</time></trkpt><trkpt lat="41.0082467" lon="14.3196583"><ele>20.0</ele><time>2026-03-28T11:22:17.414Z</time></trkpt><trkpt lat="41.008165" lon="14.319625"><ele>20.0</ele><time>2026-03-28T11:22:18.414Z</time></trkpt><trkpt lat="41.0080817" lon="14.3195917"><ele>20.0</ele><time>2026-03-28T11:22:19.414Z</time></trkpt><trkpt lat="41.008" lon="14.3195617"><ele>20.0</ele><time>2026-03-28T11:22:20.414Z</time></trkpt><trkpt lat="41.0079133" lon="14.3195317"><ele>20.0</ele><time>2026-03-28T11:22:21.413Z</time></trkpt><trkpt lat="41.0078233" lon="14.3195083"><ele>20.0</ele><time>2026-03-28T11:22:22.415Z</time></trkpt><trkpt lat="41.0077367" lon="14.31948"><ele>20.0</ele><time>2026-03-28T11:22:23.414Z</time></trkpt><trkpt lat="41.0076517" lon="14.31945"><ele>20.0</ele><time>2026-03-28T11:22:24.414Z</time></trkpt><trkpt lat="41.007565" lon="14.3194133"><ele>20.0</ele><time>2026-03-28T11:22:25.414Z</time></trkpt><trkpt lat="41.0074817" lon="14.3193733"><ele>20.0</ele><time>2026-03-28T11:22:26.416Z</time></trkpt><trkpt lat="41.0073683" lon="14.3193583"><ele>20.333333333333336</ele><time>2026-03-28T11:22:27.414Z</time></trkpt><trkpt lat="41.0072717" lon="14.3193333"><ele>20.666666666666668</ele><time>2026-03-28T11:22:28.414Z</time></trkpt><trkpt lat="41.0071783" lon="14.319305"><ele>21.0</ele><time>2026-03-28T11:22:29.416Z</time></trkpt><trkpt lat="41.0070917" lon="14.3192767"><ele>21.333333333333332</ele><time>2026-03-28T11:22:30.414Z</time></trkpt><trkpt lat="41.0070167" lon="14.3192417"><ele>21.666666666666664</ele><time>2026-03-28T11:22:31.415Z</time></trkpt><trkpt lat="41.0069383" lon="14.3192033"><ele>22.0</ele><time>2026-03-28T11:22:32.414Z</time></trkpt><trkpt lat="41.0068583" lon="14.3191717"><ele>22.0</ele><time>2026-03-28T11:22:33.413Z</time></trkpt><trkpt lat="41.0067733" lon="14.319145"><ele>22.0</ele><time>2026-03-28T11:22:34.414Z</time></trkpt><trkpt lat="41.0066883" lon="14.3191183"><ele>22.0</ele><time>2026-03-28T11:22:35.415Z</time></trkpt><trkpt lat="41.0066017" lon="14.3190917"><ele>22.0</ele><time>2026-03-28T11:22:36.414Z</time></trkpt><trkpt lat="41.0065233" lon="14.3190583"><ele>22.0</ele><time>2026-03-28T11:22:37.414Z</time></trkpt><trkpt lat="41.006455" lon="14.3190167"><ele>22.0</ele><time>2026-03-28T11:22:38.414Z</time></trkpt><trkpt lat="41.00638" lon="14.3189817"><ele>21.833333333333332</ele><time>2026-03-28T11:22:39.413Z</time></trkpt><trkpt lat="41.0062967" lon="14.3189383"><ele>21.666666666666664</ele><time>2026-03-28T11:22:40.414Z</time></trkpt><trkpt lat="41.0062283" lon="14.3188767"><ele>21.5</ele><time>2026-03-28T11:22:41.414Z</time></trkpt><trkpt lat="41.0061633" lon="14.3188017"><ele>21.333333333333332</ele><time>2026-03-28T11:22:42.414Z</time></trkpt><trkpt lat="41.006105" lon="14.31872"><ele>21.166666666666668</ele><time>2026-03-28T11:22:43.414Z</time></trkpt><trkpt lat="41.00604" lon="14.3186433"><ele>21.0</ele><time>2026-03-28T11:22:44.413Z</time></trkpt><trkpt lat="41.0059733" lon="14.3185783"><ele>21.0</ele><time>2026-03-28T11:22:45.414Z</time></trkpt><trkpt lat="41.0059017" lon="14.3185367"><ele>21.0</ele><time>2026-03-28T11:22:46.413Z</time></trkpt><trkpt lat="41.0058283" lon="14.3185233"><ele>21.0</ele><time>2026-03-28T11:22:47.415Z</time></trkpt><trkpt lat="41.0057433" lon="14.3185383"><ele>21.0</ele><time>2026-03-28T11:22:48.413Z</time></trkpt><trkpt lat="41.0056617" lon="14.31858"><ele>21.0</ele><time>2026-03-28T11:22:49.415Z</time></trkpt><trkpt lat="41.0055983" lon="14.3186283"><ele>21.0</ele><time>2026-03-28T11:22:50.414Z</time></trkpt><trkpt lat="41.0055317" lon="14.3187017"><ele>20.833333333333332</ele><time>2026-03-28T11:22:51.414Z</time></trkpt><trkpt lat="41.0054683" lon="14.3187717"><ele>20.666666666666668</ele><time>2026-03-28T11:22:52.414Z</time></trkpt><trkpt lat="41.0054033" lon="14.3188467"><ele>20.5</ele><time>2026-03-28T11:22:53.416Z</time></trkpt><trkpt lat="41.0053417" lon="14.31892"><ele>20.333333333333336</ele><time>2026-03-28T11:22:54.414Z</time></trkpt><trkpt lat="41.005275" lon="14.3189833"><ele>20.166666666666668</ele><time>2026-03-28T11:22:55.414Z</time></trkpt><trkpt lat="41.0051967" lon="14.3190417"><ele>20.0</ele><time>2026-03-28T11:22:56.414Z</time></trkpt><trkpt lat="41.00511" lon="14.3190967"><ele>20.333333333333336</ele><time>2026-03-28T11:22:57.414Z</time></trkpt><trkpt lat="41.0050183" lon="14.3191317"><ele>20.666666666666668</ele><time>2026-03-28T11:22:58.414Z</time></trkpt><trkpt lat="41.0049283" lon="14.319135"><ele>21.0</ele><time>2026-03-28T11:22:59.415Z</time></trkpt><trkpt lat="41.0048417" lon="14.31911"><ele>21.333333333333332</ele><time>2026-03-28T11:23:00.414Z</time></trkpt><trkpt lat="41.0047617" lon="14.3190767"><ele>21.666666666666664</ele><time>2026-03-28T11:23:01.414Z</time></trkpt><trkpt lat="41.0046783" lon="14.3190517"><ele>22.0</ele><time>2026-03-28T11:23:02.414Z</time></trkpt><trkpt lat="41.0046033" lon="14.3190217"><ele>22.166666666666664</ele><time>2026-03-28T11:23:03.414Z</time></trkpt><trkpt lat="41.0045233" lon="14.3189883"><ele>22.333333333333332</ele><time>2026-03-28T11:23:04.414Z</time></trkpt><trkpt lat="41.004445" lon="14.31896"><ele>22.5</ele><time>2026-03-28T11:23:05.414Z</time></trkpt><trkpt lat="41.0043617" lon="14.3189333"><ele>22.666666666666668</ele><time>2026-03-28T11:23:06.414Z</time></trkpt><trkpt lat="41.0042817" lon="14.3189083"><ele>22.833333333333336</ele><time>2026-03-28T11:23:07.414Z</time></trkpt><trkpt lat="41.0042033" lon="14.3188883"><ele>23.0</ele><time>2026-03-28T11:23:08.415Z</time></trkpt><trkpt lat="41.004125" lon="14.3188667"><ele>22.333333333333336</ele><time>2026-03-28T11:23:09.413Z</time></trkpt><trkpt lat="41.00405" lon="14.3188433"><ele>21.666666666666668</ele><time>2026-03-28T11:23:10.415Z</time></trkpt><trkpt lat="41.003975" lon="14.3188233"><ele>21.0</ele><time>2026-03-28T11:23:11.414Z</time></trkpt><trkpt lat="41.0038983" lon="14.31881"><ele>20.333333333333332</ele><time>2026-03-28T11:23:12.414Z</time></trkpt><trkpt lat="41.0038183" lon="14.3187967"><ele>19.666666666666664</ele><time>2026-03-28T11:23:13.413Z</time></trkpt><trkpt lat="41.0037367" lon="14.318785"><ele>19.0</ele><time>2026-03-28T11:23:14.414Z</time></trkpt><trkpt lat="41.0036533" lon="14.3187767"><ele>19.0</ele><time>2026-03-28T11:23:15.414Z</time></trkpt><trkpt lat="41.0035717" lon="14.3187667"><ele>19.0</ele><time>2026-03-28T11:23:16.415Z</time></trkpt><trkpt lat="41.00349" lon="14.3187583"><ele>19.0</ele><time>2026-03-28T11:23:17.414Z</time></trkpt><trkpt lat="41.00341" lon="14.3187483"><ele>19.0</ele><time>2026-03-28T11:23:18.416Z</time></trkpt><trkpt lat="41.0033267" lon="14.31874"><ele>19.0</ele><time>2026-03-28T11:23:19.415Z</time></trkpt><trkpt lat="41.0032433" lon="14.318735"><ele>19.0</ele><time>2026-03-28T11:23:20.417Z</time></trkpt><trkpt lat="41.0031583" lon="14.3187317"><ele>19.5</ele><time>2026-03-28T11:23:21.414Z</time></trkpt><trkpt lat="41.00307" lon="14.318725"><ele>20.0</ele><time>2026-03-28T11:23:22.415Z</time></trkpt><trkpt lat="41.002985" lon="14.3187167"><ele>20.5</ele><time>2026-03-28T11:23:23.414Z</time></trkpt><trkpt lat="41.0029" lon="14.3187083"><ele>21.0</ele><time>2026-03-28T11:23:24.414Z</time></trkpt><trkpt lat="41.002815" lon="14.3187033"><ele>21.5</ele><time>2026-03-28T11:23:25.413Z</time></trkpt><trkpt lat="41.0027333" lon="14.3186967"><ele>22.0</ele><time>2026-03-28T11:23:26.414Z</time></trkpt><trkpt lat="41.0026517" lon="14.31869"><ele>22.0</ele><time>2026-03-28T11:23:27.413Z</time></trkpt><trkpt lat="41.0025717" lon="14.3186833"><ele>22.0</ele><time>2026-03-28T11:23:28.414Z</time></trkpt><trkpt lat="41.00249" lon="14.31868"><ele>22.0</ele><time>2026-03-28T11:23:29.414Z</time></trkpt><trkpt lat="41.00241" lon="14.318685"><ele>22.0</ele><time>2026-03-28T11:23:30.414Z</time></trkpt><trkpt lat="41.00233" lon="14.3186917"><ele>22.0</ele><time>2026-03-28T11:23:31.414Z</time></trkpt><trkpt lat="41.002255" lon="14.3187067"><ele>22.0</ele><time>2026-03-28T11:23:32.414Z</time></trkpt><trkpt lat="41.0021783" lon="14.3187283"><ele>21.833333333333332</ele><time>2026-03-28T11:23:33.415Z</time></trkpt><trkpt lat="41.0021" lon="14.3187567"><ele>21.666666666666664</ele><time>2026-03-28T11:23:34.414Z</time></trkpt><trkpt lat="41.0020233" lon="14.3187783"><ele>21.5</ele><time>2026-03-28T11:23:35.415Z</time></trkpt><trkpt lat="41.0019467" lon="14.3187833"><ele>21.333333333333332</ele><time>2026-03-28T11:23:36.414Z</time></trkpt><trkpt lat="41.0018717" lon="14.3187617"><ele>21.166666666666668</ele><time>2026-03-28T11:23:37.413Z</time></trkpt><trkpt lat="41.0017983" lon="14.3187317"><ele>21.0</ele><time>2026-03-28T11:23:38.414Z</time></trkpt><trkpt lat="41.0017183" lon="14.318715"><ele>21.0</ele><time>2026-03-28T11:23:39.414Z</time></trkpt><trkpt lat="41.0016367" lon="14.31871"><ele>21.0</ele><time>2026-03-28T11:23:40.413Z</time></trkpt><trkpt lat="41.0015567" lon="14.3187083"><ele>21.0</ele><time>2026-03-28T11:23:41.414Z</time></trkpt><trkpt lat="41.00148" lon="14.3187017"><ele>21.0</ele><time>2026-03-28T11:23:42.414Z</time></trkpt><trkpt lat="41.0014067" lon="14.3186817"><ele>21.0</ele><time>2026-03-28T11:23:43.414Z</time></trkpt><trkpt lat="41.0013383" lon="14.3186417"><ele>21.0</ele><time>2026-03-28T11:23:44.414Z</time></trkpt><trkpt lat="41.001265" lon="14.3186017"><ele>21.0</ele><time>2026-03-28T11:23:45.413Z</time></trkpt><trkpt lat="41.00119" lon="14.3185717"><ele>21.0</ele><time>2026-03-28T11:23:46.414Z</time></trkpt><trkpt lat="41.001115" lon="14.3185517"><ele>21.0</ele><time>2026-03-28T11:23:47.413Z</time></trkpt><trkpt lat="41.0010383" lon="14.31854"><ele>21.0</ele><time>2026-03-28T11:23:48.414Z</time></trkpt><trkpt lat="41.0009617" lon="14.3185283"><ele>21.0</ele><time>2026-03-28T11:23:49.414Z</time></trkpt><trkpt lat="41.000885" lon="14.3185167"><ele>21.0</ele><time>2026-03-28T11:23:50.413Z</time></trkpt><trkpt lat="41.00081" lon="14.3185033"><ele>21.0</ele><time>2026-03-28T11:23:51.415Z</time></trkpt><trkpt lat="41.00073" lon="14.3184883"><ele>21.0</ele><time>2026-03-28T11:23:52.414Z</time></trkpt><trkpt lat="41.000655" lon="14.318475"><ele>21.0</ele><time>2026-03-28T11:23:53.414Z</time></trkpt><trkpt lat="41.0005767" lon="14.318465"><ele>21.0</ele><time>2026-03-28T11:23:54.414Z</time></trkpt><trkpt lat="41.0005" lon="14.3184517"><ele>21.0</ele><time>2026-03-28T11:23:55.413Z</time></trkpt><trkpt lat="41.0004233" lon="14.3184417"><ele>21.0</ele><time>2026-03-28T11:23:56.414Z</time></trkpt><trkpt lat="41.000345" lon="14.3184317"><ele>21.0</ele><time>2026-03-28T11:23:57.414Z</time></trkpt><trkpt lat="41.000265" lon="14.31842"><ele>21.0</ele><time>2026-03-28T11:23:58.416Z</time></trkpt><trkpt lat="41.0001817" lon="14.3184083"><ele>21.0</ele><time>2026-03-28T11:23:59.414Z</time></trkpt><trkpt lat="41.0000967" lon="14.3184"><ele>21.0</ele><time>2026-03-28T11:24:00.414Z</time></trkpt><trkpt lat="41.000005" lon="14.3183933"><ele>21.0</ele><time>2026-03-28T11:24:01.416Z</time></trkpt><trkpt lat="40.9999167" lon="14.3183867"><ele>21.0</ele><time>2026-03-28T11:24:02.414Z</time></trkpt><trkpt lat="40.9998283" lon="14.3183817"><ele>21.0</ele><time>2026-03-28T11:24:03.414Z</time></trkpt><trkpt lat="40.9997433" lon="14.3183733"><ele>21.0</ele><time>2026-03-28T11:24:04.415Z</time></trkpt><trkpt lat="40.9996567" lon="14.318365"><ele>21.0</ele><time>2026-03-28T11:24:05.414Z</time></trkpt><trkpt lat="40.999575" lon="14.318355"><ele>21.0</ele><time>2026-03-28T11:24:06.414Z</time></trkpt><trkpt lat="40.999495" lon="14.3183433"><ele>21.0</ele><time>2026-03-28T11:24:07.414Z</time></trkpt><trkpt lat="40.9994117" lon="14.3183317"><ele>21.0</ele><time>2026-03-28T11:24:08.414Z</time></trkpt><trkpt lat="40.9993183" lon="14.3183233"><ele>21.0</ele><time>2026-03-28T11:24:09.413Z</time></trkpt><trkpt lat="40.9992367" lon="14.3183117"><ele>21.0</ele><time>2026-03-28T11:24:10.413Z</time></trkpt><trkpt lat="40.9991483" lon="14.3183033"><ele>21.0</ele><time>2026-03-28T11:24:11.414Z</time></trkpt><trkpt lat="40.999065" lon="14.3182967"><ele>21.0</ele><time>2026-03-28T11:24:12.414Z</time></trkpt><trkpt lat="40.9989767" lon="14.3182883"><ele>21.0</ele><time>2026-03-28T11:24:13.414Z</time></trkpt><trkpt lat="40.9988867" lon="14.318285"><ele>21.0</ele><time>2026-03-28T11:24:14.415Z</time></trkpt><trkpt lat="40.9987983" lon="14.3182817"><ele>21.0</ele><time>2026-03-28T11:24:15.415Z</time></trkpt><trkpt lat="40.9987067" lon="14.3182783"><ele>21.0</ele><time>2026-03-28T11:24:16.414Z</time></trkpt><trkpt lat="40.99862" lon="14.3182783"><ele>21.0</ele><time>2026-03-28T11:24:17.414Z</time></trkpt><trkpt lat="40.998535" lon="14.3182683"><ele>21.0</ele><time>2026-03-28T11:24:18.414Z</time></trkpt><trkpt lat="40.9984517" lon="14.3182533"><ele>21.0</ele><time>2026-03-28T11:24:19.415Z</time></trkpt><trkpt lat="40.9983717" lon="14.3182367"><ele>21.0</ele><time>2026-03-28T11:24:20.414Z</time></trkpt><trkpt lat="40.9982833" lon="14.318225"><ele>20.833333333333332</ele><time>2026-03-28T11:24:21.413Z</time></trkpt><trkpt lat="40.9981967" lon="14.31821"><ele>20.666666666666668</ele><time>2026-03-28T11:24:22.414Z</time></trkpt><trkpt lat="40.9981133" lon="14.3182"><ele>20.5</ele><time>2026-03-28T11:24:23.414Z</time></trkpt><trkpt lat="40.998035" lon="14.3181867"><ele>20.333333333333336</ele><time>2026-03-28T11:24:24.414Z</time></trkpt><trkpt lat="40.9979533" lon="14.3181733"><ele>20.166666666666668</ele><time>2026-03-28T11:24:25.415Z</time></trkpt><trkpt lat="40.99787" lon="14.31816"><ele>20.0</ele><time>2026-03-28T11:24:26.413Z</time></trkpt><trkpt lat="40.99779" lon="14.3181483"><ele>20.0</ele><time>2026-03-28T11:24:27.414Z</time></trkpt><trkpt lat="40.99771" lon="14.31814"><ele>20.0</ele><time>2026-03-28T11:24:28.413Z</time></trkpt><trkpt lat="40.99763" lon="14.3181317"><ele>20.0</ele><time>2026-03-28T11:24:29.414Z</time></trkpt><trkpt lat="40.9975517" lon="14.3181217"><ele>20.0</ele><time>2026-03-28T11:24:30.413Z</time></trkpt><trkpt lat="40.9974733" lon="14.3181117"><ele>20.0</ele><time>2026-03-28T11:24:31.414Z</time></trkpt><trkpt lat="40.997395" lon="14.3181"><ele>20.0</ele><time>2026-03-28T11:24:32.414Z</time></trkpt><trkpt lat="40.9973117" lon="14.31809"><ele>20.166666666666668</ele><time>2026-03-28T11:24:33.414Z</time></trkpt><trkpt lat="40.9972267" lon="14.3180817"><ele>20.333333333333336</ele><time>2026-03-28T11:24:34.414Z</time></trkpt><trkpt lat="40.99714" lon="14.3180717"><ele>20.5</ele><time>2026-03-28T11:24:35.414Z</time></trkpt><trkpt lat="40.9970533" lon="14.3180633"><ele>20.666666666666668</ele><time>2026-03-28T11:24:36.413Z</time></trkpt><trkpt lat="40.9969667" lon="14.3180517"><ele>20.833333333333332</ele><time>2026-03-28T11:24:37.414Z</time></trkpt><trkpt lat="40.996885" lon="14.3180417"><ele>21.0</ele><time>2026-03-28T11:24:38.414Z</time></trkpt><trkpt lat="40.9968" lon="14.3180317"><ele>20.833333333333332</ele><time>2026-03-28T11:24:39.414Z</time></trkpt><trkpt lat="40.996715" lon="14.3180233"><ele>20.666666666666668</ele><time>2026-03-28T11:24:40.414Z</time></trkpt><trkpt lat="40.99663" lon="14.3180167"><ele>20.5</ele><time>2026-03-28T11:24:41.414Z</time></trkpt><trkpt lat="40.9965483" lon="14.3180117"><ele>20.333333333333336</ele><time>2026-03-28T11:24:42.414Z</time></trkpt><trkpt lat="40.996465" lon="14.318005"><ele>20.166666666666668</ele><time>2026-03-28T11:24:43.414Z</time></trkpt><trkpt lat="40.9963817" lon="14.317995"><ele>20.0</ele><time>2026-03-28T11:24:44.414Z</time></trkpt><trkpt lat="40.9962967" lon="14.317985"><ele>20.0</ele><time>2026-03-28T11:24:45.414Z</time></trkpt><trkpt lat="40.996215" lon="14.317975"><ele>20.0</ele><time>2026-03-28T11:24:46.413Z</time></trkpt><trkpt lat="40.99613" lon="14.317965"><ele>20.0</ele><time>2026-03-28T11:24:47.414Z</time></trkpt><trkpt lat="40.9960433" lon="14.3179567"><ele>20.0</ele><time>2026-03-28T11:24:48.414Z</time></trkpt><trkpt lat="40.99596" lon="14.3179483"><ele>20.0</ele><time>2026-03-28T11:24:49.414Z</time></trkpt><trkpt lat="40.9958817" lon="14.31794"><ele>20.0</ele><time>2026-03-28T11:24:50.414Z</time></trkpt><trkpt lat="40.9958017" lon="14.3179317"><ele>19.833333333333336</ele><time>2026-03-28T11:24:51.414Z</time></trkpt><trkpt lat="40.9957233" lon="14.317925"><ele>19.666666666666668</ele><time>2026-03-28T11:24:52.415Z</time></trkpt><trkpt lat="40.9956467" lon="14.3179167"><ele>19.5</ele><time>2026-03-28T11:24:53.414Z</time></trkpt><trkpt lat="40.99557" lon="14.31791"><ele>19.333333333333332</ele><time>2026-03-28T11:24:54.414Z</time></trkpt><trkpt lat="40.9954917" lon="14.3179033"><ele>19.166666666666664</ele><time>2026-03-28T11:24:55.414Z</time></trkpt><trkpt lat="40.99541" lon="14.3178933"><ele>19.0</ele><time>2026-03-28T11:24:56.414Z</time></trkpt><trkpt lat="40.9953283" lon="14.317885"><ele>19.0</ele><time>2026-03-28T11:24:57.413Z</time></trkpt><trkpt lat="40.9952467" lon="14.31788"><ele>19.0</ele><time>2026-03-28T11:24:58.413Z</time></trkpt><trkpt lat="40.99517" lon="14.3178683"><ele>19.0</ele><time>2026-03-28T11:24:59.414Z</time></trkpt><trkpt lat="40.9950883" lon="14.317865"><ele>19.0</ele><time>2026-03-28T11:25:00.413Z</time></trkpt><trkpt lat="40.9950083" lon="14.31786"><ele>19.0</ele><time>2026-03-28T11:25:01.413Z</time></trkpt><trkpt lat="40.99493" lon="14.3178483"><ele>19.0</ele><time>2026-03-28T11:25:02.413Z</time></trkpt><trkpt lat="40.9948483" lon="14.3178333"><ele>19.0</ele><time>2026-03-28T11:25:03.413Z</time></trkpt><trkpt lat="40.9947667" lon="14.317825"><ele>19.0</ele><time>2026-03-28T11:25:04.413Z</time></trkpt><trkpt lat="40.9946833" lon="14.31782"><ele>19.0</ele><time>2026-03-28T11:25:05.413Z</time></trkpt><trkpt lat="40.9946017" lon="14.3178117"><ele>19.0</ele><time>2026-03-28T11:25:06.413Z</time></trkpt><trkpt lat="40.99452" lon="14.3178033"><ele>19.0</ele><time>2026-03-28T11:25:07.413Z</time></trkpt><trkpt lat="40.9944383" lon="14.3177983"><ele>19.0</ele><time>2026-03-28T11:25:08.414Z</time></trkpt><trkpt lat="40.9943533" lon="14.317795"><ele>19.0</ele><time>2026-03-28T11:25:09.415Z</time></trkpt><trkpt lat="40.9942733" lon="14.317785"><ele>19.0</ele><time>2026-03-28T11:25:10.413Z</time></trkpt><trkpt lat="40.9941933" lon="14.3177733"><ele>19.0</ele><time>2026-03-28T11:25:11.413Z</time></trkpt><trkpt lat="40.9941083" lon="14.3177617"><ele>19.0</ele><time>2026-03-28T11:25:12.413Z</time></trkpt><trkpt lat="40.9940167" lon="14.3177533"><ele>19.0</ele><time>2026-03-28T11:25:13.413Z</time></trkpt><trkpt lat="40.9939283" lon="14.3177417"><ele>19.0</ele><time>2026-03-28T11:25:14.413Z</time></trkpt><trkpt lat="40.9938417" lon="14.31773"><ele>19.0</ele><time>2026-03-28T11:25:15.414Z</time></trkpt><trkpt lat="40.9937517" lon="14.3177217"><ele>19.0</ele><time>2026-03-28T11:25:16.413Z</time></trkpt><trkpt lat="40.9936633" lon="14.3177133"><ele>19.0</ele><time>2026-03-28T11:25:17.413Z</time></trkpt><trkpt lat="40.9935767" lon="14.317705"><ele>19.0</ele><time>2026-03-28T11:25:18.414Z</time></trkpt><trkpt lat="40.99349" lon="14.3176983"><ele>19.0</ele><time>2026-03-28T11:25:19.413Z</time></trkpt><trkpt lat="40.9934017" lon="14.317685"><ele>19.0</ele><time>2026-03-28T11:25:20.413Z</time></trkpt><trkpt lat="40.9933167" lon="14.31767"><ele>19.0</ele><time>2026-03-28T11:25:21.413Z</time></trkpt><trkpt lat="40.9932283" lon="14.3176583"><ele>19.0</ele><time>2026-03-28T11:25:22.412Z</time></trkpt><trkpt lat="40.993145" lon="14.3176433"><ele>19.0</ele><time>2026-03-28T11:25:23.415Z</time></trkpt><trkpt lat="40.9930633" lon="14.3176167"><ele>19.0</ele><time>2026-03-28T11:25:24.413Z</time></trkpt><trkpt lat="40.9929783" lon="14.3175933"><ele>19.0</ele><time>2026-03-28T11:25:25.413Z</time></trkpt><trkpt lat="40.9928917" lon="14.3175667"><ele>19.0</ele><time>2026-03-28T11:25:26.413Z</time></trkpt><trkpt lat="40.9928083" lon="14.317535"><ele>19.0</ele><time>2026-03-28T11:25:27.42Z</time></trkpt><trkpt lat="40.9927283" lon="14.3174933"><ele>19.0</ele><time>2026-03-28T11:25:28.413Z</time></trkpt><trkpt lat="40.9926483" lon="14.3174467"><ele>19.0</ele><time>2026-03-28T11:25:29.413Z</time></trkpt><trkpt lat="40.99257" lon="14.3173967"><ele>19.0</ele><time>2026-03-28T11:25:30.414Z</time></trkpt><trkpt lat="40.9924967" lon="14.31734"><ele>19.0</ele><time>2026-03-28T11:25:31.413Z</time></trkpt><trkpt lat="40.992425" lon="14.31728"><ele>19.0</ele><time>2026-03-28T11:25:32.416Z</time></trkpt><trkpt lat="40.9923533" lon="14.3172167"><ele>19.166666666666664</ele><time>2026-03-28T11:25:33.413Z</time></trkpt><trkpt lat="40.9922867" lon="14.3171483"><ele>19.333333333333332</ele><time>2026-03-28T11:25:34.413Z</time></trkpt><trkpt lat="40.9922183" lon="14.3170767"><ele>19.5</ele><time>2026-03-28T11:25:35.414Z</time></trkpt><trkpt lat="40.99215" lon="14.3170083"><ele>19.666666666666668</ele><time>2026-03-28T11:25:36.415Z</time></trkpt><trkpt lat="40.99208" lon="14.3169367"><ele>19.833333333333336</ele><time>2026-03-28T11:25:37.414Z</time></trkpt><trkpt lat="40.9920133" lon="14.316865"><ele>20.0</ele><time>2026-03-28T11:25:38.414Z</time></trkpt><trkpt lat="40.9919483" lon="14.316795"><ele>20.0</ele><time>2026-03-28T11:25:39.412Z</time></trkpt><trkpt lat="40.9918717" lon="14.3167267"><ele>20.0</ele><time>2026-03-28T11:25:40.413Z</time></trkpt><trkpt lat="40.9917967" lon="14.3166667"><ele>20.0</ele><time>2026-03-28T11:25:41.414Z</time></trkpt><trkpt lat="40.991725" lon="14.3166033"><ele>20.0</ele><time>2026-03-28T11:25:42.413Z</time></trkpt><trkpt lat="40.991655" lon="14.3165333"><ele>20.0</ele><time>2026-03-28T11:25:43.413Z</time></trkpt><trkpt lat="40.9915883" lon="14.3164617"><ele>20.0</ele><time>2026-03-28T11:25:44.413Z</time></trkpt><trkpt lat="40.991525" lon="14.3163917"><ele>19.833333333333336</ele><time>2026-03-28T11:25:45.413Z</time></trkpt><trkpt lat="40.99146" lon="14.3163233"><ele>19.666666666666668</ele><time>2026-03-28T11:25:46.414Z</time></trkpt><trkpt lat="40.9913983" lon="14.316255"><ele>19.5</ele><time>2026-03-28T11:25:47.413Z</time></trkpt><trkpt lat="40.99133" lon="14.3161933"><ele>19.333333333333332</ele><time>2026-03-28T11:25:48.413Z</time></trkpt><trkpt lat="40.991265" lon="14.316125"><ele>19.166666666666664</ele><time>2026-03-28T11:25:49.413Z</time></trkpt><trkpt lat="40.9911967" lon="14.3160567"><ele>19.0</ele><time>2026-03-28T11:25:50.413Z</time></trkpt><trkpt lat="40.9911267" lon="14.3159867"><ele>19.0</ele><time>2026-03-28T11:25:51.414Z</time></trkpt><trkpt lat="40.9910567" lon="14.3159183"><ele>19.0</ele><time>2026-03-28T11:25:52.413Z</time></trkpt><trkpt lat="40.99099" lon="14.315845"><ele>19.0</ele><time>2026-03-28T11:25:53.419Z</time></trkpt><trkpt lat="40.9909217" lon="14.315775"><ele>19.0</ele><time>2026-03-28T11:25:54.413Z</time></trkpt><trkpt lat="40.9908583" lon="14.315705"><ele>19.0</ele><time>2026-03-28T11:25:55.416Z</time></trkpt><trkpt lat="40.990795" lon="14.3156283"><ele>19.0</ele><time>2026-03-28T11:25:56.414Z</time></trkpt><trkpt lat="40.9907317" lon="14.3155483"><ele>19.2</ele><time>2026-03-28T11:25:57.413Z</time></trkpt><trkpt lat="40.9906667" lon="14.315465"><ele>19.4</ele><time>2026-03-28T11:25:58.413Z</time></trkpt><trkpt lat="40.990595" lon="14.31538"><ele>19.6</ele><time>2026-03-28T11:25:59.413Z</time></trkpt><trkpt lat="40.99052" lon="14.3152933"><ele>19.8</ele><time>2026-03-28T11:26:00.415Z</time></trkpt><trkpt lat="40.9904467" lon="14.3152117"><ele>20.0</ele><time>2026-03-28T11:26:01.414Z</time></trkpt><trkpt lat="40.9903683" lon="14.315125"><ele>20.0</ele><time>2026-03-28T11:26:02.413Z</time></trkpt><trkpt lat="40.990285" lon="14.3150567"><ele>20.0</ele><time>2026-03-28T11:26:03.412Z</time></trkpt><trkpt lat="40.990195" lon="14.3149817"><ele>20.0</ele><time>2026-03-28T11:26:04.413Z</time></trkpt><trkpt lat="40.9901133" lon="14.3149083"><ele>20.0</ele><time>2026-03-28T11:26:05.413Z</time></trkpt><trkpt lat="40.9900317" lon="14.3148317"><ele>20.0</ele><time>2026-03-28T11:26:06.412Z</time></trkpt><trkpt lat="40.9899567" lon="14.3147433"><ele>20.2</ele><time>2026-03-28T11:26:07.414Z</time></trkpt><trkpt lat="40.989875" lon="14.3146633"><ele>20.4</ele><time>2026-03-28T11:26:08.413Z</time></trkpt><trkpt lat="40.9897917" lon="14.314585"><ele>20.6</ele><time>2026-03-28T11:26:09.413Z</time></trkpt><trkpt lat="40.9897183" lon="14.31451"><ele>20.8</ele><time>2026-03-28T11:26:10.413Z</time></trkpt><trkpt lat="40.9896467" lon="14.3144333"><ele>21.0</ele><time>2026-03-28T11:26:11.413Z</time></trkpt><trkpt lat="40.98957" lon="14.3143583"><ele>21.0</ele><time>2026-03-28T11:26:12.414Z</time></trkpt><trkpt lat="40.9894933" lon="14.314285"><ele>21.0</ele><time>2026-03-28T11:26:13.414Z</time></trkpt><trkpt lat="40.9894183" lon="14.3142117"><ele>21.0</ele><time>2026-03-28T11:26:14.413Z</time></trkpt><trkpt lat="40.9893467" lon="14.314135"><ele>21.0</ele><time>2026-03-28T11:26:15.413Z</time></trkpt><trkpt lat="40.9892767" lon="14.31406"><ele>21.0</ele><time>2026-03-28T11:26:16.414Z</time></trkpt><trkpt lat="40.98921" lon="14.3139833"><ele>21.0</ele><time>2026-03-28T11:26:17.413Z</time></trkpt><trkpt lat="40.98914" lon="14.3139083"><ele>21.0</ele><time>2026-03-28T11:26:18.413Z</time></trkpt><trkpt lat="40.9890683" lon="14.3138317"><ele>21.0</ele><time>2026-03-28T11:26:19.413Z</time></trkpt><trkpt lat="40.9889967" lon="14.31376"><ele>21.0</ele><time>2026-03-28T11:26:20.413Z</time></trkpt><trkpt lat="40.9889217" lon="14.3136867"><ele>21.0</ele><time>2026-03-28T11:26:21.415Z</time></trkpt><trkpt lat="40.98885" lon="14.3136117"><ele>21.0</ele><time>2026-03-28T11:26:22.416Z</time></trkpt><trkpt lat="40.9887783" lon="14.3135333"><ele>21.0</ele><time>2026-03-28T11:26:23.414Z</time></trkpt><trkpt lat="40.9887083" lon="14.3134583"><ele>21.0</ele><time>2026-03-28T11:26:24.413Z</time></trkpt><trkpt lat="40.9886367" lon="14.3133867"><ele>21.0</ele><time>2026-03-28T11:26:25.413Z</time></trkpt><trkpt lat="40.98856" lon="14.3133167"><ele>21.0</ele><time>2026-03-28T11:26:26.412Z</time></trkpt><trkpt lat="40.9884867" lon="14.3132517"><ele>21.0</ele><time>2026-03-28T11:26:27.414Z</time></trkpt><trkpt lat="40.9884117" lon="14.313185"><ele>21.0</ele><time>2026-03-28T11:26:28.413Z</time></trkpt><trkpt lat="40.98834" lon="14.3131133"><ele>21.0</ele><time>2026-03-28T11:26:29.414Z</time></trkpt><trkpt lat="40.9882683" lon="14.313045"><ele>21.0</ele><time>2026-03-28T11:26:30.413Z</time></trkpt><trkpt lat="40.9881967" lon="14.312975"><ele>21.0</ele><time>2026-03-28T11:26:31.413Z</time></trkpt><trkpt lat="40.9881283" lon="14.3129033"><ele>21.0</ele><time>2026-03-28T11:26:32.414Z</time></trkpt><trkpt lat="40.9880583" lon="14.3128333"><ele>20.666666666666668</ele><time>2026-03-28T11:26:33.413Z</time></trkpt><trkpt lat="40.9879883" lon="14.3127617"><ele>20.333333333333332</ele><time>2026-03-28T11:26:34.412Z</time></trkpt><trkpt lat="40.9879167" lon="14.3126917"><ele>20.0</ele><time>2026-03-28T11:26:35.414Z</time></trkpt><trkpt lat="40.9878417" lon="14.3126233"><ele>19.666666666666664</ele><time>2026-03-28T11:26:36.413Z</time></trkpt><trkpt lat="40.9877717" lon="14.3125567"><ele>19.333333333333332</ele><time>2026-03-28T11:26:37.415Z</time></trkpt><trkpt lat="40.9877033" lon="14.3124867"><ele>19.0</ele><time>2026-03-28T11:26:38.413Z</time></trkpt><trkpt lat="40.9876333" lon="14.31242"><ele>19.0</ele><time>2026-03-28T11:26:39.414Z</time></trkpt><trkpt lat="40.9875617" lon="14.3123567"><ele>19.0</ele><time>2026-03-28T11:26:40.414Z</time></trkpt><trkpt lat="40.9874933" lon="14.31229"><ele>19.0</ele><time>2026-03-28T11:26:41.413Z</time></trkpt><trkpt lat="40.9874267" lon="14.3122233"><ele>19.0</ele><time>2026-03-28T11:26:42.413Z</time></trkpt><trkpt lat="40.9873617" lon="14.312155"><ele>19.0</ele><time>2026-03-28T11:26:43.414Z</time></trkpt><trkpt lat="40.9872917" lon="14.3120883"><ele>19.0</ele><time>2026-03-28T11:26:44.413Z</time></trkpt><trkpt lat="40.9872267" lon="14.31202"><ele>19.166666666666664</ele><time>2026-03-28T11:26:45.413Z</time></trkpt><trkpt lat="40.9871617" lon="14.3119517"><ele>19.333333333333332</ele><time>2026-03-28T11:26:46.413Z</time></trkpt><trkpt lat="40.9870933" lon="14.3118867"><ele>19.5</ele><time>2026-03-28T11:26:47.414Z</time></trkpt><trkpt lat="40.9870217" lon="14.3118333"><ele>19.666666666666668</ele><time>2026-03-28T11:26:48.414Z</time></trkpt><trkpt lat="40.9869483" lon="14.3117867"><ele>19.833333333333336</ele><time>2026-03-28T11:26:49.413Z</time></trkpt><trkpt lat="40.98687" lon="14.3117517"><ele>20.0</ele><time>2026-03-28T11:26:50.414Z</time></trkpt><trkpt lat="40.986785" lon="14.3117217"><ele>20.0</ele><time>2026-03-28T11:26:51.414Z</time></trkpt><trkpt lat="40.9867017" lon="14.3117067"><ele>20.0</ele><time>2026-03-28T11:26:52.413Z</time></trkpt><trkpt lat="40.9866267" lon="14.3116933"><ele>20.0</ele><time>2026-03-28T11:26:53.413Z</time></trkpt><trkpt lat="40.986545" lon="14.31168"><ele>20.0</ele><time>2026-03-28T11:26:54.413Z</time></trkpt><trkpt lat="40.9864617" lon="14.311665"><ele>20.0</ele><time>2026-03-28T11:26:55.414Z</time></trkpt><trkpt lat="40.9863767" lon="14.3116533"><ele>20.0</ele><time>2026-03-28T11:26:56.412Z</time></trkpt><trkpt lat="40.98629" lon="14.3116433"><ele>20.0</ele><time>2026-03-28T11:26:57.413Z</time></trkpt><trkpt lat="40.9862017" lon="14.3116317"><ele>20.0</ele><time>2026-03-28T11:26:58.414Z</time></trkpt><trkpt lat="40.9861117" lon="14.31162"><ele>20.0</ele><time>2026-03-28T11:26:59.414Z</time></trkpt><trkpt lat="40.98602" lon="14.311605"><ele>20.0</ele><time>2026-03-28T11:27:00.415Z</time></trkpt><trkpt lat="40.9859333" lon="14.3115933"><ele>20.0</ele><time>2026-03-28T11:27:01.415Z</time></trkpt><trkpt lat="40.9858533" lon="14.3115767"><ele>20.0</ele><time>2026-03-28T11:27:02.414Z</time></trkpt><trkpt lat="40.9857717" lon="14.31156"><ele>20.0</ele><time>2026-03-28T11:27:03.413Z</time></trkpt><trkpt lat="40.9856883" lon="14.311545"><ele>20.0</ele><time>2026-03-28T11:27:04.417Z</time></trkpt><trkpt lat="40.985605" lon="14.3115283"><ele>20.0</ele><time>2026-03-28T11:27:05.413Z</time></trkpt><trkpt lat="40.9855167" lon="14.3115133"><ele>20.0</ele><time>2026-03-28T11:27:06.413Z</time></trkpt><trkpt lat="40.985435" lon="14.3115"><ele>20.0</ele><time>2026-03-28T11:27:07.414Z</time></trkpt><trkpt lat="40.9853567" lon="14.31149"><ele>20.0</ele><time>2026-03-28T11:27:08.413Z</time></trkpt><trkpt lat="40.98527" lon="14.3114933"><ele>20.0</ele><time>2026-03-28T11:27:09.414Z</time></trkpt><trkpt lat="40.9851867" lon="14.311505"><ele>20.0</ele><time>2026-03-28T11:27:10.413Z</time></trkpt><trkpt lat="40.9851" lon="14.3115217"><ele>20.0</ele><time>2026-03-28T11:27:11.414Z</time></trkpt><trkpt lat="40.98502" lon="14.3115433"><ele>20.0</ele><time>2026-03-28T11:27:12.413Z</time></trkpt><trkpt lat="40.984945" lon="14.311575"><ele>20.0</ele><time>2026-03-28T11:27:13.413Z</time></trkpt><trkpt lat="40.98487" lon="14.3116117"><ele>20.0</ele><time>2026-03-28T11:27:14.414Z</time></trkpt><trkpt lat="40.9847983" lon="14.3116517"><ele>20.166666666666668</ele><time>2026-03-28T11:27:15.413Z</time></trkpt><trkpt lat="40.9847233" lon="14.3116933"><ele>20.333333333333336</ele><time>2026-03-28T11:27:16.413Z</time></trkpt><trkpt lat="40.9846467" lon="14.3117317"><ele>20.5</ele><time>2026-03-28T11:27:17.414Z</time></trkpt><trkpt lat="40.984565" lon="14.31177"><ele>20.666666666666668</ele><time>2026-03-28T11:27:18.413Z</time></trkpt><trkpt lat="40.984485" lon="14.3118117"><ele>20.833333333333332</ele><time>2026-03-28T11:27:19.413Z</time></trkpt><trkpt lat="40.9844067" lon="14.3118517"><ele>21.0</ele><time>2026-03-28T11:27:20.412Z</time></trkpt><trkpt lat="40.98433" lon="14.3118933"><ele>21.0</ele><time>2026-03-28T11:27:21.413Z</time></trkpt><trkpt lat="40.9842533" lon="14.3119317"><ele>21.0</ele><time>2026-03-28T11:27:22.413Z</time></trkpt><trkpt lat="40.9841767" lon="14.3119683"><ele>21.0</ele><time>2026-03-28T11:27:23.414Z</time></trkpt><trkpt lat="40.9841017" lon="14.3120067"><ele>21.0</ele><time>2026-03-28T11:27:24.413Z</time></trkpt><trkpt lat="40.984025" lon="14.3120433"><ele>21.0</ele><time>2026-03-28T11:27:25.414Z</time></trkpt><trkpt lat="40.9839517" lon="14.3120783"><ele>21.0</ele><time>2026-03-28T11:27:26.413Z</time></trkpt><trkpt lat="40.9838733" lon="14.3121133"><ele>20.833333333333332</ele><time>2026-03-28T11:27:27.416Z</time></trkpt><trkpt lat="40.9837933" lon="14.3121483"><ele>20.666666666666668</ele><time>2026-03-28T11:27:28.413Z</time></trkpt><trkpt lat="40.9837117" lon="14.3121883"><ele>20.5</ele><time>2026-03-28T11:27:29.413Z</time></trkpt><trkpt lat="40.9836367" lon="14.31223"><ele>20.333333333333336</ele><time>2026-03-28T11:27:30.413Z</time></trkpt><trkpt lat="40.9835617" lon="14.3122683"><ele>20.166666666666668</ele><time>2026-03-28T11:27:31.414Z</time></trkpt><trkpt lat="40.9834867" lon="14.3123083"><ele>20.0</ele><time>2026-03-28T11:27:32.413Z</time></trkpt><trkpt lat="40.9834083" lon="14.3123483"><ele>20.0</ele><time>2026-03-28T11:27:33.413Z</time></trkpt><trkpt lat="40.9833283" lon="14.3123883"><ele>20.0</ele><time>2026-03-28T11:27:34.413Z</time></trkpt><trkpt lat="40.983245" lon="14.3124217"><ele>20.0</ele><time>2026-03-28T11:27:35.413Z</time></trkpt><trkpt lat="40.9831633" lon="14.3124417"><ele>20.0</ele><time>2026-03-28T11:27:36.413Z</time></trkpt><trkpt lat="40.98308" lon="14.3124583"><ele>20.0</ele><time>2026-03-28T11:27:37.414Z</time></trkpt><trkpt lat="40.9829933" lon="14.31247"><ele>20.0</ele><time>2026-03-28T11:27:38.413Z</time></trkpt><trkpt lat="40.9829117" lon="14.3124717"><ele>20.0</ele><time>2026-03-28T11:27:39.413Z</time></trkpt><trkpt lat="40.9828317" lon="14.3124733"><ele>20.0</ele><time>2026-03-28T11:27:40.413Z</time></trkpt><trkpt lat="40.982745" lon="14.3124783"><ele>20.0</ele><time>2026-03-28T11:27:41.414Z</time></trkpt><trkpt lat="40.98266" lon="14.31248"><ele>20.0</ele><time>2026-03-28T11:27:42.413Z</time></trkpt><trkpt lat="40.9825717" lon="14.3124833"><ele>20.0</ele><time>2026-03-28T11:27:43.413Z</time></trkpt><trkpt lat="40.9824833" lon="14.312485"><ele>20.0</ele><time>2026-03-28T11:27:44.417Z</time></trkpt><trkpt lat="40.982395" lon="14.3124867"><ele>20.0</ele><time>2026-03-28T11:27:45.414Z</time></trkpt><trkpt lat="40.9823067" lon="14.31249"><ele>20.0</ele><time>2026-03-28T11:27:46.414Z</time></trkpt><trkpt lat="40.9822233" lon="14.31249"><ele>20.0</ele><time>2026-03-28T11:27:47.414Z</time></trkpt><trkpt lat="40.9821383" lon="14.3124917"><ele>20.0</ele><time>2026-03-28T11:27:48.412Z</time></trkpt><trkpt lat="40.9820517" lon="14.3124967"><ele>20.0</ele><time>2026-03-28T11:27:49.414Z</time></trkpt><trkpt lat="40.9819617" lon="14.3125017"><ele>20.0</ele><time>2026-03-28T11:27:50.414Z</time></trkpt><trkpt lat="40.9818783" lon="14.3125"><ele>20.0</ele><time>2026-03-28T11:27:51.413Z</time></trkpt><trkpt lat="40.981795" lon="14.312495"><ele>20.0</ele><time>2026-03-28T11:27:52.414Z</time></trkpt><trkpt lat="40.9817117" lon="14.3124917"><ele>20.0</ele><time>2026-03-28T11:27:53.415Z</time></trkpt><trkpt lat="40.9816333" lon="14.3124833"><ele>20.0</ele><time>2026-03-28T11:27:54.413Z</time></trkpt><trkpt lat="40.9815533" lon="14.3124717"><ele>20.0</ele><time>2026-03-28T11:27:55.414Z</time></trkpt><trkpt lat="40.9814683" lon="14.31245"><ele>20.0</ele><time>2026-03-28T11:27:56.414Z</time></trkpt><trkpt lat="40.9813867" lon="14.31242"><ele>20.166666666666668</ele><time>2026-03-28T11:27:57.414Z</time></trkpt><trkpt lat="40.9813067" lon="14.3123833"><ele>20.333333333333336</ele><time>2026-03-28T11:27:58.414Z</time></trkpt><trkpt lat="40.9812283" lon="14.3123467"><ele>20.5</ele><time>2026-03-28T11:27:59.414Z</time></trkpt><trkpt lat="40.9811467" lon="14.3123083"><ele>20.666666666666668</ele><time>2026-03-28T11:28:00.413Z</time></trkpt><trkpt lat="40.9810667" lon="14.31227"><ele>20.833333333333332</ele><time>2026-03-28T11:28:01.413Z</time></trkpt><trkpt lat="40.98099" lon="14.3122267"><ele>21.0</ele><time>2026-03-28T11:28:02.414Z</time></trkpt><trkpt lat="40.98091" lon="14.3121867"><ele>21.333333333333332</ele><time>2026-03-28T11:28:03.414Z</time></trkpt><trkpt lat="40.9808333" lon="14.31214"><ele>21.666666666666668</ele><time>2026-03-28T11:28:04.414Z</time></trkpt><trkpt lat="40.980755" lon="14.3120933"><ele>22.0</ele><time>2026-03-28T11:28:05.413Z</time></trkpt><trkpt lat="40.980675" lon="14.312045"><ele>22.333333333333336</ele><time>2026-03-28T11:28:06.414Z</time></trkpt><trkpt lat="40.9805967" lon="14.3119967"><ele>22.666666666666668</ele><time>2026-03-28T11:28:07.414Z</time></trkpt><trkpt lat="40.9805167" lon="14.3119467"><ele>23.0</ele><time>2026-03-28T11:28:08.414Z</time></trkpt><trkpt lat="40.9804283" lon="14.3118967"><ele>23.0</ele><time>2026-03-28T11:28:09.414Z</time></trkpt><trkpt lat="40.9803567" lon="14.3118467"><ele>23.0</ele><time>2026-03-28T11:28:10.413Z</time></trkpt><trkpt lat="40.9802783" lon="14.3117983"><ele>23.0</ele><time>2026-03-28T11:28:11.414Z</time></trkpt><trkpt lat="40.9802067" lon="14.3117433"><ele>23.0</ele><time>2026-03-28T11:28:12.414Z</time></trkpt><trkpt lat="40.9801267" lon="14.3116917"><ele>23.0</ele><time>2026-03-28T11:28:13.415Z</time></trkpt><trkpt lat="40.98005" lon="14.311635"><ele>23.0</ele><time>2026-03-28T11:28:14.413Z</time></trkpt><trkpt lat="40.9799733" lon="14.311575"><ele>22.666666666666668</ele><time>2026-03-28T11:28:15.413Z</time></trkpt><trkpt lat="40.9799033" lon="14.311515"><ele>22.333333333333336</ele><time>2026-03-28T11:28:16.414Z</time></trkpt><trkpt lat="40.9798283" lon="14.3114483"><ele>22.0</ele><time>2026-03-28T11:28:17.414Z</time></trkpt><trkpt lat="40.9797517" lon="14.3113833"><ele>21.666666666666668</ele><time>2026-03-28T11:28:18.416Z</time></trkpt><trkpt lat="40.9796817" lon="14.3113183"><ele>21.333333333333332</ele><time>2026-03-28T11:28:19.414Z</time></trkpt><trkpt lat="40.97961" lon="14.3112517"><ele>21.0</ele><time>2026-03-28T11:28:20.413Z</time></trkpt><trkpt lat="40.9795383" lon="14.311185"><ele>21.0</ele><time>2026-03-28T11:28:21.413Z</time></trkpt><trkpt lat="40.9794667" lon="14.31112"><ele>21.0</ele><time>2026-03-28T11:28:22.414Z</time></trkpt><trkpt lat="40.9793883" lon="14.31105"><ele>21.0</ele><time>2026-03-28T11:28:23.414Z</time></trkpt><trkpt lat="40.9793167" lon="14.3109833"><ele>21.0</ele><time>2026-03-28T11:28:24.414Z</time></trkpt><trkpt lat="40.9792417" lon="14.3109167"><ele>21.0</ele><time>2026-03-28T11:28:25.414Z</time></trkpt><trkpt lat="40.979165" lon="14.3108517"><ele>21.0</ele><time>2026-03-28T11:28:26.414Z</time></trkpt><trkpt lat="40.97909" lon="14.3107867"><ele>21.0</ele><time>2026-03-28T11:28:27.413Z</time></trkpt><trkpt lat="40.979015" lon="14.3107217"><ele>21.0</ele><time>2026-03-28T11:28:28.415Z</time></trkpt><trkpt lat="40.97894" lon="14.31066"><ele>21.0</ele><time>2026-03-28T11:28:29.415Z</time></trkpt><trkpt lat="40.9788667" lon="14.310595"><ele>21.0</ele><time>2026-03-28T11:28:30.413Z</time></trkpt><trkpt lat="40.9787917" lon="14.31052"><ele>20.8</ele><time>2026-03-28T11:28:31.414Z</time></trkpt><trkpt lat="40.9787167" lon="14.3104483"><ele>20.6</ele><time>2026-03-28T11:28:32.415Z</time></trkpt><trkpt lat="40.9786433" lon="14.3103767"><ele>20.4</ele><time>2026-03-28T11:28:33.414Z</time></trkpt><trkpt lat="40.97857" lon="14.3103033"><ele>20.2</ele><time>2026-03-28T11:28:34.414Z</time></trkpt><trkpt lat="40.9784933" lon="14.3102317"><ele>20.0</ele><time>2026-03-28T11:28:35.414Z</time></trkpt><trkpt lat="40.9784133" lon="14.3101617"><ele>20.0</ele><time>2026-03-28T11:28:36.413Z</time></trkpt><trkpt lat="40.9783383" lon="14.3100933"><ele>20.0</ele><time>2026-03-28T11:28:37.414Z</time></trkpt><trkpt lat="40.978265" lon="14.3100183"><ele>20.0</ele><time>2026-03-28T11:28:38.414Z</time></trkpt><trkpt lat="40.97819" lon="14.3099417"><ele>20.0</ele><time>2026-03-28T11:28:39.414Z</time></trkpt><trkpt lat="40.97812" lon="14.3098667"><ele>20.0</ele><time>2026-03-28T11:28:40.414Z</time></trkpt><trkpt lat="40.9780533" lon="14.30979"><ele>20.333333333333336</ele><time>2026-03-28T11:28:41.414Z</time></trkpt><trkpt lat="40.9779883" lon="14.3097117"><ele>20.666666666666668</ele><time>2026-03-28T11:28:42.414Z</time></trkpt><trkpt lat="40.9779233" lon="14.3096317"><ele>21.0</ele><time>2026-03-28T11:28:43.416Z</time></trkpt><trkpt lat="40.97786" lon="14.309545"><ele>21.333333333333332</ele><time>2026-03-28T11:28:44.414Z</time></trkpt><trkpt lat="40.977795" lon="14.3094617"><ele>21.666666666666664</ele><time>2026-03-28T11:28:45.416Z</time></trkpt><trkpt lat="40.9777317" lon="14.3093767"><ele>22.0</ele><time>2026-03-28T11:28:46.415Z</time></trkpt><trkpt lat="40.9776667" lon="14.3092967"><ele>22.0</ele><time>2026-03-28T11:28:47.414Z</time></trkpt><trkpt lat="40.9776" lon="14.3092183"><ele>22.0</ele><time>2026-03-28T11:28:48.415Z</time></trkpt><trkpt lat="40.97753" lon="14.3091467"><ele>22.0</ele><time>2026-03-28T11:28:49.414Z</time></trkpt><trkpt lat="40.9774533" lon="14.3090817"><ele>22.0</ele><time>2026-03-28T11:28:50.414Z</time></trkpt><trkpt lat="40.9773733" lon="14.3090333"><ele>22.0</ele><time>2026-03-28T11:28:51.417Z</time></trkpt><trkpt lat="40.97729" lon="14.3089917"><ele>22.0</ele><time>2026-03-28T11:28:52.414Z</time></trkpt><trkpt lat="40.9772017" lon="14.3089617"><ele>21.6</ele><time>2026-03-28T11:28:53.415Z</time></trkpt><trkpt lat="40.9771067" lon="14.308955"><ele>21.200000000000003</ele><time>2026-03-28T11:28:54.414Z</time></trkpt><trkpt lat="40.977015" lon="14.3089667"><ele>20.8</ele><time>2026-03-28T11:28:55.414Z</time></trkpt><trkpt lat="40.97692" lon="14.3089933"><ele>20.4</ele><time>2026-03-28T11:28:56.414Z</time></trkpt><trkpt lat="40.97682" lon="14.30903"><ele>20.0</ele><time>2026-03-28T11:28:57.415Z</time></trkpt><trkpt lat="40.9767167" lon="14.3090767"><ele>20.4</ele><time>2026-03-28T11:28:58.414Z</time></trkpt><trkpt lat="40.9766167" lon="14.3091333"><ele>20.8</ele><time>2026-03-28T11:28:59.414Z</time></trkpt><trkpt lat="40.976515" lon="14.309195"><ele>21.200000000000003</ele><time>2026-03-28T11:29:00.414Z</time></trkpt><trkpt lat="40.9764217" lon="14.3092533"><ele>21.6</ele><time>2026-03-28T11:29:01.414Z</time></trkpt><trkpt lat="40.9763217" lon="14.3093117"><ele>22.0</ele><time>2026-03-28T11:29:02.414Z</time></trkpt><trkpt lat="40.9762233" lon="14.309365"><ele>22.0</ele><time>2026-03-28T11:29:03.413Z</time></trkpt><trkpt lat="40.9761217" lon="14.3094233"><ele>22.0</ele><time>2026-03-28T11:29:04.414Z</time></trkpt><trkpt lat="40.9760167" lon="14.3094817"><ele>22.0</ele><time>2026-03-28T11:29:05.414Z</time></trkpt><trkpt lat="40.9759117" lon="14.30954"><ele>22.0</ele><time>2026-03-28T11:29:06.414Z</time></trkpt><trkpt lat="40.97581" lon="14.309595"><ele>22.0</ele><time>2026-03-28T11:29:07.414Z</time></trkpt><trkpt lat="40.97571" lon="14.309645"><ele>22.0</ele><time>2026-03-28T11:29:08.414Z</time></trkpt><trkpt lat="40.9755933" lon="14.3096883"><ele>22.0</ele><time>2026-03-28T11:29:09.415Z</time></trkpt><trkpt lat="40.9755" lon="14.3097233"><ele>22.0</ele><time>2026-03-28T11:29:10.414Z</time></trkpt><trkpt lat="40.9754017" lon="14.3097517"><ele>22.0</ele><time>2026-03-28T11:29:11.415Z</time></trkpt><trkpt lat="40.9753083" lon="14.3097683"><ele>22.0</ele><time>2026-03-28T11:29:12.414Z</time></trkpt><trkpt lat="40.975205" lon="14.3097767"><ele>22.0</ele><time>2026-03-28T11:29:13.414Z</time></trkpt><trkpt lat="40.9751067" lon="14.309785"><ele>22.0</ele><time>2026-03-28T11:29:14.414Z</time></trkpt><trkpt lat="40.97502" lon="14.3097867"><ele>22.0</ele><time>2026-03-28T11:29:15.415Z</time></trkpt><trkpt lat="40.9749317" lon="14.309785"><ele>22.0</ele><time>2026-03-28T11:29:16.415Z</time></trkpt><trkpt lat="40.9748467" lon="14.3097867"><ele>22.0</ele><time>2026-03-28T11:29:17.414Z</time></trkpt><trkpt lat="40.97476" lon="14.309795"><ele>22.0</ele><time>2026-03-28T11:29:18.413Z</time></trkpt><trkpt lat="40.9746767" lon="14.3098017"><ele>22.0</ele><time>2026-03-28T11:29:19.414Z</time></trkpt><trkpt lat="40.9745867" lon="14.3098083"><ele>22.0</ele><time>2026-03-28T11:29:20.415Z</time></trkpt><trkpt lat="40.9745" lon="14.309815"><ele>22.0</ele><time>2026-03-28T11:29:21.413Z</time></trkpt><trkpt lat="40.974415" lon="14.3098233"><ele>22.0</ele><time>2026-03-28T11:29:22.414Z</time></trkpt><trkpt lat="40.97433" lon="14.30983"><ele>22.0</ele><time>2026-03-28T11:29:23.414Z</time></trkpt><trkpt lat="40.974235" lon="14.30984"><ele>22.0</ele><time>2026-03-28T11:29:24.414Z</time></trkpt><trkpt lat="40.9741483" lon="14.3098417"><ele>22.0</ele><time>2026-03-28T11:29:25.413Z</time></trkpt><trkpt lat="40.974065" lon="14.3098417"><ele>22.0</ele><time>2026-03-28T11:29:26.415Z</time></trkpt><trkpt lat="40.97398" lon="14.3098433"><ele>22.0</ele><time>2026-03-28T11:29:27.414Z</time></trkpt><trkpt lat="40.9738917" lon="14.3098467"><ele>22.0</ele><time>2026-03-28T11:29:28.413Z</time></trkpt><trkpt lat="40.97381" lon="14.3098467"><ele>22.0</ele><time>2026-03-28T11:29:29.414Z</time></trkpt><trkpt lat="40.9737317" lon="14.3098417"><ele>22.0</ele><time>2026-03-28T11:29:30.414Z</time></trkpt><trkpt lat="40.97366" lon="14.3098283"><ele>22.0</ele><time>2026-03-28T11:29:31.414Z</time></trkpt><trkpt lat="40.973585" lon="14.30981"><ele>22.0</ele><time>2026-03-28T11:29:32.414Z</time></trkpt><trkpt lat="40.9735083" lon="14.3097917"><ele>22.0</ele><time>2026-03-28T11:29:33.414Z</time></trkpt><trkpt lat="40.9734233" lon="14.3097733"><ele>22.0</ele><time>2026-03-28T11:29:34.414Z</time></trkpt><trkpt lat="40.9733333" lon="14.3097583"><ele>22.0</ele><time>2026-03-28T11:29:35.414Z</time></trkpt><trkpt lat="40.9732417" lon="14.3097467"><ele>22.0</ele><time>2026-03-28T11:29:36.414Z</time></trkpt><trkpt lat="40.9731567" lon="14.3097233"><ele>22.0</ele><time>2026-03-28T11:29:37.415Z</time></trkpt><trkpt lat="40.97309" lon="14.309675"><ele>22.0</ele><time>2026-03-28T11:29:38.414Z</time></trkpt><trkpt lat="40.9730217" lon="14.3096383"><ele>22.0</ele><time>2026-03-28T11:29:39.414Z</time></trkpt><trkpt lat="40.972955" lon="14.3095933"><ele>22.0</ele><time>2026-03-28T11:29:40.414Z</time></trkpt><trkpt lat="40.9728867" lon="14.309555"><ele>22.0</ele><time>2026-03-28T11:29:41.414Z</time></trkpt><trkpt lat="40.97281" lon="14.3095233"><ele>22.0</ele><time>2026-03-28T11:29:42.413Z</time></trkpt><trkpt lat="40.9727333" lon="14.3094967"><ele>22.0</ele><time>2026-03-28T11:29:43.415Z</time></trkpt><trkpt lat="40.97266" lon="14.3094667"><ele>22.0</ele><time>2026-03-28T11:29:44.414Z</time></trkpt><trkpt lat="40.9725867" lon="14.309435"><ele>22.0</ele><time>2026-03-28T11:29:45.413Z</time></trkpt><trkpt lat="40.9725133" lon="14.3094"><ele>22.0</ele><time>2026-03-28T11:29:46.414Z</time></trkpt><trkpt lat="40.9724367" lon="14.309375"><ele>22.0</ele><time>2026-03-28T11:29:47.414Z</time></trkpt><trkpt lat="40.9723717" lon="14.30935"><ele>22.0</ele><time>2026-03-28T11:29:48.415Z</time></trkpt><trkpt lat="40.9723" lon="14.3093217"><ele>22.142857142857142</ele><time>2026-03-28T11:29:49.414Z</time></trkpt><trkpt lat="40.9722317" lon="14.3092933"><ele>22.285714285714285</ele><time>2026-03-28T11:29:50.414Z</time></trkpt><trkpt lat="40.972165" lon="14.3092633"><ele>22.42857142857143</ele><time>2026-03-28T11:29:51.413Z</time></trkpt><trkpt lat="40.9720983" lon="14.3092367"><ele>22.57142857142857</ele><time>2026-03-28T11:29:52.415Z</time></trkpt><trkpt lat="40.9720317" lon="14.3092183"><ele>22.71428571428571</ele><time>2026-03-28T11:29:53.414Z</time></trkpt><trkpt lat="40.9719667" lon="14.3091967"><ele>22.857142857142858</ele><time>2026-03-28T11:29:54.414Z</time></trkpt><trkpt lat="40.9719" lon="14.3091717"><ele>23.0</ele><time>2026-03-28T11:29:55.415Z</time></trkpt><trkpt lat="40.9718383" lon="14.3091433"><ele>23.0</ele><time>2026-03-28T11:29:56.414Z</time></trkpt><trkpt lat="40.9717767" lon="14.309115"><ele>23.0</ele><time>2026-03-28T11:29:57.414Z</time></trkpt><trkpt lat="40.97172" lon="14.3090733"><ele>23.0</ele><time>2026-03-28T11:29:58.414Z</time></trkpt><trkpt lat="40.9716617" lon="14.309035"><ele>23.0</ele><time>2026-03-28T11:29:59.415Z</time></trkpt><trkpt lat="40.971605" lon="14.308995"><ele>23.0</ele><time>2026-03-28T11:30:00.414Z</time></trkpt><trkpt lat="40.971545" lon="14.30896"><ele>23.0</ele><time>2026-03-28T11:30:01.417Z</time></trkpt><trkpt lat="40.9714833" lon="14.30893"><ele>23.0</ele><time>2026-03-28T11:30:02.414Z</time></trkpt><trkpt lat="40.9714217" lon="14.3088983"><ele>23.166666666666668</ele><time>2026-03-28T11:30:03.414Z</time></trkpt><trkpt lat="40.9713617" lon="14.3088667"><ele>23.333333333333336</ele><time>2026-03-28T11:30:04.414Z</time></trkpt><trkpt lat="40.971305" lon="14.3088267"><ele>23.5</ele><time>2026-03-28T11:30:05.414Z</time></trkpt><trkpt lat="40.9712467" lon="14.3087817"><ele>23.666666666666668</ele><time>2026-03-28T11:30:06.415Z</time></trkpt><trkpt lat="40.9711367" lon="14.3087"><ele>23.833333333333332</ele><time>2026-03-28T11:30:08.414Z</time></trkpt><trkpt lat="40.9710283" lon="14.308635"><ele>24.0</ele><time>2026-03-28T11:30:10.414Z</time></trkpt><trkpt lat="40.970915" lon="14.30858"><ele>23.75</ele><time>2026-03-28T11:30:12.414Z</time></trkpt><trkpt lat="40.9708067" lon="14.3085283"><ele>23.5</ele><time>2026-03-28T11:30:14.414Z</time></trkpt><trkpt lat="40.9706933" lon="14.3084783"><ele>23.25</ele><time>2026-03-28T11:30:16.413Z</time></trkpt><trkpt lat="40.97058" lon="14.3084267"><ele>23.0</ele><time>2026-03-28T11:30:18.414Z</time></trkpt><trkpt lat="40.9704617" lon="14.3083783"><ele>23.0</ele><time>2026-03-28T11:30:20.414Z</time></trkpt><trkpt lat="40.9703983" lon="14.3083583"><ele>23.0</ele><time>2026-03-28T11:30:21.414Z</time></trkpt><trkpt lat="40.9702733" lon="14.3083233"><ele>23.0</ele><time>2026-03-28T11:30:23.415Z</time></trkpt><trkpt lat="40.9701567" lon="14.30828"><ele>23.0</ele><time>2026-03-28T11:30:25.417Z</time></trkpt><trkpt lat="40.97009" lon="14.3082683"><ele>23.0</ele><time>2026-03-28T11:30:26.414Z</time></trkpt><trkpt lat="40.97002" lon="14.3082583"><ele>23.142857142857142</ele><time>2026-03-28T11:30:27.414Z</time></trkpt><trkpt lat="40.969955" lon="14.3082483"><ele>23.285714285714285</ele><time>2026-03-28T11:30:28.414Z</time></trkpt><trkpt lat="40.9698917" lon="14.30824"><ele>23.428571428571427</ele><time>2026-03-28T11:30:29.414Z</time></trkpt><trkpt lat="40.9698267" lon="14.3082267"><ele>23.57142857142857</ele><time>2026-03-28T11:30:30.414Z</time></trkpt><trkpt lat="40.9697583" lon="14.308215"><ele>23.714285714285715</ele><time>2026-03-28T11:30:31.415Z</time></trkpt><trkpt lat="40.969685" lon="14.3082067"><ele>23.857142857142854</ele><time>2026-03-28T11:30:32.414Z</time></trkpt><trkpt lat="40.9696067" lon="14.308195"><ele>24.0</ele><time>2026-03-28T11:30:33.413Z</time></trkpt><trkpt lat="40.9695333" lon="14.3081867"><ele>23.999999999999996</ele><time>2026-03-28T11:30:34.414Z</time></trkpt><trkpt lat="40.9694617" lon="14.3081783"><ele>24.0</ele><time>2026-03-28T11:30:35.414Z</time></trkpt><trkpt lat="40.9693883" lon="14.3081733"><ele>24.0</ele><time>2026-03-28T11:30:36.414Z</time></trkpt><trkpt lat="40.9693183" lon="14.308165"><ele>24.0</ele><time>2026-03-28T11:30:37.414Z</time></trkpt><trkpt lat="40.9692517" lon="14.3081567"><ele>24.0</ele><time>2026-03-28T11:30:38.414Z</time></trkpt><trkpt lat="40.9691767" lon="14.30815"><ele>23.999999999999996</ele><time>2026-03-28T11:30:39.414Z</time></trkpt><trkpt lat="40.9690983" lon="14.308145"><ele>24.0</ele><time>2026-03-28T11:30:40.414Z</time></trkpt><trkpt lat="40.9690317" lon="14.3081283"><ele>24.166666666666668</ele><time>2026-03-28T11:30:41.415Z</time></trkpt><trkpt lat="40.9689533" lon="14.3081233"><ele>24.333333333333336</ele><time>2026-03-28T11:30:42.414Z</time></trkpt><trkpt lat="40.9688767" lon="14.3081167"><ele>24.5</ele><time>2026-03-28T11:30:43.414Z</time></trkpt><trkpt lat="40.9688033" lon="14.3081117"><ele>24.666666666666668</ele><time>2026-03-28T11:30:44.414Z</time></trkpt><trkpt lat="40.9687333" lon="14.3081033"><ele>24.833333333333336</ele><time>2026-03-28T11:30:45.414Z</time></trkpt><trkpt lat="40.96866" lon="14.3080967"><ele>25.0</ele><time>2026-03-28T11:30:46.414Z</time></trkpt><trkpt lat="40.96858" lon="14.3080867"><ele>25.000000000000004</ele><time>2026-03-28T11:30:47.415Z</time></trkpt><trkpt lat="40.96851" lon="14.3080717"><ele>25.0</ele><time>2026-03-28T11:30:48.414Z</time></trkpt><trkpt lat="40.968435" lon="14.3080517"><ele>25.0</ele><time>2026-03-28T11:30:49.415Z</time></trkpt><trkpt lat="40.9683617" lon="14.3080267"><ele>25.0</ele><time>2026-03-28T11:30:50.414Z</time></trkpt><trkpt lat="40.9682967" lon="14.3080033"><ele>25.000000000000004</ele><time>2026-03-28T11:30:51.414Z</time></trkpt><trkpt lat="40.9682233" lon="14.3079833"><ele>25.0</ele><time>2026-03-28T11:30:52.414Z</time></trkpt><trkpt lat="40.9680967" lon="14.30795"><ele>25.25</ele><time>2026-03-28T11:30:54.413Z</time></trkpt><trkpt lat="40.967985" lon="14.307905"><ele>25.5</ele><time>2026-03-28T11:30:56.414Z</time></trkpt><trkpt lat="40.9678817" lon="14.307845"><ele>25.75</ele><time>2026-03-28T11:30:58.414Z</time></trkpt><trkpt lat="40.9677817" lon="14.3077767"><ele>26.0</ele><time>2026-03-28T11:31:00.415Z</time></trkpt><trkpt lat="40.9676817" lon="14.30772"><ele>25.999999999999996</ele><time>2026-03-28T11:31:02.415Z</time></trkpt><trkpt lat="40.967575" lon="14.30768"><ele>26.0</ele><time>2026-03-28T11:31:04.414Z</time></trkpt><trkpt lat="40.967515" lon="14.30765"><ele>26.0</ele><time>2026-03-28T11:31:05.414Z</time></trkpt><trkpt lat="40.9674517" lon="14.307615"><ele>26.0</ele><time>2026-03-28T11:31:06.414Z</time></trkpt><trkpt lat="40.96738" lon="14.30759"><ele>25.999999999999996</ele><time>2026-03-28T11:31:07.414Z</time></trkpt><trkpt lat="40.9673083" lon="14.3075683"><ele>26.0</ele><time>2026-03-28T11:31:08.414Z</time></trkpt><trkpt lat="40.96724" lon="14.3075417"><ele>25.71428571428571</ele><time>2026-03-28T11:31:09.415Z</time></trkpt><trkpt lat="40.9671733" lon="14.30751"><ele>25.42857142857143</ele><time>2026-03-28T11:31:10.414Z</time></trkpt><trkpt lat="40.9671083" lon="14.3074783"><ele>25.142857142857142</ele><time>2026-03-28T11:31:11.415Z</time></trkpt><trkpt lat="40.9670367" lon="14.307445"><ele>24.857142857142854</ele><time>2026-03-28T11:31:12.414Z</time></trkpt><trkpt lat="40.966965" lon="14.3074117"><ele>24.57142857142857</ele><time>2026-03-28T11:31:13.415Z</time></trkpt><trkpt lat="40.9668983" lon="14.3073817"><ele>24.285714285714285</ele><time>2026-03-28T11:31:14.416Z</time></trkpt><trkpt lat="40.9668283" lon="14.3073567"><ele>24.0</ele><time>2026-03-28T11:31:15.415Z</time></trkpt><trkpt lat="40.966765" lon="14.3073283"><ele>24.0</ele><time>2026-03-28T11:31:16.414Z</time></trkpt><trkpt lat="40.9667083" lon="14.30729"><ele>24.0</ele><time>2026-03-28T11:31:17.418Z</time></trkpt><trkpt lat="40.9666483" lon="14.307255"><ele>24.0</ele><time>2026-03-28T11:31:18.415Z</time></trkpt><trkpt lat="40.9665817" lon="14.3072283"><ele>24.0</ele><time>2026-03-28T11:31:19.414Z</time></trkpt><trkpt lat="40.9664683" lon="14.307165"><ele>24.0</ele><time>2026-03-28T11:31:21.413Z</time></trkpt><trkpt lat="40.9663583" lon="14.30709"><ele>24.0</ele><time>2026-03-28T11:31:23.413Z</time></trkpt><trkpt lat="40.9662367" lon="14.30701"><ele>24.166666666666668</ele><time>2026-03-28T11:31:25.414Z</time></trkpt><trkpt lat="40.9661633" lon="14.3069617"><ele>24.333333333333336</ele><time>2026-03-28T11:31:26.415Z</time></trkpt><trkpt lat="40.96609" lon="14.3069117"><ele>24.5</ele><time>2026-03-28T11:31:27.414Z</time></trkpt><trkpt lat="40.96602" lon="14.3068633"><ele>24.666666666666668</ele><time>2026-03-28T11:31:28.414Z</time></trkpt><trkpt lat="40.9659533" lon="14.30682"><ele>24.833333333333336</ele><time>2026-03-28T11:31:29.415Z</time></trkpt><trkpt lat="40.96585" lon="14.3067733"><ele>25.0</ele><time>2026-03-28T11:31:31.417Z</time></trkpt><trkpt lat="40.9657383" lon="14.30674"><ele>25.0</ele><time>2026-03-28T11:31:33.414Z</time></trkpt><trkpt lat="40.9656367" lon="14.3067483"><ele>25.0</ele><time>2026-03-28T11:31:35.414Z</time></trkpt><trkpt lat="40.9655433" lon="14.3067717"><ele>25.0</ele><time>2026-03-28T11:31:37.414Z</time></trkpt><trkpt lat="40.9654283" lon="14.3068"><ele>25.0</ele><time>2026-03-28T11:31:39.414Z</time></trkpt><trkpt lat="40.9652967" lon="14.3068383"><ele>25.0</ele><time>2026-03-28T11:31:41.414Z</time></trkpt><trkpt lat="40.9651933" lon="14.3068667"><ele>25.0</ele><time>2026-03-28T11:31:43.414Z</time></trkpt><trkpt lat="40.9650883" lon="14.3068917"><ele>25.0</ele><time>2026-03-28T11:31:45.413Z</time></trkpt><trkpt lat="40.96496" lon="14.3069233"><ele>25.0</ele><time>2026-03-28T11:31:47.413Z</time></trkpt><trkpt lat="40.9648767" lon="14.3069383"><ele>25.0</ele><time>2026-03-28T11:31:48.413Z</time></trkpt><trkpt lat="40.964805" lon="14.3069533"><ele>25.0</ele><time>2026-03-28T11:31:49.413Z</time></trkpt><trkpt lat="40.9647367" lon="14.3069683"><ele>25.000000000000004</ele><time>2026-03-28T11:31:50.414Z</time></trkpt><trkpt lat="40.9646683" lon="14.3069867"><ele>25.0</ele><time>2026-03-28T11:31:51.413Z</time></trkpt><trkpt lat="40.9646017" lon="14.3069983"><ele>25.0</ele><time>2026-03-28T11:31:52.413Z</time></trkpt><trkpt lat="40.964485" lon="14.3070067"><ele>25.0</ele><time>2026-03-28T11:31:54.414Z</time></trkpt><trkpt lat="40.9643617" lon="14.30702"><ele>25.000000000000004</ele><time>2026-03-28T11:31:56.413Z</time></trkpt><trkpt lat="40.964295" lon="14.3070267"><ele>25.0</ele><time>2026-03-28T11:31:57.413Z</time></trkpt><trkpt lat="40.964225" lon="14.30704"><ele>24.666666666666668</ele><time>2026-03-28T11:31:58.413Z</time></trkpt><trkpt lat="40.9641567" lon="14.3070517"><ele>24.333333333333336</ele><time>2026-03-28T11:31:59.413Z</time></trkpt><trkpt lat="40.96409" lon="14.3070667"><ele>24.0</ele><time>2026-03-28T11:32:00.414Z</time></trkpt><trkpt lat="40.9640233" lon="14.3070783"><ele>23.666666666666668</ele><time>2026-03-28T11:32:01.414Z</time></trkpt><trkpt lat="40.9638967" lon="14.3070983"><ele>23.333333333333336</ele><time>2026-03-28T11:32:03.412Z</time></trkpt><trkpt lat="40.9638317" lon="14.3071083"><ele>23.0</ele><time>2026-03-28T11:32:04.413Z</time></trkpt><trkpt lat="40.9637117" lon="14.3071183"><ele>23.0</ele><time>2026-03-28T11:32:06.413Z</time></trkpt><trkpt lat="40.9635883" lon="14.3071283"><ele>23.0</ele><time>2026-03-28T11:32:08.415Z</time></trkpt><trkpt lat="40.9635233" lon="14.3071383"><ele>23.0</ele><time>2026-03-28T11:32:09.414Z</time></trkpt><trkpt lat="40.9634033" lon="14.3071533"><ele>23.0</ele><time>2026-03-28T11:32:11.413Z</time></trkpt><trkpt lat="40.96329" lon="14.307165"><ele>23.0</ele><time>2026-03-28T11:32:13.414Z</time></trkpt><trkpt lat="40.963175" lon="14.307175"><ele>23.5</ele><time>2026-03-28T11:32:15.414Z</time></trkpt><trkpt lat="40.9630517" lon="14.3071933"><ele>24.0</ele><time>2026-03-28T11:32:17.413Z</time></trkpt><trkpt lat="40.9629367" lon="14.3072083"><ele>24.5</ele><time>2026-03-28T11:32:19.414Z</time></trkpt><trkpt lat="40.9628283" lon="14.3072167"><ele>25.0</ele><time>2026-03-28T11:32:21.413Z</time></trkpt><trkpt lat="40.9627117" lon="14.3072367"><ele>25.2</ele><time>2026-03-28T11:32:23.414Z</time></trkpt><trkpt lat="40.96259" lon="14.3072517"><ele>25.4</ele><time>2026-03-28T11:32:25.413Z</time></trkpt><trkpt lat="40.9624767" lon="14.30725"><ele>25.6</ele><time>2026-03-28T11:32:27.413Z</time></trkpt><trkpt lat="40.9623533" lon="14.3072567"><ele>25.8</ele><time>2026-03-28T11:32:29.413Z</time></trkpt><trkpt lat="40.9622883" lon="14.3072617"><ele>26.0</ele><time>2026-03-28T11:32:30.414Z</time></trkpt><trkpt lat="40.9621617" lon="14.3072767"><ele>26.166666666666664</ele><time>2026-03-28T11:32:32.414Z</time></trkpt><trkpt lat="40.962095" lon="14.307285"><ele>26.333333333333332</ele><time>2026-03-28T11:32:33.413Z</time></trkpt><trkpt lat="40.9620267" lon="14.30729"><ele>26.5</ele><time>2026-03-28T11:32:34.413Z</time></trkpt><trkpt lat="40.9619" lon="14.3072917"><ele>26.666666666666664</ele><time>2026-03-28T11:32:36.415Z</time></trkpt><trkpt lat="40.961835" lon="14.3072917"><ele>26.833333333333332</ele><time>2026-03-28T11:32:37.416Z</time></trkpt><trkpt lat="40.9617167" lon="14.3072783"><ele>27.0</ele><time>2026-03-28T11:32:39.415Z</time></trkpt><trkpt lat="40.961605" lon="14.3072683"><ele>27.0</ele><time>2026-03-28T11:32:41.414Z</time></trkpt><trkpt lat="40.96148" lon="14.3072533"><ele>27.000000000000004</ele><time>2026-03-28T11:32:43.414Z</time></trkpt><trkpt lat="40.9614167" lon="14.3072467"><ele>27.000000000000004</ele><time>2026-03-28T11:32:44.413Z</time></trkpt><trkpt lat="40.96129" lon="14.3072317"><ele>27.0</ele><time>2026-03-28T11:32:46.414Z</time></trkpt><trkpt lat="40.96117" lon="14.3072117"><ele>27.0</ele><time>2026-03-28T11:32:48.414Z</time></trkpt><trkpt lat="40.9610567" lon="14.3071967"><ele>27.0</ele><time>2026-03-28T11:32:50.414Z</time></trkpt><trkpt lat="40.9609517" lon="14.3071733"><ele>27.000000000000004</ele><time>2026-03-28T11:32:52.414Z</time></trkpt><trkpt lat="40.96084" lon="14.3071433"><ele>27.000000000000004</ele><time>2026-03-28T11:32:54.413Z</time></trkpt><trkpt lat="40.9607333" lon="14.3071"><ele>27.0</ele><time>2026-03-28T11:32:56.412Z</time></trkpt><trkpt lat="40.9606267" lon="14.3071017"><ele>27.0</ele><time>2026-03-28T11:32:58.413Z</time></trkpt><trkpt lat="40.9605083" lon="14.3070867"><ele>26.8</ele><time>2026-03-28T11:33:00.413Z</time></trkpt><trkpt lat="40.9603917" lon="14.3070633"><ele>26.6</ele><time>2026-03-28T11:33:02.413Z</time></trkpt><trkpt lat="40.9602717" lon="14.3070317"><ele>26.400000000000002</ele><time>2026-03-28T11:33:04.412Z</time></trkpt><trkpt lat="40.9602083" lon="14.3070167"><ele>26.200000000000003</ele><time>2026-03-28T11:33:05.413Z</time></trkpt><trkpt lat="40.9600867" lon="14.3069867"><ele>26.0</ele><time>2026-03-28T11:33:07.413Z</time></trkpt><trkpt lat="40.9600233" lon="14.3069683"><ele>25.666666666666664</ele><time>2026-03-28T11:33:08.414Z</time></trkpt><trkpt lat="40.9599083" lon="14.3069283"><ele>25.333333333333332</ele><time>2026-03-28T11:33:10.413Z</time></trkpt><trkpt lat="40.9597967" lon="14.3068983"><ele>25.0</ele><time>2026-03-28T11:33:12.417Z</time></trkpt><trkpt lat="40.9597317" lon="14.3068767"><ele>24.666666666666664</ele><time>2026-03-28T11:33:13.414Z</time></trkpt><trkpt lat="40.959665" lon="14.30686"><ele>24.333333333333332</ele><time>2026-03-28T11:33:14.414Z</time></trkpt><trkpt lat="40.959595" lon="14.3068467"><ele>24.0</ele><time>2026-03-28T11:33:15.413Z</time></trkpt><trkpt lat="40.9595267" lon="14.3068333"><ele>23.999999999999996</ele><time>2026-03-28T11:33:16.413Z</time></trkpt><trkpt lat="40.9594617" lon="14.3068117"><ele>24.0</ele><time>2026-03-28T11:33:17.414Z</time></trkpt><trkpt lat="40.959395" lon="14.3067967"><ele>24.0</ele><time>2026-03-28T11:33:18.414Z</time></trkpt><trkpt lat="40.9593167" lon="14.306785"><ele>24.0</ele><time>2026-03-28T11:33:19.413Z</time></trkpt><trkpt lat="40.95924" lon="14.3067717"><ele>24.0</ele><time>2026-03-28T11:33:20.413Z</time></trkpt><trkpt lat="40.95917" lon="14.3067583"><ele>23.999999999999996</ele><time>2026-03-28T11:33:21.413Z</time></trkpt><trkpt lat="40.9590967" lon="14.3067467"><ele>24.0</ele><time>2026-03-28T11:33:22.413Z</time></trkpt><trkpt lat="40.9590183" lon="14.306735"><ele>24.799999999999997</ele><time>2026-03-28T11:33:23.417Z</time></trkpt><trkpt lat="40.95894" lon="14.306715"><ele>25.599999999999998</ele><time>2026-03-28T11:33:24.413Z</time></trkpt><trkpt lat="40.9588467" lon="14.3066967"><ele>26.4</ele><time>2026-03-28T11:33:25.414Z</time></trkpt><trkpt lat="40.9587583" lon="14.3066717"><ele>27.2</ele><time>2026-03-28T11:33:26.413Z</time></trkpt><trkpt lat="40.958665" lon="14.3066367"><ele>28.0</ele><time>2026-03-28T11:33:27.413Z</time></trkpt><trkpt lat="40.958575" lon="14.3065917"><ele>28.0</ele><time>2026-03-28T11:33:28.413Z</time></trkpt><trkpt lat="40.9584883" lon="14.3065417"><ele>27.999999999999996</ele><time>2026-03-28T11:33:29.412Z</time></trkpt><trkpt lat="40.9583983" lon="14.3064917"><ele>27.999999999999996</ele><time>2026-03-28T11:33:30.415Z</time></trkpt><trkpt lat="40.9583117" lon="14.3064283"><ele>28.0</ele><time>2026-03-28T11:33:31.413Z</time></trkpt><trkpt lat="40.9582367" lon="14.3063667"><ele>28.0</ele><time>2026-03-28T11:33:32.413Z</time></trkpt><trkpt lat="40.9581767" lon="14.306315"><ele>28.2</ele><time>2026-03-28T11:33:33.413Z</time></trkpt><trkpt lat="40.9580833" lon="14.30623"><ele>28.4</ele><time>2026-03-28T11:33:35.414Z</time></trkpt><trkpt lat="40.9580133" lon="14.30614"><ele>28.599999999999998</ele><time>2026-03-28T11:33:37.416Z</time></trkpt><trkpt lat="40.95793" lon="14.3060533"><ele>28.799999999999997</ele><time>2026-03-28T11:33:39.413Z</time></trkpt><trkpt lat="40.9578433" lon="14.3059583"><ele>29.0</ele><time>2026-03-28T11:33:41.413Z</time></trkpt><trkpt lat="40.9577983" lon="14.3058983"><ele>28.999999999999996</ele><time>2026-03-28T11:33:42.413Z</time></trkpt><trkpt lat="40.9577533" lon="14.3058367"><ele>29.0</ele><time>2026-03-28T11:33:43.413Z</time></trkpt><trkpt lat="40.9577067" lon="14.3057767"><ele>29.0</ele><time>2026-03-28T11:33:44.413Z</time></trkpt><trkpt lat="40.95766" lon="14.3057167"><ele>29.0</ele><time>2026-03-28T11:33:45.414Z</time></trkpt><trkpt lat="40.9575667" lon="14.30561"><ele>28.999999999999996</ele><time>2026-03-28T11:33:47.414Z</time></trkpt><trkpt lat="40.957475" lon="14.3055083"><ele>29.0</ele><time>2026-03-28T11:33:49.414Z</time></trkpt><trkpt lat="40.957425" lon="14.305455"><ele>28.999999999999996</ele><time>2026-03-28T11:33:50.415Z</time></trkpt><trkpt lat="40.9573517" lon="14.3054117"><ele>29.0</ele><time>2026-03-28T11:33:51.413Z</time></trkpt><trkpt lat="40.9573083" lon="14.30535"><ele>29.0</ele><time>2026-03-28T11:33:52.414Z</time></trkpt><trkpt lat="40.95726" lon="14.3052933"><ele>29.0</ele><time>2026-03-28T11:33:53.414Z</time></trkpt><trkpt lat="40.957215" lon="14.30523"><ele>28.999999999999996</ele><time>2026-03-28T11:33:54.414Z</time></trkpt><trkpt lat="40.9571433" lon="14.3052"><ele>29.0</ele><time>2026-03-28T11:33:55.414Z</time></trkpt><trkpt lat="40.9570567" lon="14.3050817"><ele>29.000000000000004</ele><time>2026-03-28T11:33:57.412Z</time></trkpt><trkpt lat="40.9569967" lon="14.3050467"><ele>29.0</ele><time>2026-03-28T11:33:58.412Z</time></trkpt><trkpt lat="40.95694" lon="14.3049967"><ele>29.000000000000004</ele><time>2026-03-28T11:33:59.413Z</time></trkpt><trkpt lat="40.9568833" lon="14.30495"><ele>29.000000000000004</ele><time>2026-03-28T11:34:00.416Z</time></trkpt><trkpt lat="40.9567917" lon="14.3048767"><ele>29.0</ele><time>2026-03-28T11:34:02.414Z</time></trkpt><trkpt lat="40.956735" lon="14.304835"><ele>29.000000000000004</ele><time>2026-03-28T11:34:04.414Z</time></trkpt><trkpt lat="40.9566817" lon="14.30479"><ele>29.000000000000004</ele><time>2026-03-28T11:34:06.413Z</time></trkpt><trkpt lat="40.9566017" lon="14.3047133"><ele>29.0</ele><time>2026-03-28T11:34:09.413Z</time></trkpt><trkpt lat="40.956515" lon="14.3046633"><ele>29.0</ele><time>2026-03-28T11:34:11.414Z</time></trkpt><trkpt lat="40.9564183" lon="14.30461"><ele>29.0</ele><time>2026-03-28T11:34:13.414Z</time></trkpt><trkpt lat="40.9563133" lon="14.3045517"><ele>29.0</ele><time>2026-03-28T11:34:15.416Z</time></trkpt><trkpt lat="40.9562517" lon="14.3045317"><ele>29.0</ele><time>2026-03-28T11:34:16.415Z</time></trkpt><trkpt lat="40.9561667" lon="14.3045333"><ele>28.999999999999996</ele><time>2026-03-28T11:34:17.414Z</time></trkpt><trkpt lat="40.9561017" lon="14.3045217"><ele>29.0</ele><time>2026-03-28T11:34:18.414Z</time></trkpt><trkpt lat="40.9560333" lon="14.3044983"><ele>29.0</ele><time>2026-03-28T11:34:19.414Z</time></trkpt><trkpt lat="40.9559667" lon="14.3044867"><ele>29.0</ele><time>2026-03-28T11:34:20.412Z</time></trkpt><trkpt lat="40.9558483" lon="14.304435"><ele>28.999999999999996</ele><time>2026-03-28T11:34:22.413Z</time></trkpt><trkpt lat="40.9557417" lon="14.3044167"><ele>29.0</ele><time>2026-03-28T11:34:24.413Z</time></trkpt><trkpt lat="40.9556783" lon="14.3044033"><ele>28.799999999999997</ele><time>2026-03-28T11:34:25.414Z</time></trkpt><trkpt lat="40.95557" lon="14.3043717"><ele>28.599999999999998</ele><time>2026-03-28T11:34:27.413Z</time></trkpt><trkpt lat="40.9554717" lon="14.30432"><ele>28.4</ele><time>2026-03-28T11:34:29.414Z</time></trkpt><trkpt lat="40.9553783" lon="14.3042717"><ele>28.2</ele><time>2026-03-28T11:34:31.415Z</time></trkpt><trkpt lat="40.955275" lon="14.3042417"><ele>28.0</ele><time>2026-03-28T11:34:33.413Z</time></trkpt><trkpt lat="40.9551683" lon="14.30422"><ele>28.0</ele><time>2026-03-28T11:34:35.415Z</time></trkpt><trkpt lat="40.9550567" lon="14.3041983"><ele>27.999999999999996</ele><time>2026-03-28T11:34:37.414Z</time></trkpt><trkpt lat="40.954945" lon="14.304205"><ele>27.999999999999996</ele><time>2026-03-28T11:34:39.413Z</time></trkpt><trkpt lat="40.954845" lon="14.3041933"><ele>28.0</ele><time>2026-03-28T11:34:41.413Z</time></trkpt><trkpt lat="40.95477" lon="14.304165"><ele>28.0</ele><time>2026-03-28T11:34:43.415Z</time></trkpt><trkpt lat="40.9547067" lon="14.30413"><ele>28.000000000000004</ele><time>2026-03-28T11:34:45.415Z</time></trkpt><trkpt lat="40.954635" lon="14.3040817"><ele>28.0</ele><time>2026-03-28T11:34:47.414Z</time></trkpt><trkpt lat="40.9545467" lon="14.3040433"><ele>28.0</ele><time>2026-03-28T11:34:49.415Z</time></trkpt><trkpt lat="40.9544633" lon="14.3039917"><ele>28.0</ele><time>2026-03-28T11:34:51.415Z</time></trkpt><trkpt lat="40.95437" lon="14.3039717"><ele>28.000000000000004</ele><time>2026-03-28T11:34:53.414Z</time></trkpt><trkpt lat="40.9542867" lon="14.3039417"><ele>28.0</ele><time>2026-03-28T11:34:55.415Z</time></trkpt><trkpt lat="40.9541817" lon="14.3039117"><ele>28.599999999999998</ele><time>2026-03-28T11:34:57.415Z</time></trkpt><trkpt lat="40.9540833" lon="14.3038633"><ele>29.199999999999996</ele><time>2026-03-28T11:34:59.413Z</time></trkpt><trkpt lat="40.953975" lon="14.30381"><ele>29.8</ele><time>2026-03-28T11:35:01.414Z</time></trkpt><trkpt lat="40.9538633" lon="14.3037667"><ele>30.4</ele><time>2026-03-28T11:35:03.414Z</time></trkpt><trkpt lat="40.9537583" lon="14.3037167"><ele>31.0</ele><time>2026-03-28T11:35:05.414Z</time></trkpt><trkpt lat="40.9536433" lon="14.3036583"><ele>31.0</ele><time>2026-03-28T11:35:07.416Z</time></trkpt><trkpt lat="40.9535317" lon="14.3036217"><ele>31.0</ele><time>2026-03-28T11:35:09.413Z</time></trkpt><trkpt lat="40.95341" lon="14.3035867"><ele>31.0</ele><time>2026-03-28T11:35:11.414Z</time></trkpt><trkpt lat="40.9533483" lon="14.30357"><ele>31.0</ele><time>2026-03-28T11:35:12.415Z</time></trkpt><trkpt lat="40.9532817" lon="14.303555"><ele>31.0</ele><time>2026-03-28T11:35:13.415Z</time></trkpt><trkpt lat="40.953165" lon="14.30351"><ele>30.4</ele><time>2026-03-28T11:35:15.414Z</time></trkpt><trkpt lat="40.95305" lon="14.3034717"><ele>29.8</ele><time>2026-03-28T11:35:17.414Z</time></trkpt><trkpt lat="40.9529217" lon="14.303425"><ele>29.199999999999996</ele><time>2026-03-28T11:35:19.414Z</time></trkpt><trkpt lat="40.9528567" lon="14.303405"><ele>28.599999999999998</ele><time>2026-03-28T11:35:20.413Z</time></trkpt><trkpt lat="40.9527933" lon="14.3033883"><ele>28.0</ele><time>2026-03-28T11:35:21.413Z</time></trkpt><trkpt lat="40.9526817" lon="14.3033583"><ele>28.0</ele><time>2026-03-28T11:35:23.414Z</time></trkpt><trkpt lat="40.9525533" lon="14.303345"><ele>27.999999999999996</ele><time>2026-03-28T11:35:25.414Z</time></trkpt><trkpt lat="40.9524533" lon="14.3033"><ele>27.999999999999996</ele><time>2026-03-28T11:35:27.414Z</time></trkpt><trkpt lat="40.9523683" lon="14.3032617"><ele>28.0</ele><time>2026-03-28T11:35:29.415Z</time></trkpt><trkpt lat="40.9522767" lon="14.3032"><ele>28.0</ele><time>2026-03-28T11:35:31.414Z</time></trkpt><trkpt lat="40.95216" lon="14.303175"><ele>28.2</ele><time>2026-03-28T11:35:33.414Z</time></trkpt><trkpt lat="40.9520533" lon="14.30315"><ele>28.4</ele><time>2026-03-28T11:35:35.415Z</time></trkpt><trkpt lat="40.9519367" lon="14.3031117"><ele>28.599999999999998</ele><time>2026-03-28T11:35:37.414Z</time></trkpt><trkpt lat="40.9518733" lon="14.3031017"><ele>28.799999999999997</ele><time>2026-03-28T11:35:38.413Z</time></trkpt><trkpt lat="40.9518083" lon="14.3030883"><ele>29.0</ele><time>2026-03-28T11:35:39.413Z</time></trkpt><trkpt lat="40.9516883" lon="14.3030467"><ele>29.0</ele><time>2026-03-28T11:35:41.414Z</time></trkpt><trkpt lat="40.9516117" lon="14.3030633"><ele>29.0</ele><time>2026-03-28T11:35:42.414Z</time></trkpt><trkpt lat="40.9515383" lon="14.303065"><ele>29.0</ele><time>2026-03-28T11:35:43.414Z</time></trkpt><trkpt lat="40.9514217" lon="14.303025"><ele>29.0</ele><time>2026-03-28T11:35:45.413Z</time></trkpt><trkpt lat="40.9512967" lon="14.3030033"><ele>29.0</ele><time>2026-03-28T11:35:47.413Z</time></trkpt><trkpt lat="40.9512283" lon="14.303"><ele>29.000000000000004</ele><time>2026-03-28T11:35:48.414Z</time></trkpt><trkpt lat="40.95116" lon="14.30299"><ele>29.0</ele><time>2026-03-28T11:35:49.413Z</time></trkpt><trkpt lat="40.95109" lon="14.302985"><ele>29.000000000000004</ele><time>2026-03-28T11:35:50.413Z</time></trkpt><trkpt lat="40.9510233" lon="14.3029617"><ele>29.000000000000004</ele><time>2026-03-28T11:35:51.414Z</time></trkpt><trkpt lat="40.9509567" lon="14.302935"><ele>29.0</ele><time>2026-03-28T11:35:52.414Z</time></trkpt><trkpt lat="40.95089" lon="14.3029033"><ele>29.000000000000004</ele><time>2026-03-28T11:35:53.414Z</time></trkpt><trkpt lat="40.9508183" lon="14.30288"><ele>29.000000000000004</ele><time>2026-03-28T11:35:54.414Z</time></trkpt><trkpt lat="40.9507517" lon="14.3028533"><ele>29.499999999999996</ele><time>2026-03-28T11:35:55.418Z</time></trkpt><trkpt lat="40.9506783" lon="14.3028333"><ele>30.0</ele><time>2026-03-28T11:35:56.414Z</time></trkpt><trkpt lat="40.9505983" lon="14.3028167"><ele>30.5</ele><time>2026-03-28T11:35:57.414Z</time></trkpt><trkpt lat="40.9505217" lon="14.3027917"><ele>31.0</ele><time>2026-03-28T11:35:58.413Z</time></trkpt><trkpt lat="40.9504467" lon="14.3027733"><ele>31.499999999999996</ele><time>2026-03-28T11:35:59.415Z</time></trkpt><trkpt lat="40.9503667" lon="14.3027517"><ele>32.0</ele><time>2026-03-28T11:36:00.414Z</time></trkpt><trkpt lat="40.9502933" lon="14.3027317"><ele>32.0</ele><time>2026-03-28T11:36:01.415Z</time></trkpt><trkpt lat="40.9502267" lon="14.3027067"><ele>31.999999999999996</ele><time>2026-03-28T11:36:02.414Z</time></trkpt><trkpt lat="40.95016" lon="14.3026817"><ele>32.0</ele><time>2026-03-28T11:36:03.413Z</time></trkpt><trkpt lat="40.95009" lon="14.30266"><ele>32.0</ele><time>2026-03-28T11:36:04.414Z</time></trkpt><trkpt lat="40.950015" lon="14.3026317"><ele>31.999999999999996</ele><time>2026-03-28T11:36:05.415Z</time></trkpt><trkpt lat="40.9499417" lon="14.302605"><ele>32.0</ele><time>2026-03-28T11:36:06.414Z</time></trkpt><trkpt lat="40.949865" lon="14.302595"><ele>32.0</ele><time>2026-03-28T11:36:07.414Z</time></trkpt><trkpt lat="40.9497833" lon="14.3025867"><ele>32.166666666666664</ele><time>2026-03-28T11:36:08.414Z</time></trkpt><trkpt lat="40.9497083" lon="14.3025783"><ele>32.33333333333333</ele><time>2026-03-28T11:36:09.412Z</time></trkpt><trkpt lat="40.9496333" lon="14.30257"><ele>32.5</ele><time>2026-03-28T11:36:10.415Z</time></trkpt><trkpt lat="40.94956" lon="14.302565"><ele>32.666666666666664</ele><time>2026-03-28T11:36:11.414Z</time></trkpt><trkpt lat="40.9494933" lon="14.3025833"><ele>32.833333333333336</ele><time>2026-03-28T11:36:12.417Z</time></trkpt><trkpt lat="40.9494083" lon="14.3025767"><ele>33.0</ele><time>2026-03-28T11:36:14.414Z</time></trkpt><trkpt lat="40.9493267" lon="14.3025783"><ele>33.0</ele><time>2026-03-28T11:36:16.415Z</time></trkpt><trkpt lat="40.949245" lon="14.3025567"><ele>33.0</ele><time>2026-03-28T11:36:18.414Z</time></trkpt><trkpt lat="40.9491533" lon="14.3025317"><ele>33.0</ele><time>2026-03-28T11:36:20.414Z</time></trkpt><trkpt lat="40.94906" lon="14.3025083"><ele>33.0</ele><time>2026-03-28T11:36:22.414Z</time></trkpt><trkpt lat="40.948975" lon="14.3024683"><ele>33.0</ele><time>2026-03-28T11:36:24.419Z</time></trkpt><trkpt lat="40.9488883" lon="14.302445"><ele>32.6</ele><time>2026-03-28T11:36:26.414Z</time></trkpt><trkpt lat="40.948815" lon="14.3023983"><ele>32.199999999999996</ele><time>2026-03-28T11:36:28.415Z</time></trkpt><trkpt lat="40.9487233" lon="14.30238"><ele>31.8</ele><time>2026-03-28T11:36:30.415Z</time></trkpt><trkpt lat="40.9486167" lon="14.30237"><ele>31.4</ele><time>2026-03-28T11:36:32.415Z</time></trkpt><trkpt lat="40.9485217" lon="14.302355"><ele>31.0</ele><time>2026-03-28T11:36:34.414Z</time></trkpt><trkpt lat="40.9484417" lon="14.30234"><ele>31.200000000000003</ele><time>2026-03-28T11:36:36.414Z</time></trkpt><trkpt lat="40.9483683" lon="14.30232"><ele>31.400000000000002</ele><time>2026-03-28T11:36:38.413Z</time></trkpt><trkpt lat="40.948285" lon="14.3022967"><ele>31.6</ele><time>2026-03-28T11:36:40.415Z</time></trkpt><trkpt lat="40.9481867" lon="14.3022483"><ele>31.8</ele><time>2026-03-28T11:36:42.414Z</time></trkpt><trkpt lat="40.9480683" lon="14.3021917"><ele>32.0</ele><time>2026-03-28T11:36:44.414Z</time></trkpt><trkpt lat="40.948005" lon="14.3021733"><ele>31.999999999999996</ele><time>2026-03-28T11:36:45.412Z</time></trkpt><trkpt lat="40.9479367" lon="14.3021533"><ele>32.0</ele><time>2026-03-28T11:36:46.414Z</time></trkpt><trkpt lat="40.9478633" lon="14.3021417"><ele>32.0</ele><time>2026-03-28T11:36:47.414Z</time></trkpt><trkpt lat="40.9477983" lon="14.3021267"><ele>32.0</ele><time>2026-03-28T11:36:48.414Z</time></trkpt><trkpt lat="40.947735" lon="14.3021167"><ele>31.999999999999996</ele><time>2026-03-28T11:36:49.415Z</time></trkpt><trkpt lat="40.9476717" lon="14.3021"><ele>32.0</ele><time>2026-03-28T11:36:50.414Z</time></trkpt><trkpt lat="40.9475617" lon="14.3020717"><ele>32.166666666666664</ele><time>2026-03-28T11:36:52.416Z</time></trkpt><trkpt lat="40.9474817" lon="14.302035"><ele>32.33333333333333</ele><time>2026-03-28T11:36:54.414Z</time></trkpt><trkpt lat="40.947415" lon="14.301965"><ele>32.5</ele><time>2026-03-28T11:36:56.414Z</time></trkpt><trkpt lat="40.9473567" lon="14.3018733"><ele>32.666666666666664</ele><time>2026-03-28T11:36:58.417Z</time></trkpt><trkpt lat="40.9473017" lon="14.3017883"><ele>32.833333333333336</ele><time>2026-03-28T11:37:00.414Z</time></trkpt><trkpt lat="40.94725" lon="14.301675"><ele>33.0</ele><time>2026-03-28T11:37:02.414Z</time></trkpt><trkpt lat="40.94722" lon="14.3016017"><ele>33.0</ele><time>2026-03-28T11:37:03.414Z</time></trkpt><trkpt lat="40.947165" lon="14.3014617"><ele>33.0</ele><time>2026-03-28T11:37:05.414Z</time></trkpt><trkpt lat="40.947115" lon="14.3013367"><ele>33.0</ele><time>2026-03-28T11:37:07.414Z</time></trkpt><trkpt lat="40.9470667" lon="14.3011933"><ele>33.0</ele><time>2026-03-28T11:37:09.414Z</time></trkpt><trkpt lat="40.947015" lon="14.30105"><ele>32.714285714285715</ele><time>2026-03-28T11:37:11.414Z</time></trkpt><trkpt lat="40.9469883" lon="14.3009733"><ele>32.42857142857143</ele><time>2026-03-28T11:37:12.415Z</time></trkpt><trkpt lat="40.9469367" lon="14.3008217"><ele>32.142857142857146</ele><time>2026-03-28T11:37:14.414Z</time></trkpt><trkpt lat="40.9469067" lon="14.3007483"><ele>31.857142857142858</ele><time>2026-03-28T11:37:15.417Z</time></trkpt><trkpt lat="40.9468783" lon="14.3006717"><ele>31.571428571428577</ele><time>2026-03-28T11:37:16.414Z</time></trkpt><trkpt lat="40.9468517" lon="14.3005917"><ele>31.28571428571429</ele><time>2026-03-28T11:37:17.413Z</time></trkpt><trkpt lat="40.9468267" lon="14.300515"><ele>31.0</ele><time>2026-03-28T11:37:18.414Z</time></trkpt><trkpt lat="40.9467983" lon="14.3004383"><ele>30.857142857142858</ele><time>2026-03-28T11:37:19.413Z</time></trkpt><trkpt lat="40.94677" lon="14.3003617"><ele>30.714285714285715</ele><time>2026-03-28T11:37:20.414Z</time></trkpt><trkpt lat="40.9467433" lon="14.30028"><ele>30.571428571428573</ele><time>2026-03-28T11:37:21.414Z</time></trkpt><trkpt lat="40.9467167" lon="14.3002033"><ele>30.42857142857143</ele><time>2026-03-28T11:37:22.414Z</time></trkpt><trkpt lat="40.9466917" lon="14.3001233"><ele>30.285714285714285</ele><time>2026-03-28T11:37:23.414Z</time></trkpt><trkpt lat="40.946665" lon="14.300045"><ele>30.142857142857146</ele><time>2026-03-28T11:37:24.414Z</time></trkpt><trkpt lat="40.9466383" lon="14.2999633"><ele>30.0</ele><time>2026-03-28T11:37:25.416Z</time></trkpt><trkpt lat="40.94661" lon="14.2998867"><ele>30.4</ele><time>2026-03-28T11:37:26.413Z</time></trkpt><trkpt lat="40.946575" lon="14.2998083"><ele>30.8</ele><time>2026-03-28T11:37:27.414Z</time></trkpt><trkpt lat="40.9465017" lon="14.29967"><ele>31.200000000000003</ele><time>2026-03-28T11:37:29.415Z</time></trkpt><trkpt lat="40.9464267" lon="14.2995467"><ele>31.6</ele><time>2026-03-28T11:37:31.413Z</time></trkpt><trkpt lat="40.946345" lon="14.2994583"><ele>32.0</ele><time>2026-03-28T11:37:33.415Z</time></trkpt><trkpt lat="40.9462617" lon="14.29943"><ele>32.0</ele><time>2026-03-28T11:37:35.414Z</time></trkpt><trkpt lat="40.9461583" lon="14.29943"><ele>32.0</ele><time>2026-03-28T11:37:37.413Z</time></trkpt><trkpt lat="40.9460467" lon="14.29942"><ele>32.0</ele><time>2026-03-28T11:37:39.414Z</time></trkpt><trkpt lat="40.9459183" lon="14.2993967"><ele>32.0</ele><time>2026-03-28T11:37:41.414Z</time></trkpt><trkpt lat="40.9458483" lon="14.299385"><ele>32.0</ele><time>2026-03-28T11:37:42.414Z</time></trkpt><trkpt lat="40.9457767" lon="14.2993767"><ele>32.166666666666664</ele><time>2026-03-28T11:37:43.415Z</time></trkpt><trkpt lat="40.9457" lon="14.2993717"><ele>32.33333333333333</ele><time>2026-03-28T11:37:44.414Z</time></trkpt><trkpt lat="40.9456217" lon="14.2993583"><ele>32.5</ele><time>2026-03-28T11:37:45.414Z</time></trkpt><trkpt lat="40.945545" lon="14.2993517"><ele>32.666666666666664</ele><time>2026-03-28T11:37:46.414Z</time></trkpt><trkpt lat="40.9454667" lon="14.299345"><ele>32.833333333333336</ele><time>2026-03-28T11:37:47.414Z</time></trkpt><trkpt lat="40.945395" lon="14.2993383"><ele>33.0</ele><time>2026-03-28T11:37:48.421Z</time></trkpt><trkpt lat="40.9453183" lon="14.2993217"><ele>33.0</ele><time>2026-03-28T11:37:49.414Z</time></trkpt><trkpt lat="40.9452417" lon="14.2993067"><ele>33.0</ele><time>2026-03-28T11:37:50.414Z</time></trkpt><trkpt lat="40.9451633" lon="14.2992967"><ele>33.0</ele><time>2026-03-28T11:37:51.414Z</time></trkpt><trkpt lat="40.9450867" lon="14.2992833"><ele>33.0</ele><time>2026-03-28T11:37:52.413Z</time></trkpt><trkpt lat="40.9450083" lon="14.2992633"><ele>33.0</ele><time>2026-03-28T11:37:53.414Z</time></trkpt><trkpt lat="40.9449317" lon="14.2992483"><ele>33.0</ele><time>2026-03-28T11:37:54.415Z</time></trkpt><trkpt lat="40.944855" lon="14.29924"><ele>33.0</ele><time>2026-03-28T11:37:55.415Z</time></trkpt><trkpt lat="40.9447783" lon="14.299225"><ele>33.0</ele><time>2026-03-28T11:37:56.413Z</time></trkpt><trkpt lat="40.944705" lon="14.2992133"><ele>33.0</ele><time>2026-03-28T11:37:57.414Z</time></trkpt><trkpt lat="40.9446317" lon="14.299205"><ele>33.0</ele><time>2026-03-28T11:37:58.416Z</time></trkpt><trkpt lat="40.9445567" lon="14.2991983"><ele>33.0</ele><time>2026-03-28T11:37:59.414Z</time></trkpt><trkpt lat="40.944485" lon="14.2991817"><ele>33.0</ele><time>2026-03-28T11:38:00.417Z</time></trkpt><trkpt lat="40.94437" lon="14.2991233"><ele>33.0</ele><time>2026-03-28T11:38:02.418Z</time></trkpt><trkpt lat="40.9442533" lon="14.2991117"><ele>33.0</ele><time>2026-03-28T11:38:04.414Z</time></trkpt><trkpt lat="40.944125" lon="14.2990983"><ele>33.0</ele><time>2026-03-28T11:38:06.413Z</time></trkpt><trkpt lat="40.9440567" lon="14.299085"><ele>33.0</ele><time>2026-03-28T11:38:07.417Z</time></trkpt><trkpt lat="40.9439883" lon="14.2990717"><ele>33.0</ele><time>2026-03-28T11:38:08.413Z</time></trkpt><trkpt lat="40.94391" lon="14.29906"><ele>32.857142857142854</ele><time>2026-03-28T11:38:09.413Z</time></trkpt><trkpt lat="40.9438333" lon="14.2990483"><ele>32.714285714285715</ele><time>2026-03-28T11:38:10.413Z</time></trkpt><trkpt lat="40.9437617" lon="14.2990317"><ele>32.57142857142857</ele><time>2026-03-28T11:38:11.413Z</time></trkpt><trkpt lat="40.9436883" lon="14.299015"><ele>32.42857142857143</ele><time>2026-03-28T11:38:12.414Z</time></trkpt><trkpt lat="40.9436133" lon="14.299005"><ele>32.285714285714285</ele><time>2026-03-28T11:38:13.414Z</time></trkpt><trkpt lat="40.9435433" lon="14.2989917"><ele>32.14285714285714</ele><time>2026-03-28T11:38:14.413Z</time></trkpt><trkpt lat="40.9434717" lon="14.2989817"><ele>32.0</ele><time>2026-03-28T11:38:15.413Z</time></trkpt><trkpt lat="40.9433967" lon="14.2989733"><ele>32.285714285714285</ele><time>2026-03-28T11:38:16.413Z</time></trkpt><trkpt lat="40.9433283" lon="14.298965"><ele>32.57142857142857</ele><time>2026-03-28T11:38:17.413Z</time></trkpt><trkpt lat="40.943255" lon="14.29896"><ele>32.857142857142854</ele><time>2026-03-28T11:38:18.413Z</time></trkpt><trkpt lat="40.9431817" lon="14.2989583"><ele>33.14285714285714</ele><time>2026-03-28T11:38:19.414Z</time></trkpt><trkpt lat="40.9431117" lon="14.2989517"><ele>33.42857142857143</ele><time>2026-03-28T11:38:20.413Z</time></trkpt><trkpt lat="40.943035" lon="14.2989617"><ele>33.71428571428571</ele><time>2026-03-28T11:38:21.412Z</time></trkpt><trkpt lat="40.9429583" lon="14.2989683"><ele>34.0</ele><time>2026-03-28T11:38:22.413Z</time></trkpt><trkpt lat="40.9428917" lon="14.2989617"><ele>33.99999999999999</ele><time>2026-03-28T11:38:23.413Z</time></trkpt><trkpt lat="40.9428233" lon="14.2989667"><ele>34.0</ele><time>2026-03-28T11:38:24.413Z</time></trkpt><trkpt lat="40.9427567" lon="14.2989667"><ele>34.0</ele><time>2026-03-28T11:38:25.421Z</time></trkpt><trkpt lat="40.9426867" lon="14.2989767"><ele>34.0</ele><time>2026-03-28T11:38:26.412Z</time></trkpt><trkpt lat="40.9426133" lon="14.2989867"><ele>34.0</ele><time>2026-03-28T11:38:27.413Z</time></trkpt><trkpt lat="40.942545" lon="14.298995"><ele>33.99999999999999</ele><time>2026-03-28T11:38:28.414Z</time></trkpt><trkpt lat="40.9424783" lon="14.2990117"><ele>34.0</ele><time>2026-03-28T11:38:29.413Z</time></trkpt><trkpt lat="40.9424117" lon="14.2990183"><ele>34.333333333333336</ele><time>2026-03-28T11:38:30.413Z</time></trkpt><trkpt lat="40.9423483" lon="14.29902"><ele>34.66666666666667</ele><time>2026-03-28T11:38:31.414Z</time></trkpt><trkpt lat="40.9422333" lon="14.2990117"><ele>35.0</ele><time>2026-03-28T11:38:33.414Z</time></trkpt><trkpt lat="40.9421167" lon="14.2990233"><ele>35.333333333333336</ele><time>2026-03-28T11:38:35.415Z</time></trkpt><trkpt lat="40.9420333" lon="14.2990117"><ele>35.666666666666664</ele><time>2026-03-28T11:38:37.415Z</time></trkpt><trkpt lat="40.94197" lon="14.2990033"><ele>36.0</ele><time>2026-03-28T11:38:39.415Z</time></trkpt><trkpt lat="40.9419067" lon="14.2989933"><ele>36.0</ele><time>2026-03-28T11:38:41.413Z</time></trkpt><trkpt lat="40.9418617" lon="14.2990517"><ele>36.0</ele><time>2026-03-28T11:38:43.413Z</time></trkpt><trkpt lat="40.9417983" lon="14.2990417"><ele>36.0</ele><time>2026-03-28T11:38:45.413Z</time></trkpt><trkpt lat="40.9418383" lon="14.2989617"><ele>36.0</ele><time>2026-03-28T11:39:57.413Z</time></trkpt><trkpt lat="40.941925" lon="14.2989783"><ele>36.0</ele><time>2026-03-28T11:40:24.413Z</time></trkpt><trkpt lat="40.9417783" lon="14.2990117"><ele>36.0</ele><time>2026-03-28T11:40:28.414Z</time></trkpt><trkpt lat="40.941645" lon="14.29906"><ele>36.166666666666664</ele><time>2026-03-28T11:40:29.416Z</time></trkpt><trkpt lat="40.9415583" lon="14.2990933"><ele>36.333333333333336</ele><time>2026-03-28T11:40:31.412Z</time></trkpt><trkpt lat="40.9414967" lon="14.2991267"><ele>36.5</ele><time>2026-03-28T11:40:32.414Z</time></trkpt><trkpt lat="40.9414067" lon="14.299155"><ele>36.66666666666667</ele><time>2026-03-28T11:40:34.415Z</time></trkpt><trkpt lat="40.941325" lon="14.2991767"><ele>36.833333333333336</ele><time>2026-03-28T11:40:36.415Z</time></trkpt><trkpt lat="40.9412433" lon="14.2992033"><ele>37.0</ele><time>2026-03-28T11:40:38.414Z</time></trkpt><trkpt lat="40.9411767" lon="14.299215"><ele>37.0</ele><time>2026-03-28T11:40:40.413Z</time></trkpt><trkpt lat="40.94111" lon="14.2992283"><ele>37.0</ele><time>2026-03-28T11:40:42.414Z</time></trkpt><trkpt lat="40.9410367" lon="14.2992533"><ele>37.0</ele><time>2026-03-28T11:40:44.415Z</time></trkpt><trkpt lat="40.9409467" lon="14.2993033"><ele>37.0</ele><time>2026-03-28T11:40:46.414Z</time></trkpt><trkpt lat="40.9408583" lon="14.299325"><ele>37.0</ele><time>2026-03-28T11:40:48.414Z</time></trkpt><trkpt lat="40.9407733" lon="14.2993467"><ele>37.0</ele><time>2026-03-28T11:40:50.414Z</time></trkpt><trkpt lat="40.9406583" lon="14.29939"><ele>37.0</ele><time>2026-03-28T11:40:52.414Z</time></trkpt><trkpt lat="40.9405483" lon="14.2994433"><ele>37.0</ele><time>2026-03-28T11:40:54.414Z</time></trkpt><trkpt lat="40.9404333" lon="14.29947"><ele>37.0</ele><time>2026-03-28T11:40:56.414Z</time></trkpt><trkpt lat="40.9403267" lon="14.2995017"><ele>37.0</ele><time>2026-03-28T11:40:58.413Z</time></trkpt><trkpt lat="40.9402083" lon="14.299525"><ele>37.0</ele><time>2026-03-28T11:41:00.414Z</time></trkpt><trkpt lat="40.9400917" lon="14.299555"><ele>37.0</ele><time>2026-03-28T11:41:02.413Z</time></trkpt><trkpt lat="40.940025" lon="14.29958"><ele>37.0</ele><time>2026-03-28T11:41:03.413Z</time></trkpt><trkpt lat="40.939965" lon="14.2996083"><ele>37.0</ele><time>2026-03-28T11:41:04.413Z</time></trkpt><trkpt lat="40.9399" lon="14.2996467"><ele>37.0</ele><time>2026-03-28T11:41:05.414Z</time></trkpt><trkpt lat="40.9398317" lon="14.2996867"><ele>37.0</ele><time>2026-03-28T11:41:06.413Z</time></trkpt><trkpt lat="40.93976" lon="14.29973"><ele>36.833333333333336</ele><time>2026-03-28T11:41:07.414Z</time></trkpt><trkpt lat="40.939685" lon="14.2997683"><ele>36.66666666666667</ele><time>2026-03-28T11:41:08.413Z</time></trkpt><trkpt lat="40.93961" lon="14.2998033"><ele>36.5</ele><time>2026-03-28T11:41:09.416Z</time></trkpt><trkpt lat="40.939535" lon="14.2998433"><ele>36.333333333333336</ele><time>2026-03-28T11:41:10.414Z</time></trkpt><trkpt lat="40.9394617" lon="14.299885"><ele>36.166666666666664</ele><time>2026-03-28T11:41:11.413Z</time></trkpt><trkpt lat="40.93939" lon="14.2999283"><ele>36.0</ele><time>2026-03-28T11:41:12.412Z</time></trkpt><trkpt lat="40.939315" lon="14.2999733"><ele>36.0</ele><time>2026-03-28T11:41:13.417Z</time></trkpt><trkpt lat="40.939245" lon="14.3000217"><ele>36.0</ele><time>2026-03-28T11:41:14.413Z</time></trkpt><trkpt lat="40.939175" lon="14.3000717"><ele>36.0</ele><time>2026-03-28T11:41:15.416Z</time></trkpt><trkpt lat="40.939105" lon="14.3001167"><ele>36.0</ele><time>2026-03-28T11:41:16.414Z</time></trkpt><trkpt lat="40.9390333" lon="14.30016"><ele>36.0</ele><time>2026-03-28T11:41:17.414Z</time></trkpt><trkpt lat="40.9389683" lon="14.3002"><ele>36.0</ele><time>2026-03-28T11:41:18.415Z</time></trkpt><trkpt lat="40.938905" lon="14.3002383"><ele>36.2</ele><time>2026-03-28T11:41:19.414Z</time></trkpt><trkpt lat="40.93879" lon="14.3003067"><ele>36.400000000000006</ele><time>2026-03-28T11:41:21.414Z</time></trkpt><trkpt lat="40.9386667" lon="14.3003717"><ele>36.6</ele><time>2026-03-28T11:41:23.414Z</time></trkpt><trkpt lat="40.9386067" lon="14.300405"><ele>36.800000000000004</ele><time>2026-03-28T11:41:24.414Z</time></trkpt><trkpt lat="40.9385083" lon="14.300465"><ele>37.0</ele><time>2026-03-28T11:41:26.415Z</time></trkpt><trkpt lat="40.93842" lon="14.3005217"><ele>37.16666666666667</ele><time>2026-03-28T11:41:28.414Z</time></trkpt><trkpt lat="40.9383333" lon="14.3005767"><ele>37.333333333333336</ele><time>2026-03-28T11:41:30.413Z</time></trkpt><trkpt lat="40.938225" lon="14.30065"><ele>37.5</ele><time>2026-03-28T11:41:32.414Z</time></trkpt><trkpt lat="40.938165" lon="14.3006817"><ele>37.666666666666664</ele><time>2026-03-28T11:41:33.415Z</time></trkpt><trkpt lat="40.9381017" lon="14.3007083"><ele>37.83333333333333</ele><time>2026-03-28T11:41:34.414Z</time></trkpt><trkpt lat="40.9380383" lon="14.3007333"><ele>38.0</ele><time>2026-03-28T11:41:35.414Z</time></trkpt><trkpt lat="40.937975" lon="14.3007567"><ele>38.0</ele><time>2026-03-28T11:41:36.415Z</time></trkpt><trkpt lat="40.9378533" lon="14.3008017"><ele>38.0</ele><time>2026-03-28T11:41:38.415Z</time></trkpt><trkpt lat="40.93779" lon="14.3008217"><ele>38.0</ele><time>2026-03-28T11:41:39.414Z</time></trkpt><trkpt lat="40.937725" lon="14.3008433"><ele>38.0</ele><time>2026-03-28T11:41:40.413Z</time></trkpt><trkpt lat="40.9376067" lon="14.3008717"><ele>38.0</ele><time>2026-03-28T11:41:42.414Z</time></trkpt><trkpt lat="40.9375417" lon="14.300885"><ele>38.0</ele><time>2026-03-28T11:41:43.415Z</time></trkpt><trkpt lat="40.9374183" lon="14.300905"><ele>37.857142857142854</ele><time>2026-03-28T11:41:45.413Z</time></trkpt><trkpt lat="40.937355" lon="14.30091"><ele>37.714285714285715</ele><time>2026-03-28T11:41:46.414Z</time></trkpt><trkpt lat="40.9372883" lon="14.3009217"><ele>37.57142857142857</ele><time>2026-03-28T11:41:47.414Z</time></trkpt><trkpt lat="40.9372217" lon="14.300935"><ele>37.42857142857143</ele><time>2026-03-28T11:41:48.414Z</time></trkpt><trkpt lat="40.9371533" lon="14.3009483"><ele>37.285714285714285</ele><time>2026-03-28T11:41:49.415Z</time></trkpt><trkpt lat="40.9370833" lon="14.3009633"><ele>37.142857142857146</ele><time>2026-03-28T11:41:50.414Z</time></trkpt><trkpt lat="40.9370083" lon="14.3009817"><ele>37.0</ele><time>2026-03-28T11:41:51.414Z</time></trkpt><trkpt lat="40.9369333" lon="14.301"><ele>37.0</ele><time>2026-03-28T11:41:52.413Z</time></trkpt><trkpt lat="40.93686" lon="14.301015"><ele>37.0</ele><time>2026-03-28T11:41:53.414Z</time></trkpt><trkpt lat="40.9367867" lon="14.3010233"><ele>37.0</ele><time>2026-03-28T11:41:54.413Z</time></trkpt><trkpt lat="40.9367167" lon="14.30103"><ele>37.0</ele><time>2026-03-28T11:41:55.415Z</time></trkpt><trkpt lat="40.9366467" lon="14.3010433"><ele>37.0</ele><time>2026-03-28T11:41:56.414Z</time></trkpt><trkpt lat="40.936575" lon="14.3010617"><ele>37.0</ele><time>2026-03-28T11:41:57.414Z</time></trkpt><trkpt lat="40.936505" lon="14.3010767"><ele>37.0</ele><time>2026-03-28T11:41:58.414Z</time></trkpt><trkpt lat="40.9364317" lon="14.3010967"><ele>37.0</ele><time>2026-03-28T11:41:59.414Z</time></trkpt><trkpt lat="40.9363583" lon="14.3011117"><ele>37.0</ele><time>2026-03-28T11:42:00.413Z</time></trkpt><trkpt lat="40.9362867" lon="14.3011267"><ele>37.0</ele><time>2026-03-28T11:42:01.414Z</time></trkpt><trkpt lat="40.9362133" lon="14.3011417"><ele>37.0</ele><time>2026-03-28T11:42:02.414Z</time></trkpt><trkpt lat="40.936145" lon="14.3011583"><ele>37.0</ele><time>2026-03-28T11:42:03.413Z</time></trkpt><trkpt lat="40.9360717" lon="14.3011767"><ele>37.0</ele><time>2026-03-28T11:42:04.414Z</time></trkpt><trkpt lat="40.9359967" lon="14.3011917"><ele>37.0</ele><time>2026-03-28T11:42:05.414Z</time></trkpt><trkpt lat="40.93592" lon="14.301205"><ele>37.0</ele><time>2026-03-28T11:42:06.413Z</time></trkpt><trkpt lat="40.9358433" lon="14.3012167"><ele>37.0</ele><time>2026-03-28T11:42:07.414Z</time></trkpt><trkpt lat="40.9357667" lon="14.3012267"><ele>37.0</ele><time>2026-03-28T11:42:08.416Z</time></trkpt><trkpt lat="40.9356917" lon="14.3012333"><ele>37.0</ele><time>2026-03-28T11:42:09.414Z</time></trkpt><trkpt lat="40.935615" lon="14.3012367"><ele>37.0</ele><time>2026-03-28T11:42:10.414Z</time></trkpt><trkpt lat="40.93554" lon="14.30124"><ele>37.0</ele><time>2026-03-28T11:42:11.414Z</time></trkpt><trkpt lat="40.9354633" lon="14.3012367"><ele>37.0</ele><time>2026-03-28T11:42:12.414Z</time></trkpt><trkpt lat="40.93539" lon="14.3012367"><ele>37.0</ele><time>2026-03-28T11:42:13.414Z</time></trkpt><trkpt lat="40.9353133" lon="14.3012367"><ele>37.0</ele><time>2026-03-28T11:42:14.414Z</time></trkpt><trkpt lat="40.9352433" lon="14.30123"><ele>37.0</ele><time>2026-03-28T11:42:15.413Z</time></trkpt><trkpt lat="40.9351767" lon="14.301225"><ele>37.0</ele><time>2026-03-28T11:42:16.413Z</time></trkpt><trkpt lat="40.9351117" lon="14.3012183"><ele>37.0</ele><time>2026-03-28T11:42:17.414Z</time></trkpt><trkpt lat="40.9350467" lon="14.3012167"><ele>37.0</ele><time>2026-03-28T11:42:18.414Z</time></trkpt><trkpt lat="40.934925" lon="14.3012133"><ele>37.285714285714285</ele><time>2026-03-28T11:42:20.413Z</time></trkpt><trkpt lat="40.93486" lon="14.30121"><ele>37.57142857142857</ele><time>2026-03-28T11:42:21.414Z</time></trkpt><trkpt lat="40.9347933" lon="14.30121"><ele>37.85714285714286</ele><time>2026-03-28T11:42:22.415Z</time></trkpt><trkpt lat="40.934725" lon="14.3012133"><ele>38.14285714285714</ele><time>2026-03-28T11:42:23.414Z</time></trkpt><trkpt lat="40.934655" lon="14.3012133"><ele>38.42857142857142</ele><time>2026-03-28T11:42:24.413Z</time></trkpt><trkpt lat="40.9345883" lon="14.3012117"><ele>38.714285714285715</ele><time>2026-03-28T11:42:25.414Z</time></trkpt><trkpt lat="40.9345217" lon="14.30121"><ele>39.0</ele><time>2026-03-28T11:42:26.414Z</time></trkpt><trkpt lat="40.9344517" lon="14.3012117"><ele>39.0</ele><time>2026-03-28T11:42:27.414Z</time></trkpt><trkpt lat="40.9343833" lon="14.3012117"><ele>39.0</ele><time>2026-03-28T11:42:28.414Z</time></trkpt><trkpt lat="40.9342617" lon="14.3012133"><ele>39.0</ele><time>2026-03-28T11:42:30.415Z</time></trkpt><trkpt lat="40.9341983" lon="14.3012217"><ele>39.0</ele><time>2026-03-28T11:42:31.413Z</time></trkpt><trkpt lat="40.93409" lon="14.3012333"><ele>39.0</ele><time>2026-03-28T11:42:33.415Z</time></trkpt><trkpt lat="40.9339717" lon="14.301215"><ele>39.333333333333336</ele><time>2026-03-28T11:42:35.414Z</time></trkpt><trkpt lat="40.933895" lon="14.3012083"><ele>39.666666666666664</ele><time>2026-03-28T11:42:36.413Z</time></trkpt><trkpt lat="40.9338217" lon="14.3012067"><ele>40.0</ele><time>2026-03-28T11:42:37.414Z</time></trkpt><trkpt lat="40.9337433" lon="14.3012033"><ele>40.33333333333333</ele><time>2026-03-28T11:42:38.414Z</time></trkpt><trkpt lat="40.9336683" lon="14.3012067"><ele>40.666666666666664</ele><time>2026-03-28T11:42:39.414Z</time></trkpt><trkpt lat="40.933575" lon="14.3012183"><ele>41.0</ele><time>2026-03-28T11:42:40.414Z</time></trkpt><trkpt lat="40.9334983" lon="14.3012133"><ele>41.0</ele><time>2026-03-28T11:42:41.415Z</time></trkpt><trkpt lat="40.933415" lon="14.3012117"><ele>41.0</ele><time>2026-03-28T11:42:42.413Z</time></trkpt><trkpt lat="40.9333367" lon="14.3012067"><ele>41.0</ele><time>2026-03-28T11:42:43.415Z</time></trkpt><trkpt lat="40.933255" lon="14.3012033"><ele>41.0</ele><time>2026-03-28T11:42:44.414Z</time></trkpt><trkpt lat="40.9331733" lon="14.301205"><ele>41.0</ele><time>2026-03-28T11:42:45.415Z</time></trkpt><trkpt lat="40.933095" lon="14.30121"><ele>41.0</ele><time>2026-03-28T11:42:46.414Z</time></trkpt><trkpt lat="40.9330183" lon="14.301215"><ele>40.857142857142854</ele><time>2026-03-28T11:42:47.417Z</time></trkpt><trkpt lat="40.9329483" lon="14.301215"><ele>40.714285714285715</ele><time>2026-03-28T11:42:48.414Z</time></trkpt><trkpt lat="40.9328733" lon="14.3012083"><ele>40.57142857142857</ele><time>2026-03-28T11:42:49.414Z</time></trkpt><trkpt lat="40.9327983" lon="14.3012067"><ele>40.42857142857143</ele><time>2026-03-28T11:42:50.415Z</time></trkpt><trkpt lat="40.9327267" lon="14.3012067"><ele>40.285714285714285</ele><time>2026-03-28T11:42:51.414Z</time></trkpt><trkpt lat="40.9326533" lon="14.301205"><ele>40.14285714285714</ele><time>2026-03-28T11:42:52.415Z</time></trkpt><trkpt lat="40.9325817" lon="14.3012033"><ele>40.0</ele><time>2026-03-28T11:42:53.415Z</time></trkpt><trkpt lat="40.932505" lon="14.3012017"><ele>40.0</ele><time>2026-03-28T11:42:54.414Z</time></trkpt><trkpt lat="40.93243" lon="14.3011967"><ele>40.0</ele><time>2026-03-28T11:42:55.414Z</time></trkpt><trkpt lat="40.932355" lon="14.301195"><ele>40.0</ele><time>2026-03-28T11:42:56.414Z</time></trkpt><trkpt lat="40.9322833" lon="14.3011883"><ele>40.0</ele><time>2026-03-28T11:42:57.414Z</time></trkpt><trkpt lat="40.9322117" lon="14.30118"><ele>40.0</ele><time>2026-03-28T11:42:58.414Z</time></trkpt><trkpt lat="40.9321433" lon="14.301165"><ele>40.0</ele><time>2026-03-28T11:42:59.414Z</time></trkpt><trkpt lat="40.93203" lon="14.30111"><ele>40.0</ele><time>2026-03-28T11:43:01.414Z</time></trkpt><trkpt lat="40.9319267" lon="14.3010317"><ele>40.0</ele><time>2026-03-28T11:43:03.413Z</time></trkpt><trkpt lat="40.9318733" lon="14.3009833"><ele>40.0</ele><time>2026-03-28T11:43:04.414Z</time></trkpt><trkpt lat="40.9318233" lon="14.3009267"><ele>40.0</ele><time>2026-03-28T11:43:05.414Z</time></trkpt><trkpt lat="40.9317733" lon="14.3008617"><ele>40.0</ele><time>2026-03-28T11:43:06.414Z</time></trkpt><trkpt lat="40.931725" lon="14.3007933"><ele>40.0</ele><time>2026-03-28T11:43:07.413Z</time></trkpt><trkpt lat="40.9316733" lon="14.3007267"><ele>40.0</ele><time>2026-03-28T11:43:08.414Z</time></trkpt><trkpt lat="40.93162" lon="14.3006533"><ele>40.0</ele><time>2026-03-28T11:43:09.412Z</time></trkpt><trkpt lat="40.9315667" lon="14.30058"><ele>40.0</ele><time>2026-03-28T11:43:10.414Z</time></trkpt><trkpt lat="40.9315117" lon="14.3005017"><ele>40.0</ele><time>2026-03-28T11:43:11.414Z</time></trkpt><trkpt lat="40.931455" lon="14.300425"><ele>40.0</ele><time>2026-03-28T11:43:12.414Z</time></trkpt><trkpt lat="40.931395" lon="14.3003483"><ele>40.0</ele><time>2026-03-28T11:43:13.414Z</time></trkpt><trkpt lat="40.9313367" lon="14.3002683"><ele>40.0</ele><time>2026-03-28T11:43:14.414Z</time></trkpt><trkpt lat="40.9312783" lon="14.300185"><ele>40.0</ele><time>2026-03-28T11:43:15.416Z</time></trkpt><trkpt lat="40.9312183" lon="14.3000933"><ele>40.0</ele><time>2026-03-28T11:43:16.413Z</time></trkpt><trkpt lat="40.9311617" lon="14.2999983"><ele>40.0</ele><time>2026-03-28T11:43:17.414Z</time></trkpt><trkpt lat="40.9311033" lon="14.2999"><ele>40.0</ele><time>2026-03-28T11:43:18.414Z</time></trkpt><trkpt lat="40.9310417" lon="14.2998033"><ele>40.0</ele><time>2026-03-28T11:43:19.413Z</time></trkpt><trkpt lat="40.93098" lon="14.2997133"><ele>40.0</ele><time>2026-03-28T11:43:20.415Z</time></trkpt><trkpt lat="40.9309183" lon="14.2996267"><ele>40.0</ele><time>2026-03-28T11:43:21.413Z</time></trkpt><trkpt lat="40.93086" lon="14.29954"><ele>40.0</ele><time>2026-03-28T11:43:22.414Z</time></trkpt><trkpt lat="40.930805" lon="14.29946"><ele>40.0</ele><time>2026-03-28T11:43:23.414Z</time></trkpt><trkpt lat="40.9307533" lon="14.2993833"><ele>40.0</ele><time>2026-03-28T11:43:24.414Z</time></trkpt><trkpt lat="40.9307083" lon="14.2993133"><ele>40.0</ele><time>2026-03-28T11:43:25.413Z</time></trkpt><trkpt lat="40.9306267" lon="14.299215"><ele>40.0</ele><time>2026-03-28T11:43:27.414Z</time></trkpt><trkpt lat="40.93057" lon="14.2991517"><ele>40.0</ele><time>2026-03-28T11:43:29.414Z</time></trkpt><trkpt lat="40.93052" lon="14.2990833"><ele>40.0</ele><time>2026-03-28T11:43:31.414Z</time></trkpt><trkpt lat="40.930465" lon="14.29901"><ele>40.0</ele><time>2026-03-28T11:43:34.414Z</time></trkpt><trkpt lat="40.9303967" lon="14.2989267"><ele>40.0</ele><time>2026-03-28T11:43:37.414Z</time></trkpt><trkpt lat="40.930355" lon="14.2988567"><ele>40.4</ele><time>2026-03-28T11:43:39.414Z</time></trkpt><trkpt lat="40.930315" lon="14.2987667"><ele>40.8</ele><time>2026-03-28T11:43:41.414Z</time></trkpt><trkpt lat="40.93027" lon="14.2986667"><ele>41.2</ele><time>2026-03-28T11:43:43.415Z</time></trkpt><trkpt lat="40.9302217" lon="14.2985483"><ele>41.6</ele><time>2026-03-28T11:43:45.415Z</time></trkpt><trkpt lat="40.9301867" lon="14.2984233"><ele>42.0</ele><time>2026-03-28T11:43:47.414Z</time></trkpt><trkpt lat="40.93016" lon="14.298315"><ele>42.0</ele><time>2026-03-28T11:43:49.414Z</time></trkpt><trkpt lat="40.930125" lon="14.2982183"><ele>42.0</ele><time>2026-03-28T11:43:51.413Z</time></trkpt><trkpt lat="40.9300817" lon="14.2981433"><ele>42.0</ele><time>2026-03-28T11:43:53.415Z</time></trkpt><trkpt lat="40.9300183" lon="14.2981317"><ele>42.0</ele><time>2026-03-28T11:43:55.416Z</time></trkpt><trkpt lat="40.92994" lon="14.2981833"><ele>42.0</ele><time>2026-03-28T11:43:57.414Z</time></trkpt><trkpt lat="40.9298283" lon="14.298215"><ele>42.0</ele><time>2026-03-28T11:43:59.414Z</time></trkpt><trkpt lat="40.929705" lon="14.2982467"><ele>42.0</ele><time>2026-03-28T11:44:01.414Z</time></trkpt><trkpt lat="40.9296367" lon="14.2982617"><ele>42.0</ele><time>2026-03-28T11:44:02.415Z</time></trkpt><trkpt lat="40.9295717" lon="14.29827"><ele>42.0</ele><time>2026-03-28T11:44:03.414Z</time></trkpt><trkpt lat="40.929445" lon="14.29828"><ele>42.0</ele><time>2026-03-28T11:44:05.417Z</time></trkpt><trkpt lat="40.9293733" lon="14.298295"><ele>42.0</ele><time>2026-03-28T11:44:06.414Z</time></trkpt><trkpt lat="40.9293" lon="14.298305"><ele>42.0</ele><time>2026-03-28T11:44:07.416Z</time></trkpt><trkpt lat="40.92923" lon="14.298315"><ele>42.0</ele><time>2026-03-28T11:44:08.414Z</time></trkpt><trkpt lat="40.9291567" lon="14.29833"><ele>42.0</ele><time>2026-03-28T11:44:09.414Z</time></trkpt><trkpt lat="40.9290783" lon="14.29834"><ele>42.0</ele><time>2026-03-28T11:44:10.415Z</time></trkpt><trkpt lat="40.9289967" lon="14.298345"><ele>42.0</ele><time>2026-03-28T11:44:11.415Z</time></trkpt><trkpt lat="40.9289133" lon="14.2983517"><ele>42.0</ele><time>2026-03-28T11:44:12.414Z</time></trkpt><trkpt lat="40.92883" lon="14.2983683"><ele>42.0</ele><time>2026-03-28T11:44:13.414Z</time></trkpt><trkpt lat="40.9287467" lon="14.2983883"><ele>42.0</ele><time>2026-03-28T11:44:14.419Z</time></trkpt><trkpt lat="40.928665" lon="14.2984017"><ele>42.0</ele><time>2026-03-28T11:44:15.414Z</time></trkpt><trkpt lat="40.9285867" lon="14.2984167"><ele>42.0</ele><time>2026-03-28T11:44:16.414Z</time></trkpt><trkpt lat="40.9285167" lon="14.298425"><ele>42.0</ele><time>2026-03-28T11:44:17.413Z</time></trkpt><trkpt lat="40.9283933" lon="14.2984483"><ele>42.0</ele><time>2026-03-28T11:44:19.414Z</time></trkpt><trkpt lat="40.92833" lon="14.2984583"><ele>42.0</ele><time>2026-03-28T11:44:20.414Z</time></trkpt><trkpt lat="40.92822" lon="14.2984483"><ele>42.166666666666664</ele><time>2026-03-28T11:44:22.414Z</time></trkpt><trkpt lat="40.928095" lon="14.2984433"><ele>42.333333333333336</ele><time>2026-03-28T11:44:24.414Z</time></trkpt><trkpt lat="40.9280317" lon="14.29845"><ele>42.5</ele><time>2026-03-28T11:44:25.413Z</time></trkpt><trkpt lat="40.9279683" lon="14.29846"><ele>42.66666666666667</ele><time>2026-03-28T11:44:26.414Z</time></trkpt><trkpt lat="40.9279017" lon="14.2984783"><ele>42.833333333333336</ele><time>2026-03-28T11:44:27.414Z</time></trkpt><trkpt lat="40.9278333" lon="14.2984983"><ele>43.0</ele><time>2026-03-28T11:44:28.414Z</time></trkpt><trkpt lat="40.9277683" lon="14.2985167"><ele>43.0</ele><time>2026-03-28T11:44:29.414Z</time></trkpt><trkpt lat="40.9276533" lon="14.2985367"><ele>43.0</ele><time>2026-03-28T11:44:31.414Z</time></trkpt><trkpt lat="40.9275383" lon="14.2985483"><ele>43.0</ele><time>2026-03-28T11:44:33.414Z</time></trkpt><trkpt lat="40.927425" lon="14.2985533"><ele>43.0</ele><time>2026-03-28T11:44:35.414Z</time></trkpt><trkpt lat="40.9273267" lon="14.298515"><ele>43.0</ele><time>2026-03-28T11:44:37.414Z</time></trkpt><trkpt lat="40.9272333" lon="14.298475"><ele>43.0</ele><time>2026-03-28T11:44:39.415Z</time></trkpt><trkpt lat="40.9271417" lon="14.2984867"><ele>43.0</ele><time>2026-03-28T11:44:41.414Z</time></trkpt><trkpt lat="40.927035" lon="14.2985267"><ele>43.0</ele><time>2026-03-28T11:44:43.414Z</time></trkpt><trkpt lat="40.9269233" lon="14.2985517"><ele>43.0</ele><time>2026-03-28T11:44:45.414Z</time></trkpt><trkpt lat="40.9268583" lon="14.2985633"><ele>43.0</ele><time>2026-03-28T11:44:46.414Z</time></trkpt><trkpt lat="40.9267917" lon="14.2985733"><ele>43.0</ele><time>2026-03-28T11:44:47.415Z</time></trkpt><trkpt lat="40.92672" lon="14.2985817"><ele>43.333333333333336</ele><time>2026-03-28T11:44:48.414Z</time></trkpt><trkpt lat="40.9266483" lon="14.2985917"><ele>43.66666666666667</ele><time>2026-03-28T11:44:49.414Z</time></trkpt><trkpt lat="40.9265717" lon="14.2986"><ele>44.0</ele><time>2026-03-28T11:44:50.414Z</time></trkpt><trkpt lat="40.9264933" lon="14.298605"><ele>44.333333333333336</ele><time>2026-03-28T11:44:51.414Z</time></trkpt><trkpt lat="40.9264117" lon="14.2986133"><ele>44.666666666666664</ele><time>2026-03-28T11:44:52.414Z</time></trkpt><trkpt lat="40.9263317" lon="14.2986183"><ele>45.0</ele><time>2026-03-28T11:44:53.414Z</time></trkpt><trkpt lat="40.9262517" lon="14.2986217"><ele>45.0</ele><time>2026-03-28T11:44:54.415Z</time></trkpt><trkpt lat="40.9261717" lon="14.2986233"><ele>45.0</ele><time>2026-03-28T11:44:55.414Z</time></trkpt><trkpt lat="40.9260883" lon="14.2986217"><ele>45.0</ele><time>2026-03-28T11:44:56.414Z</time></trkpt><trkpt lat="40.9260067" lon="14.2986233"><ele>45.0</ele><time>2026-03-28T11:44:57.414Z</time></trkpt><trkpt lat="40.9259233" lon="14.2986217"><ele>45.0</ele><time>2026-03-28T11:44:58.414Z</time></trkpt><trkpt lat="40.9258417" lon="14.2986183"><ele>45.0</ele><time>2026-03-28T11:44:59.416Z</time></trkpt><trkpt lat="40.9257617" lon="14.2986117"><ele>45.333333333333336</ele><time>2026-03-28T11:45:00.414Z</time></trkpt><trkpt lat="40.92568" lon="14.2985983"><ele>45.666666666666664</ele><time>2026-03-28T11:45:01.416Z</time></trkpt><trkpt lat="40.9255933" lon="14.2985867"><ele>46.0</ele><time>2026-03-28T11:45:02.414Z</time></trkpt><trkpt lat="40.925515" lon="14.2985717"><ele>46.33333333333333</ele><time>2026-03-28T11:45:03.417Z</time></trkpt><trkpt lat="40.9254417" lon="14.298545"><ele>46.666666666666664</ele><time>2026-03-28T11:45:04.413Z</time></trkpt><trkpt lat="40.92537" lon="14.29852"><ele>47.0</ele><time>2026-03-28T11:45:05.414Z</time></trkpt><trkpt lat="40.9253017" lon="14.2984917"><ele>47.0</ele><time>2026-03-28T11:45:06.414Z</time></trkpt><trkpt lat="40.9252283" lon="14.2984617"><ele>47.0</ele><time>2026-03-28T11:45:07.414Z</time></trkpt><trkpt lat="40.9251567" lon="14.2984317"><ele>47.0</ele><time>2026-03-28T11:45:08.414Z</time></trkpt><trkpt lat="40.925085" lon="14.2984"><ele>47.0</ele><time>2026-03-28T11:45:09.418Z</time></trkpt><trkpt lat="40.9250167" lon="14.2983667"><ele>47.0</ele><time>2026-03-28T11:45:10.415Z</time></trkpt><trkpt lat="40.9249467" lon="14.2983483"><ele>47.0</ele><time>2026-03-28T11:45:11.415Z</time></trkpt><trkpt lat="40.9248867" lon="14.2983117"><ele>47.0</ele><time>2026-03-28T11:45:12.416Z</time></trkpt><trkpt lat="40.92479" lon="14.2982067"><ele>46.75</ele><time>2026-03-28T11:45:14.414Z</time></trkpt><trkpt lat="40.924705" lon="14.298085"><ele>46.5</ele><time>2026-03-28T11:45:16.414Z</time></trkpt><trkpt lat="40.924625" lon="14.2979633"><ele>46.25</ele><time>2026-03-28T11:45:18.415Z</time></trkpt><trkpt lat="40.9245617" lon="14.2978367"><ele>46.0</ele><time>2026-03-28T11:45:20.414Z</time></trkpt><trkpt lat="40.9244967" lon="14.2977183"><ele>46.0</ele><time>2026-03-28T11:45:22.416Z</time></trkpt><trkpt lat="40.9244283" lon="14.2975967"><ele>46.0</ele><time>2026-03-28T11:45:24.414Z</time></trkpt><trkpt lat="40.9243583" lon="14.2974667"><ele>46.0</ele><time>2026-03-28T11:45:26.415Z</time></trkpt><trkpt lat="40.9242917" lon="14.2973267"><ele>46.0</ele><time>2026-03-28T11:45:28.416Z</time></trkpt><trkpt lat="40.9242233" lon="14.2972"><ele>46.16666666666667</ele><time>2026-03-28T11:45:30.417Z</time></trkpt><trkpt lat="40.9241767" lon="14.2971083"><ele>46.333333333333336</ele><time>2026-03-28T11:45:32.414Z</time></trkpt><trkpt lat="40.9241383" lon="14.2970267"><ele>46.5</ele><time>2026-03-28T11:45:34.414Z</time></trkpt><trkpt lat="40.9240967" lon="14.29694"><ele>46.666666666666664</ele><time>2026-03-28T11:45:36.414Z</time></trkpt><trkpt lat="40.92404" lon="14.2968367"><ele>46.83333333333333</ele><time>2026-03-28T11:45:38.414Z</time></trkpt><trkpt lat="40.92397" lon="14.2967217"><ele>47.0</ele><time>2026-03-28T11:45:40.414Z</time></trkpt><trkpt lat="40.9239033" lon="14.2965933"><ele>47.0</ele><time>2026-03-28T11:45:42.414Z</time></trkpt><trkpt lat="40.9238683" lon="14.2965233"><ele>47.0</ele><time>2026-03-28T11:45:43.415Z</time></trkpt><trkpt lat="40.9237983" lon="14.2963917"><ele>47.0</ele><time>2026-03-28T11:45:45.417Z</time></trkpt><trkpt lat="40.92373" lon="14.2962683"><ele>47.0</ele><time>2026-03-28T11:45:47.415Z</time></trkpt><trkpt lat="40.9236683" lon="14.296135"><ele>47.0</ele><time>2026-03-28T11:45:49.414Z</time></trkpt><trkpt lat="40.9235967" lon="14.29601"><ele>47.0</ele><time>2026-03-28T11:45:51.414Z</time></trkpt><trkpt lat="40.923555" lon="14.2959433"><ele>47.0</ele><time>2026-03-28T11:45:52.414Z</time></trkpt><trkpt lat="40.9235183" lon="14.295875"><ele>47.0</ele><time>2026-03-28T11:45:53.415Z</time></trkpt><trkpt lat="40.9234417" lon="14.2957433"><ele>47.0</ele><time>2026-03-28T11:45:55.414Z</time></trkpt><trkpt lat="40.9234" lon="14.2956733"><ele>47.0</ele><time>2026-03-28T11:45:56.414Z</time></trkpt><trkpt lat="40.9233617" lon="14.2956"><ele>47.0</ele><time>2026-03-28T11:45:57.414Z</time></trkpt><trkpt lat="40.92332" lon="14.2955283"><ele>47.42857142857143</ele><time>2026-03-28T11:45:58.414Z</time></trkpt><trkpt lat="40.923285" lon="14.2954467"><ele>47.857142857142854</ele><time>2026-03-28T11:45:59.413Z</time></trkpt><trkpt lat="40.9232433" lon="14.29537"><ele>48.28571428571429</ele><time>2026-03-28T11:46:00.416Z</time></trkpt><trkpt lat="40.9232" lon="14.2952933"><ele>48.714285714285715</ele><time>2026-03-28T11:46:01.414Z</time></trkpt><trkpt lat="40.9231583" lon="14.2952167"><ele>49.142857142857146</ele><time>2026-03-28T11:46:02.414Z</time></trkpt><trkpt lat="40.9231083" lon="14.2951367"><ele>49.57142857142858</ele><time>2026-03-28T11:46:03.414Z</time></trkpt><trkpt lat="40.9230583" lon="14.2950533"><ele>50.0</ele><time>2026-03-28T11:46:04.415Z</time></trkpt><trkpt lat="40.92301" lon="14.2949683"><ele>50.00000000000001</ele><time>2026-03-28T11:46:05.414Z</time></trkpt><trkpt lat="40.9229567" lon="14.2948817"><ele>50.0</ele><time>2026-03-28T11:46:06.416Z</time></trkpt><trkpt lat="40.9229" lon="14.2947917"><ele>50.0</ele><time>2026-03-28T11:46:07.415Z</time></trkpt><trkpt lat="40.92284" lon="14.2947017"><ele>50.0</ele><time>2026-03-28T11:46:08.414Z</time></trkpt><trkpt lat="40.9227783" lon="14.2946133"><ele>50.00000000000001</ele><time>2026-03-28T11:46:09.414Z</time></trkpt><trkpt lat="40.92271" lon="14.29453"><ele>50.0</ele><time>2026-03-28T11:46:10.414Z</time></trkpt><trkpt lat="40.9226367" lon="14.294445"><ele>50.16666666666667</ele><time>2026-03-28T11:46:11.413Z</time></trkpt><trkpt lat="40.9225567" lon="14.2943833"><ele>50.333333333333336</ele><time>2026-03-28T11:46:12.414Z</time></trkpt><trkpt lat="40.9224767" lon="14.294335"><ele>50.5</ele><time>2026-03-28T11:46:13.413Z</time></trkpt><trkpt lat="40.9223917" lon="14.294295"><ele>50.66666666666667</ele><time>2026-03-28T11:46:14.413Z</time></trkpt><trkpt lat="40.9223083" lon="14.29426"><ele>50.833333333333336</ele><time>2026-03-28T11:46:15.413Z</time></trkpt><trkpt lat="40.92223" lon="14.2942267"><ele>51.0</ele><time>2026-03-28T11:46:16.413Z</time></trkpt><trkpt lat="40.92215" lon="14.2941983"><ele>51.0</ele><time>2026-03-28T11:46:17.414Z</time></trkpt><trkpt lat="40.92207" lon="14.29417"><ele>51.0</ele><time>2026-03-28T11:46:18.413Z</time></trkpt><trkpt lat="40.921995" lon="14.29414"><ele>51.0</ele><time>2026-03-28T11:46:19.413Z</time></trkpt><trkpt lat="40.9219233" lon="14.2941083"><ele>51.0</ele><time>2026-03-28T11:46:20.413Z</time></trkpt><trkpt lat="40.9218533" lon="14.294075"><ele>51.0</ele><time>2026-03-28T11:46:21.413Z</time></trkpt><trkpt lat="40.9217817" lon="14.29405"><ele>51.0</ele><time>2026-03-28T11:46:22.414Z</time></trkpt><trkpt lat="40.92171" lon="14.29403"><ele>51.142857142857146</ele><time>2026-03-28T11:46:23.413Z</time></trkpt><trkpt lat="40.9216433" lon="14.294005"><ele>51.28571428571429</ele><time>2026-03-28T11:46:24.414Z</time></trkpt><trkpt lat="40.9215733" lon="14.2939817"><ele>51.42857142857143</ele><time>2026-03-28T11:46:25.413Z</time></trkpt><trkpt lat="40.9215067" lon="14.2939533"><ele>51.57142857142857</ele><time>2026-03-28T11:46:26.414Z</time></trkpt><trkpt lat="40.92144" lon="14.2939367"><ele>51.714285714285715</ele><time>2026-03-28T11:46:27.415Z</time></trkpt><trkpt lat="40.9213767" lon="14.2939217"><ele>51.857142857142854</ele><time>2026-03-28T11:46:28.413Z</time></trkpt><trkpt lat="40.921315" lon="14.2938983"><ele>52.0</ele><time>2026-03-28T11:46:29.412Z</time></trkpt><trkpt lat="40.9212533" lon="14.2938767"><ele>52.0</ele><time>2026-03-28T11:46:30.413Z</time></trkpt><trkpt lat="40.921135" lon="14.2938267"><ele>52.0</ele><time>2026-03-28T11:46:32.413Z</time></trkpt><trkpt lat="40.9210183" lon="14.2937633"><ele>52.0</ele><time>2026-03-28T11:46:34.413Z</time></trkpt><trkpt lat="40.9209583" lon="14.2937317"><ele>52.0</ele><time>2026-03-28T11:46:35.414Z</time></trkpt><trkpt lat="40.9208983" lon="14.2936983"><ele>52.0</ele><time>2026-03-28T11:46:36.413Z</time></trkpt><trkpt lat="40.9207933" lon="14.2936117"><ele>52.25</ele><time>2026-03-28T11:46:38.415Z</time></trkpt><trkpt lat="40.92069" lon="14.2935133"><ele>52.5</ele><time>2026-03-28T11:46:40.413Z</time></trkpt><trkpt lat="40.920585" lon="14.293425"><ele>52.75</ele><time>2026-03-28T11:46:42.413Z</time></trkpt><trkpt lat="40.920485" lon="14.293345"><ele>53.0</ele><time>2026-03-28T11:46:44.413Z</time></trkpt><trkpt lat="40.92039" lon="14.293265"><ele>53.00000000000001</ele><time>2026-03-28T11:46:46.413Z</time></trkpt><trkpt lat="40.9202933" lon="14.29317"><ele>53.0</ele><time>2026-03-28T11:46:48.413Z</time></trkpt><trkpt lat="40.9201967" lon="14.2930567"><ele>53.0</ele><time>2026-03-28T11:46:50.414Z</time></trkpt><trkpt lat="40.920145" lon="14.2930017"><ele>53.0</ele><time>2026-03-28T11:46:51.413Z</time></trkpt><trkpt lat="40.9200883" lon="14.292955"><ele>53.00000000000001</ele><time>2026-03-28T11:46:52.413Z</time></trkpt><trkpt lat="40.920035" lon="14.2929033"><ele>53.0</ele><time>2026-03-28T11:46:53.414Z</time></trkpt><trkpt lat="40.919985" lon="14.2928467"><ele>53.0</ele><time>2026-03-28T11:46:54.417Z</time></trkpt><trkpt lat="40.91994" lon="14.292785"><ele>53.0</ele><time>2026-03-28T11:46:55.414Z</time></trkpt><trkpt lat="40.9198933" lon="14.2927217"><ele>53.0</ele><time>2026-03-28T11:46:56.412Z</time></trkpt><trkpt lat="40.9198383" lon="14.2926633"><ele>53.0</ele><time>2026-03-28T11:46:57.413Z</time></trkpt><trkpt lat="40.9197817" lon="14.292615"><ele>53.0</ele><time>2026-03-28T11:46:58.413Z</time></trkpt><trkpt lat="40.9197217" lon="14.2925633"><ele>53.0</ele><time>2026-03-28T11:46:59.414Z</time></trkpt><trkpt lat="40.9196633" lon="14.2925133"><ele>53.0</ele><time>2026-03-28T11:47:00.414Z</time></trkpt><trkpt lat="40.9196" lon="14.29247"><ele>53.0</ele><time>2026-03-28T11:47:01.414Z</time></trkpt><trkpt lat="40.91953" lon="14.2924317"><ele>53.0</ele><time>2026-03-28T11:47:02.413Z</time></trkpt><trkpt lat="40.9194617" lon="14.2924"><ele>53.0</ele><time>2026-03-28T11:47:03.413Z</time></trkpt><trkpt lat="40.9193967" lon="14.2923717"><ele>53.0</ele><time>2026-03-28T11:47:04.414Z</time></trkpt><trkpt lat="40.9193333" lon="14.2923417"><ele>53.0</ele><time>2026-03-28T11:47:05.413Z</time></trkpt><trkpt lat="40.9192717" lon="14.2923133"><ele>53.0</ele><time>2026-03-28T11:47:06.413Z</time></trkpt><trkpt lat="40.9192117" lon="14.292285"><ele>53.0</ele><time>2026-03-28T11:47:07.413Z</time></trkpt><trkpt lat="40.9191483" lon="14.29226"><ele>53.333333333333336</ele><time>2026-03-28T11:47:08.413Z</time></trkpt><trkpt lat="40.9190833" lon="14.2922333"><ele>53.66666666666667</ele><time>2026-03-28T11:47:09.414Z</time></trkpt><trkpt lat="40.918965" lon="14.2921767"><ele>54.0</ele><time>2026-03-28T11:47:11.414Z</time></trkpt><trkpt lat="40.9189017" lon="14.292145"><ele>54.33333333333333</ele><time>2026-03-28T11:47:12.413Z</time></trkpt><trkpt lat="40.9188333" lon="14.2921133"><ele>54.666666666666664</ele><time>2026-03-28T11:47:13.414Z</time></trkpt><trkpt lat="40.91877" lon="14.2920817"><ele>55.0</ele><time>2026-03-28T11:47:14.414Z</time></trkpt><trkpt lat="40.9186983" lon="14.2920483"><ele>54.99999999999999</ele><time>2026-03-28T11:47:15.413Z</time></trkpt><trkpt lat="40.9186217" lon="14.2920183"><ele>55.0</ele><time>2026-03-28T11:47:16.413Z</time></trkpt><trkpt lat="40.9185433" lon="14.291985"><ele>55.0</ele><time>2026-03-28T11:47:17.415Z</time></trkpt><trkpt lat="40.91847" lon="14.2919567"><ele>55.0</ele><time>2026-03-28T11:47:18.412Z</time></trkpt><trkpt lat="40.9183983" lon="14.2919317"><ele>54.99999999999999</ele><time>2026-03-28T11:47:19.413Z</time></trkpt><trkpt lat="40.9183267" lon="14.2919017"><ele>55.0</ele><time>2026-03-28T11:47:20.414Z</time></trkpt><trkpt lat="40.9182533" lon="14.2918733"><ele>54.99999999999999</ele><time>2026-03-28T11:47:21.415Z</time></trkpt><trkpt lat="40.9181817" lon="14.29184"><ele>55.0</ele><time>2026-03-28T11:47:22.413Z</time></trkpt><trkpt lat="40.9181117" lon="14.291805"><ele>55.0</ele><time>2026-03-28T11:47:23.414Z</time></trkpt><trkpt lat="40.9180383" lon="14.2917733"><ele>55.0</ele><time>2026-03-28T11:47:24.414Z</time></trkpt><trkpt lat="40.9179633" lon="14.2917367"><ele>54.99999999999999</ele><time>2026-03-28T11:47:25.413Z</time></trkpt><trkpt lat="40.91789" lon="14.291695"><ele>55.0</ele><time>2026-03-28T11:47:26.413Z</time></trkpt><trkpt lat="40.9178183" lon="14.291655"><ele>54.99999999999999</ele><time>2026-03-28T11:47:27.414Z</time></trkpt><trkpt lat="40.9177467" lon="14.2916117"><ele>55.0</ele><time>2026-03-28T11:47:28.414Z</time></trkpt><trkpt lat="40.917675" lon="14.2915683"><ele>55.0</ele><time>2026-03-28T11:47:29.414Z</time></trkpt><trkpt lat="40.917605" lon="14.2915283"><ele>55.0</ele><time>2026-03-28T11:47:30.414Z</time></trkpt><trkpt lat="40.9175417" lon="14.2914883"><ele>55.0</ele><time>2026-03-28T11:47:31.414Z</time></trkpt><trkpt lat="40.9174817" lon="14.2914417"><ele>54.99999999999999</ele><time>2026-03-28T11:47:32.412Z</time></trkpt><trkpt lat="40.91742" lon="14.2914"><ele>55.0</ele><time>2026-03-28T11:47:33.413Z</time></trkpt><trkpt lat="40.91736" lon="14.2913567"><ele>55.33333333333333</ele><time>2026-03-28T11:47:34.414Z</time></trkpt><trkpt lat="40.9173033" lon="14.2913133"><ele>55.666666666666664</ele><time>2026-03-28T11:47:35.414Z</time></trkpt><trkpt lat="40.9172483" lon="14.2912717"><ele>56.0</ele><time>2026-03-28T11:47:36.414Z</time></trkpt><trkpt lat="40.9171567" lon="14.2911983"><ele>56.33333333333333</ele><time>2026-03-28T11:47:38.414Z</time></trkpt><trkpt lat="40.9170767" lon="14.2911233"><ele>56.666666666666664</ele><time>2026-03-28T11:47:40.414Z</time></trkpt><trkpt lat="40.91699" lon="14.291065"><ele>57.0</ele><time>2026-03-28T11:47:42.415Z</time></trkpt><trkpt lat="40.91689" lon="14.2910033"><ele>57.0</ele><time>2026-03-28T11:47:44.413Z</time></trkpt><trkpt lat="40.9167817" lon="14.290935"><ele>57.0</ele><time>2026-03-28T11:47:46.414Z</time></trkpt><trkpt lat="40.9166667" lon="14.2908767"><ele>57.0</ele><time>2026-03-28T11:47:48.413Z</time></trkpt><trkpt lat="40.916605" lon="14.290845"><ele>57.0</ele><time>2026-03-28T11:47:49.413Z</time></trkpt><trkpt lat="40.91654" lon="14.29081"><ele>57.0</ele><time>2026-03-28T11:47:50.413Z</time></trkpt><trkpt lat="40.9164733" lon="14.2907767"><ele>57.0</ele><time>2026-03-28T11:47:51.413Z</time></trkpt><trkpt lat="40.9164083" lon="14.2907367"><ele>56.99999999999999</ele><time>2026-03-28T11:47:52.414Z</time></trkpt><trkpt lat="40.916345" lon="14.2907017"><ele>57.0</ele><time>2026-03-28T11:47:53.414Z</time></trkpt><trkpt lat="40.916275" lon="14.2906717"><ele>57.0</ele><time>2026-03-28T11:47:54.414Z</time></trkpt><trkpt lat="40.916205" lon="14.2906383"><ele>56.99999999999999</ele><time>2026-03-28T11:47:55.414Z</time></trkpt><trkpt lat="40.91613" lon="14.2906017"><ele>57.0</ele><time>2026-03-28T11:47:56.414Z</time></trkpt><trkpt lat="40.9160517" lon="14.2905767"><ele>57.0</ele><time>2026-03-28T11:47:57.414Z</time></trkpt><trkpt lat="40.9159733" lon="14.2905583"><ele>57.333333333333336</ele><time>2026-03-28T11:47:58.414Z</time></trkpt><trkpt lat="40.91589" lon="14.290545"><ele>57.66666666666667</ele><time>2026-03-28T11:47:59.413Z</time></trkpt><trkpt lat="40.915805" lon="14.290535"><ele>58.0</ele><time>2026-03-28T11:48:00.413Z</time></trkpt><trkpt lat="40.9157233" lon="14.2905233"><ele>58.333333333333336</ele><time>2026-03-28T11:48:01.415Z</time></trkpt><trkpt lat="40.9156417" lon="14.2905183"><ele>58.66666666666667</ele><time>2026-03-28T11:48:02.413Z</time></trkpt><trkpt lat="40.9155583" lon="14.2905167"><ele>59.0</ele><time>2026-03-28T11:48:03.413Z</time></trkpt><trkpt lat="40.915475" lon="14.290515"><ele>59.00000000000001</ele><time>2026-03-28T11:48:04.413Z</time></trkpt><trkpt lat="40.915395" lon="14.2905133"><ele>59.0</ele><time>2026-03-28T11:48:05.414Z</time></trkpt><trkpt lat="40.9153117" lon="14.29051"><ele>59.0</ele><time>2026-03-28T11:48:06.413Z</time></trkpt><trkpt lat="40.915225" lon="14.2905133"><ele>59.0</ele><time>2026-03-28T11:48:07.415Z</time></trkpt><trkpt lat="40.9151417" lon="14.2905167"><ele>59.00000000000001</ele><time>2026-03-28T11:48:08.413Z</time></trkpt><trkpt lat="40.9150583" lon="14.2905167"><ele>59.0</ele><time>2026-03-28T11:48:09.414Z</time></trkpt><trkpt lat="40.9149767" lon="14.290515"><ele>59.16666666666667</ele><time>2026-03-28T11:48:10.414Z</time></trkpt><trkpt lat="40.9148917" lon="14.29052"><ele>59.333333333333336</ele><time>2026-03-28T11:48:11.414Z</time></trkpt><trkpt lat="40.9148067" lon="14.2905333"><ele>59.5</ele><time>2026-03-28T11:48:12.415Z</time></trkpt><trkpt lat="40.91473" lon="14.2905367"><ele>59.66666666666667</ele><time>2026-03-28T11:48:13.414Z</time></trkpt><trkpt lat="40.91465" lon="14.290545"><ele>59.833333333333336</ele><time>2026-03-28T11:48:14.414Z</time></trkpt><trkpt lat="40.9145683" lon="14.2905517"><ele>60.0</ele><time>2026-03-28T11:48:15.413Z</time></trkpt><trkpt lat="40.9144867" lon="14.2905567"><ele>60.0</ele><time>2026-03-28T11:48:16.414Z</time></trkpt><trkpt lat="40.91441" lon="14.290555"><ele>60.0</ele><time>2026-03-28T11:48:17.415Z</time></trkpt><trkpt lat="40.9143333" lon="14.2905467"><ele>60.0</ele><time>2026-03-28T11:48:18.414Z</time></trkpt><trkpt lat="40.9142583" lon="14.2905317"><ele>60.0</ele><time>2026-03-28T11:48:19.414Z</time></trkpt><trkpt lat="40.914185" lon="14.2905167"><ele>60.0</ele><time>2026-03-28T11:48:20.415Z</time></trkpt><trkpt lat="40.9141083" lon="14.2905017"><ele>60.0</ele><time>2026-03-28T11:48:21.413Z</time></trkpt><trkpt lat="40.91403" lon="14.2904833"><ele>60.333333333333336</ele><time>2026-03-28T11:48:22.414Z</time></trkpt><trkpt lat="40.9139517" lon="14.290465"><ele>60.66666666666667</ele><time>2026-03-28T11:48:23.413Z</time></trkpt><trkpt lat="40.9138767" lon="14.2904467"><ele>61.0</ele><time>2026-03-28T11:48:24.414Z</time></trkpt><trkpt lat="40.9138017" lon="14.2904267"><ele>61.333333333333336</ele><time>2026-03-28T11:48:25.414Z</time></trkpt><trkpt lat="40.9137233" lon="14.290405"><ele>61.66666666666667</ele><time>2026-03-28T11:48:26.414Z</time></trkpt><trkpt lat="40.913645" lon="14.290385"><ele>62.0</ele><time>2026-03-28T11:48:27.414Z</time></trkpt><trkpt lat="40.9135733" lon="14.290365"><ele>62.00000000000001</ele><time>2026-03-28T11:48:28.414Z</time></trkpt><trkpt lat="40.9134983" lon="14.29034"><ele>62.0</ele><time>2026-03-28T11:48:29.414Z</time></trkpt><trkpt lat="40.9134267" lon="14.29031"><ele>62.0</ele><time>2026-03-28T11:48:30.412Z</time></trkpt><trkpt lat="40.9133583" lon="14.2902783"><ele>62.0</ele><time>2026-03-28T11:48:31.414Z</time></trkpt><trkpt lat="40.9132933" lon="14.29024"><ele>62.00000000000001</ele><time>2026-03-28T11:48:32.414Z</time></trkpt><trkpt lat="40.91322" lon="14.2902017"><ele>62.0</ele><time>2026-03-28T11:48:33.415Z</time></trkpt><trkpt lat="40.9131467" lon="14.2901633"><ele>62.16666666666667</ele><time>2026-03-28T11:48:34.414Z</time></trkpt><trkpt lat="40.913075" lon="14.2901233"><ele>62.333333333333336</ele><time>2026-03-28T11:48:35.414Z</time></trkpt><trkpt lat="40.913005" lon="14.290085"><ele>62.5</ele><time>2026-03-28T11:48:36.414Z</time></trkpt><trkpt lat="40.912935" lon="14.2900433"><ele>62.66666666666667</ele><time>2026-03-28T11:48:37.413Z</time></trkpt><trkpt lat="40.9128683" lon="14.2899983"><ele>62.833333333333336</ele><time>2026-03-28T11:48:38.413Z</time></trkpt><trkpt lat="40.9128" lon="14.2899483"><ele>63.0</ele><time>2026-03-28T11:48:39.413Z</time></trkpt><trkpt lat="40.91273" lon="14.289895"><ele>63.0</ele><time>2026-03-28T11:48:40.413Z</time></trkpt><trkpt lat="40.9126633" lon="14.289845"><ele>63.0</ele><time>2026-03-28T11:48:41.413Z</time></trkpt><trkpt lat="40.9125933" lon="14.2897967"><ele>63.0</ele><time>2026-03-28T11:48:42.413Z</time></trkpt><trkpt lat="40.91252" lon="14.2897433"><ele>63.0</ele><time>2026-03-28T11:48:43.414Z</time></trkpt><trkpt lat="40.91245" lon="14.2896917"><ele>63.0</ele><time>2026-03-28T11:48:44.414Z</time></trkpt><trkpt lat="40.912385" lon="14.2896317"><ele>63.0</ele><time>2026-03-28T11:48:45.414Z</time></trkpt><trkpt lat="40.9123183" lon="14.28957"><ele>63.0</ele><time>2026-03-28T11:48:46.414Z</time></trkpt><trkpt lat="40.91225" lon="14.28951"><ele>63.0</ele><time>2026-03-28T11:48:47.413Z</time></trkpt><trkpt lat="40.9121733" lon="14.28945"><ele>63.0</ele><time>2026-03-28T11:48:48.413Z</time></trkpt><trkpt lat="40.9121033" lon="14.289395"><ele>63.0</ele><time>2026-03-28T11:48:49.414Z</time></trkpt><trkpt lat="40.9120317" lon="14.289335"><ele>63.0</ele><time>2026-03-28T11:48:50.415Z</time></trkpt><trkpt lat="40.9119633" lon="14.289275"><ele>63.0</ele><time>2026-03-28T11:48:51.413Z</time></trkpt><trkpt lat="40.9119" lon="14.2892183"><ele>63.0</ele><time>2026-03-28T11:48:52.414Z</time></trkpt><trkpt lat="40.9118383" lon="14.2891683"><ele>63.0</ele><time>2026-03-28T11:48:53.414Z</time></trkpt><trkpt lat="40.911765" lon="14.2891217"><ele>63.0</ele><time>2026-03-28T11:48:54.414Z</time></trkpt><trkpt lat="40.9117117" lon="14.2890617"><ele>63.0</ele><time>2026-03-28T11:48:55.414Z</time></trkpt><trkpt lat="40.911615" lon="14.2889633"><ele>63.0</ele><time>2026-03-28T11:48:57.415Z</time></trkpt><trkpt lat="40.9115217" lon="14.2888683"><ele>63.0</ele><time>2026-03-28T11:48:59.414Z</time></trkpt><trkpt lat="40.9114233" lon="14.2887833"><ele>63.0</ele><time>2026-03-28T11:49:01.414Z</time></trkpt><trkpt lat="40.911325" lon="14.2886817"><ele>63.0</ele><time>2026-03-28T11:49:03.413Z</time></trkpt><trkpt lat="40.91127" lon="14.2886317"><ele>63.0</ele><time>2026-03-28T11:49:04.413Z</time></trkpt><trkpt lat="40.9112167" lon="14.2885817"><ele>63.0</ele><time>2026-03-28T11:49:05.414Z</time></trkpt><trkpt lat="40.9111583" lon="14.2885333"><ele>63.0</ele><time>2026-03-28T11:49:06.414Z</time></trkpt><trkpt lat="40.9111" lon="14.288485"><ele>63.0</ele><time>2026-03-28T11:49:07.414Z</time></trkpt><trkpt lat="40.911045" lon="14.28844"><ele>63.0</ele><time>2026-03-28T11:49:08.414Z</time></trkpt><trkpt lat="40.9109833" lon="14.2883967"><ele>63.0</ele><time>2026-03-28T11:49:09.414Z</time></trkpt><trkpt lat="40.9109283" lon="14.2883467"><ele>63.0</ele><time>2026-03-28T11:49:10.414Z</time></trkpt><trkpt lat="40.910875" lon="14.2882983"><ele>63.0</ele><time>2026-03-28T11:49:11.414Z</time></trkpt><trkpt lat="40.91082" lon="14.288255"><ele>63.0</ele><time>2026-03-28T11:49:12.414Z</time></trkpt><trkpt lat="40.910755" lon="14.288215"><ele>63.0</ele><time>2026-03-28T11:49:13.414Z</time></trkpt><trkpt lat="40.9106967" lon="14.2881717"><ele>63.0</ele><time>2026-03-28T11:49:14.414Z</time></trkpt><trkpt lat="40.91064" lon="14.288125"><ele>63.0</ele><time>2026-03-28T11:49:15.414Z</time></trkpt><trkpt lat="40.9105833" lon="14.288075"><ele>63.0</ele><time>2026-03-28T11:49:16.414Z</time></trkpt><trkpt lat="40.9105217" lon="14.288025"><ele>63.0</ele><time>2026-03-28T11:49:17.414Z</time></trkpt><trkpt lat="40.9104617" lon="14.2879783"><ele>63.0</ele><time>2026-03-28T11:49:18.413Z</time></trkpt><trkpt lat="40.910405" lon="14.2879333"><ele>63.0</ele><time>2026-03-28T11:49:19.413Z</time></trkpt><trkpt lat="40.9103467" lon="14.2878883"><ele>63.0</ele><time>2026-03-28T11:49:20.414Z</time></trkpt><trkpt lat="40.9102867" lon="14.2878433"><ele>63.0</ele><time>2026-03-28T11:49:21.414Z</time></trkpt><trkpt lat="40.9102283" lon="14.2878033"><ele>63.0</ele><time>2026-03-28T11:49:22.414Z</time></trkpt><trkpt lat="40.9101733" lon="14.2877617"><ele>63.0</ele><time>2026-03-28T11:49:23.414Z</time></trkpt><trkpt lat="40.9100717" lon="14.2876783"><ele>63.0</ele><time>2026-03-28T11:49:25.414Z</time></trkpt><trkpt lat="40.9099783" lon="14.2875917"><ele>63.0</ele><time>2026-03-28T11:49:27.413Z</time></trkpt><trkpt lat="40.9098817" lon="14.28751"><ele>64.0</ele><time>2026-03-28T11:49:29.413Z</time></trkpt><trkpt lat="40.9097867" lon="14.287435"><ele>65.0</ele><time>2026-03-28T11:49:31.416Z</time></trkpt><trkpt lat="40.9096917" lon="14.287355"><ele>66.0</ele><time>2026-03-28T11:49:33.414Z</time></trkpt><trkpt lat="40.9096" lon="14.2872733"><ele>67.0</ele><time>2026-03-28T11:49:35.414Z</time></trkpt><trkpt lat="40.9095117" lon="14.28719"><ele>68.0</ele><time>2026-03-28T11:49:37.414Z</time></trkpt><trkpt lat="40.9094283" lon="14.2871117"><ele>68.2</ele><time>2026-03-28T11:49:39.414Z</time></trkpt><trkpt lat="40.9093367" lon="14.28704"><ele>68.4</ele><time>2026-03-28T11:49:41.416Z</time></trkpt><trkpt lat="40.9092533" lon="14.2869583"><ele>68.60000000000001</ele><time>2026-03-28T11:49:43.414Z</time></trkpt><trkpt lat="40.9091667" lon="14.2868867"><ele>68.8</ele><time>2026-03-28T11:49:45.414Z</time></trkpt><trkpt lat="40.9090767" lon="14.28682"><ele>69.0</ele><time>2026-03-28T11:49:47.415Z</time></trkpt><trkpt lat="40.90898" lon="14.2867567"><ele>69.0</ele><time>2026-03-28T11:49:49.413Z</time></trkpt><trkpt lat="40.9088967" lon="14.28669"><ele>69.0</ele><time>2026-03-28T11:49:51.414Z</time></trkpt><trkpt lat="40.908805" lon="14.2866217"><ele>69.0</ele><time>2026-03-28T11:49:53.414Z</time></trkpt><trkpt lat="40.9087067" lon="14.2865583"><ele>69.0</ele><time>2026-03-28T11:49:55.414Z</time></trkpt><trkpt lat="40.9086017" lon="14.2864917"><ele>69.0</ele><time>2026-03-28T11:49:57.414Z</time></trkpt><trkpt lat="40.908495" lon="14.2864117"><ele>69.0</ele><time>2026-03-28T11:49:59.414Z</time></trkpt><trkpt lat="40.90844" lon="14.2863683"><ele>69.0</ele><time>2026-03-28T11:50:00.414Z</time></trkpt><trkpt lat="40.908385" lon="14.286325"><ele>69.0</ele><time>2026-03-28T11:50:01.414Z</time></trkpt><trkpt lat="40.90828" lon="14.2862467"><ele>69.0</ele><time>2026-03-28T11:50:03.414Z</time></trkpt><trkpt lat="40.9081783" lon="14.286165"><ele>69.0</ele><time>2026-03-28T11:50:05.415Z</time></trkpt><trkpt lat="40.9080817" lon="14.2860867"><ele>69.0</ele><time>2026-03-28T11:50:07.414Z</time></trkpt><trkpt lat="40.9079917" lon="14.2860083"><ele>69.0</ele><time>2026-03-28T11:50:09.414Z</time></trkpt><trkpt lat="40.9079067" lon="14.2859367"><ele>69.0</ele><time>2026-03-28T11:50:11.415Z</time></trkpt><trkpt lat="40.9078217" lon="14.285865"><ele>69.0</ele><time>2026-03-28T11:50:13.413Z</time></trkpt><trkpt lat="40.9077417" lon="14.28579"><ele>69.0</ele><time>2026-03-28T11:50:15.414Z</time></trkpt><trkpt lat="40.90766" lon="14.2857217"><ele>69.0</ele><time>2026-03-28T11:50:17.415Z</time></trkpt><trkpt lat="40.9075833" lon="14.2856567"><ele>69.0</ele><time>2026-03-28T11:50:19.415Z</time></trkpt><trkpt lat="40.9075033" lon="14.2855917"><ele>69.0</ele><time>2026-03-28T11:50:21.414Z</time></trkpt><trkpt lat="40.9074283" lon="14.28552"><ele>69.0</ele><time>2026-03-28T11:50:23.413Z</time></trkpt><trkpt lat="40.9073517" lon="14.2854517"><ele>69.0</ele><time>2026-03-28T11:50:25.415Z</time></trkpt><trkpt lat="40.9072667" lon="14.2853867"><ele>70.0</ele><time>2026-03-28T11:50:27.414Z</time></trkpt><trkpt lat="40.9071833" lon="14.2853183"><ele>71.0</ele><time>2026-03-28T11:50:29.414Z</time></trkpt><trkpt lat="40.9071017" lon="14.2852583"><ele>72.0</ele><time>2026-03-28T11:50:31.414Z</time></trkpt><trkpt lat="40.9070167" lon="14.2851867"><ele>73.0</ele><time>2026-03-28T11:50:33.414Z</time></trkpt><trkpt lat="40.90694" lon="14.285115"><ele>74.0</ele><time>2026-03-28T11:50:35.414Z</time></trkpt><trkpt lat="40.9068667" lon="14.2850483"><ele>74.0</ele><time>2026-03-28T11:50:37.414Z</time></trkpt><trkpt lat="40.90679" lon="14.2849933"><ele>74.0</ele><time>2026-03-28T11:50:39.414Z</time></trkpt><trkpt lat="40.90671" lon="14.2849417"><ele>74.0</ele><time>2026-03-28T11:50:41.414Z</time></trkpt><trkpt lat="40.9066267" lon="14.2848967"><ele>74.0</ele><time>2026-03-28T11:50:43.414Z</time></trkpt><trkpt lat="40.90654" lon="14.284865"><ele>74.0</ele><time>2026-03-28T11:50:45.414Z</time></trkpt><trkpt lat="40.9064333" lon="14.284825"><ele>74.8</ele><time>2026-03-28T11:50:47.414Z</time></trkpt><trkpt lat="40.9063317" lon="14.284775"><ele>75.60000000000001</ele><time>2026-03-28T11:50:49.414Z</time></trkpt><trkpt lat="40.9062267" lon="14.2847367"><ele>76.4</ele><time>2026-03-28T11:50:51.414Z</time></trkpt><trkpt lat="40.90614" lon="14.2847083"><ele>77.2</ele><time>2026-03-28T11:50:53.414Z</time></trkpt><trkpt lat="40.906035" lon="14.28469"><ele>78.0</ele><time>2026-03-28T11:50:55.414Z</time></trkpt><trkpt lat="40.9059217" lon="14.2846817"><ele>78.16666666666667</ele><time>2026-03-28T11:50:57.414Z</time></trkpt><trkpt lat="40.9058583" lon="14.2846867"><ele>78.33333333333333</ele><time>2026-03-28T11:50:58.414Z</time></trkpt><trkpt lat="40.905795" lon="14.284695"><ele>78.5</ele><time>2026-03-28T11:50:59.421Z</time></trkpt><trkpt lat="40.9057317" lon="14.2847067"><ele>78.66666666666666</ele><time>2026-03-28T11:51:00.414Z</time></trkpt><trkpt lat="40.9056083" lon="14.2847183"><ele>78.83333333333333</ele><time>2026-03-28T11:51:02.414Z</time></trkpt><trkpt lat="40.9055433" lon="14.2847317"><ele>79.0</ele><time>2026-03-28T11:51:03.416Z</time></trkpt><trkpt lat="40.90542" lon="14.2847617"><ele>79.00000000000001</ele><time>2026-03-28T11:51:05.413Z</time></trkpt><trkpt lat="40.9053567" lon="14.2847767"><ele>79.0</ele><time>2026-03-28T11:51:06.414Z</time></trkpt><trkpt lat="40.90529" lon="14.284795"><ele>79.0</ele><time>2026-03-28T11:51:07.414Z</time></trkpt><trkpt lat="40.9052267" lon="14.2848117"><ele>79.0</ele><time>2026-03-28T11:51:08.414Z</time></trkpt><trkpt lat="40.9051617" lon="14.2848183"><ele>79.0</ele><time>2026-03-28T11:51:09.415Z</time></trkpt><trkpt lat="40.9050983" lon="14.284825"><ele>79.00000000000001</ele><time>2026-03-28T11:51:10.414Z</time></trkpt><trkpt lat="40.9050333" lon="14.2848333"><ele>79.0</ele><time>2026-03-28T11:51:11.414Z</time></trkpt><trkpt lat="40.9049583" lon="14.2848417"><ele>79.00000000000001</ele><time>2026-03-28T11:51:12.413Z</time></trkpt><trkpt lat="40.9048917" lon="14.2848567"><ele>79.0</ele><time>2026-03-28T11:51:13.414Z</time></trkpt><trkpt lat="40.9048283" lon="14.2848683"><ele>79.0</ele><time>2026-03-28T11:51:14.413Z</time></trkpt><trkpt lat="40.904755" lon="14.2848833"><ele>79.0</ele><time>2026-03-28T11:51:15.414Z</time></trkpt><trkpt lat="40.9046833" lon="14.2848983"><ele>79.0</ele><time>2026-03-28T11:51:16.414Z</time></trkpt><trkpt lat="40.9046133" lon="14.284925"><ele>79.00000000000001</ele><time>2026-03-28T11:51:17.414Z</time></trkpt><trkpt lat="40.9045433" lon="14.2849417"><ele>79.0</ele><time>2026-03-28T11:51:18.414Z</time></trkpt><trkpt lat="40.904475" lon="14.28497"><ele>79.00000000000001</ele><time>2026-03-28T11:51:19.414Z</time></trkpt><trkpt lat="40.9044" lon="14.285005"><ele>79.0</ele><time>2026-03-28T11:51:20.421Z</time></trkpt><trkpt lat="40.90433" lon="14.285025"><ele>79.0</ele><time>2026-03-28T11:51:21.414Z</time></trkpt><trkpt lat="40.9042617" lon="14.2850583"><ele>79.0</ele><time>2026-03-28T11:51:22.414Z</time></trkpt><trkpt lat="40.9041917" lon="14.2850817"><ele>79.0</ele><time>2026-03-28T11:51:23.414Z</time></trkpt><trkpt lat="40.904125" lon="14.2851033"><ele>79.00000000000001</ele><time>2026-03-28T11:51:24.414Z</time></trkpt><trkpt lat="40.9040583" lon="14.2851233"><ele>79.0</ele><time>2026-03-28T11:51:25.414Z</time></trkpt><trkpt lat="40.9039933" lon="14.2851483"><ele>79.14285714285715</ele><time>2026-03-28T11:51:26.414Z</time></trkpt><trkpt lat="40.9039283" lon="14.285175"><ele>79.28571428571429</ele><time>2026-03-28T11:51:27.414Z</time></trkpt><trkpt lat="40.9038617" lon="14.285195"><ele>79.42857142857143</ele><time>2026-03-28T11:51:28.414Z</time></trkpt><trkpt lat="40.9037933" lon="14.2852117"><ele>79.57142857142858</ele><time>2026-03-28T11:51:29.413Z</time></trkpt><trkpt lat="40.90373" lon="14.28523"><ele>79.71428571428572</ele><time>2026-03-28T11:51:30.414Z</time></trkpt><trkpt lat="40.903665" lon="14.2852483"><ele>79.85714285714286</ele><time>2026-03-28T11:51:31.414Z</time></trkpt><trkpt lat="40.9036" lon="14.2852733"><ele>80.0</ele><time>2026-03-28T11:51:32.418Z</time></trkpt><trkpt lat="40.9035383" lon="14.2852983"><ele>80.0</ele><time>2026-03-28T11:51:33.413Z</time></trkpt><trkpt lat="40.9034683" lon="14.285315"><ele>80.0</ele><time>2026-03-28T11:51:34.413Z</time></trkpt><trkpt lat="40.903395" lon="14.2853383"><ele>80.0</ele><time>2026-03-28T11:51:35.413Z</time></trkpt><trkpt lat="40.903325" lon="14.28536"><ele>80.0</ele><time>2026-03-28T11:51:36.413Z</time></trkpt><trkpt lat="40.903255" lon="14.2853767"><ele>80.0</ele><time>2026-03-28T11:51:37.413Z</time></trkpt><trkpt lat="40.9031817" lon="14.2853983"><ele>80.0</ele><time>2026-03-28T11:51:38.413Z</time></trkpt><trkpt lat="40.9031017" lon="14.2854183"><ele>80.0</ele><time>2026-03-28T11:51:39.413Z</time></trkpt><trkpt lat="40.9030217" lon="14.2854417"><ele>80.66666666666667</ele><time>2026-03-28T11:51:40.413Z</time></trkpt><trkpt lat="40.902955" lon="14.2854667"><ele>81.33333333333334</ele><time>2026-03-28T11:51:41.413Z</time></trkpt><trkpt lat="40.9028867" lon="14.28549"><ele>82.0</ele><time>2026-03-28T11:51:42.413Z</time></trkpt><trkpt lat="40.90282" lon="14.2855117"><ele>82.66666666666667</ele><time>2026-03-28T11:51:43.413Z</time></trkpt><trkpt lat="40.9027533" lon="14.2855317"><ele>83.33333333333333</ele><time>2026-03-28T11:51:44.413Z</time></trkpt><trkpt lat="40.9026317" lon="14.2855733"><ele>84.0</ele><time>2026-03-28T11:51:46.413Z</time></trkpt><trkpt lat="40.9025667" lon="14.285585"><ele>84.5</ele><time>2026-03-28T11:51:47.413Z</time></trkpt><trkpt lat="40.9024467" lon="14.2856"><ele>85.0</ele><time>2026-03-28T11:51:49.414Z</time></trkpt><trkpt lat="40.9023283" lon="14.2856283"><ele>85.5</ele><time>2026-03-28T11:51:51.413Z</time></trkpt><trkpt lat="40.9022117" lon="14.2856483"><ele>86.0</ele><time>2026-03-28T11:51:53.413Z</time></trkpt><trkpt lat="40.9020967" lon="14.285685"><ele>86.0</ele><time>2026-03-28T11:51:55.413Z</time></trkpt><trkpt lat="40.9019867" lon="14.2857067"><ele>86.0</ele><time>2026-03-28T11:51:57.421Z</time></trkpt><trkpt lat="40.9018667" lon="14.2857267"><ele>86.0</ele><time>2026-03-28T11:51:59.413Z</time></trkpt><trkpt lat="40.901745" lon="14.28575"><ele>86.0</ele><time>2026-03-28T11:52:01.416Z</time></trkpt><trkpt lat="40.9016817" lon="14.2857667"><ele>86.0</ele><time>2026-03-28T11:52:02.413Z</time></trkpt><trkpt lat="40.90162" lon="14.2857833"><ele>85.8</ele><time>2026-03-28T11:52:03.413Z</time></trkpt><trkpt lat="40.9014917" lon="14.2858167"><ele>85.6</ele><time>2026-03-28T11:52:05.412Z</time></trkpt><trkpt lat="40.9014283" lon="14.2858317"><ele>85.4</ele><time>2026-03-28T11:52:06.413Z</time></trkpt><trkpt lat="40.90131" lon="14.2858517"><ele>85.2</ele><time>2026-03-28T11:52:08.413Z</time></trkpt><trkpt lat="40.9012467" lon="14.285865"><ele>85.0</ele><time>2026-03-28T11:52:09.413Z</time></trkpt><trkpt lat="40.901135" lon="14.2858817"><ele>85.0</ele><time>2026-03-28T11:52:11.413Z</time></trkpt><trkpt lat="40.901" lon="14.28591"><ele>85.0</ele><time>2026-03-28T11:52:13.413Z</time></trkpt><trkpt lat="40.9009183" lon="14.2859383"><ele>85.0</ele><time>2026-03-28T11:52:14.413Z</time></trkpt><trkpt lat="40.90085" lon="14.2859617"><ele>85.0</ele><time>2026-03-28T11:52:15.413Z</time></trkpt><trkpt lat="40.9007817" lon="14.28599"><ele>85.0</ele><time>2026-03-28T11:52:16.413Z</time></trkpt><trkpt lat="40.9007183" lon="14.2860017"><ele>85.0</ele><time>2026-03-28T11:52:17.413Z</time></trkpt><trkpt lat="40.900595" lon="14.28603"><ele>85.16666666666666</ele><time>2026-03-28T11:52:19.413Z</time></trkpt><trkpt lat="40.900505" lon="14.2860367"><ele>85.33333333333333</ele><time>2026-03-28T11:52:21.413Z</time></trkpt><trkpt lat="40.9004333" lon="14.2860233"><ele>85.5</ele><time>2026-03-28T11:52:23.415Z</time></trkpt><trkpt lat="40.9003533" lon="14.2860033"><ele>85.66666666666667</ele><time>2026-03-28T11:52:25.413Z</time></trkpt><trkpt lat="40.9002717" lon="14.2859717"><ele>85.83333333333334</ele><time>2026-03-28T11:52:27.413Z</time></trkpt><trkpt lat="40.9001767" lon="14.285945"><ele>86.0</ele><time>2026-03-28T11:52:29.413Z</time></trkpt><trkpt lat="40.9000833" lon="14.2859083"><ele>85.66666666666667</ele><time>2026-03-28T11:52:31.413Z</time></trkpt><trkpt lat="40.9000183" lon="14.2858767"><ele>85.33333333333334</ele><time>2026-03-28T11:52:33.414Z</time></trkpt><trkpt lat="40.89993" lon="14.2858183"><ele>85.0</ele><time>2026-03-28T11:52:36.413Z</time></trkpt><trkpt lat="40.8998517" lon="14.285775"><ele>84.66666666666667</ele><time>2026-03-28T11:52:38.413Z</time></trkpt><trkpt lat="40.8997667" lon="14.285735"><ele>84.33333333333333</ele><time>2026-03-28T11:52:40.413Z</time></trkpt><trkpt lat="40.8996733" lon="14.2856833"><ele>84.0</ele><time>2026-03-28T11:52:42.413Z</time></trkpt><trkpt lat="40.899575" lon="14.2856317"><ele>83.80000000000001</ele><time>2026-03-28T11:52:44.412Z</time></trkpt><trkpt lat="40.8994683" lon="14.2855817"><ele>83.60000000000001</ele><time>2026-03-28T11:52:46.413Z</time></trkpt><trkpt lat="40.8993733" lon="14.2855283"><ele>83.4</ele><time>2026-03-28T11:52:48.413Z</time></trkpt><trkpt lat="40.8992783" lon="14.28546"><ele>83.2</ele><time>2026-03-28T11:52:50.413Z</time></trkpt><trkpt lat="40.8991817" lon="14.2854033"><ele>83.0</ele><time>2026-03-28T11:52:52.413Z</time></trkpt><trkpt lat="40.8990817" lon="14.28534"><ele>83.0</ele><time>2026-03-28T11:52:54.423Z</time></trkpt><trkpt lat="40.8989933" lon="14.2852583"><ele>83.0</ele><time>2026-03-28T11:52:56.413Z</time></trkpt><trkpt lat="40.89891" lon="14.285175"><ele>83.0</ele><time>2026-03-28T11:52:58.413Z</time></trkpt><trkpt lat="40.8988167" lon="14.28509"><ele>83.0</ele><time>2026-03-28T11:53:00.415Z</time></trkpt><trkpt lat="40.8987233" lon="14.28501"><ele>83.0</ele><time>2026-03-28T11:53:02.412Z</time></trkpt><trkpt lat="40.8986267" lon="14.2849467"><ele>83.0</ele><time>2026-03-28T11:53:04.413Z</time></trkpt><trkpt lat="40.89855" lon="14.2848867"><ele>83.0</ele><time>2026-03-28T11:53:06.413Z</time></trkpt><trkpt lat="40.8984717" lon="14.2848733"><ele>83.0</ele><time>2026-03-28T11:53:08.413Z</time></trkpt><trkpt lat="40.8984033" lon="14.28488"><ele>83.0</ele><time>2026-03-28T11:53:12.413Z</time></trkpt><trkpt lat="40.8983783" lon="14.2850183"><ele>83.0</ele><time>2026-03-28T11:53:15.413Z</time></trkpt><trkpt lat="40.89837" lon="14.2851033"><ele>83.0</ele><time>2026-03-28T11:53:16.414Z</time></trkpt><trkpt lat="40.8983667" lon="14.2851867"><ele>83.0</ele><time>2026-03-28T11:53:17.413Z</time></trkpt><trkpt lat="40.89837" lon="14.2852867"><ele>83.0</ele><time>2026-03-28T11:53:18.413Z</time></trkpt><trkpt lat="40.8983833" lon="14.2854017"><ele>83.0</ele><time>2026-03-28T11:53:19.414Z</time></trkpt><trkpt lat="40.8984083" lon="14.2855383"><ele>83.0</ele><time>2026-03-28T11:53:20.413Z</time></trkpt><trkpt lat="40.89841" lon="14.2856483"><ele>83.0</ele><time>2026-03-28T11:53:21.412Z</time></trkpt><trkpt lat="40.898415" lon="14.28575"><ele>83.0</ele><time>2026-03-28T11:53:22.413Z</time></trkpt><trkpt lat="40.8984183" lon="14.2858467"><ele>82.71428571428571</ele><time>2026-03-28T11:53:23.415Z</time></trkpt><trkpt lat="40.8984233" lon="14.285955"><ele>82.42857142857143</ele><time>2026-03-28T11:53:24.413Z</time></trkpt><trkpt lat="40.8984367" lon="14.286055"><ele>82.14285714285714</ele><time>2026-03-28T11:53:25.413Z</time></trkpt><trkpt lat="40.89845" lon="14.2861533"><ele>81.85714285714286</ele><time>2026-03-28T11:53:26.413Z</time></trkpt><trkpt lat="40.89844" lon="14.28625"><ele>81.57142857142857</ele><time>2026-03-28T11:53:27.413Z</time></trkpt><trkpt lat="40.8984417" lon="14.2863417"><ele>81.28571428571429</ele><time>2026-03-28T11:53:28.413Z</time></trkpt><trkpt lat="40.8984467" lon="14.286435"><ele>81.0</ele><time>2026-03-28T11:53:29.413Z</time></trkpt><trkpt lat="40.8984517" lon="14.2865383"><ele>81.0</ele><time>2026-03-28T11:53:30.413Z</time></trkpt><trkpt lat="40.89846" lon="14.28663"><ele>81.0</ele><time>2026-03-28T11:53:31.413Z</time></trkpt><trkpt lat="40.898455" lon="14.2867833"><ele>81.0</ele><time>2026-03-28T11:53:33.413Z</time></trkpt><trkpt lat="40.8984683" lon="14.2868883"><ele>81.0</ele><time>2026-03-28T11:53:35.413Z</time></trkpt><trkpt lat="40.8984683" lon="14.28699"><ele>81.0</ele><time>2026-03-28T11:53:37.413Z</time></trkpt><trkpt lat="40.8984283" lon="14.2870967"><ele>81.0</ele><time>2026-03-28T11:53:40.413Z</time></trkpt><trkpt lat="40.8983633" lon="14.28715"><ele>81.19999999999999</ele><time>2026-03-28T11:53:42.413Z</time></trkpt><trkpt lat="40.8982617" lon="14.2871033"><ele>81.39999999999999</ele><time>2026-03-28T11:53:44.413Z</time></trkpt><trkpt lat="40.8981733" lon="14.2870217"><ele>81.6</ele><time>2026-03-28T11:53:46.413Z</time></trkpt><trkpt lat="40.8980783" lon="14.28697"><ele>81.8</ele><time>2026-03-28T11:53:48.414Z</time></trkpt><trkpt lat="40.8980117" lon="14.2869367"><ele>82.0</ele><time>2026-03-28T11:53:49.415Z</time></trkpt><trkpt lat="40.897945" lon="14.2869233"><ele>82.0</ele><time>2026-03-28T11:53:50.413Z</time></trkpt><trkpt lat="40.897825" lon="14.2868933"><ele>82.0</ele><time>2026-03-28T11:53:52.412Z</time></trkpt><trkpt lat="40.89771" lon="14.2868517"><ele>82.0</ele><time>2026-03-28T11:53:54.414Z</time></trkpt><trkpt lat="40.8975933" lon="14.2868117"><ele>82.0</ele><time>2026-03-28T11:53:56.414Z</time></trkpt><trkpt lat="40.89748" lon="14.2867717"><ele>81.6</ele><time>2026-03-28T11:53:58.413Z</time></trkpt><trkpt lat="40.8973717" lon="14.286745"><ele>81.19999999999999</ele><time>2026-03-28T11:54:00.412Z</time></trkpt><trkpt lat="40.89727" lon="14.2867067"><ele>80.8</ele><time>2026-03-28T11:54:02.414Z</time></trkpt><trkpt lat="40.8972067" lon="14.2866867"><ele>80.4</ele><time>2026-03-28T11:54:03.415Z</time></trkpt><trkpt lat="40.8970983" lon="14.286645"><ele>80.0</ele><time>2026-03-28T11:54:05.414Z</time></trkpt><trkpt lat="40.8969817" lon="14.2866017"><ele>80.0</ele><time>2026-03-28T11:54:07.413Z</time></trkpt><trkpt lat="40.89687" lon="14.2865617"><ele>80.0</ele><time>2026-03-28T11:54:09.414Z</time></trkpt><trkpt lat="40.8967667" lon="14.286505"><ele>80.0</ele><time>2026-03-28T11:54:11.413Z</time></trkpt><trkpt lat="40.8966817" lon="14.2864817"><ele>80.0</ele><time>2026-03-28T11:54:13.413Z</time></trkpt><trkpt lat="40.8965983" lon="14.28652"><ele>80.0</ele><time>2026-03-28T11:54:15.419Z</time></trkpt><trkpt lat="40.8965317" lon="14.2864967"><ele>80.0</ele><time>2026-03-28T11:54:17.412Z</time></trkpt><trkpt lat="40.89645" lon="14.2864767"><ele>80.0</ele><time>2026-03-28T11:54:19.414Z</time></trkpt><trkpt lat="40.8963817" lon="14.286465"><ele>80.0</ele><time>2026-03-28T11:54:21.413Z</time></trkpt><trkpt lat="40.8963117" lon="14.28642"><ele>80.0</ele><time>2026-03-28T11:54:23.413Z</time></trkpt><trkpt lat="40.8962367" lon="14.2863717"><ele>80.0</ele><time>2026-03-28T11:54:25.414Z</time></trkpt><trkpt lat="40.8961733" lon="14.286345"><ele>80.0</ele><time>2026-03-28T11:54:27.414Z</time></trkpt><trkpt lat="40.8960833" lon="14.28633"><ele>80.0</ele><time>2026-03-28T11:54:29.414Z</time></trkpt><trkpt lat="40.8959883" lon="14.28631"><ele>80.0</ele><time>2026-03-28T11:54:31.413Z</time></trkpt><trkpt lat="40.8958833" lon="14.2862833"><ele>80.0</ele><time>2026-03-28T11:54:33.413Z</time></trkpt><trkpt lat="40.8957917" lon="14.286265"><ele>80.0</ele><time>2026-03-28T11:54:35.415Z</time></trkpt><trkpt lat="40.8956683" lon="14.2862467"><ele>80.0</ele><time>2026-03-28T11:54:38.413Z</time></trkpt><trkpt lat="40.8955483" lon="14.2862333"><ele>78.0</ele><time>2026-03-28T11:54:41.414Z</time></trkpt><trkpt lat="40.8954683" lon="14.2862267"><ele>78.0</ele><time>2026-03-28T11:54:43.414Z</time></trkpt><trkpt lat="40.895385" lon="14.28624"><ele>78.0</ele><time>2026-03-28T11:54:45.414Z</time></trkpt><trkpt lat="40.895305" lon="14.2862367"><ele>78.0</ele><time>2026-03-28T11:54:47.412Z</time></trkpt></trkseg></trk></gpx>